<?xml version='1.0' encoding='UTF-8'?><gpx version="1.1" creator="JPX - https://github.com/jenetics/jpx" xmlns="http://www.topografix.com/GPX/1/1"><trk><trkseg><trkpt lat="45.895889874760066" lon="13.381315775125847"><ele>25.28571428571429</ele><time>2026-04-12T07:02:36.002Z</time></trkpt><trkpt lat="45.89586254805198" lon="13.381409759217034"><ele>25.571428571428573</ele><time>2026-04-12T07:02:38.002Z</time></trkpt><trkpt lat="45.89585022079474" lon="13.381512131458697"><ele>25.857142857142858</ele><time>2026-04-12T07:02:40.001Z</time></trkpt><trkpt lat="45.895838044864846" lon="13.381602737417252"><ele>26.142857142857146</ele><time>2026-04-12T07:02:42.001Z</time></trkpt><trkpt lat="45.89581237022118" lon="13.381709864428288"><ele>26.428571428571427</ele><time>2026-04-12T07:02:44.001Z</time></trkpt><trkpt lat="45.895790416224465" lon="13.381809610159909"><ele>26.714285714285715</ele><time>2026-04-12T07:02:46.001Z</time></trkpt><trkpt lat="45.895768503746105" lon="13.38190757017472"><ele>27.0</ele><time>2026-04-12T07:02:48.001Z</time></trkpt><trkpt lat="45.895766160457825" lon="13.38201817312368"><ele>27.0</ele><time>2026-04-12T07:02:51.001Z</time></trkpt><trkpt lat="45.8958210164711" lon="13.382070616948187"><ele>27.0</ele><time>2026-04-12T07:02:54.001Z</time></trkpt><trkpt lat="45.89592513906925" lon="13.382031933930818"><ele>27.0</ele><time>2026-04-12T07:02:56.001Z</time></trkpt><trkpt lat="45.89599809326935" lon="13.38199616841328"><ele>27.0</ele><time>2026-04-12T07:02:57.001Z</time></trkpt><trkpt lat="45.89607423098742" lon="13.381963310320105"><ele>27.0</ele><time>2026-04-12T07:02:58.001Z</time></trkpt><trkpt lat="45.8961653907225" lon="13.381917524016925"><ele>27.0</ele><time>2026-04-12T07:02:59.001Z</time></trkpt><trkpt lat="45.896274253494724" lon="13.381867433288052"><ele>26.75</ele><time>2026-04-12T07:03:00.001Z</time></trkpt><trkpt lat="45.89640061954911" lon="13.381811459994122"><ele>26.5</ele><time>2026-04-12T07:03:01.001Z</time></trkpt><trkpt lat="45.89654030784322" lon="13.381751085876777"><ele>26.25</ele><time>2026-04-12T07:03:02.001Z</time></trkpt><trkpt lat="45.896693309689105" lon="13.381681695730201"><ele>26.0</ele><time>2026-04-12T07:03:03.001Z</time></trkpt><trkpt lat="45.896853692350966" lon="13.38161050583063"><ele>26.0</ele><time>2026-04-12T07:03:04.001Z</time></trkpt><trkpt lat="45.89702162611574" lon="13.38153591561258"><ele>26.0</ele><time>2026-04-12T07:03:05.001Z</time></trkpt><trkpt lat="45.89719660221644" lon="13.381459345884998"><ele>26.0</ele><time>2026-04-12T07:03:06.001Z</time></trkpt><trkpt lat="45.897375931928245" lon="13.38138043636875"><ele>26.0</ele><time>2026-04-12T07:03:07.001Z</time></trkpt><trkpt lat="45.89756110598579" lon="13.381304544629014"><ele>26.0</ele><time>2026-04-12T07:03:08.001Z</time></trkpt><trkpt lat="45.89775308554416" lon="13.381231869335707"><ele>26.0</ele><time>2026-04-12T07:03:09.001Z</time></trkpt><trkpt lat="45.89794639042166" lon="13.381149838415412"><ele>26.0</ele><time>2026-04-12T07:03:10.001Z</time></trkpt><trkpt lat="45.89814275216939" lon="13.38107002518062"><ele>26.0</ele><time>2026-04-12T07:03:11.001Z</time></trkpt><trkpt lat="45.89834116936235" lon="13.38099477571312"><ele>26.0</ele><time>2026-04-12T07:03:12.001Z</time></trkpt><trkpt lat="45.898537354155685" lon="13.380912550427983"><ele>25.333333333333332</ele><time>2026-04-12T07:03:13.001Z</time></trkpt><trkpt lat="45.89873730876482" lon="13.380831476864895"><ele>24.666666666666664</ele><time>2026-04-12T07:03:14.001Z</time></trkpt><trkpt lat="45.898935888970286" lon="13.38075186962178"><ele>24.0</ele><time>2026-04-12T07:03:15.001Z</time></trkpt><trkpt lat="45.89913734574931" lon="13.380683925823924"><ele>24.666666666666664</ele><time>2026-04-12T07:03:16.001Z</time></trkpt><trkpt lat="45.89933856779337" lon="13.380629463549377"><ele>25.333333333333332</ele><time>2026-04-12T07:03:17.001Z</time></trkpt><trkpt lat="45.89954060804072" lon="13.380582353784039"><ele>26.0</ele><time>2026-04-12T07:03:18.001Z</time></trkpt><trkpt lat="45.89974406527683" lon="13.380540758523582"><ele>26.0</ele><time>2026-04-12T07:03:19.001Z</time></trkpt><trkpt lat="45.89994543540955" lon="13.380501776889941"><ele>26.0</ele><time>2026-04-12T07:03:20.001Z</time></trkpt><trkpt lat="45.90014727220666" lon="13.380466551404341"><ele>26.0</ele><time>2026-04-12T07:03:21.001Z</time></trkpt><trkpt lat="45.90035052071457" lon="13.380435633450912"><ele>26.0</ele><time>2026-04-12T07:03:22.001Z</time></trkpt><trkpt lat="45.90055202763558" lon="13.38041123662072"><ele>26.0</ele><time>2026-04-12T07:03:23.001Z</time></trkpt><trkpt lat="45.90075514745887" lon="13.380387854223676"><ele>26.0</ele><time>2026-04-12T07:03:24.001Z</time></trkpt><trkpt lat="45.90095744302931" lon="13.380357875864284"><ele>25.666666666666664</ele><time>2026-04-12T07:03:25.001Z</time></trkpt><trkpt lat="45.90115907113175" lon="13.380326155613997"><ele>25.333333333333336</ele><time>2026-04-12T07:03:26.001Z</time></trkpt><trkpt lat="45.90136062960354" lon="13.380296356105779"><ele>25.0</ele><time>2026-04-12T07:03:27.001Z</time></trkpt><trkpt lat="45.90155912584856" lon="13.380267961319545"><ele>25.333333333333336</ele><time>2026-04-12T07:03:28.001Z</time></trkpt><trkpt lat="45.90175904172529" lon="13.380240248181892"><ele>25.666666666666664</ele><time>2026-04-12T07:03:29.001Z</time></trkpt><trkpt lat="45.90195698255144" lon="13.380208617884223"><ele>26.0</ele><time>2026-04-12T07:03:30.001Z</time></trkpt><trkpt lat="45.90215590032554" lon="13.38016771224177"><ele>26.0</ele><time>2026-04-12T07:03:31.001Z</time></trkpt><trkpt lat="45.90235392990606" lon="13.380123347839806"><ele>26.0</ele><time>2026-04-12T07:03:32.001Z</time></trkpt><trkpt lat="45.90255198967281" lon="13.380080147889462"><ele>26.0</ele><time>2026-04-12T07:03:33.001Z</time></trkpt><trkpt lat="45.90275171249121" lon="13.380034445598987"><ele>26.333333333333332</ele><time>2026-04-12T07:03:34.001Z</time></trkpt><trkpt lat="45.90295111781169" lon="13.379988623359013"><ele>26.666666666666664</ele><time>2026-04-12T07:03:35.001Z</time></trkpt><trkpt lat="45.9031504651275" lon="13.37994320156651"><ele>27.0</ele><time>2026-04-12T07:03:36.001Z</time></trkpt><trkpt lat="45.90334983445675" lon="13.379897837267135"><ele>27.0</ele><time>2026-04-12T07:03:37.001Z</time></trkpt><trkpt lat="45.90355045930188" lon="13.379855475301705"><ele>27.0</ele><time>2026-04-12T07:03:38.001Z</time></trkpt><trkpt lat="45.90375327326961" lon="13.379813413507591"><ele>27.0</ele><time>2026-04-12T07:03:39.001Z</time></trkpt><trkpt lat="45.903955425145675" lon="13.379770254913613"><ele>27.0</ele><time>2026-04-12T07:03:40.001Z</time></trkpt><trkpt lat="45.904159219135614" lon="13.379724151996374"><ele>27.0</ele><time>2026-04-12T07:03:41.001Z</time></trkpt><trkpt lat="45.904362928640545" lon="13.379678933524588"><ele>27.0</ele><time>2026-04-12T07:03:42.001Z</time></trkpt><trkpt lat="45.90457126032333" lon="13.37964154299019"><ele>26.666666666666664</ele><time>2026-04-12T07:03:43.001Z</time></trkpt><trkpt lat="45.90478280951597" lon="13.3796117573692"><ele>26.333333333333332</ele><time>2026-04-12T07:03:44.001Z</time></trkpt><trkpt lat="45.904996982773376" lon="13.379586892254569"><ele>26.0</ele><time>2026-04-12T07:03:45.001Z</time></trkpt><trkpt lat="45.90521162033703" lon="13.3795615485698"><ele>26.666666666666664</ele><time>2026-04-12T07:03:46.001Z</time></trkpt><trkpt lat="45.9054284638929" lon="13.379536534339596"><ele>27.333333333333336</ele><time>2026-04-12T07:03:47.001Z</time></trkpt><trkpt lat="45.905648368830285" lon="13.379511337085196"><ele>28.0</ele><time>2026-04-12T07:03:48.001Z</time></trkpt><trkpt lat="45.90586945617397" lon="13.379482759448571"><ele>28.5</ele><time>2026-04-12T07:03:49.001Z</time></trkpt><trkpt lat="45.90609303484494" lon="13.379453783549364"><ele>29.0</ele><time>2026-04-12T07:03:50.001Z</time></trkpt><trkpt lat="45.90632005952331" lon="13.379421247849505"><ele>29.0</ele><time>2026-04-12T07:03:51.001Z</time></trkpt><trkpt lat="45.906547500816075" lon="13.379391281621986"><ele>29.0</ele><time>2026-04-12T07:03:52.001Z</time></trkpt><trkpt lat="45.9067756825669" lon="13.3793509200159"><ele>29.0</ele><time>2026-04-12T07:03:53.001Z</time></trkpt><trkpt lat="45.907004875323096" lon="13.379293647691084"><ele>29.0</ele><time>2026-04-12T07:03:54.001Z</time></trkpt><trkpt lat="45.90723279956285" lon="13.379212739749448"><ele>29.0</ele><time>2026-04-12T07:03:55.001Z</time></trkpt><trkpt lat="45.9074610694807" lon="13.379124825667626"><ele>29.0</ele><time>2026-04-12T07:03:56.001Z</time></trkpt><trkpt lat="45.907692131131675" lon="13.379035543506816"><ele>29.0</ele><time>2026-04-12T07:03:57.001Z</time></trkpt><trkpt lat="45.90792398011244" lon="13.37894956793836"><ele>29.0</ele><time>2026-04-12T07:03:58.001Z</time></trkpt><trkpt lat="45.90815935203267" lon="13.378874777686384"><ele>29.0</ele><time>2026-04-12T07:03:59.001Z</time></trkpt><trkpt lat="45.90839607226718" lon="13.378807127573946"><ele>29.0</ele><time>2026-04-12T07:04:00.001Z</time></trkpt><trkpt lat="45.90863582779818" lon="13.378751241042744"><ele>29.0</ele><time>2026-04-12T07:04:01.001Z</time></trkpt><trkpt lat="45.90887975289721" lon="13.378713127418926"><ele>29.0</ele><time>2026-04-12T07:04:02.001Z</time></trkpt><trkpt lat="45.909126637864055" lon="13.378688919455298"><ele>28.5</ele><time>2026-04-12T07:04:03.001Z</time></trkpt><trkpt lat="45.909375072697195" lon="13.37866943078085"><ele>28.0</ele><time>2026-04-12T07:04:04.001Z</time></trkpt><trkpt lat="45.90962472745369" lon="13.378661149051988"><ele>28.0</ele><time>2026-04-12T07:04:05.001Z</time></trkpt><trkpt lat="45.909875991756635" lon="13.378664910291018"><ele>28.0</ele><time>2026-04-12T07:04:06.001Z</time></trkpt><trkpt lat="45.91012881492973" lon="13.378681128258911"><ele>29.0</ele><time>2026-04-12T07:04:07.001Z</time></trkpt><trkpt lat="45.91038023771252" lon="13.378700377783009"><ele>30.0</ele><time>2026-04-12T07:04:08.001Z</time></trkpt><trkpt lat="45.91062226996824" lon="13.378716182941739"><ele>30.0</ele><time>2026-04-12T07:04:09.001Z</time></trkpt><trkpt lat="45.910855048465706" lon="13.378707121258495"><ele>30.0</ele><time>2026-04-12T07:04:10.001Z</time></trkpt><trkpt lat="45.911082201536864" lon="13.378657996870903"><ele>30.5</ele><time>2026-04-12T07:04:11.001Z</time></trkpt><trkpt lat="45.91130145720721" lon="13.378573974429223"><ele>31.0</ele><time>2026-04-12T07:04:12.001Z</time></trkpt><trkpt lat="45.91150966918909" lon="13.378456070729353"><ele>31.0</ele><time>2026-04-12T07:04:13.001Z</time></trkpt><trkpt lat="45.91170717292434" lon="13.378308516641454"><ele>31.0</ele><time>2026-04-12T07:04:14.001Z</time></trkpt><trkpt lat="45.911891126575654" lon="13.37813350144703"><ele>31.0</ele><time>2026-04-12T07:04:15.001Z</time></trkpt><trkpt lat="45.912068805192526" lon="13.377936844824"><ele>31.333333333333336</ele><time>2026-04-12T07:04:16.001Z</time></trkpt><trkpt lat="45.91224383344809" lon="13.377742189019997"><ele>31.666666666666664</ele><time>2026-04-12T07:04:17.001Z</time></trkpt><trkpt lat="45.91241481868159" lon="13.377567478702156"><ele>32.0</ele><time>2026-04-12T07:04:18.001Z</time></trkpt><trkpt lat="45.91256978398767" lon="13.377414383487917"><ele>32.33333333333333</ele><time>2026-04-12T07:04:19.001Z</time></trkpt><trkpt lat="45.91270698542346" lon="13.377270808542532"><ele>32.666666666666664</ele><time>2026-04-12T07:04:20.001Z</time></trkpt><trkpt lat="45.91283573516823" lon="13.377132690207757"><ele>33.0</ele><time>2026-04-12T07:04:21.001Z</time></trkpt><trkpt lat="45.91296704816902" lon="13.377006828476981"><ele>33.333333333333336</ele><time>2026-04-12T07:04:22.001Z</time></trkpt><trkpt lat="45.91310231786381" lon="13.376902425225545"><ele>33.66666666666667</ele><time>2026-04-12T07:04:23.001Z</time></trkpt><trkpt lat="45.913245663713965" lon="13.376825935285856"><ele>34.0</ele><time>2026-04-12T07:04:24.001Z</time></trkpt><trkpt lat="45.91337345561038" lon="13.376709145725584"><ele>33.66666666666667</ele><time>2026-04-12T07:04:25.001Z</time></trkpt><trkpt lat="45.913580723850224" lon="13.376733902015893"><ele>33.333333333333336</ele><time>2026-04-12T07:04:26.001Z</time></trkpt><trkpt lat="45.913757348494464" lon="13.376656004165877"><ele>33.0</ele><time>2026-04-12T07:04:27.001Z</time></trkpt><trkpt lat="45.913937823074114" lon="13.376577188353194"><ele>33.0</ele><time>2026-04-12T07:04:28.002Z</time></trkpt><trkpt lat="45.91413026671421" lon="13.376506822374667"><ele>33.0</ele><time>2026-04-12T07:04:29.002Z</time></trkpt><trkpt lat="45.9143272026567" lon="13.37643320560995"><ele>33.0</ele><time>2026-04-12T07:04:30.002Z</time></trkpt><trkpt lat="45.91453482834101" lon="13.376381013165231"><ele>32.666666666666664</ele><time>2026-04-12T07:04:31.002Z</time></trkpt><trkpt lat="45.91474504150977" lon="13.376346206120001"><ele>32.33333333333333</ele><time>2026-04-12T07:04:32.002Z</time></trkpt><trkpt lat="45.91496174571751" lon="13.376312042358737"><ele>32.0</ele><time>2026-04-12T07:04:33.002Z</time></trkpt><trkpt lat="45.91517912047836" lon="13.376277551030842"><ele>32.666666666666664</ele><time>2026-04-12T07:04:34.002Z</time></trkpt><trkpt lat="45.91539951977902" lon="13.376239295386034"><ele>33.333333333333336</ele><time>2026-04-12T07:04:35.001Z</time></trkpt><trkpt lat="45.91562315263535" lon="13.376206804096553"><ele>34.0</ele><time>2026-04-12T07:04:36.001Z</time></trkpt><trkpt lat="45.91584901030141" lon="13.376185843765683"><ele>33.5</ele><time>2026-04-12T07:04:37.001Z</time></trkpt><trkpt lat="45.916079362237745" lon="13.376179728096444"><ele>33.0</ele><time>2026-04-12T07:04:38.001Z</time></trkpt><trkpt lat="45.91631039491931" lon="13.376181270611013"><ele>33.0</ele><time>2026-04-12T07:04:39.001Z</time></trkpt><trkpt lat="45.916548084992826" lon="13.376171690397822"><ele>33.0</ele><time>2026-04-12T07:04:40.001Z</time></trkpt><trkpt lat="45.91678846104576" lon="13.376150046490537"><ele>31.5</ele><time>2026-04-12T07:04:41.001Z</time></trkpt><trkpt lat="45.91703372664687" lon="13.376113627809563"><ele>30.0</ele><time>2026-04-12T07:04:42.001Z</time></trkpt><trkpt lat="45.917281942378025" lon="13.376067905934773"><ele>30.0</ele><time>2026-04-12T07:04:43.001Z</time></trkpt><trkpt lat="45.91753635287311" lon="13.376023975095976"><ele>30.0</ele><time>2026-04-12T07:04:44.001Z</time></trkpt><trkpt lat="45.917793274731615" lon="13.375974993204135"><ele>31.0</ele><time>2026-04-12T07:04:45.001Z</time></trkpt><trkpt lat="45.918053458663394" lon="13.375928169749315"><ele>32.0</ele><time>2026-04-12T07:04:46.001Z</time></trkpt><trkpt lat="45.91831526678681" lon="13.375876826419601"><ele>32.0</ele><time>2026-04-12T07:04:47.001Z</time></trkpt><trkpt lat="45.91857303014825" lon="13.37580736984268"><ele>32.0</ele><time>2026-04-12T07:04:48.001Z</time></trkpt><trkpt lat="45.91882610851676" lon="13.37569789932713"><ele>32.0</ele><time>2026-04-12T07:04:49.001Z</time></trkpt><trkpt lat="45.91906629941497" lon="13.375528865271104"><ele>32.0</ele><time>2026-04-12T07:04:50.001Z</time></trkpt><trkpt lat="45.919294194859816" lon="13.375330336401166"><ele>31.5</ele><time>2026-04-12T07:04:51.001Z</time></trkpt><trkpt lat="45.919515154600106" lon="13.375094234297029"><ele>31.0</ele><time>2026-04-12T07:04:52.001Z</time></trkpt><trkpt lat="45.919736127657536" lon="13.374847803329638"><ele>31.0</ele><time>2026-04-12T07:04:53.001Z</time></trkpt><trkpt lat="45.919961844748" lon="13.374610318554183"><ele>31.0</ele><time>2026-04-12T07:04:54.001Z</time></trkpt><trkpt lat="45.92018439244271" lon="13.374379425051709"><ele>31.5</ele><time>2026-04-12T07:04:55.001Z</time></trkpt><trkpt lat="45.92040056589488" lon="13.374167889957263"><ele>32.0</ele><time>2026-04-12T07:04:56.001Z</time></trkpt><trkpt lat="45.920602330020635" lon="13.373986863078635"><ele>32.0</ele><time>2026-04-12T07:04:57.001Z</time></trkpt><trkpt lat="45.9207785741638" lon="13.373841353113468"><ele>32.0</ele><time>2026-04-12T07:04:58.001Z</time></trkpt><trkpt lat="45.92093079125395" lon="13.373713772074327"><ele>32.0</ele><time>2026-04-12T07:04:59.001Z</time></trkpt><trkpt lat="45.921062443200015" lon="13.373604532637763"><ele>32.0</ele><time>2026-04-12T07:05:00.001Z</time></trkpt><trkpt lat="45.92117796907696" lon="13.373520667101458"><ele>32.0</ele><time>2026-04-12T07:05:01.001Z</time></trkpt><trkpt lat="45.92128492449066" lon="13.373463364203156"><ele>32.0</ele><time>2026-04-12T07:05:02.001Z</time></trkpt><trkpt lat="45.92138469703589" lon="13.373447951641975"><ele>32.0</ele><time>2026-04-12T07:05:03.001Z</time></trkpt><trkpt lat="45.921480050132885" lon="13.373472500017956"><ele>32.0</ele><time>2026-04-12T07:05:04.001Z</time></trkpt><trkpt lat="45.921567380136494" lon="13.37348455542144"><ele>32.0</ele><time>2026-04-12T07:05:05.001Z</time></trkpt><trkpt lat="45.92164737934986" lon="13.373426092302239"><ele>32.0</ele><time>2026-04-12T07:05:06.001Z</time></trkpt><trkpt lat="45.92170370678288" lon="13.373297013400546"><ele>32.0</ele><time>2026-04-12T07:05:07.001Z</time></trkpt><trkpt lat="45.92176142786343" lon="13.373129087975082"><ele>32.0</ele><time>2026-04-12T07:05:08.001Z</time></trkpt><trkpt lat="45.921836986145614" lon="13.372975454962729"><ele>32.666666666666664</ele><time>2026-04-12T07:05:09.001Z</time></trkpt><trkpt lat="45.92196038745472" lon="13.372824595682923"><ele>33.333333333333336</ele><time>2026-04-12T07:05:10.001Z</time></trkpt><trkpt lat="45.92212898654351" lon="13.372686002507844"><ele>34.0</ele><time>2026-04-12T07:05:11.001Z</time></trkpt><trkpt lat="45.92229725379509" lon="13.372531963883565"><ele>34.0</ele><time>2026-04-12T07:05:12.001Z</time></trkpt><trkpt lat="45.922480323887" lon="13.372372248493434"><ele>34.0</ele><time>2026-04-12T07:05:13.001Z</time></trkpt><trkpt lat="45.92266721468816" lon="13.372210965214268"><ele>34.0</ele><time>2026-04-12T07:05:14Z</time></trkpt><trkpt lat="45.92286223365235" lon="13.372040015584298"><ele>33.5</ele><time>2026-04-12T07:05:15Z</time></trkpt><trkpt lat="45.923059169781745" lon="13.371866169812462"><ele>33.0</ele><time>2026-04-12T07:05:16Z</time></trkpt><trkpt lat="45.923250515714116" lon="13.371694959646504"><ele>33.0</ele><time>2026-04-12T07:05:17Z</time></trkpt><trkpt lat="45.92343197227996" lon="13.37153476433407"><ele>33.0</ele><time>2026-04-12T07:05:18Z</time></trkpt><trkpt lat="45.92360839056327" lon="13.371381814375262"><ele>33.0</ele><time>2026-04-12T07:05:19Z</time></trkpt><trkpt lat="45.923780581632755" lon="13.371233659611464"><ele>33.0</ele><time>2026-04-12T07:05:20Z</time></trkpt><trkpt lat="45.923951608478795" lon="13.371082742371815"><ele>33.0</ele><time>2026-04-12T07:05:21Z</time></trkpt><trkpt lat="45.92412354682079" lon="13.370932971144832"><ele>33.0</ele><time>2026-04-12T07:05:22Z</time></trkpt><trkpt lat="45.92429370203395" lon="13.370780750186322"><ele>33.0</ele><time>2026-04-12T07:05:23Z</time></trkpt><trkpt lat="45.924464985650644" lon="13.370630360714099"><ele>33.0</ele><time>2026-04-12T07:05:24Z</time></trkpt><trkpt lat="45.92463967463287" lon="13.370477233903221"><ele>33.0</ele><time>2026-04-12T07:05:25Z</time></trkpt><trkpt lat="45.92481449919583" lon="13.370324875503476"><ele>33.0</ele><time>2026-04-12T07:05:26Z</time></trkpt><trkpt lat="45.92498650101401" lon="13.370173209729755"><ele>33.0</ele><time>2026-04-12T07:05:27Z</time></trkpt><trkpt lat="45.925156962222445" lon="13.370023336290982"><ele>33.0</ele><time>2026-04-12T07:05:28Z</time></trkpt><trkpt lat="45.92532931082265" lon="13.369870484558321"><ele>33.0</ele><time>2026-04-12T07:05:29Z</time></trkpt><trkpt lat="45.9255048968944" lon="13.369711843737203"><ele>33.0</ele><time>2026-04-12T07:05:30Z</time></trkpt><trkpt lat="45.9256949554911" lon="13.369575183099007"><ele>33.0</ele><time>2026-04-12T07:05:31Z</time></trkpt><trkpt lat="45.92588281148296" lon="13.369408319534564"><ele>33.5</ele><time>2026-04-12T07:05:32Z</time></trkpt><trkpt lat="45.92607776829495" lon="13.369234489930685"><ele>34.0</ele><time>2026-04-12T07:05:33Z</time></trkpt><trkpt lat="45.92627628303787" lon="13.369054175356595"><ele>34.0</ele><time>2026-04-12T07:05:34Z</time></trkpt><trkpt lat="45.92647892164978" lon="13.368868027235148"><ele>34.0</ele><time>2026-04-12T07:05:35Z</time></trkpt><trkpt lat="45.926684952623084" lon="13.36867377137298"><ele>34.0</ele><time>2026-04-12T07:05:36Z</time></trkpt><trkpt lat="45.92689495686498" lon="13.368474547114213"><ele>34.0</ele><time>2026-04-12T07:05:37Z</time></trkpt><trkpt lat="45.92710876059888" lon="13.36827188917214"><ele>34.0</ele><time>2026-04-12T07:05:38Z</time></trkpt><trkpt lat="45.92731779238724" lon="13.368048626141622"><ele>34.0</ele><time>2026-04-12T07:05:39Z</time></trkpt><trkpt lat="45.927540106285186" lon="13.367845318285504"><ele>34.0</ele><time>2026-04-12T07:05:40Z</time></trkpt><trkpt lat="45.927764406040545" lon="13.367652335475382"><ele>34.0</ele><time>2026-04-12T07:05:41Z</time></trkpt><trkpt lat="45.927989322998194" lon="13.367488463516839"><ele>34.0</ele><time>2026-04-12T07:05:42Z</time></trkpt><trkpt lat="45.928214842842564" lon="13.367354534719608"><ele>34.0</ele><time>2026-04-12T07:05:43Z</time></trkpt><trkpt lat="45.92845052930368" lon="13.367250875645745"><ele>34.0</ele><time>2026-04-12T07:05:44Z</time></trkpt><trkpt lat="45.92868570486714" lon="13.367144571266893"><ele>34.0</ele><time>2026-04-12T07:05:45Z</time></trkpt><trkpt lat="45.92892204990089" lon="13.36703929801212"><ele>34.0</ele><time>2026-04-12T07:05:46Z</time></trkpt><trkpt lat="45.929158013438354" lon="13.366934194803598"><ele>34.0</ele><time>2026-04-12T07:05:47Z</time></trkpt><trkpt lat="45.92939748191837" lon="13.366810903889352"><ele>34.5</ele><time>2026-04-12T07:05:48Z</time></trkpt><trkpt lat="45.929650863614505" lon="13.366697173376028"><ele>35.0</ele><time>2026-04-12T07:05:49Z</time></trkpt><trkpt lat="45.92991342365845" lon="13.366576900142997"><ele>35.0</ele><time>2026-04-12T07:05:50Z</time></trkpt><trkpt lat="45.93018654227241" lon="13.366461224087228"><ele>35.0</ele><time>2026-04-12T07:05:51Z</time></trkpt><trkpt lat="45.93046931987205" lon="13.366336817382882"><ele>35.0</ele><time>2026-04-12T07:05:52Z</time></trkpt><trkpt lat="45.930756545618834" lon="13.366210125291776"><ele>35.0</ele><time>2026-04-12T07:05:53Z</time></trkpt><trkpt lat="45.93104965276194" lon="13.366077244525627"><ele>35.0</ele><time>2026-04-12T07:05:54Z</time></trkpt><trkpt lat="45.93134292941849" lon="13.36594480602153"><ele>35.0</ele><time>2026-04-12T07:05:55Z</time></trkpt><trkpt lat="45.931639134244506" lon="13.365817411385596"><ele>36.0</ele><time>2026-04-12T07:05:56Z</time></trkpt><trkpt lat="45.93193646710221" lon="13.36569371155163"><ele>37.0</ele><time>2026-04-12T07:05:57Z</time></trkpt><trkpt lat="45.93223233152273" lon="13.365591441147183"><ele>36.0</ele><time>2026-04-12T07:05:58Z</time></trkpt><trkpt lat="45.932527503368426" lon="13.365521267051546"><ele>35.0</ele><time>2026-04-12T07:05:59Z</time></trkpt><trkpt lat="45.93282223705446" lon="13.365471019940735"><ele>35.0</ele><time>2026-04-12T07:06:00Z</time></trkpt><trkpt lat="45.933114838348914" lon="13.365420308927044"><ele>35.0</ele><time>2026-04-12T07:06:01Z</time></trkpt><trkpt lat="45.933404289300185" lon="13.365368406572067"><ele>36.0</ele><time>2026-04-12T07:06:02Z</time></trkpt><trkpt lat="45.933691705176194" lon="13.365318401938296"><ele>37.0</ele><time>2026-04-12T07:06:03Z</time></trkpt><trkpt lat="45.933974493279" lon="13.365269332284932"><ele>37.0</ele><time>2026-04-12T07:06:04Z</time></trkpt><trkpt lat="45.93425627078694" lon="13.365220056615295"><ele>37.0</ele><time>2026-04-12T07:06:05Z</time></trkpt><trkpt lat="45.934534036030165" lon="13.365170494990382"><ele>37.0</ele><time>2026-04-12T07:06:06Z</time></trkpt><trkpt lat="45.93480248677054" lon="13.365122906580437"><ele>37.0</ele><time>2026-04-12T07:06:07Z</time></trkpt><trkpt lat="45.93506341749059" lon="13.365075928225822"><ele>36.5</ele><time>2026-04-12T07:06:08Z</time></trkpt><trkpt lat="45.93531903532441" lon="13.365029018377875"><ele>36.0</ele><time>2026-04-12T07:06:09Z</time></trkpt><trkpt lat="45.935567648894825" lon="13.364980502196445"><ele>36.0</ele><time>2026-04-12T07:06:10Z</time></trkpt><trkpt lat="45.93580404310153" lon="13.364936422776136"><ele>36.0</ele><time>2026-04-12T07:06:11Z</time></trkpt><trkpt lat="45.936021699602904" lon="13.364902729256373"><ele>36.666666666666664</ele><time>2026-04-12T07:06:12Z</time></trkpt><trkpt lat="45.936219405391135" lon="13.364870618404993"><ele>37.33333333333333</ele><time>2026-04-12T07:06:13Z</time></trkpt><trkpt lat="45.936415449747" lon="13.36482495368877"><ele>38.0</ele><time>2026-04-12T07:06:14Z</time></trkpt><trkpt lat="45.93660640239004" lon="13.364802843709079"><ele>39.0</ele><time>2026-04-12T07:06:15Z</time></trkpt><trkpt lat="45.936778884933176" lon="13.364663407458037"><ele>40.0</ele><time>2026-04-12T07:06:16Z</time></trkpt><trkpt lat="45.936939457624256" lon="13.364501268140476"><ele>41.0</ele><time>2026-04-12T07:06:17Z</time></trkpt><trkpt lat="45.93707963451676" lon="13.3642982062555"><ele>41.0</ele><time>2026-04-12T07:06:18Z</time></trkpt><trkpt lat="45.93719162606538" lon="13.364052518228311"><ele>41.0</ele><time>2026-04-12T07:06:19Z</time></trkpt><trkpt lat="45.937275843028395" lon="13.363773041295762"><ele>41.0</ele><time>2026-04-12T07:06:20Z</time></trkpt><trkpt lat="45.93733939431632" lon="13.363456927834479"><ele>39.5</ele><time>2026-04-12T07:06:21Z</time></trkpt><trkpt lat="45.93740302317001" lon="13.363117882686545"><ele>38.0</ele><time>2026-04-12T07:06:22Z</time></trkpt><trkpt lat="45.93747256838991" lon="13.36276733907929"><ele>38.0</ele><time>2026-04-12T07:06:23Z</time></trkpt><trkpt lat="45.93754311451195" lon="13.362402974432376"><ele>38.0</ele><time>2026-04-12T07:06:24Z</time></trkpt><trkpt lat="45.93761487775871" lon="13.362027561765904"><ele>38.0</ele><time>2026-04-12T07:06:25Z</time></trkpt><trkpt lat="45.937686231614926" lon="13.36164219694624"><ele>38.0</ele><time>2026-04-12T07:06:26Z</time></trkpt><trkpt lat="45.9377621177947" lon="13.361250855624313"><ele>38.0</ele><time>2026-04-12T07:06:27Z</time></trkpt><trkpt lat="45.93784842455298" lon="13.360859898631498"><ele>38.0</ele><time>2026-04-12T07:06:28Z</time></trkpt><trkpt lat="45.937946519786195" lon="13.360466583752684"><ele>38.0</ele><time>2026-04-12T07:06:29Z</time></trkpt><trkpt lat="45.938058858434104" lon="13.360076470804978"><ele>38.0</ele><time>2026-04-12T07:06:30Z</time></trkpt><trkpt lat="45.938183771605374" lon="13.359694039098445"><ele>38.0</ele><time>2026-04-12T07:06:31Z</time></trkpt><trkpt lat="45.938308192024344" lon="13.359315142188478"><ele>38.0</ele><time>2026-04-12T07:06:32Z</time></trkpt><trkpt lat="45.938429756060025" lon="13.358935798029425"><ele>38.5</ele><time>2026-04-12T07:06:33Z</time></trkpt><trkpt lat="45.938552441171794" lon="13.358559416690234"><ele>39.0</ele><time>2026-04-12T07:06:34.001Z</time></trkpt><trkpt lat="45.93867444391537" lon="13.358189094271498"><ele>38.5</ele><time>2026-04-12T07:06:35.001Z</time></trkpt><trkpt lat="45.93879022614663" lon="13.357843868042306"><ele>38.0</ele><time>2026-04-12T07:06:36.001Z</time></trkpt><trkpt lat="45.93891259336163" lon="13.357547651224404"><ele>38.0</ele><time>2026-04-12T07:06:37.001Z</time></trkpt><trkpt lat="45.93905949049636" lon="13.357260991751593"><ele>38.0</ele><time>2026-04-12T07:06:38.001Z</time></trkpt><trkpt lat="45.93922893984361" lon="13.357000057857194"><ele>38.5</ele><time>2026-04-12T07:06:39.001Z</time></trkpt><trkpt lat="45.93942079041384" lon="13.356769339037934"><ele>39.0</ele><time>2026-04-12T07:06:40.001Z</time></trkpt><trkpt lat="45.93962645819373" lon="13.35655827175537"><ele>39.0</ele><time>2026-04-12T07:06:41.001Z</time></trkpt><trkpt lat="45.93982983136872" lon="13.356340659347007"><ele>39.0</ele><time>2026-04-12T07:06:42.001Z</time></trkpt><trkpt lat="45.940018628458446" lon="13.356087901374913"><ele>39.0</ele><time>2026-04-12T07:06:43.001Z</time></trkpt><trkpt lat="45.94019795306677" lon="13.35581079871786"><ele>39.0</ele><time>2026-04-12T07:06:44.001Z</time></trkpt><trkpt lat="45.94035773233043" lon="13.355501164843375"><ele>38.5</ele><time>2026-04-12T07:06:45.001Z</time></trkpt><trkpt lat="45.94050630695061" lon="13.355170531962928"><ele>38.0</ele><time>2026-04-12T07:06:46.001Z</time></trkpt><trkpt lat="45.940646752307984" lon="13.35483113006967"><ele>38.0</ele><time>2026-04-12T07:06:47.001Z</time></trkpt><trkpt lat="45.94078745373151" lon="13.354492674562172"><ele>38.0</ele><time>2026-04-12T07:06:48.001Z</time></trkpt><trkpt lat="45.940918816044956" lon="13.354147320566105"><ele>38.5</ele><time>2026-04-12T07:06:49.001Z</time></trkpt><trkpt lat="45.941026098702814" lon="13.353791181929877"><ele>39.0</ele><time>2026-04-12T07:06:50.001Z</time></trkpt><trkpt lat="45.94110383585302" lon="13.353404194299117"><ele>39.5</ele><time>2026-04-12T07:06:51.001Z</time></trkpt><trkpt lat="45.941172507605835" lon="13.353005383523952"><ele>40.0</ele><time>2026-04-12T07:06:52.001Z</time></trkpt><trkpt lat="45.941239805802184" lon="13.352607106921688"><ele>40.0</ele><time>2026-04-12T07:06:53.001Z</time></trkpt><trkpt lat="45.94130867769091" lon="13.352209357668722"><ele>40.0</ele><time>2026-04-12T07:06:54.001Z</time></trkpt><trkpt lat="45.94137595194119" lon="13.351810274877463"><ele>40.0</ele><time>2026-04-12T07:06:55.001Z</time></trkpt><trkpt lat="45.941440611493825" lon="13.351410933999214"><ele>40.0</ele><time>2026-04-12T07:06:56.001Z</time></trkpt><trkpt lat="45.94150681944745" lon="13.351012224512635"><ele>40.0</ele><time>2026-04-12T07:06:57.001Z</time></trkpt><trkpt lat="45.9415743541644" lon="13.350626168076227"><ele>40.0</ele><time>2026-04-12T07:06:58.001Z</time></trkpt><trkpt lat="45.94163607384014" lon="13.3502691736446"><ele>39.5</ele><time>2026-04-12T07:06:59.001Z</time></trkpt><trkpt lat="45.94169709108122" lon="13.349939469769826"><ele>39.0</ele><time>2026-04-12T07:07:00.001Z</time></trkpt><trkpt lat="45.94177277664051" lon="13.349640841566158"><ele>39.0</ele><time>2026-04-12T07:07:01.001Z</time></trkpt><trkpt lat="45.94188002086163" lon="13.349363161955539"><ele>39.0</ele><time>2026-04-12T07:07:02.001Z</time></trkpt><trkpt lat="45.942016786262585" lon="13.349114711918865"><ele>39.0</ele><time>2026-04-12T07:07:03.001Z</time></trkpt><trkpt lat="45.94217730765168" lon="13.348897679506827"><ele>40.0</ele><time>2026-04-12T07:07:04Z</time></trkpt><trkpt lat="45.94236164352234" lon="13.34872012565734"><ele>41.0</ele><time>2026-04-12T07:07:05Z</time></trkpt><trkpt lat="45.94257215373707" lon="13.348577820453333"><ele>41.0</ele><time>2026-04-12T07:07:06Z</time></trkpt><trkpt lat="45.94280321802177" lon="13.348457957950608"><ele>41.0</ele><time>2026-04-12T07:07:07Z</time></trkpt><trkpt lat="45.943045211418685" lon="13.348341091286006"><ele>41.0</ele><time>2026-04-12T07:07:08Z</time></trkpt><trkpt lat="45.943299950630106" lon="13.348221165430159"><ele>41.0</ele><time>2026-04-12T07:07:09Z</time></trkpt><trkpt lat="45.94356267064503" lon="13.348095551727695"><ele>41.5</ele><time>2026-04-12T07:07:10Z</time></trkpt><trkpt lat="45.943830676419104" lon="13.34796691386549"><ele>42.0</ele><time>2026-04-12T07:07:11Z</time></trkpt><trkpt lat="45.944102672177145" lon="13.347834410130282"><ele>42.0</ele><time>2026-04-12T07:07:12Z</time></trkpt><trkpt lat="45.94437902306896" lon="13.347698657699178"><ele>42.0</ele><time>2026-04-12T07:07:13Z</time></trkpt><trkpt lat="45.94465925135636" lon="13.34756056157011"><ele>42.0</ele><time>2026-04-12T07:07:14Z</time></trkpt><trkpt lat="45.944943276917876" lon="13.347422194152958"><ele>42.0</ele><time>2026-04-12T07:07:15Z</time></trkpt><trkpt lat="45.94523354018274" lon="13.347281821049368"><ele>41.5</ele><time>2026-04-12T07:07:16Z</time></trkpt><trkpt lat="45.945528036034275" lon="13.347136497319726"><ele>41.0</ele><time>2026-04-12T07:07:17Z</time></trkpt><trkpt lat="45.945812423983526" lon="13.346998930240877"><ele>41.5</ele><time>2026-04-12T07:07:18Z</time></trkpt><trkpt lat="45.94608870944069" lon="13.346865440348076"><ele>42.0</ele><time>2026-04-12T07:07:19Z</time></trkpt><trkpt lat="45.946340221310635" lon="13.346742884249899"><ele>42.0</ele><time>2026-04-12T07:07:20Z</time></trkpt><trkpt lat="45.946578293465755" lon="13.346627470810859"><ele>42.0</ele><time>2026-04-12T07:07:21Z</time></trkpt><trkpt lat="45.94680650016224" lon="13.34651645929223"><ele>42.0</ele><time>2026-04-12T07:07:22Z</time></trkpt><trkpt lat="45.947023877568206" lon="13.346393572605432"><ele>42.0</ele><time>2026-04-12T07:07:23Z</time></trkpt><trkpt lat="45.947223438124816" lon="13.346237047534919"><ele>41.5</ele><time>2026-04-12T07:07:24Z</time></trkpt><trkpt lat="45.94740969861698" lon="13.34604057679785"><ele>41.0</ele><time>2026-04-12T07:07:25Z</time></trkpt><trkpt lat="45.94757779230192" lon="13.345815212335319"><ele>41.0</ele><time>2026-04-12T07:07:26Z</time></trkpt><trkpt lat="45.94772617187694" lon="13.345553944353057"><ele>41.0</ele><time>2026-04-12T07:07:27Z</time></trkpt><trkpt lat="45.94787012768661" lon="13.34527472325055"><ele>41.5</ele><time>2026-04-12T07:07:28Z</time></trkpt><trkpt lat="45.9480148372124" lon="13.344993365891826"><ele>42.0</ele><time>2026-04-12T07:07:29Z</time></trkpt><trkpt lat="45.948160637088726" lon="13.344707317442653"><ele>43.0</ele><time>2026-04-12T07:07:30Z</time></trkpt><trkpt lat="45.9483104258804" lon="13.344418776666734"><ele>44.0</ele><time>2026-04-12T07:07:31Z</time></trkpt><trkpt lat="45.94846429760043" lon="13.34413093274246"><ele>43.5</ele><time>2026-04-12T07:07:32Z</time></trkpt><trkpt lat="45.948617632170034" lon="13.34384080082641"><ele>43.0</ele><time>2026-04-12T07:07:33Z</time></trkpt><trkpt lat="45.94876745810499" lon="13.34354936252868"><ele>43.0</ele><time>2026-04-12T07:07:34Z</time></trkpt><trkpt lat="45.94891676475891" lon="13.34325793193935"><ele>43.0</ele><time>2026-04-12T07:07:35Z</time></trkpt><trkpt lat="45.94906397926591" lon="13.342973322366573"><ele>44.0</ele><time>2026-04-12T07:07:36Z</time></trkpt><trkpt lat="45.949216415232094" lon="13.34270138068725"><ele>45.0</ele><time>2026-04-12T07:07:37Z</time></trkpt><trkpt lat="45.94938178785074" lon="13.34245152704497"><ele>45.0</ele><time>2026-04-12T07:07:38Z</time></trkpt><trkpt lat="45.949562199934206" lon="13.342221432500793"><ele>45.0</ele><time>2026-04-12T07:07:39Z</time></trkpt><trkpt lat="45.94974798125494" lon="13.34199803225429"><ele>45.0</ele><time>2026-04-12T07:07:40Z</time></trkpt><trkpt lat="45.949941236828124" lon="13.341785952710637"><ele>45.0</ele><time>2026-04-12T07:07:41Z</time></trkpt><trkpt lat="45.95013897235777" lon="13.34157986233736"><ele>45.5</ele><time>2026-04-12T07:07:42Z</time></trkpt><trkpt lat="45.95033726190904" lon="13.341374058392335"><ele>46.0</ele><time>2026-04-12T07:07:43Z</time></trkpt><trkpt lat="45.95053598604186" lon="13.341167076171391"><ele>46.0</ele><time>2026-04-12T07:07:44Z</time></trkpt><trkpt lat="45.95073726055601" lon="13.340964650765436"><ele>46.0</ele><time>2026-04-12T07:07:45Z</time></trkpt><trkpt lat="45.95094410528755" lon="13.340774685176838"><ele>46.0</ele><time>2026-04-12T07:07:46Z</time></trkpt><trkpt lat="45.951156795298864" lon="13.3405987353364"><ele>46.0</ele><time>2026-04-12T07:07:47Z</time></trkpt><trkpt lat="45.95137438112459" lon="13.340428577604005"><ele>46.0</ele><time>2026-04-12T07:07:48Z</time></trkpt><trkpt lat="45.9515953200789" lon="13.340264719495526"><ele>46.0</ele><time>2026-04-12T07:07:49Z</time></trkpt><trkpt lat="45.951817378913276" lon="13.340102645783745"><ele>46.0</ele><time>2026-04-12T07:07:50Z</time></trkpt><trkpt lat="45.95204166155024" lon="13.339949447761592"><ele>46.0</ele><time>2026-04-12T07:07:51Z</time></trkpt><trkpt lat="45.952266706131674" lon="13.339799707883039"><ele>46.5</ele><time>2026-04-12T07:07:52Z</time></trkpt><trkpt lat="45.95248923082582" lon="13.33964460895811"><ele>47.0</ele><time>2026-04-12T07:07:53Z</time></trkpt><trkpt lat="45.95271208687955" lon="13.33948915634135"><ele>47.0</ele><time>2026-04-12T07:07:54Z</time></trkpt><trkpt lat="45.95293420594671" lon="13.33933502556955"><ele>47.0</ele><time>2026-04-12T07:07:55Z</time></trkpt><trkpt lat="45.953154948799344" lon="13.339180673161543"><ele>47.0</ele><time>2026-04-12T07:07:56Z</time></trkpt><trkpt lat="45.95337729625984" lon="13.339027043984485"><ele>47.0</ele><time>2026-04-12T07:07:57Z</time></trkpt><trkpt lat="45.95360198708846" lon="13.338871076938702"><ele>47.0</ele><time>2026-04-12T07:07:58Z</time></trkpt><trkpt lat="45.95382748588693" lon="13.338712009954694"><ele>47.0</ele><time>2026-04-12T07:07:59Z</time></trkpt><trkpt lat="45.95405502076114" lon="13.338551807527983"><ele>46.0</ele><time>2026-04-12T07:08:00Z</time></trkpt><trkpt lat="45.954285850186835" lon="13.338393190737746"><ele>45.0</ele><time>2026-04-12T07:08:01Z</time></trkpt><trkpt lat="45.954518903807326" lon="13.338233462693562"><ele>45.0</ele><time>2026-04-12T07:08:02Z</time></trkpt><trkpt lat="45.954753945496776" lon="13.33807260166177"><ele>45.0</ele><time>2026-04-12T07:08:03Z</time></trkpt><trkpt lat="45.95499051174331" lon="13.337909340279165"><ele>46.0</ele><time>2026-04-12T07:08:04Z</time></trkpt><trkpt lat="45.955227692239646" lon="13.33774224448343"><ele>47.0</ele><time>2026-04-12T07:08:05Z</time></trkpt><trkpt lat="45.955466599499836" lon="13.337573672147446"><ele>47.0</ele><time>2026-04-12T07:08:06Z</time></trkpt><trkpt lat="45.95570765464409" lon="13.337406461888413"><ele>47.0</ele><time>2026-04-12T07:08:07Z</time></trkpt><trkpt lat="45.95594959933979" lon="13.337239438002412"><ele>47.0</ele><time>2026-04-12T07:08:08Z</time></trkpt><trkpt lat="45.956192299756324" lon="13.337072086284202"><ele>47.0</ele><time>2026-04-12T07:08:09Z</time></trkpt><trkpt lat="45.956435210582285" lon="13.33690289558438"><ele>47.0</ele><time>2026-04-12T07:08:10Z</time></trkpt><trkpt lat="45.956679671860236" lon="13.33673216284384"><ele>47.0</ele><time>2026-04-12T07:08:11Z</time></trkpt><trkpt lat="45.9569233734755" lon="13.336559705139512"><ele>47.5</ele><time>2026-04-12T07:08:12Z</time></trkpt><trkpt lat="45.95716999584077" lon="13.336392031549954"><ele>48.0</ele><time>2026-04-12T07:08:13Z</time></trkpt><trkpt lat="45.95741717022466" lon="13.336224027049585"><ele>47.5</ele><time>2026-04-12T07:08:14Z</time></trkpt><trkpt lat="45.95766943398108" lon="13.336060433691836"><ele>47.0</ele><time>2026-04-12T07:08:15Z</time></trkpt><trkpt lat="45.957922639299916" lon="13.335901172622401"><ele>47.0</ele><time>2026-04-12T07:08:16Z</time></trkpt><trkpt lat="45.95817418342845" lon="13.335746086154888"><ele>47.0</ele><time>2026-04-12T07:08:17Z</time></trkpt><trkpt lat="45.958431423858634" lon="13.3356152157673"><ele>46.0</ele><time>2026-04-12T07:08:18Z</time></trkpt><trkpt lat="45.95869353505649" lon="13.335517458949553"><ele>45.0</ele><time>2026-04-12T07:08:19Z</time></trkpt><trkpt lat="45.95896067703338" lon="13.335447614910866"><ele>45.5</ele><time>2026-04-12T07:08:20Z</time></trkpt><trkpt lat="45.959225120676344" lon="13.335375046084696"><ele>46.0</ele><time>2026-04-12T07:08:21Z</time></trkpt><trkpt lat="45.95949030311621" lon="13.335298890231222"><ele>46.0</ele><time>2026-04-12T07:08:22Z</time></trkpt><trkpt lat="45.95975475389598" lon="13.335222788973166"><ele>46.0</ele><time>2026-04-12T07:08:23Z</time></trkpt><trkpt lat="45.96001793174664" lon="13.335147323374196"><ele>47.5</ele><time>2026-04-12T07:08:24Z</time></trkpt><trkpt lat="45.96028054801699" lon="13.33507013250341"><ele>49.0</ele><time>2026-04-12T07:08:25Z</time></trkpt><trkpt lat="45.96054266486991" lon="13.33499294057901"><ele>49.0</ele><time>2026-04-12T07:08:26Z</time></trkpt><trkpt lat="45.960804078859326" lon="13.33491599686397"><ele>49.0</ele><time>2026-04-12T07:08:27Z</time></trkpt><trkpt lat="45.961059707856364" lon="13.334834680821446"><ele>48.5</ele><time>2026-04-12T07:08:28Z</time></trkpt><trkpt lat="45.9613110703254" lon="13.334733969491797"><ele>48.0</ele><time>2026-04-12T07:08:29Z</time></trkpt><trkpt lat="45.961557101947015" lon="13.334608320775127"><ele>47.5</ele><time>2026-04-12T07:08:30Z</time></trkpt><trkpt lat="45.96179948556021" lon="13.334467463555786"><ele>47.0</ele><time>2026-04-12T07:08:31Z</time></trkpt><trkpt lat="45.962040492771564" lon="13.334318554264753"><ele>47.0</ele><time>2026-04-12T07:08:32Z</time></trkpt><trkpt lat="45.96228125827262" lon="13.334163157784786"><ele>47.0</ele><time>2026-04-12T07:08:33Z</time></trkpt><trkpt lat="45.96252529021819" lon="13.334005055372092"><ele>48.0</ele><time>2026-04-12T07:08:34Z</time></trkpt><trkpt lat="45.96277272945394" lon="13.333850330948234"><ele>49.0</ele><time>2026-04-12T07:08:35Z</time></trkpt><trkpt lat="45.96302398085032" lon="13.333696379989663"><ele>49.0</ele><time>2026-04-12T07:08:36Z</time></trkpt><trkpt lat="45.96327697936053" lon="13.333540773543394"><ele>49.0</ele><time>2026-04-12T07:08:37Z</time></trkpt><trkpt lat="45.963530626105225" lon="13.333380634665161"><ele>49.0</ele><time>2026-04-12T07:08:38Z</time></trkpt><trkpt lat="45.96378658513426" lon="13.333215890377522"><ele>49.0</ele><time>2026-04-12T07:08:39Z</time></trkpt><trkpt lat="45.96404338305611" lon="13.333050639049496"><ele>50.5</ele><time>2026-04-12T07:08:40.001Z</time></trkpt><trkpt lat="45.96430099056501" lon="13.332884510628451"><ele>52.0</ele><time>2026-04-12T07:08:41.001Z</time></trkpt><trkpt lat="45.96455852945332" lon="13.332724874174115"><ele>52.0</ele><time>2026-04-12T07:08:42.001Z</time></trkpt><trkpt lat="45.964815896040776" lon="13.33256564426121"><ele>52.0</ele><time>2026-04-12T07:08:43.001Z</time></trkpt><trkpt lat="45.965071942809935" lon="13.332403244021728"><ele>51.5</ele><time>2026-04-12T07:08:44.001Z</time></trkpt><trkpt lat="45.96532601219831" lon="13.332241720626664"><ele>51.0</ele><time>2026-04-12T07:08:45.001Z</time></trkpt><trkpt lat="45.96558057146731" lon="13.332088508027503"><ele>51.0</ele><time>2026-04-12T07:08:46.001Z</time></trkpt><trkpt lat="45.96583534207158" lon="13.331952740188253"><ele>51.0</ele><time>2026-04-12T07:08:47.001Z</time></trkpt><trkpt lat="45.96608990960565" lon="13.331838797456163"><ele>51.0</ele><time>2026-04-12T07:08:48.001Z</time></trkpt><trkpt lat="45.96634634446442" lon="13.331756015878982"><ele>51.0</ele><time>2026-04-12T07:08:49.001Z</time></trkpt><trkpt lat="45.966603092203094" lon="13.3316910556677"><ele>51.5</ele><time>2026-04-12T07:08:50.001Z</time></trkpt><trkpt lat="45.96685872172506" lon="13.33162677273652"><ele>52.0</ele><time>2026-04-12T07:08:51.001Z</time></trkpt><trkpt lat="45.967112455903916" lon="13.331564098725634"><ele>52.0</ele><time>2026-04-12T07:08:52.001Z</time></trkpt><trkpt lat="45.96736327556373" lon="13.331500505687806"><ele>52.0</ele><time>2026-04-12T07:08:53.001Z</time></trkpt><trkpt lat="45.967612068796214" lon="13.331434823368845"><ele>53.5</ele><time>2026-04-12T07:08:54.001Z</time></trkpt><trkpt lat="45.96785809426744" lon="13.331369552488498"><ele>55.0</ele><time>2026-04-12T07:08:55.001Z</time></trkpt><trkpt lat="45.968101801812935" lon="13.331306324019598"><ele>55.0</ele><time>2026-04-12T07:08:56.001Z</time></trkpt><trkpt lat="45.968344467120104" lon="13.331244384162028"><ele>55.0</ele><time>2026-04-12T07:08:57.001Z</time></trkpt><trkpt lat="45.96858653250629" lon="13.331181725502152"><ele>54.0</ele><time>2026-04-12T07:08:58Z</time></trkpt><trkpt lat="45.96882887725962" lon="13.331118793601554"><ele>53.0</ele><time>2026-04-12T07:08:59Z</time></trkpt><trkpt lat="45.96907254447317" lon="13.331055018629812"><ele>53.0</ele><time>2026-04-12T07:09:00Z</time></trkpt><trkpt lat="45.96931635486622" lon="13.33099127878461"><ele>53.0</ele><time>2026-04-12T07:09:01Z</time></trkpt><trkpt lat="45.96955976647517" lon="13.330928926016366"><ele>53.0</ele><time>2026-04-12T07:09:02Z</time></trkpt><trkpt lat="45.96980236462511" lon="13.330866414345133"><ele>53.0</ele><time>2026-04-12T07:09:03Z</time></trkpt><trkpt lat="45.9700449313318" lon="13.330802394999909"><ele>53.5</ele><time>2026-04-12T07:09:04Z</time></trkpt><trkpt lat="45.97028887796052" lon="13.330737355676325"><ele>54.0</ele><time>2026-04-12T07:09:05Z</time></trkpt><trkpt lat="45.970533368093704" lon="13.330673820862263"><ele>54.0</ele><time>2026-04-12T07:09:06Z</time></trkpt><trkpt lat="45.97077909214956" lon="13.330608660794546"><ele>54.0</ele><time>2026-04-12T07:09:07Z</time></trkpt><trkpt lat="45.971023503796786" lon="13.330542477561282"><ele>54.5</ele><time>2026-04-12T07:09:08Z</time></trkpt><trkpt lat="45.971268465357376" lon="13.330468554258452"><ele>55.0</ele><time>2026-04-12T07:09:09Z</time></trkpt><trkpt lat="45.97150929222443" lon="13.330371158767548"><ele>55.5</ele><time>2026-04-12T07:09:10Z</time></trkpt><trkpt lat="45.9717456353443" lon="13.330243674543482"><ele>56.0</ele><time>2026-04-12T07:09:11Z</time></trkpt><trkpt lat="45.971975701785176" lon="13.330097877884713"><ele>56.0</ele><time>2026-04-12T07:09:12Z</time></trkpt><trkpt lat="45.97220392901978" lon="13.32994294278068"><ele>56.0</ele><time>2026-04-12T07:09:13Z</time></trkpt><trkpt lat="45.97243336803796" lon="13.329789578602929"><ele>55.0</ele><time>2026-04-12T07:09:14Z</time></trkpt><trkpt lat="45.97266060410883" lon="13.32963427733905"><ele>54.0</ele><time>2026-04-12T07:09:15Z</time></trkpt><trkpt lat="45.972886546940174" lon="13.329478743709972"><ele>54.0</ele><time>2026-04-12T07:09:16Z</time></trkpt><trkpt lat="45.973110479229696" lon="13.329329517561515"><ele>54.0</ele><time>2026-04-12T07:09:17Z</time></trkpt><trkpt lat="45.9733311442427" lon="13.329180927080722"><ele>55.0</ele><time>2026-04-12T07:09:18Z</time></trkpt><trkpt lat="45.97354912465512" lon="13.329030314315345"><ele>56.0</ele><time>2026-04-12T07:09:19Z</time></trkpt><trkpt lat="45.97376516992144" lon="13.328879120003352"><ele>56.0</ele><time>2026-04-12T07:09:20Z</time></trkpt><trkpt lat="45.97397658062447" lon="13.328734481475925"><ele>56.0</ele><time>2026-04-12T07:09:21Z</time></trkpt><trkpt lat="45.97417547426111" lon="13.32860070181369"><ele>56.333333333333336</ele><time>2026-04-12T07:09:22Z</time></trkpt><trkpt lat="45.974360446265614" lon="13.32847806608409"><ele>56.66666666666667</ele><time>2026-04-12T07:09:23Z</time></trkpt><trkpt lat="45.97453332784407" lon="13.328361600991975"><ele>57.0</ele><time>2026-04-12T07:09:24Z</time></trkpt><trkpt lat="45.9747101045149" lon="13.328242495336971"><ele>57.0</ele><time>2026-04-12T07:09:25Z</time></trkpt><trkpt lat="45.97488122966956" lon="13.32812553770904"><ele>57.0</ele><time>2026-04-12T07:09:26Z</time></trkpt><trkpt lat="45.9750341614879" lon="13.328021620916381"><ele>57.0</ele><time>2026-04-12T07:09:27Z</time></trkpt><trkpt lat="45.975182642093664" lon="13.327933032460473"><ele>57.75</ele><time>2026-04-12T07:09:28Z</time></trkpt><trkpt lat="45.9753244179317" lon="13.32787727509881"><ele>58.5</ele><time>2026-04-12T07:09:29Z</time></trkpt><trkpt lat="45.975451474828795" lon="13.327844547922796"><ele>59.25</ele><time>2026-04-12T07:09:30Z</time></trkpt><trkpt lat="45.97557329735839" lon="13.327836941026977"><ele>60.0</ele><time>2026-04-12T07:09:31Z</time></trkpt><trkpt lat="45.975684933837165" lon="13.327853133866215"><ele>60.0</ele><time>2026-04-12T07:09:32Z</time></trkpt><trkpt lat="45.975780370870204" lon="13.327881844963528"><ele>60.0</ele><time>2026-04-12T07:09:33Z</time></trkpt><trkpt lat="45.97586090859427" lon="13.327924178450662"><ele>60.0</ele><time>2026-04-12T07:09:34Z</time></trkpt><trkpt lat="45.975927910601456" lon="13.32791957737211"><ele>60.0</ele><time>2026-04-12T07:09:35Z</time></trkpt><trkpt lat="45.97598504797653" lon="13.327785440742515"><ele>60.0</ele><time>2026-04-12T07:09:36Z</time></trkpt><trkpt lat="45.97599597610663" lon="13.327668421342095"><ele>60.0</ele><time>2026-04-12T07:09:37Z</time></trkpt><trkpt lat="45.97592130757747" lon="13.327525364239854"><ele>59.75</ele><time>2026-04-12T07:09:38Z</time></trkpt><trkpt lat="45.975885071779935" lon="13.327378070881823"><ele>59.5</ele><time>2026-04-12T07:09:39Z</time></trkpt><trkpt lat="45.975847250130705" lon="13.32720217834488"><ele>59.25</ele><time>2026-04-12T07:09:40Z</time></trkpt><trkpt lat="45.97579039145676" lon="13.327008305686142"><ele>59.0</ele><time>2026-04-12T07:09:41Z</time></trkpt><trkpt lat="45.975736834078596" lon="13.326772556489365"><ele>59.0</ele><time>2026-04-12T07:09:42Z</time></trkpt><trkpt lat="45.97565209874388" lon="13.326525508738468"><ele>59.0</ele><time>2026-04-12T07:09:43Z</time></trkpt><trkpt lat="45.975577923497596" lon="13.326259299562244"><ele>59.0</ele><time>2026-04-12T07:09:44Z</time></trkpt><trkpt lat="45.97550066497514" lon="13.325992231050893"><ele>58.333333333333336</ele><time>2026-04-12T07:09:45Z</time></trkpt><trkpt lat="45.97543478611811" lon="13.325759339333269"><ele>57.66666666666667</ele><time>2026-04-12T07:09:46Z</time></trkpt><trkpt lat="45.97537537684575" lon="13.325538199782399"><ele>57.0</ele><time>2026-04-12T07:09:47Z</time></trkpt><trkpt lat="45.9753128436971" lon="13.325302368657427"><ele>57.0</ele><time>2026-04-12T07:09:48Z</time></trkpt><trkpt lat="45.97525055714864" lon="13.325076188530963"><ele>57.0</ele><time>2026-04-12T07:09:49Z</time></trkpt><trkpt lat="45.97519011703887" lon="13.324854104573447"><ele>57.0</ele><time>2026-04-12T07:09:50Z</time></trkpt><trkpt lat="45.975125568158866" lon="13.324632141615664"><ele>56.66666666666667</ele><time>2026-04-12T07:09:51Z</time></trkpt><trkpt lat="45.97506182328736" lon="13.32442178765933"><ele>56.333333333333336</ele><time>2026-04-12T07:09:52Z</time></trkpt><trkpt lat="45.97500037569708" lon="13.324220782260136"><ele>56.0</ele><time>2026-04-12T07:09:53Z</time></trkpt><trkpt lat="45.9749397512482" lon="13.3240221759528"><ele>56.66666666666667</ele><time>2026-04-12T07:09:54Z</time></trkpt><trkpt lat="45.974879698222686" lon="13.323824722226004"><ele>57.33333333333333</ele><time>2026-04-12T07:09:55Z</time></trkpt><trkpt lat="45.97482002149051" lon="13.323623852505888"><ele>58.0</ele><time>2026-04-12T07:09:56Z</time></trkpt><trkpt lat="45.97475927701097" lon="13.323421589220011"><ele>58.0</ele><time>2026-04-12T07:09:57Z</time></trkpt><trkpt lat="45.97469872968099" lon="13.323218418776596"><ele>58.0</ele><time>2026-04-12T07:09:58Z</time></trkpt><trkpt lat="45.974651154238" lon="13.32304311292361"><ele>58.0</ele><time>2026-04-12T07:09:59Z</time></trkpt><trkpt lat="45.97460314800391" lon="13.322881228428999"><ele>58.0</ele><time>2026-04-12T07:10:00Z</time></trkpt><trkpt lat="45.974554028645514" lon="13.322715148599348"><ele>58.0</ele><time>2026-04-12T07:10:01Z</time></trkpt><trkpt lat="45.9745114783779" lon="13.32254594523108"><ele>58.0</ele><time>2026-04-12T07:10:02Z</time></trkpt><trkpt lat="45.9744824603841" lon="13.322374462203923"><ele>58.0</ele><time>2026-04-12T07:10:03Z</time></trkpt><trkpt lat="45.974469535017434" lon="13.32220082415243"><ele>58.0</ele><time>2026-04-12T07:10:04Z</time></trkpt><trkpt lat="45.97447711481444" lon="13.322027379746656"><ele>58.0</ele><time>2026-04-12T07:10:05Z</time></trkpt><trkpt lat="45.97450013594269" lon="13.321850054662622"><ele>58.0</ele><time>2026-04-12T07:10:06Z</time></trkpt><trkpt lat="45.974524075932734" lon="13.321665848600983"><ele>58.0</ele><time>2026-04-12T07:10:07Z</time></trkpt><trkpt lat="45.97455035148786" lon="13.321495820564008"><ele>58.0</ele><time>2026-04-12T07:10:08Z</time></trkpt><trkpt lat="45.97458083651406" lon="13.321346208727832"><ele>58.2</ele><time>2026-04-12T07:10:09Z</time></trkpt><trkpt lat="45.974623842853305" lon="13.321218317343153"><ele>58.4</ele><time>2026-04-12T07:10:10Z</time></trkpt><trkpt lat="45.97467993139775" lon="13.321129866869054"><ele>58.60000000000001</ele><time>2026-04-12T07:10:11Z</time></trkpt><trkpt lat="45.97475152291979" lon="13.321049215086871"><ele>58.800000000000004</ele><time>2026-04-12T07:10:12Z</time></trkpt><trkpt lat="45.974839096573" lon="13.3209840373379"><ele>59.0</ele><time>2026-04-12T07:10:13Z</time></trkpt><trkpt lat="45.9749458031358" lon="13.320920394289178"><ele>59.0</ele><time>2026-04-12T07:10:14Z</time></trkpt><trkpt lat="45.975070745880984" lon="13.320836289749085"><ele>59.0</ele><time>2026-04-12T07:10:15Z</time></trkpt><trkpt lat="45.975212725274446" lon="13.320766427516842"><ele>59.0</ele><time>2026-04-12T07:10:16Z</time></trkpt><trkpt lat="45.97536216150015" lon="13.320688477929245"><ele>59.0</ele><time>2026-04-12T07:10:17Z</time></trkpt><trkpt lat="45.97551646905246" lon="13.320606121308026"><ele>58.66666666666667</ele><time>2026-04-12T07:10:18Z</time></trkpt><trkpt lat="45.97566971920877" lon="13.320530698533444"><ele>58.33333333333333</ele><time>2026-04-12T07:10:19Z</time></trkpt><trkpt lat="45.975820951960095" lon="13.320451975197654"><ele>58.0</ele><time>2026-04-12T07:10:20Z</time></trkpt><trkpt lat="45.97596616103622" lon="13.320369946349786"><ele>57.666666666666664</ele><time>2026-04-12T07:10:21Z</time></trkpt><trkpt lat="45.97610841775848" lon="13.320287492983018"><ele>57.33333333333333</ele><time>2026-04-12T07:10:22Z</time></trkpt><trkpt lat="45.97625192909921" lon="13.320204665083452"><ele>57.0</ele><time>2026-04-12T07:10:23Z</time></trkpt><trkpt lat="45.9764001993196" lon="13.32011389636089"><ele>57.0</ele><time>2026-04-12T07:10:24Z</time></trkpt><trkpt lat="45.97654977438405" lon="13.32001421985743"><ele>57.0</ele><time>2026-04-12T07:10:25Z</time></trkpt><trkpt lat="45.97669634670372" lon="13.319909388126229"><ele>57.0</ele><time>2026-04-12T07:10:26Z</time></trkpt><trkpt lat="45.97684339783238" lon="13.319808801927984"><ele>57.33333333333333</ele><time>2026-04-12T07:10:27Z</time></trkpt><trkpt lat="45.97699715849376" lon="13.319727864042054"><ele>57.666666666666664</ele><time>2026-04-12T07:10:28Z</time></trkpt><trkpt lat="45.97714264025135" lon="13.319622410934278"><ele>58.0</ele><time>2026-04-12T07:10:29Z</time></trkpt><trkpt lat="45.97728614551004" lon="13.31951219194771"><ele>58.0</ele><time>2026-04-12T07:10:30Z</time></trkpt><trkpt lat="45.97742493096394" lon="13.319400498820073"><ele>58.0</ele><time>2026-04-12T07:10:31Z</time></trkpt><trkpt lat="45.97756045002234" lon="13.319285338042512"><ele>58.0</ele><time>2026-04-12T07:10:32Z</time></trkpt><trkpt lat="45.97769286273423" lon="13.319170435338862"><ele>58.33333333333333</ele><time>2026-04-12T07:10:33Z</time></trkpt><trkpt lat="45.97781520848408" lon="13.319033530613618"><ele>58.66666666666667</ele><time>2026-04-12T07:10:34Z</time></trkpt><trkpt lat="45.97794749131997" lon="13.318908337541709"><ele>59.0</ele><time>2026-04-12T07:10:35Z</time></trkpt><trkpt lat="45.97808960781539" lon="13.318799339400918"><ele>59.0</ele><time>2026-04-12T07:10:35.999Z</time></trkpt><trkpt lat="45.97821997054922" lon="13.318659783007405"><ele>59.0</ele><time>2026-04-12T07:10:36.999Z</time></trkpt><trkpt lat="45.97834936892715" lon="13.318523037598222"><ele>59.0</ele><time>2026-04-12T07:10:37.999Z</time></trkpt><trkpt lat="45.978470221101716" lon="13.318367133078942"><ele>58.66666666666667</ele><time>2026-04-12T07:10:38.999Z</time></trkpt><trkpt lat="45.97860653907983" lon="13.318234488901874"><ele>58.33333333333333</ele><time>2026-04-12T07:10:39.999Z</time></trkpt><trkpt lat="45.97874073678846" lon="13.318114251178862"><ele>58.0</ele><time>2026-04-12T07:10:40.999Z</time></trkpt><trkpt lat="45.97888242238823" lon="13.31800532202023"><ele>57.666666666666664</ele><time>2026-04-12T07:10:41.999Z</time></trkpt><trkpt lat="45.979036940952724" lon="13.317910420722987"><ele>57.33333333333333</ele><time>2026-04-12T07:10:42.999Z</time></trkpt><trkpt lat="45.97920094633398" lon="13.317853044607412"><ele>57.0</ele><time>2026-04-12T07:10:43.999Z</time></trkpt><trkpt lat="45.97935392905914" lon="13.317754279494585"><ele>57.66666666666667</ele><time>2026-04-12T07:10:44.999Z</time></trkpt><trkpt lat="45.979509997604964" lon="13.317671992140877"><ele>58.333333333333336</ele><time>2026-04-12T07:10:46Z</time></trkpt><trkpt lat="45.979657632760436" lon="13.317562969499486"><ele>59.0</ele><time>2026-04-12T07:10:47Z</time></trkpt><trkpt lat="45.97980513972695" lon="13.317452281619191"><ele>59.0</ele><time>2026-04-12T07:10:48Z</time></trkpt><trkpt lat="45.97995190965019" lon="13.317340513170121"><ele>59.0</ele><time>2026-04-12T07:10:49Z</time></trkpt><trkpt lat="45.98010258112524" lon="13.317218574281819"><ele>59.0</ele><time>2026-04-12T07:10:50Z</time></trkpt><trkpt lat="45.98025791648355" lon="13.317102447252761"><ele>59.0</ele><time>2026-04-12T07:10:51Z</time></trkpt><trkpt lat="45.980410610961464" lon="13.316982603839113"><ele>59.0</ele><time>2026-04-12T07:10:52Z</time></trkpt><trkpt lat="45.98055816257595" lon="13.316854269737945"><ele>59.0</ele><time>2026-04-12T07:10:53Z</time></trkpt><trkpt lat="45.9807045732262" lon="13.31672593734923"><ele>59.0</ele><time>2026-04-12T07:10:54Z</time></trkpt><trkpt lat="45.98084984201732" lon="13.316590507748792"><ele>59.0</ele><time>2026-04-12T07:10:55Z</time></trkpt><trkpt lat="45.980998236177335" lon="13.316455184884667"><ele>59.0</ele><time>2026-04-12T07:10:56Z</time></trkpt><trkpt lat="45.981153241832246" lon="13.316333210984759"><ele>59.0</ele><time>2026-04-12T07:10:57Z</time></trkpt><trkpt lat="45.98131347804496" lon="13.31622199543448"><ele>59.0</ele><time>2026-04-12T07:10:58Z</time></trkpt><trkpt lat="45.981478887312974" lon="13.316111879229464"><ele>59.0</ele><time>2026-04-12T07:10:59Z</time></trkpt><trkpt lat="45.98164757842043" lon="13.31599970141582"><ele>59.0</ele><time>2026-04-12T07:11:00Z</time></trkpt><trkpt lat="45.98181911798199" lon="13.315887320888601"><ele>59.0</ele><time>2026-04-12T07:11:01Z</time></trkpt><trkpt lat="45.98198747503448" lon="13.315776956972263"><ele>59.0</ele><time>2026-04-12T07:11:02Z</time></trkpt><trkpt lat="45.98215310768009" lon="13.31566360111403"><ele>59.0</ele><time>2026-04-12T07:11:03Z</time></trkpt><trkpt lat="45.98231659608707" lon="13.315545247638811"><ele>59.0</ele><time>2026-04-12T07:11:04Z</time></trkpt><trkpt lat="45.982478011240715" lon="13.315425030725185"><ele>59.0</ele><time>2026-04-12T07:11:05Z</time></trkpt><trkpt lat="45.98264023678628" lon="13.315301609115611"><ele>59.0</ele><time>2026-04-12T07:11:06Z</time></trkpt><trkpt lat="45.982804938813196" lon="13.315175572778715"><ele>59.0</ele><time>2026-04-12T07:11:07Z</time></trkpt><trkpt lat="45.982966675542" lon="13.315052564339247"><ele>59.0</ele><time>2026-04-12T07:11:08Z</time></trkpt><trkpt lat="45.98312858311242" lon="13.314926578679463"><ele>59.0</ele><time>2026-04-12T07:11:09Z</time></trkpt><trkpt lat="45.98328640896251" lon="13.314803048062073"><ele>59.0</ele><time>2026-04-12T07:11:10Z</time></trkpt><trkpt lat="45.98344003795359" lon="13.314677723402106"><ele>59.0</ele><time>2026-04-12T07:11:11Z</time></trkpt><trkpt lat="45.98358961494069" lon="13.31454161787194"><ele>59.66666666666667</ele><time>2026-04-12T07:11:12Z</time></trkpt><trkpt lat="45.983728984204014" lon="13.314396638769834"><ele>60.33333333333333</ele><time>2026-04-12T07:11:13Z</time></trkpt><trkpt lat="45.983861627086114" lon="13.314240899990212"><ele>61.0</ele><time>2026-04-12T07:11:14Z</time></trkpt><trkpt lat="45.983983252139986" lon="13.314068426926402"><ele>60.666666666666664</ele><time>2026-04-12T07:11:15Z</time></trkpt><trkpt lat="45.98409638248436" lon="13.3138851712561"><ele>60.33333333333333</ele><time>2026-04-12T07:11:16Z</time></trkpt><trkpt lat="45.984213058420096" lon="13.313706792798008"><ele>60.0</ele><time>2026-04-12T07:11:17Z</time></trkpt><trkpt lat="45.98434125459302" lon="13.313547094766381"><ele>60.0</ele><time>2026-04-12T07:11:18Z</time></trkpt><trkpt lat="45.98447902724212" lon="13.313395019162101"><ele>60.0</ele><time>2026-04-12T07:11:19Z</time></trkpt><trkpt lat="45.984624570894205" lon="13.31325778233946"><ele>60.0</ele><time>2026-04-12T07:11:20Z</time></trkpt><trkpt lat="45.98477506849987" lon="13.31312998886746"><ele>60.66666666666667</ele><time>2026-04-12T07:11:21Z</time></trkpt><trkpt lat="45.98493052795484" lon="13.313013816689642"><ele>61.333333333333336</ele><time>2026-04-12T07:11:22Z</time></trkpt><trkpt lat="45.985093036658874" lon="13.31291510247742"><ele>62.0</ele><time>2026-04-12T07:11:23Z</time></trkpt><trkpt lat="45.98526108148267" lon="13.312821885937264"><ele>62.0</ele><time>2026-04-12T07:11:24Z</time></trkpt><trkpt lat="45.98543055688755" lon="13.31273120331495"><ele>62.0</ele><time>2026-04-12T07:11:25Z</time></trkpt><trkpt lat="45.98559652011616" lon="13.312641841182213"><ele>62.0</ele><time>2026-04-12T07:11:26Z</time></trkpt><trkpt lat="45.985756389522834" lon="13.312551441683055"><ele>62.333333333333336</ele><time>2026-04-12T07:11:27Z</time></trkpt><trkpt lat="45.98591894883429" lon="13.312441747557816"><ele>62.66666666666667</ele><time>2026-04-12T07:11:28Z</time></trkpt><trkpt lat="45.98609064364384" lon="13.312314587495262"><ele>63.0</ele><time>2026-04-12T07:11:29Z</time></trkpt><trkpt lat="45.98626791427913" lon="13.312154788962008"><ele>63.0</ele><time>2026-04-12T07:11:30Z</time></trkpt><trkpt lat="45.9864472197702" lon="13.311993156106986"><ele>63.0</ele><time>2026-04-12T07:11:31Z</time></trkpt><trkpt lat="45.98661985549496" lon="13.311832151899152"><ele>63.0</ele><time>2026-04-12T07:11:32Z</time></trkpt><trkpt lat="45.98678510015524" lon="13.31164845784599"><ele>63.0</ele><time>2026-04-12T07:11:33Z</time></trkpt><trkpt lat="45.9869805867815" lon="13.311475710458703"><ele>63.0</ele><time>2026-04-12T07:11:34Z</time></trkpt><trkpt lat="45.987179344624046" lon="13.311284117616736"><ele>63.5</ele><time>2026-04-12T07:11:35Z</time></trkpt><trkpt lat="45.98738855585399" lon="13.311082324817935"><ele>64.0</ele><time>2026-04-12T07:11:36Z</time></trkpt><trkpt lat="45.98760476939935" lon="13.310880685365772"><ele>64.0</ele><time>2026-04-12T07:11:37Z</time></trkpt><trkpt lat="45.987826884470245" lon="13.31067161498945"><ele>64.0</ele><time>2026-04-12T07:11:38Z</time></trkpt><trkpt lat="45.98805050456211" lon="13.310459071437293"><ele>64.5</ele><time>2026-04-12T07:11:39Z</time></trkpt><trkpt lat="45.988276938857474" lon="13.310250363279966"><ele>65.0</ele><time>2026-04-12T07:11:40Z</time></trkpt><trkpt lat="45.988510435748225" lon="13.310045342234137"><ele>65.0</ele><time>2026-04-12T07:11:41Z</time></trkpt><trkpt lat="45.988747862511616" lon="13.309843672905377"><ele>65.0</ele><time>2026-04-12T07:11:42Z</time></trkpt><trkpt lat="45.98898604254599" lon="13.309644479298454"><ele>63.5</ele><time>2026-04-12T07:11:43Z</time></trkpt><trkpt lat="45.989220196042666" lon="13.30944666830313"><ele>62.0</ele><time>2026-04-12T07:11:44Z</time></trkpt><trkpt lat="45.98945262202659" lon="13.309250883981717"><ele>62.0</ele><time>2026-04-12T07:11:45Z</time></trkpt><trkpt lat="45.98968245064655" lon="13.309057383544241"><ele>62.0</ele><time>2026-04-12T07:11:46Z</time></trkpt><trkpt lat="45.98991054339859" lon="13.308865695700408"><ele>62.0</ele><time>2026-04-12T07:11:47Z</time></trkpt><trkpt lat="45.99013772581049" lon="13.308678804428299"><ele>62.0</ele><time>2026-04-12T07:11:48Z</time></trkpt><trkpt lat="45.99036339525423" lon="13.30849502908932"><ele>62.0</ele><time>2026-04-12T07:11:49Z</time></trkpt><trkpt lat="45.99058160304513" lon="13.30831215123893"><ele>62.0</ele><time>2026-04-12T07:11:50Z</time></trkpt><trkpt lat="45.99079407205876" lon="13.308128217032843"><ele>63.0</ele><time>2026-04-12T07:11:51Z</time></trkpt><trkpt lat="45.990998534422815" lon="13.307940045166488"><ele>64.0</ele><time>2026-04-12T07:11:52Z</time></trkpt><trkpt lat="45.99119458741761" lon="13.307747033740263"><ele>64.0</ele><time>2026-04-12T07:11:53Z</time></trkpt><trkpt lat="45.99138296990615" lon="13.307563580970982"><ele>64.0</ele><time>2026-04-12T07:11:54Z</time></trkpt><trkpt lat="45.99156665900134" lon="13.307419976357647"><ele>64.0</ele><time>2026-04-12T07:11:55Z</time></trkpt><trkpt lat="45.99175573406813" lon="13.307311710170412"><ele>64.66666666666666</ele><time>2026-04-12T07:11:56Z</time></trkpt><trkpt lat="45.99195038104603" lon="13.307279225222175"><ele>65.33333333333333</ele><time>2026-04-12T07:11:57Z</time></trkpt><trkpt lat="45.99215036365297" lon="13.307269427560195"><ele>66.0</ele><time>2026-04-12T07:11:58Z</time></trkpt><trkpt lat="45.992353078387566" lon="13.3072872124398"><ele>66.0</ele><time>2026-04-12T07:11:59Z</time></trkpt><trkpt lat="45.99253788292774" lon="13.3072917996547"><ele>66.0</ele><time>2026-04-12T07:12:00Z</time></trkpt><trkpt lat="45.9927087335602" lon="13.307287019413772"><ele>66.0</ele><time>2026-04-12T07:12:01Z</time></trkpt><trkpt lat="45.992860413062225" lon="13.307258814118539"><ele>66.33333333333333</ele><time>2026-04-12T07:12:02Z</time></trkpt><trkpt lat="45.99300774196801" lon="13.307178844713114"><ele>66.66666666666666</ele><time>2026-04-12T07:12:03Z</time></trkpt><trkpt lat="45.993154956022664" lon="13.307049224936845"><ele>67.0</ele><time>2026-04-12T07:12:04Z</time></trkpt><trkpt lat="45.993300347550544" lon="13.3068854397635"><ele>67.0</ele><time>2026-04-12T07:12:05Z</time></trkpt><trkpt lat="45.993449030175" lon="13.306714231412265"><ele>67.0</ele><time>2026-04-12T07:12:06Z</time></trkpt><trkpt lat="45.99360024341683" lon="13.306559164314786"><ele>67.0</ele><time>2026-04-12T07:12:07Z</time></trkpt><trkpt lat="45.99376070824211" lon="13.306425017688905"><ele>67.0</ele><time>2026-04-12T07:12:08Z</time></trkpt><trkpt lat="45.99393648662061" lon="13.30632130615257"><ele>67.0</ele><time>2026-04-12T07:12:09Z</time></trkpt><trkpt lat="45.99411986995665" lon="13.306230688500461"><ele>67.0</ele><time>2026-04-12T07:12:10Z</time></trkpt><trkpt lat="45.99429917191271" lon="13.30611482494433"><ele>67.0</ele><time>2026-04-12T07:12:11Z</time></trkpt><trkpt lat="45.994475265740334" lon="13.305978081357615"><ele>67.0</ele><time>2026-04-12T07:12:12Z</time></trkpt><trkpt lat="45.994644023009776" lon="13.305823138579948"><ele>67.0</ele><time>2026-04-12T07:12:13Z</time></trkpt><trkpt lat="45.99480385752172" lon="13.305666661884574"><ele>67.0</ele><time>2026-04-12T07:12:14Z</time></trkpt><trkpt lat="45.99497345761968" lon="13.3055625945375"><ele>67.0</ele><time>2026-04-12T07:12:15Z</time></trkpt><trkpt lat="45.99512191366551" lon="13.305466373586334"><ele>67.0</ele><time>2026-04-12T07:12:16Z</time></trkpt><trkpt lat="45.99526683546599" lon="13.305409243455331"><ele>67.0</ele><time>2026-04-12T07:12:17Z</time></trkpt><trkpt lat="45.99540780639427" lon="13.305367784163368"><ele>67.0</ele><time>2026-04-12T07:12:18Z</time></trkpt><trkpt lat="45.995528184983506" lon="13.3053323431323"><ele>67.0</ele><time>2026-04-12T07:12:19Z</time></trkpt><trkpt lat="45.99562745866041" lon="13.305302194295539"><ele>67.0</ele><time>2026-04-12T07:12:20Z</time></trkpt><trkpt lat="45.99571565519759" lon="13.305274991918253"><ele>67.0</ele><time>2026-04-12T07:12:21Z</time></trkpt><trkpt lat="45.99579526792097" lon="13.305223059590674"><ele>67.0</ele><time>2026-04-12T07:12:22Z</time></trkpt><trkpt lat="45.99585948016776" lon="13.305129047680401"><ele>67.0</ele><time>2026-04-12T07:12:23Z</time></trkpt><trkpt lat="45.995834289986995" lon="13.30493245284966"><ele>67.0</ele><time>2026-04-12T07:12:24Z</time></trkpt><trkpt lat="45.995825055969085" lon="13.304748240565635"><ele>67.0</ele><time>2026-04-12T07:12:25Z</time></trkpt><trkpt lat="45.99583599989885" lon="13.30453273859441"><ele>66.66666666666666</ele><time>2026-04-12T07:12:26Z</time></trkpt><trkpt lat="45.9958330590551" lon="13.304273072226259"><ele>66.33333333333333</ele><time>2026-04-12T07:12:26.999Z</time></trkpt><trkpt lat="45.99582983986327" lon="13.303982475008345"><ele>66.0</ele><time>2026-04-12T07:12:27.999Z</time></trkpt><trkpt lat="45.99582613153612" lon="13.303677224873914"><ele>66.0</ele><time>2026-04-12T07:12:28.999Z</time></trkpt><trkpt lat="45.99582248764486" lon="13.303436557026183"><ele>66.0</ele><time>2026-04-12T07:12:29.999Z</time></trkpt><trkpt lat="45.995809449991114" lon="13.303248149113616"><ele>66.0</ele><time>2026-04-12T07:12:30.999Z</time></trkpt><trkpt lat="45.99587033854287" lon="13.303106089636895"><ele>66.0</ele><time>2026-04-12T07:12:31.999Z</time></trkpt><trkpt lat="45.995929287874866" lon="13.302980622877234"><ele>66.75</ele><time>2026-04-12T07:12:32.999Z</time></trkpt><trkpt lat="45.99599507462907" lon="13.302851324374975"><ele>67.5</ele><time>2026-04-12T07:12:33.999Z</time></trkpt><trkpt lat="45.99606432670021" lon="13.302744420776987"><ele>68.25</ele><time>2026-04-12T07:12:34.999Z</time></trkpt><trkpt lat="45.99611220886926" lon="13.302639225348587"><ele>69.0</ele><time>2026-04-12T07:12:35.999Z</time></trkpt><trkpt lat="45.99649631507882" lon="13.302718971780434"><ele>69.0</ele><time>2026-04-12T07:12:37.999Z</time></trkpt><trkpt lat="45.99663964787733" lon="13.30277147055594"><ele>69.0</ele><time>2026-04-12T07:12:38.999Z</time></trkpt><trkpt lat="45.99679045673236" lon="13.302877703137764"><ele>69.0</ele><time>2026-04-12T07:12:39.999Z</time></trkpt><trkpt lat="45.99693413822966" lon="13.303021595452382"><ele>68.0</ele><time>2026-04-12T07:12:40.999Z</time></trkpt><trkpt lat="45.99707966821655" lon="13.303164549419867"><ele>67.0</ele><time>2026-04-12T07:12:41.999Z</time></trkpt><trkpt lat="45.99723305794276" lon="13.30326558644092"><ele>66.0</ele><time>2026-04-12T07:12:42.999Z</time></trkpt><trkpt lat="45.99740254740543" lon="13.303315127285792"><ele>66.5</ele><time>2026-04-12T07:12:43.999Z</time></trkpt><trkpt lat="45.99757499038789" lon="13.303341331260082"><ele>67.0</ele><time>2026-04-12T07:12:44.999Z</time></trkpt><trkpt lat="45.997716086563585" lon="13.303356101171536"><ele>67.5</ele><time>2026-04-12T07:12:45.999Z</time></trkpt><trkpt lat="45.99782608456909" lon="13.303352056495216"><ele>68.0</ele><time>2026-04-12T07:12:46.999Z</time></trkpt><trkpt lat="45.99791483280908" lon="13.30330461238311"><ele>68.0</ele><time>2026-04-12T07:12:47.999Z</time></trkpt><trkpt lat="45.99799794135078" lon="13.30321463744177"><ele>68.0</ele><time>2026-04-12T07:12:48.999Z</time></trkpt><trkpt lat="45.99805737161984" lon="13.303060422650562"><ele>68.0</ele><time>2026-04-12T07:12:49.999Z</time></trkpt><trkpt lat="45.99810205889966" lon="13.3028551392332"><ele>68.0</ele><time>2026-04-12T07:12:50.999Z</time></trkpt><trkpt lat="45.99815412259694" lon="13.302621659223519"><ele>68.0</ele><time>2026-04-12T07:12:52Z</time></trkpt><trkpt lat="45.99821256740369" lon="13.30237187145131"><ele>68.0</ele><time>2026-04-12T07:12:53Z</time></trkpt><trkpt lat="45.99826591394606" lon="13.302102390667038"><ele>68.0</ele><time>2026-04-12T07:12:54Z</time></trkpt><trkpt lat="45.9983187592096" lon="13.301808069161003"><ele>68.33333333333334</ele><time>2026-04-12T07:12:55Z</time></trkpt><trkpt lat="45.998368249638204" lon="13.301507037430463"><ele>68.66666666666667</ele><time>2026-04-12T07:12:56Z</time></trkpt><trkpt lat="45.99841794735732" lon="13.301212455069962"><ele>69.0</ele><time>2026-04-12T07:12:57Z</time></trkpt><trkpt lat="45.99846617616717" lon="13.300940386214792"><ele>69.0</ele><time>2026-04-12T07:12:58Z</time></trkpt><trkpt lat="45.99853228288613" lon="13.300693013905654"><ele>69.0</ele><time>2026-04-12T07:12:59Z</time></trkpt><trkpt lat="45.998623155896006" lon="13.300468651241886"><ele>69.0</ele><time>2026-04-12T07:13:00Z</time></trkpt><trkpt lat="45.99873537235121" lon="13.300254694841035"><ele>68.66666666666667</ele><time>2026-04-12T07:13:01Z</time></trkpt><trkpt lat="45.99885641103263" lon="13.300043121486027"><ele>68.33333333333334</ele><time>2026-04-12T07:13:02Z</time></trkpt><trkpt lat="45.998948955681676" lon="13.299804468885785"><ele>68.0</ele><time>2026-04-12T07:13:03Z</time></trkpt><trkpt lat="45.99902021848331" lon="13.299540369141036"><ele>68.0</ele><time>2026-04-12T07:13:04Z</time></trkpt><trkpt lat="45.99908377188542" lon="13.299257543570427"><ele>68.0</ele><time>2026-04-12T07:13:05Z</time></trkpt><trkpt lat="45.99914899245152" lon="13.298960926254098"><ele>68.0</ele><time>2026-04-12T07:13:06Z</time></trkpt><trkpt lat="45.99921888299795" lon="13.298657136013341"><ele>67.5</ele><time>2026-04-12T07:13:07Z</time></trkpt><trkpt lat="45.999289456788475" lon="13.29833759690429"><ele>67.0</ele><time>2026-04-12T07:13:08Z</time></trkpt><trkpt lat="45.99936473091588" lon="13.298003970299083"><ele>66.0</ele><time>2026-04-12T07:13:09Z</time></trkpt><trkpt lat="45.999441708048565" lon="13.297664641506051"><ele>65.0</ele><time>2026-04-12T07:13:10Z</time></trkpt><trkpt lat="45.99951962735238" lon="13.297316286706454"><ele>66.0</ele><time>2026-04-12T07:13:11Z</time></trkpt><trkpt lat="45.99959981296319" lon="13.296957169446816"><ele>67.0</ele><time>2026-04-12T07:13:12Z</time></trkpt><trkpt lat="45.999681208803764" lon="13.296569346904741"><ele>67.0</ele><time>2026-04-12T07:13:13Z</time></trkpt><trkpt lat="45.99976504731859" lon="13.29615994980058"><ele>67.0</ele><time>2026-04-12T07:13:14Z</time></trkpt><trkpt lat="45.99985311251197" lon="13.295737621626234"><ele>66.0</ele><time>2026-04-12T07:13:15Z</time></trkpt><trkpt lat="45.9999432725395" lon="13.295307427625728"><ele>65.0</ele><time>2026-04-12T07:13:16Z</time></trkpt><trkpt lat="46.000031994813185" lon="13.294883488000949"><ele>65.5</ele><time>2026-04-12T07:13:17Z</time></trkpt><trkpt lat="46.00011497184018" lon="13.294478229166165"><ele>66.0</ele><time>2026-04-12T07:13:18Z</time></trkpt><trkpt lat="46.00019310826262" lon="13.294102789985708"><ele>67.0</ele><time>2026-04-12T07:13:19Z</time></trkpt><trkpt lat="46.00027193785109" lon="13.293761920536896"><ele>68.0</ele><time>2026-04-12T07:13:20Z</time></trkpt><trkpt lat="46.00035844476615" lon="13.293459672812265"><ele>68.0</ele><time>2026-04-12T07:13:21Z</time></trkpt><trkpt lat="46.00047123590602" lon="13.293178631663352"><ele>68.0</ele><time>2026-04-12T07:13:22Z</time></trkpt><trkpt lat="46.00063184756656" lon="13.292924909070315"><ele>67.5</ele><time>2026-04-12T07:13:23Z</time></trkpt><trkpt lat="46.000810350649566" lon="13.292676190699206"><ele>67.0</ele><time>2026-04-12T07:13:24Z</time></trkpt><trkpt lat="46.00101617606653" lon="13.292432024545237"><ele>67.5</ele><time>2026-04-12T07:13:25Z</time></trkpt><trkpt lat="46.00123611150452" lon="13.292181416815364"><ele>68.0</ele><time>2026-04-12T07:13:26Z</time></trkpt><trkpt lat="46.00145817807299" lon="13.291903736456737"><ele>68.0</ele><time>2026-04-12T07:13:27Z</time></trkpt><trkpt lat="46.00169839732804" lon="13.291637919916418"><ele>68.0</ele><time>2026-04-12T07:13:28Z</time></trkpt><trkpt lat="46.00193128685003" lon="13.291368215704109"><ele>68.5</ele><time>2026-04-12T07:13:29Z</time></trkpt><trkpt lat="46.002151524228246" lon="13.291113988709919"><ele>69.0</ele><time>2026-04-12T07:13:30Z</time></trkpt><trkpt lat="46.00235653087857" lon="13.290872375056482"><ele>68.0</ele><time>2026-04-12T07:13:31Z</time></trkpt><trkpt lat="46.00254875430617" lon="13.290629898978029"><ele>67.0</ele><time>2026-04-12T07:13:32Z</time></trkpt><trkpt lat="46.00272478940585" lon="13.290372611512776"><ele>67.0</ele><time>2026-04-12T07:13:33Z</time></trkpt><trkpt lat="46.00290294434544" lon="13.29011009109457"><ele>67.0</ele><time>2026-04-12T07:13:34Z</time></trkpt><trkpt lat="46.003072844269134" lon="13.289823836786175"><ele>67.0</ele><time>2026-04-12T07:13:35Z</time></trkpt><trkpt lat="46.003254501266795" lon="13.289517773682505"><ele>67.0</ele><time>2026-04-12T07:13:36Z</time></trkpt><trkpt lat="46.00344330355938" lon="13.289199671894066"><ele>68.0</ele><time>2026-04-12T07:13:37Z</time></trkpt><trkpt lat="46.0036300310603" lon="13.288850404253227"><ele>69.0</ele><time>2026-04-12T07:13:38Z</time></trkpt><trkpt lat="46.003856389187895" lon="13.288505707829879"><ele>69.0</ele><time>2026-04-12T07:13:39Z</time></trkpt><trkpt lat="46.004095554362365" lon="13.288104924555979"><ele>69.0</ele><time>2026-04-12T07:13:40Z</time></trkpt><trkpt lat="46.00433570062541" lon="13.28766988040084"><ele>68.0</ele><time>2026-04-12T07:13:41Z</time></trkpt><trkpt lat="46.00459822461414" lon="13.287244756554099"><ele>67.0</ele><time>2026-04-12T07:13:42Z</time></trkpt><trkpt lat="46.00486382920017" lon="13.286827988444713"><ele>68.5</ele><time>2026-04-12T07:13:43Z</time></trkpt><trkpt lat="46.00513123870018" lon="13.286431032886732"><ele>70.0</ele><time>2026-04-12T07:13:44Z</time></trkpt><trkpt lat="46.005403449030496" lon="13.286062939173299"><ele>70.0</ele><time>2026-04-12T07:13:45Z</time></trkpt><trkpt lat="46.00566475321013" lon="13.285718617572856"><ele>70.0</ele><time>2026-04-12T07:13:46Z</time></trkpt><trkpt lat="46.00590605348168" lon="13.28539299206957"><ele>69.5</ele><time>2026-04-12T07:13:47Z</time></trkpt><trkpt lat="46.00613076651629" lon="13.28508176747549"><ele>69.0</ele><time>2026-04-12T07:13:48Z</time></trkpt><trkpt lat="46.00635443045071" lon="13.284797318168794"><ele>69.5</ele><time>2026-04-12T07:13:49Z</time></trkpt><trkpt lat="46.00656469119921" lon="13.284494415722444"><ele>70.0</ele><time>2026-04-12T07:13:50Z</time></trkpt><trkpt lat="46.00673528741859" lon="13.284135873531714"><ele>70.5</ele><time>2026-04-12T07:13:51Z</time></trkpt><trkpt lat="46.00688383098221" lon="13.28375618977177"><ele>71.0</ele><time>2026-04-12T07:13:52Z</time></trkpt><trkpt lat="46.007041805576556" lon="13.283378507889662"><ele>71.0</ele><time>2026-04-12T07:13:53Z</time></trkpt><trkpt lat="46.007196212474845" lon="13.282995244622425"><ele>71.0</ele><time>2026-04-12T07:13:54Z</time></trkpt><trkpt lat="46.00736705083307" lon="13.282633447875249"><ele>72.5</ele><time>2026-04-12T07:13:55Z</time></trkpt><trkpt lat="46.00752172617779" lon="13.282264364178372"><ele>74.0</ele><time>2026-04-12T07:13:56Z</time></trkpt><trkpt lat="46.00766113549463" lon="13.28188817917433"><ele>74.0</ele><time>2026-04-12T07:13:57Z</time></trkpt><trkpt lat="46.007814267450605" lon="13.281533506063761"><ele>74.0</ele><time>2026-04-12T07:13:58Z</time></trkpt><trkpt lat="46.00796005961347" lon="13.281185388479926"><ele>73.5</ele><time>2026-04-12T07:13:59Z</time></trkpt><trkpt lat="46.00808911423439" lon="13.28085685046693"><ele>73.0</ele><time>2026-04-12T07:14:00Z</time></trkpt><trkpt lat="46.00819285229985" lon="13.280547564173268"><ele>73.0</ele><time>2026-04-12T07:14:01Z</time></trkpt><trkpt lat="46.00827385199938" lon="13.280229949027335"><ele>73.0</ele><time>2026-04-12T07:14:02Z</time></trkpt><trkpt lat="46.00834607534091" lon="13.279903623328538"><ele>73.0</ele><time>2026-04-12T07:14:03Z</time></trkpt><trkpt lat="46.00836177509003" lon="13.279563002720376"><ele>73.0</ele><time>2026-04-12T07:14:04Z</time></trkpt><trkpt lat="46.00837883979083" lon="13.279255043790439"><ele>73.0</ele><time>2026-04-12T07:14:05Z</time></trkpt><trkpt lat="46.008411647536704" lon="13.278982947837557"><ele>73.0</ele><time>2026-04-12T07:14:06Z</time></trkpt><trkpt lat="46.00843058443982" lon="13.278734476033526"><ele>73.0</ele><time>2026-04-12T07:14:07Z</time></trkpt><trkpt lat="46.008499440846464" lon="13.278500998651465"><ele>74.0</ele><time>2026-04-12T07:14:08Z</time></trkpt><trkpt lat="46.00859789664624" lon="13.278295432158428"><ele>75.0</ele><time>2026-04-12T07:14:09Z</time></trkpt><trkpt lat="46.00873124251118" lon="13.278115994201796"><ele>76.0</ele><time>2026-04-12T07:14:10Z</time></trkpt><trkpt lat="46.00889632275618" lon="13.27797096502868"><ele>76.0</ele><time>2026-04-12T07:14:11Z</time></trkpt><trkpt lat="46.00909142718256" lon="13.277849455160421"><ele>76.0</ele><time>2026-04-12T07:14:12Z</time></trkpt><trkpt lat="46.00930430297946" lon="13.277723365843155"><ele>76.0</ele><time>2026-04-12T07:14:13Z</time></trkpt><trkpt lat="46.00952833758768" lon="13.277588297703167"><ele>76.0</ele><time>2026-04-12T07:14:14Z</time></trkpt><trkpt lat="46.009753613181815" lon="13.277446835006925"><ele>76.0</ele><time>2026-04-12T07:14:15Z</time></trkpt><trkpt lat="46.00996774273546" lon="13.277291428032838"><ele>75.0</ele><time>2026-04-12T07:14:16Z</time></trkpt><trkpt lat="46.01016996730633" lon="13.277112900231014"><ele>74.0</ele><time>2026-04-12T07:14:17Z</time></trkpt><trkpt lat="46.01035466610204" lon="13.276902408818005"><ele>74.0</ele><time>2026-04-12T07:14:18Z</time></trkpt><trkpt lat="46.01053218629088" lon="13.276661231005535"><ele>74.0</ele><time>2026-04-12T07:14:19Z</time></trkpt><trkpt lat="46.01071943579616" lon="13.276422257828347"><ele>75.0</ele><time>2026-04-12T07:14:20Z</time></trkpt><trkpt lat="46.01093026447109" lon="13.276208505355171"><ele>76.0</ele><time>2026-04-12T07:14:21Z</time></trkpt><trkpt lat="46.01115111297795" lon="13.275998175922048"><ele>76.0</ele><time>2026-04-12T07:14:22Z</time></trkpt><trkpt lat="46.011376516417165" lon="13.275783684123036"><ele>76.0</ele><time>2026-04-12T07:14:23Z</time></trkpt><trkpt lat="46.011606642411856" lon="13.275567846293233"><ele>76.0</ele><time>2026-04-12T07:14:24Z</time></trkpt><trkpt lat="46.011835544695444" lon="13.275352172410736"><ele>76.0</ele><time>2026-04-12T07:14:25Z</time></trkpt><trkpt lat="46.012039421972176" lon="13.275155594163216"><ele>76.0</ele><time>2026-04-12T07:14:26Z</time></trkpt><trkpt lat="46.012220407805415" lon="13.274987875137018"><ele>76.0</ele><time>2026-04-12T07:14:27Z</time></trkpt><trkpt lat="46.01238264550359" lon="13.274837686569121"><ele>76.0</ele><time>2026-04-12T07:14:27.999Z</time></trkpt><trkpt lat="46.01252261493275" lon="13.274682070602568"><ele>76.66666666666666</ele><time>2026-04-12T07:14:28.999Z</time></trkpt><trkpt lat="46.01264476172282" lon="13.274492263338946"><ele>77.33333333333333</ele><time>2026-04-12T07:14:29.999Z</time></trkpt><trkpt lat="46.012743556706056" lon="13.274259891490086"><ele>78.0</ele><time>2026-04-12T07:14:30.999Z</time></trkpt><trkpt lat="46.01281740017099" lon="13.273995487007843"><ele>78.0</ele><time>2026-04-12T07:14:31.999Z</time></trkpt><trkpt lat="46.01285506396132" lon="13.273701586182503"><ele>78.0</ele><time>2026-04-12T07:14:32.999Z</time></trkpt><trkpt lat="46.01287128143371" lon="13.273392627893818"><ele>78.0</ele><time>2026-04-12T07:14:33.999Z</time></trkpt><trkpt lat="46.0128736116709" lon="13.273064173470855"><ele>78.0</ele><time>2026-04-12T07:14:34.999Z</time></trkpt><trkpt lat="46.0128815494453" lon="13.27274527337692"><ele>78.0</ele><time>2026-04-12T07:14:35.999Z</time></trkpt><trkpt lat="46.01288809137088" lon="13.272448348114123"><ele>78.0</ele><time>2026-04-12T07:14:36.999Z</time></trkpt><trkpt lat="46.012888972196215" lon="13.27218360203072"><ele>77.33333333333333</ele><time>2026-04-12T07:14:37.999Z</time></trkpt><trkpt lat="46.012894750573324" lon="13.271944567646818"><ele>76.66666666666666</ele><time>2026-04-12T07:14:38.999Z</time></trkpt><trkpt lat="46.01291511108868" lon="13.271723225902047"><ele>76.0</ele><time>2026-04-12T07:14:39.999Z</time></trkpt><trkpt lat="46.01295665416401" lon="13.271524524377886"><ele>75.66666666666666</ele><time>2026-04-12T07:14:40.999Z</time></trkpt><trkpt lat="46.013027744075856" lon="13.271336602517145"><ele>75.33333333333333</ele><time>2026-04-12T07:14:41.999Z</time></trkpt><trkpt lat="46.013127611897666" lon="13.271143277529122"><ele>75.0</ele><time>2026-04-12T07:14:42.999Z</time></trkpt><trkpt lat="46.013234591866585" lon="13.270932725446936"><ele>75.33333333333333</ele><time>2026-04-12T07:14:43.999Z</time></trkpt><trkpt lat="46.013342409948365" lon="13.270741852530278"><ele>75.66666666666666</ele><time>2026-04-12T07:14:44.999Z</time></trkpt><trkpt lat="46.01346168209776" lon="13.2705847512785"><ele>76.0</ele><time>2026-04-12T07:14:45.999Z</time></trkpt><trkpt lat="46.013590723451685" lon="13.270475174511581"><ele>76.33333333333333</ele><time>2026-04-12T07:14:46.999Z</time></trkpt><trkpt lat="46.01373490972035" lon="13.270403706341263"><ele>76.66666666666667</ele><time>2026-04-12T07:14:47.999Z</time></trkpt><trkpt lat="46.013889735334985" lon="13.270359894690174"><ele>77.0</ele><time>2026-04-12T07:14:48.999Z</time></trkpt><trkpt lat="46.01404974929607" lon="13.270326618753217"><ele>77.33333333333334</ele><time>2026-04-12T07:14:49.999Z</time></trkpt><trkpt lat="46.014204635120194" lon="13.270287395853288"><ele>77.66666666666667</ele><time>2026-04-12T07:14:50.999Z</time></trkpt><trkpt lat="46.01435421414296" lon="13.27024419548392"><ele>78.0</ele><time>2026-04-12T07:14:51.999Z</time></trkpt><trkpt lat="46.01450044439732" lon="13.270200097032188"><ele>78.0</ele><time>2026-04-12T07:14:52.999Z</time></trkpt><trkpt lat="46.0146480484218" lon="13.270157584873512"><ele>78.0</ele><time>2026-04-12T07:14:53.999Z</time></trkpt><trkpt lat="46.014790736089054" lon="13.270122229789239"><ele>78.0</ele><time>2026-04-12T07:14:54.999Z</time></trkpt><trkpt lat="46.01492737246194" lon="13.270087044548825"><ele>78.0</ele><time>2026-04-12T07:14:55.999Z</time></trkpt><trkpt lat="46.015075800511234" lon="13.270046242019998"><ele>78.33333333333333</ele><time>2026-04-12T07:14:56.999Z</time></trkpt><trkpt lat="46.015232574110534" lon="13.270000553331482"><ele>78.66666666666666</ele><time>2026-04-12T07:14:58Z</time></trkpt><trkpt lat="46.015389325785776" lon="13.269956972649792"><ele>79.0</ele><time>2026-04-12T07:14:59Z</time></trkpt><trkpt lat="46.01554387022794" lon="13.269914419589732"><ele>79.0</ele><time>2026-04-12T07:15:00Z</time></trkpt><trkpt lat="46.01569630256054" lon="13.269870050331578"><ele>79.0</ele><time>2026-04-12T07:15:01Z</time></trkpt><trkpt lat="46.01584585665605" lon="13.269827402011655"><ele>79.0</ele><time>2026-04-12T07:15:02Z</time></trkpt><trkpt lat="46.01599341708373" lon="13.269788362036316"><ele>79.0</ele><time>2026-04-12T07:15:03Z</time></trkpt><trkpt lat="46.016138537071186" lon="13.26975095457626"><ele>79.0</ele><time>2026-04-12T07:15:04Z</time></trkpt><trkpt lat="46.01628461134891" lon="13.269711999125931"><ele>79.0</ele><time>2026-04-12T07:15:05Z</time></trkpt><trkpt lat="46.01643193515829" lon="13.269668894786516"><ele>79.0</ele><time>2026-04-12T07:15:06Z</time></trkpt><trkpt lat="46.016579374221934" lon="13.269624671553412"><ele>79.33333333333333</ele><time>2026-04-12T07:15:07Z</time></trkpt><trkpt lat="46.016729161343285" lon="13.269584494065843"><ele>79.66666666666667</ele><time>2026-04-12T07:15:08Z</time></trkpt><trkpt lat="46.016884169783665" lon="13.2695460075119"><ele>80.0</ele><time>2026-04-12T07:15:09Z</time></trkpt><trkpt lat="46.01703888440859" lon="13.269503835758591"><ele>80.0</ele><time>2026-04-12T07:15:10Z</time></trkpt><trkpt lat="46.01719017249154" lon="13.269460485229668"><ele>80.0</ele><time>2026-04-12T07:15:11Z</time></trkpt><trkpt lat="46.01734060372076" lon="13.26942061788049"><ele>80.0</ele><time>2026-04-12T07:15:12Z</time></trkpt><trkpt lat="46.017489183894305" lon="13.26938481191647"><ele>79.75</ele><time>2026-04-12T07:15:13Z</time></trkpt><trkpt lat="46.01763551580994" lon="13.269347758812327"><ele>79.5</ele><time>2026-04-12T07:15:14Z</time></trkpt><trkpt lat="46.01777982692069" lon="13.269305438347843"><ele>79.25</ele><time>2026-04-12T07:15:15Z</time></trkpt><trkpt lat="46.01792331165871" lon="13.26926375222775"><ele>79.0</ele><time>2026-04-12T07:15:16Z</time></trkpt><trkpt lat="46.01806629333661" lon="13.269222245045144"><ele>79.0</ele><time>2026-04-12T07:15:17Z</time></trkpt><trkpt lat="46.0182087997276" lon="13.26917913292176"><ele>79.0</ele><time>2026-04-12T07:15:18Z</time></trkpt><trkpt lat="46.01835064557959" lon="13.269138696274744"><ele>79.0</ele><time>2026-04-12T07:15:19Z</time></trkpt><trkpt lat="46.01849234113327" lon="13.269101304227965"><ele>79.0</ele><time>2026-04-12T07:15:20Z</time></trkpt><trkpt lat="46.01862122387232" lon="13.269063775649855"><ele>79.5</ele><time>2026-04-12T07:15:21Z</time></trkpt><trkpt lat="46.01873383804816" lon="13.269032388604971"><ele>80.0</ele><time>2026-04-12T07:15:22Z</time></trkpt><trkpt lat="46.018844286359005" lon="13.269006446815446"><ele>80.5</ele><time>2026-04-12T07:15:23Z</time></trkpt><trkpt lat="46.01896142209134" lon="13.268997288996756"><ele>81.0</ele><time>2026-04-12T07:15:24Z</time></trkpt><trkpt lat="46.01909096767833" lon="13.269031705483181"><ele>81.33333333333333</ele><time>2026-04-12T07:15:25Z</time></trkpt><trkpt lat="46.0192282194791" lon="13.269097631220857"><ele>81.66666666666666</ele><time>2026-04-12T07:15:26Z</time></trkpt><trkpt lat="46.01938345524038" lon="13.26918654411092"><ele>82.0</ele><time>2026-04-12T07:15:27Z</time></trkpt><trkpt lat="46.01955100985155" lon="13.269290224137606"><ele>82.0</ele><time>2026-04-12T07:15:28Z</time></trkpt><trkpt lat="46.019735039879734" lon="13.269367384757007"><ele>82.0</ele><time>2026-04-12T07:15:29Z</time></trkpt><trkpt lat="46.01993557778544" lon="13.269385776392234"><ele>82.0</ele><time>2026-04-12T07:15:30Z</time></trkpt><trkpt lat="46.020146804498104" lon="13.26937074677401"><ele>81.66666666666666</ele><time>2026-04-12T07:15:31Z</time></trkpt><trkpt lat="46.020360795559846" lon="13.269323454966056"><ele>81.33333333333333</ele><time>2026-04-12T07:15:32Z</time></trkpt><trkpt lat="46.02057456622297" lon="13.269245565723764"><ele>81.0</ele><time>2026-04-12T07:15:33Z</time></trkpt><trkpt lat="46.02078228572044" lon="13.269141237952711"><ele>81.0</ele><time>2026-04-12T07:15:34Z</time></trkpt><trkpt lat="46.02097452631481" lon="13.269011182634484"><ele>81.0</ele><time>2026-04-12T07:15:35Z</time></trkpt><trkpt lat="46.021142594741804" lon="13.268866445584083"><ele>81.0</ele><time>2026-04-12T07:15:36Z</time></trkpt><trkpt lat="46.021294833239324" lon="13.26871497176325"><ele>81.0</ele><time>2026-04-12T07:15:37Z</time></trkpt><trkpt lat="46.02142707333255" lon="13.268542758061491"><ele>81.0</ele><time>2026-04-12T07:15:38Z</time></trkpt><trkpt lat="46.02153618324405" lon="13.268347492153143"><ele>81.0</ele><time>2026-04-12T07:15:39Z</time></trkpt><trkpt lat="46.021615865897395" lon="13.26812863608924"><ele>81.66666666666667</ele><time>2026-04-12T07:15:40Z</time></trkpt><trkpt lat="46.02166056235999" lon="13.267884654190892"><ele>82.33333333333334</ele><time>2026-04-12T07:15:41Z</time></trkpt><trkpt lat="46.021660618098714" lon="13.267623938405368"><ele>83.0</ele><time>2026-04-12T07:15:42Z</time></trkpt><trkpt lat="46.02161462604712" lon="13.267370113670681"><ele>82.66666666666667</ele><time>2026-04-12T07:15:43Z</time></trkpt><trkpt lat="46.02152161028453" lon="13.267139047319482"><ele>82.33333333333333</ele><time>2026-04-12T07:15:44Z</time></trkpt><trkpt lat="46.02139058984349" lon="13.266946950619126"><ele>82.0</ele><time>2026-04-12T07:15:45Z</time></trkpt><trkpt lat="46.02123415679844" lon="13.266818381698357"><ele>82.0</ele><time>2026-04-12T07:15:46Z</time></trkpt><trkpt lat="46.02108207890479" lon="13.266745134622353"><ele>82.0</ele><time>2026-04-12T07:15:47Z</time></trkpt><trkpt lat="46.020923327727004" lon="13.266705028119055"><ele>82.0</ele><time>2026-04-12T07:15:48Z</time></trkpt><trkpt lat="46.02076103073104" lon="13.266689242070392"><ele>82.0</ele><time>2026-04-12T07:15:49Z</time></trkpt><trkpt lat="46.020618123583404" lon="13.266690297663672"><ele>82.0</ele><time>2026-04-12T07:15:50Z</time></trkpt><trkpt lat="46.02049327257452" lon="13.266734717944681"><ele>82.0</ele><time>2026-04-12T07:15:51Z</time></trkpt><trkpt lat="46.0203840473666" lon="13.266765611454357"><ele>82.0</ele><time>2026-04-12T07:15:52Z</time></trkpt><trkpt lat="46.02027873837075" lon="13.266800926635087"><ele>82.0</ele><time>2026-04-12T07:15:53Z</time></trkpt><trkpt lat="46.020152411022345" lon="13.266687637093968"><ele>82.0</ele><time>2026-04-12T07:15:54Z</time></trkpt><trkpt lat="46.020047286995954" lon="13.266613123304571"><ele>82.0</ele><time>2026-04-12T07:15:55Z</time></trkpt><trkpt lat="46.019949009442854" lon="13.266506814920868"><ele>82.0</ele><time>2026-04-12T07:15:56Z</time></trkpt><trkpt lat="46.019860416101785" lon="13.266367705058341"><ele>81.0</ele><time>2026-04-12T07:15:57Z</time></trkpt><trkpt lat="46.01978297185331" lon="13.26619850378285"><ele>80.0</ele><time>2026-04-12T07:15:58Z</time></trkpt><trkpt lat="46.01970357651877" lon="13.266000059936989"><ele>79.0</ele><time>2026-04-12T07:15:59Z</time></trkpt><trkpt lat="46.01961576316805" lon="13.26579634715575"><ele>79.33333333333333</ele><time>2026-04-12T07:16:00Z</time></trkpt><trkpt lat="46.019523155679366" lon="13.265585014229389"><ele>79.66666666666667</ele><time>2026-04-12T07:16:01Z</time></trkpt><trkpt lat="46.019424096499094" lon="13.265368190430179"><ele>80.0</ele><time>2026-04-12T07:16:02Z</time></trkpt><trkpt lat="46.01932035285794" lon="13.265139410397474"><ele>80.0</ele><time>2026-04-12T07:16:03Z</time></trkpt><trkpt lat="46.01921304451336" lon="13.26489253631458"><ele>80.0</ele><time>2026-04-12T07:16:04Z</time></trkpt><trkpt lat="46.01910532142969" lon="13.264628127442442"><ele>80.0</ele><time>2026-04-12T07:16:05Z</time></trkpt><trkpt lat="46.01899727603812" lon="13.264353319689997"><ele>80.0</ele><time>2026-04-12T07:16:06Z</time></trkpt><trkpt lat="46.018893568391725" lon="13.26408755973141"><ele>80.0</ele><time>2026-04-12T07:16:07Z</time></trkpt><trkpt lat="46.018792649883714" lon="13.263825656684222"><ele>80.0</ele><time>2026-04-12T07:16:08Z</time></trkpt><trkpt lat="46.01869499181996" lon="13.263570614471442"><ele>80.0</ele><time>2026-04-12T07:16:09Z</time></trkpt><trkpt lat="46.01859983918106" lon="13.263321096434629"><ele>80.0</ele><time>2026-04-12T07:16:10Z</time></trkpt><trkpt lat="46.0185035332306" lon="13.263067390917966"><ele>80.0</ele><time>2026-04-12T07:16:11Z</time></trkpt><trkpt lat="46.018402073670785" lon="13.26280633968318"><ele>80.0</ele><time>2026-04-12T07:16:12Z</time></trkpt><trkpt lat="46.0182824729253" lon="13.2625243708672"><ele>80.0</ele><time>2026-04-12T07:16:13Z</time></trkpt><trkpt lat="46.018149931001865" lon="13.262210362992475"><ele>79.0</ele><time>2026-04-12T07:16:14Z</time></trkpt><trkpt lat="46.01801434134673" lon="13.26186522609732"><ele>78.0</ele><time>2026-04-12T07:16:15Z</time></trkpt><trkpt lat="46.01787603882038" lon="13.261496643542275"><ele>78.0</ele><time>2026-04-12T07:16:16Z</time></trkpt><trkpt lat="46.01773046335739" lon="13.261113650658421"><ele>78.0</ele><time>2026-04-12T07:16:17Z</time></trkpt><trkpt lat="46.01758101122588" lon="13.260714481626"><ele>78.5</ele><time>2026-04-12T07:16:18Z</time></trkpt><trkpt lat="46.01742825404405" lon="13.260307584205743"><ele>79.0</ele><time>2026-04-12T07:16:19Z</time></trkpt><trkpt lat="46.017275409230834" lon="13.259896498722142"><ele>79.5</ele><time>2026-04-12T07:16:20Z</time></trkpt><trkpt lat="46.017126870650586" lon="13.259480993524013"><ele>80.0</ele><time>2026-04-12T07:16:21Z</time></trkpt><trkpt lat="46.01698122608368" lon="13.259060966518039"><ele>79.5</ele><time>2026-04-12T07:16:22Z</time></trkpt><trkpt lat="46.01684013745685" lon="13.258652544037995"><ele>79.0</ele><time>2026-04-12T07:16:23Z</time></trkpt><trkpt lat="46.016708578786776" lon="13.258254958520014"><ele>78.5</ele><time>2026-04-12T07:16:24Z</time></trkpt><trkpt lat="46.01658638598559" lon="13.257862747242866"><ele>78.0</ele><time>2026-04-12T07:16:25Z</time></trkpt><trkpt lat="46.01647169002128" lon="13.257471883786557"><ele>77.5</ele><time>2026-04-12T07:16:25.999Z</time></trkpt><trkpt lat="46.01636062118922" lon="13.257082312025213"><ele>77.0</ele><time>2026-04-12T07:16:26.999Z</time></trkpt><trkpt lat="46.016254206607584" lon="13.25668925453543"><ele>75.5</ele><time>2026-04-12T07:16:27.999Z</time></trkpt><trkpt lat="46.016152402900694" lon="13.256287613090121"><ele>74.0</ele><time>2026-04-12T07:16:28.999Z</time></trkpt><trkpt lat="46.016057365002354" lon="13.25588260217044"><ele>73.5</ele><time>2026-04-12T07:16:29.999Z</time></trkpt><trkpt lat="46.01596856709711" lon="13.255472665134342"><ele>73.0</ele><time>2026-04-12T07:16:30.999Z</time></trkpt><trkpt lat="46.015884594998056" lon="13.255053143457792"><ele>74.0</ele><time>2026-04-12T07:16:31.999Z</time></trkpt><trkpt lat="46.01580506293234" lon="13.25462535199737"><ele>75.0</ele><time>2026-04-12T07:16:32.999Z</time></trkpt><trkpt lat="46.01573350449657" lon="13.254190111964105"><ele>76.0</ele><time>2026-04-12T07:16:33.999Z</time></trkpt><trkpt lat="46.015668252321014" lon="13.253746047213554"><ele>77.0</ele><time>2026-04-12T07:16:34.999Z</time></trkpt><trkpt lat="46.01561236773446" lon="13.253297161115826"><ele>76.5</ele><time>2026-04-12T07:16:35.999Z</time></trkpt><trkpt lat="46.015564510627065" lon="13.252844771436319"><ele>76.0</ele><time>2026-04-12T07:16:36.999Z</time></trkpt><trkpt lat="46.015522508162725" lon="13.252387753713897"><ele>75.5</ele><time>2026-04-12T07:16:37.999Z</time></trkpt><trkpt lat="46.0154916871599" lon="13.251929679116147"><ele>75.0</ele><time>2026-04-12T07:16:38.999Z</time></trkpt><trkpt lat="46.0154711579492" lon="13.251475546675893"><ele>75.0</ele><time>2026-04-12T07:16:39.999Z</time></trkpt><trkpt lat="46.01545916816105" lon="13.251028970897973"><ele>75.0</ele><time>2026-04-12T07:16:40.999Z</time></trkpt><trkpt lat="46.01545421869816" lon="13.250599637750566"><ele>76.0</ele><time>2026-04-12T07:16:41.999Z</time></trkpt><trkpt lat="46.015457047577605" lon="13.250192686056778"><ele>77.0</ele><time>2026-04-12T07:16:42.999Z</time></trkpt><trkpt lat="46.01546776079213" lon="13.249802572567173"><ele>76.5</ele><time>2026-04-12T07:16:43.999Z</time></trkpt><trkpt lat="46.01546444383007" lon="13.249421431693918"><ele>76.0</ele><time>2026-04-12T07:16:44.999Z</time></trkpt><trkpt lat="46.01550598787859" lon="13.249039500883946"><ele>75.5</ele><time>2026-04-12T07:16:45.999Z</time></trkpt><trkpt lat="46.0155369138391" lon="13.248645410715438"><ele>75.0</ele><time>2026-04-12T07:16:46.999Z</time></trkpt><trkpt lat="46.015561616638294" lon="13.248253167026862"><ele>74.0</ele><time>2026-04-12T07:16:47.999Z</time></trkpt><trkpt lat="46.01559726376713" lon="13.247855110570281"><ele>73.0</ele><time>2026-04-12T07:16:48.999Z</time></trkpt><trkpt lat="46.01564075115378" lon="13.247453526444891"><ele>75.0</ele><time>2026-04-12T07:16:49.999Z</time></trkpt><trkpt lat="46.01569134166273" lon="13.247049167189216"><ele>77.0</ele><time>2026-04-12T07:16:50.999Z</time></trkpt><trkpt lat="46.01574653707678" lon="13.246641405090891"><ele>78.5</ele><time>2026-04-12T07:16:51.999Z</time></trkpt><trkpt lat="46.015806313690916" lon="13.24622915396795"><ele>80.0</ele><time>2026-04-12T07:16:52.999Z</time></trkpt><trkpt lat="46.01586374995384" lon="13.24581389085769"><ele>77.5</ele><time>2026-04-12T07:16:53.999Z</time></trkpt><trkpt lat="46.01592385719068" lon="13.24539504182065"><ele>75.0</ele><time>2026-04-12T07:16:54.999Z</time></trkpt><trkpt lat="46.01598808683104" lon="13.244969622080136"><ele>76.5</ele><time>2026-04-12T07:16:55.999Z</time></trkpt><trkpt lat="46.016062455668624" lon="13.244546867440837"><ele>78.0</ele><time>2026-04-12T07:16:56.999Z</time></trkpt><trkpt lat="46.016142451358704" lon="13.244122523230391"><ele>77.5</ele><time>2026-04-12T07:16:57.999Z</time></trkpt><trkpt lat="46.01622079295446" lon="13.243693314880867"><ele>77.0</ele><time>2026-04-12T07:16:58.999Z</time></trkpt><trkpt lat="46.01630012447857" lon="13.243262562272488"><ele>78.5</ele><time>2026-04-12T07:16:59.999Z</time></trkpt><trkpt lat="46.016378326411285" lon="13.242829526171906"><ele>80.0</ele><time>2026-04-12T07:17:00.999Z</time></trkpt><trkpt lat="46.01645536850831" lon="13.242402087743391"><ele>79.0</ele><time>2026-04-12T07:17:01.999Z</time></trkpt><trkpt lat="46.01653632056374" lon="13.24197126206767"><ele>78.0</ele><time>2026-04-12T07:17:02.999Z</time></trkpt><trkpt lat="46.016620845644" lon="13.241539506665605"><ele>77.0</ele><time>2026-04-12T07:17:04Z</time></trkpt><trkpt lat="46.01670344147793" lon="13.241109774117557"><ele>76.0</ele><time>2026-04-12T07:17:05Z</time></trkpt><trkpt lat="46.016789761997316" lon="13.240681705137245"><ele>77.0</ele><time>2026-04-12T07:17:06Z</time></trkpt><trkpt lat="46.01687621308151" lon="13.240248621852219"><ele>78.0</ele><time>2026-04-12T07:17:07Z</time></trkpt><trkpt lat="46.01695879933268" lon="13.239826392870041"><ele>77.0</ele><time>2026-04-12T07:17:08Z</time></trkpt><trkpt lat="46.01704139410248" lon="13.239400865316831"><ele>76.0</ele><time>2026-04-12T07:17:09Z</time></trkpt><trkpt lat="46.01712138761049" lon="13.23897556543071"><ele>76.5</ele><time>2026-04-12T07:17:10Z</time></trkpt><trkpt lat="46.01719955907614" lon="13.23855246398423"><ele>77.0</ele><time>2026-04-12T07:17:11Z</time></trkpt><trkpt lat="46.017275653281864" lon="13.23813374568457"><ele>77.0</ele><time>2026-04-12T07:17:12Z</time></trkpt><trkpt lat="46.017351009532675" lon="13.237720322599076"><ele>77.0</ele><time>2026-04-12T07:17:13Z</time></trkpt><trkpt lat="46.0174267664429" lon="13.237309624490033"><ele>78.0</ele><time>2026-04-12T07:17:14Z</time></trkpt><trkpt lat="46.017502230452415" lon="13.236903897598209"><ele>79.0</ele><time>2026-04-12T07:17:15Z</time></trkpt><trkpt lat="46.017574613357155" lon="13.23650629720013"><ele>79.0</ele><time>2026-04-12T07:17:16Z</time></trkpt><trkpt lat="46.01763878708179" lon="13.236108204611236"><ele>79.0</ele><time>2026-04-12T07:17:17Z</time></trkpt><trkpt lat="46.017690679658685" lon="13.235703420558098"><ele>78.5</ele><time>2026-04-12T07:17:18Z</time></trkpt><trkpt lat="46.01773245177115" lon="13.235293099107086"><ele>78.0</ele><time>2026-04-12T07:17:19Z</time></trkpt><trkpt lat="46.01776530486587" lon="13.23487797709907"><ele>78.0</ele><time>2026-04-12T07:17:20Z</time></trkpt><trkpt lat="46.01779636500181" lon="13.234462430587069"><ele>78.0</ele><time>2026-04-12T07:17:21Z</time></trkpt><trkpt lat="46.01781869227771" lon="13.234042378485949"><ele>78.0</ele><time>2026-04-12T07:17:22Z</time></trkpt><trkpt lat="46.01783206367031" lon="13.233631835783848"><ele>78.0</ele><time>2026-04-12T07:17:23Z</time></trkpt><trkpt lat="46.01783358609732" lon="13.233235156731416"><ele>78.5</ele><time>2026-04-12T07:17:24Z</time></trkpt><trkpt lat="46.01782410810837" lon="13.23286146548729"><ele>79.0</ele><time>2026-04-12T07:17:25Z</time></trkpt><trkpt lat="46.0178093610248" lon="13.232515564384142"><ele>78.66666666666666</ele><time>2026-04-12T07:17:26Z</time></trkpt><trkpt lat="46.0177927342454" lon="13.232191319607496"><ele>78.33333333333333</ele><time>2026-04-12T07:17:27Z</time></trkpt><trkpt lat="46.01777111113517" lon="13.231882735806222"><ele>78.0</ele><time>2026-04-12T07:17:28Z</time></trkpt><trkpt lat="46.017739204868064" lon="13.231582858314184"><ele>78.0</ele><time>2026-04-12T07:17:29Z</time></trkpt><trkpt lat="46.01770077681207" lon="13.231285534066606"><ele>78.0</ele><time>2026-04-12T07:17:30Z</time></trkpt><trkpt lat="46.01765913807126" lon="13.23099291749573"><ele>78.0</ele><time>2026-04-12T07:17:31Z</time></trkpt><trkpt lat="46.01761415408205" lon="13.230695674268832"><ele>78.5</ele><time>2026-04-12T07:17:32Z</time></trkpt><trkpt lat="46.01756301602215" lon="13.23038730920645"><ele>79.0</ele><time>2026-04-12T07:17:33Z</time></trkpt><trkpt lat="46.017501617780155" lon="13.230068261831326"><ele>78.5</ele><time>2026-04-12T07:17:34Z</time></trkpt><trkpt lat="46.01742906450745" lon="13.229749345147397"><ele>78.0</ele><time>2026-04-12T07:17:35Z</time></trkpt><trkpt lat="46.01735241793107" lon="13.229441569431357"><ele>78.0</ele><time>2026-04-12T07:17:36Z</time></trkpt><trkpt lat="46.01727039785246" lon="13.229138231486989"><ele>78.0</ele><time>2026-04-12T07:17:37Z</time></trkpt><trkpt lat="46.01719015799289" lon="13.228853716335268"><ele>78.0</ele><time>2026-04-12T07:17:38Z</time></trkpt><trkpt lat="46.01711286783011" lon="13.228583770793074"><ele>78.33333333333333</ele><time>2026-04-12T07:17:39Z</time></trkpt><trkpt lat="46.01704000183958" lon="13.228299684788306"><ele>78.66666666666666</ele><time>2026-04-12T07:17:40Z</time></trkpt><trkpt lat="46.01698506718158" lon="13.228007037772281"><ele>79.0</ele><time>2026-04-12T07:17:41Z</time></trkpt><trkpt lat="46.01695583693703" lon="13.227709504351804"><ele>79.33333333333333</ele><time>2026-04-12T07:17:42Z</time></trkpt><trkpt lat="46.01694555895128" lon="13.227412512040228"><ele>79.66666666666667</ele><time>2026-04-12T07:17:43Z</time></trkpt><trkpt lat="46.016952449302536" lon="13.227113822039458"><ele>80.0</ele><time>2026-04-12T07:17:44Z</time></trkpt><trkpt lat="46.01698025118879" lon="13.226810955733722"><ele>80.0</ele><time>2026-04-12T07:17:45Z</time></trkpt><trkpt lat="46.01702950473665" lon="13.226505935965072"><ele>80.0</ele><time>2026-04-12T07:17:46Z</time></trkpt><trkpt lat="46.01708145369171" lon="13.226194762230952"><ele>80.0</ele><time>2026-04-12T07:17:47Z</time></trkpt><trkpt lat="46.01711184412006" lon="13.225864040788384"><ele>79.0</ele><time>2026-04-12T07:17:48Z</time></trkpt><trkpt lat="46.01712370061653" lon="13.225521305689526"><ele>78.0</ele><time>2026-04-12T07:17:49Z</time></trkpt><trkpt lat="46.017108935472415" lon="13.225179852615913"><ele>78.0</ele><time>2026-04-12T07:17:50Z</time></trkpt><trkpt lat="46.017071377924594" lon="13.224844718407777"><ele>78.0</ele><time>2026-04-12T07:17:51Z</time></trkpt><trkpt lat="46.01701035169926" lon="13.224517725025297"><ele>78.0</ele><time>2026-04-12T07:17:52Z</time></trkpt><trkpt lat="46.016938184374744" lon="13.224206709211368"><ele>78.0</ele><time>2026-04-12T07:17:53Z</time></trkpt><trkpt lat="46.0168696156685" lon="13.223924787146096"><ele>78.0</ele><time>2026-04-12T07:17:54Z</time></trkpt><trkpt lat="46.01681910183496" lon="13.223660825040422"><ele>78.0</ele><time>2026-04-12T07:17:55Z</time></trkpt><trkpt lat="46.01678863031156" lon="13.223409937928118"><ele>78.0</ele><time>2026-04-12T07:17:56Z</time></trkpt><trkpt lat="46.01677437579906" lon="13.223170891478562"><ele>78.0</ele><time>2026-04-12T07:17:57Z</time></trkpt><trkpt lat="46.01676820242443" lon="13.222918916538372"><ele>78.0</ele><time>2026-04-12T07:17:58Z</time></trkpt><trkpt lat="46.01678235965052" lon="13.222662859664666"><ele>78.0</ele><time>2026-04-12T07:17:59Z</time></trkpt><trkpt lat="46.01681266438007" lon="13.222409039977437"><ele>78.0</ele><time>2026-04-12T07:18:00Z</time></trkpt><trkpt lat="46.01685722473079" lon="13.222159368423396"><ele>78.0</ele><time>2026-04-12T07:18:01Z</time></trkpt><trkpt lat="46.01690857495553" lon="13.221903845841226"><ele>78.0</ele><time>2026-04-12T07:18:02Z</time></trkpt><trkpt lat="46.01696332902793" lon="13.221639931752428"><ele>78.0</ele><time>2026-04-12T07:18:03Z</time></trkpt><trkpt lat="46.01701901828172" lon="13.221365177070732"><ele>78.0</ele><time>2026-04-12T07:18:04Z</time></trkpt><trkpt lat="46.01707311217851" lon="13.221077687370565"><ele>78.0</ele><time>2026-04-12T07:18:05Z</time></trkpt><trkpt lat="46.01712697920024" lon="13.220774278875332"><ele>78.0</ele><time>2026-04-12T07:18:06Z</time></trkpt><trkpt lat="46.017189128535435" lon="13.220459819249642"><ele>78.0</ele><time>2026-04-12T07:18:07Z</time></trkpt><trkpt lat="46.01726005369917" lon="13.22014567903212"><ele>78.0</ele><time>2026-04-12T07:18:08Z</time></trkpt><trkpt lat="46.01734039700237" lon="13.219827855008024"><ele>79.0</ele><time>2026-04-12T07:18:09Z</time></trkpt><trkpt lat="46.01742688956104" lon="13.219503787175313"><ele>80.0</ele><time>2026-04-12T07:18:10Z</time></trkpt><trkpt lat="46.01751904448587" lon="13.219178584982835"><ele>81.0</ele><time>2026-04-12T07:18:11Z</time></trkpt><trkpt lat="46.01762248435671" lon="13.21885256761008"><ele>82.0</ele><time>2026-04-12T07:18:12Z</time></trkpt><trkpt lat="46.01774582825786" lon="13.218535859747407"><ele>82.0</ele><time>2026-04-12T07:18:13Z</time></trkpt><trkpt lat="46.017886306719255" lon="13.218227129598732"><ele>82.0</ele><time>2026-04-12T07:18:14Z</time></trkpt><trkpt lat="46.018039033530144" lon="13.217921897603535"><ele>82.0</ele><time>2026-04-12T07:18:15Z</time></trkpt><trkpt lat="46.01819831045532" lon="13.217627846966474"><ele>82.0</ele><time>2026-04-12T07:18:16Z</time></trkpt><trkpt lat="46.018368246804116" lon="13.217352343661636"><ele>81.5</ele><time>2026-04-12T07:18:17Z</time></trkpt><trkpt lat="46.01855867597795" lon="13.217110187747418"><ele>81.0</ele><time>2026-04-12T07:18:18Z</time></trkpt><trkpt lat="46.018754997512346" lon="13.216879570209867"><ele>81.0</ele><time>2026-04-12T07:18:19Z</time></trkpt><trkpt lat="46.018955386028985" lon="13.216654233885606"><ele>81.0</ele><time>2026-04-12T07:18:20Z</time></trkpt><trkpt lat="46.01916559647078" lon="13.21644408407048"><ele>80.0</ele><time>2026-04-12T07:18:21Z</time></trkpt><trkpt lat="46.01937998795334" lon="13.21624367227559"><ele>79.0</ele><time>2026-04-12T07:18:22Z</time></trkpt><trkpt lat="46.01959961066167" lon="13.216044073814153"><ele>79.0</ele><time>2026-04-12T07:18:23Z</time></trkpt><trkpt lat="46.019824791090684" lon="13.215846194114583"><ele>79.0</ele><time>2026-04-12T07:18:23.999Z</time></trkpt><trkpt lat="46.02005735042252" lon="13.215645559909003"><ele>79.0</ele><time>2026-04-12T07:18:24.999Z</time></trkpt><trkpt lat="46.02029985141351" lon="13.215439554397193"><ele>79.0</ele><time>2026-04-12T07:18:25.999Z</time></trkpt><trkpt lat="46.02055439780209" lon="13.215221907853573"><ele>79.0</ele><time>2026-04-12T07:18:26.999Z</time></trkpt><trkpt lat="46.02080982921948" lon="13.215002039875904"><ele>79.0</ele><time>2026-04-12T07:18:27.999Z</time></trkpt><trkpt lat="46.021065846480134" lon="13.21478572618164"><ele>79.5</ele><time>2026-04-12T07:18:28.999Z</time></trkpt><trkpt lat="46.0213214328086" lon="13.214567756709084"><ele>80.0</ele><time>2026-04-12T07:18:29.999Z</time></trkpt><trkpt lat="46.0215775309038" lon="13.214351313310313"><ele>80.5</ele><time>2026-04-12T07:18:30.999Z</time></trkpt><trkpt lat="46.02183136677654" lon="13.214136923578755"><ele>81.0</ele><time>2026-04-12T07:18:31.999Z</time></trkpt><trkpt lat="46.02208617896627" lon="13.213920595621339"><ele>81.0</ele><time>2026-04-12T07:18:32.999Z</time></trkpt><trkpt lat="46.02233714717183" lon="13.213705871775671"><ele>81.0</ele><time>2026-04-12T07:18:33.999Z</time></trkpt><trkpt lat="46.02258132263913" lon="13.213503134843132"><ele>80.5</ele><time>2026-04-12T07:18:34.999Z</time></trkpt><trkpt lat="46.02282447811334" lon="13.213312147297174"><ele>80.0</ele><time>2026-04-12T07:18:35.999Z</time></trkpt><trkpt lat="46.02307948312866" lon="13.213149449322103"><ele>79.5</ele><time>2026-04-12T07:18:36.999Z</time></trkpt><trkpt lat="46.023343318344935" lon="13.21300885513562"><ele>79.0</ele><time>2026-04-12T07:18:37.999Z</time></trkpt><trkpt lat="46.02361117609428" lon="13.21288919534788"><ele>79.0</ele><time>2026-04-12T07:18:38.999Z</time></trkpt><trkpt lat="46.02388340713584" lon="13.212788684188073"><ele>79.0</ele><time>2026-04-12T07:18:39.999Z</time></trkpt><trkpt lat="46.024160359837616" lon="13.212718785650235"><ele>79.0</ele><time>2026-04-12T07:18:40.999Z</time></trkpt><trkpt lat="46.024440801173235" lon="13.212671196231875"><ele>79.0</ele><time>2026-04-12T07:18:41.999Z</time></trkpt><trkpt lat="46.02472332602055" lon="13.212640111630304"><ele>78.5</ele><time>2026-04-12T07:18:42.999Z</time></trkpt><trkpt lat="46.02500788919275" lon="13.212631740802294"><ele>78.0</ele><time>2026-04-12T07:18:43.999Z</time></trkpt><trkpt lat="46.02529460819674" lon="13.21264353165607"><ele>78.0</ele><time>2026-04-12T07:18:44.999Z</time></trkpt><trkpt lat="46.02558217922378" lon="13.21266801406899"><ele>78.0</ele><time>2026-04-12T07:18:45.999Z</time></trkpt><trkpt lat="46.02587002682706" lon="13.212711822442042"><ele>78.0</ele><time>2026-04-12T07:18:46.999Z</time></trkpt><trkpt lat="46.02616102470138" lon="13.212763459359726"><ele>78.0</ele><time>2026-04-12T07:18:47.999Z</time></trkpt><trkpt lat="46.026453758348566" lon="13.21281556686466"><ele>77.5</ele><time>2026-04-12T07:18:48.999Z</time></trkpt><trkpt lat="46.026746691909345" lon="13.212874598058061"><ele>77.0</ele><time>2026-04-12T07:18:49.999Z</time></trkpt><trkpt lat="46.027042530039466" lon="13.212930152670628"><ele>77.0</ele><time>2026-04-12T07:18:50.999Z</time></trkpt><trkpt lat="46.02732996084487" lon="13.213137320029993"><ele>77.0</ele><time>2026-04-12T07:18:51.999Z</time></trkpt><trkpt lat="46.02762731028379" lon="13.213168780433364"><ele>78.5</ele><time>2026-04-12T07:18:52.999Z</time></trkpt><trkpt lat="46.02793294396171" lon="13.21307558175572"><ele>80.0</ele><time>2026-04-12T07:18:53.999Z</time></trkpt><trkpt lat="46.02822741537094" lon="13.213112237123164"><ele>81.5</ele><time>2026-04-12T07:18:54.999Z</time></trkpt><trkpt lat="46.028518828591714" lon="13.213132560692811"><ele>83.0</ele><time>2026-04-12T07:18:55.999Z</time></trkpt><trkpt lat="46.02881026740396" lon="13.213139521695544"><ele>83.0</ele><time>2026-04-12T07:18:56.999Z</time></trkpt><trkpt lat="46.02909955804341" lon="13.21313865273186"><ele>83.0</ele><time>2026-04-12T07:18:57.999Z</time></trkpt><trkpt lat="46.02938833603783" lon="13.213129372829188"><ele>82.0</ele><time>2026-04-12T07:18:58.999Z</time></trkpt><trkpt lat="46.029672133379535" lon="13.213109884317618"><ele>81.0</ele><time>2026-04-12T07:18:59.999Z</time></trkpt><trkpt lat="46.02995649287916" lon="13.213083145529632"><ele>82.5</ele><time>2026-04-12T07:19:00.999Z</time></trkpt><trkpt lat="46.030241972651034" lon="13.213061729166652"><ele>84.0</ele><time>2026-04-12T07:19:01.999Z</time></trkpt><trkpt lat="46.030527462798624" lon="13.213048532677405"><ele>84.5</ele><time>2026-04-12T07:19:02.999Z</time></trkpt><trkpt lat="46.03081443843201" lon="13.213037035992494"><ele>85.0</ele><time>2026-04-12T07:19:03.999Z</time></trkpt><trkpt lat="46.0311078247003" lon="13.213023197292573"><ele>85.0</ele><time>2026-04-12T07:19:04.999Z</time></trkpt><trkpt lat="46.03141026576067" lon="13.213007071911134"><ele>85.0</ele><time>2026-04-12T07:19:05.999Z</time></trkpt><trkpt lat="46.031722959900364" lon="13.212990275913857"><ele>85.5</ele><time>2026-04-12T07:19:06.999Z</time></trkpt><trkpt lat="46.03204750163154" lon="13.212972721090678"><ele>86.0</ele><time>2026-04-12T07:19:07.999Z</time></trkpt><trkpt lat="46.032383861223366" lon="13.21294884394488"><ele>86.0</ele><time>2026-04-12T07:19:08.999Z</time></trkpt><trkpt lat="46.032732346579664" lon="13.21292357123689"><ele>86.0</ele><time>2026-04-12T07:19:10Z</time></trkpt><trkpt lat="46.03308840447157" lon="13.212897960294208"><ele>86.5</ele><time>2026-04-12T07:19:11Z</time></trkpt><trkpt lat="46.03344554577476" lon="13.212872706909664"><ele>87.0</ele><time>2026-04-12T07:19:12Z</time></trkpt><trkpt lat="46.033792575759335" lon="13.212843517298674"><ele>87.0</ele><time>2026-04-12T07:19:13Z</time></trkpt><trkpt lat="46.034124341282" lon="13.212817937172789"><ele>87.0</ele><time>2026-04-12T07:19:14Z</time></trkpt><trkpt lat="46.034441323074425" lon="13.212809418631652"><ele>86.5</ele><time>2026-04-12T07:19:15Z</time></trkpt><trkpt lat="46.03474860750933" lon="13.212837487815865"><ele>86.0</ele><time>2026-04-12T07:19:16Z</time></trkpt><trkpt lat="46.035056803716316" lon="13.21290109095119"><ele>86.0</ele><time>2026-04-12T07:19:17Z</time></trkpt><trkpt lat="46.03536021299995" lon="13.213007964013773"><ele>86.0</ele><time>2026-04-12T07:19:18Z</time></trkpt><trkpt lat="46.03565803240393" lon="13.213143523675914"><ele>87.5</ele><time>2026-04-12T07:19:19Z</time></trkpt><trkpt lat="46.03595373676541" lon="13.213284299138813"><ele>89.0</ele><time>2026-04-12T07:19:20Z</time></trkpt><trkpt lat="46.03624967053308" lon="13.213414366894678"><ele>89.0</ele><time>2026-04-12T07:19:21Z</time></trkpt><trkpt lat="46.03654103726612" lon="13.21353657681731"><ele>89.0</ele><time>2026-04-12T07:19:22Z</time></trkpt><trkpt lat="46.03682549073774" lon="13.213634945107447"><ele>88.0</ele><time>2026-04-12T07:19:23Z</time></trkpt><trkpt lat="46.037108733755716" lon="13.213699121501499"><ele>87.0</ele><time>2026-04-12T07:19:24Z</time></trkpt><trkpt lat="46.03739439266718" lon="13.213737953622207"><ele>87.5</ele><time>2026-04-12T07:19:25Z</time></trkpt><trkpt lat="46.03767915553947" lon="13.213741580942926"><ele>88.0</ele><time>2026-04-12T07:19:26Z</time></trkpt><trkpt lat="46.03796445213646" lon="13.21371174446929"><ele>88.0</ele><time>2026-04-12T07:19:27Z</time></trkpt><trkpt lat="46.038246341378134" lon="13.213638598394054"><ele>88.0</ele><time>2026-04-12T07:19:28Z</time></trkpt><trkpt lat="46.03852438010459" lon="13.213519313502688"><ele>89.0</ele><time>2026-04-12T07:19:29Z</time></trkpt><trkpt lat="46.038796760094705" lon="13.213368337082713"><ele>90.0</ele><time>2026-04-12T07:19:30Z</time></trkpt><trkpt lat="46.03906857252861" lon="13.213204696359831"><ele>91.0</ele><time>2026-04-12T07:19:31Z</time></trkpt><trkpt lat="46.03933855443253" lon="13.213028036583859"><ele>92.0</ele><time>2026-04-12T07:19:32Z</time></trkpt><trkpt lat="46.0396090936691" lon="13.212837487790507"><ele>92.0</ele><time>2026-04-12T07:19:33Z</time></trkpt><trkpt lat="46.03988373899673" lon="13.21265791091499"><ele>92.0</ele><time>2026-04-12T07:19:34Z</time></trkpt><trkpt lat="46.04016997278977" lon="13.212504367473727"><ele>90.5</ele><time>2026-04-12T07:19:35Z</time></trkpt><trkpt lat="46.0404634175719" lon="13.212371168374615"><ele>89.0</ele><time>2026-04-12T07:19:36Z</time></trkpt><trkpt lat="46.040761864837755" lon="13.212255619307761"><ele>89.0</ele><time>2026-04-12T07:19:37Z</time></trkpt><trkpt lat="46.04106703926082" lon="13.212165753239397"><ele>89.0</ele><time>2026-04-12T07:19:38Z</time></trkpt><trkpt lat="46.04137299596532" lon="13.212080682067887"><ele>89.5</ele><time>2026-04-12T07:19:39Z</time></trkpt><trkpt lat="46.04167786299622" lon="13.211995486124335"><ele>90.0</ele><time>2026-04-12T07:19:40Z</time></trkpt><trkpt lat="46.04197821068152" lon="13.211905517335893"><ele>90.0</ele><time>2026-04-12T07:19:41Z</time></trkpt><trkpt lat="46.042270670756544" lon="13.211809712870313"><ele>90.0</ele><time>2026-04-12T07:19:42Z</time></trkpt><trkpt lat="46.042554599355896" lon="13.211704562917525"><ele>90.0</ele><time>2026-04-12T07:19:43Z</time></trkpt><trkpt lat="46.042830624207596" lon="13.21159143999004"><ele>90.0</ele><time>2026-04-12T07:19:44Z</time></trkpt><trkpt lat="46.04310130548705" lon="13.211468647873058"><ele>89.0</ele><time>2026-04-12T07:19:45Z</time></trkpt><trkpt lat="46.043370438934566" lon="13.211340444649094"><ele>88.0</ele><time>2026-04-12T07:19:46Z</time></trkpt><trkpt lat="46.04364168231032" lon="13.211204141739591"><ele>88.0</ele><time>2026-04-12T07:19:47Z</time></trkpt><trkpt lat="46.04391129158527" lon="13.21106053526448"><ele>88.0</ele><time>2026-04-12T07:19:48Z</time></trkpt><trkpt lat="46.04418017565479" lon="13.210909867877161"><ele>89.5</ele><time>2026-04-12T07:19:49Z</time></trkpt><trkpt lat="46.04445005218578" lon="13.21075282962895"><ele>91.0</ele><time>2026-04-12T07:19:50Z</time></trkpt><trkpt lat="46.044719128538794" lon="13.210586817519895"><ele>93.5</ele><time>2026-04-12T07:19:51Z</time></trkpt><trkpt lat="46.04498324356947" lon="13.210402225621687"><ele>96.0</ele><time>2026-04-12T07:19:52Z</time></trkpt><trkpt lat="46.04524344055974" lon="13.21020547730465"><ele>96.0</ele><time>2026-04-12T07:19:53Z</time></trkpt><trkpt lat="46.04550045931447" lon="13.209999067574566"><ele>96.0</ele><time>2026-04-12T07:19:54Z</time></trkpt><trkpt lat="46.045752982710674" lon="13.209784328527421"><ele>94.5</ele><time>2026-04-12T07:19:55Z</time></trkpt><trkpt lat="46.0460024508926" lon="13.20956486461729"><ele>93.0</ele><time>2026-04-12T07:19:56Z</time></trkpt><trkpt lat="46.04625236191405" lon="13.209342516205739"><ele>93.0</ele><time>2026-04-12T07:19:57Z</time></trkpt><trkpt lat="46.046502120760756" lon="13.209120248015454"><ele>93.0</ele><time>2026-04-12T07:19:58Z</time></trkpt><trkpt lat="46.04675146268671" lon="13.208898428943057"><ele>93.5</ele><time>2026-04-12T07:19:59Z</time></trkpt><trkpt lat="46.047000112238116" lon="13.208676943471813"><ele>94.0</ele><time>2026-04-12T07:20:00Z</time></trkpt><trkpt lat="46.04724653067626" lon="13.208444164010958"><ele>94.0</ele><time>2026-04-12T07:20:01Z</time></trkpt><trkpt lat="46.04748460146112" lon="13.208188675698924"><ele>94.0</ele><time>2026-04-12T07:20:02Z</time></trkpt><trkpt lat="46.047715823035404" lon="13.207919736803097"><ele>92.0</ele><time>2026-04-12T07:20:03Z</time></trkpt><trkpt lat="46.047939318992114" lon="13.2076343850595"><ele>90.0</ele><time>2026-04-12T07:20:04Z</time></trkpt><trkpt lat="46.04815784177318" lon="13.207337975421343"><ele>90.5</ele><time>2026-04-12T07:20:05Z</time></trkpt><trkpt lat="46.04836525054962" lon="13.207028599490599"><ele>91.0</ele><time>2026-04-12T07:20:06Z</time></trkpt><trkpt lat="46.048571204343546" lon="13.206718557995849"><ele>90.5</ele><time>2026-04-12T07:20:07Z</time></trkpt><trkpt lat="46.0487810670373" lon="13.20641734067683"><ele>90.0</ele><time>2026-04-12T07:20:08Z</time></trkpt><trkpt lat="46.04899602649479" lon="13.206128945484926"><ele>91.0</ele><time>2026-04-12T07:20:09Z</time></trkpt><trkpt lat="46.049219095778724" lon="13.205859698541438"><ele>92.0</ele><time>2026-04-12T07:20:10Z</time></trkpt><trkpt lat="46.049452836515705" lon="13.20561720743399"><ele>92.0</ele><time>2026-04-12T07:20:11Z</time></trkpt><trkpt lat="46.04969527917044" lon="13.20540608651127"><ele>92.0</ele><time>2026-04-12T07:20:12Z</time></trkpt><trkpt lat="46.04994179434101" lon="13.20520950003081"><ele>93.0</ele><time>2026-04-12T07:20:13Z</time></trkpt><trkpt lat="46.05018979305682" lon="13.20502797913938"><ele>94.0</ele><time>2026-04-12T07:20:14Z</time></trkpt><trkpt lat="46.050435292698545" lon="13.204850116229798"><ele>94.0</ele><time>2026-04-12T07:20:15Z</time></trkpt><trkpt lat="46.05067959461075" lon="13.204673906958499"><ele>94.0</ele><time>2026-04-12T07:20:16Z</time></trkpt><trkpt lat="46.05091928902293" lon="13.204499606999738"><ele>94.0</ele><time>2026-04-12T07:20:17Z</time></trkpt><trkpt lat="46.051153078216544" lon="13.204326535413074"><ele>94.0</ele><time>2026-04-12T07:20:18Z</time></trkpt><trkpt lat="46.05138790315449" lon="13.204154974191736"><ele>95.0</ele><time>2026-04-12T07:20:19Z</time></trkpt><trkpt lat="46.05162450669422" lon="13.203983453948354"><ele>96.0</ele><time>2026-04-12T07:20:20Z</time></trkpt><trkpt lat="46.05186055978024" lon="13.20380988674357"><ele>96.0</ele><time>2026-04-12T07:20:21Z</time></trkpt><trkpt lat="46.052097565536826" lon="13.203636266736636"><ele>96.0</ele><time>2026-04-12T07:20:22Z</time></trkpt><trkpt lat="46.05233519549372" lon="13.203463625034429"><ele>95.0</ele><time>2026-04-12T07:20:23Z</time></trkpt><trkpt lat="46.052572865902334" lon="13.203291252897246"><ele>94.0</ele><time>2026-04-12T07:20:24Z</time></trkpt><trkpt lat="46.05281280289198" lon="13.203116275930029"><ele>96.5</ele><time>2026-04-12T07:20:25Z</time></trkpt><trkpt lat="46.053063222883296" lon="13.202931578690974"><ele>99.0</ele><time>2026-04-12T07:20:26Z</time></trkpt><trkpt lat="46.05332149375106" lon="13.202740951284987"><ele>99.0</ele><time>2026-04-12T07:20:27Z</time></trkpt><trkpt lat="46.05358284666442" lon="13.20255077621637"><ele>99.0</ele><time>2026-04-12T07:20:28Z</time></trkpt><trkpt lat="46.0538480969534" lon="13.202358344585248"><ele>99.5</ele><time>2026-04-12T07:20:28.999Z</time></trkpt><trkpt lat="46.05411581603282" lon="13.202162014548588"><ele>100.0</ele><time>2026-04-12T07:20:29.999Z</time></trkpt><trkpt lat="46.05438424404135" lon="13.201966708014233"><ele>100.0</ele><time>2026-04-12T07:20:30.999Z</time></trkpt><trkpt lat="46.05465558177798" lon="13.201769552401938"><ele>100.0</ele><time>2026-04-12T07:20:31.999Z</time></trkpt><trkpt lat="46.05492948029176" lon="13.201569893074549"><ele>100.0</ele><time>2026-04-12T07:20:32.999Z</time></trkpt><trkpt lat="46.05520696394124" lon="13.201366003089609"><ele>100.0</ele><time>2026-04-12T07:20:33.999Z</time></trkpt><trkpt lat="46.05549039875458" lon="13.201157376695493"><ele>100.0</ele><time>2026-04-12T07:20:34.999Z</time></trkpt><trkpt lat="46.0557769233237" lon="13.200946777621278"><ele>100.0</ele><time>2026-04-12T07:20:35.999Z</time></trkpt><trkpt lat="46.05606762855788" lon="13.20073475662277"><ele>102.0</ele><time>2026-04-12T07:20:36.999Z</time></trkpt><trkpt lat="46.05636010611133" lon="13.200525991324009"><ele>104.0</ele><time>2026-04-12T07:20:37.999Z</time></trkpt><trkpt lat="46.05665650623452" lon="13.200318138939057"><ele>104.0</ele><time>2026-04-12T07:20:38.999Z</time></trkpt><trkpt lat="46.05694883274629" lon="13.200114971482167"><ele>104.0</ele><time>2026-04-12T07:20:39.999Z</time></trkpt><trkpt lat="46.057243945545274" lon="13.199925556326614"><ele>104.0</ele><time>2026-04-12T07:20:40.999Z</time></trkpt><trkpt lat="46.057536615883286" lon="13.199747246235974"><ele>104.0</ele><time>2026-04-12T07:20:41.999Z</time></trkpt><trkpt lat="46.057827898233974" lon="13.199586293234429"><ele>104.0</ele><time>2026-04-12T07:20:42.999Z</time></trkpt><trkpt lat="46.05811640487278" lon="13.199445540248904"><ele>104.0</ele><time>2026-04-12T07:20:43.999Z</time></trkpt><trkpt lat="46.05840307122034" lon="13.1993194431739"><ele>103.5</ele><time>2026-04-12T07:20:44.999Z</time></trkpt><trkpt lat="46.058670339018285" lon="13.19920742346191"><ele>103.0</ele><time>2026-04-12T07:20:45.999Z</time></trkpt><trkpt lat="46.05893198510326" lon="13.199108269727011"><ele>104.5</ele><time>2026-04-12T07:20:46.999Z</time></trkpt><trkpt lat="46.05919107687729" lon="13.199020396645393"><ele>106.0</ele><time>2026-04-12T07:20:47.999Z</time></trkpt><trkpt lat="46.05945305651099" lon="13.198946998562288"><ele>106.0</ele><time>2026-04-12T07:20:48.999Z</time></trkpt><trkpt lat="46.05971965658072" lon="13.198883466402224"><ele>106.0</ele><time>2026-04-12T07:20:49.999Z</time></trkpt><trkpt lat="46.05999061688787" lon="13.198827167599045"><ele>106.0</ele><time>2026-04-12T07:20:50.999Z</time></trkpt><trkpt lat="46.060275492941976" lon="13.19877618397538"><ele>106.0</ele><time>2026-04-12T07:20:51.999Z</time></trkpt><trkpt lat="46.0605754366476" lon="13.198728051776014"><ele>104.0</ele><time>2026-04-12T07:20:52.999Z</time></trkpt><trkpt lat="46.060889092451646" lon="13.198684050851949"><ele>102.0</ele><time>2026-04-12T07:20:53.999Z</time></trkpt><trkpt lat="46.061218711485374" lon="13.198644755652996"><ele>102.0</ele><time>2026-04-12T07:20:54.999Z</time></trkpt><trkpt lat="46.06155892244649" lon="13.198600861614025"><ele>102.0</ele><time>2026-04-12T07:20:55.999Z</time></trkpt><trkpt lat="46.061909927405196" lon="13.19855606066143"><ele>101.0</ele><time>2026-04-12T07:20:56.999Z</time></trkpt><trkpt lat="46.06226820003053" lon="13.198507885389485"><ele>100.0</ele><time>2026-04-12T07:20:57.999Z</time></trkpt><trkpt lat="46.0626276523779" lon="13.198461321599835"><ele>102.5</ele><time>2026-04-12T07:20:58.999Z</time></trkpt><trkpt lat="46.062988075829914" lon="13.198414951706894"><ele>105.0</ele><time>2026-04-12T07:20:59.999Z</time></trkpt><trkpt lat="46.063343632760315" lon="13.198367505364367"><ele>105.0</ele><time>2026-04-12T07:21:00.999Z</time></trkpt><trkpt lat="46.063694265965026" lon="13.198321508997664"><ele>105.0</ele><time>2026-04-12T07:21:01.999Z</time></trkpt><trkpt lat="46.064040649953576" lon="13.198274944296989"><ele>104.5</ele><time>2026-04-12T07:21:02.999Z</time></trkpt><trkpt lat="46.06438342955947" lon="13.198227953312289"><ele>104.0</ele><time>2026-04-12T07:21:03.999Z</time></trkpt><trkpt lat="46.06472305329408" lon="13.198183166583245"><ele>105.0</ele><time>2026-04-12T07:21:04.999Z</time></trkpt><trkpt lat="46.06505983677165" lon="13.198140281594958"><ele>106.0</ele><time>2026-04-12T07:21:05.999Z</time></trkpt><trkpt lat="46.0653930104554" lon="13.198096117727095"><ele>106.0</ele><time>2026-04-12T07:21:06.999Z</time></trkpt><trkpt lat="46.06572301394624" lon="13.198052422926496"><ele>106.0</ele><time>2026-04-12T07:21:07.999Z</time></trkpt><trkpt lat="46.066050333646324" lon="13.198008504915563"><ele>105.5</ele><time>2026-04-12T07:21:08.999Z</time></trkpt><trkpt lat="46.06637660469635" lon="13.19796615749361"><ele>105.0</ele><time>2026-04-12T07:21:09.999Z</time></trkpt><trkpt lat="46.06670066038882" lon="13.197924146837089"><ele>106.0</ele><time>2026-04-12T07:21:10.999Z</time></trkpt><trkpt lat="46.067021952329085" lon="13.19787955565333"><ele>107.0</ele><time>2026-04-12T07:21:11.999Z</time></trkpt><trkpt lat="46.06734286962679" lon="13.197837370853714"><ele>108.0</ele><time>2026-04-12T07:21:12.999Z</time></trkpt><trkpt lat="46.06766197917817" lon="13.197796223345048"><ele>109.0</ele><time>2026-04-12T07:21:13.999Z</time></trkpt><trkpt lat="46.067979297205696" lon="13.197756247556134"><ele>108.0</ele><time>2026-04-12T07:21:14.999Z</time></trkpt><trkpt lat="46.06829534293924" lon="13.197712973200233"><ele>107.0</ele><time>2026-04-12T07:21:16Z</time></trkpt><trkpt lat="46.068610014696226" lon="13.19767283741654"><ele>107.0</ele><time>2026-04-12T07:21:17Z</time></trkpt><trkpt lat="46.06892333611733" lon="13.197631086480328"><ele>107.0</ele><time>2026-04-12T07:21:18Z</time></trkpt><trkpt lat="46.06923466478184" lon="13.197589013151413"><ele>108.0</ele><time>2026-04-12T07:21:19Z</time></trkpt><trkpt lat="46.06954405520805" lon="13.197546204892667"><ele>109.0</ele><time>2026-04-12T07:21:20Z</time></trkpt><trkpt lat="46.06985412132401" lon="13.197508898320617"><ele>108.0</ele><time>2026-04-12T07:21:21Z</time></trkpt><trkpt lat="46.07016788670452" lon="13.197468260009346"><ele>107.0</ele><time>2026-04-12T07:21:22Z</time></trkpt><trkpt lat="46.070483104983374" lon="13.197426839991383"><ele>107.5</ele><time>2026-04-12T07:21:23Z</time></trkpt><trkpt lat="46.070798641705885" lon="13.197382504335321"><ele>108.0</ele><time>2026-04-12T07:21:24Z</time></trkpt><trkpt lat="46.071116761085285" lon="13.197342188282265"><ele>107.5</ele><time>2026-04-12T07:21:25Z</time></trkpt><trkpt lat="46.07143022773195" lon="13.197301255284632"><ele>107.0</ele><time>2026-04-12T07:21:26Z</time></trkpt><trkpt lat="46.071743544054144" lon="13.197261176321376"><ele>108.0</ele><time>2026-04-12T07:21:27Z</time></trkpt><trkpt lat="46.07205300450819" lon="13.197219427927209"><ele>109.0</ele><time>2026-04-12T07:21:28Z</time></trkpt><trkpt lat="46.0723606671693" lon="13.19717979636871"><ele>110.5</ele><time>2026-04-12T07:21:29Z</time></trkpt><trkpt lat="46.07266540788851" lon="13.197133988639703"><ele>112.0</ele><time>2026-04-12T07:21:30Z</time></trkpt><trkpt lat="46.0729580666336" lon="13.197077982299716"><ele>112.0</ele><time>2026-04-12T07:21:31Z</time></trkpt><trkpt lat="46.073251075498" lon="13.197004148781915"><ele>112.0</ele><time>2026-04-12T07:21:32Z</time></trkpt><trkpt lat="46.07354302658891" lon="13.196909556342579"><ele>112.0</ele><time>2026-04-12T07:21:33Z</time></trkpt><trkpt lat="46.073828297949234" lon="13.196801722677796"><ele>112.0</ele><time>2026-04-12T07:21:34Z</time></trkpt><trkpt lat="46.07410876917194" lon="13.19667835938524"><ele>111.0</ele><time>2026-04-12T07:21:35Z</time></trkpt><trkpt lat="46.07438383641402" lon="13.196539546513263"><ele>110.0</ele><time>2026-04-12T07:21:36Z</time></trkpt><trkpt lat="46.07465981380418" lon="13.196380258730347"><ele>110.0</ele><time>2026-04-12T07:21:37Z</time></trkpt><trkpt lat="46.07493593805559" lon="13.196208261039056"><ele>110.0</ele><time>2026-04-12T07:21:38Z</time></trkpt><trkpt lat="46.075210414365934" lon="13.196017981369717"><ele>110.0</ele><time>2026-04-12T07:21:39Z</time></trkpt><trkpt lat="46.075481088644835" lon="13.195809093906732"><ele>110.0</ele><time>2026-04-12T07:21:40Z</time></trkpt><trkpt lat="46.07574403771639" lon="13.195577735501903"><ele>111.0</ele><time>2026-04-12T07:21:41Z</time></trkpt><trkpt lat="46.076008133065244" lon="13.195329282318006"><ele>112.0</ele><time>2026-04-12T07:21:42Z</time></trkpt><trkpt lat="46.07627478404435" lon="13.195072456395042"><ele>113.0</ele><time>2026-04-12T07:21:43Z</time></trkpt><trkpt lat="46.076542132629186" lon="13.194807438462682"><ele>114.0</ele><time>2026-04-12T07:21:44Z</time></trkpt><trkpt lat="46.07681209523835" lon="13.194542723445014"><ele>112.0</ele><time>2026-04-12T07:21:45Z</time></trkpt><trkpt lat="46.07708505226421" lon="13.194278113443447"><ele>110.0</ele><time>2026-04-12T07:21:46Z</time></trkpt><trkpt lat="46.07735720610195" lon="13.194016723136015"><ele>109.0</ele><time>2026-04-12T07:21:47Z</time></trkpt><trkpt lat="46.077623991298296" lon="13.193752505334064"><ele>108.0</ele><time>2026-04-12T07:21:48Z</time></trkpt><trkpt lat="46.07788975433972" lon="13.193491922753003"><ele>108.0</ele><time>2026-04-12T07:21:49Z</time></trkpt><trkpt lat="46.07815446666983" lon="13.193237486255118"><ele>108.0</ele><time>2026-04-12T07:21:50Z</time></trkpt><trkpt lat="46.07841410184959" lon="13.192997020537028"><ele>108.5</ele><time>2026-04-12T07:21:51Z</time></trkpt><trkpt lat="46.078665838264136" lon="13.192781892690052"><ele>109.0</ele><time>2026-04-12T07:21:52Z</time></trkpt><trkpt lat="46.0789075806363" lon="13.192595708584873"><ele>108.0</ele><time>2026-04-12T07:21:53Z</time></trkpt><trkpt lat="46.079157834534" lon="13.19242609255119"><ele>107.0</ele><time>2026-04-12T07:21:54Z</time></trkpt><trkpt lat="46.07941794265557" lon="13.19226819014964"><ele>107.0</ele><time>2026-04-12T07:21:55Z</time></trkpt><trkpt lat="46.07968175216822" lon="13.192126067042262"><ele>107.0</ele><time>2026-04-12T07:21:56Z</time></trkpt><trkpt lat="46.0799512862116" lon="13.191999412782062"><ele>107.0</ele><time>2026-04-12T07:21:57Z</time></trkpt><trkpt lat="46.08022578386587" lon="13.191890531010078"><ele>107.0</ele><time>2026-04-12T07:21:58Z</time></trkpt><trkpt lat="46.080504588272674" lon="13.191796528999294"><ele>110.0</ele><time>2026-04-12T07:21:59Z</time></trkpt><trkpt lat="46.080790032087556" lon="13.191723630047852"><ele>113.0</ele><time>2026-04-12T07:22:00Z</time></trkpt><trkpt lat="46.08108259172863" lon="13.191664872222036"><ele>113.0</ele><time>2026-04-12T07:22:01Z</time></trkpt><trkpt lat="46.0813792664596" lon="13.19162361551668"><ele>113.0</ele><time>2026-04-12T07:22:02Z</time></trkpt><trkpt lat="46.08167778063357" lon="13.191602309795183"><ele>112.0</ele><time>2026-04-12T07:22:03Z</time></trkpt><trkpt lat="46.081978333113334" lon="13.19160676809081"><ele>111.0</ele><time>2026-04-12T07:22:04Z</time></trkpt><trkpt lat="46.08228154535357" lon="13.191624625480861"><ele>113.5</ele><time>2026-04-12T07:22:05Z</time></trkpt><trkpt lat="46.08258318974451" lon="13.19166194907198"><ele>116.0</ele><time>2026-04-12T07:22:06Z</time></trkpt><trkpt lat="46.08288332679854" lon="13.19172012320291"><ele>116.0</ele><time>2026-04-12T07:22:07Z</time></trkpt><trkpt lat="46.08318522621306" lon="13.191798505707448"><ele>116.0</ele><time>2026-04-12T07:22:08Z</time></trkpt><trkpt lat="46.083502366079024" lon="13.191902307497541"><ele>116.5</ele><time>2026-04-12T07:22:09Z</time></trkpt><trkpt lat="46.08384161014013" lon="13.192040242438177"><ele>117.0</ele><time>2026-04-12T07:22:10Z</time></trkpt><trkpt lat="46.08419792541111" lon="13.192206569529056"><ele>116.5</ele><time>2026-04-12T07:22:11Z</time></trkpt><trkpt lat="46.08457387716455" lon="13.192397742062113"><ele>116.0</ele><time>2026-04-12T07:22:12Z</time></trkpt><trkpt lat="46.08495752165123" lon="13.192601585629413"><ele>115.0</ele><time>2026-04-12T07:22:13Z</time></trkpt><trkpt lat="46.08532381851258" lon="13.19279376220208"><ele>114.0</ele><time>2026-04-12T07:22:14Z</time></trkpt><trkpt lat="46.08567748454913" lon="13.192965456559003"><ele>113.5</ele><time>2026-04-12T07:22:15Z</time></trkpt><trkpt lat="46.086019799648305" lon="13.19312645787472"><ele>113.0</ele><time>2026-04-12T07:22:16Z</time></trkpt><trkpt lat="46.086342813076115" lon="13.193277503605746"><ele>115.0</ele><time>2026-04-12T07:22:17Z</time></trkpt><trkpt lat="46.08665389964702" lon="13.193427211487322"><ele>117.0</ele><time>2026-04-12T07:22:18Z</time></trkpt><trkpt lat="46.08695516527836" lon="13.193572756507427"><ele>117.0</ele><time>2026-04-12T07:22:19Z</time></trkpt><trkpt lat="46.08724270948381" lon="13.193712918551459"><ele>117.0</ele><time>2026-04-12T07:22:20Z</time></trkpt><trkpt lat="46.08752557698479" lon="13.193848946078166"><ele>117.5</ele><time>2026-04-12T07:22:21Z</time></trkpt><trkpt lat="46.08780607594017" lon="13.19398500806342"><ele>118.0</ele><time>2026-04-12T07:22:22Z</time></trkpt><trkpt lat="46.088086081550955" lon="13.194120236393811"><ele>118.5</ele><time>2026-04-12T07:22:23Z</time></trkpt><trkpt lat="46.088367818062366" lon="13.194252562495327"><ele>119.0</ele><time>2026-04-12T07:22:24Z</time></trkpt><trkpt lat="46.08864997818832" lon="13.194384835929208"><ele>119.0</ele><time>2026-04-12T07:22:25Z</time></trkpt><trkpt lat="46.088931849062135" lon="13.194519378195846"><ele>119.0</ele><time>2026-04-12T07:22:26Z</time></trkpt><trkpt lat="46.08921655476329" lon="13.194656846690355"><ele>119.0</ele><time>2026-04-12T07:22:27Z</time></trkpt><trkpt lat="46.08950542809399" lon="13.194794051303502"><ele>119.0</ele><time>2026-04-12T07:22:28Z</time></trkpt><trkpt lat="46.08979549502616" lon="13.194931410366484"><ele>119.5</ele><time>2026-04-12T07:22:29Z</time></trkpt><trkpt lat="46.0900876965466" lon="13.195069934891183"><ele>120.0</ele><time>2026-04-12T07:22:30Z</time></trkpt><trkpt lat="46.0903824732375" lon="13.1952103837196"><ele>120.0</ele><time>2026-04-12T07:22:31Z</time></trkpt><trkpt lat="46.090678369545174" lon="13.195351105451868"><ele>120.0</ele><time>2026-04-12T07:22:31.999Z</time></trkpt><trkpt lat="46.09097575188103" lon="13.19549178043594"><ele>119.5</ele><time>2026-04-12T07:22:32.999Z</time></trkpt><trkpt lat="46.091271658277265" lon="13.195632997152732"><ele>119.0</ele><time>2026-04-12T07:22:33.999Z</time></trkpt><trkpt lat="46.091568115313855" lon="13.19577215366426"><ele>120.5</ele><time>2026-04-12T07:22:34.999Z</time></trkpt><trkpt lat="46.09186411741872" lon="13.195916890502042"><ele>122.0</ele><time>2026-04-12T07:22:35.999Z</time></trkpt><trkpt lat="46.09216219552897" lon="13.196060489288529"><ele>121.5</ele><time>2026-04-12T07:22:36.999Z</time></trkpt><trkpt lat="46.09245927938218" lon="13.196205607644906"><ele>121.0</ele><time>2026-04-12T07:22:37.999Z</time></trkpt><trkpt lat="46.09275730672439" lon="13.196347528022883"><ele>121.0</ele><time>2026-04-12T07:22:38.999Z</time></trkpt><trkpt lat="46.09305701989084" lon="13.196485937014671"><ele>121.0</ele><time>2026-04-12T07:22:39.999Z</time></trkpt><trkpt lat="46.09335597027843" lon="13.196628429759974"><ele>120.5</ele><time>2026-04-12T07:22:40.999Z</time></trkpt><trkpt lat="46.09365386221483" lon="13.196771416342543"><ele>120.0</ele><time>2026-04-12T07:22:41.999Z</time></trkpt><trkpt lat="46.09395410994917" lon="13.196914394484718"><ele>120.5</ele><time>2026-04-12T07:22:42.999Z</time></trkpt><trkpt lat="46.094252824982846" lon="13.197058276898257"><ele>121.0</ele><time>2026-04-12T07:22:43.999Z</time></trkpt><trkpt lat="46.09455302214616" lon="13.19720242145978"><ele>120.5</ele><time>2026-04-12T07:22:44.999Z</time></trkpt><trkpt lat="46.0948542772804" lon="13.197345976483483"><ele>120.0</ele><time>2026-04-12T07:22:45.999Z</time></trkpt><trkpt lat="46.095157375088284" lon="13.197489512522857"><ele>120.0</ele><time>2026-04-12T07:22:46.999Z</time></trkpt><trkpt lat="46.095461097325256" lon="13.197633001147906"><ele>120.0</ele><time>2026-04-12T07:22:47.999Z</time></trkpt><trkpt lat="46.095764018944664" lon="13.19777805986891"><ele>121.0</ele><time>2026-04-12T07:22:48.999Z</time></trkpt><trkpt lat="46.096066752939464" lon="13.197922623813035"><ele>122.0</ele><time>2026-04-12T07:22:49.999Z</time></trkpt><trkpt lat="46.096368127728475" lon="13.198064796114394"><ele>121.5</ele><time>2026-04-12T07:22:50.999Z</time></trkpt><trkpt lat="46.096666388497965" lon="13.198207041482029"><ele>121.0</ele><time>2026-04-12T07:22:51.999Z</time></trkpt><trkpt lat="46.09696322070457" lon="13.198351750707745"><ele>121.0</ele><time>2026-04-12T07:22:52.999Z</time></trkpt><trkpt lat="46.0972598124005" lon="13.19849258562418"><ele>121.0</ele><time>2026-04-12T07:22:53.999Z</time></trkpt><trkpt lat="46.09755525804312" lon="13.198632206922124"><ele>122.5</ele><time>2026-04-12T07:22:54.999Z</time></trkpt><trkpt lat="46.097850357952254" lon="13.19877032682823"><ele>124.0</ele><time>2026-04-12T07:22:55.999Z</time></trkpt><trkpt lat="46.09814331832072" lon="13.19891093168081"><ele>123.5</ele><time>2026-04-12T07:22:56.999Z</time></trkpt><trkpt lat="46.09843558095368" lon="13.199051771558576"><ele>123.0</ele><time>2026-04-12T07:22:57.999Z</time></trkpt><trkpt lat="46.098726278719106" lon="13.199191277764806"><ele>123.0</ele><time>2026-04-12T07:22:58.999Z</time></trkpt><trkpt lat="46.09901429926928" lon="13.199329273139785"><ele>123.0</ele><time>2026-04-12T07:22:59.999Z</time></trkpt><trkpt lat="46.099300144991744" lon="13.199466494320118"><ele>122.0</ele><time>2026-04-12T07:23:00.999Z</time></trkpt><trkpt lat="46.09958373056446" lon="13.199603790828373"><ele>121.0</ele><time>2026-04-12T07:23:01.999Z</time></trkpt><trkpt lat="46.099867573017065" lon="13.199741123096825"><ele>122.0</ele><time>2026-04-12T07:23:02.999Z</time></trkpt><trkpt lat="46.10014691048226" lon="13.199873662237142"><ele>123.0</ele><time>2026-04-12T07:23:03.999Z</time></trkpt><trkpt lat="46.10040351300382" lon="13.199997662982746"><ele>123.0</ele><time>2026-04-12T07:23:04.999Z</time></trkpt><trkpt lat="46.10064382573198" lon="13.200116429062286"><ele>123.0</ele><time>2026-04-12T07:23:05.999Z</time></trkpt><trkpt lat="46.10086552041606" lon="13.200232911683607"><ele>123.66666666666666</ele><time>2026-04-12T07:23:06.999Z</time></trkpt><trkpt lat="46.1010671430557" lon="13.200342715859982"><ele>124.33333333333333</ele><time>2026-04-12T07:23:07.999Z</time></trkpt><trkpt lat="46.10125619476741" lon="13.200439904355058"><ele>125.0</ele><time>2026-04-12T07:23:08.999Z</time></trkpt><trkpt lat="46.10142905152814" lon="13.200523938724132"><ele>124.33333333333333</ele><time>2026-04-12T07:23:09.999Z</time></trkpt><trkpt lat="46.101587110677" lon="13.200600658200372"><ele>123.66666666666666</ele><time>2026-04-12T07:23:10.999Z</time></trkpt><trkpt lat="46.10173607613329" lon="13.200673749820375"><ele>123.0</ele><time>2026-04-12T07:23:11.999Z</time></trkpt><trkpt lat="46.10187719329437" lon="13.200750569902343"><ele>123.0</ele><time>2026-04-12T07:23:12.999Z</time></trkpt><trkpt lat="46.102002846443455" lon="13.20084943930675"><ele>123.0</ele><time>2026-04-12T07:23:13.999Z</time></trkpt><trkpt lat="46.10212052482262" lon="13.200988393814804"><ele>123.0</ele><time>2026-04-12T07:23:14.999Z</time></trkpt><trkpt lat="46.102216443019536" lon="13.201172281876147"><ele>123.0</ele><time>2026-04-12T07:23:15.999Z</time></trkpt><trkpt lat="46.102279513865255" lon="13.201390848078448"><ele>123.0</ele><time>2026-04-12T07:23:16.999Z</time></trkpt><trkpt lat="46.10230711569588" lon="13.201627201840646"><ele>123.0</ele><time>2026-04-12T07:23:17.999Z</time></trkpt><trkpt lat="46.10229157930315" lon="13.201869975660575"><ele>123.0</ele><time>2026-04-12T07:23:18.999Z</time></trkpt><trkpt lat="46.10226197498018" lon="13.202112144232258"><ele>123.0</ele><time>2026-04-12T07:23:19.999Z</time></trkpt><trkpt lat="46.10224308271282" lon="13.20234223160368"><ele>123.0</ele><time>2026-04-12T07:23:20.999Z</time></trkpt><trkpt lat="46.10222415579" lon="13.202535581189391"><ele>123.2</ele><time>2026-04-12T07:23:22Z</time></trkpt><trkpt lat="46.102208014030495" lon="13.202725562793685"><ele>123.4</ele><time>2026-04-12T07:23:23Z</time></trkpt><trkpt lat="46.10220557073885" lon="13.202894737141149"><ele>123.60000000000001</ele><time>2026-04-12T07:23:24Z</time></trkpt><trkpt lat="46.102217551661795" lon="13.203044337353878"><ele>123.80000000000001</ele><time>2026-04-12T07:23:25Z</time></trkpt><trkpt lat="46.10223595412876" lon="13.203160599586"><ele>124.0</ele><time>2026-04-12T07:23:26Z</time></trkpt><trkpt lat="46.10227486118064" lon="13.203315026439354"><ele>124.33333333333334</ele><time>2026-04-12T07:23:28Z</time></trkpt><trkpt lat="46.1023230201795" lon="13.203434830723843"><ele>124.66666666666667</ele><time>2026-04-12T07:23:30Z</time></trkpt><trkpt lat="46.10236330830804" lon="13.203528523833471"><ele>125.0</ele><time>2026-04-12T07:23:32Z</time></trkpt><trkpt lat="46.10243752073422" lon="13.203602927953131"><ele>125.33333333333334</ele><time>2026-04-12T07:23:39Z</time></trkpt><trkpt lat="46.102501629885516" lon="13.203609264251824"><ele>125.66666666666667</ele><time>2026-04-12T07:23:40Z</time></trkpt><trkpt lat="46.102603639461904" lon="13.203533964326114"><ele>126.0</ele><time>2026-04-12T07:23:41Z</time></trkpt><trkpt lat="46.10273309970976" lon="13.20339539085859"><ele>126.0</ele><time>2026-04-12T07:23:42Z</time></trkpt><trkpt lat="46.10290274603513" lon="13.203181622397747"><ele>126.0</ele><time>2026-04-12T07:23:43Z</time></trkpt><trkpt lat="46.103113292245425" lon="13.202915011281725"><ele>127.0</ele><time>2026-04-12T07:23:44Z</time></trkpt><trkpt lat="46.10334548078584" lon="13.202622070744367"><ele>128.0</ele><time>2026-04-12T07:23:45Z</time></trkpt><trkpt lat="46.103578052134" lon="13.202333221267846"><ele>127.0</ele><time>2026-04-12T07:23:46Z</time></trkpt><trkpt lat="46.103799459700696" lon="13.202054861968572"><ele>126.0</ele><time>2026-04-12T07:23:47Z</time></trkpt><trkpt lat="46.104004649142695" lon="13.201787688812816"><ele>126.5</ele><time>2026-04-12T07:23:48Z</time></trkpt><trkpt lat="46.1041903247859" lon="13.20154328620467"><ele>127.0</ele><time>2026-04-12T07:23:49Z</time></trkpt><trkpt lat="46.104364119831324" lon="13.20132102531268"><ele>127.0</ele><time>2026-04-12T07:23:50Z</time></trkpt><trkpt lat="46.10452701345281" lon="13.201114691008884"><ele>127.0</ele><time>2026-04-12T07:23:51Z</time></trkpt><trkpt lat="46.104680108158114" lon="13.200922023452668"><ele>127.0</ele><time>2026-04-12T07:23:52Z</time></trkpt><trkpt lat="46.10482835862905" lon="13.200732115177788"><ele>127.66666666666667</ele><time>2026-04-12T07:23:53Z</time></trkpt><trkpt lat="46.10498088814188" lon="13.200539827453325"><ele>128.33333333333334</ele><time>2026-04-12T07:23:54Z</time></trkpt><trkpt lat="46.10513196421274" lon="13.200350817135481"><ele>129.0</ele><time>2026-04-12T07:23:55Z</time></trkpt><trkpt lat="46.105280574853566" lon="13.200160511326242"><ele>129.0</ele><time>2026-04-12T07:23:56Z</time></trkpt><trkpt lat="46.105426260924325" lon="13.199971575903662"><ele>129.0</ele><time>2026-04-12T07:23:57Z</time></trkpt><trkpt lat="46.10557209669756" lon="13.199787779959914"><ele>129.0</ele><time>2026-04-12T07:23:58Z</time></trkpt><trkpt lat="46.10572006978727" lon="13.199602324544378"><ele>128.33333333333334</ele><time>2026-04-12T07:23:59Z</time></trkpt><trkpt lat="46.10586941139836" lon="13.199412452967534"><ele>127.66666666666667</ele><time>2026-04-12T07:24:00Z</time></trkpt><trkpt lat="46.106020492467806" lon="13.199215507907464"><ele>127.0</ele><time>2026-04-12T07:24:01Z</time></trkpt><trkpt lat="46.10617399735443" lon="13.19902053272305"><ele>127.0</ele><time>2026-04-12T07:24:02Z</time></trkpt><trkpt lat="46.10632906859464" lon="13.198825411386977"><ele>127.0</ele><time>2026-04-12T07:24:03Z</time></trkpt><trkpt lat="46.10648130202246" lon="13.19862703309697"><ele>127.0</ele><time>2026-04-12T07:24:04Z</time></trkpt><trkpt lat="46.106628121046874" lon="13.198434765908173"><ele>127.0</ele><time>2026-04-12T07:24:05Z</time></trkpt><trkpt lat="46.10677373171069" lon="13.198246183434371"><ele>127.0</ele><time>2026-04-12T07:24:06Z</time></trkpt><trkpt lat="46.106916580379476" lon="13.198061436955625"><ele>127.0</ele><time>2026-04-12T07:24:07Z</time></trkpt><trkpt lat="46.10704790148085" lon="13.19789017435812"><ele>127.33333333333334</ele><time>2026-04-12T07:24:08Z</time></trkpt><trkpt lat="46.107173352885475" lon="13.197726489365078"><ele>127.66666666666666</ele><time>2026-04-12T07:24:09Z</time></trkpt><trkpt lat="46.107296641704636" lon="13.197569609491469"><ele>128.0</ele><time>2026-04-12T07:24:10Z</time></trkpt><trkpt lat="46.10742253342585" lon="13.197420728651133"><ele>128.0</ele><time>2026-04-12T07:24:11Z</time></trkpt><trkpt lat="46.10755356204241" lon="13.19728584924832"><ele>128.0</ele><time>2026-04-12T07:24:12Z</time></trkpt><trkpt lat="46.10769007163602" lon="13.197163596040578"><ele>128.0</ele><time>2026-04-12T07:24:13Z</time></trkpt><trkpt lat="46.107832997751764" lon="13.19704786012894"><ele>128.0</ele><time>2026-04-12T07:24:14Z</time></trkpt><trkpt lat="46.107980950783606" lon="13.196948004718541"><ele>128.0</ele><time>2026-04-12T07:24:15Z</time></trkpt><trkpt lat="46.108136905512694" lon="13.196877942647406"><ele>128.0</ele><time>2026-04-12T07:24:16Z</time></trkpt><trkpt lat="46.10829491022928" lon="13.19681314750777"><ele>128.66666666666666</ele><time>2026-04-12T07:24:17Z</time></trkpt><trkpt lat="46.108456622202254" lon="13.196767465343232"><ele>129.33333333333334</ele><time>2026-04-12T07:24:18Z</time></trkpt><trkpt lat="46.10861964645039" lon="13.19673894852836"><ele>130.0</ele><time>2026-04-12T07:24:19Z</time></trkpt><trkpt lat="46.1087845942776" lon="13.196731906904567"><ele>130.0</ele><time>2026-04-12T07:24:20Z</time></trkpt><trkpt lat="46.10894898098713" lon="13.196737799184223"><ele>130.0</ele><time>2026-04-12T07:24:21Z</time></trkpt><trkpt lat="46.109112835876196" lon="13.196762250949257"><ele>130.0</ele><time>2026-04-12T07:24:22Z</time></trkpt><trkpt lat="46.109279278669185" lon="13.196801183085045"><ele>129.66666666666669</ele><time>2026-04-12T07:24:23Z</time></trkpt><trkpt lat="46.10944401722209" lon="13.196853088594812"><ele>129.33333333333334</ele><time>2026-04-12T07:24:24Z</time></trkpt><trkpt lat="46.10961125711416" lon="13.196914299888592"><ele>129.0</ele><time>2026-04-12T07:24:25Z</time></trkpt><trkpt lat="46.10978023311752" lon="13.196979345013645"><ele>128.66666666666666</ele><time>2026-04-12T07:24:26Z</time></trkpt><trkpt lat="46.109954939570336" lon="13.19703969342965"><ele>128.33333333333331</ele><time>2026-04-12T07:24:27Z</time></trkpt><trkpt lat="46.11013245836558" lon="13.197098923508502"><ele>128.0</ele><time>2026-04-12T07:24:28Z</time></trkpt><trkpt lat="46.110308257942094" lon="13.197160953263573"><ele>128.0</ele><time>2026-04-12T07:24:29Z</time></trkpt><trkpt lat="46.1104839675374" lon="13.197223932412394"><ele>128.0</ele><time>2026-04-12T07:24:30Z</time></trkpt><trkpt lat="46.11066076269959" lon="13.197289717879862"><ele>128.0</ele><time>2026-04-12T07:24:31Z</time></trkpt><trkpt lat="46.11083840657994" lon="13.197355453905125"><ele>128.66666666666666</ele><time>2026-04-12T07:24:32Z</time></trkpt><trkpt lat="46.111018545494304" lon="13.197417840982208"><ele>129.33333333333334</ele><time>2026-04-12T07:24:33Z</time></trkpt><trkpt lat="46.11119921994918" lon="13.197483020191996"><ele>130.0</ele><time>2026-04-12T07:24:34Z</time></trkpt><trkpt lat="46.11138065929091" lon="13.197548788767756"><ele>130.0</ele><time>2026-04-12T07:24:35Z</time></trkpt><trkpt lat="46.11156250326548" lon="13.197609594439687"><ele>130.0</ele><time>2026-04-12T07:24:36Z</time></trkpt><trkpt lat="46.111739836538625" lon="13.197665693681131"><ele>130.0</ele><time>2026-04-12T07:24:36.999Z</time></trkpt><trkpt lat="46.11191386203918" lon="13.197708706647953"><ele>130.0</ele><time>2026-04-12T07:24:37.999Z</time></trkpt><trkpt lat="46.11208620677265" lon="13.197738990619715"><ele>130.0</ele><time>2026-04-12T07:24:38.999Z</time></trkpt><trkpt lat="46.11225599810583" lon="13.197745185588786"><ele>130.0</ele><time>2026-04-12T07:24:39.999Z</time></trkpt><trkpt lat="46.11242293862877" lon="13.197735044628937"><ele>129.66666666666669</ele><time>2026-04-12T07:24:40.999Z</time></trkpt><trkpt lat="46.1125870879725" lon="13.19770955792973"><ele>129.33333333333334</ele><time>2026-04-12T07:24:41.999Z</time></trkpt><trkpt lat="46.112748743829755" lon="13.197649798809547"><ele>129.0</ele><time>2026-04-12T07:24:42.999Z</time></trkpt><trkpt lat="46.11290289703341" lon="13.197593447539685"><ele>129.0</ele><time>2026-04-12T07:24:43.999Z</time></trkpt><trkpt lat="46.11305233793912" lon="13.197509519234313"><ele>129.0</ele><time>2026-04-12T07:24:44.999Z</time></trkpt><trkpt lat="46.11319999922953" lon="13.197414825462062"><ele>129.0</ele><time>2026-04-12T07:24:45.999Z</time></trkpt><trkpt lat="46.11333925662585" lon="13.197299695665283"><ele>129.33333333333334</ele><time>2026-04-12T07:24:46.999Z</time></trkpt><trkpt lat="46.113469943233866" lon="13.197172581575094"><ele>129.66666666666669</ele><time>2026-04-12T07:24:47.999Z</time></trkpt><trkpt lat="46.11359526734966" lon="13.197031464934401"><ele>130.0</ele><time>2026-04-12T07:24:48.999Z</time></trkpt><trkpt lat="46.11371993954282" lon="13.196889424841308"><ele>130.0</ele><time>2026-04-12T07:24:49.999Z</time></trkpt><trkpt lat="46.11385204147563" lon="13.196752119700808"><ele>130.0</ele><time>2026-04-12T07:24:50.999Z</time></trkpt><trkpt lat="46.11398789697993" lon="13.196618843280557"><ele>130.0</ele><time>2026-04-12T07:24:51.999Z</time></trkpt><trkpt lat="46.114124898040885" lon="13.196479260315831"><ele>128.33333333333334</ele><time>2026-04-12T07:24:52.999Z</time></trkpt><trkpt lat="46.114260429887175" lon="13.196334384063153"><ele>126.66666666666666</ele><time>2026-04-12T07:24:53.999Z</time></trkpt><trkpt lat="46.1143996016065" lon="13.196191077626652"><ele>125.0</ele><time>2026-04-12T07:24:54.999Z</time></trkpt><trkpt lat="46.114540136312364" lon="13.196050045455456"><ele>125.0</ele><time>2026-04-12T07:24:55.999Z</time></trkpt><trkpt lat="46.11468329447831" lon="13.195903410753814"><ele>125.0</ele><time>2026-04-12T07:24:56.999Z</time></trkpt><trkpt lat="46.11482586620907" lon="13.19575927082825"><ele>125.0</ele><time>2026-04-12T07:24:57.999Z</time></trkpt><trkpt lat="46.11496522683924" lon="13.195619677268914"><ele>125.0</ele><time>2026-04-12T07:24:58.999Z</time></trkpt><trkpt lat="46.115102967037465" lon="13.195483038950073"><ele>125.0</ele><time>2026-04-12T07:24:59.999Z</time></trkpt><trkpt lat="46.11523887039197" lon="13.195341223298952"><ele>125.0</ele><time>2026-04-12T07:25:00.999Z</time></trkpt><trkpt lat="46.11537664807849" lon="13.195199361279224"><ele>125.0</ele><time>2026-04-12T07:25:01.999Z</time></trkpt><trkpt lat="46.115515586681724" lon="13.19505936151375"><ele>125.0</ele><time>2026-04-12T07:25:02.999Z</time></trkpt><trkpt lat="46.11565349901977" lon="13.194922643059506"><ele>125.0</ele><time>2026-04-12T07:25:03.999Z</time></trkpt><trkpt lat="46.11578992141213" lon="13.19478432852202"><ele>130.33333333333331</ele><time>2026-04-12T07:25:04.999Z</time></trkpt><trkpt lat="46.115927975488155" lon="13.194644704197843"><ele>135.66666666666666</ele><time>2026-04-12T07:25:05.999Z</time></trkpt><trkpt lat="46.11606847718955" lon="13.194502133085729"><ele>141.0</ele><time>2026-04-12T07:25:06.999Z</time></trkpt><trkpt lat="46.116213347783436" lon="13.194358291251467"><ele>141.0</ele><time>2026-04-12T07:25:07.999Z</time></trkpt><trkpt lat="46.11636339260589" lon="13.194215324774058"><ele>141.0</ele><time>2026-04-12T07:25:08.999Z</time></trkpt><trkpt lat="46.116520220906295" lon="13.194076411230542"><ele>141.0</ele><time>2026-04-12T07:25:09.999Z</time></trkpt><trkpt lat="46.116683201541974" lon="13.193947312834407"><ele>143.0</ele><time>2026-04-12T07:25:10.999Z</time></trkpt><trkpt lat="46.11685048429705" lon="13.19382140119157"><ele>145.0</ele><time>2026-04-12T07:25:11.999Z</time></trkpt><trkpt lat="46.11701554045535" lon="13.193702258958462"><ele>147.0</ele><time>2026-04-12T07:25:12.999Z</time></trkpt><trkpt lat="46.11717662554793" lon="13.193584195699044"><ele>147.0</ele><time>2026-04-12T07:25:13.999Z</time></trkpt><trkpt lat="46.11733585253541" lon="13.193468198906599"><ele>147.0</ele><time>2026-04-12T07:25:14.999Z</time></trkpt><trkpt lat="46.1174956451504" lon="13.19335053509469"><ele>147.0</ele><time>2026-04-12T07:25:15.999Z</time></trkpt><trkpt lat="46.117655980262555" lon="13.193236439097962"><ele>148.33333333333334</ele><time>2026-04-12T07:25:16.999Z</time></trkpt><trkpt lat="46.117819139013164" lon="13.193119285837355"><ele>149.66666666666669</ele><time>2026-04-12T07:25:17.999Z</time></trkpt><trkpt lat="46.117986043459936" lon="13.192999434016887"><ele>151.0</ele><time>2026-04-12T07:25:18.999Z</time></trkpt><trkpt lat="46.11815463799128" lon="13.192877491117189"><ele>149.33333333333334</ele><time>2026-04-12T07:25:19.999Z</time></trkpt><trkpt lat="46.118323797220974" lon="13.192755500690165"><ele>147.66666666666666</ele><time>2026-04-12T07:25:20.999Z</time></trkpt><trkpt lat="46.11849313714659" lon="13.192633473479747"><ele>146.0</ele><time>2026-04-12T07:25:21.999Z</time></trkpt><trkpt lat="46.11866089045483" lon="13.192516139989479"><ele>146.0</ele><time>2026-04-12T07:25:22.999Z</time></trkpt><trkpt lat="46.11882641315988" lon="13.192396858164702"><ele>146.0</ele><time>2026-04-12T07:25:23.999Z</time></trkpt><trkpt lat="46.11898986674029" lon="13.192281982049558"><ele>146.0</ele><time>2026-04-12T07:25:24.999Z</time></trkpt><trkpt lat="46.11914623951512" lon="13.192172096278952"><ele>150.33333333333331</ele><time>2026-04-12T07:25:25.999Z</time></trkpt><trkpt lat="46.11930019185728" lon="13.19206422779266"><ele>154.66666666666666</ele><time>2026-04-12T07:25:26.999Z</time></trkpt><trkpt lat="46.119449994111136" lon="13.19195591073785"><ele>159.0</ele><time>2026-04-12T07:25:28Z</time></trkpt><trkpt lat="46.11959462708573" lon="13.191849767605456"><ele>159.0</ele><time>2026-04-12T07:25:29Z</time></trkpt><trkpt lat="46.11973235503789" lon="13.191740059051655"><ele>159.0</ele><time>2026-04-12T07:25:30Z</time></trkpt><trkpt lat="46.11986130725217" lon="13.191619689231123"><ele>159.0</ele><time>2026-04-12T07:25:31Z</time></trkpt><trkpt lat="46.11998183750911" lon="13.191494448565155"><ele>158.5</ele><time>2026-04-12T07:25:32Z</time></trkpt><trkpt lat="46.12009869197565" lon="13.191371561339158"><ele>158.0</ele><time>2026-04-12T07:25:33Z</time></trkpt><trkpt lat="46.120210026914876" lon="13.19124066278259"><ele>157.5</ele><time>2026-04-12T07:25:34Z</time></trkpt><trkpt lat="46.120319324519635" lon="13.191107488994628"><ele>157.0</ele><time>2026-04-12T07:25:35Z</time></trkpt><trkpt lat="46.12042885618018" lon="13.190975677207812"><ele>157.0</ele><time>2026-04-12T07:25:36Z</time></trkpt><trkpt lat="46.120534164965655" lon="13.190853461127125"><ele>157.0</ele><time>2026-04-12T07:25:37Z</time></trkpt><trkpt lat="46.12063344218464" lon="13.190728294176362"><ele>157.0</ele><time>2026-04-12T07:25:38Z</time></trkpt><trkpt lat="46.12073090842183" lon="13.190604116292798"><ele>157.0</ele><time>2026-04-12T07:25:39Z</time></trkpt><trkpt lat="46.12081857888743" lon="13.190488781518303"><ele>157.2</ele><time>2026-04-12T07:25:40Z</time></trkpt><trkpt lat="46.120901625573666" lon="13.190386211644777"><ele>157.39999999999998</ele><time>2026-04-12T07:25:41Z</time></trkpt><trkpt lat="46.12098361926105" lon="13.190283209732272"><ele>157.60000000000002</ele><time>2026-04-12T07:25:42Z</time></trkpt><trkpt lat="46.121062635674974" lon="13.190184401394689"><ele>157.8</ele><time>2026-04-12T07:25:43Z</time></trkpt><trkpt lat="46.121139349085304" lon="13.190088296898075"><ele>158.0</ele><time>2026-04-12T07:25:44Z</time></trkpt><trkpt lat="46.12120546336822" lon="13.190001058966102"><ele>158.0</ele><time>2026-04-12T07:25:45Z</time></trkpt><trkpt lat="46.12126408656173" lon="13.189922796935312"><ele>158.0</ele><time>2026-04-12T07:25:46Z</time></trkpt><trkpt lat="46.1213139798106" lon="13.189857529967176"><ele>158.0</ele><time>2026-04-12T07:25:47Z</time></trkpt><trkpt lat="46.121390832201456" lon="13.189776025036515"><ele>158.0</ele><time>2026-04-12T07:25:49Z</time></trkpt><trkpt lat="46.121471070700466" lon="13.189712657492816"><ele>158.0</ele><time>2026-04-12T07:25:51Z</time></trkpt><trkpt lat="46.121571034158556" lon="13.18962750664461"><ele>158.5</ele><time>2026-04-12T07:25:53Z</time></trkpt><trkpt lat="46.12162711427813" lon="13.18954777475897"><ele>159.0</ele><time>2026-04-12T07:25:54Z</time></trkpt><trkpt lat="46.121703061817335" lon="13.189438059233488"><ele>159.5</ele><time>2026-04-12T07:25:55Z</time></trkpt><trkpt lat="46.12180579084943" lon="13.189320962846166"><ele>160.0</ele><time>2026-04-12T07:25:56Z</time></trkpt><trkpt lat="46.12191874389353" lon="13.189179946445703"><ele>160.0</ele><time>2026-04-12T07:25:57Z</time></trkpt><trkpt lat="46.12204315350714" lon="13.189022503249197"><ele>160.0</ele><time>2026-04-12T07:25:58Z</time></trkpt><trkpt lat="46.1221770157871" lon="13.188857666526001"><ele>160.0</ele><time>2026-04-12T07:25:59Z</time></trkpt><trkpt lat="46.12232008146731" lon="13.188684872162844"><ele>160.66666666666669</ele><time>2026-04-12T07:26:00Z</time></trkpt><trkpt lat="46.12247188639383" lon="13.188503559607918"><ele>161.33333333333334</ele><time>2026-04-12T07:26:01Z</time></trkpt><trkpt lat="46.122626522896034" lon="13.188319263300155"><ele>162.0</ele><time>2026-04-12T07:26:02Z</time></trkpt><trkpt lat="46.122780652395086" lon="13.1881310280378"><ele>162.33333333333334</ele><time>2026-04-12T07:26:03Z</time></trkpt><trkpt lat="46.12293275954159" lon="13.187949961947806"><ele>162.66666666666669</ele><time>2026-04-12T07:26:04Z</time></trkpt><trkpt lat="46.12308472854506" lon="13.187782802524085"><ele>163.0</ele><time>2026-04-12T07:26:05Z</time></trkpt><trkpt lat="46.12323657460793" lon="13.187632218693825"><ele>163.33333333333334</ele><time>2026-04-12T07:26:06Z</time></trkpt><trkpt lat="46.12338369381188" lon="13.187517337704126"><ele>163.66666666666666</ele><time>2026-04-12T07:26:07Z</time></trkpt><trkpt lat="46.1235369791409" lon="13.187432055496956"><ele>164.0</ele><time>2026-04-12T07:26:08Z</time></trkpt><trkpt lat="46.12368854736373" lon="13.187370459374897"><ele>164.0</ele><time>2026-04-12T07:26:09Z</time></trkpt><trkpt lat="46.12382025499704" lon="13.187312929279766"><ele>164.0</ele><time>2026-04-12T07:26:10Z</time></trkpt><trkpt lat="46.12393506030844" lon="13.187245923216153"><ele>164.0</ele><time>2026-04-12T07:26:11Z</time></trkpt><trkpt lat="46.1240319593441" lon="13.187183393672788"><ele>164.0</ele><time>2026-04-12T07:26:12Z</time></trkpt><trkpt lat="46.12412615491994" lon="13.187135169911297"><ele>164.39999999999998</ele><time>2026-04-12T07:26:13Z</time></trkpt><trkpt lat="46.12422289101859" lon="13.18712079877276"><ele>164.8</ele><time>2026-04-12T07:26:14Z</time></trkpt><trkpt lat="46.12431636316433" lon="13.187099388588251"><ele>165.2</ele><time>2026-04-12T07:26:15Z</time></trkpt><trkpt lat="46.124373884978155" lon="13.1869883857988"><ele>165.60000000000002</ele><time>2026-04-12T07:26:16Z</time></trkpt><trkpt lat="46.124412659933874" lon="13.18685402148511"><ele>166.0</ele><time>2026-04-12T07:26:17Z</time></trkpt><trkpt lat="46.124466551390135" lon="13.186711994174868"><ele>166.0</ele><time>2026-04-12T07:26:18Z</time></trkpt><trkpt lat="46.12455085452335" lon="13.186576457936724"><ele>166.0</ele><time>2026-04-12T07:26:19Z</time></trkpt><trkpt lat="46.12465743300503" lon="13.18644033813151"><ele>166.0</ele><time>2026-04-12T07:26:20Z</time></trkpt><trkpt lat="46.12476871194576" lon="13.186279495300612"><ele>166.0</ele><time>2026-04-12T07:26:21Z</time></trkpt><trkpt lat="46.12489012537735" lon="13.1861008347676"><ele>165.33333333333334</ele><time>2026-04-12T07:26:22Z</time></trkpt><trkpt lat="46.1249968649582" lon="13.185920737081476"><ele>164.66666666666666</ele><time>2026-04-12T07:26:23Z</time></trkpt><trkpt lat="46.12508631229779" lon="13.185712156164968"><ele>164.0</ele><time>2026-04-12T07:26:24Z</time></trkpt><trkpt lat="46.12515994689381" lon="13.18547150040101"><ele>163.66666666666666</ele><time>2026-04-12T07:26:25Z</time></trkpt><trkpt lat="46.12523353693914" lon="13.185212645359423"><ele>163.33333333333334</ele><time>2026-04-12T07:26:26Z</time></trkpt><trkpt lat="46.125313815004695" lon="13.184940591510461"><ele>163.0</ele><time>2026-04-12T07:26:27Z</time></trkpt><trkpt lat="46.12540467087905" lon="13.184661240702148"><ele>163.0</ele><time>2026-04-12T07:26:28Z</time></trkpt><trkpt lat="46.125510557306" lon="13.18438152961668"><ele>163.0</ele><time>2026-04-12T07:26:29Z</time></trkpt><trkpt lat="46.125625904975195" lon="13.184100508391706"><ele>163.0</ele><time>2026-04-12T07:26:30Z</time></trkpt><trkpt lat="46.125742765069056" lon="13.183812791544868"><ele>164.0</ele><time>2026-04-12T07:26:31Z</time></trkpt><trkpt lat="46.125861395534145" lon="13.183519313404803"><ele>165.0</ele><time>2026-04-12T07:26:32Z</time></trkpt><trkpt lat="46.125981532823175" lon="13.183222448984923"><ele>165.5</ele><time>2026-04-12T07:26:33Z</time></trkpt><trkpt lat="46.126103230548104" lon="13.182923841690098"><ele>166.0</ele><time>2026-04-12T07:26:34Z</time></trkpt><trkpt lat="46.12622595868317" lon="13.182624826423693"><ele>168.0</ele><time>2026-04-12T07:26:35Z</time></trkpt><trkpt lat="46.126348551095276" lon="13.182323277434461"><ele>170.0</ele><time>2026-04-12T07:26:36Z</time></trkpt><trkpt lat="46.12647055798376" lon="13.18202046493106"><ele>170.5</ele><time>2026-04-12T07:26:37Z</time></trkpt><trkpt lat="46.12659187165756" lon="13.181720579644372"><ele>171.0</ele><time>2026-04-12T07:26:38Z</time></trkpt><trkpt lat="46.12671322372496" lon="13.181428645289659"><ele>171.33333333333334</ele><time>2026-04-12T07:26:39Z</time></trkpt><trkpt lat="46.12683181824576" lon="13.181148243463984"><ele>171.66666666666669</ele><time>2026-04-12T07:26:39.999Z</time></trkpt><trkpt lat="46.12694707512854" lon="13.180879271421512"><ele>172.0</ele><time>2026-04-12T07:26:40.999Z</time></trkpt><trkpt lat="46.12705983753542" lon="13.18061870652312"><ele>172.66666666666669</ele><time>2026-04-12T07:26:41.999Z</time></trkpt><trkpt lat="46.12716622119501" lon="13.180363300911855"><ele>173.33333333333334</ele><time>2026-04-12T07:26:42.999Z</time></trkpt><trkpt lat="46.12726730555621" lon="13.1801058162057"><ele>174.0</ele><time>2026-04-12T07:26:43.999Z</time></trkpt><trkpt lat="46.12736765954699" lon="13.17984632971721"><ele>175.66666666666666</ele><time>2026-04-12T07:26:44.999Z</time></trkpt><trkpt lat="46.1274710727009" lon="13.179589983665478"><ele>177.33333333333331</ele><time>2026-04-12T07:26:45.999Z</time></trkpt><trkpt lat="46.12757814174602" lon="13.179332754150819"><ele>179.0</ele><time>2026-04-12T07:26:46.999Z</time></trkpt><trkpt lat="46.12768556347888" lon="13.179073185065313"><ele>180.66666666666666</ele><time>2026-04-12T07:26:47.999Z</time></trkpt><trkpt lat="46.127792861572466" lon="13.178808441295283"><ele>182.33333333333334</ele><time>2026-04-12T07:26:48.999Z</time></trkpt><trkpt lat="46.12790052932002" lon="13.178540343632221"><ele>184.0</ele><time>2026-04-12T07:26:49.999Z</time></trkpt><trkpt lat="46.12800967134489" lon="13.17826765006458"><ele>185.0</ele><time>2026-04-12T07:26:50.999Z</time></trkpt><trkpt lat="46.12812198248213" lon="13.177993255634204"><ele>186.0</ele><time>2026-04-12T07:26:51.999Z</time></trkpt><trkpt lat="46.128238295422875" lon="13.177716140294999"><ele>187.0</ele><time>2026-04-12T07:26:52.999Z</time></trkpt><trkpt lat="46.12835481523183" lon="13.177434396295144"><ele>189.0</ele><time>2026-04-12T07:26:53.999Z</time></trkpt><trkpt lat="46.12847028838898" lon="13.177146948263832"><ele>191.0</ele><time>2026-04-12T07:26:54.999Z</time></trkpt><trkpt lat="46.12858524161585" lon="13.176854855865502"><ele>191.0</ele><time>2026-04-12T07:26:55.999Z</time></trkpt><trkpt lat="46.1287049291284" lon="13.176573263491404"><ele>191.0</ele><time>2026-04-12T07:26:56.999Z</time></trkpt><trkpt lat="46.12884481514283" lon="13.17631009724811"><ele>192.5</ele><time>2026-04-12T07:26:57.999Z</time></trkpt><trkpt lat="46.12900186824031" lon="13.176064157388415"><ele>194.0</ele><time>2026-04-12T07:26:58.999Z</time></trkpt><trkpt lat="46.129171313636526" lon="13.175835081753629"><ele>194.5</ele><time>2026-04-12T07:26:59.999Z</time></trkpt><trkpt lat="46.12935450354152" lon="13.175626800161936"><ele>195.0</ele><time>2026-04-12T07:27:00.999Z</time></trkpt><trkpt lat="46.12954974985082" lon="13.175443659361564"><ele>195.0</ele><time>2026-04-12T07:27:01.999Z</time></trkpt><trkpt lat="46.1297570931996" lon="13.175285952232603"><ele>195.0</ele><time>2026-04-12T07:27:02.999Z</time></trkpt><trkpt lat="46.12997385376741" lon="13.175155789202114"><ele>195.5</ele><time>2026-04-12T07:27:03.999Z</time></trkpt><trkpt lat="46.13019892218055" lon="13.175056964900024"><ele>196.0</ele><time>2026-04-12T07:27:04.999Z</time></trkpt><trkpt lat="46.130428235335735" lon="13.174984151441393"><ele>196.0</ele><time>2026-04-12T07:27:05.999Z</time></trkpt><trkpt lat="46.13065848515047" lon="13.174945246528303"><ele>196.0</ele><time>2026-04-12T07:27:06.999Z</time></trkpt><trkpt lat="46.13086603023701" lon="13.174842572920179"><ele>197.5</ele><time>2026-04-12T07:27:07.999Z</time></trkpt><trkpt lat="46.13111296940309" lon="13.174942359107247"><ele>199.0</ele><time>2026-04-12T07:27:08.999Z</time></trkpt><trkpt lat="46.131331754919955" lon="13.17493169563985"><ele>199.0</ele><time>2026-04-12T07:27:09.999Z</time></trkpt><trkpt lat="46.131543782034285" lon="13.174908627131476"><ele>199.0</ele><time>2026-04-12T07:27:10.999Z</time></trkpt><trkpt lat="46.13175036138822" lon="13.174867607595498"><ele>199.0</ele><time>2026-04-12T07:27:11.999Z</time></trkpt><trkpt lat="46.13194822345359" lon="13.17481556122924"><ele>199.33333333333331</ele><time>2026-04-12T07:27:12.999Z</time></trkpt><trkpt lat="46.13213315962974" lon="13.174755159982077"><ele>199.66666666666669</ele><time>2026-04-12T07:27:13.999Z</time></trkpt><trkpt lat="46.13230053884954" lon="13.174697244274943"><ele>200.0</ele><time>2026-04-12T07:27:14.999Z</time></trkpt><trkpt lat="46.13245466585732" lon="13.174636858365508"><ele>200.66666666666669</ele><time>2026-04-12T07:27:15.999Z</time></trkpt><trkpt lat="46.13259030790658" lon="13.174515826805333"><ele>201.33333333333331</ele><time>2026-04-12T07:27:16.999Z</time></trkpt><trkpt lat="46.132711840844536" lon="13.174355908159471"><ele>202.0</ele><time>2026-04-12T07:27:17.999Z</time></trkpt><trkpt lat="46.132816111923916" lon="13.174159723616548"><ele>200.66666666666666</ele><time>2026-04-12T07:27:18.999Z</time></trkpt><trkpt lat="46.13291655474775" lon="13.173952494053992"><ele>199.33333333333331</ele><time>2026-04-12T07:27:19.999Z</time></trkpt><trkpt lat="46.133028663436676" lon="13.173742723941816"><ele>198.0</ele><time>2026-04-12T07:27:20.999Z</time></trkpt><trkpt lat="46.13313868513804" lon="13.173528610265114"><ele>198.0</ele><time>2026-04-12T07:27:21.999Z</time></trkpt><trkpt lat="46.13324605859182" lon="13.173307231867112"><ele>198.0</ele><time>2026-04-12T07:27:22.999Z</time></trkpt><trkpt lat="46.133357046667356" lon="13.17308244362753"><ele>198.0</ele><time>2026-04-12T07:27:23.999Z</time></trkpt><trkpt lat="46.13347124815618" lon="13.172856786165116"><ele>197.0</ele><time>2026-04-12T07:27:24.999Z</time></trkpt><trkpt lat="46.13358583585532" lon="13.172634660951022"><ele>196.0</ele><time>2026-04-12T07:27:25.999Z</time></trkpt><trkpt lat="46.13370546282092" lon="13.172419755158568"><ele>195.0</ele><time>2026-04-12T07:27:26.999Z</time></trkpt><trkpt lat="46.133835768076594" lon="13.172219345431987"><ele>195.0</ele><time>2026-04-12T07:27:27.999Z</time></trkpt><trkpt lat="46.13397928690581" lon="13.172032388132807"><ele>195.0</ele><time>2026-04-12T07:27:28.999Z</time></trkpt><trkpt lat="46.13413084905435" lon="13.17185088216699"><ele>195.0</ele><time>2026-04-12T07:27:29.999Z</time></trkpt><trkpt lat="46.13429261023906" lon="13.171684049817545"><ele>194.66666666666669</ele><time>2026-04-12T07:27:30.999Z</time></trkpt><trkpt lat="46.134467745592126" lon="13.171538406389704"><ele>194.33333333333334</ele><time>2026-04-12T07:27:31.999Z</time></trkpt><trkpt lat="46.1346503572824" lon="13.171406219660328"><ele>194.0</ele><time>2026-04-12T07:27:32.999Z</time></trkpt><trkpt lat="46.13483369615733" lon="13.171273592189351"><ele>193.33333333333334</ele><time>2026-04-12T07:27:34Z</time></trkpt><trkpt lat="46.13501590497013" lon="13.171143398685263"><ele>192.66666666666669</ele><time>2026-04-12T07:27:35Z</time></trkpt><trkpt lat="46.13518684764792" lon="13.171021714391046"><ele>192.0</ele><time>2026-04-12T07:27:36Z</time></trkpt><trkpt lat="46.13535606467511" lon="13.17089966497895"><ele>192.0</ele><time>2026-04-12T07:27:37Z</time></trkpt><trkpt lat="46.13552478772486" lon="13.17078044545577"><ele>192.0</ele><time>2026-04-12T07:27:38Z</time></trkpt><trkpt lat="46.13569167515548" lon="13.170666091702758"><ele>192.0</ele><time>2026-04-12T07:27:39Z</time></trkpt><trkpt lat="46.13585618063595" lon="13.170553352314146"><ele>192.0</ele><time>2026-04-12T07:27:40Z</time></trkpt><trkpt lat="46.13601426678012" lon="13.170439606235892"><ele>192.0</ele><time>2026-04-12T07:27:41Z</time></trkpt><trkpt lat="46.13616927403333" lon="13.17032630878995"><ele>192.0</ele><time>2026-04-12T07:27:42Z</time></trkpt><trkpt lat="46.13632115262496" lon="13.170218431621025"><ele>192.0</ele><time>2026-04-12T07:27:43Z</time></trkpt><trkpt lat="46.13646626471276" lon="13.170107006211776"><ele>192.0</ele><time>2026-04-12T07:27:44Z</time></trkpt><trkpt lat="46.136606693919575" lon="13.169987339542299"><ele>192.0</ele><time>2026-04-12T07:27:45Z</time></trkpt><trkpt lat="46.13673740823462" lon="13.169837599388888"><ele>190.66666666666666</ele><time>2026-04-12T07:27:46Z</time></trkpt><trkpt lat="46.13685664909946" lon="13.169664835048406"><ele>189.33333333333331</ele><time>2026-04-12T07:27:47Z</time></trkpt><trkpt lat="46.136964790955275" lon="13.1694719931339"><ele>188.0</ele><time>2026-04-12T07:27:48Z</time></trkpt><trkpt lat="46.13705590642271" lon="13.169261122962917"><ele>188.0</ele><time>2026-04-12T07:27:49Z</time></trkpt><trkpt lat="46.137137268692065" lon="13.169034427016786"><ele>188.0</ele><time>2026-04-12T07:27:50Z</time></trkpt><trkpt lat="46.13721394894972" lon="13.168797466144811"><ele>188.0</ele><time>2026-04-12T07:27:51Z</time></trkpt><trkpt lat="46.13729309911773" lon="13.16855803768908"><ele>187.66666666666666</ele><time>2026-04-12T07:27:52Z</time></trkpt><trkpt lat="46.137377563483696" lon="13.168321687542072"><ele>187.33333333333334</ele><time>2026-04-12T07:27:53Z</time></trkpt><trkpt lat="46.13746750135538" lon="13.168089474135867"><ele>187.0</ele><time>2026-04-12T07:27:54Z</time></trkpt><trkpt lat="46.137570623685015" lon="13.167866768277937"><ele>187.0</ele><time>2026-04-12T07:27:55Z</time></trkpt><trkpt lat="46.13768573896358" lon="13.167657400366146"><ele>187.0</ele><time>2026-04-12T07:27:56Z</time></trkpt><trkpt lat="46.137810520869344" lon="13.167454729574384"><ele>187.0</ele><time>2026-04-12T07:27:57Z</time></trkpt><trkpt lat="46.13793638664957" lon="13.167255384292506"><ele>187.66666666666669</ele><time>2026-04-12T07:27:58Z</time></trkpt><trkpt lat="46.138066653917484" lon="13.167058471359796"><ele>188.33333333333334</ele><time>2026-04-12T07:27:59Z</time></trkpt><trkpt lat="46.13820228845541" lon="13.166867966211402"><ele>189.0</ele><time>2026-04-12T07:28:00Z</time></trkpt><trkpt lat="46.13834848542943" lon="13.16669216432442"><ele>187.33333333333334</ele><time>2026-04-12T07:28:01Z</time></trkpt><trkpt lat="46.13850504479702" lon="13.166533240478888"><ele>185.66666666666669</ele><time>2026-04-12T07:28:02Z</time></trkpt><trkpt lat="46.13867124720192" lon="13.16639043320735"><ele>184.0</ele><time>2026-04-12T07:28:03Z</time></trkpt><trkpt lat="46.138841512541354" lon="13.166257475147267"><ele>184.0</ele><time>2026-04-12T07:28:04Z</time></trkpt><trkpt lat="46.13900633531851" lon="13.166122395915359"><ele>184.0</ele><time>2026-04-12T07:28:05Z</time></trkpt><trkpt lat="46.139155317015195" lon="13.165983087940099"><ele>184.0</ele><time>2026-04-12T07:28:06Z</time></trkpt><trkpt lat="46.13930166203901" lon="13.165820541884143"><ele>183.0</ele><time>2026-04-12T07:28:07Z</time></trkpt><trkpt lat="46.139430651643075" lon="13.165632318614392"><ele>182.0</ele><time>2026-04-12T07:28:08Z</time></trkpt><trkpt lat="46.139542340199554" lon="13.16542492575873"><ele>181.0</ele><time>2026-04-12T07:28:09Z</time></trkpt><trkpt lat="46.13964005352919" lon="13.165207016065759"><ele>181.0</ele><time>2026-04-12T07:28:10Z</time></trkpt><trkpt lat="46.13972928305808" lon="13.164984050861019"><ele>181.0</ele><time>2026-04-12T07:28:11Z</time></trkpt><trkpt lat="46.13981576773844" lon="13.164755646440447"><ele>181.0</ele><time>2026-04-12T07:28:12Z</time></trkpt><trkpt lat="46.139905098491525" lon="13.164525065947274"><ele>180.66666666666669</ele><time>2026-04-12T07:28:13Z</time></trkpt><trkpt lat="46.14000368236164" lon="13.164295857193078"><ele>180.33333333333334</ele><time>2026-04-12T07:28:14Z</time></trkpt><trkpt lat="46.14011438965246" lon="13.164077575531216"><ele>180.0</ele><time>2026-04-12T07:28:15Z</time></trkpt><trkpt lat="46.140245538847324" lon="13.163872694883493"><ele>180.0</ele><time>2026-04-12T07:28:16Z</time></trkpt><trkpt lat="46.14039745721688" lon="13.163685572194519"><ele>180.0</ele><time>2026-04-12T07:28:17Z</time></trkpt><trkpt lat="46.14056551170736" lon="13.16351208592851"><ele>180.0</ele><time>2026-04-12T07:28:18Z</time></trkpt><trkpt lat="46.14074090427698" lon="13.163335024404937"><ele>180.33333333333334</ele><time>2026-04-12T07:28:19Z</time></trkpt><trkpt lat="46.14092186569457" lon="13.163159456801193"><ele>180.66666666666669</ele><time>2026-04-12T07:28:20Z</time></trkpt><trkpt lat="46.14110902469577" lon="13.162980779533257"><ele>181.0</ele><time>2026-04-12T07:28:21Z</time></trkpt><trkpt lat="46.141298717169235" lon="13.162798370754194"><ele>181.0</ele><time>2026-04-12T07:28:22Z</time></trkpt><trkpt lat="46.14148847061246" lon="13.162615316688312"><ele>181.0</ele><time>2026-04-12T07:28:23Z</time></trkpt><trkpt lat="46.141679306888776" lon="13.16242941282076"><ele>181.0</ele><time>2026-04-12T07:28:24Z</time></trkpt><trkpt lat="46.141871217933996" lon="13.162240247773573"><ele>181.0</ele><time>2026-04-12T07:28:25Z</time></trkpt><trkpt lat="46.14206447894001" lon="13.162054787079656"><ele>181.0</ele><time>2026-04-12T07:28:26Z</time></trkpt><trkpt lat="46.14225769745301" lon="13.161875763452866"><ele>181.0</ele><time>2026-04-12T07:28:27Z</time></trkpt><trkpt lat="46.142449719098984" lon="13.161699191934973"><ele>182.5</ele><time>2026-04-12T07:28:28Z</time></trkpt><trkpt lat="46.142640315795376" lon="13.161522464374947"><ele>184.0</ele><time>2026-04-12T07:28:29Z</time></trkpt><trkpt lat="46.14282950737389" lon="13.161342401600066"><ele>184.0</ele><time>2026-04-12T07:28:30Z</time></trkpt><trkpt lat="46.143016617198" lon="13.161163111356746"><ele>184.0</ele><time>2026-04-12T07:28:31Z</time></trkpt><trkpt lat="46.14320114245333" lon="13.160985512482197"><ele>184.0</ele><time>2026-04-12T07:28:32Z</time></trkpt><trkpt lat="46.14338544004471" lon="13.160809575709138"><ele>184.0</ele><time>2026-04-12T07:28:33Z</time></trkpt><trkpt lat="46.14357098885418" lon="13.160632085829631"><ele>184.0</ele><time>2026-04-12T07:28:34Z</time></trkpt><trkpt lat="46.14375987369909" lon="13.160454816318746"><ele>184.0</ele><time>2026-04-12T07:28:35Z</time></trkpt><trkpt lat="46.14394975009812" lon="13.160274773147306"><ele>182.5</ele><time>2026-04-12T07:28:36Z</time></trkpt><trkpt lat="46.14414035681108" lon="13.16009227871897"><ele>181.0</ele><time>2026-04-12T07:28:37Z</time></trkpt><trkpt lat="46.14433055389135" lon="13.159908698927174"><ele>182.5</ele><time>2026-04-12T07:28:38Z</time></trkpt><trkpt lat="46.14452081191639" lon="13.15972779408609"><ele>184.0</ele><time>2026-04-12T07:28:39Z</time></trkpt><trkpt lat="46.14471099585099" lon="13.159548545181533"><ele>185.0</ele><time>2026-04-12T07:28:40Z</time></trkpt><trkpt lat="46.144900105916705" lon="13.15937027810027"><ele>186.0</ele><time>2026-04-12T07:28:41Z</time></trkpt><trkpt lat="46.145087993852776" lon="13.159192760319547"><ele>186.0</ele><time>2026-04-12T07:28:42Z</time></trkpt><trkpt lat="46.14527563343071" lon="13.159015391237403"><ele>186.0</ele><time>2026-04-12T07:28:43Z</time></trkpt><trkpt lat="46.14546295171231" lon="13.158840245919091"><ele>186.0</ele><time>2026-04-12T07:28:44Z</time></trkpt><trkpt lat="46.145650067004894" lon="13.158664673802674"><ele>185.5</ele><time>2026-04-12T07:28:45Z</time></trkpt><trkpt lat="46.14583732244421" lon="13.158486208544245"><ele>185.0</ele><time>2026-04-12T07:28:46Z</time></trkpt><trkpt lat="46.14602834907032" lon="13.15830303444736"><ele>185.0</ele><time>2026-04-12T07:28:46.999Z</time></trkpt><trkpt lat="46.14622013463866" lon="13.158120438151323"><ele>185.0</ele><time>2026-04-12T07:28:47.999Z</time></trkpt><trkpt lat="46.14641390647864" lon="13.157938494495044"><ele>185.5</ele><time>2026-04-12T07:28:48.999Z</time></trkpt><trkpt lat="46.14660837760752" lon="13.157756251749746"><ele>186.0</ele><time>2026-04-12T07:28:49.999Z</time></trkpt><trkpt lat="46.146804647245645" lon="13.157573757369939"><ele>186.0</ele><time>2026-04-12T07:28:50.999Z</time></trkpt><trkpt lat="46.146998905187154" lon="13.157388538615967"><ele>186.0</ele><time>2026-04-12T07:28:51.999Z</time></trkpt><trkpt lat="46.1471941968929" lon="13.157203509202187"><ele>183.5</ele><time>2026-04-12T07:28:52.999Z</time></trkpt><trkpt lat="46.14739064070771" lon="13.157018954415163"><ele>181.0</ele><time>2026-04-12T07:28:53.999Z</time></trkpt><trkpt lat="46.14758660476807" lon="13.156834051983124"><ele>181.0</ele><time>2026-04-12T07:28:54.999Z</time></trkpt><trkpt lat="46.14778086093552" lon="13.15664723832701"><ele>181.0</ele><time>2026-04-12T07:28:55.999Z</time></trkpt><trkpt lat="46.14797335950605" lon="13.156461499268216"><ele>181.5</ele><time>2026-04-12T07:28:56.999Z</time></trkpt><trkpt lat="46.14816343871463" lon="13.15628042080347"><ele>182.0</ele><time>2026-04-12T07:28:57.999Z</time></trkpt><trkpt lat="46.14834816799215" lon="13.156099532856082"><ele>182.0</ele><time>2026-04-12T07:28:58.999Z</time></trkpt><trkpt lat="46.14852590505751" lon="13.155915015269892"><ele>182.0</ele><time>2026-04-12T07:28:59.999Z</time></trkpt><trkpt lat="46.148697504904" lon="13.15572509924554"><ele>182.0</ele><time>2026-04-12T07:29:00.999Z</time></trkpt><trkpt lat="46.14886809540834" lon="13.155526657103625"><ele>182.33333333333331</ele><time>2026-04-12T07:29:01.999Z</time></trkpt><trkpt lat="46.149038187979265" lon="13.155321657131896"><ele>182.66666666666666</ele><time>2026-04-12T07:29:02.999Z</time></trkpt><trkpt lat="46.14920836346853" lon="13.15511042956126"><ele>183.0</ele><time>2026-04-12T07:29:03.999Z</time></trkpt><trkpt lat="46.14937915584006" lon="13.1548910769082"><ele>182.5</ele><time>2026-04-12T07:29:04.999Z</time></trkpt><trkpt lat="46.14954900821496" lon="13.154661740954392"><ele>182.0</ele><time>2026-04-12T07:29:05.999Z</time></trkpt><trkpt lat="46.149715600489934" lon="13.15442164535332"><ele>181.5</ele><time>2026-04-12T07:29:06.999Z</time></trkpt><trkpt lat="46.149879991420896" lon="13.154169891649717"><ele>181.0</ele><time>2026-04-12T07:29:07.999Z</time></trkpt><trkpt lat="46.15003739153939" lon="13.153905557713243"><ele>181.0</ele><time>2026-04-12T07:29:08.999Z</time></trkpt><trkpt lat="46.15019104693269" lon="13.153635149805332"><ele>181.0</ele><time>2026-04-12T07:29:09.999Z</time></trkpt><trkpt lat="46.1503427769927" lon="13.153359014661039"><ele>180.0</ele><time>2026-04-12T07:29:10.999Z</time></trkpt><trkpt lat="46.15048844464795" lon="13.15307465905735"><ele>179.0</ele><time>2026-04-12T07:29:11.999Z</time></trkpt><trkpt lat="46.15062545094717" lon="13.152780940896513"><ele>179.5</ele><time>2026-04-12T07:29:12.999Z</time></trkpt><trkpt lat="46.150753916868425" lon="13.152486435167422"><ele>180.0</ele><time>2026-04-12T07:29:13.999Z</time></trkpt><trkpt lat="46.15087770714257" lon="13.152189306948781"><ele>179.0</ele><time>2026-04-12T07:29:14.999Z</time></trkpt><trkpt lat="46.15099704350321" lon="13.151893547915403"><ele>178.0</ele><time>2026-04-12T07:29:15.999Z</time></trkpt><trkpt lat="46.15111311050829" lon="13.151594191924634"><ele>178.5</ele><time>2026-04-12T07:29:16.999Z</time></trkpt><trkpt lat="46.151224371808006" lon="13.151287944864915"><ele>179.0</ele><time>2026-04-12T07:29:17.999Z</time></trkpt><trkpt lat="46.151329134591734" lon="13.150975126265116"><ele>179.0</ele><time>2026-04-12T07:29:18.999Z</time></trkpt><trkpt lat="46.151427566421944" lon="13.15065835990715"><ele>179.0</ele><time>2026-04-12T07:29:19.999Z</time></trkpt><trkpt lat="46.151521397563144" lon="13.150332298694146"><ele>180.0</ele><time>2026-04-12T07:29:20.999Z</time></trkpt><trkpt lat="46.15160965941775" lon="13.149996708070802"><ele>181.0</ele><time>2026-04-12T07:29:21.999Z</time></trkpt><trkpt lat="46.151706561347574" lon="13.149627523223224"><ele>182.0</ele><time>2026-04-12T07:29:22.999Z</time></trkpt><trkpt lat="46.151808532761784" lon="13.149249307957486"><ele>183.0</ele><time>2026-04-12T07:29:23.999Z</time></trkpt><trkpt lat="46.15191129396274" lon="13.148846380172186"><ele>183.5</ele><time>2026-04-12T07:29:24.999Z</time></trkpt><trkpt lat="46.15202355023717" lon="13.148431221702577"><ele>184.0</ele><time>2026-04-12T07:29:25.999Z</time></trkpt><trkpt lat="46.15214588099208" lon="13.14801130876135"><ele>184.0</ele><time>2026-04-12T07:29:26.999Z</time></trkpt><trkpt lat="46.15227312374012" lon="13.147581953209219"><ele>184.0</ele><time>2026-04-12T07:29:27.999Z</time></trkpt><trkpt lat="46.15239969002643" lon="13.147137664699438"><ele>184.0</ele><time>2026-04-12T07:29:28.999Z</time></trkpt><trkpt lat="46.15252420832869" lon="13.146685736289845"><ele>184.0</ele><time>2026-04-12T07:29:29.999Z</time></trkpt><trkpt lat="46.15265015528256" lon="13.146227910854021"><ele>184.5</ele><time>2026-04-12T07:29:30.999Z</time></trkpt><trkpt lat="46.152777903024315" lon="13.145758028703751"><ele>185.0</ele><time>2026-04-12T07:29:31.999Z</time></trkpt><trkpt lat="46.15290553036665" lon="13.145286733194052"><ele>188.5</ele><time>2026-04-12T07:29:32.999Z</time></trkpt><trkpt lat="46.153036791409995" lon="13.144814919556591"><ele>192.0</ele><time>2026-04-12T07:29:33.999Z</time></trkpt><trkpt lat="46.15316798279724" lon="13.144340081218989"><ele>188.0</ele><time>2026-04-12T07:29:34.999Z</time></trkpt><trkpt lat="46.15329855796309" lon="13.14386143341294"><ele>184.0</ele><time>2026-04-12T07:29:35.999Z</time></trkpt><trkpt lat="46.15342878903965" lon="13.143382175128998"><ele>185.0</ele><time>2026-04-12T07:29:36.999Z</time></trkpt><trkpt lat="46.15355875846987" lon="13.142904957494947"><ele>186.0</ele><time>2026-04-12T07:29:37.999Z</time></trkpt><trkpt lat="46.1536897978819" lon="13.142433582529174"><ele>187.0</ele><time>2026-04-12T07:29:38.999Z</time></trkpt><trkpt lat="46.153820249584726" lon="13.141968171436766"><ele>188.0</ele><time>2026-04-12T07:29:40Z</time></trkpt><trkpt lat="46.153950373745204" lon="13.141510325582397"><ele>184.5</ele><time>2026-04-12T07:29:41Z</time></trkpt><trkpt lat="46.15408594206721" lon="13.141059970494402"><ele>181.0</ele><time>2026-04-12T07:29:42Z</time></trkpt><trkpt lat="46.1542333555517" lon="13.140622512732325"><ele>181.0</ele><time>2026-04-12T07:29:43Z</time></trkpt><trkpt lat="46.15439091735797" lon="13.140195035828276"><ele>181.0</ele><time>2026-04-12T07:29:44Z</time></trkpt><trkpt lat="46.15455854333134" lon="13.139780048832563"><ele>180.5</ele><time>2026-04-12T07:29:45Z</time></trkpt><trkpt lat="46.15473435190103" lon="13.139373150488353"><ele>180.0</ele><time>2026-04-12T07:29:46Z</time></trkpt><trkpt lat="46.15492012886476" lon="13.138978912266703"><ele>180.0</ele><time>2026-04-12T07:29:47Z</time></trkpt><trkpt lat="46.15511739078673" lon="13.138596684822762"><ele>180.0</ele><time>2026-04-12T07:29:48Z</time></trkpt><trkpt lat="46.1553255375847" lon="13.138229492053158"><ele>180.5</ele><time>2026-04-12T07:29:49Z</time></trkpt><trkpt lat="46.155540362206075" lon="13.137873337804008"><ele>181.0</ele><time>2026-04-12T07:29:50Z</time></trkpt><trkpt lat="46.155764035801994" lon="13.137531506225997"><ele>181.0</ele><time>2026-04-12T07:29:51Z</time></trkpt><trkpt lat="46.15599604200407" lon="13.137199358496233"><ele>181.0</ele><time>2026-04-12T07:29:52Z</time></trkpt><trkpt lat="46.15620223290671" lon="13.136842910757117"><ele>181.0</ele><time>2026-04-12T07:29:53Z</time></trkpt><trkpt lat="46.15644559726543" lon="13.13653261252668"><ele>181.0</ele><time>2026-04-12T07:29:54Z</time></trkpt><trkpt lat="46.15669640797186" lon="13.136228928826364"><ele>181.0</ele><time>2026-04-12T07:29:55Z</time></trkpt><trkpt lat="46.156948806543525" lon="13.135948740871164"><ele>181.0</ele><time>2026-04-12T07:29:56Z</time></trkpt><trkpt lat="46.15720706683822" lon="13.1356954935237"><ele>182.0</ele><time>2026-04-12T07:29:57Z</time></trkpt><trkpt lat="46.15746339163426" lon="13.135458893243069"><ele>183.0</ele><time>2026-04-12T07:29:58Z</time></trkpt><trkpt lat="46.157720875516866" lon="13.135232149964647"><ele>183.0</ele><time>2026-04-12T07:29:59Z</time></trkpt><trkpt lat="46.157979364093165" lon="13.135021254825702"><ele>183.0</ele><time>2026-04-12T07:30:00Z</time></trkpt><trkpt lat="46.158239193196536" lon="13.134852328087716"><ele>184.5</ele><time>2026-04-12T07:30:01Z</time></trkpt><trkpt lat="46.15848625495268" lon="13.134732177651873"><ele>186.0</ele><time>2026-04-12T07:30:02Z</time></trkpt><trkpt lat="46.15870889661654" lon="13.134568273500326"><ele>186.0</ele><time>2026-04-12T07:30:03Z</time></trkpt><trkpt lat="46.158935197079046" lon="13.134434975735358"><ele>186.0</ele><time>2026-04-12T07:30:04Z</time></trkpt><trkpt lat="46.159164209205144" lon="13.134315552736627"><ele>188.5</ele><time>2026-04-12T07:30:05Z</time></trkpt><trkpt lat="46.15939471873123" lon="13.134200249687465"><ele>191.0</ele><time>2026-04-12T07:30:06Z</time></trkpt><trkpt lat="46.159620461860456" lon="13.134087929043709"><ele>191.5</ele><time>2026-04-12T07:30:07Z</time></trkpt><trkpt lat="46.15984924240776" lon="13.133997225896398"><ele>192.0</ele><time>2026-04-12T07:30:08Z</time></trkpt><trkpt lat="46.16007998461042" lon="13.133914958890816"><ele>194.0</ele><time>2026-04-12T07:30:09Z</time></trkpt><trkpt lat="46.16030922637621" lon="13.133826891424725"><ele>196.0</ele><time>2026-04-12T07:30:10Z</time></trkpt><trkpt lat="46.160540120071964" lon="13.133776326715262"><ele>196.0</ele><time>2026-04-12T07:30:11Z</time></trkpt><trkpt lat="46.16076797972532" lon="13.133717086273212"><ele>196.0</ele><time>2026-04-12T07:30:12Z</time></trkpt><trkpt lat="46.16099887452933" lon="13.133665404139244"><ele>196.0</ele><time>2026-04-12T07:30:13Z</time></trkpt><trkpt lat="46.1612428425169" lon="13.133614418791343"><ele>196.0</ele><time>2026-04-12T07:30:14Z</time></trkpt><trkpt lat="46.161486278550726" lon="13.133557743639935"><ele>194.0</ele><time>2026-04-12T07:30:15Z</time></trkpt><trkpt lat="46.16172904750333" lon="13.133543019419541"><ele>192.0</ele><time>2026-04-12T07:30:16Z</time></trkpt><trkpt lat="46.16197551434968" lon="13.133528350742642"><ele>192.0</ele><time>2026-04-12T07:30:17Z</time></trkpt><trkpt lat="46.16222288759968" lon="13.133521934119598"><ele>192.0</ele><time>2026-04-12T07:30:18Z</time></trkpt><trkpt lat="46.162471173199044" lon="13.13352490349108"><ele>192.0</ele><time>2026-04-12T07:30:19Z</time></trkpt><trkpt lat="46.16271856444599" lon="13.133537029489952"><ele>192.0</ele><time>2026-04-12T07:30:20Z</time></trkpt><trkpt lat="46.16296562493699" lon="13.133548838372095"><ele>191.5</ele><time>2026-04-12T07:30:21Z</time></trkpt><trkpt lat="46.163214609531536" lon="13.133559183918857"><ele>191.0</ele><time>2026-04-12T07:30:22Z</time></trkpt><trkpt lat="46.16346316602872" lon="13.133570652714521"><ele>191.0</ele><time>2026-04-12T07:30:23Z</time></trkpt><trkpt lat="46.16371527614018" lon="13.133579824433491"><ele>191.0</ele><time>2026-04-12T07:30:24Z</time></trkpt><trkpt lat="46.163967099254315" lon="13.1335873766971"><ele>189.5</ele><time>2026-04-12T07:30:25Z</time></trkpt><trkpt lat="46.16422180142358" lon="13.133595755921394"><ele>188.0</ele><time>2026-04-12T07:30:26Z</time></trkpt><trkpt lat="46.16447747312599" lon="13.133604365444533"><ele>188.0</ele><time>2026-04-12T07:30:27Z</time></trkpt><trkpt lat="46.16473355293544" lon="13.13361379132084"><ele>188.0</ele><time>2026-04-12T07:30:28Z</time></trkpt><trkpt lat="46.16499082118313" lon="13.13362270465302"><ele>189.0</ele><time>2026-04-12T07:30:29Z</time></trkpt><trkpt lat="46.16524827661886" lon="13.133628801039226"><ele>190.0</ele><time>2026-04-12T07:30:30Z</time></trkpt><trkpt lat="46.16550706857426" lon="13.13363491616912"><ele>190.5</ele><time>2026-04-12T07:30:31Z</time></trkpt><trkpt lat="46.16576868517463" lon="13.133640654054874"><ele>191.0</ele><time>2026-04-12T07:30:32Z</time></trkpt><trkpt lat="46.1660308187569" lon="13.133650490119521"><ele>191.0</ele><time>2026-04-12T07:30:33Z</time></trkpt><trkpt lat="46.16629485820708" lon="13.133661919686741"><ele>191.0</ele><time>2026-04-12T07:30:34Z</time></trkpt><trkpt lat="46.16656049612217" lon="13.133673229192404"><ele>195.5</ele><time>2026-04-12T07:30:35Z</time></trkpt><trkpt lat="46.16682666602934" lon="13.133679130979248"><ele>200.0</ele><time>2026-04-12T07:30:36Z</time></trkpt><trkpt lat="46.16709212124228" lon="13.133677623185953"><ele>200.0</ele><time>2026-04-12T07:30:37Z</time></trkpt><trkpt lat="46.16735903039197" lon="13.133661333925613"><ele>200.0</ele><time>2026-04-12T07:30:38Z</time></trkpt><trkpt lat="46.16762492813708" lon="13.133631088985044"><ele>201.0</ele><time>2026-04-12T07:30:39Z</time></trkpt><trkpt lat="46.16788708068523" lon="13.133586539003495"><ele>202.0</ele><time>2026-04-12T07:30:40Z</time></trkpt><trkpt lat="46.16815141994599" lon="13.133530694053201"><ele>200.0</ele><time>2026-04-12T07:30:41Z</time></trkpt><trkpt lat="46.16841563980891" lon="13.133465240086757"><ele>198.0</ele><time>2026-04-12T07:30:42Z</time></trkpt><trkpt lat="46.16867893273281" lon="13.133381146915323"><ele>198.0</ele><time>2026-04-12T07:30:43Z</time></trkpt><trkpt lat="46.16894091850323" lon="13.133281158497406"><ele>198.0</ele><time>2026-04-12T07:30:44Z</time></trkpt><trkpt lat="46.16920071987624" lon="13.133165152824473"><ele>193.0</ele><time>2026-04-12T07:30:45Z</time></trkpt><trkpt lat="46.16946286819789" lon="13.133044799941754"><ele>188.0</ele><time>2026-04-12T07:30:46Z</time></trkpt><trkpt lat="46.1697224079553" lon="13.132913823032029"><ele>188.0</ele><time>2026-04-12T07:30:47Z</time></trkpt><trkpt lat="46.169974867690755" lon="13.13276293245394"><ele>188.0</ele><time>2026-04-12T07:30:48Z</time></trkpt><trkpt lat="46.170224507731646" lon="13.13260289102787"><ele>188.0</ele><time>2026-04-12T07:30:49Z</time></trkpt><trkpt lat="46.17047524218279" lon="13.132441312101205"><ele>188.0</ele><time>2026-04-12T07:30:50Z</time></trkpt><trkpt lat="46.17072250925422" lon="13.13227731902497"><ele>187.0</ele><time>2026-04-12T07:30:51Z</time></trkpt><trkpt lat="46.17097086264786" lon="13.13211471835374"><ele>186.0</ele><time>2026-04-12T07:30:51.999Z</time></trkpt><trkpt lat="46.17121456614251" lon="13.131955504747289"><ele>186.0</ele><time>2026-04-12T07:30:52.999Z</time></trkpt><trkpt lat="46.17145230513913" lon="13.131794670205068"><ele>186.0</ele><time>2026-04-12T07:30:53.999Z</time></trkpt><trkpt lat="46.17168946557561" lon="13.131638294337968"><ele>184.5</ele><time>2026-04-12T07:30:54.999Z</time></trkpt><trkpt lat="46.17192316432725" lon="13.131491275645221"><ele>183.0</ele><time>2026-04-12T07:30:55.999Z</time></trkpt><trkpt lat="46.172148356860674" lon="13.13134338822771"><ele>184.5</ele><time>2026-04-12T07:30:56.999Z</time></trkpt><trkpt lat="46.172369863125944" lon="13.131200669860428"><ele>186.0</ele><time>2026-04-12T07:30:57.999Z</time></trkpt><trkpt lat="46.1725860492171" lon="13.131066820045644"><ele>186.0</ele><time>2026-04-12T07:30:58.999Z</time></trkpt><trkpt lat="46.17278669985882" lon="13.130933832583136"><ele>186.0</ele><time>2026-04-12T07:30:59.999Z</time></trkpt><trkpt lat="46.172980132667014" lon="13.130804859955395"><ele>186.0</ele><time>2026-04-12T07:31:00.999Z</time></trkpt><trkpt lat="46.17316407849918" lon="13.130681070358426"><ele>187.0</ele><time>2026-04-12T07:31:01.999Z</time></trkpt><trkpt lat="46.17334975245667" lon="13.130556039905438"><ele>188.0</ele><time>2026-04-12T07:31:02.999Z</time></trkpt><trkpt lat="46.17353354854273" lon="13.130438181071435"><ele>189.0</ele><time>2026-04-12T07:31:03.999Z</time></trkpt><trkpt lat="46.173711496535034" lon="13.130326791758726"><ele>189.0</ele><time>2026-04-12T07:31:04.999Z</time></trkpt><trkpt lat="46.173893696182986" lon="13.130212252722098"><ele>189.0</ele><time>2026-04-12T07:31:05.999Z</time></trkpt><trkpt lat="46.17407927603125" lon="13.130092021148158"><ele>189.0</ele><time>2026-04-12T07:31:06.999Z</time></trkpt><trkpt lat="46.17426808087807" lon="13.129970142892574"><ele>189.33333333333334</ele><time>2026-04-12T07:31:07.999Z</time></trkpt><trkpt lat="46.17445815458562" lon="13.129847170694754"><ele>189.66666666666669</ele><time>2026-04-12T07:31:08.999Z</time></trkpt><trkpt lat="46.174647694913524" lon="13.129725515150389"><ele>190.0</ele><time>2026-04-12T07:31:09.999Z</time></trkpt><trkpt lat="46.17483694877288" lon="13.129602776651753"><ele>191.33333333333334</ele><time>2026-04-12T07:31:10.999Z</time></trkpt><trkpt lat="46.175029995000614" lon="13.129465588896398"><ele>192.66666666666669</ele><time>2026-04-12T07:31:11.999Z</time></trkpt><trkpt lat="46.17523058846434" lon="13.129320715271179"><ele>194.0</ele><time>2026-04-12T07:31:12.999Z</time></trkpt><trkpt lat="46.17544430474143" lon="13.129189695111556"><ele>194.0</ele><time>2026-04-12T07:31:13.999Z</time></trkpt><trkpt lat="46.175657642636224" lon="13.129063369562516"><ele>194.0</ele><time>2026-04-12T07:31:14.999Z</time></trkpt><trkpt lat="46.175863524541825" lon="13.12893415624154"><ele>193.66666666666669</ele><time>2026-04-12T07:31:15.999Z</time></trkpt><trkpt lat="46.17604502570504" lon="13.128814088392303"><ele>193.33333333333331</ele><time>2026-04-12T07:31:16.999Z</time></trkpt><trkpt lat="46.176198839148434" lon="13.128713375685653"><ele>193.0</ele><time>2026-04-12T07:31:17.999Z</time></trkpt><trkpt lat="46.17633213027413" lon="13.128627834962334"><ele>193.0</ele><time>2026-04-12T07:31:18.999Z</time></trkpt><trkpt lat="46.17644586025172" lon="13.128556115077293"><ele>193.0</ele><time>2026-04-12T07:31:19.999Z</time></trkpt><trkpt lat="46.17655698396452" lon="13.128483218481152"><ele>193.0</ele><time>2026-04-12T07:31:20.999Z</time></trkpt><trkpt lat="46.17666458973943" lon="13.128411338317308"><ele>193.0</ele><time>2026-04-12T07:31:21.999Z</time></trkpt><trkpt lat="46.17676008989643" lon="13.12834449321134"><ele>192.60000000000002</ele><time>2026-04-12T07:31:22.999Z</time></trkpt><trkpt lat="46.176836439874634" lon="13.128279955733705"><ele>192.20000000000002</ele><time>2026-04-12T07:31:23.999Z</time></trkpt><trkpt lat="46.17689473987392" lon="13.128227753713508"><ele>191.8</ele><time>2026-04-12T07:31:24.999Z</time></trkpt><trkpt lat="46.17701493708965" lon="13.128186231886094"><ele>191.4</ele><time>2026-04-12T07:31:26.999Z</time></trkpt><trkpt lat="46.17710082214283" lon="13.1281808422462"><ele>191.0</ele><time>2026-04-12T07:31:27.999Z</time></trkpt><trkpt lat="46.17718435326867" lon="13.128150699498116"><ele>190.25</ele><time>2026-04-12T07:31:28.999Z</time></trkpt><trkpt lat="46.17726580292341" lon="13.128081218237025"><ele>189.5</ele><time>2026-04-12T07:31:29.999Z</time></trkpt><trkpt lat="46.17735829652797" lon="13.127980305115543"><ele>188.75</ele><time>2026-04-12T07:31:30.999Z</time></trkpt><trkpt lat="46.177486815781045" lon="13.127867213530386"><ele>188.0</ele><time>2026-04-12T07:31:31.999Z</time></trkpt><trkpt lat="46.177655582521744" lon="13.127746206564876"><ele>186.5</ele><time>2026-04-12T07:31:32.999Z</time></trkpt><trkpt lat="46.17786465370652" lon="13.127629891496232"><ele>185.0</ele><time>2026-04-12T07:31:33.999Z</time></trkpt><trkpt lat="46.17809325119485" lon="13.127503169608175"><ele>184.5</ele><time>2026-04-12T07:31:34.999Z</time></trkpt><trkpt lat="46.17831289989666" lon="13.127361994842069"><ele>184.0</ele><time>2026-04-12T07:31:35.999Z</time></trkpt><trkpt lat="46.17851052582151" lon="13.127228208109612"><ele>184.0</ele><time>2026-04-12T07:31:36.999Z</time></trkpt><trkpt lat="46.178690620790334" lon="13.127107172766205"><ele>184.0</ele><time>2026-04-12T07:31:37.999Z</time></trkpt><trkpt lat="46.17888896485012" lon="13.126967650080566"><ele>184.0</ele><time>2026-04-12T07:31:38.999Z</time></trkpt><trkpt lat="46.179135400383714" lon="13.126787907298326"><ele>184.0</ele><time>2026-04-12T07:31:39.999Z</time></trkpt><trkpt lat="46.179408265474514" lon="13.126608254986865"><ele>184.0</ele><time>2026-04-12T07:31:40.999Z</time></trkpt><trkpt lat="46.179713944837204" lon="13.126429504678054"><ele>183.5</ele><time>2026-04-12T07:31:41.999Z</time></trkpt><trkpt lat="46.18002671803491" lon="13.126247673889063"><ele>183.0</ele><time>2026-04-12T07:31:42.999Z</time></trkpt><trkpt lat="46.18034892930791" lon="13.126048889541904"><ele>183.0</ele><time>2026-04-12T07:31:43.999Z</time></trkpt><trkpt lat="46.18067057986415" lon="13.125841422310105"><ele>183.0</ele><time>2026-04-12T07:31:44.999Z</time></trkpt><trkpt lat="46.180987677224245" lon="13.125640260256496"><ele>182.5</ele><time>2026-04-12T07:31:46Z</time></trkpt><trkpt lat="46.181301448023596" lon="13.125439948082356"><ele>182.0</ele><time>2026-04-12T07:31:47Z</time></trkpt><trkpt lat="46.1816109025394" lon="13.125237263844106"><ele>181.5</ele><time>2026-04-12T07:31:48Z</time></trkpt><trkpt lat="46.181924542180525" lon="13.125038485361467"><ele>181.0</ele><time>2026-04-12T07:31:49Z</time></trkpt><trkpt lat="46.18222638085959" lon="13.124840580489419"><ele>178.5</ele><time>2026-04-12T07:31:50Z</time></trkpt><trkpt lat="46.18252639856159" lon="13.124643350241914"><ele>176.0</ele><time>2026-04-12T07:31:51Z</time></trkpt><trkpt lat="46.182822800327585" lon="13.124456859029983"><ele>176.0</ele><time>2026-04-12T07:31:52Z</time></trkpt><trkpt lat="46.18311774150994" lon="13.124267113447704"><ele>176.0</ele><time>2026-04-12T07:31:53Z</time></trkpt><trkpt lat="46.1834101557111" lon="13.124073866023021"><ele>176.5</ele><time>2026-04-12T07:31:54Z</time></trkpt><trkpt lat="46.183703118738755" lon="13.123882799302336"><ele>177.0</ele><time>2026-04-12T07:31:55Z</time></trkpt><trkpt lat="46.1839950244147" lon="13.123694587362147"><ele>177.5</ele><time>2026-04-12T07:31:56Z</time></trkpt><trkpt lat="46.18428831340512" lon="13.123504187930852"><ele>178.0</ele><time>2026-04-12T07:31:57Z</time></trkpt><trkpt lat="46.18458076076719" lon="13.123315417582871"><ele>175.5</ele><time>2026-04-12T07:31:58Z</time></trkpt><trkpt lat="46.1848694936262" lon="13.12312534065533"><ele>173.0</ele><time>2026-04-12T07:31:59Z</time></trkpt><trkpt lat="46.18515589685805" lon="13.122938575328881"><ele>173.0</ele><time>2026-04-12T07:32:00Z</time></trkpt><trkpt lat="46.18543939981585" lon="13.122750416470991"><ele>173.0</ele><time>2026-04-12T07:32:01Z</time></trkpt><trkpt lat="46.185717942103906" lon="13.122567509301907"><ele>171.0</ele><time>2026-04-12T07:32:02Z</time></trkpt><trkpt lat="46.185996256813205" lon="13.122387048234483"><ele>169.0</ele><time>2026-04-12T07:32:03Z</time></trkpt><trkpt lat="46.186274041714704" lon="13.12220716337736"><ele>170.0</ele><time>2026-04-12T07:32:04Z</time></trkpt><trkpt lat="46.186553691406836" lon="13.122025613664219"><ele>171.0</ele><time>2026-04-12T07:32:05Z</time></trkpt><trkpt lat="46.186835374200115" lon="13.121845182150842"><ele>171.0</ele><time>2026-04-12T07:32:06Z</time></trkpt><trkpt lat="46.187118275420275" lon="13.121664268137389"><ele>171.0</ele><time>2026-04-12T07:32:07Z</time></trkpt><trkpt lat="46.187399589897716" lon="13.121481065352704"><ele>172.0</ele><time>2026-04-12T07:32:08Z</time></trkpt><trkpt lat="46.18768275292779" lon="13.121293816410017"><ele>173.0</ele><time>2026-04-12T07:32:09Z</time></trkpt><trkpt lat="46.18796249345592" lon="13.121114511041599"><ele>173.5</ele><time>2026-04-12T07:32:10Z</time></trkpt><trkpt lat="46.18823835767513" lon="13.12094867827595"><ele>174.0</ele><time>2026-04-12T07:32:11Z</time></trkpt><trkpt lat="46.1885122808754" lon="13.120800656759322"><ele>173.5</ele><time>2026-04-12T07:32:12Z</time></trkpt><trkpt lat="46.18878567506472" lon="13.120668651730657"><ele>173.0</ele><time>2026-04-12T07:32:13Z</time></trkpt><trkpt lat="46.18906375903495" lon="13.120550209630778"><ele>171.5</ele><time>2026-04-12T07:32:14Z</time></trkpt><trkpt lat="46.189345722586296" lon="13.120444406416267"><ele>170.0</ele><time>2026-04-12T07:32:15Z</time></trkpt><trkpt lat="46.189624842730694" lon="13.120359973827666"><ele>168.0</ele><time>2026-04-12T07:32:16Z</time></trkpt><trkpt lat="46.189908278712856" lon="13.120299837847588"><ele>166.0</ele><time>2026-04-12T07:32:17Z</time></trkpt><trkpt lat="46.19019164895997" lon="13.120252602056517"><ele>166.0</ele><time>2026-04-12T07:32:18Z</time></trkpt><trkpt lat="46.19047312261375" lon="13.1202218134677"><ele>166.0</ele><time>2026-04-12T07:32:19Z</time></trkpt><trkpt lat="46.19075444567168" lon="13.120208231386936"><ele>165.5</ele><time>2026-04-12T07:32:20Z</time></trkpt><trkpt lat="46.19103400627532" lon="13.120206924797756"><ele>165.0</ele><time>2026-04-12T07:32:21Z</time></trkpt><trkpt lat="46.19130826217713" lon="13.120219681342103"><ele>165.0</ele><time>2026-04-12T07:32:22Z</time></trkpt><trkpt lat="46.19156487538509" lon="13.120242976327978"><ele>165.0</ele><time>2026-04-12T07:32:23Z</time></trkpt><trkpt lat="46.191797228960986" lon="13.12030104268201"><ele>165.0</ele><time>2026-04-12T07:32:24Z</time></trkpt><trkpt lat="46.19201978967939" lon="13.120318213850137"><ele>165.0</ele><time>2026-04-12T07:32:25Z</time></trkpt><trkpt lat="46.19222618312822" lon="13.120368279110313"><ele>165.0</ele><time>2026-04-12T07:32:26Z</time></trkpt><trkpt lat="46.19243558934035" lon="13.120416361088866"><ele>165.33333333333334</ele><time>2026-04-12T07:32:27Z</time></trkpt><trkpt lat="46.19263757987072" lon="13.120464256644826"><ele>165.66666666666669</ele><time>2026-04-12T07:32:28Z</time></trkpt><trkpt lat="46.19282254605532" lon="13.120509328637281"><ele>166.0</ele><time>2026-04-12T07:32:29Z</time></trkpt><trkpt lat="46.19300812558405" lon="13.120551745540942"><ele>166.66666666666669</ele><time>2026-04-12T07:32:30Z</time></trkpt><trkpt lat="46.193192710401384" lon="13.120595351742415"><ele>167.33333333333334</ele><time>2026-04-12T07:32:31Z</time></trkpt><trkpt lat="46.19337723428637" lon="13.120642209344238"><ele>168.0</ele><time>2026-04-12T07:32:32Z</time></trkpt><trkpt lat="46.1935616859823" lon="13.120686278565135"><ele>168.0</ele><time>2026-04-12T07:32:33Z</time></trkpt><trkpt lat="46.193748109508526" lon="13.120729877284495"><ele>168.0</ele><time>2026-04-12T07:32:34Z</time></trkpt><trkpt lat="46.1939356339382" lon="13.120773171825288"><ele>168.0</ele><time>2026-04-12T07:32:35Z</time></trkpt><trkpt lat="46.1941233043256" lon="13.120815155759642"><ele>167.66666666666666</ele><time>2026-04-12T07:32:36Z</time></trkpt><trkpt lat="46.194310643838456" lon="13.120858709390696"><ele>167.33333333333331</ele><time>2026-04-12T07:32:37Z</time></trkpt><trkpt lat="46.19449925547456" lon="13.120901897097626"><ele>167.0</ele><time>2026-04-12T07:32:38Z</time></trkpt><trkpt lat="46.19468791599987" lon="13.120945796403323"><ele>168.0</ele><time>2026-04-12T07:32:39Z</time></trkpt><trkpt lat="46.19487617518604" lon="13.120991275916303"><ele>169.0</ele><time>2026-04-12T07:32:40Z</time></trkpt><trkpt lat="46.19506552044181" lon="13.121036261111009"><ele>170.0</ele><time>2026-04-12T07:32:41Z</time></trkpt><trkpt lat="46.195252985577014" lon="13.121081563244303"><ele>170.0</ele><time>2026-04-12T07:32:42Z</time></trkpt><trkpt lat="46.1954413945564" lon="13.12112287458777"><ele>170.0</ele><time>2026-04-12T07:32:43Z</time></trkpt><trkpt lat="46.19562871499889" lon="13.121162842905626"><ele>170.0</ele><time>2026-04-12T07:32:44Z</time></trkpt><trkpt lat="46.19581149558658" lon="13.121204704474186"><ele>171.66666666666666</ele><time>2026-04-12T07:32:45Z</time></trkpt><trkpt lat="46.195991893278894" lon="13.121247474368923"><ele>173.33333333333334</ele><time>2026-04-12T07:32:46Z</time></trkpt><trkpt lat="46.19617204069369" lon="13.121287559680175"><ele>175.0</ele><time>2026-04-12T07:32:47Z</time></trkpt><trkpt lat="46.196352054768965" lon="13.121324781042187"><ele>176.0</ele><time>2026-04-12T07:32:48Z</time></trkpt><trkpt lat="46.196532840883336" lon="13.121366119048032"><ele>177.0</ele><time>2026-04-12T07:32:49Z</time></trkpt><trkpt lat="46.196714909393116" lon="13.121408929841571"><ele>178.0</ele><time>2026-04-12T07:32:50Z</time></trkpt><trkpt lat="46.19689814872903" lon="13.121452053332437"><ele>178.0</ele><time>2026-04-12T07:32:51Z</time></trkpt><trkpt lat="46.19708250368289" lon="13.121497386545155"><ele>178.0</ele><time>2026-04-12T07:32:52Z</time></trkpt><trkpt lat="46.19726845789794" lon="13.121542639646314"><ele>178.0</ele><time>2026-04-12T07:32:53Z</time></trkpt><trkpt lat="46.19745598864885" lon="13.121584686341684"><ele>176.33333333333334</ele><time>2026-04-12T07:32:53.999Z</time></trkpt><trkpt lat="46.1976459592374" lon="13.121625838776483"><ele>174.66666666666666</ele><time>2026-04-12T07:32:54.999Z</time></trkpt><trkpt lat="46.19783755753889" lon="13.121665586834546"><ele>173.0</ele><time>2026-04-12T07:32:55.999Z</time></trkpt><trkpt lat="46.19802678348066" lon="13.12169304257739"><ele>173.0</ele><time>2026-04-12T07:32:56.999Z</time></trkpt><trkpt lat="46.198214559359165" lon="13.12170960151505"><ele>173.0</ele><time>2026-04-12T07:32:57.999Z</time></trkpt><trkpt lat="46.19840112265215" lon="13.121717144824295"><ele>173.0</ele><time>2026-04-12T07:32:58.999Z</time></trkpt><trkpt lat="46.19858725803132" lon="13.121711397191786"><ele>173.0</ele><time>2026-04-12T07:32:59.999Z</time></trkpt><trkpt lat="46.198772463370275" lon="13.121692701882553"><ele>173.0</ele><time>2026-04-12T07:33:00.999Z</time></trkpt><trkpt lat="46.1989564915076" lon="13.121666651961974"><ele>173.0</ele><time>2026-04-12T07:33:01.999Z</time></trkpt><trkpt lat="46.19913649338697" lon="13.121637557731452"><ele>173.0</ele><time>2026-04-12T07:33:02.999Z</time></trkpt><trkpt lat="46.19930640180725" lon="13.121606542042402"><ele>173.0</ele><time>2026-04-12T07:33:03.999Z</time></trkpt><trkpt lat="46.1994743214567" lon="13.121569015726086"><ele>173.0</ele><time>2026-04-12T07:33:04.999Z</time></trkpt><trkpt lat="46.19963783110266" lon="13.121519688718788"><ele>173.33333333333331</ele><time>2026-04-12T07:33:05.999Z</time></trkpt><trkpt lat="46.19979895309931" lon="13.121464267741871"><ele>173.66666666666666</ele><time>2026-04-12T07:33:06.999Z</time></trkpt><trkpt lat="46.199955978384864" lon="13.12139766038311"><ele>174.0</ele><time>2026-04-12T07:33:07.999Z</time></trkpt><trkpt lat="46.20011133553452" lon="13.121328054576278"><ele>174.66666666666666</ele><time>2026-04-12T07:33:08.999Z</time></trkpt><trkpt lat="46.20026443902132" lon="13.121254731929927"><ele>175.33333333333331</ele><time>2026-04-12T07:33:09.999Z</time></trkpt><trkpt lat="46.2004175423746" lon="13.121174286766106"><ele>176.0</ele><time>2026-04-12T07:33:10.999Z</time></trkpt><trkpt lat="46.200569098108204" lon="13.121084115312204"><ele>176.33333333333331</ele><time>2026-04-12T07:33:11.999Z</time></trkpt><trkpt lat="46.20072085933919" lon="13.12098482902905"><ele>176.66666666666666</ele><time>2026-04-12T07:33:12.999Z</time></trkpt><trkpt lat="46.20087395860248" lon="13.120882207335413"><ele>177.0</ele><time>2026-04-12T07:33:13.999Z</time></trkpt><trkpt lat="46.20102733431903" lon="13.12077295305684"><ele>177.33333333333334</ele><time>2026-04-12T07:33:14.999Z</time></trkpt><trkpt lat="46.20117908533159" lon="13.120650857660918"><ele>177.66666666666669</ele><time>2026-04-12T07:33:15.999Z</time></trkpt><trkpt lat="46.20131942390852" lon="13.120528800353616"><ele>178.0</ele><time>2026-04-12T07:33:16.999Z</time></trkpt><trkpt lat="46.20144550447543" lon="13.120416094495035"><ele>177.0</ele><time>2026-04-12T07:33:17.999Z</time></trkpt><trkpt lat="46.201564303268086" lon="13.120309288727265"><ele>176.0</ele><time>2026-04-12T07:33:18.999Z</time></trkpt><trkpt lat="46.20169191583428" lon="13.120168051169212"><ele>175.0</ele><time>2026-04-12T07:33:19.999Z</time></trkpt><trkpt lat="46.20181513145305" lon="13.12002335421465"><ele>175.75</ele><time>2026-04-12T07:33:20.999Z</time></trkpt><trkpt lat="46.20193111068989" lon="13.11989358807149"><ele>176.5</ele><time>2026-04-12T07:33:21.999Z</time></trkpt><trkpt lat="46.20203964628199" lon="13.119769749330588"><ele>177.25</ele><time>2026-04-12T07:33:22.999Z</time></trkpt><trkpt lat="46.2021379854479" lon="13.119651038680214"><ele>178.0</ele><time>2026-04-12T07:33:23.999Z</time></trkpt><trkpt lat="46.202213573008876" lon="13.119551386532024"><ele>178.0</ele><time>2026-04-12T07:33:24.999Z</time></trkpt><trkpt lat="46.202275744083956" lon="13.119468076512439"><ele>178.0</ele><time>2026-04-12T07:33:25.999Z</time></trkpt><trkpt lat="46.202329281834366" lon="13.11940054522313"><ele>178.0</ele><time>2026-04-12T07:33:26.999Z</time></trkpt><trkpt lat="46.202401838254374" lon="13.119312963402749"><ele>178.0</ele><time>2026-04-12T07:33:28.999Z</time></trkpt><trkpt lat="46.202490457428674" lon="13.11923675984487"><ele>178.0</ele><time>2026-04-12T07:33:34.999Z</time></trkpt><trkpt lat="46.20257816452874" lon="13.119235948580824"><ele>178.0</ele><time>2026-04-12T07:33:35.999Z</time></trkpt><trkpt lat="46.20267350689628" lon="13.119256731361737"><ele>177.5</ele><time>2026-04-12T07:33:36.999Z</time></trkpt><trkpt lat="46.20275331747253" lon="13.1194450748949"><ele>177.0</ele><time>2026-04-12T07:33:37.999Z</time></trkpt><trkpt lat="46.20283742724137" lon="13.119597360707234"><ele>176.5</ele><time>2026-04-12T07:33:38.999Z</time></trkpt><trkpt lat="46.2029269339724" lon="13.119772350529539"><ele>176.0</ele><time>2026-04-12T07:33:39.999Z</time></trkpt><trkpt lat="46.20302859516511" lon="13.119956693202326"><ele>175.5</ele><time>2026-04-12T07:33:40.999Z</time></trkpt><trkpt lat="46.20313538553699" lon="13.12014438377744"><ele>175.0</ele><time>2026-04-12T07:33:41.999Z</time></trkpt><trkpt lat="46.203221774670425" lon="13.12030321325486"><ele>174.5</ele><time>2026-04-12T07:33:42.999Z</time></trkpt><trkpt lat="46.20329849356002" lon="13.120443831862389"><ele>174.0</ele><time>2026-04-12T07:33:43.999Z</time></trkpt><trkpt lat="46.20336762510911" lon="13.120572408537216"><ele>174.0</ele><time>2026-04-12T07:33:44.999Z</time></trkpt><trkpt lat="46.203420265110864" lon="13.120667797461053"><ele>174.0</ele><time>2026-04-12T07:33:45.999Z</time></trkpt><trkpt lat="46.20349766523318" lon="13.120751265372009"><ele>174.0</ele><time>2026-04-12T07:33:47.999Z</time></trkpt><trkpt lat="46.203588974047605" lon="13.120717810544912"><ele>174.0</ele><time>2026-04-12T07:33:50.999Z</time></trkpt><trkpt lat="46.20365124351425" lon="13.12067544601954"><ele>174.0</ele><time>2026-04-12T07:33:53Z</time></trkpt><trkpt lat="46.2036049436186" lon="13.120606273738575"><ele>174.0</ele><time>2026-04-12T07:34:36Z</time></trkpt></trkseg><trkseg><trkpt lat="46.20294176432035" lon="13.119115217472075"><ele>176.0</ele><time>2026-04-12T08:30:00.999Z</time></trkpt><trkpt lat="46.20289882748934" lon="13.119211706774436"><ele>176.0</ele><time>2026-04-12T08:30:08.999Z</time></trkpt><trkpt lat="46.20287370052794" lon="13.119379616117618"><ele>176.0</ele><time>2026-04-12T08:30:10.999Z</time></trkpt><trkpt lat="46.202914492550526" lon="13.119487171927227"><ele>176.0</ele><time>2026-04-12T08:30:12.999Z</time></trkpt><trkpt lat="46.202969224130634" lon="13.119568174593887"><ele>176.0</ele><time>2026-04-12T08:30:14.999Z</time></trkpt><trkpt lat="46.20302339035865" lon="13.119651263674806"><ele>176.0</ele><time>2026-04-12T08:30:16.999Z</time></trkpt><trkpt lat="46.20306753324389" lon="13.119736835504343"><ele>176.0</ele><time>2026-04-12T08:30:19.999Z</time></trkpt><trkpt lat="46.203027746568374" lon="13.119822602980275"><ele>176.0</ele><time>2026-04-12T08:30:23.999Z</time></trkpt><trkpt lat="46.20295960323533" lon="13.119822864875468"><ele>176.0</ele><time>2026-04-12T08:30:25.999Z</time></trkpt><trkpt lat="46.20290692887059" lon="13.119696880218768"><ele>176.0</ele><time>2026-04-12T08:30:27.999Z</time></trkpt><trkpt lat="46.20285271469134" lon="13.11955449295813"><ele>176.0</ele><time>2026-04-12T08:30:29.999Z</time></trkpt><trkpt lat="46.202819394071334" lon="13.119477298933434"><ele>176.0</ele><time>2026-04-12T08:30:30.999Z</time></trkpt><trkpt lat="46.20276290178363" lon="13.119336211185981"><ele>176.0</ele><time>2026-04-12T08:30:32.999Z</time></trkpt><trkpt lat="46.2027356932717" lon="13.119251091434421"><ele>176.0</ele><time>2026-04-12T08:30:33.999Z</time></trkpt><trkpt lat="46.20272170495719" lon="13.119137149439583"><ele>176.0</ele><time>2026-04-12T08:30:34.999Z</time></trkpt><trkpt lat="46.202740313145796" lon="13.118991011100677"><ele>176.0</ele><time>2026-04-12T08:30:35.999Z</time></trkpt><trkpt lat="46.20275325377867" lon="13.118850275915745"><ele>176.0</ele><time>2026-04-12T08:30:36.999Z</time></trkpt><trkpt lat="46.20276812226052" lon="13.118733985570648"><ele>176.0</ele><time>2026-04-12T08:30:37.999Z</time></trkpt><trkpt lat="46.20280530980867" lon="13.118639150369761"><ele>176.0</ele><time>2026-04-12T08:30:38.999Z</time></trkpt><trkpt lat="46.20284875593887" lon="13.118566034548712"><ele>176.0</ele><time>2026-04-12T08:30:39.999Z</time></trkpt><trkpt lat="46.202918536230925" lon="13.118441193458628"><ele>176.0</ele><time>2026-04-12T08:30:41.999Z</time></trkpt><trkpt lat="46.20298228432082" lon="13.118320670951439"><ele>176.0</ele><time>2026-04-12T08:30:43.999Z</time></trkpt><trkpt lat="46.20304264904062" lon="13.11822086019823"><ele>176.0</ele><time>2026-04-12T08:30:45.999Z</time></trkpt><trkpt lat="46.20311258013702" lon="13.118085911894203"><ele>175.8</ele><time>2026-04-12T08:30:47.999Z</time></trkpt><trkpt lat="46.203154046072356" lon="13.117997830637066"><ele>175.60000000000002</ele><time>2026-04-12T08:30:48.999Z</time></trkpt><trkpt lat="46.203204501119664" lon="13.117911946057372"><ele>175.4</ele><time>2026-04-12T08:30:49.999Z</time></trkpt><trkpt lat="46.20326260306667" lon="13.117805516588781"><ele>175.2</ele><time>2026-04-12T08:30:50.999Z</time></trkpt><trkpt lat="46.203322076459514" lon="13.117679147562228"><ele>175.0</ele><time>2026-04-12T08:30:51.999Z</time></trkpt><trkpt lat="46.203391215235406" lon="13.117540464884481"><ele>175.0</ele><time>2026-04-12T08:30:52.999Z</time></trkpt><trkpt lat="46.20346946805931" lon="13.11739331373805"><ele>175.0</ele><time>2026-04-12T08:30:53.999Z</time></trkpt><trkpt lat="46.20354937169599" lon="13.117241850492977"><ele>175.0</ele><time>2026-04-12T08:30:54.999Z</time></trkpt><trkpt lat="46.2036257932074" lon="13.117091251733646"><ele>175.0</ele><time>2026-04-12T08:30:55.999Z</time></trkpt><trkpt lat="46.203706725526466" lon="13.116937398226348"><ele>175.0</ele><time>2026-04-12T08:30:56.999Z</time></trkpt><trkpt lat="46.20379216253612" lon="13.11677775637539"><ele>175.0</ele><time>2026-04-12T08:30:57.999Z</time></trkpt><trkpt lat="46.20387720252024" lon="13.116618431972244"><ele>175.0</ele><time>2026-04-12T08:30:58.999Z</time></trkpt><trkpt lat="46.20395339095885" lon="13.11647502972636"><ele>175.0</ele><time>2026-04-12T08:30:59.999Z</time></trkpt><trkpt lat="46.20402150569769" lon="13.116343939899284"><ele>175.5</ele><time>2026-04-12T08:31:00.999Z</time></trkpt><trkpt lat="46.20408664767346" lon="13.116221331288058"><ele>176.0</ele><time>2026-04-12T08:31:01.999Z</time></trkpt><trkpt lat="46.20415482897889" lon="13.116094103340759"><ele>176.5</ele><time>2026-04-12T08:31:02.999Z</time></trkpt><trkpt lat="46.20423890335497" lon="13.115933537123842"><ele>177.0</ele><time>2026-04-12T08:31:03.999Z</time></trkpt><trkpt lat="46.204331081769844" lon="13.115751896675722"><ele>176.75</ele><time>2026-04-12T08:31:04.999Z</time></trkpt><trkpt lat="46.204422086853846" lon="13.115564051983503"><ele>176.5</ele><time>2026-04-12T08:31:05.999Z</time></trkpt><trkpt lat="46.20451280549368" lon="13.115392658545312"><ele>176.25</ele><time>2026-04-12T08:31:06.999Z</time></trkpt><trkpt lat="46.20458763854741" lon="13.11524856378089"><ele>176.0</ele><time>2026-04-12T08:31:07.999Z</time></trkpt><trkpt lat="46.20466269494998" lon="13.115104584687996"><ele>176.0</ele><time>2026-04-12T08:31:08.999Z</time></trkpt><trkpt lat="46.20473991825644" lon="13.114961159063482"><ele>176.0</ele><time>2026-04-12T08:31:09.999Z</time></trkpt><trkpt lat="46.20481598985224" lon="13.114816403376537"><ele>176.0</ele><time>2026-04-12T08:31:10.999Z</time></trkpt><trkpt lat="46.20488859442921" lon="13.114676754622087"><ele>176.0</ele><time>2026-04-12T08:31:11.999Z</time></trkpt><trkpt lat="46.20496168279244" lon="13.114534798177083"><ele>176.0</ele><time>2026-04-12T08:31:12.999Z</time></trkpt><trkpt lat="46.20503216280572" lon="13.11439283354344"><ele>176.0</ele><time>2026-04-12T08:31:13.999Z</time></trkpt><trkpt lat="46.20510412305441" lon="13.1142506388099"><ele>176.0</ele><time>2026-04-12T08:31:14.999Z</time></trkpt><trkpt lat="46.205175542610114" lon="13.114112360063304"><ele>176.0</ele><time>2026-04-12T08:31:15.999Z</time></trkpt><trkpt lat="46.20524754181837" lon="13.113972007145765"><ele>176.0</ele><time>2026-04-12T08:31:16.999Z</time></trkpt><trkpt lat="46.20531860626701" lon="13.113835526324022"><ele>176.0</ele><time>2026-04-12T08:31:17.999Z</time></trkpt><trkpt lat="46.20539108257447" lon="13.11369650284586"><ele>176.0</ele><time>2026-04-12T08:31:18.999Z</time></trkpt><trkpt lat="46.205467476734235" lon="13.113547854737032"><ele>176.0</ele><time>2026-04-12T08:31:19.999Z</time></trkpt><trkpt lat="46.20554725664479" lon="13.113397187543267"><ele>176.0</ele><time>2026-04-12T08:31:20.999Z</time></trkpt><trkpt lat="46.20562543447352" lon="13.113247146731748"><ele>176.0</ele><time>2026-04-12T08:31:21.999Z</time></trkpt><trkpt lat="46.20570291344844" lon="13.11310165199574"><ele>176.0</ele><time>2026-04-12T08:31:22.999Z</time></trkpt><trkpt lat="46.205779962345055" lon="13.112956370629865"><ele>176.0</ele><time>2026-04-12T08:31:23.999Z</time></trkpt><trkpt lat="46.20585485178602" lon="13.112813848079195"><ele>176.75</ele><time>2026-04-12T08:31:24.999Z</time></trkpt><trkpt lat="46.20593063134688" lon="13.112673616196103"><ele>177.5</ele><time>2026-04-12T08:31:25.999Z</time></trkpt><trkpt lat="46.2060042368168" lon="13.112534927852021"><ele>178.25</ele><time>2026-04-12T08:31:26.999Z</time></trkpt><trkpt lat="46.2060774476181" lon="13.112395019118626"><ele>179.0</ele><time>2026-04-12T08:31:27.999Z</time></trkpt><trkpt lat="46.206148198442506" lon="13.112259832851997"><ele>179.0</ele><time>2026-04-12T08:31:28.999Z</time></trkpt><trkpt lat="46.206216442643175" lon="13.112134257531336"><ele>179.0</ele><time>2026-04-12T08:31:29.999Z</time></trkpt><trkpt lat="46.20628421385888" lon="13.112002861982475"><ele>179.0</ele><time>2026-04-12T08:31:30.999Z</time></trkpt><trkpt lat="46.20635662663335" lon="13.111865339129402"><ele>179.0</ele><time>2026-04-12T08:31:31.999Z</time></trkpt><trkpt lat="46.20643217562978" lon="13.111724181307403"><ele>179.0</ele><time>2026-04-12T08:31:32.999Z</time></trkpt><trkpt lat="46.20650724298269" lon="13.11158160662402"><ele>179.0</ele><time>2026-04-12T08:31:34Z</time></trkpt><trkpt lat="46.20657891664929" lon="13.111435433085285"><ele>179.0</ele><time>2026-04-12T08:31:35Z</time></trkpt><trkpt lat="46.20665189245991" lon="13.111288772288564"><ele>179.0</ele><time>2026-04-12T08:31:36Z</time></trkpt><trkpt lat="46.20672188283053" lon="13.11113607136056"><ele>178.75</ele><time>2026-04-12T08:31:37Z</time></trkpt><trkpt lat="46.20679485970132" lon="13.1109750553009"><ele>178.5</ele><time>2026-04-12T08:31:38Z</time></trkpt><trkpt lat="46.206871372545464" lon="13.110799309815677"><ele>178.25</ele><time>2026-04-12T08:31:39Z</time></trkpt><trkpt lat="46.2069499993714" lon="13.11061422592763"><ele>178.0</ele><time>2026-04-12T08:31:40Z</time></trkpt><trkpt lat="46.207026867104744" lon="13.110419866449002"><ele>177.33333333333334</ele><time>2026-04-12T08:31:41Z</time></trkpt><trkpt lat="46.20710795785095" lon="13.110226399460382"><ele>176.66666666666666</ele><time>2026-04-12T08:31:42Z</time></trkpt><trkpt lat="46.20717496025548" lon="13.11002293482003"><ele>176.0</ele><time>2026-04-12T08:31:43Z</time></trkpt><trkpt lat="46.20724311351812" lon="13.109825670087023"><ele>175.75</ele><time>2026-04-12T08:31:44Z</time></trkpt><trkpt lat="46.20730332737989" lon="13.109641339266553"><ele>175.5</ele><time>2026-04-12T08:31:45Z</time></trkpt><trkpt lat="46.20736143084592" lon="13.109469238242996"><ele>175.25</ele><time>2026-04-12T08:31:46Z</time></trkpt><trkpt lat="46.20741648629657" lon="13.109307115130848"><ele>175.0</ele><time>2026-04-12T08:31:47Z</time></trkpt><trkpt lat="46.207472168061166" lon="13.109147636449995"><ele>175.4</ele><time>2026-04-12T08:31:48Z</time></trkpt><trkpt lat="46.20752649578127" lon="13.108986081847064"><ele>175.8</ele><time>2026-04-12T08:31:49Z</time></trkpt><trkpt lat="46.20757866509229" lon="13.108836373012696"><ele>176.2</ele><time>2026-04-12T08:31:50Z</time></trkpt><trkpt lat="46.207622074281176" lon="13.108695114117046"><ele>176.6</ele><time>2026-04-12T08:31:51Z</time></trkpt><trkpt lat="46.20766621020119" lon="13.108569808996668"><ele>177.0</ele><time>2026-04-12T08:31:52Z</time></trkpt><trkpt lat="46.20770478768646" lon="13.108455806521837"><ele>177.0</ele><time>2026-04-12T08:31:53Z</time></trkpt><trkpt lat="46.20773018977531" lon="13.10836573276715"><ele>177.0</ele><time>2026-04-12T08:31:54Z</time></trkpt><trkpt lat="46.20777607680422" lon="13.108229904809429"><ele>177.0</ele><time>2026-04-12T08:31:56Z</time></trkpt><trkpt lat="46.20781290640391" lon="13.10812859254425"><ele>177.0</ele><time>2026-04-12T08:31:57.999Z</time></trkpt><trkpt lat="46.207840193041044" lon="13.108042840430747"><ele>177.0</ele><time>2026-04-12T08:31:59.999Z</time></trkpt><trkpt lat="46.20787139859197" lon="13.107952478248759"><ele>177.0</ele><time>2026-04-12T08:32:02.999Z</time></trkpt><trkpt lat="46.207901669986015" lon="13.107872339720906"><ele>177.0</ele><time>2026-04-12T08:32:19.999Z</time></trkpt><trkpt lat="46.20794897123459" lon="13.107735490408585"><ele>175.75</ele><time>2026-04-12T08:32:21.999Z</time></trkpt><trkpt lat="46.20798413910352" lon="13.107625061585798"><ele>174.5</ele><time>2026-04-12T08:32:22.999Z</time></trkpt><trkpt lat="46.20803491556806" lon="13.107477074301414"><ele>173.25</ele><time>2026-04-12T08:32:23.999Z</time></trkpt><trkpt lat="46.20811074475443" lon="13.107259747234599"><ele>172.0</ele><time>2026-04-12T08:32:24.999Z</time></trkpt><trkpt lat="46.20820862030017" lon="13.106965414777399"><ele>171.5</ele><time>2026-04-12T08:32:25.999Z</time></trkpt><trkpt lat="46.208331819692695" lon="13.10664215084025"><ele>171.0</ele><time>2026-04-12T08:32:26.999Z</time></trkpt><trkpt lat="46.20843189078728" lon="13.10631240105507"><ele>168.5</ele><time>2026-04-12T08:32:27.999Z</time></trkpt><trkpt lat="46.20853678917253" lon="13.106010284353246"><ele>166.0</ele><time>2026-04-12T08:32:28.999Z</time></trkpt><trkpt lat="46.20863781452308" lon="13.105715706379339"><ele>164.33333333333334</ele><time>2026-04-12T08:32:29.999Z</time></trkpt><trkpt lat="46.20873710521426" lon="13.105434724848061"><ele>162.66666666666666</ele><time>2026-04-12T08:32:30.999Z</time></trkpt><trkpt lat="46.20882942452519" lon="13.105169153747012"><ele>161.0</ele><time>2026-04-12T08:32:31.999Z</time></trkpt><trkpt lat="46.20891526440766" lon="13.104933976205864"><ele>162.0</ele><time>2026-04-12T08:32:32.999Z</time></trkpt><trkpt lat="46.20899369839544" lon="13.104726512441776"><ele>163.0</ele><time>2026-04-12T08:32:33.999Z</time></trkpt><trkpt lat="46.20907424810653" lon="13.104533899464162"><ele>164.0</ele><time>2026-04-12T08:32:34.999Z</time></trkpt><trkpt lat="46.20915807697952" lon="13.104341885018732"><ele>164.0</ele><time>2026-04-12T08:32:35.999Z</time></trkpt><trkpt lat="46.20924440053688" lon="13.10414976646528"><ele>164.0</ele><time>2026-04-12T08:32:36.999Z</time></trkpt><trkpt lat="46.20932887944616" lon="13.103961352782136"><ele>164.0</ele><time>2026-04-12T08:32:37.999Z</time></trkpt><trkpt lat="46.20941291305015" lon="13.103775247750313"><ele>163.5</ele><time>2026-04-12T08:32:38.999Z</time></trkpt><trkpt lat="46.20948176662061" lon="13.103621473602534"><ele>163.0</ele><time>2026-04-12T08:32:39.999Z</time></trkpt><trkpt lat="46.209547351783144" lon="13.103474516517048"><ele>162.5</ele><time>2026-04-12T08:32:40.999Z</time></trkpt><trkpt lat="46.20961189252297" lon="13.103327359461757"><ele>162.0</ele><time>2026-04-12T08:32:41.999Z</time></trkpt><trkpt lat="46.209674252328625" lon="13.103191149553854"><ele>162.0</ele><time>2026-04-12T08:32:42.999Z</time></trkpt><trkpt lat="46.209730813003326" lon="13.103066681944929"><ele>162.0</ele><time>2026-04-12T08:32:43.999Z</time></trkpt><trkpt lat="46.209782221465886" lon="13.102952223922014"><ele>162.0</ele><time>2026-04-12T08:32:44.999Z</time></trkpt><trkpt lat="46.20982248211628" lon="13.102861204433564"><ele>162.0</ele><time>2026-04-12T08:32:45.999Z</time></trkpt><trkpt lat="46.209884840521404" lon="13.102731342307274"><ele>162.0</ele><time>2026-04-12T08:32:47.999Z</time></trkpt><trkpt lat="46.20994888960967" lon="13.10265655941108"><ele>162.28571428571428</ele><time>2026-04-12T08:32:49.999Z</time></trkpt><trkpt lat="46.21002092781594" lon="13.102603375948641"><ele>162.57142857142856</ele><time>2026-04-12T08:32:51.999Z</time></trkpt><trkpt lat="46.210075434537316" lon="13.10254185850353"><ele>162.85714285714283</ele><time>2026-04-12T08:32:53.999Z</time></trkpt><trkpt lat="46.210151219485574" lon="13.102491706580286"><ele>163.14285714285714</ele><time>2026-04-12T08:32:56.999Z</time></trkpt><trkpt lat="46.21021229102396" lon="13.102455302134258"><ele>163.42857142857142</ele><time>2026-04-12T08:34:28.999Z</time></trkpt><trkpt lat="46.21016430097877" lon="13.1025308589796"><ele>163.7142857142857</ele><time>2026-04-12T08:34:36.999Z</time></trkpt><trkpt lat="46.21010573462946" lon="13.102582612188009"><ele>164.0</ele><time>2026-04-12T08:35:17.999Z</time></trkpt><trkpt lat="46.21014393580311" lon="13.102506303162428"><ele>164.0</ele><time>2026-04-12T08:35:36.999Z</time></trkpt><trkpt lat="46.210186212945466" lon="13.102432121561337"><ele>164.0</ele><time>2026-04-12T08:35:45Z</time></trkpt><trkpt lat="46.210167190026674" lon="13.102313876244121"><ele>164.0</ele><time>2026-04-12T08:37:18.999Z</time></trkpt><trkpt lat="46.210158359882136" lon="13.102218137573951"><ele>164.0</ele><time>2026-04-12T08:37:20.999Z</time></trkpt><trkpt lat="46.21015187014168" lon="13.10210960981647"><ele>164.0</ele><time>2026-04-12T08:37:22.999Z</time></trkpt><trkpt lat="46.21020577474589" lon="13.101968803729328"><ele>164.0</ele><time>2026-04-12T08:37:24.999Z</time></trkpt><trkpt lat="46.21024311487903" lon="13.101890641541726"><ele>163.5</ele><time>2026-04-12T08:37:25.999Z</time></trkpt><trkpt lat="46.210283473405184" lon="13.10179868153042"><ele>163.0</ele><time>2026-04-12T08:37:26.999Z</time></trkpt><trkpt lat="46.21033934207623" lon="13.101678831502321"><ele>162.5</ele><time>2026-04-12T08:37:27.999Z</time></trkpt><trkpt lat="46.21041333747018" lon="13.101520230471701"><ele>162.0</ele><time>2026-04-12T08:37:28.999Z</time></trkpt><trkpt lat="46.210498638575075" lon="13.101329778674897"><ele>162.0</ele><time>2026-04-12T08:37:29.999Z</time></trkpt><trkpt lat="46.21059177895037" lon="13.101122241609671"><ele>162.0</ele><time>2026-04-12T08:37:30.999Z</time></trkpt><trkpt lat="46.21068653233901" lon="13.100910061280915"><ele>162.0</ele><time>2026-04-12T08:37:31.999Z</time></trkpt><trkpt lat="46.210782921443744" lon="13.100693233581051"><ele>162.66666666666666</ele><time>2026-04-12T08:37:32.999Z</time></trkpt><trkpt lat="46.21088632448524" lon="13.100459115042797"><ele>163.33333333333331</ele><time>2026-04-12T08:37:33.999Z</time></trkpt><trkpt lat="46.21100146684259" lon="13.100206221991396"><ele>164.0</ele><time>2026-04-12T08:37:34.999Z</time></trkpt><trkpt lat="46.211128048817514" lon="13.099922513322099"><ele>165.0</ele><time>2026-04-12T08:37:35.999Z</time></trkpt><trkpt lat="46.211256372782955" lon="13.09963330652136"><ele>166.0</ele><time>2026-04-12T08:37:36.999Z</time></trkpt><trkpt lat="46.2113818212241" lon="13.099354660088107"><ele>165.33333333333334</ele><time>2026-04-12T08:37:37.999Z</time></trkpt><trkpt lat="46.2115055562627" lon="13.099085446036005"><ele>164.66666666666666</ele><time>2026-04-12T08:37:38.999Z</time></trkpt><trkpt lat="46.211623318657274" lon="13.098822133980638"><ele>164.0</ele><time>2026-04-12T08:37:39.999Z</time></trkpt><trkpt lat="46.21173946332338" lon="13.098565777408789"><ele>162.66666666666666</ele><time>2026-04-12T08:37:40.999Z</time></trkpt><trkpt lat="46.211851336830556" lon="13.09831698941233"><ele>161.33333333333334</ele><time>2026-04-12T08:37:41.999Z</time></trkpt><trkpt lat="46.21195362191432" lon="13.09808563882383"><ele>160.0</ele><time>2026-04-12T08:37:42.999Z</time></trkpt><trkpt lat="46.21204438467892" lon="13.09787594075556"><ele>160.0</ele><time>2026-04-12T08:37:43.999Z</time></trkpt><trkpt lat="46.212129345308426" lon="13.097674893318393"><ele>160.0</ele><time>2026-04-12T08:37:44.999Z</time></trkpt><trkpt lat="46.212212688058784" lon="13.097484999145719"><ele>160.0</ele><time>2026-04-12T08:37:45.999Z</time></trkpt><trkpt lat="46.21229103823645" lon="13.097307539655272"><ele>161.0</ele><time>2026-04-12T08:37:46.999Z</time></trkpt><trkpt lat="46.2123644001296" lon="13.097143439368745"><ele>162.0</ele><time>2026-04-12T08:37:47.999Z</time></trkpt><trkpt lat="46.21243739419844" lon="13.096976157160407"><ele>163.0</ele><time>2026-04-12T08:37:48.999Z</time></trkpt><trkpt lat="46.212511647323176" lon="13.096811344395526"><ele>164.0</ele><time>2026-04-12T08:37:49.999Z</time></trkpt><trkpt lat="46.21259308854824" lon="13.096627598022204"><ele>163.33333333333331</ele><time>2026-04-12T08:37:51Z</time></trkpt><trkpt lat="46.212683813860345" lon="13.09642818301692"><ele>162.66666666666666</ele><time>2026-04-12T08:37:52Z</time></trkpt><trkpt lat="46.212777369362634" lon="13.096217629056202"><ele>162.0</ele><time>2026-04-12T08:37:53Z</time></trkpt><trkpt lat="46.21287197298159" lon="13.096004637453168"><ele>162.0</ele><time>2026-04-12T08:37:54Z</time></trkpt><trkpt lat="46.21296571945887" lon="13.095796654661791"><ele>162.0</ele><time>2026-04-12T08:37:55Z</time></trkpt><trkpt lat="46.213057092062286" lon="13.09559361535246"><ele>162.0</ele><time>2026-04-12T08:37:56Z</time></trkpt><trkpt lat="46.21314970167897" lon="13.095392340004793"><ele>163.33333333333334</ele><time>2026-04-12T08:37:57Z</time></trkpt><trkpt lat="46.21324104610209" lon="13.09518962825278"><ele>164.66666666666669</ele><time>2026-04-12T08:37:58Z</time></trkpt><trkpt lat="46.213329699221276" lon="13.094979152714274"><ele>166.0</ele><time>2026-04-12T08:37:59Z</time></trkpt><trkpt lat="46.21342071510346" lon="13.094770296614113"><ele>166.33333333333334</ele><time>2026-04-12T08:38:00Z</time></trkpt><trkpt lat="46.21351209652711" lon="13.094563869923352"><ele>166.66666666666666</ele><time>2026-04-12T08:38:01Z</time></trkpt><trkpt lat="46.21360476115386" lon="13.094359482450383"><ele>167.0</ele><time>2026-04-12T08:38:02Z</time></trkpt><trkpt lat="46.21369772196799" lon="13.094155266902627"><ele>165.66666666666666</ele><time>2026-04-12T08:38:03Z</time></trkpt><trkpt lat="46.213787083239154" lon="13.093944413019308"><ele>164.33333333333334</ele><time>2026-04-12T08:38:04Z</time></trkpt><trkpt lat="46.21387705287535" lon="13.093732543662306"><ele>163.0</ele><time>2026-04-12T08:38:05Z</time></trkpt><trkpt lat="46.2139714575038" lon="13.093521139456419"><ele>164.33333333333334</ele><time>2026-04-12T08:38:06Z</time></trkpt><trkpt lat="46.214067500064246" lon="13.093308042892502"><ele>165.66666666666666</ele><time>2026-04-12T08:38:07Z</time></trkpt><trkpt lat="46.21416374398299" lon="13.093094473007387"><ele>167.0</ele><time>2026-04-12T08:38:08Z</time></trkpt><trkpt lat="46.21426032496429" lon="13.092878557018102"><ele>167.33333333333331</ele><time>2026-04-12T08:38:09Z</time></trkpt><trkpt lat="46.214355594580304" lon="13.09266120258828"><ele>167.66666666666666</ele><time>2026-04-12T08:38:10Z</time></trkpt><trkpt lat="46.214452755919154" lon="13.092440310789017"><ele>168.0</ele><time>2026-04-12T08:38:11Z</time></trkpt><trkpt lat="46.21455393589199" lon="13.09221625987798"><ele>167.0</ele><time>2026-04-12T08:38:12Z</time></trkpt><trkpt lat="46.214656043677614" lon="13.09198761172696"><ele>166.0</ele><time>2026-04-12T08:38:13Z</time></trkpt><trkpt lat="46.21475786707331" lon="13.091759986204082"><ele>165.0</ele><time>2026-04-12T08:38:14Z</time></trkpt><trkpt lat="46.21486113715984" lon="13.091529808255451"><ele>164.66666666666666</ele><time>2026-04-12T08:38:15Z</time></trkpt><trkpt lat="46.21496683095885" lon="13.091297209217378"><ele>164.33333333333331</ele><time>2026-04-12T08:38:16Z</time></trkpt><trkpt lat="46.21507402238067" lon="13.091062062669009"><ele>164.0</ele><time>2026-04-12T08:38:16.999Z</time></trkpt><trkpt lat="46.21518184643813" lon="13.090823023861699"><ele>163.33333333333331</ele><time>2026-04-12T08:38:17.999Z</time></trkpt><trkpt lat="46.21528840198597" lon="13.090580766099015"><ele>162.66666666666666</ele><time>2026-04-12T08:38:18.999Z</time></trkpt><trkpt lat="46.21539305605459" lon="13.090342993109367"><ele>162.0</ele><time>2026-04-12T08:38:19.999Z</time></trkpt><trkpt lat="46.215493054442696" lon="13.09011672192257"><ele>162.0</ele><time>2026-04-12T08:38:20.999Z</time></trkpt><trkpt lat="46.21558886270605" lon="13.089899425228658"><ele>162.0</ele><time>2026-04-12T08:38:21.999Z</time></trkpt><trkpt lat="46.21568129709566" lon="13.089691262679317"><ele>162.0</ele><time>2026-04-12T08:38:22.999Z</time></trkpt><trkpt lat="46.215770578735835" lon="13.089491756317418"><ele>162.0</ele><time>2026-04-12T08:38:23.999Z</time></trkpt><trkpt lat="46.21585732005395" lon="13.089294783443775"><ele>162.0</ele><time>2026-04-12T08:38:24.999Z</time></trkpt><trkpt lat="46.21594407705542" lon="13.089095810844443"><ele>162.0</ele><time>2026-04-12T08:38:25.999Z</time></trkpt><trkpt lat="46.216032317923805" lon="13.088896513437462"><ele>162.66666666666666</ele><time>2026-04-12T08:38:26.999Z</time></trkpt><trkpt lat="46.21612108454167" lon="13.088697838738737"><ele>163.33333333333331</ele><time>2026-04-12T08:38:27.999Z</time></trkpt><trkpt lat="46.216212816576885" lon="13.088496311125802"><ele>164.0</ele><time>2026-04-12T08:38:28.999Z</time></trkpt><trkpt lat="46.216307312177605" lon="13.088289454786754"><ele>163.66666666666666</ele><time>2026-04-12T08:38:29.999Z</time></trkpt><trkpt lat="46.216401716744194" lon="13.088079292283975"><ele>163.33333333333334</ele><time>2026-04-12T08:38:30.999Z</time></trkpt><trkpt lat="46.21649369406635" lon="13.087866646085585"><ele>163.0</ele><time>2026-04-12T08:38:31.999Z</time></trkpt><trkpt lat="46.216581238220606" lon="13.087665493568647"><ele>163.0</ele><time>2026-04-12T08:38:32.999Z</time></trkpt><trkpt lat="46.21665913045594" lon="13.087489151630475"><ele>163.0</ele><time>2026-04-12T08:38:33.999Z</time></trkpt><trkpt lat="46.21673282678609" lon="13.087348756733718"><ele>163.0</ele><time>2026-04-12T08:38:34.999Z</time></trkpt><trkpt lat="46.21681911232109" lon="13.087241616874888"><ele>163.0</ele><time>2026-04-12T08:38:35.999Z</time></trkpt><trkpt lat="46.216914954237595" lon="13.087161809319898"><ele>163.25</ele><time>2026-04-12T08:38:36.999Z</time></trkpt><trkpt lat="46.21702076157394" lon="13.087101450197506"><ele>163.5</ele><time>2026-04-12T08:38:37.999Z</time></trkpt><trkpt lat="46.217140015908534" lon="13.08708797308582"><ele>163.75</ele><time>2026-04-12T08:38:38.999Z</time></trkpt><trkpt lat="46.217282521621286" lon="13.087113963377087"><ele>164.0</ele><time>2026-04-12T08:38:39.999Z</time></trkpt><trkpt lat="46.2174262292446" lon="13.087075222789547"><ele>164.0</ele><time>2026-04-12T08:38:40.999Z</time></trkpt><trkpt lat="46.21758301775666" lon="13.087214700724699"><ele>164.0</ele><time>2026-04-12T08:38:41.999Z</time></trkpt><trkpt lat="46.21772985161225" lon="13.087281723758746"><ele>164.0</ele><time>2026-04-12T08:38:42.999Z</time></trkpt><trkpt lat="46.217876490896124" lon="13.087344407267494"><ele>164.0</ele><time>2026-04-12T08:38:43.999Z</time></trkpt><trkpt lat="46.21801765634503" lon="13.08740380137549"><ele>164.0</ele><time>2026-04-12T08:38:44.999Z</time></trkpt><trkpt lat="46.21815781322437" lon="13.087469205139273"><ele>164.0</ele><time>2026-04-12T08:38:45.999Z</time></trkpt><trkpt lat="46.21829747055758" lon="13.087528586132292"><ele>164.0</ele><time>2026-04-12T08:38:46.999Z</time></trkpt><trkpt lat="46.21843857361284" lon="13.087589379139777"><ele>164.33333333333331</ele><time>2026-04-12T08:38:47.999Z</time></trkpt><trkpt lat="46.218579142133386" lon="13.087650161528034"><ele>164.66666666666666</ele><time>2026-04-12T08:38:48.999Z</time></trkpt><trkpt lat="46.21872310193334" lon="13.087707817596174"><ele>165.0</ele><time>2026-04-12T08:38:49.999Z</time></trkpt><trkpt lat="46.2188721496922" lon="13.087774813992901"><ele>164.0</ele><time>2026-04-12T08:38:50.999Z</time></trkpt><trkpt lat="46.21902518870136" lon="13.087848513544197"><ele>163.0</ele><time>2026-04-12T08:38:51.999Z</time></trkpt><trkpt lat="46.21918199769597" lon="13.087922997291681"><ele>162.0</ele><time>2026-04-12T08:38:52.999Z</time></trkpt><trkpt lat="46.21933946986829" lon="13.087993072837653"><ele>162.0</ele><time>2026-04-12T08:38:53.999Z</time></trkpt><trkpt lat="46.21949798880844" lon="13.088059030922496"><ele>162.0</ele><time>2026-04-12T08:38:54.999Z</time></trkpt><trkpt lat="46.219661867928615" lon="13.088129361179544"><ele>162.0</ele><time>2026-04-12T08:38:55.999Z</time></trkpt><trkpt lat="46.21982410358284" lon="13.08820499890548"><ele>162.66666666666666</ele><time>2026-04-12T08:38:56.999Z</time></trkpt><trkpt lat="46.219998657593386" lon="13.088284879112313"><ele>163.33333333333331</ele><time>2026-04-12T08:38:57.999Z</time></trkpt><trkpt lat="46.22019225078004" lon="13.088365043757015"><ele>164.0</ele><time>2026-04-12T08:38:58.999Z</time></trkpt><trkpt lat="46.22038982640959" lon="13.088447559491913"><ele>164.0</ele><time>2026-04-12T08:38:59.999Z</time></trkpt><trkpt lat="46.220596840142335" lon="13.088531063158877"><ele>164.0</ele><time>2026-04-12T08:39:00.999Z</time></trkpt><trkpt lat="46.22082358505478" lon="13.088618721940023"><ele>164.5</ele><time>2026-04-12T08:39:01.999Z</time></trkpt><trkpt lat="46.221067365199346" lon="13.08870316905643"><ele>165.0</ele><time>2026-04-12T08:39:02.999Z</time></trkpt><trkpt lat="46.221313855309674" lon="13.08878308294873"><ele>163.5</ele><time>2026-04-12T08:39:03.999Z</time></trkpt><trkpt lat="46.22156600150007" lon="13.088860325884887"><ele>162.0</ele><time>2026-04-12T08:39:04.999Z</time></trkpt><trkpt lat="46.221817886957666" lon="13.088931738043279"><ele>162.0</ele><time>2026-04-12T08:39:05.999Z</time></trkpt><trkpt lat="46.222069069253926" lon="13.08899496094031"><ele>162.0</ele><time>2026-04-12T08:39:06.999Z</time></trkpt><trkpt lat="46.22231520311189" lon="13.089053579670844"><ele>164.0</ele><time>2026-04-12T08:39:07.999Z</time></trkpt><trkpt lat="46.222556635765415" lon="13.089111981131408"><ele>166.0</ele><time>2026-04-12T08:39:08.999Z</time></trkpt><trkpt lat="46.22279585147305" lon="13.089163813002893"><ele>166.0</ele><time>2026-04-12T08:39:09.999Z</time></trkpt><trkpt lat="46.22303723027826" lon="13.08921160978158"><ele>166.0</ele><time>2026-04-12T08:39:10.999Z</time></trkpt><trkpt lat="46.22328107476002" lon="13.08925821506702"><ele>165.0</ele><time>2026-04-12T08:39:11.999Z</time></trkpt><trkpt lat="46.223527860124754" lon="13.089305980824097"><ele>164.0</ele><time>2026-04-12T08:39:12.999Z</time></trkpt><trkpt lat="46.22377691714518" lon="13.089355258640513"><ele>164.5</ele><time>2026-04-12T08:39:13.999Z</time></trkpt><trkpt lat="46.22402329185473" lon="13.089400288951397"><ele>165.0</ele><time>2026-04-12T08:39:14.999Z</time></trkpt><trkpt lat="46.22426191685284" lon="13.089441660566374"><ele>165.0</ele><time>2026-04-12T08:39:15.999Z</time></trkpt><trkpt lat="46.22448619795134" lon="13.08948382327612"><ele>165.0</ele><time>2026-04-12T08:39:16.999Z</time></trkpt><trkpt lat="46.22469828519393" lon="13.089523513769725"><ele>165.0</ele><time>2026-04-12T08:39:17.999Z</time></trkpt><trkpt lat="46.224903778852905" lon="13.08955717371345"><ele>165.33333333333334</ele><time>2026-04-12T08:39:18.999Z</time></trkpt><trkpt lat="46.22510619298122" lon="13.089589767347071"><ele>165.66666666666669</ele><time>2026-04-12T08:39:19.999Z</time></trkpt><trkpt lat="46.22530631366114" lon="13.08962560801435"><ele>166.0</ele><time>2026-04-12T08:39:20.999Z</time></trkpt><trkpt lat="46.22550292820869" lon="13.089660564177215"><ele>165.33333333333334</ele><time>2026-04-12T08:39:21.999Z</time></trkpt><trkpt lat="46.225693777871435" lon="13.089693605751334"><ele>164.66666666666666</ele><time>2026-04-12T08:39:22.999Z</time></trkpt><trkpt lat="46.22587475012278" lon="13.089729116104916"><ele>164.0</ele><time>2026-04-12T08:39:23.999Z</time></trkpt><trkpt lat="46.2260486712525" lon="13.089763382725161"><ele>164.0</ele><time>2026-04-12T08:39:24.999Z</time></trkpt><trkpt lat="46.226215429643446" lon="13.089795062565507"><ele>164.0</ele><time>2026-04-12T08:39:25.999Z</time></trkpt><trkpt lat="46.22637744234571" lon="13.089832757615893"><ele>164.0</ele><time>2026-04-12T08:39:26.999Z</time></trkpt><trkpt lat="46.22654261437251" lon="13.089873520864911"><ele>164.33333333333331</ele><time>2026-04-12T08:39:27.999Z</time></trkpt><trkpt lat="46.22671233627832" lon="13.08991685331211"><ele>164.66666666666666</ele><time>2026-04-12T08:39:28.999Z</time></trkpt><trkpt lat="46.226881521689066" lon="13.089977949950184"><ele>165.0</ele><time>2026-04-12T08:39:29.999Z</time></trkpt><trkpt lat="46.22704800334571" lon="13.09004398688264"><ele>165.0</ele><time>2026-04-12T08:39:30.999Z</time></trkpt><trkpt lat="46.22720979398109" lon="13.090106884680312"><ele>165.0</ele><time>2026-04-12T08:39:31.999Z</time></trkpt><trkpt lat="46.22737086891534" lon="13.090169447299173"><ele>165.0</ele><time>2026-04-12T08:39:32.999Z</time></trkpt><trkpt lat="46.227531979815424" lon="13.090231987048474"><ele>165.33333333333334</ele><time>2026-04-12T08:39:33.999Z</time></trkpt><trkpt lat="46.22769067750711" lon="13.09029564723589"><ele>165.66666666666669</ele><time>2026-04-12T08:39:34.999Z</time></trkpt><trkpt lat="46.22785317561653" lon="13.090357433541415"><ele>166.0</ele><time>2026-04-12T08:39:35.999Z</time></trkpt><trkpt lat="46.22801761062587" lon="13.090419979593053"><ele>167.0</ele><time>2026-04-12T08:39:36.999Z</time></trkpt><trkpt lat="46.228182374178964" lon="13.0904856322155"><ele>168.0</ele><time>2026-04-12T08:39:37.999Z</time></trkpt><trkpt lat="46.22835144576038" lon="13.09055088878277"><ele>169.0</ele><time>2026-04-12T08:39:38.999Z</time></trkpt><trkpt lat="46.228522985842616" lon="13.090616766777643"><ele>169.0</ele><time>2026-04-12T08:39:39.999Z</time></trkpt><trkpt lat="46.22869607232226" lon="13.090687047752153"><ele>169.0</ele><time>2026-04-12T08:39:40.999Z</time></trkpt><trkpt lat="46.228872646392844" lon="13.090757300386716"><ele>169.0</ele><time>2026-04-12T08:39:41.999Z</time></trkpt><trkpt lat="46.22904925498409" lon="13.090825014544938"><ele>168.66666666666669</ele><time>2026-04-12T08:39:42.999Z</time></trkpt><trkpt lat="46.22922298327139" lon="13.090890991729287"><ele>168.33333333333334</ele><time>2026-04-12T08:39:43.999Z</time></trkpt><trkpt lat="46.229389896238025" lon="13.0909516962142"><ele>168.0</ele><time>2026-04-12T08:39:44.999Z</time></trkpt><trkpt lat="46.229551016450266" lon="13.091004819179927"><ele>168.0</ele><time>2026-04-12T08:39:45.999Z</time></trkpt><trkpt lat="46.22971480708853" lon="13.091053193881407"><ele>168.0</ele><time>2026-04-12T08:39:46.999Z</time></trkpt><trkpt lat="46.22988507863631" lon="13.091100403975243"><ele>168.0</ele><time>2026-04-12T08:39:47.999Z</time></trkpt><trkpt lat="46.230055354797635" lon="13.091144968547775"><ele>168.0</ele><time>2026-04-12T08:39:48.999Z</time></trkpt><trkpt lat="46.23022744572583" lon="13.091189381200008"><ele>168.0</ele><time>2026-04-12T08:39:49.999Z</time></trkpt><trkpt lat="46.23039959110324" lon="13.091232716359595"><ele>168.0</ele><time>2026-04-12T08:39:50.999Z</time></trkpt><trkpt lat="46.230572220725904" lon="13.091278444158878"><ele>167.66666666666666</ele><time>2026-04-12T08:39:51.999Z</time></trkpt><trkpt lat="46.2307492610512" lon="13.09132290229597"><ele>167.33333333333331</ele><time>2026-04-12T08:39:52.999Z</time></trkpt><trkpt lat="46.23092679730784" lon="13.0913704337121"><ele>167.0</ele><time>2026-04-12T08:39:53.999Z</time></trkpt><trkpt lat="46.23110449302268" lon="13.091415918796272"><ele>167.0</ele><time>2026-04-12T08:39:54.999Z</time></trkpt><trkpt lat="46.23128210726578" lon="13.091460029017663"><ele>167.0</ele><time>2026-04-12T08:39:55.999Z</time></trkpt><trkpt lat="46.23146208848585" lon="13.091504976829583"><ele>167.0</ele><time>2026-04-12T08:39:57Z</time></trkpt><trkpt lat="46.23163818335707" lon="13.09155016240812"><ele>167.33333333333331</ele><time>2026-04-12T08:39:58Z</time></trkpt><trkpt lat="46.23181419842488" lon="13.091597531320348"><ele>167.66666666666666</ele><time>2026-04-12T08:39:59Z</time></trkpt><trkpt lat="46.231992805043554" lon="13.09164453011057"><ele>168.0</ele><time>2026-04-12T08:40:00Z</time></trkpt><trkpt lat="46.232176712713276" lon="13.091690905250932"><ele>169.33333333333334</ele><time>2026-04-12T08:40:01Z</time></trkpt><trkpt lat="46.23236416496096" lon="13.091738673678254"><ele>170.66666666666669</ele><time>2026-04-12T08:40:02Z</time></trkpt><trkpt lat="46.23255738000822" lon="13.0917883283953"><ele>172.0</ele><time>2026-04-12T08:40:03Z</time></trkpt><trkpt lat="46.23275246262097" lon="13.091837450163485"><ele>172.0</ele><time>2026-04-12T08:40:04Z</time></trkpt><trkpt lat="46.23295167318108" lon="13.091885654015735"><ele>172.0</ele><time>2026-04-12T08:40:05Z</time></trkpt><trkpt lat="46.23314984962071" lon="13.091935473171517"><ele>172.0</ele><time>2026-04-12T08:40:06Z</time></trkpt><trkpt lat="46.23335054285708" lon="13.091987303415648"><ele>172.66666666666669</ele><time>2026-04-12T08:40:07Z</time></trkpt><trkpt lat="46.233555179614015" lon="13.092040275631835"><ele>173.33333333333334</ele><time>2026-04-12T08:40:08Z</time></trkpt><trkpt lat="46.23375956192846" lon="13.092093747635658"><ele>174.0</ele><time>2026-04-12T08:40:09Z</time></trkpt><trkpt lat="46.23396495955975" lon="13.092146810816589"><ele>172.33333333333334</ele><time>2026-04-12T08:40:10Z</time></trkpt><trkpt lat="46.23417054160971" lon="13.092200888036551"><ele>170.66666666666669</ele><time>2026-04-12T08:40:11Z</time></trkpt><trkpt lat="46.23437347017154" lon="13.092254827446947"><ele>169.0</ele><time>2026-04-12T08:40:12Z</time></trkpt><trkpt lat="46.23457862765698" lon="13.092305589942258"><ele>169.0</ele><time>2026-04-12T08:40:13Z</time></trkpt><trkpt lat="46.234781921185224" lon="13.09235800315011"><ele>169.0</ele><time>2026-04-12T08:40:14Z</time></trkpt><trkpt lat="46.23498597241482" lon="13.092411183509443"><ele>169.0</ele><time>2026-04-12T08:40:15Z</time></trkpt><trkpt lat="46.23518869466032" lon="13.092461282176528"><ele>169.0</ele><time>2026-04-12T08:40:16Z</time></trkpt><trkpt lat="46.23538792811422" lon="13.092513478245682"><ele>169.0</ele><time>2026-04-12T08:40:17Z</time></trkpt><trkpt lat="46.23558485473588" lon="13.092564853588271"><ele>169.0</ele><time>2026-04-12T08:40:18Z</time></trkpt><trkpt lat="46.23578636308036" lon="13.09261673991793"><ele>169.0</ele><time>2026-04-12T08:40:19Z</time></trkpt><trkpt lat="46.23599106441735" lon="13.092673732264673"><ele>169.0</ele><time>2026-04-12T08:40:19.999Z</time></trkpt><trkpt lat="46.236200238672325" lon="13.09272659958685"><ele>169.0</ele><time>2026-04-12T08:40:20.999Z</time></trkpt><trkpt lat="46.23641191250896" lon="13.0927835110173"><ele>169.66666666666669</ele><time>2026-04-12T08:40:21.999Z</time></trkpt><trkpt lat="46.23662521971985" lon="13.092840835844822"><ele>170.33333333333334</ele><time>2026-04-12T08:40:22.999Z</time></trkpt><trkpt lat="46.23684227763239" lon="13.092897315061942"><ele>171.0</ele><time>2026-04-12T08:40:23.999Z</time></trkpt><trkpt lat="46.23705464935228" lon="13.092950186732466"><ele>171.0</ele><time>2026-04-12T08:40:24.999Z</time></trkpt><trkpt lat="46.237267070403426" lon="13.093003343524009"><ele>171.0</ele><time>2026-04-12T08:40:25.999Z</time></trkpt><trkpt lat="46.23747603616905" lon="13.093055315328135"><ele>171.0</ele><time>2026-04-12T08:40:26.999Z</time></trkpt><trkpt lat="46.23768496988139" lon="13.093106784917707"><ele>171.33333333333334</ele><time>2026-04-12T08:40:27.999Z</time></trkpt><trkpt lat="46.23789577527116" lon="13.09316038964541"><ele>171.66666666666669</ele><time>2026-04-12T08:40:28.999Z</time></trkpt><trkpt lat="46.23810686975352" lon="13.093214995400142"><ele>172.0</ele><time>2026-04-12T08:40:29.999Z</time></trkpt><trkpt lat="46.23831662449069" lon="13.093270632451649"><ele>172.0</ele><time>2026-04-12T08:40:30.999Z</time></trkpt><trkpt lat="46.23852523916172" lon="13.093324330056747"><ele>172.0</ele><time>2026-04-12T08:40:31.999Z</time></trkpt><trkpt lat="46.238734547445354" lon="13.093377471618405"><ele>172.0</ele><time>2026-04-12T08:40:32.999Z</time></trkpt><trkpt lat="46.23894064697054" lon="13.093428317762768"><ele>173.0</ele><time>2026-04-12T08:40:33.999Z</time></trkpt><trkpt lat="46.23914456341146" lon="13.093481752236464"><ele>174.0</ele><time>2026-04-12T08:40:34.999Z</time></trkpt><trkpt lat="46.239346746443566" lon="13.093535096342096"><ele>175.0</ele><time>2026-04-12T08:40:35.999Z</time></trkpt><trkpt lat="46.239548949847354" lon="13.093587536513853"><ele>175.0</ele><time>2026-04-12T08:40:36.999Z</time></trkpt><trkpt lat="46.239751261102036" lon="13.093642506661192"><ele>175.0</ele><time>2026-04-12T08:40:37.999Z</time></trkpt><trkpt lat="46.23995522460911" lon="13.093696467968348"><ele>175.0</ele><time>2026-04-12T08:40:38.999Z</time></trkpt><trkpt lat="46.24015979750229" lon="13.093747343377498"><ele>174.66666666666669</ele><time>2026-04-12T08:40:39.999Z</time></trkpt><trkpt lat="46.24035873235056" lon="13.093794872336595"><ele>174.33333333333334</ele><time>2026-04-12T08:40:40.999Z</time></trkpt><trkpt lat="46.24055618738964" lon="13.093839756326553"><ele>174.0</ele><time>2026-04-12T08:40:41.999Z</time></trkpt><trkpt lat="46.240751037002454" lon="13.093879923737635"><ele>174.0</ele><time>2026-04-12T08:40:42.999Z</time></trkpt><trkpt lat="46.240945335758504" lon="13.093917825826347"><ele>174.0</ele><time>2026-04-12T08:40:43.999Z</time></trkpt><trkpt lat="46.241139385962434" lon="13.093952620935797"><ele>174.0</ele><time>2026-04-12T08:40:44.999Z</time></trkpt><trkpt lat="46.241332128505924" lon="13.093990838074529"><ele>174.66666666666666</ele><time>2026-04-12T08:40:45.999Z</time></trkpt><trkpt lat="46.24152331132016" lon="13.094028771859602"><ele>175.33333333333331</ele><time>2026-04-12T08:40:46.999Z</time></trkpt><trkpt lat="46.241706867484574" lon="13.09406480789268"><ele>176.0</ele><time>2026-04-12T08:40:47.999Z</time></trkpt><trkpt lat="46.24188321923377" lon="13.094097647922974"><ele>176.0</ele><time>2026-04-12T08:40:48.999Z</time></trkpt><trkpt lat="46.24205384267072" lon="13.09412983730318"><ele>176.0</ele><time>2026-04-12T08:40:49.999Z</time></trkpt><trkpt lat="46.242208187433356" lon="13.094160157556725"><ele>176.0</ele><time>2026-04-12T08:40:50.999Z</time></trkpt><trkpt lat="46.2423528030082" lon="13.09418688599429"><ele>175.75</ele><time>2026-04-12T08:40:51.999Z</time></trkpt><trkpt lat="46.24248980035397" lon="13.094212803009215"><ele>175.5</ele><time>2026-04-12T08:40:52.999Z</time></trkpt><trkpt lat="46.24261585685109" lon="13.094259230146015"><ele>175.25</ele><time>2026-04-12T08:40:53.999Z</time></trkpt><trkpt lat="46.24273455277931" lon="13.094284609219395"><ele>175.0</ele><time>2026-04-12T08:40:54.999Z</time></trkpt><trkpt lat="46.242841384564784" lon="13.094307451482187"><ele>175.0</ele><time>2026-04-12T08:40:55.999Z</time></trkpt><trkpt lat="46.24293741349627" lon="13.094329366907756"><ele>175.0</ele><time>2026-04-12T08:40:56.999Z</time></trkpt><trkpt lat="46.24302659736827" lon="13.094349522183947"><ele>175.0</ele><time>2026-04-12T08:40:57.999Z</time></trkpt><trkpt lat="46.24311961818747" lon="13.094370544621857"><ele>175.0</ele><time>2026-04-12T08:40:58.999Z</time></trkpt><trkpt lat="46.24318760380755" lon="13.094385909043393"><ele>175.0</ele><time>2026-04-12T08:40:59.999Z</time></trkpt><trkpt lat="46.24327373781307" lon="13.094200524953903"><ele>175.5</ele><time>2026-04-12T08:41:00.999Z</time></trkpt><trkpt lat="46.243342920805894" lon="13.094092541955671"><ele>176.0</ele><time>2026-04-12T08:41:01.999Z</time></trkpt><trkpt lat="46.24341487501983" lon="13.09396086541353"><ele>176.5</ele><time>2026-04-12T08:41:02.999Z</time></trkpt><trkpt lat="46.243494788291464" lon="13.093823424669447"><ele>177.0</ele><time>2026-04-12T08:41:03.999Z</time></trkpt><trkpt lat="46.243593828934486" lon="13.093683902548323"><ele>177.0</ele><time>2026-04-12T08:41:04.999Z</time></trkpt><trkpt lat="46.24369150097528" lon="13.093520496485077"><ele>177.0</ele><time>2026-04-12T08:41:05.999Z</time></trkpt><trkpt lat="46.24379752898751" lon="13.093341355094042"><ele>177.0</ele><time>2026-04-12T08:41:06.999Z</time></trkpt><trkpt lat="46.24390594004935" lon="13.093157461345752"><ele>177.0</ele><time>2026-04-12T08:41:07.999Z</time></trkpt><trkpt lat="46.244015589495184" lon="13.092971466675422"><ele>177.0</ele><time>2026-04-12T08:41:08.999Z</time></trkpt><trkpt lat="46.24413399024624" lon="13.092768937513245"><ele>177.0</ele><time>2026-04-12T08:41:09.999Z</time></trkpt><trkpt lat="46.244261190082725" lon="13.092557784428347"><ele>176.66666666666666</ele><time>2026-04-12T08:41:10.999Z</time></trkpt><trkpt lat="46.24438691661368" lon="13.092336783897343"><ele>176.33333333333331</ele><time>2026-04-12T08:41:11.999Z</time></trkpt><trkpt lat="46.24451002202394" lon="13.092125582081055"><ele>176.0</ele><time>2026-04-12T08:41:12.999Z</time></trkpt><trkpt lat="46.2446312999129" lon="13.091920568136548"><ele>176.0</ele><time>2026-04-12T08:41:13.999Z</time></trkpt><trkpt lat="46.244749919459196" lon="13.091724611190916"><ele>176.0</ele><time>2026-04-12T08:41:14.999Z</time></trkpt><trkpt lat="46.24485686393167" lon="13.091520620295533"><ele>176.0</ele><time>2026-04-12T08:41:15.999Z</time></trkpt><trkpt lat="46.2449901794611" lon="13.091328448004035"><ele>176.0</ele><time>2026-04-12T08:41:16.999Z</time></trkpt><trkpt lat="46.24514094591416" lon="13.09111981075251"><ele>176.0</ele><time>2026-04-12T08:41:17.999Z</time></trkpt><trkpt lat="46.245313194800744" lon="13.090888443285264"><ele>176.0</ele><time>2026-04-12T08:41:18.999Z</time></trkpt><trkpt lat="46.24549492286255" lon="13.090645323120706"><ele>175.0</ele><time>2026-04-12T08:41:19.999Z</time></trkpt><trkpt lat="46.245681319786584" lon="13.090394746402865"><ele>174.0</ele><time>2026-04-12T08:41:20.999Z</time></trkpt><trkpt lat="46.24586424185823" lon="13.090145418383948"><ele>175.0</ele><time>2026-04-12T08:41:21.999Z</time></trkpt><trkpt lat="46.24603756118065" lon="13.089911551317295"><ele>176.0</ele><time>2026-04-12T08:41:22.999Z</time></trkpt><trkpt lat="46.246194589110814" lon="13.089699597443818"><ele>176.0</ele><time>2026-04-12T08:41:23.999Z</time></trkpt><trkpt lat="46.24633906051983" lon="13.089503665280438"><ele>176.0</ele><time>2026-04-12T08:41:24.999Z</time></trkpt><trkpt lat="46.24647337380655" lon="13.08932168995381"><ele>176.0</ele><time>2026-04-12T08:41:25.999Z</time></trkpt><trkpt lat="46.24660142064805" lon="13.089147599520604"><ele>176.33333333333331</ele><time>2026-04-12T08:41:26.999Z</time></trkpt><trkpt lat="46.24671773860679" lon="13.08898576561649"><ele>176.66666666666666</ele><time>2026-04-12T08:41:27.999Z</time></trkpt><trkpt lat="46.246835788080986" lon="13.088843305003232"><ele>177.0</ele><time>2026-04-12T08:41:28.999Z</time></trkpt><trkpt lat="46.24697679734561" lon="13.088719785209948"><ele>177.0</ele><time>2026-04-12T08:41:29.999Z</time></trkpt><trkpt lat="46.24712914007839" lon="13.088616688872065"><ele>177.0</ele><time>2026-04-12T08:41:30.999Z</time></trkpt><trkpt lat="46.24731043248063" lon="13.08854565000472"><ele>177.0</ele><time>2026-04-12T08:41:31.999Z</time></trkpt><trkpt lat="46.247503685666835" lon="13.088484843009267"><ele>177.33333333333334</ele><time>2026-04-12T08:41:32.999Z</time></trkpt><trkpt lat="46.24769474664006" lon="13.08841836807255"><ele>177.66666666666669</ele><time>2026-04-12T08:41:33.999Z</time></trkpt><trkpt lat="46.24788010088556" lon="13.088355709846697"><ele>178.0</ele><time>2026-04-12T08:41:34.999Z</time></trkpt><trkpt lat="46.24805263645082" lon="13.088297043674803"><ele>177.33333333333334</ele><time>2026-04-12T08:41:35.999Z</time></trkpt><trkpt lat="46.24821613432053" lon="13.088243251238762"><ele>176.66666666666666</ele><time>2026-04-12T08:41:36.999Z</time></trkpt><trkpt lat="46.24836236639767" lon="13.088194167326032"><ele>176.0</ele><time>2026-04-12T08:41:37.999Z</time></trkpt><trkpt lat="46.24850795297022" lon="13.08814206324758"><ele>176.0</ele><time>2026-04-12T08:41:38.999Z</time></trkpt><trkpt lat="46.24866049548284" lon="13.088088401247287"><ele>176.0</ele><time>2026-04-12T08:41:39.999Z</time></trkpt><trkpt lat="46.24881438628272" lon="13.088036791505676"><ele>176.0</ele><time>2026-04-12T08:41:40.999Z</time></trkpt><trkpt lat="46.248969284569924" lon="13.087983124635171"><ele>178.33333333333331</ele><time>2026-04-12T08:41:41.999Z</time></trkpt><trkpt lat="46.24912529788631" lon="13.0879260930613"><ele>180.66666666666666</ele><time>2026-04-12T08:41:42.999Z</time></trkpt><trkpt lat="46.24928023869923" lon="13.087864476129715"><ele>183.0</ele><time>2026-04-12T08:41:43.999Z</time></trkpt><trkpt lat="46.24942889608417" lon="13.087806953411235"><ele>183.0</ele><time>2026-04-12T08:41:44.999Z</time></trkpt><trkpt lat="46.2495716204617" lon="13.087755937666362"><ele>183.0</ele><time>2026-04-12T08:41:45.999Z</time></trkpt><trkpt lat="46.24970353262061" lon="13.087708241305677"><ele>183.0</ele><time>2026-04-12T08:41:46.999Z</time></trkpt><trkpt lat="46.24982625918203" lon="13.087665227881581"><ele>183.0</ele><time>2026-04-12T08:41:47.999Z</time></trkpt><trkpt lat="46.249949051136106" lon="13.087621319111806"><ele>182.0</ele><time>2026-04-12T08:41:48.999Z</time></trkpt><trkpt lat="46.25007394049535" lon="13.087577189132276"><ele>181.0</ele><time>2026-04-12T08:41:49.999Z</time></trkpt><trkpt lat="46.25019808794365" lon="13.087531988663184"><ele>180.0</ele><time>2026-04-12T08:41:50.999Z</time></trkpt><trkpt lat="46.25031754673699" lon="13.087488536445127"><ele>179.0</ele><time>2026-04-12T08:41:51.999Z</time></trkpt><trkpt lat="46.250434598430296" lon="13.087446042995397"><ele>179.0</ele><time>2026-04-12T08:41:52.999Z</time></trkpt><trkpt lat="46.25055037661866" lon="13.087400148115098"><ele>179.0</ele><time>2026-04-12T08:41:53.999Z</time></trkpt><trkpt lat="46.25066990547421" lon="13.087356561261279"><ele>179.0</ele><time>2026-04-12T08:41:54.999Z</time></trkpt><trkpt lat="46.250786532433544" lon="13.087315538707047"><ele>179.0</ele><time>2026-04-12T08:41:55.999Z</time></trkpt><trkpt lat="46.25091365183694" lon="13.08726791130338"><ele>179.0</ele><time>2026-04-12T08:41:56.999Z</time></trkpt><trkpt lat="46.25104468667501" lon="13.087217792183221"><ele>179.0</ele><time>2026-04-12T08:41:57.999Z</time></trkpt><trkpt lat="46.25118043650113" lon="13.087168373872062"><ele>179.0</ele><time>2026-04-12T08:41:58.999Z</time></trkpt><trkpt lat="46.25131645201857" lon="13.087116456141647"><ele>179.0</ele><time>2026-04-12T08:41:59.999Z</time></trkpt><trkpt lat="46.251452778022404" lon="13.087067636284305"><ele>179.39999999999998</ele><time>2026-04-12T08:42:00.999Z</time></trkpt><trkpt lat="46.25158304926097" lon="13.087020632684734"><ele>179.8</ele><time>2026-04-12T08:42:01.999Z</time></trkpt><trkpt lat="46.25169309100107" lon="13.086980813208331"><ele>180.2</ele><time>2026-04-12T08:42:03Z</time></trkpt><trkpt lat="46.25179082413076" lon="13.08694602343938"><ele>180.60000000000002</ele><time>2026-04-12T08:42:04Z</time></trkpt><trkpt lat="46.25187374876169" lon="13.086914386203798"><ele>181.0</ele><time>2026-04-12T08:42:05Z</time></trkpt><trkpt lat="46.251948982871184" lon="13.086886667543181"><ele>181.0</ele><time>2026-04-12T08:42:06Z</time></trkpt><trkpt lat="46.252030936869915" lon="13.08685745521425"><ele>181.0</ele><time>2026-04-12T08:42:07Z</time></trkpt><trkpt lat="46.25212713440826" lon="13.086821339670532"><ele>181.0</ele><time>2026-04-12T08:42:08Z</time></trkpt><trkpt lat="46.2522411996839" lon="13.086778717457747"><ele>181.0</ele><time>2026-04-12T08:42:09Z</time></trkpt><trkpt lat="46.25237344449438" lon="13.08673322415506"><ele>181.0</ele><time>2026-04-12T08:42:10Z</time></trkpt><trkpt lat="46.25252028579496" lon="13.086681413819662"><ele>181.33333333333334</ele><time>2026-04-12T08:42:11Z</time></trkpt><trkpt lat="46.252676179177996" lon="13.086628830528012"><ele>181.66666666666666</ele><time>2026-04-12T08:42:12Z</time></trkpt><trkpt lat="46.252823014089685" lon="13.086575202927392"><ele>182.0</ele><time>2026-04-12T08:42:13Z</time></trkpt><trkpt lat="46.25296834890974" lon="13.086519347065751"><ele>182.0</ele><time>2026-04-12T08:42:14Z</time></trkpt><trkpt lat="46.25311407942562" lon="13.08647189224767"><ele>182.0</ele><time>2026-04-12T08:42:15Z</time></trkpt><trkpt lat="46.253260285823956" lon="13.086428659353022"><ele>182.0</ele><time>2026-04-12T08:42:16Z</time></trkpt><trkpt lat="46.2534066831992" lon="13.08639400609041"><ele>182.0</ele><time>2026-04-12T08:42:17Z</time></trkpt><trkpt lat="46.25355278252933" lon="13.086359314428353"><ele>182.25</ele><time>2026-04-12T08:42:18Z</time></trkpt><trkpt lat="46.25369690313438" lon="13.086322165041492"><ele>182.5</ele><time>2026-04-12T08:42:19Z</time></trkpt><trkpt lat="46.25384142544208" lon="13.086288659366602"><ele>182.75</ele><time>2026-04-12T08:42:20Z</time></trkpt><trkpt lat="46.2539854910897" lon="13.086254150098032"><ele>183.0</ele><time>2026-04-12T08:42:21Z</time></trkpt><trkpt lat="46.25411766958189" lon="13.086220855970833"><ele>183.0</ele><time>2026-04-12T08:42:22Z</time></trkpt><trkpt lat="46.254242564265596" lon="13.086191716140155"><ele>183.0</ele><time>2026-04-12T08:42:22.999Z</time></trkpt><trkpt lat="46.254361377194336" lon="13.086162251095361"><ele>183.0</ele><time>2026-04-12T08:42:23.999Z</time></trkpt><trkpt lat="46.25447246091067" lon="13.086136167342046"><ele>183.0</ele><time>2026-04-12T08:42:24.999Z</time></trkpt><trkpt lat="46.25455549180311" lon="13.086115013272444"><ele>183.0</ele><time>2026-04-12T08:42:25.999Z</time></trkpt><trkpt lat="46.254622046133164" lon="13.0860959932297"><ele>183.0</ele><time>2026-04-12T08:42:26.999Z</time></trkpt><trkpt lat="46.25470449767782" lon="13.08608176892163"><ele>183.0</ele><time>2026-04-12T08:42:28.999Z</time></trkpt><trkpt lat="46.25476849814436" lon="13.086065394185901"><ele>183.0</ele><time>2026-04-12T08:42:39.999Z</time></trkpt><trkpt lat="46.2548444587349" lon="13.08606799693566"><ele>183.0</ele><time>2026-04-12T08:42:44.999Z</time></trkpt><trkpt lat="46.254866099164964" lon="13.085939866292865"><ele>183.0</ele><time>2026-04-12T08:42:45.999Z</time></trkpt><trkpt lat="46.254884446097265" lon="13.085813686751893"><ele>183.0</ele><time>2026-04-12T08:42:46.999Z</time></trkpt><trkpt lat="46.25490741664956" lon="13.085656151894726"><ele>183.0</ele><time>2026-04-12T08:42:47.999Z</time></trkpt><trkpt lat="46.254939406975325" lon="13.085495833299246"><ele>183.0</ele><time>2026-04-12T08:42:48.999Z</time></trkpt><trkpt lat="46.25497181310144" lon="13.085320041780605"><ele>183.0</ele><time>2026-04-12T08:42:49.999Z</time></trkpt><trkpt lat="46.25500145471312" lon="13.085141510866515"><ele>183.0</ele><time>2026-04-12T08:42:50.999Z</time></trkpt><trkpt lat="46.25503049130676" lon="13.084961788569206"><ele>183.25</ele><time>2026-04-12T08:42:51.999Z</time></trkpt><trkpt lat="46.255060201270815" lon="13.084790071381834"><ele>183.5</ele><time>2026-04-12T08:42:52.999Z</time></trkpt><trkpt lat="46.25509035573176" lon="13.084625458744664"><ele>183.75</ele><time>2026-04-12T08:42:53.999Z</time></trkpt><trkpt lat="46.255121053394035" lon="13.08445771680595"><ele>184.0</ele><time>2026-04-12T08:42:54.999Z</time></trkpt><trkpt lat="46.2551477140551" lon="13.084287243755567"><ele>184.0</ele><time>2026-04-12T08:42:55.999Z</time></trkpt><trkpt lat="46.25517711132547" lon="13.084120265521292"><ele>184.0</ele><time>2026-04-12T08:42:56.999Z</time></trkpt><trkpt lat="46.25521198253498" lon="13.083969800610378"><ele>184.0</ele><time>2026-04-12T08:42:57.999Z</time></trkpt><trkpt lat="46.25526037332124" lon="13.083836058788524"><ele>184.0</ele><time>2026-04-12T08:42:58.999Z</time></trkpt><trkpt lat="46.25531548895845" lon="13.083725021354386"><ele>184.0</ele><time>2026-04-12T08:42:59.999Z</time></trkpt><trkpt lat="46.255366714186415" lon="13.083625624188763"><ele>184.0</ele><time>2026-04-12T08:43:00.999Z</time></trkpt><trkpt lat="46.25541308883612" lon="13.083531556126522"><ele>184.0</ele><time>2026-04-12T08:43:01.999Z</time></trkpt><trkpt lat="46.25545867965241" lon="13.083443102008912"><ele>184.0</ele><time>2026-04-12T08:43:02.999Z</time></trkpt><trkpt lat="46.255507792670834" lon="13.083345683571322"><ele>184.0</ele><time>2026-04-12T08:43:03.999Z</time></trkpt><trkpt lat="46.25555628989015" lon="13.083250643098982"><ele>184.0</ele><time>2026-04-12T08:43:04.999Z</time></trkpt><trkpt lat="46.25559971987632" lon="13.08316521910349"><ele>184.0</ele><time>2026-04-12T08:43:05.999Z</time></trkpt><trkpt lat="46.25563646001367" lon="13.083089701694803"><ele>184.0</ele><time>2026-04-12T08:43:06.999Z</time></trkpt><trkpt lat="46.2557063997355" lon="13.082962481766787"><ele>184.0</ele><time>2026-04-12T08:43:08.999Z</time></trkpt><trkpt lat="46.25575675409834" lon="13.082898647488909"><ele>184.0</ele><time>2026-04-12T08:43:10.999Z</time></trkpt><trkpt lat="46.25582989342985" lon="13.082921986330918"><ele>184.0</ele><time>2026-04-12T08:43:12.999Z</time></trkpt><trkpt lat="46.25588807512246" lon="13.082959791381498"><ele>184.0</ele><time>2026-04-12T08:43:19.999Z</time></trkpt><trkpt lat="46.25598531327735" lon="13.082982835147288"><ele>184.0</ele><time>2026-04-12T08:43:21.999Z</time></trkpt><trkpt lat="46.25600508148995" lon="13.083069355547243"><ele>184.0</ele><time>2026-04-12T08:43:22.999Z</time></trkpt><trkpt lat="46.25606259544143" lon="13.083141005975692"><ele>184.0</ele><time>2026-04-12T08:43:26.999Z</time></trkpt><trkpt lat="46.25615670887056" lon="13.083306053800696"><ele>184.0</ele><time>2026-04-12T08:43:28.999Z</time></trkpt><trkpt lat="46.25623713682147" lon="13.083451864754199"><ele>184.0</ele><time>2026-04-12T08:43:29.999Z</time></trkpt><trkpt lat="46.25633561408652" lon="13.08363779143025"><ele>184.66666666666669</ele><time>2026-04-12T08:43:30.999Z</time></trkpt><trkpt lat="46.25644338508769" lon="13.083846923665332"><ele>185.33333333333334</ele><time>2026-04-12T08:43:31.999Z</time></trkpt><trkpt lat="46.256557293834334" lon="13.08406945048398"><ele>186.0</ele><time>2026-04-12T08:43:32.999Z</time></trkpt><trkpt lat="46.256673807199455" lon="13.084289241455068"><ele>186.0</ele><time>2026-04-12T08:43:33.999Z</time></trkpt><trkpt lat="46.256784154016906" lon="13.084500527773246"><ele>186.0</ele><time>2026-04-12T08:43:34.999Z</time></trkpt><trkpt lat="46.25688432640396" lon="13.084701499526613"><ele>186.0</ele><time>2026-04-12T08:43:35.999Z</time></trkpt><trkpt lat="46.256979338526875" lon="13.084887622961658"><ele>185.75</ele><time>2026-04-12T08:43:36.999Z</time></trkpt><trkpt lat="46.25707041661919" lon="13.085054051439238"><ele>185.5</ele><time>2026-04-12T08:43:37.999Z</time></trkpt><trkpt lat="46.25715209626458" lon="13.085203684462966"><ele>185.25</ele><time>2026-04-12T08:43:38.999Z</time></trkpt><trkpt lat="46.25722731655541" lon="13.085331631837112"><ele>185.0</ele><time>2026-04-12T08:43:39.999Z</time></trkpt><trkpt lat="46.25729368309508" lon="13.085446790967199"><ele>184.8</ele><time>2026-04-12T08:43:40.999Z</time></trkpt><trkpt lat="46.25733280169717" lon="13.08557814954674"><ele>184.6</ele><time>2026-04-12T08:43:41.999Z</time></trkpt><trkpt lat="46.25740196569978" lon="13.085664430967647"><ele>184.39999999999998</ele><time>2026-04-12T08:43:42.999Z</time></trkpt><trkpt lat="46.257493389117585" lon="13.08566749473162"><ele>184.2</ele><time>2026-04-12T08:43:43.999Z</time></trkpt><trkpt lat="46.25759685206503" lon="13.08567659500914"><ele>184.0</ele><time>2026-04-12T08:43:44.999Z</time></trkpt><trkpt lat="46.25770972925637" lon="13.08571481584642"><ele>184.66666666666669</ele><time>2026-04-12T08:43:45.999Z</time></trkpt><trkpt lat="46.25782164083108" lon="13.085811893147387"><ele>185.33333333333334</ele><time>2026-04-12T08:43:46.999Z</time></trkpt><trkpt lat="46.25793552315091" lon="13.085950956849551"><ele>186.0</ele><time>2026-04-12T08:43:47.999Z</time></trkpt><trkpt lat="46.25806960702022" lon="13.08611019356285"><ele>186.0</ele><time>2026-04-12T08:43:48.999Z</time></trkpt><trkpt lat="46.25822188677715" lon="13.086287033437488"><ele>186.0</ele><time>2026-04-12T08:43:49.999Z</time></trkpt><trkpt lat="46.25837935432469" lon="13.086479425461452"><ele>186.0</ele><time>2026-04-12T08:43:50.999Z</time></trkpt><trkpt lat="46.25853691079018" lon="13.086663991652694"><ele>186.33333333333334</ele><time>2026-04-12T08:43:51.999Z</time></trkpt><trkpt lat="46.25868822284364" lon="13.086840562601207"><ele>186.66666666666669</ele><time>2026-04-12T08:43:52.999Z</time></trkpt><trkpt lat="46.25883548080818" lon="13.087011435883042"><ele>187.0</ele><time>2026-04-12T08:43:53.999Z</time></trkpt><trkpt lat="46.258976370321164" lon="13.087170429910636"><ele>186.66666666666669</ele><time>2026-04-12T08:43:54.999Z</time></trkpt><trkpt lat="46.25910620742695" lon="13.08730914856758"><ele>186.33333333333334</ele><time>2026-04-12T08:43:55.999Z</time></trkpt><trkpt lat="46.25923516744791" lon="13.087429403603165"><ele>186.0</ele><time>2026-04-12T08:43:56.999Z</time></trkpt><trkpt lat="46.2593696016812" lon="13.087538329025792"><ele>186.0</ele><time>2026-04-12T08:43:57.999Z</time></trkpt><trkpt lat="46.2595106078625" lon="13.087636397028971"><ele>186.0</ele><time>2026-04-12T08:43:58.999Z</time></trkpt><trkpt lat="46.259659681003996" lon="13.087720487001627"><ele>186.0</ele><time>2026-04-12T08:43:59.999Z</time></trkpt><trkpt lat="46.259817440193515" lon="13.087785990343656"><ele>186.33333333333334</ele><time>2026-04-12T08:44:00.999Z</time></trkpt><trkpt lat="46.259981772738946" lon="13.087842863111957"><ele>186.66666666666669</ele><time>2026-04-12T08:44:01.999Z</time></trkpt><trkpt lat="46.26016008229806" lon="13.087895437689214"><ele>187.0</ele><time>2026-04-12T08:44:02.999Z</time></trkpt><trkpt lat="46.26034864765109" lon="13.087954436058519"><ele>187.0</ele><time>2026-04-12T08:44:03.999Z</time></trkpt><trkpt lat="46.26054192753705" lon="13.088015878943095"><ele>187.0</ele><time>2026-04-12T08:44:04.999Z</time></trkpt><trkpt lat="46.2607321886077" lon="13.08807641713051"><ele>187.0</ele><time>2026-04-12T08:44:05.999Z</time></trkpt><trkpt lat="46.260918672664836" lon="13.088138097948777"><ele>187.33333333333334</ele><time>2026-04-12T08:44:06.999Z</time></trkpt><trkpt lat="46.261100379395806" lon="13.088199203040448"><ele>187.66666666666666</ele><time>2026-04-12T08:44:07.998Z</time></trkpt><trkpt lat="46.26127941355599" lon="13.088253813955898"><ele>188.0</ele><time>2026-04-12T08:44:09Z</time></trkpt><trkpt lat="46.26145263915712" lon="13.088305073276054"><ele>188.0</ele><time>2026-04-12T08:44:10Z</time></trkpt><trkpt lat="46.261623273151535" lon="13.088357715478525"><ele>188.0</ele><time>2026-04-12T08:44:11Z</time></trkpt><trkpt lat="46.261798608389945" lon="13.088412933801491"><ele>188.0</ele><time>2026-04-12T08:44:12Z</time></trkpt><trkpt lat="46.26198964088116" lon="13.088473463394468"><ele>188.0</ele><time>2026-04-12T08:44:13Z</time></trkpt><trkpt lat="46.26219316784605" lon="13.088538736192927"><ele>188.0</ele><time>2026-04-12T08:44:14Z</time></trkpt><trkpt lat="46.262396575388145" lon="13.088603771786342"><ele>188.0</ele><time>2026-04-12T08:44:15Z</time></trkpt><trkpt lat="46.262607967255946" lon="13.088669379097858"><ele>187.66666666666666</ele><time>2026-04-12T08:44:16Z</time></trkpt><trkpt lat="46.26281403100406" lon="13.088733715764144"><ele>187.33333333333334</ele><time>2026-04-12T08:44:17Z</time></trkpt><trkpt lat="46.26301553273139" lon="13.088795770127813"><ele>187.0</ele><time>2026-04-12T08:44:18Z</time></trkpt><trkpt lat="46.263210854907825" lon="13.088854597219518"><ele>187.0</ele><time>2026-04-12T08:44:19Z</time></trkpt><trkpt lat="46.26339916257515" lon="13.08891284753889"><ele>187.0</ele><time>2026-04-12T08:44:20Z</time></trkpt><trkpt lat="46.26358488956415" lon="13.088970006170987"><ele>187.0</ele><time>2026-04-12T08:44:21Z</time></trkpt><trkpt lat="46.263774448578516" lon="13.089029169339918"><ele>186.66666666666669</ele><time>2026-04-12T08:44:22Z</time></trkpt><trkpt lat="46.263966814346" lon="13.089086357161687"><ele>186.33333333333334</ele><time>2026-04-12T08:44:23Z</time></trkpt><trkpt lat="46.2641566994389" lon="13.089142092596624"><ele>186.0</ele><time>2026-04-12T08:44:24Z</time></trkpt><trkpt lat="46.26434267695386" lon="13.08919438014059"><ele>186.0</ele><time>2026-04-12T08:44:25Z</time></trkpt><trkpt lat="46.264522809606135" lon="13.089249806287725"><ele>186.0</ele><time>2026-04-12T08:44:26Z</time></trkpt><trkpt lat="46.26469993193491" lon="13.089304811057366"><ele>186.0</ele><time>2026-04-12T08:44:26.999Z</time></trkpt><trkpt lat="46.2648786233261" lon="13.089357922701742"><ele>186.0</ele><time>2026-04-12T08:44:27.999Z</time></trkpt><trkpt lat="46.26505850368812" lon="13.0894097212157"><ele>186.0</ele><time>2026-04-12T08:44:28.999Z</time></trkpt><trkpt lat="46.265237304306865" lon="13.089460980933582"><ele>186.0</ele><time>2026-04-12T08:44:29.999Z</time></trkpt><trkpt lat="46.26541651424015" lon="13.089515001724491"><ele>186.0</ele><time>2026-04-12T08:44:30.999Z</time></trkpt><trkpt lat="46.265593820637605" lon="13.089573021354257"><ele>186.0</ele><time>2026-04-12T08:44:31.999Z</time></trkpt><trkpt lat="46.26576513751287" lon="13.089630295177825"><ele>186.0</ele><time>2026-04-12T08:44:32.999Z</time></trkpt><trkpt lat="46.265931503170286" lon="13.089688006426154"><ele>186.0</ele><time>2026-04-12T08:44:33.999Z</time></trkpt><trkpt lat="46.26609180656196" lon="13.089750856292621"><ele>186.0</ele><time>2026-04-12T08:44:34.999Z</time></trkpt><trkpt lat="46.26624966448317" lon="13.089831958843556"><ele>186.0</ele><time>2026-04-12T08:44:35.999Z</time></trkpt><trkpt lat="46.26640116336234" lon="13.089937117323933"><ele>187.33333333333334</ele><time>2026-04-12T08:44:36.999Z</time></trkpt><trkpt lat="46.266547790608776" lon="13.090060425867563"><ele>188.66666666666669</ele><time>2026-04-12T08:44:37.999Z</time></trkpt><trkpt lat="46.266696265285105" lon="13.090192789463782"><ele>190.0</ele><time>2026-04-12T08:44:38.999Z</time></trkpt><trkpt lat="46.26684448127016" lon="13.090337942310239"><ele>190.0</ele><time>2026-04-12T08:44:39.999Z</time></trkpt><trkpt lat="46.26699414327575" lon="13.090502846300877"><ele>190.0</ele><time>2026-04-12T08:44:40.999Z</time></trkpt><trkpt lat="46.267144609434744" lon="13.090688739313642"><ele>190.0</ele><time>2026-04-12T08:44:41.999Z</time></trkpt><trkpt lat="46.26729789569763" lon="13.090872499845151"><ele>189.66666666666669</ele><time>2026-04-12T08:44:42.999Z</time></trkpt><trkpt lat="46.26745449748096" lon="13.091060268921103"><ele>189.33333333333334</ele><time>2026-04-12T08:44:43.999Z</time></trkpt><trkpt lat="46.26760996837474" lon="13.09124843308117"><ele>189.0</ele><time>2026-04-12T08:44:44.999Z</time></trkpt><trkpt lat="46.26777648480401" lon="13.091437004551054"><ele>188.5</ele><time>2026-04-12T08:44:45.999Z</time></trkpt><trkpt lat="46.26794642640238" lon="13.0916684153063"><ele>188.0</ele><time>2026-04-12T08:44:46.999Z</time></trkpt><trkpt lat="46.26815613654303" lon="13.091923799808333"><ele>188.0</ele><time>2026-04-12T08:44:47.999Z</time></trkpt><trkpt lat="46.268387586989085" lon="13.09220566024685"><ele>188.0</ele><time>2026-04-12T08:44:48.999Z</time></trkpt><trkpt lat="46.26861779313297" lon="13.092483174519563"><ele>188.5</ele><time>2026-04-12T08:44:49.999Z</time></trkpt><trkpt lat="46.268833353265485" lon="13.092717628115095"><ele>189.0</ele><time>2026-04-12T08:44:50.999Z</time></trkpt><trkpt lat="46.26901678024508" lon="13.092951451860014"><ele>189.0</ele><time>2026-04-12T08:44:51.999Z</time></trkpt><trkpt lat="46.26917933928413" lon="13.093154603232495"><ele>189.0</ele><time>2026-04-12T08:44:52.999Z</time></trkpt><trkpt lat="46.26932273754161" lon="13.093335390190035"><ele>189.0</ele><time>2026-04-12T08:44:53.999Z</time></trkpt><trkpt lat="46.2694642130185" lon="13.093510381851262"><ele>189.0</ele><time>2026-04-12T08:44:54.999Z</time></trkpt><trkpt lat="46.26960939077468" lon="13.093683127346754"><ele>189.0</ele><time>2026-04-12T08:44:55.999Z</time></trkpt><trkpt lat="46.269759411702324" lon="13.093852614970428"><ele>189.0</ele><time>2026-04-12T08:44:56.999Z</time></trkpt><trkpt lat="46.269908885954706" lon="13.094014483110147"><ele>189.33333333333334</ele><time>2026-04-12T08:44:57.999Z</time></trkpt><trkpt lat="46.270059133054744" lon="13.094169635282165"><ele>189.66666666666669</ele><time>2026-04-12T08:44:58.999Z</time></trkpt><trkpt lat="46.27020822619399" lon="13.094327218598394"><ele>190.0</ele><time>2026-04-12T08:44:59.999Z</time></trkpt><trkpt lat="46.27035452843722" lon="13.094487096484798"><ele>190.0</ele><time>2026-04-12T08:45:00.999Z</time></trkpt><trkpt lat="46.270500088840436" lon="13.094644467291634"><ele>190.0</ele><time>2026-04-12T08:45:01.999Z</time></trkpt><trkpt lat="46.27064647182927" lon="13.094800140770129"><ele>190.0</ele><time>2026-04-12T08:45:02.999Z</time></trkpt><trkpt lat="46.27079386502809" lon="13.094956943028595"><ele>190.66666666666669</ele><time>2026-04-12T08:45:03.999Z</time></trkpt><trkpt lat="46.270944255163954" lon="13.095116858816596"><ele>191.33333333333334</ele><time>2026-04-12T08:45:04.999Z</time></trkpt><trkpt lat="46.27110196220843" lon="13.095282676435588"><ele>192.0</ele><time>2026-04-12T08:45:05.999Z</time></trkpt><trkpt lat="46.27126597976552" lon="13.09545068891481"><ele>192.0</ele><time>2026-04-12T08:45:06.999Z</time></trkpt><trkpt lat="46.27142675067632" lon="13.095624198644577"><ele>192.0</ele><time>2026-04-12T08:45:07.999Z</time></trkpt><trkpt lat="46.27158997904253" lon="13.095799250506102"><ele>192.0</ele><time>2026-04-12T08:45:08.999Z</time></trkpt><trkpt lat="46.2717511908858" lon="13.095974539313499"><ele>192.33333333333331</ele><time>2026-04-12T08:45:09.999Z</time></trkpt><trkpt lat="46.27190318895747" lon="13.096139833904513"><ele>192.66666666666666</ele><time>2026-04-12T08:45:10.999Z</time></trkpt><trkpt lat="46.27205194881224" lon="13.096297921813129"><ele>193.0</ele><time>2026-04-12T08:45:11.999Z</time></trkpt><trkpt lat="46.272199868797586" lon="13.096456970121634"><ele>192.33333333333331</ele><time>2026-04-12T08:45:12.999Z</time></trkpt><trkpt lat="46.272349946926454" lon="13.096618859245774"><ele>191.66666666666666</ele><time>2026-04-12T08:45:13.999Z</time></trkpt><trkpt lat="46.27249919996848" lon="13.096779680820802"><ele>191.0</ele><time>2026-04-12T08:45:14.999Z</time></trkpt><trkpt lat="46.272644730257824" lon="13.096933723607536"><ele>191.0</ele><time>2026-04-12T08:45:15.999Z</time></trkpt><trkpt lat="46.27278981890658" lon="13.097086755321776"><ele>191.0</ele><time>2026-04-12T08:45:16.999Z</time></trkpt><trkpt lat="46.27293395423038" lon="13.097239007568943"><ele>191.0</ele><time>2026-04-12T08:45:17.999Z</time></trkpt><trkpt lat="46.27307599862745" lon="13.097388658598918"><ele>191.33333333333331</ele><time>2026-04-12T08:45:18.999Z</time></trkpt><trkpt lat="46.27321653361387" lon="13.09753896755724"><ele>191.66666666666666</ele><time>2026-04-12T08:45:19.999Z</time></trkpt><trkpt lat="46.273355271274845" lon="13.097686109529725"><ele>192.0</ele><time>2026-04-12T08:45:20.999Z</time></trkpt><trkpt lat="46.27349087759245" lon="13.097831463173263"><ele>192.0</ele><time>2026-04-12T08:45:21.999Z</time></trkpt><trkpt lat="46.273626219791204" lon="13.097975191656964"><ele>192.0</ele><time>2026-04-12T08:45:22.999Z</time></trkpt><trkpt lat="46.273762044241224" lon="13.098119252301837"><ele>192.0</ele><time>2026-04-12T08:45:23.999Z</time></trkpt><trkpt lat="46.27389750566941" lon="13.098262783276205"><ele>192.0</ele><time>2026-04-12T08:45:24.999Z</time></trkpt><trkpt lat="46.27403219524636" lon="13.098406779281905"><ele>192.0</ele><time>2026-04-12T08:45:25.999Z</time></trkpt><trkpt lat="46.274166317630424" lon="13.098552152392513"><ele>192.0</ele><time>2026-04-12T08:45:26.999Z</time></trkpt><trkpt lat="46.27430450354458" lon="13.098699881128011"><ele>192.0</ele><time>2026-04-12T08:45:27.999Z</time></trkpt><trkpt lat="46.27444773382122" lon="13.098853100592022"><ele>192.0</ele><time>2026-04-12T08:45:28.999Z</time></trkpt><trkpt lat="46.274596745635655" lon="13.099008627137634"><ele>192.0</ele><time>2026-04-12T08:45:29.999Z</time></trkpt><trkpt lat="46.27474739374993" lon="13.099167869614853"><ele>192.33333333333331</ele><time>2026-04-12T08:45:30.999Z</time></trkpt><trkpt lat="46.27489464563988" lon="13.099327263800523"><ele>192.66666666666666</ele><time>2026-04-12T08:45:31.999Z</time></trkpt><trkpt lat="46.27503267808461" lon="13.099478696768543"><ele>193.0</ele><time>2026-04-12T08:45:32.999Z</time></trkpt><trkpt lat="46.27516201492378" lon="13.09961781362495"><ele>193.0</ele><time>2026-04-12T08:45:33.999Z</time></trkpt><trkpt lat="46.275278483872114" lon="13.099741534195159"><ele>193.0</ele><time>2026-04-12T08:45:34.999Z</time></trkpt><trkpt lat="46.27538879811965" lon="13.099858222664608"><ele>193.0</ele><time>2026-04-12T08:45:35.999Z</time></trkpt><trkpt lat="46.275490469214155" lon="13.099957556641492"><ele>193.0</ele><time>2026-04-12T08:45:36.999Z</time></trkpt><trkpt lat="46.27558708769398" lon="13.100045685490187"><ele>193.33333333333331</ele><time>2026-04-12T08:45:37.999Z</time></trkpt><trkpt lat="46.27567785777564" lon="13.100116483732771"><ele>193.66666666666666</ele><time>2026-04-12T08:45:38.999Z</time></trkpt><trkpt lat="46.27575973129432" lon="13.100172014383897"><ele>194.0</ele><time>2026-04-12T08:45:39.999Z</time></trkpt><trkpt lat="46.27583359822432" lon="13.100218149585602"><ele>194.33333333333331</ele><time>2026-04-12T08:45:40.999Z</time></trkpt><trkpt lat="46.27589997450341" lon="13.100255021338809"><ele>194.66666666666666</ele><time>2026-04-12T08:45:41.999Z</time></trkpt><trkpt lat="46.27599695573377" lon="13.100304940291554"><ele>195.0</ele><time>2026-04-12T08:45:43.999Z</time></trkpt><trkpt lat="46.27605699756969" lon="13.10033775949623"><ele>195.0</ele><time>2026-04-12T08:45:46.999Z</time></trkpt><trkpt lat="46.27611808943085" lon="13.100365449730269"><ele>195.0</ele><time>2026-04-12T08:45:53.999Z</time></trkpt><trkpt lat="46.27619993411478" lon="13.100397002059037"><ele>195.0</ele><time>2026-04-12T08:45:58.999Z</time></trkpt><trkpt lat="46.276308005551904" lon="13.100437603494356"><ele>195.0</ele><time>2026-04-12T08:46:00.999Z</time></trkpt><trkpt lat="46.27640279263626" lon="13.100465237880897"><ele>195.0</ele><time>2026-04-12T08:46:01.999Z</time></trkpt><trkpt lat="46.27653634369354" lon="13.100488176220065"><ele>195.66666666666669</ele><time>2026-04-12T08:46:02.999Z</time></trkpt><trkpt lat="46.276697846317504" lon="13.100510282299956"><ele>196.33333333333334</ele><time>2026-04-12T08:46:03.999Z</time></trkpt><trkpt lat="46.276879186398965" lon="13.10052473078492"><ele>197.0</ele><time>2026-04-12T08:46:05Z</time></trkpt><trkpt lat="46.27707264519435" lon="13.100520271568213"><ele>196.66666666666669</ele><time>2026-04-12T08:46:06Z</time></trkpt><trkpt lat="46.277277684004666" lon="13.100493971171955"><ele>196.33333333333331</ele><time>2026-04-12T08:46:07Z</time></trkpt><trkpt lat="46.27748860567312" lon="13.100444367406263"><ele>196.0</ele><time>2026-04-12T08:46:08Z</time></trkpt><trkpt lat="46.27769354504615" lon="13.100378145610943"><ele>196.0</ele><time>2026-04-12T08:46:09Z</time></trkpt><trkpt lat="46.27788028821188" lon="13.100294878136266"><ele>196.0</ele><time>2026-04-12T08:46:10Z</time></trkpt><trkpt lat="46.278051190332896" lon="13.100194336718475"><ele>196.0</ele><time>2026-04-12T08:46:11Z</time></trkpt><trkpt lat="46.27821002654394" lon="13.100083905309573"><ele>196.0</ele><time>2026-04-12T08:46:12Z</time></trkpt><trkpt lat="46.278355115364064" lon="13.099965342158407"><ele>196.0</ele><time>2026-04-12T08:46:13Z</time></trkpt><trkpt lat="46.278493477850105" lon="13.099836515931148"><ele>196.0</ele><time>2026-04-12T08:46:14Z</time></trkpt><trkpt lat="46.2786281357919" lon="13.099702235997457"><ele>196.0</ele><time>2026-04-12T08:46:15.001Z</time></trkpt><trkpt lat="46.27875486198409" lon="13.09955077194599"><ele>196.0</ele><time>2026-04-12T08:46:16.001Z</time></trkpt><trkpt lat="46.27887630097647" lon="13.09938259360138"><ele>196.0</ele><time>2026-04-12T08:46:17.001Z</time></trkpt><trkpt lat="46.278999118373115" lon="13.099202042302187"><ele>196.0</ele><time>2026-04-12T08:46:18.001Z</time></trkpt><trkpt lat="46.27912570615666" lon="13.09901390196487"><ele>196.0</ele><time>2026-04-12T08:46:19.001Z</time></trkpt><trkpt lat="46.27925583081564" lon="13.09882036542807"><ele>196.0</ele><time>2026-04-12T08:46:20.001Z</time></trkpt><trkpt lat="46.279380352398206" lon="13.098626704890663"><ele>196.0</ele><time>2026-04-12T08:46:21.001Z</time></trkpt><trkpt lat="46.27949983490792" lon="13.098441117158425"><ele>196.0</ele><time>2026-04-12T08:46:22.001Z</time></trkpt><trkpt lat="46.279616295671815" lon="13.098260135760114"><ele>196.0</ele><time>2026-04-12T08:46:23.001Z</time></trkpt><trkpt lat="46.27973043490552" lon="13.098083053624501"><ele>197.0</ele><time>2026-04-12T08:46:24.001Z</time></trkpt><trkpt lat="46.27984369554997" lon="13.097904173857398"><ele>198.0</ele><time>2026-04-12T08:46:25.001Z</time></trkpt><trkpt lat="46.27995797945209" lon="13.097728259585132"><ele>199.0</ele><time>2026-04-12T08:46:26.001Z</time></trkpt><trkpt lat="46.28006961831709" lon="13.09755529927984"><ele>198.75</ele><time>2026-04-12T08:46:27.001Z</time></trkpt><trkpt lat="46.28017774122162" lon="13.097389360993795"><ele>198.5</ele><time>2026-04-12T08:46:28.001Z</time></trkpt><trkpt lat="46.2802800945274" lon="13.09723064020211"><ele>198.25</ele><time>2026-04-12T08:46:29.001Z</time></trkpt><trkpt lat="46.28037406569922" lon="13.097077143288594"><ele>198.0</ele><time>2026-04-12T08:46:30.001Z</time></trkpt><trkpt lat="46.28046621023546" lon="13.096934525006901"><ele>198.0</ele><time>2026-04-12T08:46:31.001Z</time></trkpt><trkpt lat="46.28055595248006" lon="13.096796423306138"><ele>198.0</ele><time>2026-04-12T08:46:32Z</time></trkpt><trkpt lat="46.28064390290912" lon="13.096658800529303"><ele>198.0</ele><time>2026-04-12T08:46:33Z</time></trkpt><trkpt lat="46.280728026131285" lon="13.096522684633566"><ele>198.0</ele><time>2026-04-12T08:46:34Z</time></trkpt><trkpt lat="46.28080480409184" lon="13.096398119751987"><ele>198.5</ele><time>2026-04-12T08:46:35Z</time></trkpt><trkpt lat="46.2808735720934" lon="13.096293839994978"><ele>199.0</ele><time>2026-04-12T08:46:36Z</time></trkpt><trkpt lat="46.28093848862042" lon="13.096214635544555"><ele>199.5</ele><time>2026-04-12T08:46:37Z</time></trkpt><trkpt lat="46.281016021119285" lon="13.096149489233568"><ele>200.0</ele><time>2026-04-12T08:46:38Z</time></trkpt><trkpt lat="46.28109390321046" lon="13.096112826664527"><ele>200.5</ele><time>2026-04-12T08:46:39Z</time></trkpt><trkpt lat="46.28116742432803" lon="13.096080246878538"><ele>201.0</ele><time>2026-04-12T08:46:40Z</time></trkpt><trkpt lat="46.28123259429126" lon="13.096046123566397"><ele>201.0</ele><time>2026-04-12T08:46:41Z</time></trkpt><trkpt lat="46.2813224944133" lon="13.095926100838316"><ele>201.0</ele><time>2026-04-12T08:46:43Z</time></trkpt><trkpt lat="46.28134168504916" lon="13.095829671767243"><ele>201.0</ele><time>2026-04-12T08:46:44Z</time></trkpt><trkpt lat="46.28134747657496" lon="13.095698393946249"><ele>201.0</ele><time>2026-04-12T08:46:45Z</time></trkpt><trkpt lat="46.28137850398098" lon="13.095537236176506"><ele>201.0</ele><time>2026-04-12T08:46:46Z</time></trkpt><trkpt lat="46.28144801760929" lon="13.095377211074837"><ele>200.0</ele><time>2026-04-12T08:46:47Z</time></trkpt><trkpt lat="46.281551304620116" lon="13.095229513219385"><ele>199.0</ele><time>2026-04-12T08:46:48Z</time></trkpt><trkpt lat="46.281671241776294" lon="13.095061255890485"><ele>198.0</ele><time>2026-04-12T08:46:49Z</time></trkpt><trkpt lat="46.28181346145518" lon="13.094839525118479"><ele>197.5</ele><time>2026-04-12T08:46:50Z</time></trkpt><trkpt lat="46.2819960377858" lon="13.094555897584693"><ele>197.0</ele><time>2026-04-12T08:46:51Z</time></trkpt><trkpt lat="46.28214206221792" lon="13.094330949326128"><ele>197.33333333333334</ele><time>2026-04-12T08:46:52Z</time></trkpt><trkpt lat="46.28227979065096" lon="13.094117198156127"><ele>197.66666666666669</ele><time>2026-04-12T08:46:53Z</time></trkpt><trkpt lat="46.28242400191888" lon="13.093889458490862"><ele>198.0</ele><time>2026-04-12T08:46:54Z</time></trkpt><trkpt lat="46.28256316952565" lon="13.093676791982437"><ele>197.33333333333331</ele><time>2026-04-12T08:46:55Z</time></trkpt><trkpt lat="46.28269418424221" lon="13.093474620748424"><ele>196.66666666666666</ele><time>2026-04-12T08:46:56Z</time></trkpt><trkpt lat="46.28282123580068" lon="13.093275423853573"><ele>196.0</ele><time>2026-04-12T08:46:57Z</time></trkpt><trkpt lat="46.28294416198567" lon="13.093088748910478"><ele>196.0</ele><time>2026-04-12T08:46:58Z</time></trkpt><trkpt lat="46.2830527886281" lon="13.092920833634324"><ele>196.0</ele><time>2026-04-12T08:46:59Z</time></trkpt><trkpt lat="46.28314984252983" lon="13.092770440931284"><ele>196.0</ele><time>2026-04-12T08:47:00Z</time></trkpt><trkpt lat="46.28324033363087" lon="13.092628216690997"><ele>196.0</ele><time>2026-04-12T08:47:01Z</time></trkpt><trkpt lat="46.2833292474109" lon="13.092490300932331"><ele>196.8</ele><time>2026-04-12T08:47:02Z</time></trkpt><trkpt lat="46.28341137050366" lon="13.09236355436285"><ele>197.60000000000002</ele><time>2026-04-12T08:47:03Z</time></trkpt><trkpt lat="46.28348603465171" lon="13.092249810671595"><ele>198.4</ele><time>2026-04-12T08:47:04Z</time></trkpt><trkpt lat="46.28355256119983" lon="13.092142567261082"><ele>199.2</ele><time>2026-04-12T08:47:05Z</time></trkpt><trkpt lat="46.28360878154975" lon="13.092053414349056"><ele>200.0</ele><time>2026-04-12T08:47:06Z</time></trkpt><trkpt lat="46.28368344112476" lon="13.091947920491657"><ele>200.0</ele><time>2026-04-12T08:47:08Z</time></trkpt><trkpt lat="46.28375542480267" lon="13.091890994632577"><ele>200.0</ele><time>2026-04-12T08:47:10Z</time></trkpt><trkpt lat="46.283860271041746" lon="13.091859701487172"><ele>200.0</ele><time>2026-04-12T08:47:12Z</time></trkpt><trkpt lat="46.283929677216456" lon="13.09197712188561"><ele>200.0</ele><time>2026-04-12T08:47:13Z</time></trkpt><trkpt lat="46.28399087793985" lon="13.092052286421286"><ele>200.0</ele><time>2026-04-12T08:47:14Z</time></trkpt><trkpt lat="46.28405441233603" lon="13.092136118567533"><ele>200.2</ele><time>2026-04-12T08:47:15Z</time></trkpt><trkpt lat="46.28412631078866" lon="13.092222396990987"><ele>200.4</ele><time>2026-04-12T08:47:16Z</time></trkpt><trkpt lat="46.28420168576289" lon="13.092317996322711"><ele>200.60000000000002</ele><time>2026-04-12T08:47:17Z</time></trkpt><trkpt lat="46.28427947101985" lon="13.09241559151828"><ele>200.8</ele><time>2026-04-12T08:47:18Z</time></trkpt><trkpt lat="46.284358677233" lon="13.092513712382994"><ele>201.0</ele><time>2026-04-12T08:47:19Z</time></trkpt><trkpt lat="46.28443404073531" lon="13.092621465427863"><ele>200.5</ele><time>2026-04-12T08:47:20Z</time></trkpt><trkpt lat="46.2845196704692" lon="13.092737861454886"><ele>200.0</ele><time>2026-04-12T08:47:21Z</time></trkpt><trkpt lat="46.284609540059776" lon="13.09286241051222"><ele>199.5</ele><time>2026-04-12T08:47:22Z</time></trkpt><trkpt lat="46.284692048202096" lon="13.092989964676416"><ele>199.0</ele><time>2026-04-12T08:47:23Z</time></trkpt><trkpt lat="46.28477131076653" lon="13.093111549560126"><ele>199.0</ele><time>2026-04-12T08:47:24Z</time></trkpt><trkpt lat="46.28484603421911" lon="13.093227263814947"><ele>199.0</ele><time>2026-04-12T08:47:25Z</time></trkpt><trkpt lat="46.284918955115394" lon="13.093338986857184"><ele>199.0</ele><time>2026-04-12T08:47:26Z</time></trkpt><trkpt lat="46.28499088054969" lon="13.093448051537823"><ele>199.0</ele><time>2026-04-12T08:47:27Z</time></trkpt><trkpt lat="46.28506114494189" lon="13.093557198092741"><ele>199.0</ele><time>2026-04-12T08:47:28Z</time></trkpt><trkpt lat="46.28513050909089" lon="13.093664737856116"><ele>198.79999999999998</ele><time>2026-04-12T08:47:29Z</time></trkpt><trkpt lat="46.285199368583505" lon="13.093771109425873"><ele>198.6</ele><time>2026-04-12T08:47:30Z</time></trkpt><trkpt lat="46.28526676202914" lon="13.093880197602596"><ele>198.4</ele><time>2026-04-12T08:47:31Z</time></trkpt><trkpt lat="46.28533764393057" lon="13.093989854610994"><ele>198.2</ele><time>2026-04-12T08:47:32Z</time></trkpt><trkpt lat="46.285413289634015" lon="13.094096795945914"><ele>198.0</ele><time>2026-04-12T08:47:33Z</time></trkpt><trkpt lat="46.28549983539115" lon="13.094189487233022"><ele>197.8</ele><time>2026-04-12T08:47:34Z</time></trkpt><trkpt lat="46.28559467849527" lon="13.094268739973641"><ele>197.60000000000002</ele><time>2026-04-12T08:47:35Z</time></trkpt><trkpt lat="46.28569483234831" lon="13.09433518584573"><ele>197.39999999999998</ele><time>2026-04-12T08:47:36Z</time></trkpt><trkpt lat="46.28579736789356" lon="13.09439727955612"><ele>197.2</ele><time>2026-04-12T08:47:37Z</time></trkpt><trkpt lat="46.28590196216585" lon="13.094456448316906"><ele>197.0</ele><time>2026-04-12T08:47:38Z</time></trkpt><trkpt lat="46.28601167492379" lon="13.094509915350367"><ele>197.75</ele><time>2026-04-12T08:47:39Z</time></trkpt><trkpt lat="46.28612439489852" lon="13.094560513367107"><ele>198.5</ele><time>2026-04-12T08:47:40Z</time></trkpt><trkpt lat="46.28624239963917" lon="13.09461758150472"><ele>199.25</ele><time>2026-04-12T08:47:41Z</time></trkpt><trkpt lat="46.286365884659276" lon="13.09466573926393"><ele>200.0</ele><time>2026-04-12T08:47:42Z</time></trkpt><trkpt lat="46.28649183272439" lon="13.094705117833268"><ele>200.0</ele><time>2026-04-12T08:47:43Z</time></trkpt><trkpt lat="46.286619082488336" lon="13.094741646415097"><ele>200.0</ele><time>2026-04-12T08:47:44Z</time></trkpt><trkpt lat="46.28674194293488" lon="13.09478664470174"><ele>200.0</ele><time>2026-04-12T08:47:45Z</time></trkpt><trkpt lat="46.286858201129576" lon="13.094840436815838"><ele>200.0</ele><time>2026-04-12T08:47:46Z</time></trkpt><trkpt lat="46.28696859423736" lon="13.094901064499835"><ele>200.2</ele><time>2026-04-12T08:47:47Z</time></trkpt><trkpt lat="46.28707473518168" lon="13.094967862397729"><ele>200.4</ele><time>2026-04-12T08:47:48Z</time></trkpt><trkpt lat="46.28717780980077" lon="13.09503651333743"><ele>200.60000000000002</ele><time>2026-04-12T08:47:49Z</time></trkpt><trkpt lat="46.2872629692444" lon="13.095117024954918"><ele>200.8</ele><time>2026-04-12T08:47:50Z</time></trkpt><trkpt lat="46.287329897908364" lon="13.095207224347194"><ele>201.0</ele><time>2026-04-12T08:47:51Z</time></trkpt><trkpt lat="46.28738551666956" lon="13.095280788010614"><ele>203.0</ele><time>2026-04-12T08:47:52Z</time></trkpt><trkpt lat="46.28748343084761" lon="13.09539450838689"><ele>205.0</ele><time>2026-04-12T08:47:54Z</time></trkpt><trkpt lat="46.287565386614425" lon="13.095443088047796"><ele>207.0</ele><time>2026-04-12T08:47:55Z</time></trkpt><trkpt lat="46.28767133521076" lon="13.095471228381767"><ele>209.0</ele><time>2026-04-12T08:47:56Z</time></trkpt><trkpt lat="46.28780128900834" lon="13.09544560315064"><ele>209.0</ele><time>2026-04-12T08:47:57Z</time></trkpt><trkpt lat="46.28797671289396" lon="13.095372316104967"><ele>209.0</ele><time>2026-04-12T08:47:58Z</time></trkpt><trkpt lat="46.2881512512267" lon="13.095301123542905"><ele>209.0</ele><time>2026-04-12T08:47:59Z</time></trkpt><trkpt lat="46.288294927514315" lon="13.09525367029529"><ele>215.66666666666669</ele><time>2026-04-12T08:48:00Z</time></trkpt><trkpt lat="46.28845198795193" lon="13.095243275870091"><ele>222.33333333333331</ele><time>2026-04-12T08:48:01Z</time></trkpt><trkpt lat="46.28859045179719" lon="13.095277991505744"><ele>229.0</ele><time>2026-04-12T08:48:02Z</time></trkpt><trkpt lat="46.28875821904623" lon="13.095296828495304"><ele>228.0</ele><time>2026-04-12T08:48:03Z</time></trkpt><trkpt lat="46.28897831992143" lon="13.095313467462207"><ele>227.0</ele><time>2026-04-12T08:48:04Z</time></trkpt><trkpt lat="46.28918180577683" lon="13.095328337285848"><ele>226.0</ele><time>2026-04-12T08:48:05Z</time></trkpt><trkpt lat="46.28935831092753" lon="13.095349696411812"><ele>226.0</ele><time>2026-04-12T08:48:06Z</time></trkpt><trkpt lat="46.28953124972964" lon="13.095406869872354"><ele>226.0</ele><time>2026-04-12T08:48:07Z</time></trkpt><trkpt lat="46.28971563396305" lon="13.09550873012315"><ele>226.0</ele><time>2026-04-12T08:48:08Z</time></trkpt><trkpt lat="46.28991770823796" lon="13.095651810007297"><ele>216.5</ele><time>2026-04-12T08:48:09Z</time></trkpt><trkpt lat="46.290136311663815" lon="13.095796547146112"><ele>207.0</ele><time>2026-04-12T08:48:10Z</time></trkpt><trkpt lat="46.29033937794031" lon="13.095928647154052"><ele>207.0</ele><time>2026-04-12T08:48:11Z</time></trkpt><trkpt lat="46.290525548518225" lon="13.096054679251349"><ele>207.0</ele><time>2026-04-12T08:48:12Z</time></trkpt><trkpt lat="46.29070643765667" lon="13.096170576074497"><ele>207.0</ele><time>2026-04-12T08:48:13Z</time></trkpt><trkpt lat="46.29088287278209" lon="13.096275152062677"><ele>227.66666666666669</ele><time>2026-04-12T08:48:14Z</time></trkpt><trkpt lat="46.291063940873705" lon="13.096359812228823"><ele>248.33333333333334</ele><time>2026-04-12T08:48:15Z</time></trkpt><trkpt lat="46.29126524551047" lon="13.09642885557669"><ele>269.0</ele><time>2026-04-12T08:48:16Z</time></trkpt><trkpt lat="46.29145973456574" lon="13.096493124090063"><ele>269.0</ele><time>2026-04-12T08:48:17Z</time></trkpt><trkpt lat="46.2916395208753" lon="13.096556530462424"><ele>269.0</ele><time>2026-04-12T08:48:18Z</time></trkpt><trkpt lat="46.291798925555824" lon="13.096606523369049"><ele>269.0</ele><time>2026-04-12T08:48:18.999Z</time></trkpt><trkpt lat="46.29194156636569" lon="13.096654999058146"><ele>255.33333333333334</ele><time>2026-04-12T08:48:19.999Z</time></trkpt><trkpt lat="46.292086167050265" lon="13.096713681358134"><ele>241.66666666666669</ele><time>2026-04-12T08:48:21.001Z</time></trkpt><trkpt lat="46.292225599169576" lon="13.096821031352976"><ele>228.0</ele><time>2026-04-12T08:48:22.001Z</time></trkpt><trkpt lat="46.292379250202146" lon="13.096917756127585"><ele>228.0</ele><time>2026-04-12T08:48:23.001Z</time></trkpt><trkpt lat="46.292532143493716" lon="13.097040293867307"><ele>228.0</ele><time>2026-04-12T08:48:24.001Z</time></trkpt><trkpt lat="46.292695051669" lon="13.09716389004354"><ele>228.0</ele><time>2026-04-12T08:48:25.001Z</time></trkpt><trkpt lat="46.2928560617989" lon="13.097285928271866"><ele>228.0</ele><time>2026-04-12T08:48:26.001Z</time></trkpt><trkpt lat="46.29300442403748" lon="13.097397197381989"><ele>228.0</ele><time>2026-04-12T08:48:27.001Z</time></trkpt><trkpt lat="46.29313511805463" lon="13.097492299144795"><ele>228.0</ele><time>2026-04-12T08:48:28.001Z</time></trkpt><trkpt lat="46.29325535974417" lon="13.097571336711905"><ele>228.0</ele><time>2026-04-12T08:48:29.001Z</time></trkpt><trkpt lat="46.29337564163691" lon="13.097634724080235"><ele>228.5</ele><time>2026-04-12T08:48:30.001Z</time></trkpt><trkpt lat="46.29348913743964" lon="13.097710263257095"><ele>229.0</ele><time>2026-04-12T08:48:31.001Z</time></trkpt><trkpt lat="46.293616150389624" lon="13.09773107836943"><ele>229.5</ele><time>2026-04-12T08:48:32.001Z</time></trkpt><trkpt lat="46.29373253033438" lon="13.097782150044022"><ele>230.0</ele><time>2026-04-12T08:48:33.001Z</time></trkpt><trkpt lat="46.29384053178358" lon="13.097855333669099"><ele>234.75</ele><time>2026-04-12T08:48:34.001Z</time></trkpt><trkpt lat="46.29395581520944" lon="13.09791981277399"><ele>239.5</ele><time>2026-04-12T08:48:35.001Z</time></trkpt><trkpt lat="46.29408039068785" lon="13.09800199837444"><ele>244.25</ele><time>2026-04-12T08:48:36Z</time></trkpt><trkpt lat="46.294215772362314" lon="13.09808559118421"><ele>249.0</ele><time>2026-04-12T08:48:37Z</time></trkpt><trkpt lat="46.29434345861323" lon="13.09821077172603"><ele>245.66666666666669</ele><time>2026-04-12T08:48:38Z</time></trkpt><trkpt lat="46.29447488378601" lon="13.098344764453454"><ele>242.33333333333334</ele><time>2026-04-12T08:48:39Z</time></trkpt><trkpt lat="46.294613895663055" lon="13.098483607097208"><ele>239.0</ele><time>2026-04-12T08:48:40.07Z</time></trkpt><trkpt lat="46.29474597041895" lon="13.098597145022763"><ele>240.66666666666669</ele><time>2026-04-12T08:48:41.057Z</time></trkpt><trkpt lat="46.29489236448614" lon="13.098695217952633"><ele>242.33333333333331</ele><time>2026-04-12T08:48:42.054Z</time></trkpt><trkpt lat="46.29505770715016" lon="13.098791904029163"><ele>244.0</ele><time>2026-04-12T08:48:43.049Z</time></trkpt><trkpt lat="46.29524574466696" lon="13.09890803502437"><ele>244.0</ele><time>2026-04-12T08:48:44.048Z</time></trkpt><trkpt lat="46.295444803384825" lon="13.099032419993451"><ele>244.0</ele><time>2026-04-12T08:48:45.039Z</time></trkpt><trkpt lat="46.29743119277389" lon="13.099896003870022"><ele>236.66666666666666</ele><time>2026-04-12T08:48:54Z</time></trkpt><trkpt lat="46.29765969308654" lon="13.100000640794983"><ele>229.33333333333331</ele><time>2026-04-12T08:48:55Z</time></trkpt><trkpt lat="46.29779804007703" lon="13.100076982821259"><ele>222.0</ele><time>2026-04-12T08:48:56Z</time></trkpt><trkpt lat="46.297946824147225" lon="13.100124915339006"><ele>222.75</ele><time>2026-04-12T08:48:57Z</time></trkpt><trkpt lat="46.29808980201637" lon="13.100174076619343"><ele>223.5</ele><time>2026-04-12T08:48:58Z</time></trkpt><trkpt lat="46.29822047719246" lon="13.100223855289038"><ele>224.25</ele><time>2026-04-12T08:48:59Z</time></trkpt><trkpt lat="46.29835174057705" lon="13.100273479000585"><ele>225.0</ele><time>2026-04-12T08:49:00Z</time></trkpt><trkpt lat="46.29848065177192" lon="13.100315770560345"><ele>225.0</ele><time>2026-04-12T08:49:01Z</time></trkpt><trkpt lat="46.298606168484284" lon="13.100351922220348"><ele>225.0</ele><time>2026-04-12T08:49:02Z</time></trkpt><trkpt lat="46.29873283697356" lon="13.100368671217721"><ele>225.0</ele><time>2026-04-12T08:49:03Z</time></trkpt><trkpt lat="46.29886964742735" lon="13.100351610129605"><ele>225.0</ele><time>2026-04-12T08:49:04Z</time></trkpt><trkpt lat="46.29901223406691" lon="13.100317242670846"><ele>225.75</ele><time>2026-04-12T08:49:05Z</time></trkpt><trkpt lat="46.299153603369284" lon="13.100276296337174"><ele>226.5</ele><time>2026-04-12T08:49:06Z</time></trkpt><trkpt lat="46.29929550342869" lon="13.100241796135808"><ele>227.25</ele><time>2026-04-12T08:49:07Z</time></trkpt><trkpt lat="46.299439019595226" lon="13.100205853051078"><ele>228.0</ele><time>2026-04-12T08:49:08Z</time></trkpt><trkpt lat="46.299580053073676" lon="13.100166917274905"><ele>228.0</ele><time>2026-04-12T08:49:09Z</time></trkpt><trkpt lat="46.29972002281152" lon="13.100109284632579"><ele>228.0</ele><time>2026-04-12T08:49:10Z</time></trkpt><trkpt lat="46.29985501145967" lon="13.100033054618457"><ele>228.0</ele><time>2026-04-12T08:49:11Z</time></trkpt><trkpt lat="46.29999222668399" lon="13.099959419919065"><ele>228.0</ele><time>2026-04-12T08:49:12Z</time></trkpt><trkpt lat="46.300125901909404" lon="13.09988824493043"><ele>232.25</ele><time>2026-04-12T08:49:13Z</time></trkpt><trkpt lat="46.30025793166717" lon="13.09983138489242"><ele>236.5</ele><time>2026-04-12T08:49:14Z</time></trkpt><trkpt lat="46.30039207000899" lon="13.099798981026208"><ele>240.75</ele><time>2026-04-12T08:49:15Z</time></trkpt><trkpt lat="46.30052818479705" lon="13.099786614502682"><ele>245.0</ele><time>2026-04-12T08:49:16Z</time></trkpt><trkpt lat="46.30066571277797" lon="13.099785234893227"><ele>245.0</ele><time>2026-04-12T08:49:17Z</time></trkpt><trkpt lat="46.30080881344091" lon="13.099775167410513"><ele>245.0</ele><time>2026-04-12T08:49:18Z</time></trkpt><trkpt lat="46.30094955287665" lon="13.099768994587885"><ele>245.0</ele><time>2026-04-12T08:49:19Z</time></trkpt><trkpt lat="46.30108718932823" lon="13.099776953925394"><ele>245.0</ele><time>2026-04-12T08:49:20Z</time></trkpt><trkpt lat="46.30121227487578" lon="13.099838398461989"><ele>245.0</ele><time>2026-04-12T08:49:21Z</time></trkpt><trkpt lat="46.301349385190996" lon="13.099883560775835"><ele>245.0</ele><time>2026-04-12T08:49:22Z</time></trkpt><trkpt lat="46.30148057190575" lon="13.099960040638237"><ele>245.0</ele><time>2026-04-12T08:49:23Z</time></trkpt><trkpt lat="46.301593834955646" lon="13.100018898373865"><ele>245.0</ele><time>2026-04-12T08:49:24Z</time></trkpt><trkpt lat="46.30169292905912" lon="13.100074843596634"><ele>240.6</ele><time>2026-04-12T08:49:25Z</time></trkpt><trkpt lat="46.30179835928738" lon="13.100146535302477"><ele>236.2</ele><time>2026-04-12T08:49:26Z</time></trkpt><trkpt lat="46.30189689175174" lon="13.100251107323144"><ele>231.8</ele><time>2026-04-12T08:49:27Z</time></trkpt><trkpt lat="46.30195438825485" lon="13.100378739885223"><ele>227.4</ele><time>2026-04-12T08:49:28Z</time></trkpt><trkpt lat="46.30202388979877" lon="13.100492070576271"><ele>223.0</ele><time>2026-04-12T08:49:29Z</time></trkpt><trkpt lat="46.30208106906651" lon="13.100638505308835"><ele>220.5</ele><time>2026-04-12T08:49:30Z</time></trkpt><trkpt lat="46.30214635003029" lon="13.10079031951817"><ele>218.0</ele><time>2026-04-12T08:49:31Z</time></trkpt><trkpt lat="46.302208804216605" lon="13.100952565915152"><ele>215.5</ele><time>2026-04-12T08:49:32Z</time></trkpt><trkpt lat="46.302274625548215" lon="13.101115106902952"><ele>213.0</ele><time>2026-04-12T08:49:33Z</time></trkpt><trkpt lat="46.30233148990453" lon="13.101269224415669"><ele>212.0</ele><time>2026-04-12T08:49:34Z</time></trkpt><trkpt lat="46.30239277480829" lon="13.101420660092007"><ele>211.0</ele><time>2026-04-12T08:49:35Z</time></trkpt><trkpt lat="46.30246136281736" lon="13.10157470140132"><ele>210.0</ele><time>2026-04-12T08:49:36Z</time></trkpt><trkpt lat="46.30253863953666" lon="13.101713394088948"><ele>209.0</ele><time>2026-04-12T08:49:37Z</time></trkpt><trkpt lat="46.30262968635819" lon="13.101828692109727"><ele>209.0</ele><time>2026-04-12T08:49:38Z</time></trkpt><trkpt lat="46.30273220709332" lon="13.10192954243532"><ele>209.0</ele><time>2026-04-12T08:49:39Z</time></trkpt><trkpt lat="46.30283993566276" lon="13.102017596107508"><ele>209.0</ele><time>2026-04-12T08:49:40Z</time></trkpt><trkpt lat="46.30294917670926" lon="13.102103837759513"><ele>209.0</ele><time>2026-04-12T08:49:41Z</time></trkpt><trkpt lat="46.30305688149651" lon="13.102196013762262"><ele>209.25</ele><time>2026-04-12T08:49:42Z</time></trkpt><trkpt lat="46.30316660135307" lon="13.102282620835384"><ele>209.5</ele><time>2026-04-12T08:49:43Z</time></trkpt><trkpt lat="46.30328106204292" lon="13.102367982614913"><ele>209.75</ele><time>2026-04-12T08:49:44Z</time></trkpt><trkpt lat="46.30339927176328" lon="13.102454441709357"><ele>210.0</ele><time>2026-04-12T08:49:45Z</time></trkpt><trkpt lat="46.30352056753486" lon="13.102539035207956"><ele>210.0</ele><time>2026-04-12T08:49:46Z</time></trkpt><trkpt lat="46.30365260812571" lon="13.102613851348824"><ele>210.0</ele><time>2026-04-12T08:49:47Z</time></trkpt><trkpt lat="46.30379051165609" lon="13.102690075223357"><ele>210.0</ele><time>2026-04-12T08:49:48Z</time></trkpt><trkpt lat="46.30392106773351" lon="13.102763986605067"><ele>210.0</ele><time>2026-04-12T08:49:49Z</time></trkpt><trkpt lat="46.304051245057885" lon="13.102835937126654"><ele>209.5</ele><time>2026-04-12T08:49:50Z</time></trkpt><trkpt lat="46.304182610517174" lon="13.102910628091282"><ele>209.0</ele><time>2026-04-12T08:49:51Z</time></trkpt><trkpt lat="46.30430985951707" lon="13.102986114711573"><ele>208.5</ele><time>2026-04-12T08:49:52Z</time></trkpt><trkpt lat="46.304441752489836" lon="13.103056430575888"><ele>208.0</ele><time>2026-04-12T08:49:53Z</time></trkpt><trkpt lat="46.30457328623615" lon="13.103130812286754"><ele>208.0</ele><time>2026-04-12T08:49:54Z</time></trkpt><trkpt lat="46.304702068673855" lon="13.103202667893505"><ele>208.0</ele><time>2026-04-12T08:49:55Z</time></trkpt><trkpt lat="46.30482776708572" lon="13.10327292069198"><ele>208.0</ele><time>2026-04-12T08:49:56Z</time></trkpt><trkpt lat="46.30495212390465" lon="13.10334570036793"><ele>208.0</ele><time>2026-04-12T08:49:57Z</time></trkpt><trkpt lat="46.305076752437174" lon="13.10341700565135"><ele>208.25</ele><time>2026-04-12T08:49:58Z</time></trkpt><trkpt lat="46.30520152849786" lon="13.103487042809688"><ele>208.5</ele><time>2026-04-12T08:49:59Z</time></trkpt><trkpt lat="46.30533044263751" lon="13.103555650060759"><ele>208.75</ele><time>2026-04-12T08:50:00Z</time></trkpt><trkpt lat="46.305459836307094" lon="13.103627076864976"><ele>209.0</ele><time>2026-04-12T08:50:01Z</time></trkpt><trkpt lat="46.30559287827783" lon="13.103701894570696"><ele>210.0</ele><time>2026-04-12T08:50:02Z</time></trkpt><trkpt lat="46.30572959512257" lon="13.103781156843619"><ele>211.0</ele><time>2026-04-12T08:50:03Z</time></trkpt><trkpt lat="46.30587246513787" lon="13.10386325273801"><ele>212.0</ele><time>2026-04-12T08:50:04Z</time></trkpt><trkpt lat="46.30601441871413" lon="13.103956897743878"><ele>212.0</ele><time>2026-04-12T08:50:05Z</time></trkpt><trkpt lat="46.306155882611996" lon="13.104074834873684"><ele>212.0</ele><time>2026-04-12T08:50:06Z</time></trkpt><trkpt lat="46.30629923632181" lon="13.104204162010982"><ele>212.0</ele><time>2026-04-12T08:50:07Z</time></trkpt><trkpt lat="46.306449522780746" lon="13.104344598910421"><ele>211.0</ele><time>2026-04-12T08:50:08Z</time></trkpt><trkpt lat="46.30660370671556" lon="13.104489894424027"><ele>210.0</ele><time>2026-04-12T08:50:09Z</time></trkpt><trkpt lat="46.30675949086559" lon="13.104639004156281"><ele>209.0</ele><time>2026-04-12T08:50:10Z</time></trkpt><trkpt lat="46.30690947248632" lon="13.104783110552034"><ele>209.0</ele><time>2026-04-12T08:50:11Z</time></trkpt><trkpt lat="46.3070554217598" lon="13.104923411000884"><ele>209.0</ele><time>2026-04-12T08:50:12Z</time></trkpt><trkpt lat="46.30719649848071" lon="13.105058323885205"><ele>209.0</ele><time>2026-04-12T08:50:13Z</time></trkpt><trkpt lat="46.307337938409106" lon="13.105182383694634"><ele>209.0</ele><time>2026-04-12T08:50:14Z</time></trkpt><trkpt lat="46.30748333632065" lon="13.105302847361177"><ele>209.0</ele><time>2026-04-12T08:50:15Z</time></trkpt><trkpt lat="46.307637215938534" lon="13.105407865000739"><ele>209.0</ele><time>2026-04-12T08:50:16Z</time></trkpt><trkpt lat="46.307800064686" lon="13.105508073598719"><ele>209.0</ele><time>2026-04-12T08:50:17Z</time></trkpt><trkpt lat="46.30797050210034" lon="13.105612751441846"><ele>209.0</ele><time>2026-04-12T08:50:18Z</time></trkpt><trkpt lat="46.30814775596416" lon="13.105722460806007"><ele>209.0</ele><time>2026-04-12T08:50:18.999Z</time></trkpt><trkpt lat="46.30832872781685" lon="13.10583542965481"><ele>210.33333333333334</ele><time>2026-04-12T08:50:19.999Z</time></trkpt><trkpt lat="46.30850928334654" lon="13.105944944183305"><ele>211.66666666666669</ele><time>2026-04-12T08:50:20.999Z</time></trkpt><trkpt lat="46.30869126021218" lon="13.106051651639927"><ele>213.0</ele><time>2026-04-12T08:50:21.999Z</time></trkpt><trkpt lat="46.30887298663484" lon="13.106160544379144"><ele>212.0</ele><time>2026-04-12T08:50:22.999Z</time></trkpt><trkpt lat="46.30905573227456" lon="13.106271729948839"><ele>211.0</ele><time>2026-04-12T08:50:23.999Z</time></trkpt><trkpt lat="46.3092427944969" lon="13.10637839966402"><ele>210.0</ele><time>2026-04-12T08:50:24.999Z</time></trkpt><trkpt lat="46.309429812090336" lon="13.106490699607214"><ele>210.66666666666669</ele><time>2026-04-12T08:50:25.999Z</time></trkpt><trkpt lat="46.3096144236587" lon="13.106605417425898"><ele>211.33333333333334</ele><time>2026-04-12T08:50:27Z</time></trkpt><trkpt lat="46.309801338083844" lon="13.106716660516271"><ele>212.0</ele><time>2026-04-12T08:50:28Z</time></trkpt><trkpt lat="46.30998606642807" lon="13.106828188241987"><ele>212.0</ele><time>2026-04-12T08:50:29Z</time></trkpt><trkpt lat="46.3101659308908" lon="13.106935532628107"><ele>212.0</ele><time>2026-04-12T08:50:30Z</time></trkpt><trkpt lat="46.31033690020583" lon="13.107035361423383"><ele>212.0</ele><time>2026-04-12T08:50:31Z</time></trkpt><trkpt lat="46.31049471102518" lon="13.107120744296617"><ele>212.25</ele><time>2026-04-12T08:50:32Z</time></trkpt><trkpt lat="46.31064206195738" lon="13.10719509983747"><ele>212.5</ele><time>2026-04-12T08:50:33Z</time></trkpt><trkpt lat="46.310783407684816" lon="13.107249974940302"><ele>212.75</ele><time>2026-04-12T08:50:34Z</time></trkpt><trkpt lat="46.31092504374933" lon="13.107279388312069"><ele>213.0</ele><time>2026-04-12T08:50:35Z</time></trkpt><trkpt lat="46.311065555693574" lon="13.107290176542032"><ele>213.0</ele><time>2026-04-12T08:50:36Z</time></trkpt><trkpt lat="46.311207112453964" lon="13.107277588490787"><ele>213.0</ele><time>2026-04-12T08:50:37Z</time></trkpt><trkpt lat="46.31133856836902" lon="13.107246457355426"><ele>213.0</ele><time>2026-04-12T08:50:38Z</time></trkpt><trkpt lat="46.31145933333199" lon="13.107203500679894"><ele>213.0</ele><time>2026-04-12T08:50:39Z</time></trkpt><trkpt lat="46.31157207351451" lon="13.10717256318476"><ele>213.8</ele><time>2026-04-12T08:50:40Z</time></trkpt><trkpt lat="46.31168802019661" lon="13.107153396899863"><ele>214.60000000000002</ele><time>2026-04-12T08:50:41Z</time></trkpt><trkpt lat="46.31177212101315" lon="13.10713340648218"><ele>215.39999999999998</ele><time>2026-04-12T08:50:42Z</time></trkpt><trkpt lat="46.31186371335954" lon="13.107102142903496"><ele>216.2</ele><time>2026-04-12T08:50:43Z</time></trkpt><trkpt lat="46.31196360263745" lon="13.107069182607633"><ele>217.0</ele><time>2026-04-12T08:50:44Z</time></trkpt><trkpt lat="46.31206272380472" lon="13.107037511416463"><ele>216.99999999999997</ele><time>2026-04-12T08:50:45Z</time></trkpt><trkpt lat="46.31216091089131" lon="13.107005555554984"><ele>217.0</ele><time>2026-04-12T08:50:46Z</time></trkpt><trkpt lat="46.31225884458208" lon="13.106972525765729"><ele>217.0</ele><time>2026-04-12T08:50:47Z</time></trkpt><trkpt lat="46.31235179882001" lon="13.106941019849547"><ele>217.0</ele><time>2026-04-12T08:50:48Z</time></trkpt><trkpt lat="46.31242887360454" lon="13.106915587708519"><ele>216.99999999999997</ele><time>2026-04-12T08:50:49Z</time></trkpt><trkpt lat="46.31249843137889" lon="13.106890930656785"><ele>217.0</ele><time>2026-04-12T08:50:50Z</time></trkpt><trkpt lat="46.31256320203827" lon="13.106868443805975"><ele>217.14285714285714</ele><time>2026-04-12T08:50:51Z</time></trkpt><trkpt lat="46.31262823771388" lon="13.106846553188149"><ele>217.28571428571428</ele><time>2026-04-12T08:50:52Z</time></trkpt><trkpt lat="46.312689956268464" lon="13.106826172287889"><ele>217.42857142857144</ele><time>2026-04-12T08:50:53Z</time></trkpt><trkpt lat="46.31275233367624" lon="13.106805521889486"><ele>217.57142857142856</ele><time>2026-04-12T08:50:54Z</time></trkpt><trkpt lat="46.312827009477346" lon="13.106778058504151"><ele>217.71428571428572</ele><time>2026-04-12T08:50:55Z</time></trkpt><trkpt lat="46.31290745466578" lon="13.106752864442079"><ele>217.85714285714286</ele><time>2026-04-12T08:50:56Z</time></trkpt><trkpt lat="46.31298589279473" lon="13.106726061521387"><ele>218.0</ele><time>2026-04-12T08:50:57Z</time></trkpt><trkpt lat="46.31306311457281" lon="13.106698851403209"><ele>218.2</ele><time>2026-04-12T08:50:58Z</time></trkpt><trkpt lat="46.313134274779955" lon="13.106671041196648"><ele>218.4</ele><time>2026-04-12T08:50:59Z</time></trkpt><trkpt lat="46.313203047440744" lon="13.106646020841092"><ele>218.59999999999997</ele><time>2026-04-12T08:51:00Z</time></trkpt><trkpt lat="46.31333484283497" lon="13.106587513798734"><ele>218.79999999999998</ele><time>2026-04-12T08:51:02Z</time></trkpt><trkpt lat="46.31342589967669" lon="13.106534497566791"><ele>219.0</ele><time>2026-04-12T08:51:03Z</time></trkpt><trkpt lat="46.31353049373911" lon="13.106470250986057"><ele>219.0</ele><time>2026-04-12T08:51:04Z</time></trkpt><trkpt lat="46.31363411283957" lon="13.10641296454737"><ele>218.99999999999997</ele><time>2026-04-12T08:51:05Z</time></trkpt><trkpt lat="46.3137260781942" lon="13.106353718037353"><ele>218.99999999999997</ele><time>2026-04-12T08:51:06Z</time></trkpt><trkpt lat="46.31381975737098" lon="13.10629085552442"><ele>219.0</ele><time>2026-04-12T08:51:07Z</time></trkpt><trkpt lat="46.31390877076745" lon="13.106226837620321"><ele>219.0</ele><time>2026-04-12T08:51:08Z</time></trkpt><trkpt lat="46.313990969462786" lon="13.106158771425315"><ele>219.0</ele><time>2026-04-12T08:51:09Z</time></trkpt><trkpt lat="46.31406834886207" lon="13.106098161563033"><ele>219.0</ele><time>2026-04-12T08:51:10Z</time></trkpt><trkpt lat="46.314146401785614" lon="13.106039449961417"><ele>219.0</ele><time>2026-04-12T08:51:11Z</time></trkpt><trkpt lat="46.31422406879501" lon="13.10597528196854"><ele>219.0</ele><time>2026-04-12T08:51:12Z</time></trkpt><trkpt lat="46.314299353661866" lon="13.105905503301194"><ele>219.0</ele><time>2026-04-12T08:51:13Z</time></trkpt><trkpt lat="46.31436876735336" lon="13.10583990211302"><ele>219.0</ele><time>2026-04-12T08:51:14Z</time></trkpt><trkpt lat="46.31443276351606" lon="13.105775057249177"><ele>220.16666666666666</ele><time>2026-04-12T08:51:15Z</time></trkpt><trkpt lat="46.31449001080394" lon="13.10570195342421"><ele>221.33333333333331</ele><time>2026-04-12T08:51:16Z</time></trkpt><trkpt lat="46.314543178445035" lon="13.105620601550282"><ele>222.5</ele><time>2026-04-12T08:51:17Z</time></trkpt><trkpt lat="46.3145920239057" lon="13.10552621456962"><ele>223.66666666666666</ele><time>2026-04-12T08:51:18Z</time></trkpt><trkpt lat="46.314639516737536" lon="13.10542313064257"><ele>224.83333333333331</ele><time>2026-04-12T08:51:19Z</time></trkpt><trkpt lat="46.314683505954584" lon="13.105314620179126"><ele>226.0</ele><time>2026-04-12T08:51:20Z</time></trkpt><trkpt lat="46.31472559028006" lon="13.105197363767331"><ele>226.0</ele><time>2026-04-12T08:51:21Z</time></trkpt><trkpt lat="46.31477334207033" lon="13.105061693811468"><ele>226.0</ele><time>2026-04-12T08:51:22Z</time></trkpt><trkpt lat="46.31483177425064" lon="13.104899071434264"><ele>226.0</ele><time>2026-04-12T08:51:23Z</time></trkpt><trkpt lat="46.31489765858995" lon="13.10472212005191"><ele>226.0</ele><time>2026-04-12T08:51:24Z</time></trkpt><trkpt lat="46.31496391926823" lon="13.104550797161286"><ele>226.0</ele><time>2026-04-12T08:51:25Z</time></trkpt><trkpt lat="46.315028517581695" lon="13.104386397304172"><ele>226.0</ele><time>2026-04-12T08:51:26Z</time></trkpt><trkpt lat="46.3150887344866" lon="13.104228140939005"><ele>226.0</ele><time>2026-04-12T08:51:27Z</time></trkpt><trkpt lat="46.31514251879814" lon="13.104076807957268"><ele>226.0</ele><time>2026-04-12T08:51:28Z</time></trkpt><trkpt lat="46.31519271706638" lon="13.103918352874883"><ele>227.75</ele><time>2026-04-12T08:51:29Z</time></trkpt><trkpt lat="46.31522878474568" lon="13.103753809351208"><ele>229.5</ele><time>2026-04-12T08:51:30Z</time></trkpt><trkpt lat="46.3152404653058" lon="13.103571497990485"><ele>231.25</ele><time>2026-04-12T08:51:31Z</time></trkpt><trkpt lat="46.315248727827324" lon="13.103377294298834"><ele>233.0</ele><time>2026-04-12T08:51:32Z</time></trkpt><trkpt lat="46.31525323156606" lon="13.103186578994874"><ele>233.5</ele><time>2026-04-12T08:51:33Z</time></trkpt><trkpt lat="46.31525412194889" lon="13.102984155281826"><ele>234.0</ele><time>2026-04-12T08:51:34Z</time></trkpt><trkpt lat="46.31525861199146" lon="13.102773724272895"><ele>234.5</ele><time>2026-04-12T08:51:35Z</time></trkpt><trkpt lat="46.31527049649192" lon="13.102559257208046"><ele>235.0</ele><time>2026-04-12T08:51:36Z</time></trkpt><trkpt lat="46.31528062216099" lon="13.102365315626708"><ele>233.75</ele><time>2026-04-12T08:51:37Z</time></trkpt><trkpt lat="46.315282787238246" lon="13.102184512571514"><ele>232.5</ele><time>2026-04-12T08:51:38Z</time></trkpt><trkpt lat="46.315284658178335" lon="13.10201021555165"><ele>231.25</ele><time>2026-04-12T08:51:39Z</time></trkpt><trkpt lat="46.31528747592235" lon="13.101851383231606"><ele>230.0</ele><time>2026-04-12T08:51:40Z</time></trkpt><trkpt lat="46.31529413676262" lon="13.101687898308823"><ele>230.5</ele><time>2026-04-12T08:51:41Z</time></trkpt><trkpt lat="46.31530327781174" lon="13.10151511859824"><ele>231.0</ele><time>2026-04-12T08:51:42Z</time></trkpt><trkpt lat="46.31530839824562" lon="13.101336314439111"><ele>231.5</ele><time>2026-04-12T08:51:43Z</time></trkpt><trkpt lat="46.315316251395686" lon="13.101155285984664"><ele>232.0</ele><time>2026-04-12T08:51:44Z</time></trkpt><trkpt lat="46.31532048852958" lon="13.100966472666167"><ele>232.0</ele><time>2026-04-12T08:51:45Z</time></trkpt><trkpt lat="46.31532623361627" lon="13.100779257074935"><ele>232.0</ele><time>2026-04-12T08:51:46Z</time></trkpt><trkpt lat="46.31533406076253" lon="13.100594635864752"><ele>232.0</ele><time>2026-04-12T08:51:47Z</time></trkpt><trkpt lat="46.31534197528406" lon="13.100412760184032"><ele>232.0</ele><time>2026-04-12T08:51:48Z</time></trkpt><trkpt lat="46.315363392773065" lon="13.100241195657643"><ele>232.75</ele><time>2026-04-12T08:51:49Z</time></trkpt><trkpt lat="46.315406217996646" lon="13.100074218201168"><ele>233.5</ele><time>2026-04-12T08:51:50Z</time></trkpt><trkpt lat="46.31547677603618" lon="13.099904093564886"><ele>234.25</ele><time>2026-04-12T08:51:51Z</time></trkpt><trkpt lat="46.31559078051709" lon="13.099758082450345"><ele>235.0</ele><time>2026-04-12T08:51:52Z</time></trkpt><trkpt lat="46.31569436849176" lon="13.099581646785264"><ele>235.0</ele><time>2026-04-12T08:51:53Z</time></trkpt><trkpt lat="46.315818936802124" lon="13.099449223844909"><ele>235.0</ele><time>2026-04-12T08:51:54Z</time></trkpt><trkpt lat="46.31593366259388" lon="13.099296285725543"><ele>235.0</ele><time>2026-04-12T08:51:55Z</time></trkpt><trkpt lat="46.31604929211966" lon="13.099143211681138"><ele>237.66666666666666</ele><time>2026-04-12T08:51:56Z</time></trkpt><trkpt lat="46.31615550743741" lon="13.098976756711142"><ele>240.33333333333331</ele><time>2026-04-12T08:51:57Z</time></trkpt><trkpt lat="46.31627286127466" lon="13.098826806495474"><ele>243.0</ele><time>2026-04-12T08:51:58Z</time></trkpt><trkpt lat="46.31639423753664" lon="13.098674873989792"><ele>242.66666666666669</ele><time>2026-04-12T08:51:59Z</time></trkpt><trkpt lat="46.316514307474556" lon="13.098523370415865"><ele>242.33333333333334</ele><time>2026-04-12T08:52:00Z</time></trkpt><trkpt lat="46.316619268014556" lon="13.098361906952139"><ele>242.0</ele><time>2026-04-12T08:52:01Z</time></trkpt><trkpt lat="46.31671096377892" lon="13.098178636049154"><ele>241.66666666666669</ele><time>2026-04-12T08:52:02Z</time></trkpt><trkpt lat="46.31679486322848" lon="13.097974304697347"><ele>241.33333333333331</ele><time>2026-04-12T08:52:03Z</time></trkpt><trkpt lat="46.31687576375251" lon="13.097787300367978"><ele>241.0</ele><time>2026-04-12T08:52:04Z</time></trkpt><trkpt lat="46.31694900063787" lon="13.097582891173499"><ele>242.0</ele><time>2026-04-12T08:52:05Z</time></trkpt><trkpt lat="46.31700371410233" lon="13.097349068378268"><ele>243.0</ele><time>2026-04-12T08:52:06Z</time></trkpt><trkpt lat="46.31704095087726" lon="13.09709111977306"><ele>244.0</ele><time>2026-04-12T08:52:07Z</time></trkpt><trkpt lat="46.31707300039247" lon="13.096826174974414"><ele>247.33333333333331</ele><time>2026-04-12T08:52:08Z</time></trkpt><trkpt lat="46.31710603520315" lon="13.096576272544691"><ele>250.66666666666669</ele><time>2026-04-12T08:52:09Z</time></trkpt><trkpt lat="46.31712608557908" lon="13.09631390295927"><ele>254.0</ele><time>2026-04-12T08:52:10Z</time></trkpt><trkpt lat="46.31711984805487" lon="13.09602639714701"><ele>258.33333333333337</ele><time>2026-04-12T08:52:11Z</time></trkpt><trkpt lat="46.31711054175408" lon="13.095745426603244"><ele>262.6666666666667</ele><time>2026-04-12T08:52:12Z</time></trkpt><trkpt lat="46.31710824674012" lon="13.095515839412673"><ele>267.0</ele><time>2026-04-12T08:52:13Z</time></trkpt><trkpt lat="46.31711075292339" lon="13.09531605841019"><ele>267.0</ele><time>2026-04-12T08:52:14Z</time></trkpt><trkpt lat="46.317115595969106" lon="13.095114457176724"><ele>267.0</ele><time>2026-04-12T08:52:15Z</time></trkpt><trkpt lat="46.31711919446243" lon="13.094953980591423"><ele>267.0</ele><time>2026-04-12T08:52:16Z</time></trkpt><trkpt lat="46.31712013465385" lon="13.094840537466608"><ele>267.0</ele><time>2026-04-12T08:52:17Z</time></trkpt><trkpt lat="46.31710436664417" lon="13.094743893895755"><ele>267.0</ele><time>2026-04-12T08:52:18Z</time></trkpt><trkpt lat="46.31706885917461" lon="13.094653936614204"><ele>267.0</ele><time>2026-04-12T08:52:19Z</time></trkpt><trkpt lat="46.316972123507945" lon="13.094656839895737"><ele>267.0</ele><time>2026-04-12T08:52:20Z</time></trkpt><trkpt lat="46.31689826663543" lon="13.094698439629479"><ele>267.0</ele><time>2026-04-12T08:52:21Z</time></trkpt><trkpt lat="46.31686171515352" lon="13.094869977019501"><ele>267.0</ele><time>2026-04-12T08:52:22Z</time></trkpt><trkpt lat="46.316819330005764" lon="13.095041468134493"><ele>267.0</ele><time>2026-04-12T08:52:22.999Z</time></trkpt><trkpt lat="46.31676393309976" lon="13.09515014549388"><ele>267.0</ele><time>2026-04-12T08:52:23.999Z</time></trkpt><trkpt lat="46.3167004337014" lon="13.095208774176763"><ele>267.0</ele><time>2026-04-12T08:52:24.999Z</time></trkpt><trkpt lat="46.316619414463084" lon="13.09522480342054"><ele>267.0</ele><time>2026-04-12T08:52:25.999Z</time></trkpt><trkpt lat="46.31652084592427" lon="13.095209862451863"><ele>267.0</ele><time>2026-04-12T08:52:26.999Z</time></trkpt><trkpt lat="46.31640788739529" lon="13.095170767825602"><ele>267.0</ele><time>2026-04-12T08:52:27.999Z</time></trkpt><trkpt lat="46.31628394349831" lon="13.095109518534048"><ele>267.1666666666667</ele><time>2026-04-12T08:52:28.999Z</time></trkpt><trkpt lat="46.3161912221449" lon="13.095040831174344"><ele>267.3333333333333</ele><time>2026-04-12T08:52:29.999Z</time></trkpt><trkpt lat="46.316127726630356" lon="13.094971214781259"><ele>267.5</ele><time>2026-04-12T08:52:30.999Z</time></trkpt><trkpt lat="46.31603839898794" lon="13.094891118979533"><ele>267.66666666666663</ele><time>2026-04-12T08:52:33Z</time></trkpt><trkpt lat="46.316022227959124" lon="13.09479690804538"><ele>267.8333333333333</ele><time>2026-04-12T08:52:35Z</time></trkpt><trkpt lat="46.3160866551595" lon="13.09476225917835"><ele>268.0</ele><time>2026-04-12T08:52:36Z</time></trkpt><trkpt lat="46.3161649919966" lon="13.094814034640125"><ele>268.0</ele><time>2026-04-12T08:52:37Z</time></trkpt><trkpt lat="46.31623641136692" lon="13.094904304434557"><ele>268.0</ele><time>2026-04-12T08:52:38Z</time></trkpt><trkpt lat="46.31632472345429" lon="13.094955283897981"><ele>268.0</ele><time>2026-04-12T08:52:39Z</time></trkpt><trkpt lat="46.31642944185194" lon="13.094959333769875"><ele>268.0</ele><time>2026-04-12T08:52:40Z</time></trkpt><trkpt lat="46.31652339802404" lon="13.09490097788142"><ele>268.0</ele><time>2026-04-12T08:52:41Z</time></trkpt><trkpt lat="46.31660121973636" lon="13.094787235138913"><ele>270.75</ele><time>2026-04-12T08:52:42Z</time></trkpt><trkpt lat="46.31664993911977" lon="13.094637695271883"><ele>273.5</ele><time>2026-04-12T08:52:43Z</time></trkpt><trkpt lat="46.31667275348121" lon="13.094449589383805"><ele>276.25</ele><time>2026-04-12T08:52:44Z</time></trkpt><trkpt lat="46.31669319550929" lon="13.0942277805693"><ele>279.0</ele><time>2026-04-12T08:52:45Z</time></trkpt><trkpt lat="46.31670398165816" lon="13.094026390057653"><ele>282.0</ele><time>2026-04-12T08:52:46Z</time></trkpt><trkpt lat="46.31668064422283" lon="13.093811885123808"><ele>285.0</ele><time>2026-04-12T08:52:47Z</time></trkpt><trkpt lat="46.316617783669834" lon="13.093575421361725"><ele>288.0</ele><time>2026-04-12T08:52:48Z</time></trkpt><trkpt lat="46.316544325281114" lon="13.093352646938586"><ele>290.3333333333333</ele><time>2026-04-12T08:52:49Z</time></trkpt><trkpt lat="46.316455940442346" lon="13.093176431336593"><ele>292.66666666666663</ele><time>2026-04-12T08:52:50Z</time></trkpt><trkpt lat="46.316343986852026" lon="13.093029755879291"><ele>295.0</ele><time>2026-04-12T08:52:51Z</time></trkpt><trkpt lat="46.3162348125279" lon="13.09287075338578"><ele>296.75</ele><time>2026-04-12T08:52:52Z</time></trkpt><trkpt lat="46.316161969597125" lon="13.092670743048448"><ele>298.5</ele><time>2026-04-12T08:52:53Z</time></trkpt><trkpt lat="46.316120869430065" lon="13.092484820024847"><ele>300.25</ele><time>2026-04-12T08:52:54Z</time></trkpt><trkpt lat="46.316096864932106" lon="13.092342432840406"><ele>302.0</ele><time>2026-04-12T08:52:55Z</time></trkpt><trkpt lat="46.31609558741799" lon="13.09222733605812"><ele>303.0</ele><time>2026-04-12T08:52:56Z</time></trkpt><trkpt lat="46.31611968281556" lon="13.092125191917042"><ele>304.0</ele><time>2026-04-12T08:52:57Z</time></trkpt><trkpt lat="46.3161615429461" lon="13.09201726903153"><ele>305.0</ele><time>2026-04-12T08:52:58Z</time></trkpt><trkpt lat="46.31622665885431" lon="13.091914123177965"><ele>306.0</ele><time>2026-04-12T08:52:59Z</time></trkpt><trkpt lat="46.3162910998617" lon="13.091797686520021"><ele>307.0</ele><time>2026-04-12T08:53:00Z</time></trkpt><trkpt lat="46.316330916843675" lon="13.091666598974856"><ele>307.0</ele><time>2026-04-12T08:53:01Z</time></trkpt><trkpt lat="46.31634409342001" lon="13.091542313253601"><ele>307.0</ele><time>2026-04-12T08:53:02Z</time></trkpt><trkpt lat="46.31631019563133" lon="13.09138478203272"><ele>307.0</ele><time>2026-04-12T08:53:03Z</time></trkpt><trkpt lat="46.316259324168826" lon="13.091194889296638"><ele>307.0</ele><time>2026-04-12T08:53:04Z</time></trkpt><trkpt lat="46.316216198927954" lon="13.091034237823255"><ele>307.0</ele><time>2026-04-12T08:53:05Z</time></trkpt><trkpt lat="46.31618845693233" lon="13.090896209840144"><ele>307.0</ele><time>2026-04-12T08:53:06Z</time></trkpt><trkpt lat="46.31618768852543" lon="13.090761146247404"><ele>307.0</ele><time>2026-04-12T08:53:07Z</time></trkpt><trkpt lat="46.31621790753898" lon="13.090613272650497"><ele>307.0</ele><time>2026-04-12T08:53:08Z</time></trkpt><trkpt lat="46.3162893397608" lon="13.090454053886923"><ele>307.0</ele><time>2026-04-12T08:53:09Z</time></trkpt><trkpt lat="46.316382942815856" lon="13.090255250856758"><ele>308.25</ele><time>2026-04-12T08:53:10Z</time></trkpt><trkpt lat="46.316466526568846" lon="13.09007929238692"><ele>309.5</ele><time>2026-04-12T08:53:11Z</time></trkpt><trkpt lat="46.316538168092876" lon="13.089927330534474"><ele>310.75</ele><time>2026-04-12T08:53:12Z</time></trkpt><trkpt lat="46.316615099152656" lon="13.089806318189602"><ele>312.0</ele><time>2026-04-12T08:53:13Z</time></trkpt><trkpt lat="46.31671750334891" lon="13.089717575881483"><ele>312.0</ele><time>2026-04-12T08:53:14Z</time></trkpt><trkpt lat="46.316849173301534" lon="13.089664741216755"><ele>312.0</ele><time>2026-04-12T08:53:15Z</time></trkpt><trkpt lat="46.317020752955116" lon="13.089634700254736"><ele>312.0</ele><time>2026-04-12T08:53:16Z</time></trkpt><trkpt lat="46.31723472116749" lon="13.089588489752582"><ele>314.5</ele><time>2026-04-12T08:53:17Z</time></trkpt><trkpt lat="46.31747218898899" lon="13.08952613258693"><ele>317.0</ele><time>2026-04-12T08:53:18Z</time></trkpt><trkpt lat="46.31768641957417" lon="13.0894626429408"><ele>317.0</ele><time>2026-04-12T08:53:19Z</time></trkpt><trkpt lat="46.317878221943516" lon="13.089381830317636"><ele>317.0</ele><time>2026-04-12T08:53:20Z</time></trkpt><trkpt lat="46.31805822514255" lon="13.089252293374532"><ele>317.0</ele><time>2026-04-12T08:53:21Z</time></trkpt><trkpt lat="46.31826109454597" lon="13.089059968803623"><ele>324.6666666666667</ele><time>2026-04-12T08:53:22Z</time></trkpt><trkpt lat="46.31844665284007" lon="13.088877722419586"><ele>332.3333333333333</ele><time>2026-04-12T08:53:23Z</time></trkpt><trkpt lat="46.31859006652106" lon="13.088770687931508"><ele>340.0</ele><time>2026-04-12T08:53:24Z</time></trkpt><trkpt lat="46.31873304181434" lon="13.0887102065866"><ele>340.0</ele><time>2026-04-12T08:53:25Z</time></trkpt><trkpt lat="46.31888365401441" lon="13.088697155590859"><ele>340.0</ele><time>2026-04-12T08:53:26Z</time></trkpt><trkpt lat="46.31904689222053" lon="13.088707071389694"><ele>340.0</ele><time>2026-04-12T08:53:27Z</time></trkpt><trkpt lat="46.319225942743074" lon="13.0886967149278"><ele>342.0</ele><time>2026-04-12T08:53:28Z</time></trkpt><trkpt lat="46.319430582837505" lon="13.088678929322908"><ele>344.0</ele><time>2026-04-12T08:53:29Z</time></trkpt><trkpt lat="46.3196531984804" lon="13.08865943407538"><ele>346.0</ele><time>2026-04-12T08:53:30Z</time></trkpt><trkpt lat="46.31986729100008" lon="13.088642614531118"><ele>340.0</ele><time>2026-04-12T08:53:31Z</time></trkpt><trkpt lat="46.3200581287892" lon="13.088621874016788"><ele>334.0</ele><time>2026-04-12T08:53:32Z</time></trkpt><trkpt lat="46.320238722496846" lon="13.08860050915802"><ele>328.0</ele><time>2026-04-12T08:53:33Z</time></trkpt><trkpt lat="46.32040732162728" lon="13.088573116959491"><ele>328.0</ele><time>2026-04-12T08:53:34Z</time></trkpt><trkpt lat="46.3205660380897" lon="13.088538960163957"><ele>328.0</ele><time>2026-04-12T08:53:35Z</time></trkpt><trkpt lat="46.320708165828464" lon="13.08849479875583"><ele>328.0</ele><time>2026-04-12T08:53:36Z</time></trkpt><trkpt lat="46.32084003802109" lon="13.088429532918699"><ele>328.0</ele><time>2026-04-12T08:53:37Z</time></trkpt><trkpt lat="46.32096287677483" lon="13.088321396980453"><ele>328.3333333333333</ele><time>2026-04-12T08:53:38Z</time></trkpt><trkpt lat="46.32106033983028" lon="13.088150693779333"><ele>328.6666666666667</ele><time>2026-04-12T08:53:39Z</time></trkpt><trkpt lat="46.32115517494381" lon="13.087913095922298"><ele>329.0</ele><time>2026-04-12T08:53:40Z</time></trkpt><trkpt lat="46.321260340851374" lon="13.08764383437111"><ele>332.6666666666667</ele><time>2026-04-12T08:53:41Z</time></trkpt><trkpt lat="46.32135242228297" lon="13.087375253017974"><ele>336.3333333333333</ele><time>2026-04-12T08:53:42Z</time></trkpt><trkpt lat="46.32143490506465" lon="13.087139400074125"><ele>340.0</ele><time>2026-04-12T08:53:43Z</time></trkpt><trkpt lat="46.321514826137324" lon="13.086932688041102"><ele>332.5</ele><time>2026-04-12T08:53:44Z</time></trkpt><trkpt lat="46.32158624745061" lon="13.086745462811288"><ele>325.0</ele><time>2026-04-12T08:53:45Z</time></trkpt><trkpt lat="46.32165837890312" lon="13.086576426587195"><ele>317.5</ele><time>2026-04-12T08:53:46Z</time></trkpt><trkpt lat="46.3217373773839" lon="13.08643558650936"><ele>310.0</ele><time>2026-04-12T08:53:47Z</time></trkpt><trkpt lat="46.321831849889485" lon="13.086330660072598"><ele>309.5</ele><time>2026-04-12T08:53:48Z</time></trkpt><trkpt lat="46.32194098802297" lon="13.086273333920905"><ele>309.0</ele><time>2026-04-12T08:53:49Z</time></trkpt><trkpt lat="46.322082184507686" lon="13.08624843806081"><ele>308.5</ele><time>2026-04-12T08:53:50Z</time></trkpt><trkpt lat="46.32223284230184" lon="13.086243359817823"><ele>308.0</ele><time>2026-04-12T08:53:51Z</time></trkpt><trkpt lat="46.32237178974221" lon="13.086244896334817"><ele>306.75</ele><time>2026-04-12T08:53:52Z</time></trkpt><trkpt lat="46.32249192651883" lon="13.086249108807374"><ele>305.5</ele><time>2026-04-12T08:53:53Z</time></trkpt><trkpt lat="46.32260779527507" lon="13.08627731475402"><ele>304.25</ele><time>2026-04-12T08:53:54Z</time></trkpt><trkpt lat="46.3227159564326" lon="13.08634727244937"><ele>303.0</ele><time>2026-04-12T08:53:55Z</time></trkpt><trkpt lat="46.32278998348704" lon="13.08650106741649"><ele>304.25</ele><time>2026-04-12T08:53:56Z</time></trkpt><trkpt lat="46.322898153015224" lon="13.08665346009995"><ele>305.5</ele><time>2026-04-12T08:53:57Z</time></trkpt><trkpt lat="46.32298696095217" lon="13.086829580064297"><ele>306.75</ele><time>2026-04-12T08:53:58Z</time></trkpt><trkpt lat="46.32307582008423" lon="13.086978640382853"><ele>308.0</ele><time>2026-04-12T08:53:59Z</time></trkpt><trkpt lat="46.323161018487525" lon="13.087124513784"><ele>306.33333333333337</ele><time>2026-04-12T08:54:00Z</time></trkpt><trkpt lat="46.32323302996321" lon="13.087246660105505"><ele>304.6666666666667</ele><time>2026-04-12T08:54:01Z</time></trkpt><trkpt lat="46.323293721985095" lon="13.087351113443294"><ele>303.0</ele><time>2026-04-12T08:54:02Z</time></trkpt><trkpt lat="46.323347133095" lon="13.087432463614148"><ele>301.3333333333333</ele><time>2026-04-12T08:54:03Z</time></trkpt><trkpt lat="46.323406984297144" lon="13.087486947078624"><ele>299.66666666666663</ele><time>2026-04-12T08:54:04Z</time></trkpt><trkpt lat="46.32347567506741" lon="13.08749892746565"><ele>298.0</ele><time>2026-04-12T08:54:05Z</time></trkpt><trkpt lat="46.323540541265274" lon="13.087455935556205"><ele>296.0</ele><time>2026-04-12T08:54:06Z</time></trkpt><trkpt lat="46.32359097231858" lon="13.087347897813778"><ele>294.0</ele><time>2026-04-12T08:54:07Z</time></trkpt><trkpt lat="46.32359552279011" lon="13.08721409575297"><ele>292.0</ele><time>2026-04-12T08:54:08Z</time></trkpt><trkpt lat="46.32355319248147" lon="13.087066205586702"><ele>290.0</ele><time>2026-04-12T08:54:09Z</time></trkpt><trkpt lat="46.32351696035262" lon="13.086883797915654"><ele>288.0</ele><time>2026-04-12T08:54:10Z</time></trkpt><trkpt lat="46.32346200436785" lon="13.086690983226914"><ele>286.25</ele><time>2026-04-12T08:54:11Z</time></trkpt><trkpt lat="46.3234404746261" lon="13.086513737384434"><ele>284.5</ele><time>2026-04-12T08:54:12Z</time></trkpt><trkpt lat="46.323430548015594" lon="13.086345332162646"><ele>282.75</ele><time>2026-04-12T08:54:13Z</time></trkpt><trkpt lat="46.32343559464369" lon="13.086176523470813"><ele>281.0</ele><time>2026-04-12T08:54:14Z</time></trkpt><trkpt lat="46.323456502570444" lon="13.086009742608946"><ele>281.0</ele><time>2026-04-12T08:54:15Z</time></trkpt><trkpt lat="46.32348791273149" lon="13.085842424501788"><ele>281.0</ele><time>2026-04-12T08:54:16Z</time></trkpt><trkpt lat="46.32353420588585" lon="13.085671419391161"><ele>281.0</ele><time>2026-04-12T08:54:17Z</time></trkpt><trkpt lat="46.32358850928046" lon="13.085499698196541"><ele>281.0</ele><time>2026-04-12T08:54:18Z</time></trkpt><trkpt lat="46.32365258877758" lon="13.085359511537506"><ele>280.25</ele><time>2026-04-12T08:54:19Z</time></trkpt><trkpt lat="46.323724944601814" lon="13.085243314979838"><ele>279.5</ele><time>2026-04-12T08:54:20Z</time></trkpt><trkpt lat="46.323806353716456" lon="13.08513963987347"><ele>278.75</ele><time>2026-04-12T08:54:21Z</time></trkpt><trkpt lat="46.32390124203631" lon="13.085036205536946"><ele>278.0</ele><time>2026-04-12T08:54:22Z</time></trkpt><trkpt lat="46.323994088180164" lon="13.084919156771681"><ele>274.25</ele><time>2026-04-12T08:54:23Z</time></trkpt><trkpt lat="46.32406820238296" lon="13.08477045170144"><ele>270.5</ele><time>2026-04-12T08:54:24Z</time></trkpt><trkpt lat="46.324121243823136" lon="13.084598570838677"><ele>266.75</ele><time>2026-04-12T08:54:24.999Z</time></trkpt><trkpt lat="46.324169028313285" lon="13.084419685446704"><ele>263.0</ele><time>2026-04-12T08:54:25.999Z</time></trkpt><trkpt lat="46.32421963651231" lon="13.084274971730744"><ele>263.0</ele><time>2026-04-12T08:54:26.999Z</time></trkpt><trkpt lat="46.324286803554905" lon="13.08415647765248"><ele>263.0</ele><time>2026-04-12T08:54:27.999Z</time></trkpt><trkpt lat="46.32439231284104" lon="13.084052271357487"><ele>263.0</ele><time>2026-04-12T08:54:28.999Z</time></trkpt><trkpt lat="46.324529531120575" lon="13.083959137853679"><ele>263.0</ele><time>2026-04-12T08:54:29.999Z</time></trkpt><trkpt lat="46.324655790027926" lon="13.083859710329396"><ele>262.0</ele><time>2026-04-12T08:54:30.999Z</time></trkpt><trkpt lat="46.32477046172367" lon="13.0837607134334"><ele>261.0</ele><time>2026-04-12T08:54:31.999Z</time></trkpt><trkpt lat="46.32488610665601" lon="13.083651364049578"><ele>260.0</ele><time>2026-04-12T08:54:32.999Z</time></trkpt><trkpt lat="46.32500020495902" lon="13.083541854234989"><ele>259.0</ele><time>2026-04-12T08:54:33.999Z</time></trkpt><trkpt lat="46.32510298738977" lon="13.083439599784176"><ele>259.0</ele><time>2026-04-12T08:54:34.999Z</time></trkpt><trkpt lat="46.32519566275853" lon="13.083339127638698"><ele>259.0</ele><time>2026-04-12T08:54:35.999Z</time></trkpt><trkpt lat="46.32529219136827" lon="13.08322936907544"><ele>259.0</ele><time>2026-04-12T08:54:36.999Z</time></trkpt><trkpt lat="46.32538873774259" lon="13.083107179675885"><ele>259.0</ele><time>2026-04-12T08:54:37.999Z</time></trkpt><trkpt lat="46.32548248511806" lon="13.082981231886848"><ele>257.75</ele><time>2026-04-12T08:54:39Z</time></trkpt><trkpt lat="46.32557705686902" lon="13.082858016787235"><ele>256.5</ele><time>2026-04-12T08:54:40Z</time></trkpt><trkpt lat="46.325669574064385" lon="13.082738118181426"><ele>255.25</ele><time>2026-04-12T08:54:41Z</time></trkpt><trkpt lat="46.325756854292365" lon="13.082613125997462"><ele>254.0</ele><time>2026-04-12T08:54:42Z</time></trkpt><trkpt lat="46.32584279990567" lon="13.082492244716795"><ele>253.0</ele><time>2026-04-12T08:54:43Z</time></trkpt><trkpt lat="46.32593719162167" lon="13.082378681186643"><ele>252.0</ele><time>2026-04-12T08:54:44Z</time></trkpt><trkpt lat="46.32603740230628" lon="13.08227138560554"><ele>251.0</ele><time>2026-04-12T08:54:45Z</time></trkpt><trkpt lat="46.326138898644444" lon="13.082167221278368"><ele>250.0</ele><time>2026-04-12T08:54:46Z</time></trkpt><trkpt lat="46.32624086127763" lon="13.082060430005514"><ele>250.0</ele><time>2026-04-12T08:54:47Z</time></trkpt><trkpt lat="46.32634104509321" lon="13.081958628095922"><ele>250.0</ele><time>2026-04-12T08:54:48Z</time></trkpt><trkpt lat="46.32644428326621" lon="13.081865802432976"><ele>250.0</ele><time>2026-04-12T08:54:49Z</time></trkpt><trkpt lat="46.32654066709938" lon="13.08178774951508"><ele>250.0</ele><time>2026-04-12T08:54:50Z</time></trkpt><trkpt lat="46.326619693495864" lon="13.081722702053877"><ele>250.0</ele><time>2026-04-12T08:54:51Z</time></trkpt><trkpt lat="46.3266882648286" lon="13.081663995119099"><ele>249.66666666666666</ele><time>2026-04-12T08:54:52Z</time></trkpt><trkpt lat="46.32674881947913" lon="13.08161294826626"><ele>249.33333333333331</ele><time>2026-04-12T08:54:53Z</time></trkpt><trkpt lat="46.32680872950983" lon="13.081580034020202"><ele>249.0</ele><time>2026-04-12T08:54:54Z</time></trkpt><trkpt lat="46.32691311734292" lon="13.081602754839864"><ele>248.66666666666669</ele><time>2026-04-12T08:54:56Z</time></trkpt><trkpt lat="46.327000164567444" lon="13.081653864395973"><ele>248.33333333333334</ele><time>2026-04-12T08:54:59Z</time></trkpt><trkpt lat="46.327076337955376" lon="13.081699801790535"><ele>248.0</ele><time>2026-04-12T08:55:32Z</time></trkpt><trkpt lat="46.327178993858" lon="13.08183908352035"><ele>247.25</ele><time>2026-04-12T08:55:34Z</time></trkpt><trkpt lat="46.32724387353412" lon="13.081966879949768"><ele>246.5</ele><time>2026-04-12T08:55:35Z</time></trkpt><trkpt lat="46.327347035753476" lon="13.082130649331823"><ele>245.75</ele><time>2026-04-12T08:55:36Z</time></trkpt><trkpt lat="46.327466211692865" lon="13.08230793745438"><ele>245.0</ele><time>2026-04-12T08:55:37Z</time></trkpt><trkpt lat="46.3275965443032" lon="13.082479481394529"><ele>245.0</ele><time>2026-04-12T08:55:38Z</time></trkpt><trkpt lat="46.327730721638225" lon="13.08263593560921"><ele>245.0</ele><time>2026-04-12T08:55:39Z</time></trkpt><trkpt lat="46.32787579333574" lon="13.082784216080581"><ele>245.0</ele><time>2026-04-12T08:55:40Z</time></trkpt><trkpt lat="46.328031410235994" lon="13.082920152807072"><ele>247.33333333333334</ele><time>2026-04-12T08:55:41Z</time></trkpt><trkpt lat="46.32819799385294" lon="13.083048845638045"><ele>249.66666666666669</ele><time>2026-04-12T08:55:42Z</time></trkpt><trkpt lat="46.328388656561025" lon="13.083165645453144"><ele>252.0</ele><time>2026-04-12T08:55:43Z</time></trkpt><trkpt lat="46.32859257441012" lon="13.083273051455382"><ele>260.6666666666667</ele><time>2026-04-12T08:55:44Z</time></trkpt><trkpt lat="46.32880190564246" lon="13.08336338595711"><ele>269.33333333333337</ele><time>2026-04-12T08:55:45Z</time></trkpt><trkpt lat="46.32901879146885" lon="13.08342698559107"><ele>278.0</ele><time>2026-04-12T08:55:46Z</time></trkpt><trkpt lat="46.32923698420939" lon="13.083462261372384"><ele>287.6666666666667</ele><time>2026-04-12T08:55:47Z</time></trkpt><trkpt lat="46.32946849415538" lon="13.083479770257561"><ele>297.3333333333333</ele><time>2026-04-12T08:55:48.059Z</time></trkpt><trkpt lat="46.329684363714975" lon="13.083471906308072"><ele>307.0</ele><time>2026-04-12T08:55:49.058Z</time></trkpt><trkpt lat="46.32989398255056" lon="13.083440234008748"><ele>318.0</ele><time>2026-04-12T08:55:50.049Z</time></trkpt><trkpt lat="46.330103234737855" lon="13.08339798468938"><ele>329.0</ele><time>2026-04-12T08:55:51.052Z</time></trkpt><trkpt lat="46.33195234497231" lon="13.081992835847098"><ele>286.5</ele><time>2026-04-12T08:55:55.772Z</time></trkpt><trkpt lat="46.3323334101619" lon="13.081651340540294"><ele>244.0</ele><time>2026-04-12T08:55:56.769Z</time></trkpt><trkpt lat="46.33271924715237" lon="13.081314180869844"><ele>226.0</ele><time>2026-04-12T08:55:57.772Z</time></trkpt><trkpt lat="46.3332564514794" lon="13.081261300499824"><ele>199.0</ele><time>2026-04-12T08:56:06Z</time></trkpt><trkpt lat="46.33345181805043" lon="13.080635913475174"><ele>199.0</ele><time>2026-04-12T08:56:07Z</time></trkpt><trkpt lat="46.33368062673466" lon="13.080514153408345"><ele>199.0</ele><time>2026-04-12T08:56:08Z</time></trkpt><trkpt lat="46.33385646213371" lon="13.08038482342468"><ele>199.0</ele><time>2026-04-12T08:56:09Z</time></trkpt><trkpt lat="46.3340690216437" lon="13.08028494331686"><ele>208.0</ele><time>2026-04-12T08:56:10Z</time></trkpt><trkpt lat="46.33428571560129" lon="13.080172806801901"><ele>217.0</ele><time>2026-04-12T08:56:11Z</time></trkpt><trkpt lat="46.33451898774647" lon="13.080054326098042"><ele>213.5</ele><time>2026-04-12T08:56:12Z</time></trkpt><trkpt lat="46.334755738776934" lon="13.079945238883809"><ele>210.0</ele><time>2026-04-12T08:56:13Z</time></trkpt><trkpt lat="46.33499146456901" lon="13.079839957548586"><ele>210.0</ele><time>2026-04-12T08:56:14Z</time></trkpt><trkpt lat="46.335225633077776" lon="13.079725269637287"><ele>210.0</ele><time>2026-04-12T08:56:15Z</time></trkpt><trkpt lat="46.3354654149479" lon="13.079596857210909"><ele>208.5</ele><time>2026-04-12T08:56:16Z</time></trkpt><trkpt lat="46.33570812777639" lon="13.079443856157933"><ele>207.0</ele><time>2026-04-12T08:56:17Z</time></trkpt><trkpt lat="46.33594490614939" lon="13.079278491473413"><ele>207.0</ele><time>2026-04-12T08:56:18Z</time></trkpt><trkpt lat="46.33619220189344" lon="13.079119570412391"><ele>207.0</ele><time>2026-04-12T08:56:19Z</time></trkpt><trkpt lat="46.336453154158114" lon="13.078977323311966"><ele>200.0</ele><time>2026-04-12T08:56:20Z</time></trkpt><trkpt lat="46.33672945268161" lon="13.078849162148483"><ele>193.0</ele><time>2026-04-12T08:56:21Z</time></trkpt><trkpt lat="46.337018010714395" lon="13.078725491939243"><ele>197.0</ele><time>2026-04-12T08:56:22Z</time></trkpt><trkpt lat="46.337305803983305" lon="13.078599335225194"><ele>201.0</ele><time>2026-04-12T08:56:23Z</time></trkpt><trkpt lat="46.33758375577083" lon="13.078473006760914"><ele>201.0</ele><time>2026-04-12T08:56:24Z</time></trkpt><trkpt lat="46.3378582423524" lon="13.078347913715096"><ele>201.0</ele><time>2026-04-12T08:56:25Z</time></trkpt><trkpt lat="46.33812088504878" lon="13.07822702730621"><ele>197.0</ele><time>2026-04-12T08:56:26Z</time></trkpt><trkpt lat="46.338362604236785" lon="13.07811482728793"><ele>193.0</ele><time>2026-04-12T08:56:27Z</time></trkpt><trkpt lat="46.33858674922109" lon="13.078006158850734"><ele>193.0</ele><time>2026-04-12T08:56:28Z</time></trkpt><trkpt lat="46.3388013934706" lon="13.077933017290388"><ele>193.0</ele><time>2026-04-12T08:56:29Z</time></trkpt><trkpt lat="46.338996261700494" lon="13.077845108091314"><ele>193.0</ele><time>2026-04-12T08:56:29.999Z</time></trkpt><trkpt lat="46.339182926068524" lon="13.077760899766387"><ele>192.0</ele><time>2026-04-12T08:56:30.999Z</time></trkpt><trkpt lat="46.33936464107918" lon="13.077665004621656"><ele>191.0</ele><time>2026-04-12T08:56:31.999Z</time></trkpt><trkpt lat="46.339529732640614" lon="13.077544069335362"><ele>190.0</ele><time>2026-04-12T08:56:32.999Z</time></trkpt><trkpt lat="46.33966590185843" lon="13.077375466785229"><ele>193.66666666666669</ele><time>2026-04-12T08:56:33.999Z</time></trkpt><trkpt lat="46.33980895725266" lon="13.077173818915668"><ele>197.33333333333334</ele><time>2026-04-12T08:56:34.999Z</time></trkpt><trkpt lat="46.33992983379436" lon="13.076927972101593"><ele>201.0</ele><time>2026-04-12T08:56:35.999Z</time></trkpt><trkpt lat="46.34004128379537" lon="13.076665276802581"><ele>199.0</ele><time>2026-04-12T08:56:36.999Z</time></trkpt><trkpt lat="46.34014638765957" lon="13.076439677269809"><ele>197.0</ele><time>2026-04-12T08:56:37.999Z</time></trkpt><trkpt lat="46.34026291756884" lon="13.076235765639757"><ele>195.0</ele><time>2026-04-12T08:56:38.999Z</time></trkpt><trkpt lat="46.34040578687791" lon="13.076086802776178"><ele>196.33333333333331</ele><time>2026-04-12T08:56:39.999Z</time></trkpt><trkpt lat="46.34055796917206" lon="13.075974388491172"><ele>197.66666666666666</ele><time>2026-04-12T08:56:40.999Z</time></trkpt><trkpt lat="46.340739952545384" lon="13.07591242717555"><ele>199.0</ele><time>2026-04-12T08:56:41.999Z</time></trkpt><trkpt lat="46.34094201763847" lon="13.075840354140755"><ele>199.0</ele><time>2026-04-12T08:56:42.999Z</time></trkpt><trkpt lat="46.34115463570754" lon="13.075782917205057"><ele>199.0</ele><time>2026-04-12T08:56:43.999Z</time></trkpt><trkpt lat="46.34136473882591" lon="13.075708304821775"><ele>199.0</ele><time>2026-04-12T08:56:45Z</time></trkpt><trkpt lat="46.34156670570532" lon="13.075633291489723"><ele>197.66666666666666</ele><time>2026-04-12T08:56:46Z</time></trkpt><trkpt lat="46.34175788973737" lon="13.075549820474277"><ele>196.33333333333331</ele><time>2026-04-12T08:56:47Z</time></trkpt><trkpt lat="46.3419419139405" lon="13.075455181755494"><ele>195.0</ele><time>2026-04-12T08:56:48Z</time></trkpt><trkpt lat="46.342130199796195" lon="13.07538331073173"><ele>196.33333333333331</ele><time>2026-04-12T08:56:49Z</time></trkpt><trkpt lat="46.34231924275458" lon="13.07529003618183"><ele>197.66666666666666</ele><time>2026-04-12T08:56:50Z</time></trkpt><trkpt lat="46.342517491419436" lon="13.075193897764903"><ele>199.0</ele><time>2026-04-12T08:56:51Z</time></trkpt><trkpt lat="46.34272463020431" lon="13.075093570173868"><ele>199.0</ele><time>2026-04-12T08:56:52Z</time></trkpt><trkpt lat="46.34293824534272" lon="13.074990106058603"><ele>199.0</ele><time>2026-04-12T08:56:53Z</time></trkpt><trkpt lat="46.343153696646645" lon="13.074880286803543"><ele>197.0</ele><time>2026-04-12T08:56:54Z</time></trkpt><trkpt lat="46.343364927192084" lon="13.074763010689919"><ele>195.0</ele><time>2026-04-12T08:56:55Z</time></trkpt><trkpt lat="46.343569666576876" lon="13.07462736881101"><ele>195.0</ele><time>2026-04-12T08:56:56Z</time></trkpt><trkpt lat="46.34376103596948" lon="13.074478443277451"><ele>195.0</ele><time>2026-04-12T08:56:57Z</time></trkpt><trkpt lat="46.34394144147771" lon="13.074325317907357"><ele>195.0</ele><time>2026-04-12T08:56:58Z</time></trkpt><trkpt lat="46.344105168877945" lon="13.074173930587607"><ele>195.66666666666669</ele><time>2026-04-12T08:56:59Z</time></trkpt><trkpt lat="46.34425780443014" lon="13.074029334575549"><ele>196.33333333333334</ele><time>2026-04-12T08:57:00Z</time></trkpt><trkpt lat="46.34439340066792" lon="13.073868519181838"><ele>197.0</ele><time>2026-04-12T08:57:01Z</time></trkpt><trkpt lat="46.34452399708457" lon="13.07372090512778"><ele>197.0</ele><time>2026-04-12T08:57:02Z</time></trkpt><trkpt lat="46.34465161133526" lon="13.073575082813935"><ele>197.0</ele><time>2026-04-12T08:57:03Z</time></trkpt><trkpt lat="46.34477878391815" lon="13.073410729243182"><ele>197.0</ele><time>2026-04-12T08:57:04Z</time></trkpt><trkpt lat="46.34479316780602" lon="13.073057918288107"><ele>199.0</ele><time>2026-04-12T08:57:05Z</time></trkpt><trkpt lat="46.34486537872806" lon="13.072785717674725"><ele>201.0</ele><time>2026-04-12T08:57:06Z</time></trkpt><trkpt lat="46.3449431495526" lon="13.072522920918642"><ele>203.0</ele><time>2026-04-12T08:57:07Z</time></trkpt><trkpt lat="46.345038931859285" lon="13.072277972845207"><ele>203.0</ele><time>2026-04-12T08:57:08Z</time></trkpt><trkpt lat="46.345162297318055" lon="13.072044070094433"><ele>203.0</ele><time>2026-04-12T08:57:09Z</time></trkpt><trkpt lat="46.34528954854153" lon="13.071798226648239"><ele>203.0</ele><time>2026-04-12T08:57:10Z</time></trkpt><trkpt lat="46.34541029894129" lon="13.07155544605414"><ele>204.0</ele><time>2026-04-12T08:57:11Z</time></trkpt><trkpt lat="46.345528891945186" lon="13.07131619499325"><ele>205.0</ele><time>2026-04-12T08:57:12Z</time></trkpt><trkpt lat="46.34564246926511" lon="13.071085069460018"><ele>206.0</ele><time>2026-04-12T08:57:13Z</time></trkpt><trkpt lat="46.34575046637276" lon="13.070866772409136"><ele>204.66666666666669</ele><time>2026-04-12T08:57:14Z</time></trkpt><trkpt lat="46.34585028096004" lon="13.070665063569333"><ele>203.33333333333331</ele><time>2026-04-12T08:57:15Z</time></trkpt><trkpt lat="46.34593422822925" lon="13.070482114907588"><ele>202.0</ele><time>2026-04-12T08:57:16Z</time></trkpt><trkpt lat="46.34602037557778" lon="13.070299676707092"><ele>202.0</ele><time>2026-04-12T08:57:17Z</time></trkpt><trkpt lat="46.34611274152743" lon="13.07010028910277"><ele>202.0</ele><time>2026-04-12T08:57:18Z</time></trkpt><trkpt lat="46.346208456762895" lon="13.069904767002681"><ele>202.0</ele><time>2026-04-12T08:57:19Z</time></trkpt><trkpt lat="46.34630091308722" lon="13.06971597884601"><ele>203.0</ele><time>2026-04-12T08:57:20Z</time></trkpt><trkpt lat="46.34638552612823" lon="13.06952291952736"><ele>204.0</ele><time>2026-04-12T08:57:21Z</time></trkpt><trkpt lat="46.34646414968288" lon="13.06932385969984"><ele>205.0</ele><time>2026-04-12T08:57:22Z</time></trkpt><trkpt lat="46.34653519568672" lon="13.069128914638595"><ele>204.25</ele><time>2026-04-12T08:57:23Z</time></trkpt><trkpt lat="46.34659795179483" lon="13.068938917889625"><ele>203.5</ele><time>2026-04-12T08:57:24Z</time></trkpt><trkpt lat="46.346658863342945" lon="13.06874531349071"><ele>202.75</ele><time>2026-04-12T08:57:25Z</time></trkpt><trkpt lat="46.346709429912934" lon="13.068548474510685"><ele>202.0</ele><time>2026-04-12T08:57:26Z</time></trkpt><trkpt lat="46.34674957198842" lon="13.068350397946139"><ele>201.25</ele><time>2026-04-12T08:57:27Z</time></trkpt><trkpt lat="46.346785618694625" lon="13.068137218014849"><ele>200.5</ele><time>2026-04-12T08:57:28Z</time></trkpt><trkpt lat="46.34682534847817" lon="13.067928070917127"><ele>199.75</ele><time>2026-04-12T08:57:29Z</time></trkpt><trkpt lat="46.34687084884232" lon="13.067730899667387"><ele>199.0</ele><time>2026-04-12T08:57:30Z</time></trkpt><trkpt lat="46.34691909954561" lon="13.06755675344428"><ele>199.5</ele><time>2026-04-12T08:57:31Z</time></trkpt><trkpt lat="46.346969388873006" lon="13.067393703441464"><ele>200.0</ele><time>2026-04-12T08:57:32Z</time></trkpt><trkpt lat="46.34703617988328" lon="13.067241918244086"><ele>200.5</ele><time>2026-04-12T08:57:33Z</time></trkpt><trkpt lat="46.34712910924346" lon="13.067122101100745"><ele>201.0</ele><time>2026-04-12T08:57:34Z</time></trkpt><trkpt lat="46.34725407815544" lon="13.067015150926562"><ele>201.33333333333331</ele><time>2026-04-12T08:57:35Z</time></trkpt><trkpt lat="46.347389947874824" lon="13.066889306548674"><ele>201.66666666666666</ele><time>2026-04-12T08:57:36Z</time></trkpt><trkpt lat="46.34753393565036" lon="13.06675081502534"><ele>202.0</ele><time>2026-04-12T08:57:37Z</time></trkpt><trkpt lat="46.3476707163458" lon="13.066610726112186"><ele>204.25</ele><time>2026-04-12T08:57:38Z</time></trkpt><trkpt lat="46.3477994892375" lon="13.066467839473109"><ele>206.5</ele><time>2026-04-12T08:57:39Z</time></trkpt><trkpt lat="46.34791689702826" lon="13.066334294657262"><ele>208.75</ele><time>2026-04-12T08:57:40Z</time></trkpt><trkpt lat="46.348018618189464" lon="13.06622082573186"><ele>211.0</ele><time>2026-04-12T08:57:41Z</time></trkpt><trkpt lat="46.34812811687977" lon="13.066122197289092"><ele>215.0</ele><time>2026-04-12T08:57:42Z</time></trkpt><trkpt lat="46.34825446270492" lon="13.06607028290792"><ele>219.0</ele><time>2026-04-12T08:57:43Z</time></trkpt><trkpt lat="46.348392329661934" lon="13.066062631695972"><ele>223.0</ele><time>2026-04-12T08:57:44Z</time></trkpt><trkpt lat="46.348530723541025" lon="13.06610927913729"><ele>227.0</ele><time>2026-04-12T08:57:45Z</time></trkpt><trkpt lat="46.34866200036691" lon="13.066216576470334"><ele>227.0</ele><time>2026-04-12T08:57:46Z</time></trkpt><trkpt lat="46.348780840248146" lon="13.066368283137722"><ele>227.0</ele><time>2026-04-12T08:57:47Z</time></trkpt><trkpt lat="46.34888015045264" lon="13.066562344812827"><ele>227.0</ele><time>2026-04-12T08:57:48Z</time></trkpt><trkpt lat="46.34895601575034" lon="13.06671844324594"><ele>227.8</ele><time>2026-04-12T08:57:49Z</time></trkpt><trkpt lat="46.349025689910945" lon="13.066846280340632"><ele>228.6</ele><time>2026-04-12T08:57:50Z</time></trkpt><trkpt lat="46.34908215259555" lon="13.06696986820289"><ele>229.40000000000003</ele><time>2026-04-12T08:57:51Z</time></trkpt><trkpt lat="46.34910909889267" lon="13.06708838566613"><ele>230.20000000000002</ele><time>2026-04-12T08:57:52Z</time></trkpt><trkpt lat="46.349109642993106" lon="13.067227226547201"><ele>231.0</ele><time>2026-04-12T08:57:53Z</time></trkpt><trkpt lat="46.34905833998409" lon="13.0673549006414"><ele>230.0</ele><time>2026-04-12T08:57:54Z</time></trkpt><trkpt lat="46.34897764895649" lon="13.067450126647907"><ele>229.00000000000003</ele><time>2026-04-12T08:57:55Z</time></trkpt><trkpt lat="46.348913745678296" lon="13.067529064232765"><ele>228.00000000000003</ele><time>2026-04-12T08:57:56Z</time></trkpt><trkpt lat="46.34889380179568" lon="13.067713287750077"><ele>227.0</ele><time>2026-04-12T08:57:58Z</time></trkpt><trkpt lat="46.34894097057481" lon="13.067811113790482"><ele>226.0</ele><time>2026-04-12T08:57:59Z</time></trkpt><trkpt lat="46.34902612847973" lon="13.067865164982328"><ele>226.0</ele><time>2026-04-12T08:58:00Z</time></trkpt><trkpt lat="46.34912790610117" lon="13.0678581993214"><ele>226.0</ele><time>2026-04-12T08:58:01Z</time></trkpt><trkpt lat="46.34925624429507" lon="13.067816012365904"><ele>226.0</ele><time>2026-04-12T08:58:02Z</time></trkpt><trkpt lat="46.34942048031459" lon="13.067765451973937"><ele>226.0</ele><time>2026-04-12T08:58:03Z</time></trkpt><trkpt lat="46.34960590124931" lon="13.067704967186605"><ele>231.33333333333331</ele><time>2026-04-12T08:58:04Z</time></trkpt><trkpt lat="46.34975642494049" lon="13.067650256023969"><ele>236.66666666666669</ele><time>2026-04-12T08:58:05Z</time></trkpt><trkpt lat="46.349904933548004" lon="13.06760023055433"><ele>242.0</ele><time>2026-04-12T08:58:06Z</time></trkpt><trkpt lat="46.35004810206906" lon="13.067551521790955"><ele>242.0</ele><time>2026-04-12T08:58:07Z</time></trkpt><trkpt lat="46.35018638123942" lon="13.067499238933346"><ele>242.0</ele><time>2026-04-12T08:58:08Z</time></trkpt><trkpt lat="46.35030939905307" lon="13.067413834346535"><ele>242.0</ele><time>2026-04-12T08:58:09Z</time></trkpt><trkpt lat="46.35041987458644" lon="13.067257835727359"><ele>242.0</ele><time>2026-04-12T08:58:10Z</time></trkpt><trkpt lat="46.35052093192821" lon="13.067046855921792"><ele>245.66666666666669</ele><time>2026-04-12T08:58:11Z</time></trkpt><trkpt lat="46.350633060247816" lon="13.06681083753397"><ele>249.33333333333331</ele><time>2026-04-12T08:58:12Z</time></trkpt><trkpt lat="46.350762949370484" lon="13.066588841496364"><ele>253.0</ele><time>2026-04-12T08:58:13Z</time></trkpt><trkpt lat="46.35091793245802" lon="13.066385262297757"><ele>255.66666666666666</ele><time>2026-04-12T08:58:14Z</time></trkpt><trkpt lat="46.35107468047754" lon="13.066189499103784"><ele>258.3333333333333</ele><time>2026-04-12T08:58:15Z</time></trkpt><trkpt lat="46.35122238067086" lon="13.06601563820173"><ele>261.0</ele><time>2026-04-12T08:58:16Z</time></trkpt><trkpt lat="46.35138897116251" lon="13.065866180824402"><ele>261.6666666666667</ele><time>2026-04-12T08:58:17Z</time></trkpt><trkpt lat="46.35158324967517" lon="13.065732736020898"><ele>262.33333333333337</ele><time>2026-04-12T08:58:18Z</time></trkpt><trkpt lat="46.35177440445482" lon="13.065607321249752"><ele>263.0</ele><time>2026-04-12T08:58:19Z</time></trkpt><trkpt lat="46.35193589976374" lon="13.065503799468672"><ele>263.0</ele><time>2026-04-12T08:58:20Z</time></trkpt><trkpt lat="46.35208255954087" lon="13.065372214652063"><ele>263.0</ele><time>2026-04-12T08:58:21Z</time></trkpt><trkpt lat="46.35222528220459" lon="13.065176789266772"><ele>263.0</ele><time>2026-04-12T08:58:22Z</time></trkpt><trkpt lat="46.3523632715631" lon="13.064926887156789"><ele>261.5</ele><time>2026-04-12T08:58:23Z</time></trkpt><trkpt lat="46.35250988237916" lon="13.064623195222543"><ele>260.0</ele><time>2026-04-12T08:58:24Z</time></trkpt><trkpt lat="46.35265508200022" lon="13.064324538175349"><ele>263.33333333333337</ele><time>2026-04-12T08:58:25Z</time></trkpt><trkpt lat="46.3527863489338" lon="13.064083596302206"><ele>266.6666666666667</ele><time>2026-04-12T08:58:26Z</time></trkpt><trkpt lat="46.35292993450607" lon="13.063871452475032"><ele>270.0</ele><time>2026-04-12T08:58:27Z</time></trkpt><trkpt lat="46.35308750972706" lon="13.063678173499785"><ele>270.0</ele><time>2026-04-12T08:58:28Z</time></trkpt><trkpt lat="46.35324535402205" lon="13.063499723148215"><ele>270.0</ele><time>2026-04-12T08:58:29Z</time></trkpt><trkpt lat="46.35339776718501" lon="13.063334065760037"><ele>270.0</ele><time>2026-04-12T08:58:30Z</time></trkpt><trkpt lat="46.353550373589485" lon="13.063196316785502"><ele>270.0</ele><time>2026-04-12T08:58:31Z</time></trkpt><trkpt lat="46.35371205913777" lon="13.063080843201057"><ele>270.0</ele><time>2026-04-12T08:58:31.999Z</time></trkpt><trkpt lat="46.35388263110479" lon="13.062991267675672"><ele>270.0</ele><time>2026-04-12T08:58:32.999Z</time></trkpt><trkpt lat="46.35405961420635" lon="13.062925987077831"><ele>268.6666666666667</ele><time>2026-04-12T08:58:33.999Z</time></trkpt><trkpt lat="46.354252976894834" lon="13.06291722024998"><ele>267.33333333333337</ele><time>2026-04-12T08:58:34.999Z</time></trkpt><trkpt lat="46.35445845569794" lon="13.062915735260738"><ele>266.0</ele><time>2026-04-12T08:58:35.999Z</time></trkpt><trkpt lat="46.354654814894275" lon="13.062917200216342"><ele>267.25</ele><time>2026-04-12T08:58:36.999Z</time></trkpt><trkpt lat="46.354823509821436" lon="13.062917627561394"><ele>268.5</ele><time>2026-04-12T08:58:37.999Z</time></trkpt><trkpt lat="46.35496262577512" lon="13.062907205649672"><ele>269.75</ele><time>2026-04-12T08:58:38.999Z</time></trkpt><trkpt lat="46.35507075985583" lon="13.062964014016183"><ele>271.0</ele><time>2026-04-12T08:58:39.999Z</time></trkpt><trkpt lat="46.35515568640429" lon="13.063094289107179"><ele>271.0</ele><time>2026-04-12T08:58:40.999Z</time></trkpt><trkpt lat="46.35525439914873" lon="13.063260965743687"><ele>271.0</ele><time>2026-04-12T08:58:41.999Z</time></trkpt><trkpt lat="46.35532557862274" lon="13.063444312526089"><ele>271.0</ele><time>2026-04-12T08:58:42.999Z</time></trkpt><trkpt lat="46.35539302492724" lon="13.06356549421424"><ele>271.0</ele><time>2026-04-12T08:58:43.999Z</time></trkpt><trkpt lat="46.35548408954235" lon="13.06363010751494"><ele>275.0</ele><time>2026-04-12T08:58:44.999Z</time></trkpt><trkpt lat="46.355595526048205" lon="13.063654879158369"><ele>279.0</ele><time>2026-04-12T08:58:45.999Z</time></trkpt><trkpt lat="46.35570725500013" lon="13.063615949759434"><ele>283.0</ele><time>2026-04-12T08:58:46.999Z</time></trkpt><trkpt lat="46.35580436574835" lon="13.063490257815511"><ele>287.0</ele><time>2026-04-12T08:58:47.999Z</time></trkpt><trkpt lat="46.355870447600225" lon="13.063311059095291"><ele>287.0</ele><time>2026-04-12T08:58:48.999Z</time></trkpt><trkpt lat="46.35587723972012" lon="13.063099675156389"><ele>287.0</ele><time>2026-04-12T08:58:49.999Z</time></trkpt><trkpt lat="46.35588007502393" lon="13.062846520535054"><ele>287.0</ele><time>2026-04-12T08:58:51Z</time></trkpt><trkpt lat="46.355905524309165" lon="13.062562645180225"><ele>286.5</ele><time>2026-04-12T08:58:52Z</time></trkpt><trkpt lat="46.35595409206165" lon="13.062240971474516"><ele>286.0</ele><time>2026-04-12T08:58:53Z</time></trkpt><trkpt lat="46.356011104562995" lon="13.061905470106076"><ele>287.0</ele><time>2026-04-12T08:58:54Z</time></trkpt><trkpt lat="46.356065930332164" lon="13.06161316272583"><ele>288.0</ele><time>2026-04-12T08:58:55Z</time></trkpt><trkpt lat="46.3561189486016" lon="13.061340454907837"><ele>289.0</ele><time>2026-04-12T08:58:56Z</time></trkpt><trkpt lat="46.3561727001414" lon="13.061072636490783"><ele>289.0</ele><time>2026-04-12T08:58:57Z</time></trkpt><trkpt lat="46.35622679842938" lon="13.06079721825165"><ele>289.0</ele><time>2026-04-12T08:58:58Z</time></trkpt><trkpt lat="46.35628121950646" lon="13.060519589010818"><ele>289.0</ele><time>2026-04-12T08:58:59Z</time></trkpt><trkpt lat="46.35634545632318" lon="13.060240766468935"><ele>298.66666666666663</ele><time>2026-04-12T08:59:00Z</time></trkpt><trkpt lat="46.356426342419894" lon="13.05996951584432"><ele>308.3333333333333</ele><time>2026-04-12T08:59:01Z</time></trkpt><trkpt lat="46.356511614909685" lon="13.059708831230742"><ele>318.0</ele><time>2026-04-12T08:59:02Z</time></trkpt><trkpt lat="46.35659392220178" lon="13.05945913133977"><ele>318.6666666666667</ele><time>2026-04-12T08:59:03Z</time></trkpt><trkpt lat="46.356665903779316" lon="13.05920945720994"><ele>319.33333333333337</ele><time>2026-04-12T08:59:04Z</time></trkpt><trkpt lat="46.356726281484995" lon="13.058953664194028"><ele>320.0</ele><time>2026-04-12T08:59:05Z</time></trkpt><trkpt lat="46.35677512303317" lon="13.058686724135342"><ele>323.33333333333337</ele><time>2026-04-12T08:59:06Z</time></trkpt><trkpt lat="46.3568256186953" lon="13.058418730534697"><ele>326.6666666666667</ele><time>2026-04-12T08:59:07Z</time></trkpt><trkpt lat="46.356880274723935" lon="13.058155705882076"><ele>330.0</ele><time>2026-04-12T08:59:08Z</time></trkpt><trkpt lat="46.35693295022461" lon="13.05789696278446"><ele>331.3333333333333</ele><time>2026-04-12T08:59:09Z</time></trkpt><trkpt lat="46.356981512531064" lon="13.057641989957206"><ele>332.66666666666663</ele><time>2026-04-12T08:59:10Z</time></trkpt><trkpt lat="46.35702885785718" lon="13.057394375278365"><ele>334.0</ele><time>2026-04-12T08:59:11Z</time></trkpt><trkpt lat="46.357078892385495" lon="13.057170726504921"><ele>334.66666666666663</ele><time>2026-04-12T08:59:12Z</time></trkpt><trkpt lat="46.35713248775103" lon="13.056961443904703"><ele>335.3333333333333</ele><time>2026-04-12T08:59:13Z</time></trkpt><trkpt lat="46.3571910228453" lon="13.056747889261613"><ele>336.0</ele><time>2026-04-12T08:59:14Z</time></trkpt><trkpt lat="46.35724793639329" lon="13.05652645244158"><ele>325.0</ele><time>2026-04-12T08:59:15Z</time></trkpt><trkpt lat="46.35730025167708" lon="13.056298913817306"><ele>314.0</ele><time>2026-04-12T08:59:16Z</time></trkpt><trkpt lat="46.357328777797164" lon="13.056059313600942"><ele>303.0</ele><time>2026-04-12T08:59:17Z</time></trkpt><trkpt lat="46.35733484269657" lon="13.055813281963784"><ele>300.6666666666667</ele><time>2026-04-12T08:59:18Z</time></trkpt><trkpt lat="46.35731642498491" lon="13.055557527185746"><ele>298.33333333333337</ele><time>2026-04-12T08:59:19Z</time></trkpt><trkpt lat="46.35729085793816" lon="13.05529594373275"><ele>296.0</ele><time>2026-04-12T08:59:20Z</time></trkpt><trkpt lat="46.357273893434815" lon="13.05503874290976"><ele>294.6666666666667</ele><time>2026-04-12T08:59:21Z</time></trkpt><trkpt lat="46.35727649967905" lon="13.054797210517451"><ele>293.3333333333333</ele><time>2026-04-12T08:59:22Z</time></trkpt><trkpt lat="46.3572981198908" lon="13.054579700684991"><ele>292.0</ele><time>2026-04-12T08:59:23Z</time></trkpt><trkpt lat="46.35735015857877" lon="13.054385540915147"><ele>292.0</ele><time>2026-04-12T08:59:24Z</time></trkpt><trkpt lat="46.357436526325806" lon="13.054198987484806"><ele>292.0</ele><time>2026-04-12T08:59:25Z</time></trkpt><trkpt lat="46.35756872642981" lon="13.054030740445471"><ele>292.0</ele><time>2026-04-12T08:59:26Z</time></trkpt><trkpt lat="46.3577316316949" lon="13.053886667913504"><ele>293.0</ele><time>2026-04-12T08:59:27Z</time></trkpt><trkpt lat="46.35790496416709" lon="13.053747583267624"><ele>294.0</ele><time>2026-04-12T08:59:28Z</time></trkpt><trkpt lat="46.3580879260958" lon="13.053600497519847"><ele>295.0</ele><time>2026-04-12T08:59:29Z</time></trkpt><trkpt lat="46.358273588387306" lon="13.053430716673583"><ele>286.5</ele><time>2026-04-12T08:59:30Z</time></trkpt><trkpt lat="46.35845750146693" lon="13.053236628671574"><ele>278.0</ele><time>2026-04-12T08:59:31Z</time></trkpt><trkpt lat="46.35864049782038" lon="13.053019234533403"><ele>278.0</ele><time>2026-04-12T08:59:32Z</time></trkpt><trkpt lat="46.35881771533179" lon="13.052797581843983"><ele>278.0</ele><time>2026-04-12T08:59:33Z</time></trkpt><trkpt lat="46.3589883635341" lon="13.052571541269273"><ele>278.5</ele><time>2026-04-12T08:59:34Z</time></trkpt><trkpt lat="46.35914839626515" lon="13.052327750604995"><ele>279.0</ele><time>2026-04-12T08:59:35Z</time></trkpt><trkpt lat="46.35929637014318" lon="13.052072517225948"><ele>279.0</ele><time>2026-04-12T08:59:36Z</time></trkpt><trkpt lat="46.35943851772773" lon="13.051804833155696"><ele>279.0</ele><time>2026-04-12T08:59:37Z</time></trkpt><trkpt lat="46.3595799789329" lon="13.051529649248009"><ele>284.6666666666667</ele><time>2026-04-12T08:59:38Z</time></trkpt><trkpt lat="46.35970827739251" lon="13.05125777153591"><ele>290.33333333333337</ele><time>2026-04-12T08:59:39Z</time></trkpt><trkpt lat="46.35981022327195" lon="13.050978961137275"><ele>296.0</ele><time>2026-04-12T08:59:40Z</time></trkpt><trkpt lat="46.3598829785162" lon="13.050659342171004"><ele>296.0</ele><time>2026-04-12T08:59:41Z</time></trkpt><trkpt lat="46.35994668682232" lon="13.050278537474039"><ele>296.0</ele><time>2026-04-12T08:59:42Z</time></trkpt><trkpt lat="46.360018775991385" lon="13.049841780492415"><ele>292.5</ele><time>2026-04-12T08:59:43Z</time></trkpt><trkpt lat="46.36008270915467" lon="13.049466245400446"><ele>289.0</ele><time>2026-04-12T08:59:44Z</time></trkpt><trkpt lat="46.36015419206085" lon="13.049148668690723"><ele>288.3333333333333</ele><time>2026-04-12T08:59:45Z</time></trkpt><trkpt lat="46.360188494332995" lon="13.048859799220843"><ele>287.6666666666667</ele><time>2026-04-12T08:59:46Z</time></trkpt><trkpt lat="46.36023366641703" lon="13.048592663076166"><ele>287.0</ele><time>2026-04-12T08:59:47Z</time></trkpt><trkpt lat="46.3602677270478" lon="13.048343777356632"><ele>285.0</ele><time>2026-04-12T08:59:48Z</time></trkpt><trkpt lat="46.3602897155573" lon="13.048106373780739"><ele>283.0</ele><time>2026-04-12T08:59:49Z</time></trkpt><trkpt lat="46.360347595253806" lon="13.047873488731367"><ele>281.0</ele><time>2026-04-12T08:59:50Z</time></trkpt><trkpt lat="46.36041085433957" lon="13.047622541381775"><ele>280.33333333333337</ele><time>2026-04-12T08:59:51Z</time></trkpt><trkpt lat="46.360466314062656" lon="13.047351485116991"><ele>279.6666666666667</ele><time>2026-04-12T08:59:52Z</time></trkpt><trkpt lat="46.36054589580149" lon="13.047111549742366"><ele>279.0</ele><time>2026-04-12T08:59:53Z</time></trkpt><trkpt lat="46.3605830778605" lon="13.046864511726403"><ele>287.0</ele><time>2026-04-12T08:59:54Z</time></trkpt><trkpt lat="46.360623820404946" lon="13.046625971033993"><ele>295.0</ele><time>2026-04-12T08:59:55Z</time></trkpt><trkpt lat="46.36067138197645" lon="13.046408774336012"><ele>303.0</ele><time>2026-04-12T08:59:56Z</time></trkpt><trkpt lat="46.36068355572014" lon="13.046208738286811"><ele>303.0</ele><time>2026-04-12T08:59:57Z</time></trkpt><trkpt lat="46.36071090075444" lon="13.046029630706181"><ele>303.0</ele><time>2026-04-12T08:59:58Z</time></trkpt><trkpt lat="46.36073614715384" lon="13.045871861132195"><ele>303.0</ele><time>2026-04-12T08:59:59Z</time></trkpt><trkpt lat="46.360780630213384" lon="13.045738903238584"><ele>303.0</ele><time>2026-04-12T09:00:00Z</time></trkpt><trkpt lat="46.36085757865185" lon="13.045631420462158"><ele>303.0</ele><time>2026-04-12T09:00:01Z</time></trkpt><trkpt lat="46.360979328528" lon="13.045580091828112"><ele>303.0</ele><time>2026-04-12T09:00:02Z</time></trkpt><trkpt lat="46.36112007475035" lon="13.045509967981781"><ele>303.0</ele><time>2026-04-12T09:00:03Z</time></trkpt><trkpt lat="46.361263360514045" lon="13.04541807890511"><ele>303.0</ele><time>2026-04-12T09:00:04Z</time></trkpt><trkpt lat="46.36141993366855" lon="13.045341325059708"><ele>305.6666666666667</ele><time>2026-04-12T09:00:05Z</time></trkpt><trkpt lat="46.361582437408146" lon="13.045286325310828"><ele>308.33333333333337</ele><time>2026-04-12T09:00:06Z</time></trkpt><trkpt lat="46.36174064744459" lon="13.045205648697449"><ele>311.0</ele><time>2026-04-12T09:00:07Z</time></trkpt><trkpt lat="46.36189062510528" lon="13.045119249523529"><ele>311.0</ele><time>2026-04-12T09:00:08Z</time></trkpt><trkpt lat="46.36203656602856" lon="13.045004089812045"><ele>311.0</ele><time>2026-04-12T09:00:09Z</time></trkpt><trkpt lat="46.36217949080585" lon="13.044835301513688"><ele>311.0</ele><time>2026-04-12T09:00:10Z</time></trkpt><trkpt lat="46.362336648333034" lon="13.044648899669138"><ele>312.0</ele><time>2026-04-12T09:00:11Z</time></trkpt><trkpt lat="46.362497164705694" lon="13.044429371772406"><ele>313.0</ele><time>2026-04-12T09:00:12Z</time></trkpt><trkpt lat="46.362662503898356" lon="13.04420216086641"><ele>314.0</ele><time>2026-04-12T09:00:13Z</time></trkpt><trkpt lat="46.36283539722674" lon="13.04400351802648"><ele>314.0</ele><time>2026-04-12T09:00:14Z</time></trkpt><trkpt lat="46.36299002901117" lon="13.043791326293832"><ele>314.0</ele><time>2026-04-12T09:00:15Z</time></trkpt><trkpt lat="46.363128516531894" lon="13.043569313583113"><ele>314.0</ele><time>2026-04-12T09:00:16Z</time></trkpt><trkpt lat="46.363268141758375" lon="13.04336401500141"><ele>312.6666666666667</ele><time>2026-04-12T09:00:17Z</time></trkpt><trkpt lat="46.36339149750066" lon="13.04315285377798"><ele>311.3333333333333</ele><time>2026-04-12T09:00:18Z</time></trkpt><trkpt lat="46.36350212834953" lon="13.042925561272058"><ele>310.0</ele><time>2026-04-12T09:00:19Z</time></trkpt><trkpt lat="46.3636033754704" lon="13.042676935664733"><ele>311.0</ele><time>2026-04-12T09:00:20Z</time></trkpt><trkpt lat="46.363705698748966" lon="13.042425418412668"><ele>312.0</ele><time>2026-04-12T09:00:21Z</time></trkpt><trkpt lat="46.36380850874309" lon="13.042171477812945"><ele>313.0</ele><time>2026-04-12T09:00:22Z</time></trkpt><trkpt lat="46.36390963989905" lon="13.04191306231281"><ele>305.66666666666663</ele><time>2026-04-12T09:00:23Z</time></trkpt><trkpt lat="46.36401607468496" lon="13.041638671266192"><ele>298.3333333333333</ele><time>2026-04-12T09:00:24Z</time></trkpt><trkpt lat="46.36412666516951" lon="13.041357479931863"><ele>291.0</ele><time>2026-04-12T09:00:25Z</time></trkpt><trkpt lat="46.36424279068196" lon="13.041067464577603"><ele>294.5</ele><time>2026-04-12T09:00:26Z</time></trkpt><trkpt lat="46.36435546698402" lon="13.040773570824543"><ele>298.0</ele><time>2026-04-12T09:00:27Z</time></trkpt><trkpt lat="46.36445795376997" lon="13.04046609038672"><ele>298.0</ele><time>2026-04-12T09:00:28Z</time></trkpt><trkpt lat="46.36455198780564" lon="13.040151734750168"><ele>298.0</ele><time>2026-04-12T09:00:29Z</time></trkpt><trkpt lat="46.36463831414416" lon="13.039829983497622"><ele>290.5</ele><time>2026-04-12T09:00:30Z</time></trkpt><trkpt lat="46.36472609043489" lon="13.039507299318712"><ele>283.0</ele><time>2026-04-12T09:00:31Z</time></trkpt><trkpt lat="46.36481580681657" lon="13.039183658427357"><ele>284.5</ele><time>2026-04-12T09:00:32Z</time></trkpt><trkpt lat="46.364907310419525" lon="13.038855502946483"><ele>286.0</ele><time>2026-04-12T09:00:33Z</time></trkpt><trkpt lat="46.36500438207337" lon="13.038514490718287"><ele>286.5</ele><time>2026-04-12T09:00:34Z</time></trkpt><trkpt lat="46.3651035160213" lon="13.03816358854507"><ele>287.0</ele><time>2026-04-12T09:00:35Z</time></trkpt><trkpt lat="46.36520350245753" lon="13.037805896330358"><ele>287.5</ele><time>2026-04-12T09:00:36Z</time></trkpt><trkpt lat="46.36530332508496" lon="13.037449032546112"><ele>288.0</ele><time>2026-04-12T09:00:36.999Z</time></trkpt><trkpt lat="46.36540229460228" lon="13.037096837001602"><ele>288.0</ele><time>2026-04-12T09:00:37.999Z</time></trkpt><trkpt lat="46.365498551946956" lon="13.036756274360396"><ele>288.0</ele><time>2026-04-12T09:00:38.999Z</time></trkpt><trkpt lat="46.36558981244916" lon="13.036430809596244"><ele>288.5</ele><time>2026-04-12T09:00:39.999Z</time></trkpt><trkpt lat="46.36568280741759" lon="13.036118491429985"><ele>289.0</ele><time>2026-04-12T09:00:40.999Z</time></trkpt><trkpt lat="46.36578569766413" lon="13.03582537936462"><ele>288.66666666666663</ele><time>2026-04-12T09:00:41.999Z</time></trkpt><trkpt lat="46.36589618091399" lon="13.035544899218046"><ele>288.3333333333333</ele><time>2026-04-12T09:00:42.999Z</time></trkpt><trkpt lat="46.366020364315155" lon="13.035274586022723"><ele>288.0</ele><time>2026-04-12T09:00:43.999Z</time></trkpt><trkpt lat="46.36615882123178" lon="13.035012900019833"><ele>287.6666666666667</ele><time>2026-04-12T09:00:44.999Z</time></trkpt><trkpt lat="46.366303571183" lon="13.034767045988403"><ele>287.33333333333337</ele><time>2026-04-12T09:00:45.999Z</time></trkpt><trkpt lat="46.36645380174911" lon="13.034533370307798"><ele>287.0</ele><time>2026-04-12T09:00:46.999Z</time></trkpt><trkpt lat="46.36660777372972" lon="13.034306270690065"><ele>285.5</ele><time>2026-04-12T09:00:47.999Z</time></trkpt><trkpt lat="46.366810078522946" lon="13.034806862633667"><ele>284.0</ele><time>2026-04-12T09:00:48.999Z</time></trkpt><trkpt lat="46.36714155482299" lon="13.033754974610543"><ele>284.6666666666667</ele><time>2026-04-12T09:00:50.999Z</time></trkpt><trkpt lat="46.36733665147834" lon="13.033606028263648"><ele>285.3333333333333</ele><time>2026-04-12T09:00:51.999Z</time></trkpt><trkpt lat="46.36753856453933" lon="13.033471831764981"><ele>286.0</ele><time>2026-04-12T09:00:52.999Z</time></trkpt><trkpt lat="46.3677511514221" lon="13.033355221821024"><ele>285.5</ele><time>2026-04-12T09:00:53.999Z</time></trkpt><trkpt lat="46.36797361469474" lon="13.033253605870613"><ele>285.0</ele><time>2026-04-12T09:00:54.999Z</time></trkpt><trkpt lat="46.3682020160389" lon="13.033161512851622"><ele>284.5</ele><time>2026-04-12T09:00:55.999Z</time></trkpt><trkpt lat="46.368437704129335" lon="13.033079819591242"><ele>284.0</ele><time>2026-04-12T09:00:57Z</time></trkpt><trkpt lat="46.368669671137525" lon="13.032997017888782"><ele>285.33333333333337</ele><time>2026-04-12T09:00:58Z</time></trkpt><trkpt lat="46.3688820347929" lon="13.032920436193471"><ele>286.6666666666667</ele><time>2026-04-12T09:00:59Z</time></trkpt><trkpt lat="46.36908000430853" lon="13.032850802761997"><ele>288.0</ele><time>2026-04-12T09:01:00Z</time></trkpt><trkpt lat="46.3692652634838" lon="13.03278267934429"><ele>288.0</ele><time>2026-04-12T09:01:01Z</time></trkpt><trkpt lat="46.369435877036445" lon="13.032725586577987"><ele>288.0</ele><time>2026-04-12T09:01:02Z</time></trkpt><trkpt lat="46.36959638966051" lon="13.03267300898901"><ele>288.0</ele><time>2026-04-12T09:01:03Z</time></trkpt><trkpt lat="46.369749655267576" lon="13.032604195238337"><ele>288.3333333333333</ele><time>2026-04-12T09:01:04Z</time></trkpt><trkpt lat="46.36989704268083" lon="13.032501670313415"><ele>288.66666666666663</ele><time>2026-04-12T09:01:05Z</time></trkpt><trkpt lat="46.37003773477108" lon="13.032353363065218"><ele>289.0</ele><time>2026-04-12T09:01:06Z</time></trkpt><trkpt lat="46.37017105468442" lon="13.03216581647176"><ele>289.0</ele><time>2026-04-12T09:01:07Z</time></trkpt><trkpt lat="46.37030422898561" lon="13.031976749314499"><ele>289.0</ele><time>2026-04-12T09:01:08Z</time></trkpt><trkpt lat="46.370443382584604" lon="13.031817305254828"><ele>289.0</ele><time>2026-04-12T09:01:09Z</time></trkpt><trkpt lat="46.370608683258894" lon="13.031701824566264"><ele>287.66666666666663</ele><time>2026-04-12T09:01:10Z</time></trkpt><trkpt lat="46.37079996887953" lon="13.031610345171924"><ele>286.3333333333333</ele><time>2026-04-12T09:01:11Z</time></trkpt><trkpt lat="46.37100213190132" lon="13.031498563203536"><ele>285.0</ele><time>2026-04-12T09:01:12Z</time></trkpt><trkpt lat="46.371214961247134" lon="13.031375913288995"><ele>285.0</ele><time>2026-04-12T09:01:13Z</time></trkpt><trkpt lat="46.37142489847661" lon="13.031258500957591"><ele>285.0</ele><time>2026-04-12T09:01:14Z</time></trkpt><trkpt lat="46.371627395769906" lon="13.031148478298176"><ele>285.0</ele><time>2026-04-12T09:01:15Z</time></trkpt><trkpt lat="46.37182599598751" lon="13.03103671459298"><ele>285.0</ele><time>2026-04-12T09:01:16Z</time></trkpt><trkpt lat="46.372019823889055" lon="13.030924146833195"><ele>285.0</ele><time>2026-04-12T09:01:17Z</time></trkpt><trkpt lat="46.37220967293861" lon="13.03081486466751"><ele>285.0</ele><time>2026-04-12T09:01:18Z</time></trkpt><trkpt lat="46.372404554019404" lon="13.030705332150594"><ele>285.3333333333333</ele><time>2026-04-12T09:01:19Z</time></trkpt><trkpt lat="46.37260271494537" lon="13.030598268240054"><ele>285.66666666666663</ele><time>2026-04-12T09:01:20Z</time></trkpt><trkpt lat="46.37279758664345" lon="13.03049443268902"><ele>286.0</ele><time>2026-04-12T09:01:21Z</time></trkpt><trkpt lat="46.372988758513415" lon="13.03039094846641"><ele>287.66666666666663</ele><time>2026-04-12T09:01:22Z</time></trkpt><trkpt lat="46.37317712944207" lon="13.030284548412553"><ele>289.3333333333333</ele><time>2026-04-12T09:01:23Z</time></trkpt><trkpt lat="46.37336510651965" lon="13.030185941676358"><ele>291.0</ele><time>2026-04-12T09:01:24Z</time></trkpt><trkpt lat="46.37355328713591" lon="13.030104707064297"><ele>291.0</ele><time>2026-04-12T09:01:25Z</time></trkpt><trkpt lat="46.37374522091005" lon="13.03004852895315"><ele>291.0</ele><time>2026-04-12T09:01:26Z</time></trkpt><trkpt lat="46.37393810482721" lon="13.030010554179315"><ele>291.0</ele><time>2026-04-12T09:01:27Z</time></trkpt><trkpt lat="46.374139428724675" lon="13.0299783483445"><ele>291.3333333333333</ele><time>2026-04-12T09:01:28Z</time></trkpt><trkpt lat="46.37434561258118" lon="13.029951146748981"><ele>291.66666666666663</ele><time>2026-04-12T09:01:29Z</time></trkpt><trkpt lat="46.37456080395745" lon="13.029921972875709"><ele>292.0</ele><time>2026-04-12T09:01:30Z</time></trkpt><trkpt lat="46.37478076407568" lon="13.029890555176102"><ele>293.5</ele><time>2026-04-12T09:01:31Z</time></trkpt><trkpt lat="46.37500443169665" lon="13.02985908422882"><ele>295.0</ele><time>2026-04-12T09:01:32Z</time></trkpt><trkpt lat="46.3752316955772" lon="13.029833506036432"><ele>295.0</ele><time>2026-04-12T09:01:33Z</time></trkpt><trkpt lat="46.375461766014496" lon="13.029815703534485"><ele>295.0</ele><time>2026-04-12T09:01:34Z</time></trkpt><trkpt lat="46.375691105136404" lon="13.029800517304292"><ele>294.5</ele><time>2026-04-12T09:01:35Z</time></trkpt><trkpt lat="46.375919070716954" lon="13.029789694796682"><ele>294.0</ele><time>2026-04-12T09:01:36Z</time></trkpt><trkpt lat="46.37614333227373" lon="13.029776440330169"><ele>292.3333333333333</ele><time>2026-04-12T09:01:37Z</time></trkpt><trkpt lat="46.37636156819973" lon="13.029766070830153"><ele>290.66666666666663</ele><time>2026-04-12T09:01:38Z</time></trkpt><trkpt lat="46.37656034436259" lon="13.029755404912462"><ele>289.0</ele><time>2026-04-12T09:01:39Z</time></trkpt><trkpt lat="46.3767454245931" lon="13.029740171798155"><ele>289.0</ele><time>2026-04-12T09:01:40Z</time></trkpt><trkpt lat="46.3769126710368" lon="13.029712377550148"><ele>289.0</ele><time>2026-04-12T09:01:41Z</time></trkpt><trkpt lat="46.37708898323285" lon="13.029649313533248"><ele>289.0</ele><time>2026-04-12T09:01:42Z</time></trkpt><trkpt lat="46.37726687780923" lon="13.029546686724046"><ele>291.66666666666663</ele><time>2026-04-12T09:01:43Z</time></trkpt><trkpt lat="46.37744616696946" lon="13.029425615141456"><ele>294.3333333333333</ele><time>2026-04-12T09:01:44Z</time></trkpt><trkpt lat="46.377630270267346" lon="13.029300930822467"><ele>297.0</ele><time>2026-04-12T09:01:45Z</time></trkpt><trkpt lat="46.377810728074536" lon="13.029183361218587"><ele>297.0</ele><time>2026-04-12T09:01:46Z</time></trkpt><trkpt lat="46.37797773539962" lon="13.029080497616757"><ele>297.0</ele><time>2026-04-12T09:01:47Z</time></trkpt><trkpt lat="46.37812382075124" lon="13.028985286596297"><ele>297.0</ele><time>2026-04-12T09:01:48Z</time></trkpt><trkpt lat="46.37825751966286" lon="13.028882562808265"><ele>297.0</ele><time>2026-04-12T09:01:49Z</time></trkpt><trkpt lat="46.3783744663552" lon="13.02874038221449"><ele>297.0</ele><time>2026-04-12T09:01:50Z</time></trkpt><trkpt lat="46.37846960366874" lon="13.028550946886016"><ele>297.0</ele><time>2026-04-12T09:01:51Z</time></trkpt><trkpt lat="46.3785362979515" lon="13.028316530695376"><ele>296.6666666666667</ele><time>2026-04-12T09:01:52Z</time></trkpt><trkpt lat="46.37858175917905" lon="13.028043891317678"><ele>296.33333333333337</ele><time>2026-04-12T09:01:53Z</time></trkpt><trkpt lat="46.37862486069108" lon="13.027774826513319"><ele>296.0</ele><time>2026-04-12T09:01:54Z</time></trkpt><trkpt lat="46.37866693450546" lon="13.027541489963447"><ele>297.6666666666667</ele><time>2026-04-12T09:01:55Z</time></trkpt><trkpt lat="46.378716252475705" lon="13.027339570407602"><ele>299.3333333333333</ele><time>2026-04-12T09:01:56Z</time></trkpt><trkpt lat="46.378800678814756" lon="13.02714342693462"><ele>301.0</ele><time>2026-04-12T09:01:57Z</time></trkpt><trkpt lat="46.37892641820476" lon="13.026959648604901"><ele>303.0</ele><time>2026-04-12T09:01:58Z</time></trkpt><trkpt lat="46.37904617225728" lon="13.026764395507284"><ele>305.0</ele><time>2026-04-12T09:01:59Z</time></trkpt><trkpt lat="46.37915254098343" lon="13.026584059716892"><ele>307.0</ele><time>2026-04-12T09:02:00Z</time></trkpt><trkpt lat="46.37925303222003" lon="13.026440196462381"><ele>307.0</ele><time>2026-04-12T09:02:01Z</time></trkpt><trkpt lat="46.379365703961405" lon="13.026325243613162"><ele>307.0</ele><time>2026-04-12T09:02:02Z</time></trkpt><trkpt lat="46.379485573264354" lon="13.026255675949734"><ele>307.0</ele><time>2026-04-12T09:02:03Z</time></trkpt><trkpt lat="46.37957517351542" lon="13.02615569346706"><ele>307.0</ele><time>2026-04-12T09:02:04Z</time></trkpt><trkpt lat="46.37962945260055" lon="13.026015185305942"><ele>307.0</ele><time>2026-04-12T09:02:05Z</time></trkpt><trkpt lat="46.37964689944666" lon="13.02583952541605"><ele>307.0</ele><time>2026-04-12T09:02:06Z</time></trkpt><trkpt lat="46.379627983283264" lon="13.025641815354302"><ele>307.0</ele><time>2026-04-12T09:02:07Z</time></trkpt><trkpt lat="46.37960385500831" lon="13.025419086325211"><ele>307.0</ele><time>2026-04-12T09:02:08Z</time></trkpt><trkpt lat="46.37959666133157" lon="13.025157219767376"><ele>311.0</ele><time>2026-04-12T09:02:09Z</time></trkpt><trkpt lat="46.37962288106368" lon="13.024870588040033"><ele>315.0</ele><time>2026-04-12T09:02:10Z</time></trkpt><trkpt lat="46.37967868007091" lon="13.024585536533557"><ele>319.0</ele><time>2026-04-12T09:02:11Z</time></trkpt><trkpt lat="46.37975324481744" lon="13.024304005606647"><ele>322.3333333333333</ele><time>2026-04-12T09:02:12Z</time></trkpt><trkpt lat="46.379837184865174" lon="13.024012988563033"><ele>325.6666666666667</ele><time>2026-04-12T09:02:13Z</time></trkpt><trkpt lat="46.379919395176245" lon="13.023724544688866"><ele>329.0</ele><time>2026-04-12T09:02:14Z</time></trkpt><trkpt lat="46.37998884531295" lon="13.02347152150209"><ele>333.6666666666667</ele><time>2026-04-12T09:02:15Z</time></trkpt><trkpt lat="46.380050169239205" lon="13.023247329477407"><ele>338.3333333333333</ele><time>2026-04-12T09:02:16Z</time></trkpt><trkpt lat="46.38011827342689" lon="13.023046288131402"><ele>343.0</ele><time>2026-04-12T09:02:17Z</time></trkpt><trkpt lat="46.38020054006602" lon="13.02287948694586"><ele>343.0</ele><time>2026-04-12T09:02:18Z</time></trkpt><trkpt lat="46.380303469317624" lon="13.022735259391322"><ele>343.0</ele><time>2026-04-12T09:02:19Z</time></trkpt><trkpt lat="46.380436608583736" lon="13.022613871367017"><ele>343.0</ele><time>2026-04-12T09:02:20Z</time></trkpt><trkpt lat="46.380584488553396" lon="13.022499182502811"><ele>340.3333333333333</ele><time>2026-04-12T09:02:21Z</time></trkpt><trkpt lat="46.38072249141337" lon="13.022366871178425"><ele>337.6666666666667</ele><time>2026-04-12T09:02:22Z</time></trkpt><trkpt lat="46.380852822454976" lon="13.022191888526887"><ele>335.0</ele><time>2026-04-12T09:02:23Z</time></trkpt><trkpt lat="46.38098432013316" lon="13.02197484534135"><ele>335.0</ele><time>2026-04-12T09:02:24Z</time></trkpt><trkpt lat="46.38110689524584" lon="13.021780281535246"><ele>335.0</ele><time>2026-04-12T09:02:25Z</time></trkpt><trkpt lat="46.3812110696529" lon="13.021612788077649"><ele>335.0</ele><time>2026-04-12T09:02:26Z</time></trkpt><trkpt lat="46.38130021474593" lon="13.021469574751828"><ele>334.5</ele><time>2026-04-12T09:02:27Z</time></trkpt><trkpt lat="46.381365494246914" lon="13.021340821553196"><ele>334.0</ele><time>2026-04-12T09:02:28Z</time></trkpt><trkpt lat="46.381394499942296" lon="13.021190451154222"><ele>333.5</ele><time>2026-04-12T09:02:29Z</time></trkpt><trkpt lat="46.381388040170265" lon="13.021013944093873"><ele>333.0</ele><time>2026-04-12T09:02:30Z</time></trkpt><trkpt lat="46.3813366088384" lon="13.020836408886401"><ele>329.6666666666667</ele><time>2026-04-12T09:02:31Z</time></trkpt><trkpt lat="46.381232066648735" lon="13.020680334415612"><ele>326.33333333333337</ele><time>2026-04-12T09:02:32Z</time></trkpt><trkpt lat="46.3810904172056" lon="13.020535087043944"><ele>323.0</ele><time>2026-04-12T09:02:33Z</time></trkpt><trkpt lat="46.380976552153406" lon="13.020409543030983"><ele>323.0</ele><time>2026-04-12T09:02:34Z</time></trkpt><trkpt lat="46.380888128245616" lon="13.020284093588323"><ele>323.0</ele><time>2026-04-12T09:02:35Z</time></trkpt><trkpt lat="46.38082596495423" lon="13.02014222408145"><ele>323.0</ele><time>2026-04-12T09:02:36Z</time></trkpt><trkpt lat="46.38078879317874" lon="13.019968048453505"><ele>323.0</ele><time>2026-04-12T09:02:36.999Z</time></trkpt><trkpt lat="46.38078646541145" lon="13.019768576079612"><ele>323.0</ele><time>2026-04-12T09:02:37.999Z</time></trkpt><trkpt lat="46.38083676080787" lon="13.01955900935166"><ele>323.0</ele><time>2026-04-12T09:02:38.999Z</time></trkpt><trkpt lat="46.3809018470819" lon="13.019340527958843"><ele>323.0</ele><time>2026-04-12T09:02:39.999Z</time></trkpt><trkpt lat="46.380964754751936" lon="13.019115835509893"><ele>321.75</ele><time>2026-04-12T09:02:40.999Z</time></trkpt><trkpt lat="46.38102678803382" lon="13.018916478303023"><ele>320.5</ele><time>2026-04-12T09:02:41.999Z</time></trkpt><trkpt lat="46.381088165400804" lon="13.018731093482439"><ele>319.25</ele><time>2026-04-12T09:02:42.999Z</time></trkpt><trkpt lat="46.38117792942091" lon="13.018546332918481"><ele>318.0</ele><time>2026-04-12T09:02:43.999Z</time></trkpt><trkpt lat="46.38132468971137" lon="13.01836022837383"><ele>311.5</ele><time>2026-04-12T09:02:44.999Z</time></trkpt><trkpt lat="46.38151339170403" lon="13.018163231134926"><ele>305.0</ele><time>2026-04-12T09:02:45.999Z</time></trkpt><trkpt lat="46.38172020889495" lon="13.017946844939296"><ele>305.0</ele><time>2026-04-12T09:02:46.999Z</time></trkpt><trkpt lat="46.38189394254431" lon="13.01776021109568"><ele>305.0</ele><time>2026-04-12T09:02:47.999Z</time></trkpt><trkpt lat="46.38205064753687" lon="13.017588385356952"><ele>305.0</ele><time>2026-04-12T09:02:48.999Z</time></trkpt><trkpt lat="46.38219727183277" lon="13.017434832685073"><ele>305.33333333333337</ele><time>2026-04-12T09:02:49.999Z</time></trkpt><trkpt lat="46.38234221152442" lon="13.017287456866356"><ele>305.6666666666667</ele><time>2026-04-12T09:02:50.999Z</time></trkpt><trkpt lat="46.382488083528195" lon="13.017140620375072"><ele>306.0</ele><time>2026-04-12T09:02:51.999Z</time></trkpt><trkpt lat="46.38263938752118" lon="13.01700462648908"><ele>306.0</ele><time>2026-04-12T09:02:52.999Z</time></trkpt><trkpt lat="46.3828032070593" lon="13.016894715866796"><ele>306.0</ele><time>2026-04-12T09:02:53.999Z</time></trkpt><trkpt lat="46.38298838667902" lon="13.016777354488505"><ele>306.0</ele><time>2026-04-12T09:02:54.999Z</time></trkpt><trkpt lat="46.38316717131187" lon="13.016630331545855"><ele>311.0</ele><time>2026-04-12T09:02:55.999Z</time></trkpt><trkpt lat="46.383329865613184" lon="13.016467457302701"><ele>316.0</ele><time>2026-04-12T09:02:56.999Z</time></trkpt><trkpt lat="46.38347715546229" lon="13.016282975387629"><ele>321.0</ele><time>2026-04-12T09:02:57.999Z</time></trkpt><trkpt lat="46.38361721851753" lon="13.016070062837471"><ele>321.0</ele><time>2026-04-12T09:02:58.999Z</time></trkpt><trkpt lat="46.38375424069738" lon="13.015844996996476"><ele>321.0</ele><time>2026-04-12T09:02:59.999Z</time></trkpt><trkpt lat="46.38388534741645" lon="13.015609285519126"><ele>321.0</ele><time>2026-04-12T09:03:00.999Z</time></trkpt><trkpt lat="46.38399790359355" lon="13.015358546037904"><ele>320.6666666666667</ele><time>2026-04-12T09:03:02Z</time></trkpt><trkpt lat="46.384091404455496" lon="13.0150935156197"><ele>320.33333333333337</ele><time>2026-04-12T09:03:03Z</time></trkpt><trkpt lat="46.38416970644988" lon="13.014829115945396"><ele>320.0</ele><time>2026-04-12T09:03:04Z</time></trkpt><trkpt lat="46.38423390083033" lon="13.014559744595399"><ele>320.0</ele><time>2026-04-12T09:03:05Z</time></trkpt><trkpt lat="46.38427672483784" lon="13.014279212927107"><ele>320.0</ele><time>2026-04-12T09:03:06Z</time></trkpt><trkpt lat="46.38429811765987" lon="13.013998598047907"><ele>320.0</ele><time>2026-04-12T09:03:07Z</time></trkpt><trkpt lat="46.38431073295734" lon="13.013742867290022"><ele>321.6666666666667</ele><time>2026-04-12T09:03:08Z</time></trkpt><trkpt lat="46.384319267369946" lon="13.013513501676744"><ele>323.3333333333333</ele><time>2026-04-12T09:03:09Z</time></trkpt><trkpt lat="46.38433067679277" lon="13.013301675806757"><ele>325.0</ele><time>2026-04-12T09:03:10Z</time></trkpt><trkpt lat="46.384367404560365" lon="13.013095364911205"><ele>326.3333333333333</ele><time>2026-04-12T09:03:11Z</time></trkpt><trkpt lat="46.38444370898563" lon="13.012878827823657"><ele>327.6666666666667</ele><time>2026-04-12T09:03:12Z</time></trkpt><trkpt lat="46.384541946740256" lon="13.012656210588505"><ele>329.0</ele><time>2026-04-12T09:03:13Z</time></trkpt><trkpt lat="46.384651539802164" lon="13.01240840099435"><ele>321.0</ele><time>2026-04-12T09:03:14Z</time></trkpt><trkpt lat="46.38477470714495" lon="13.012146063751148"><ele>313.0</ele><time>2026-04-12T09:03:15Z</time></trkpt><trkpt lat="46.384892255397524" lon="13.011916915842226"><ele>305.0</ele><time>2026-04-12T09:03:16Z</time></trkpt><trkpt lat="46.38500297296573" lon="13.011717196975368"><ele>306.6666666666667</ele><time>2026-04-12T09:03:17Z</time></trkpt><trkpt lat="46.38513004966443" lon="13.01153891595906"><ele>308.3333333333333</ele><time>2026-04-12T09:03:18Z</time></trkpt><trkpt lat="46.38528503820461" lon="13.011416613631376"><ele>310.0</ele><time>2026-04-12T09:03:19Z</time></trkpt><trkpt lat="46.38546347288987" lon="13.011343461701516"><ele>309.3333333333333</ele><time>2026-04-12T09:03:20Z</time></trkpt><trkpt lat="46.38566379733152" lon="13.011365386689901"><ele>308.6666666666667</ele><time>2026-04-12T09:03:21Z</time></trkpt><trkpt lat="46.385889704870216" lon="13.011431405338925"><ele>308.0</ele><time>2026-04-12T09:03:22Z</time></trkpt><trkpt lat="46.38613508619642" lon="13.011493244372575"><ele>311.6666666666667</ele><time>2026-04-12T09:03:23Z</time></trkpt><trkpt lat="46.38634770350339" lon="13.011564628360404"><ele>315.3333333333333</ele><time>2026-04-12T09:03:24Z</time></trkpt><trkpt lat="46.386523702222" lon="13.011621146731033"><ele>319.0</ele><time>2026-04-12T09:03:25Z</time></trkpt><trkpt lat="46.38667469191822" lon="13.011652993200345"><ele>319.0</ele><time>2026-04-12T09:03:26Z</time></trkpt><trkpt lat="46.38682879619185" lon="13.011654291776596"><ele>319.0</ele><time>2026-04-12T09:03:27Z</time></trkpt><trkpt lat="46.386985474884895" lon="13.011635836469784"><ele>319.0</ele><time>2026-04-12T09:03:28Z</time></trkpt><trkpt lat="46.38713520979329" lon="13.011599401025848"><ele>316.25</ele><time>2026-04-12T09:03:29Z</time></trkpt><trkpt lat="46.38726359823439" lon="13.011573884608936"><ele>313.5</ele><time>2026-04-12T09:03:30Z</time></trkpt><trkpt lat="46.387376576038754" lon="13.011546130768641"><ele>310.75</ele><time>2026-04-12T09:03:31Z</time></trkpt><trkpt lat="46.387483291384775" lon="13.011516144617367"><ele>308.0</ele><time>2026-04-12T09:03:32Z</time></trkpt><trkpt lat="46.3875887466928" lon="13.011486151487635"><ele>308.0</ele><time>2026-04-12T09:03:33Z</time></trkpt><trkpt lat="46.38768759270569" lon="13.011458058998146"><ele>308.0</ele><time>2026-04-12T09:03:34Z</time></trkpt><trkpt lat="46.38777983337892" lon="13.011430777108508"><ele>308.0</ele><time>2026-04-12T09:03:35Z</time></trkpt><trkpt lat="46.387857717881005" lon="13.011406844701456"><ele>308.0</ele><time>2026-04-12T09:03:36Z</time></trkpt><trkpt lat="46.387930975236635" lon="13.011383135001546"><ele>308.0</ele><time>2026-04-12T09:03:37Z</time></trkpt><trkpt lat="46.38800469278375" lon="13.011358388447281"><ele>308.0</ele><time>2026-04-12T09:03:38Z</time></trkpt><trkpt lat="46.38807912276634" lon="13.011322052818311"><ele>307.5</ele><time>2026-04-12T09:03:39Z</time></trkpt><trkpt lat="46.3881513581178" lon="13.01127764732797"><ele>307.0</ele><time>2026-04-12T09:03:40Z</time></trkpt><trkpt lat="46.388217071231665" lon="13.011235667866242"><ele>306.5</ele><time>2026-04-12T09:03:41Z</time></trkpt><trkpt lat="46.38833430737484" lon="13.011194803308015"><ele>306.0</ele><time>2026-04-12T09:03:43Z</time></trkpt><trkpt lat="46.38840801280555" lon="13.011209562630517"><ele>305.5</ele><time>2026-04-12T09:03:44Z</time></trkpt><trkpt lat="46.3884854981556" lon="13.011224295466286"><ele>305.0</ele><time>2026-04-12T09:03:45Z</time></trkpt><trkpt lat="46.388565881316154" lon="13.011244912802377"><ele>305.0</ele><time>2026-04-12T09:03:46Z</time></trkpt><trkpt lat="46.38864570257421" lon="13.01129510884101"><ele>305.0</ele><time>2026-04-12T09:03:47Z</time></trkpt><trkpt lat="46.38873572793307" lon="13.011369254641684"><ele>305.0</ele><time>2026-04-12T09:03:48Z</time></trkpt><trkpt lat="46.388830420972155" lon="13.01145674273931"><ele>305.0</ele><time>2026-04-12T09:03:49Z</time></trkpt><trkpt lat="46.38890723794209" lon="13.011528995782273"><ele>305.0</ele><time>2026-04-12T09:03:50Z</time></trkpt><trkpt lat="46.3889761631278" lon="13.011593569370856"><ele>304.83333333333337</ele><time>2026-04-12T09:03:51Z</time></trkpt><trkpt lat="46.38904449325348" lon="13.011656068142658"><ele>304.6666666666667</ele><time>2026-04-12T09:03:52Z</time></trkpt><trkpt lat="46.38911427656771" lon="13.011715662481878"><ele>304.5</ele><time>2026-04-12T09:03:53Z</time></trkpt><trkpt lat="46.389187453868445" lon="13.011779429583948"><ele>304.3333333333333</ele><time>2026-04-12T09:03:54Z</time></trkpt><trkpt lat="46.38926337585192" lon="13.01185106284111"><ele>304.16666666666663</ele><time>2026-04-12T09:03:55Z</time></trkpt><trkpt lat="46.38934961608318" lon="13.011926477604058"><ele>304.0</ele><time>2026-04-12T09:03:56Z</time></trkpt><trkpt lat="46.3894430862559" lon="13.01201090300543"><ele>303.25</ele><time>2026-04-12T09:03:57Z</time></trkpt><trkpt lat="46.38954399069382" lon="13.01210186167217"><ele>302.5</ele><time>2026-04-12T09:03:58Z</time></trkpt><trkpt lat="46.389650415849715" lon="13.012198828545802"><ele>301.75</ele><time>2026-04-12T09:03:59Z</time></trkpt><trkpt lat="46.38975873710224" lon="13.012297111228694"><ele>301.0</ele><time>2026-04-12T09:04:00Z</time></trkpt><trkpt lat="46.389864122750915" lon="13.012392373156551"><ele>301.0</ele><time>2026-04-12T09:04:01Z</time></trkpt><trkpt lat="46.38997437917119" lon="13.012485152330491"><ele>301.0</ele><time>2026-04-12T09:04:02Z</time></trkpt><trkpt lat="46.39008442843979" lon="13.01258805075929"><ele>301.0</ele><time>2026-04-12T09:04:03Z</time></trkpt><trkpt lat="46.39019570419856" lon="13.012691474142397"><ele>301.0</ele><time>2026-04-12T09:04:04Z</time></trkpt><trkpt lat="46.39030770666358" lon="13.012791323890017"><ele>301.0</ele><time>2026-04-12T09:04:05Z</time></trkpt><trkpt lat="46.39041900578858" lon="13.012891735482858"><ele>301.0</ele><time>2026-04-12T09:04:06Z</time></trkpt><trkpt lat="46.3905312913928" lon="13.012989743824702"><ele>301.0</ele><time>2026-04-12T09:04:07Z</time></trkpt><trkpt lat="46.390642241542984" lon="13.013089003369979"><ele>301.0</ele><time>2026-04-12T09:04:08Z</time></trkpt><trkpt lat="46.39074901100535" lon="13.01318492570359"><ele>300.5</ele><time>2026-04-12T09:04:09Z</time></trkpt><trkpt lat="46.39084972742413" lon="13.013278613955096"><ele>300.0</ele><time>2026-04-12T09:04:10Z</time></trkpt><trkpt lat="46.39094680761803" lon="13.013365868571654"><ele>299.5</ele><time>2026-04-12T09:04:11Z</time></trkpt><trkpt lat="46.391045904228335" lon="13.013455167576378"><ele>299.0</ele><time>2026-04-12T09:04:12Z</time></trkpt><trkpt lat="46.391142738132174" lon="13.013541881749966"><ele>299.0</ele><time>2026-04-12T09:04:13Z</time></trkpt><trkpt lat="46.39123659193332" lon="13.01362760384871"><ele>299.0</ele><time>2026-04-12T09:04:14Z</time></trkpt><trkpt lat="46.3913311531631" lon="13.013710942333407"><ele>299.0</ele><time>2026-04-12T09:04:15Z</time></trkpt><trkpt lat="46.39142580111911" lon="13.01379473126694"><ele>299.0</ele><time>2026-04-12T09:04:16Z</time></trkpt><trkpt lat="46.39150988861738" lon="13.013878342101771"><ele>299.0</ele><time>2026-04-12T09:04:17Z</time></trkpt><trkpt lat="46.39158970019282" lon="13.013950337808431"><ele>298.8</ele><time>2026-04-12T09:04:18Z</time></trkpt><trkpt lat="46.39167375800711" lon="13.014022581600026"><ele>298.59999999999997</ele><time>2026-04-12T09:04:19Z</time></trkpt><trkpt lat="46.39174401589209" lon="13.014090883321629"><ele>298.4</ele><time>2026-04-12T09:04:20Z</time></trkpt><trkpt lat="46.39181505694672" lon="13.01415544961685"><ele>298.2</ele><time>2026-04-12T09:04:21Z</time></trkpt><trkpt lat="46.39189430341223" lon="13.014224129821313"><ele>298.0</ele><time>2026-04-12T09:04:22Z</time></trkpt><trkpt lat="46.39197682207299" lon="13.014286574142652"><ele>298.5</ele><time>2026-04-12T09:04:23Z</time></trkpt><trkpt lat="46.39206163063836" lon="13.01434008179928"><ele>299.0</ele><time>2026-04-12T09:04:24Z</time></trkpt><trkpt lat="46.39214846225757" lon="13.01438221996762"><ele>299.5</ele><time>2026-04-12T09:04:25Z</time></trkpt><trkpt lat="46.39222567887836" lon="13.01441093316138"><ele>300.0</ele><time>2026-04-12T09:04:26Z</time></trkpt><trkpt lat="46.39230594487308" lon="13.014442239759951"><ele>300.5</ele><time>2026-04-12T09:04:27Z</time></trkpt><trkpt lat="46.392385747827724" lon="13.014472369868232"><ele>301.0</ele><time>2026-04-12T09:04:28Z</time></trkpt><trkpt lat="46.39246470119917" lon="13.014505212466732"><ele>301.5</ele><time>2026-04-12T09:04:29Z</time></trkpt><trkpt lat="46.39254467597705" lon="13.014535134021767"><ele>302.0</ele><time>2026-04-12T09:04:30Z</time></trkpt><trkpt lat="46.392625985786474" lon="13.014564304601157"><ele>302.5</ele><time>2026-04-12T09:04:31Z</time></trkpt><trkpt lat="46.39270772896212" lon="13.014593911573826"><ele>303.0</ele><time>2026-04-12T09:04:32Z</time></trkpt><trkpt lat="46.39279463284232" lon="13.014619001308358"><ele>303.5</ele><time>2026-04-12T09:04:33Z</time></trkpt><trkpt lat="46.39288401155836" lon="13.014633561573154"><ele>304.0</ele><time>2026-04-12T09:04:34Z</time></trkpt><trkpt lat="46.392974706762004" lon="13.014623269471844"><ele>304.5</ele><time>2026-04-12T09:04:35Z</time></trkpt><trkpt lat="46.39306044279985" lon="13.014609475050804"><ele>305.0</ele><time>2026-04-12T09:04:36Z</time></trkpt><trkpt lat="46.393137093629264" lon="13.014591448701289"><ele>305.5</ele><time>2026-04-12T09:04:37Z</time></trkpt><trkpt lat="46.39320436683389" lon="13.014568805360138"><ele>306.0</ele><time>2026-04-12T09:04:38Z</time></trkpt><trkpt lat="46.39326756918741" lon="13.01453382437434"><ele>306.5</ele><time>2026-04-12T09:04:39Z</time></trkpt><trkpt lat="46.39332888268176" lon="13.014492928094466"><ele>307.0</ele><time>2026-04-12T09:04:40Z</time></trkpt><trkpt lat="46.393427146597034" lon="13.014401223044285"><ele>307.0</ele><time>2026-04-12T09:04:41.999Z</time></trkpt><trkpt lat="46.3935256648703" lon="13.014292670210576"><ele>307.0</ele><time>2026-04-12T09:04:43.999Z</time></trkpt><trkpt lat="46.39357433898912" lon="13.014223349478922"><ele>307.0</ele><time>2026-04-12T09:04:44.999Z</time></trkpt><trkpt lat="46.39362468093497" lon="13.014140561123664"><ele>307.0</ele><time>2026-04-12T09:04:45.999Z</time></trkpt><trkpt lat="46.393676947778815" lon="13.014052073829346"><ele>307.0</ele><time>2026-04-12T09:04:46.999Z</time></trkpt><trkpt lat="46.39372213166298" lon="13.013966670583022"><ele>307.0</ele><time>2026-04-12T09:04:47.999Z</time></trkpt><trkpt lat="46.39376699753148" lon="13.01388155609506"><ele>307.0</ele><time>2026-04-12T09:04:48.999Z</time></trkpt><trkpt lat="46.393809420720345" lon="13.013804105005518"><ele>307.0</ele><time>2026-04-12T09:04:49.999Z</time></trkpt><trkpt lat="46.393847420547615" lon="13.013730826075447"><ele>307.0</ele><time>2026-04-12T09:04:50.999Z</time></trkpt><trkpt lat="46.39392414765239" lon="13.013582272535066"><ele>307.0</ele><time>2026-04-12T09:04:52.999Z</time></trkpt><trkpt lat="46.39396842105413" lon="13.01349977211648"><ele>307.0</ele><time>2026-04-12T09:04:53.999Z</time></trkpt><trkpt lat="46.39401374511752" lon="13.013413178964429"><ele>307.0</ele><time>2026-04-12T09:04:54.999Z</time></trkpt><trkpt lat="46.39405687430213" lon="13.013337566049866"><ele>306.6</ele><time>2026-04-12T09:04:55.999Z</time></trkpt><trkpt lat="46.39409774799563" lon="13.013265004452224"><ele>306.2</ele><time>2026-04-12T09:04:56.999Z</time></trkpt><trkpt lat="46.39417155777766" lon="13.013123001128852"><ele>305.8</ele><time>2026-04-12T09:04:58.999Z</time></trkpt><trkpt lat="46.39424351895046" lon="13.012986293684161"><ele>305.4</ele><time>2026-04-12T09:05:00.999Z</time></trkpt><trkpt lat="46.39432191145919" lon="13.012831348283042"><ele>305.0</ele><time>2026-04-12T09:05:02.999Z</time></trkpt><trkpt lat="46.39436787894739" lon="13.012748584637624"><ele>305.0</ele><time>2026-04-12T09:05:03.999Z</time></trkpt><trkpt lat="46.39444522008412" lon="13.012606282559902"><ele>305.0</ele><time>2026-04-12T09:05:05.999Z</time></trkpt><trkpt lat="46.39451539333909" lon="13.012473530036566"><ele>305.0</ele><time>2026-04-12T09:05:08Z</time></trkpt><trkpt lat="46.394585715299904" lon="13.01234266087625"><ele>305.0</ele><time>2026-04-12T09:05:10Z</time></trkpt><trkpt lat="46.39463918342144" lon="13.012246715738286"><ele>305.0</ele><time>2026-04-12T09:05:12Z</time></trkpt><trkpt lat="46.39468088817545" lon="13.012168582153006"><ele>305.1666666666667</ele><time>2026-04-12T09:05:14Z</time></trkpt><trkpt lat="46.39473143604554" lon="13.012097043183708"><ele>305.33333333333337</ele><time>2026-04-12T09:05:17Z</time></trkpt><trkpt lat="46.394802744457934" lon="13.012057510054802"><ele>305.5</ele><time>2026-04-12T09:05:21Z</time></trkpt><trkpt lat="46.39482444486844" lon="13.011964788644017"><ele>305.6666666666667</ele><time>2026-04-12T09:05:47Z</time></trkpt><trkpt lat="46.39483514494306" lon="13.011840153273509"><ele>305.8333333333333</ele><time>2026-04-12T09:05:49Z</time></trkpt><trkpt lat="46.394877967274454" lon="13.011741749439278"><ele>306.0</ele><time>2026-04-12T09:05:50Z</time></trkpt><trkpt lat="46.39493991050947" lon="13.011636442932778"><ele>306.5</ele><time>2026-04-12T09:05:51Z</time></trkpt><trkpt lat="46.39501250756881" lon="13.011504490725393"><ele>307.0</ele><time>2026-04-12T09:05:52Z</time></trkpt><trkpt lat="46.395099923284775" lon="13.011348466325533"><ele>307.5</ele><time>2026-04-12T09:05:53Z</time></trkpt><trkpt lat="46.39518761577527" lon="13.011191006807373"><ele>308.0</ele><time>2026-04-12T09:05:54Z</time></trkpt><trkpt lat="46.39527347330818" lon="13.01104125162636"><ele>308.0</ele><time>2026-04-12T09:05:55Z</time></trkpt><trkpt lat="46.395359892664935" lon="13.010905717055312"><ele>308.0</ele><time>2026-04-12T09:05:56Z</time></trkpt><trkpt lat="46.3954527941225" lon="13.01076622858569"><ele>308.0</ele><time>2026-04-12T09:05:57Z</time></trkpt><trkpt lat="46.3955509139241" lon="13.010625047890622"><ele>308.0</ele><time>2026-04-12T09:05:58Z</time></trkpt><trkpt lat="46.39565787154615" lon="13.010481165243018"><ele>308.0</ele><time>2026-04-12T09:05:59Z</time></trkpt><trkpt lat="46.39577259511019" lon="13.010336909571537"><ele>308.0</ele><time>2026-04-12T09:06:00Z</time></trkpt><trkpt lat="46.39588987672998" lon="13.010199975047001"><ele>308.0</ele><time>2026-04-12T09:06:01Z</time></trkpt><trkpt lat="46.39601359994081" lon="13.010073093055928"><ele>308.0</ele><time>2026-04-12T09:06:02Z</time></trkpt><trkpt lat="46.396141921094255" lon="13.009952688349523"><ele>308.0</ele><time>2026-04-12T09:06:03Z</time></trkpt><trkpt lat="46.396269057162314" lon="13.009840633707139"><ele>308.0</ele><time>2026-04-12T09:06:04Z</time></trkpt><trkpt lat="46.39639038371332" lon="13.009732908212802"><ele>308.0</ele><time>2026-04-12T09:06:05Z</time></trkpt><trkpt lat="46.396507567234615" lon="13.009626567742192"><ele>308.0</ele><time>2026-04-12T09:06:06Z</time></trkpt><trkpt lat="46.39662124348026" lon="13.009524934186437"><ele>308.0</ele><time>2026-04-12T09:06:07Z</time></trkpt><trkpt lat="46.396734627912195" lon="13.009427625703667"><ele>308.0</ele><time>2026-04-12T09:06:08Z</time></trkpt><trkpt lat="46.396839858013955" lon="13.00933806870472"><ele>308.0</ele><time>2026-04-12T09:06:09Z</time></trkpt><trkpt lat="46.39693329443606" lon="13.009255835749803"><ele>308.0</ele><time>2026-04-12T09:06:10Z</time></trkpt><trkpt lat="46.397022450064725" lon="13.00917884212199"><ele>308.0</ele><time>2026-04-12T09:06:11Z</time></trkpt><trkpt lat="46.39710156199494" lon="13.009108485514083"><ele>308.0</ele><time>2026-04-12T09:06:12Z</time></trkpt><trkpt lat="46.3971667118756" lon="13.009050404655715"><ele>308.0</ele><time>2026-04-12T09:06:13Z</time></trkpt><trkpt lat="46.39722279331766" lon="13.00899985148474"><ele>308.0</ele><time>2026-04-12T09:06:14Z</time></trkpt><trkpt lat="46.3972839809007" lon="13.008946936569473"><ele>308.0</ele><time>2026-04-12T09:06:15Z</time></trkpt><trkpt lat="46.3973512621406" lon="13.008891078571072"><ele>308.4</ele><time>2026-04-12T09:06:16Z</time></trkpt><trkpt lat="46.39742094672915" lon="13.008832238611857"><ele>308.8</ele><time>2026-04-12T09:06:17Z</time></trkpt><trkpt lat="46.39749410938098" lon="13.00876675325509"><ele>309.2</ele><time>2026-04-12T09:06:18Z</time></trkpt><trkpt lat="46.397578759738295" lon="13.008691002751881"><ele>309.6</ele><time>2026-04-12T09:06:19Z</time></trkpt><trkpt lat="46.39767101240419" lon="13.008615062598066"><ele>310.0</ele><time>2026-04-12T09:06:20Z</time></trkpt><trkpt lat="46.39776916630663" lon="13.008531988767595"><ele>310.0</ele><time>2026-04-12T09:06:21Z</time></trkpt><trkpt lat="46.3978718961309" lon="13.008443195828926"><ele>310.0</ele><time>2026-04-12T09:06:22Z</time></trkpt><trkpt lat="46.39797747010964" lon="13.00835379263024"><ele>310.0</ele><time>2026-04-12T09:06:23Z</time></trkpt><trkpt lat="46.39808731423693" lon="13.008261098991067"><ele>310.0</ele><time>2026-04-12T09:06:24Z</time></trkpt><trkpt lat="46.39820593903" lon="13.008161047358266"><ele>310.5</ele><time>2026-04-12T09:06:25Z</time></trkpt><trkpt lat="46.39833206303831" lon="13.008052092658437"><ele>311.0</ele><time>2026-04-12T09:06:26Z</time></trkpt><trkpt lat="46.39845418502856" lon="13.007946279262226"><ele>311.5</ele><time>2026-04-12T09:06:27Z</time></trkpt><trkpt lat="46.39856944926101" lon="13.007846171167548"><ele>312.0</ele><time>2026-04-12T09:06:28Z</time></trkpt><trkpt lat="46.39867956366953" lon="13.007747244018237"><ele>312.0</ele><time>2026-04-12T09:06:29Z</time></trkpt><trkpt lat="46.398785712797846" lon="13.007652125874987"><ele>312.0</ele><time>2026-04-12T09:06:30Z</time></trkpt><trkpt lat="46.398887558365345" lon="13.007559013957424"><ele>312.0</ele><time>2026-04-12T09:06:31Z</time></trkpt><trkpt lat="46.398989061498646" lon="13.007465445538434"><ele>312.0</ele><time>2026-04-12T09:06:32Z</time></trkpt><trkpt lat="46.39908874817464" lon="13.00737447845741"><ele>312.25</ele><time>2026-04-12T09:06:33Z</time></trkpt><trkpt lat="46.39918749078403" lon="13.00728558560539"><ele>312.5</ele><time>2026-04-12T09:06:34Z</time></trkpt><trkpt lat="46.39928563142974" lon="13.007196896952273"><ele>312.75</ele><time>2026-04-12T09:06:35Z</time></trkpt><trkpt lat="46.39938444929751" lon="13.00710884614611"><ele>313.0</ele><time>2026-04-12T09:06:36Z</time></trkpt><trkpt lat="46.399481700432844" lon="13.007022482365562"><ele>313.0</ele><time>2026-04-12T09:06:37Z</time></trkpt><trkpt lat="46.39957864139971" lon="13.006935326708719"><ele>313.0</ele><time>2026-04-12T09:06:38Z</time></trkpt><trkpt lat="46.3996780093529" lon="13.006841371555913"><ele>313.0</ele><time>2026-04-12T09:06:39Z</time></trkpt><trkpt lat="46.39978219035444" lon="13.006746023349834"><ele>313.0</ele><time>2026-04-12T09:06:40Z</time></trkpt><trkpt lat="46.39988799044748" lon="13.006648921135747"><ele>313.0</ele><time>2026-04-12T09:06:41Z</time></trkpt><trkpt lat="46.399993471992104" lon="13.006549500278275"><ele>313.0</ele><time>2026-04-12T09:06:42Z</time></trkpt><trkpt lat="46.40010012150793" lon="13.00644878267394"><ele>313.0</ele><time>2026-04-12T09:06:42.999Z</time></trkpt><trkpt lat="46.400206022192734" lon="13.00635402763375"><ele>313.0</ele><time>2026-04-12T09:06:43.999Z</time></trkpt><trkpt lat="46.40030427683173" lon="13.006262907390528"><ele>313.0</ele><time>2026-04-12T09:06:44.999Z</time></trkpt><trkpt lat="46.40039643897654" lon="13.006176471939682"><ele>313.0</ele><time>2026-04-12T09:06:45.999Z</time></trkpt><trkpt lat="46.400483043034164" lon="13.006096056726985"><ele>313.0</ele><time>2026-04-12T09:06:46.999Z</time></trkpt><trkpt lat="46.40056846964463" lon="13.006022834048235"><ele>313.0</ele><time>2026-04-12T09:06:47.999Z</time></trkpt><trkpt lat="46.400654951841254" lon="13.005946996775249"><ele>313.0</ele><time>2026-04-12T09:06:48.999Z</time></trkpt><trkpt lat="46.40074751535135" lon="13.005887437220393"><ele>313.2</ele><time>2026-04-12T09:06:49.999Z</time></trkpt><trkpt lat="46.400832914378185" lon="13.005844636673661"><ele>313.4</ele><time>2026-04-12T09:06:50.999Z</time></trkpt><trkpt lat="46.40090930238851" lon="13.005810516302711"><ele>313.59999999999997</ele><time>2026-04-12T09:06:51.999Z</time></trkpt><trkpt lat="46.40097625863572" lon="13.005792007876433"><ele>313.8</ele><time>2026-04-12T09:06:52.999Z</time></trkpt><trkpt lat="46.40109477917728" lon="13.005772317756861"><ele>314.0</ele><time>2026-04-12T09:06:54.999Z</time></trkpt><trkpt lat="46.40121633847525" lon="13.005786343686648"><ele>314.0</ele><time>2026-04-12T09:06:56.999Z</time></trkpt><trkpt lat="46.40128021861065" lon="13.005819373434113"><ele>314.0</ele><time>2026-04-12T09:06:57.999Z</time></trkpt><trkpt lat="46.401338035444894" lon="13.005778122009117"><ele>314.0</ele><time>2026-04-12T09:06:58.999Z</time></trkpt><trkpt lat="46.401411565753236" lon="13.005642939534129"><ele>314.0</ele><time>2026-04-12T09:07:00.999Z</time></trkpt><trkpt lat="46.40139033157308" lon="13.005529982408923"><ele>314.0</ele><time>2026-04-12T09:07:01.999Z</time></trkpt><trkpt lat="46.401348565860495" lon="13.005432242718157"><ele>314.0</ele><time>2026-04-12T09:07:02.999Z</time></trkpt><trkpt lat="46.401313989538664" lon="13.005325978002498"><ele>314.0</ele><time>2026-04-12T09:07:03.999Z</time></trkpt><trkpt lat="46.40128798168553" lon="13.005188448069452"><ele>314.0</ele><time>2026-04-12T09:07:04.999Z</time></trkpt><trkpt lat="46.4012632186823" lon="13.005040122021006"><ele>314.0</ele><time>2026-04-12T09:07:05.999Z</time></trkpt><trkpt lat="46.40124523266862" lon="13.004892067540856"><ele>314.0</ele><time>2026-04-12T09:07:06.999Z</time></trkpt><trkpt lat="46.40122912190835" lon="13.00474915406362"><ele>314.0</ele><time>2026-04-12T09:07:07.999Z</time></trkpt><trkpt lat="46.40122748087893" lon="13.004608145526845"><ele>314.59999999999997</ele><time>2026-04-12T09:07:08.999Z</time></trkpt><trkpt lat="46.40125465749294" lon="13.004476198724744"><ele>315.2</ele><time>2026-04-12T09:07:09.999Z</time></trkpt><trkpt lat="46.401308241457784" lon="13.004376664054647"><ele>315.79999999999995</ele><time>2026-04-12T09:07:10.999Z</time></trkpt><trkpt lat="46.40138815620518" lon="13.004318931767163"><ele>316.4</ele><time>2026-04-12T09:07:11.999Z</time></trkpt><trkpt lat="46.40148953021243" lon="13.004277508898788"><ele>317.0</ele><time>2026-04-12T09:07:13Z</time></trkpt><trkpt lat="46.40160447118788" lon="13.0043031003388"><ele>317.0</ele><time>2026-04-12T09:07:14Z</time></trkpt><trkpt lat="46.40174446897668" lon="13.004334270628238"><ele>317.0</ele><time>2026-04-12T09:07:15Z</time></trkpt><trkpt lat="46.40191055828585" lon="13.00437089679471"><ele>317.0</ele><time>2026-04-12T09:07:16Z</time></trkpt><trkpt lat="46.40205832915539" lon="13.004386724394623"><ele>317.75</ele><time>2026-04-12T09:07:17Z</time></trkpt><trkpt lat="46.40219256013723" lon="13.004372559871092"><ele>318.5</ele><time>2026-04-12T09:07:18Z</time></trkpt><trkpt lat="46.40231999699411" lon="13.004305885478894"><ele>319.25</ele><time>2026-04-12T09:07:19Z</time></trkpt><trkpt lat="46.40243065039217" lon="13.0041929183774"><ele>320.0</ele><time>2026-04-12T09:07:20Z</time></trkpt><trkpt lat="46.402517932324436" lon="13.00404820673559"><ele>320.0</ele><time>2026-04-12T09:07:21Z</time></trkpt><trkpt lat="46.402569842231216" lon="13.003873964757105"><ele>320.0</ele><time>2026-04-12T09:07:22Z</time></trkpt><trkpt lat="46.40257076561928" lon="13.003680077067381"><ele>320.0</ele><time>2026-04-12T09:07:23Z</time></trkpt><trkpt lat="46.402529685975466" lon="13.00349033822356"><ele>320.0</ele><time>2026-04-12T09:07:24Z</time></trkpt><trkpt lat="46.4024467812849" lon="13.00333526206288"><ele>319.6666666666667</ele><time>2026-04-12T09:07:25Z</time></trkpt><trkpt lat="46.40233713772845" lon="13.003210213696022"><ele>319.3333333333333</ele><time>2026-04-12T09:07:26Z</time></trkpt><trkpt lat="46.40219053413578" lon="13.003125239515008"><ele>319.0</ele><time>2026-04-12T09:07:27Z</time></trkpt><trkpt lat="46.402018412400096" lon="13.00305317782724"><ele>319.0</ele><time>2026-04-12T09:07:28Z</time></trkpt><trkpt lat="46.40186596201459" lon="13.003003183036125"><ele>319.0</ele><time>2026-04-12T09:07:29Z</time></trkpt><trkpt lat="46.40174855315126" lon="13.002958594330178"><ele>319.0</ele><time>2026-04-12T09:07:30Z</time></trkpt><trkpt lat="46.40164700008201" lon="13.002950620191019"><ele>319.0</ele><time>2026-04-12T09:07:31Z</time></trkpt><trkpt lat="46.40155877748129" lon="13.002927019004282"><ele>319.0</ele><time>2026-04-12T09:07:32Z</time></trkpt><trkpt lat="46.40148390598794" lon="13.002906989479495"><ele>319.0</ele><time>2026-04-12T09:07:33Z</time></trkpt><trkpt lat="46.40144922482554" lon="13.002692734041183"><ele>319.0</ele><time>2026-04-12T09:07:34Z</time></trkpt><trkpt lat="46.401422310213775" lon="13.002556908704229"><ele>319.0</ele><time>2026-04-12T09:07:35Z</time></trkpt><trkpt lat="46.40142104206684" lon="13.002401773974395"><ele>319.0</ele><time>2026-04-12T09:07:36Z</time></trkpt><trkpt lat="46.40143077879391" lon="13.002226714603509"><ele>318.3333333333333</ele><time>2026-04-12T09:07:37Z</time></trkpt><trkpt lat="46.401462349333094" lon="13.002022895719163"><ele>317.6666666666667</ele><time>2026-04-12T09:07:38Z</time></trkpt><trkpt lat="46.40151438696066" lon="13.001806667803546"><ele>317.0</ele><time>2026-04-12T09:07:39Z</time></trkpt><trkpt lat="46.40156890276624" lon="13.001563781064407"><ele>317.0</ele><time>2026-04-12T09:07:40Z</time></trkpt><trkpt lat="46.40162735637943" lon="13.00129581713038"><ele>317.0</ele><time>2026-04-12T09:07:41Z</time></trkpt><trkpt lat="46.401689796891006" lon="13.001022457551795"><ele>317.0</ele><time>2026-04-12T09:07:42Z</time></trkpt><trkpt lat="46.40175036800477" lon="13.000759451376492"><ele>317.0</ele><time>2026-04-12T09:07:43Z</time></trkpt><trkpt lat="46.401810661193636" lon="13.000499015127078"><ele>317.0</ele><time>2026-04-12T09:07:44Z</time></trkpt><trkpt lat="46.40187075095744" lon="13.000234779053182"><ele>317.0</ele><time>2026-04-12T09:07:45Z</time></trkpt><trkpt lat="46.401931138228264" lon="12.999965738086606"><ele>317.0</ele><time>2026-04-12T09:07:46Z</time></trkpt><trkpt lat="46.4019937616922" lon="12.999689281780945"><ele>317.0</ele><time>2026-04-12T09:07:47Z</time></trkpt><trkpt lat="46.40205697703038" lon="12.999416796268207"><ele>317.0</ele><time>2026-04-12T09:07:48Z</time></trkpt><trkpt lat="46.40211964954284" lon="12.99914280772879"><ele>318.0</ele><time>2026-04-12T09:07:49Z</time></trkpt><trkpt lat="46.402185153631336" lon="12.998872845793706"><ele>319.0</ele><time>2026-04-12T09:07:50Z</time></trkpt><trkpt lat="46.40225773251483" lon="12.998604703076499"><ele>320.0</ele><time>2026-04-12T09:07:51Z</time></trkpt><trkpt lat="46.40233489957245" lon="12.998336927649277"><ele>321.0</ele><time>2026-04-12T09:07:52Z</time></trkpt><trkpt lat="46.40242080613288" lon="12.998069021472597"><ele>322.0</ele><time>2026-04-12T09:07:53Z</time></trkpt><trkpt lat="46.40251993451412" lon="12.997796184277487"><ele>323.0</ele><time>2026-04-12T09:07:54Z</time></trkpt><trkpt lat="46.40263376539477" lon="12.997522715231115"><ele>322.0</ele><time>2026-04-12T09:07:55Z</time></trkpt><trkpt lat="46.402759402874985" lon="12.997245908858945"><ele>321.0</ele><time>2026-04-12T09:07:56Z</time></trkpt><trkpt lat="46.402892368261966" lon="12.99696952597734"><ele>320.5</ele><time>2026-04-12T09:07:57Z</time></trkpt><trkpt lat="46.403032494582625" lon="12.996692984011597"><ele>320.0</ele><time>2026-04-12T09:07:58Z</time></trkpt><trkpt lat="46.40317420705887" lon="12.996422093424831"><ele>320.0</ele><time>2026-04-12T09:07:59Z</time></trkpt><trkpt lat="46.40331441143119" lon="12.99615283683287"><ele>320.0</ele><time>2026-04-12T09:08:00Z</time></trkpt><trkpt lat="46.4034508699879" lon="12.99588547067964"><ele>319.6666666666667</ele><time>2026-04-12T09:08:01Z</time></trkpt><trkpt lat="46.403583262238044" lon="12.995620155810832"><ele>319.3333333333333</ele><time>2026-04-12T09:08:02Z</time></trkpt><trkpt lat="46.40371144681261" lon="12.995358509853629"><ele>319.0</ele><time>2026-04-12T09:08:03Z</time></trkpt><trkpt lat="46.40383459965882" lon="12.995099111265821"><ele>319.0</ele><time>2026-04-12T09:08:04Z</time></trkpt><trkpt lat="46.40395226224471" lon="12.994840202600571"><ele>319.0</ele><time>2026-04-12T09:08:05Z</time></trkpt><trkpt lat="46.40406732424005" lon="12.99458216045978"><ele>319.0</ele><time>2026-04-12T09:08:06Z</time></trkpt><trkpt lat="46.404180163631246" lon="12.994324656298298"><ele>319.0</ele><time>2026-04-12T09:08:07Z</time></trkpt><trkpt lat="46.40429135049809" lon="12.994065139625375"><ele>319.0</ele><time>2026-04-12T09:08:08Z</time></trkpt><trkpt lat="46.40440332451785" lon="12.993798475791033"><ele>319.0</ele><time>2026-04-12T09:08:09Z</time></trkpt><trkpt lat="46.404515863851096" lon="12.993524055389654"><ele>318.5</ele><time>2026-04-12T09:08:10Z</time></trkpt><trkpt lat="46.404627712676444" lon="12.993242914180247"><ele>318.0</ele><time>2026-04-12T09:08:11Z</time></trkpt><trkpt lat="46.40473691137198" lon="12.992956001972502"><ele>318.0</ele><time>2026-04-12T09:08:12Z</time></trkpt><trkpt lat="46.40484310726174" lon="12.992665026745177"><ele>318.0</ele><time>2026-04-12T09:08:13Z</time></trkpt><trkpt lat="46.40494635455049" lon="12.992375795418509"><ele>318.0</ele><time>2026-04-12T09:08:14Z</time></trkpt><trkpt lat="46.40504603008711" lon="12.992088564075221"><ele>318.0</ele><time>2026-04-12T09:08:15Z</time></trkpt><trkpt lat="46.40514026615575" lon="12.991802635686968"><ele>318.0</ele><time>2026-04-12T09:08:16Z</time></trkpt><trkpt lat="46.405231781882456" lon="12.991515142114299"><ele>318.0</ele><time>2026-04-12T09:08:17Z</time></trkpt><trkpt lat="46.40532142150647" lon="12.991227757122644"><ele>318.0</ele><time>2026-04-12T09:08:18Z</time></trkpt><trkpt lat="46.40540892595397" lon="12.99093811575518"><ele>318.0</ele><time>2026-04-12T09:08:19Z</time></trkpt><trkpt lat="46.40549529073124" lon="12.990646406022561"><ele>318.0</ele><time>2026-04-12T09:08:20Z</time></trkpt><trkpt lat="46.40557830046344" lon="12.990353379635556"><ele>318.0</ele><time>2026-04-12T09:08:21Z</time></trkpt><trkpt lat="46.40565802297191" lon="12.990059239886213"><ele>318.0</ele><time>2026-04-12T09:08:22Z</time></trkpt><trkpt lat="46.40573538706901" lon="12.989761101765927"><ele>318.3333333333333</ele><time>2026-04-12T09:08:23Z</time></trkpt><trkpt lat="46.40581174236781" lon="12.989452227099054"><ele>318.66666666666663</ele><time>2026-04-12T09:08:24Z</time></trkpt><trkpt lat="46.40588249301559" lon="12.989146368104366"><ele>319.0</ele><time>2026-04-12T09:08:25Z</time></trkpt><trkpt lat="46.40594967756911" lon="12.988840116769756"><ele>319.66666666666663</ele><time>2026-04-12T09:08:26Z</time></trkpt><trkpt lat="46.40601763124577" lon="12.98853567012622"><ele>320.3333333333333</ele><time>2026-04-12T09:08:27Z</time></trkpt><trkpt lat="46.406084554031786" lon="12.988229818081658"><ele>321.0</ele><time>2026-04-12T09:08:28Z</time></trkpt><trkpt lat="46.406148633104436" lon="12.987918231068985"><ele>321.0</ele><time>2026-04-12T09:08:29Z</time></trkpt><trkpt lat="46.406206964207506" lon="12.987601242978405"><ele>321.0</ele><time>2026-04-12T09:08:30Z</time></trkpt><trkpt lat="46.40626211744603" lon="12.987280479494903"><ele>326.0</ele><time>2026-04-12T09:08:31Z</time></trkpt><trkpt lat="46.406336755380536" lon="12.98696682847574"><ele>331.0</ele><time>2026-04-12T09:08:32Z</time></trkpt><trkpt lat="46.40639726269915" lon="12.986647657287044"><ele>332.5</ele><time>2026-04-12T09:08:33Z</time></trkpt><trkpt lat="46.406419819540794" lon="12.986308129045149"><ele>334.0</ele><time>2026-04-12T09:08:34Z</time></trkpt><trkpt lat="46.4064685169301" lon="12.985977900648962"><ele>334.0</ele><time>2026-04-12T09:08:35Z</time></trkpt><trkpt lat="46.40651537879241" lon="12.985645539812191"><ele>334.0</ele><time>2026-04-12T09:08:36Z</time></trkpt><trkpt lat="46.40655729234546" lon="12.985308106790058"><ele>332.0</ele><time>2026-04-12T09:08:37Z</time></trkpt><trkpt lat="46.40659719769975" lon="12.98496675628564"><ele>330.0</ele><time>2026-04-12T09:08:38Z</time></trkpt><trkpt lat="46.40663544060241" lon="12.984623314012879"><ele>330.0</ele><time>2026-04-12T09:08:39Z</time></trkpt><trkpt lat="46.406670968129944" lon="12.984278821329301"><ele>330.0</ele><time>2026-04-12T09:08:40Z</time></trkpt><trkpt lat="46.40670643978579" lon="12.98393332554942"><ele>329.0</ele><time>2026-04-12T09:08:41Z</time></trkpt><trkpt lat="46.406742949598204" lon="12.983593810370397"><ele>328.0</ele><time>2026-04-12T09:08:42Z</time></trkpt><trkpt lat="46.406775690361336" lon="12.983261418071228"><ele>328.0</ele><time>2026-04-12T09:08:43Z</time></trkpt><trkpt lat="46.40680656560166" lon="12.982929824524057"><ele>328.0</ele><time>2026-04-12T09:08:44Z</time></trkpt><trkpt lat="46.406835817779495" lon="12.982611598031903"><ele>327.66666666666663</ele><time>2026-04-12T09:08:45Z</time></trkpt><trkpt lat="46.40686456896546" lon="12.982288328144655"><ele>327.3333333333333</ele><time>2026-04-12T09:08:46Z</time></trkpt><trkpt lat="46.406892803791216" lon="12.981969773494333"><ele>327.0</ele><time>2026-04-12T09:08:47Z</time></trkpt><trkpt lat="46.406922359923165" lon="12.981652755471034"><ele>326.6666666666667</ele><time>2026-04-12T09:08:47.999Z</time></trkpt><trkpt lat="46.40695392689146" lon="12.9813369512071"><ele>326.33333333333337</ele><time>2026-04-12T09:08:48.999Z</time></trkpt><trkpt lat="46.40698118573351" lon="12.981020661886559"><ele>326.0</ele><time>2026-04-12T09:08:49.999Z</time></trkpt><trkpt lat="46.40700899321665" lon="12.980705681764373"><ele>326.0</ele><time>2026-04-12T09:08:50.999Z</time></trkpt><trkpt lat="46.407037917560714" lon="12.980393800907121"><ele>326.0</ele><time>2026-04-12T09:08:51.999Z</time></trkpt><trkpt lat="46.40706826721723" lon="12.980083008906744"><ele>326.0</ele><time>2026-04-12T09:08:52.999Z</time></trkpt><trkpt lat="46.40709903916664" lon="12.979771201607793"><ele>326.6666666666667</ele><time>2026-04-12T09:08:53.999Z</time></trkpt><trkpt lat="46.40712778661293" lon="12.979459294332862"><ele>327.3333333333333</ele><time>2026-04-12T09:08:54.999Z</time></trkpt><trkpt lat="46.4071589834886" lon="12.979143720344293"><ele>328.0</ele><time>2026-04-12T09:08:55.999Z</time></trkpt><trkpt lat="46.40719219103098" lon="12.978828144327023"><ele>329.3333333333333</ele><time>2026-04-12T09:08:56.999Z</time></trkpt><trkpt lat="46.40722588650847" lon="12.97850999092719"><ele>330.6666666666667</ele><time>2026-04-12T09:08:57.999Z</time></trkpt><trkpt lat="46.40726132191103" lon="12.978192633260543"><ele>332.0</ele><time>2026-04-12T09:08:58.999Z</time></trkpt><trkpt lat="46.40729873650998" lon="12.977874252210555"><ele>332.0</ele><time>2026-04-12T09:08:59.999Z</time></trkpt><trkpt lat="46.40733916300128" lon="12.977555212456815"><ele>332.0</ele><time>2026-04-12T09:09:00.999Z</time></trkpt><trkpt lat="46.40738177160384" lon="12.977241844226636"><ele>332.0</ele><time>2026-04-12T09:09:01.999Z</time></trkpt><trkpt lat="46.40742715796936" lon="12.976937558426524"><ele>331.33333333333337</ele><time>2026-04-12T09:09:02.999Z</time></trkpt><trkpt lat="46.407473709800236" lon="12.976637303509158"><ele>330.6666666666667</ele><time>2026-04-12T09:09:03.999Z</time></trkpt><trkpt lat="46.407521281632995" lon="12.976339184688058"><ele>330.0</ele><time>2026-04-12T09:09:04.999Z</time></trkpt><trkpt lat="46.40757296493626" lon="12.976041438107497"><ele>329.0</ele><time>2026-04-12T09:09:05.999Z</time></trkpt><trkpt lat="46.407629111202645" lon="12.975749184833306"><ele>328.0</ele><time>2026-04-12T09:09:06.999Z</time></trkpt><trkpt lat="46.40768589437181" lon="12.975457722662686"><ele>327.0</ele><time>2026-04-12T09:09:07.999Z</time></trkpt><trkpt lat="46.40774481982835" lon="12.975167981459116"><ele>327.0</ele><time>2026-04-12T09:09:08.999Z</time></trkpt><trkpt lat="46.407805668088464" lon="12.974880203930518"><ele>327.0</ele><time>2026-04-12T09:09:09.999Z</time></trkpt><trkpt lat="46.40786775573407" lon="12.97459146424711"><ele>327.0</ele><time>2026-04-12T09:09:10.999Z</time></trkpt><trkpt lat="46.40793135591204" lon="12.974303204634811"><ele>332.3333333333333</ele><time>2026-04-12T09:09:11.999Z</time></trkpt><trkpt lat="46.40799756592501" lon="12.97401227866748"><ele>337.66666666666663</ele><time>2026-04-12T09:09:12.999Z</time></trkpt><trkpt lat="46.408068536414035" lon="12.973719860322538"><ele>343.0</ele><time>2026-04-12T09:09:13.999Z</time></trkpt><trkpt lat="46.408143783806565" lon="12.97342820872417"><ele>340.66666666666663</ele><time>2026-04-12T09:09:14.999Z</time></trkpt><trkpt lat="46.40822242120001" lon="12.973134755089132"><ele>338.3333333333333</ele><time>2026-04-12T09:09:15.999Z</time></trkpt><trkpt lat="46.408302897644056" lon="12.972841157697522"><ele>336.0</ele><time>2026-04-12T09:09:16.999Z</time></trkpt><trkpt lat="46.40838555560139" lon="12.972547804582062"><ele>334.6666666666667</ele><time>2026-04-12T09:09:17.999Z</time></trkpt><trkpt lat="46.40847116033383" lon="12.972254792083012"><ele>333.33333333333337</ele><time>2026-04-12T09:09:19Z</time></trkpt><trkpt lat="46.408558208068996" lon="12.97195740034387"><ele>332.0</ele><time>2026-04-12T09:09:20Z</time></trkpt><trkpt lat="46.40864619555193" lon="12.971669564541626"><ele>331.6666666666667</ele><time>2026-04-12T09:09:21Z</time></trkpt><trkpt lat="46.40873560030728" lon="12.971378009058135"><ele>331.3333333333333</ele><time>2026-04-12T09:09:22Z</time></trkpt><trkpt lat="46.40882211717429" lon="12.971081272307975"><ele>331.0</ele><time>2026-04-12T09:09:23Z</time></trkpt><trkpt lat="46.40891648547386" lon="12.970783686076352"><ele>337.0</ele><time>2026-04-12T09:09:24Z</time></trkpt><trkpt lat="46.4090099480242" lon="12.970485387316133"><ele>343.0</ele><time>2026-04-12T09:09:25Z</time></trkpt><trkpt lat="46.40910191151119" lon="12.970184302552996"><ele>339.0</ele><time>2026-04-12T09:09:26Z</time></trkpt><trkpt lat="46.40919273097774" lon="12.969883739405264"><ele>335.0</ele><time>2026-04-12T09:09:27Z</time></trkpt><trkpt lat="46.409286924199854" lon="12.969586998606426"><ele>335.0</ele><time>2026-04-12T09:09:28Z</time></trkpt><trkpt lat="46.40937641751442" lon="12.969290550416673"><ele>335.0</ele><time>2026-04-12T09:09:29Z</time></trkpt><trkpt lat="46.40946696296977" lon="12.968992762586753"><ele>335.0</ele><time>2026-04-12T09:09:30Z</time></trkpt><trkpt lat="46.40955436608971" lon="12.968697960248447"><ele>334.0</ele><time>2026-04-12T09:09:31Z</time></trkpt><trkpt lat="46.409643442990266" lon="12.968407009991125"><ele>333.0</ele><time>2026-04-12T09:09:32Z</time></trkpt><trkpt lat="46.409732546119315" lon="12.968120252880375"><ele>332.0</ele><time>2026-04-12T09:09:33Z</time></trkpt><trkpt lat="46.409819074760165" lon="12.967835032145615"><ele>333.33333333333337</ele><time>2026-04-12T09:09:34Z</time></trkpt><trkpt lat="46.409902226355534" lon="12.967553697438928"><ele>334.6666666666667</ele><time>2026-04-12T09:09:35Z</time></trkpt><trkpt lat="46.409985321215096" lon="12.967274384085727"><ele>336.0</ele><time>2026-04-12T09:09:36Z</time></trkpt><trkpt lat="46.41006293121349" lon="12.96699705332902"><ele>336.0</ele><time>2026-04-12T09:09:37Z</time></trkpt><trkpt lat="46.410127944109384" lon="12.966715505731488"><ele>336.0</ele><time>2026-04-12T09:09:38Z</time></trkpt><trkpt lat="46.41018472773978" lon="12.966432053236694"><ele>336.0</ele><time>2026-04-12T09:09:39Z</time></trkpt><trkpt lat="46.41023205056784" lon="12.966146165698433"><ele>335.6666666666667</ele><time>2026-04-12T09:09:40Z</time></trkpt><trkpt lat="46.41027259089626" lon="12.965853509907104"><ele>335.33333333333337</ele><time>2026-04-12T09:09:41Z</time></trkpt><trkpt lat="46.41030272212833" lon="12.965549890706722"><ele>335.0</ele><time>2026-04-12T09:09:42Z</time></trkpt><trkpt lat="46.41033419839443" lon="12.965238986075539"><ele>336.0</ele><time>2026-04-12T09:09:43Z</time></trkpt><trkpt lat="46.41036706805008" lon="12.964916893629713"><ele>337.0</ele><time>2026-04-12T09:09:44Z</time></trkpt><trkpt lat="46.410394172935085" lon="12.964576210688213"><ele>337.0</ele><time>2026-04-12T09:09:45Z</time></trkpt><trkpt lat="46.41041658649688" lon="12.964223613476264"><ele>337.0</ele><time>2026-04-12T09:09:46Z</time></trkpt><trkpt lat="46.4104236013616" lon="12.963848755782317"><ele>337.0</ele><time>2026-04-12T09:09:47Z</time></trkpt><trkpt lat="46.41042085800446" lon="12.963479188633558"><ele>337.0</ele><time>2026-04-12T09:09:48Z</time></trkpt><trkpt lat="46.410405377642824" lon="12.963108179331115"><ele>337.0</ele><time>2026-04-12T09:09:49Z</time></trkpt><trkpt lat="46.41038452895201" lon="12.962750026945791"><ele>337.0</ele><time>2026-04-12T09:09:50Z</time></trkpt><trkpt lat="46.410367617338494" lon="12.962413363361621"><ele>337.3333333333333</ele><time>2026-04-12T09:09:51Z</time></trkpt><trkpt lat="46.41036446773613" lon="12.962096923499173"><ele>337.6666666666667</ele><time>2026-04-12T09:09:52Z</time></trkpt><trkpt lat="46.41037509734454" lon="12.961794317201353"><ele>338.0</ele><time>2026-04-12T09:09:53Z</time></trkpt><trkpt lat="46.410402005665794" lon="12.961499083511798"><ele>338.0</ele><time>2026-04-12T09:09:54Z</time></trkpt><trkpt lat="46.41045506372905" lon="12.961190688194312"><ele>338.0</ele><time>2026-04-12T09:09:55Z</time></trkpt><trkpt lat="46.41053542459593" lon="12.960881308562616"><ele>338.0</ele><time>2026-04-12T09:09:56Z</time></trkpt><trkpt lat="46.410628531454606" lon="12.960566496292312"><ele>338.5</ele><time>2026-04-12T09:09:57Z</time></trkpt><trkpt lat="46.410727890465544" lon="12.960254513404978"><ele>339.0</ele><time>2026-04-12T09:09:58Z</time></trkpt><trkpt lat="46.41081431861898" lon="12.95996463837765"><ele>338.0</ele><time>2026-04-12T09:09:59Z</time></trkpt><trkpt lat="46.410881225113094" lon="12.959685221815679"><ele>337.0</ele><time>2026-04-12T09:10:00Z</time></trkpt><trkpt lat="46.41093200025321" lon="12.959405572154335"><ele>336.0</ele><time>2026-04-12T09:10:01Z</time></trkpt><trkpt lat="46.410961882668495" lon="12.959122424257748"><ele>336.0</ele><time>2026-04-12T09:10:02Z</time></trkpt><trkpt lat="46.41096480313294" lon="12.958831805957237"><ele>336.0</ele><time>2026-04-12T09:10:03Z</time></trkpt><trkpt lat="46.410956109567586" lon="12.958535184458464"><ele>336.0</ele><time>2026-04-12T09:10:04Z</time></trkpt><trkpt lat="46.41094611048418" lon="12.958228891001497"><ele>336.3333333333333</ele><time>2026-04-12T09:10:05Z</time></trkpt><trkpt lat="46.410937105708854" lon="12.95792695894604"><ele>336.66666666666663</ele><time>2026-04-12T09:10:06Z</time></trkpt><trkpt lat="46.41092532621386" lon="12.957654989124295"><ele>337.0</ele><time>2026-04-12T09:10:07Z</time></trkpt><trkpt lat="46.41091566752609" lon="12.957424244882455"><ele>337.25</ele><time>2026-04-12T09:10:08Z</time></trkpt><trkpt lat="46.41090973605431" lon="12.957215862720206"><ele>337.5</ele><time>2026-04-12T09:10:09Z</time></trkpt><trkpt lat="46.410901964338336" lon="12.957010985451946"><ele>337.75</ele><time>2026-04-12T09:10:10Z</time></trkpt><trkpt lat="46.41089474521385" lon="12.956818529911228"><ele>338.0</ele><time>2026-04-12T09:10:11Z</time></trkpt><trkpt lat="46.410889056517206" lon="12.956632537498352"><ele>338.25</ele><time>2026-04-12T09:10:12Z</time></trkpt><trkpt lat="46.41088311908287" lon="12.9564436225583"><ele>338.5</ele><time>2026-04-12T09:10:13Z</time></trkpt><trkpt lat="46.41087616325533" lon="12.956246311079594"><ele>338.75</ele><time>2026-04-12T09:10:14Z</time></trkpt><trkpt lat="46.410872318422335" lon="12.956043056788603"><ele>339.0</ele><time>2026-04-12T09:10:15Z</time></trkpt><trkpt lat="46.41087064529572" lon="12.955830065999859"><ele>341.3333333333333</ele><time>2026-04-12T09:10:16Z</time></trkpt><trkpt lat="46.410870982619684" lon="12.95560921273161"><ele>343.66666666666663</ele><time>2026-04-12T09:10:17Z</time></trkpt><trkpt lat="46.41086834584297" lon="12.955374304484636"><ele>346.0</ele><time>2026-04-12T09:10:18Z</time></trkpt><trkpt lat="46.41086843087873" lon="12.95512538031266"><ele>346.0</ele><time>2026-04-12T09:10:19Z</time></trkpt><trkpt lat="46.410870413045586" lon="12.95485770165494"><ele>346.0</ele><time>2026-04-12T09:10:20Z</time></trkpt><trkpt lat="46.41086838498749" lon="12.95457747732827"><ele>346.0</ele><time>2026-04-12T09:10:21Z</time></trkpt><trkpt lat="46.41086946710879" lon="12.954299320651101"><ele>346.0</ele><time>2026-04-12T09:10:22Z</time></trkpt><trkpt lat="46.410868380558206" lon="12.954034840075673"><ele>346.0</ele><time>2026-04-12T09:10:23Z</time></trkpt><trkpt lat="46.41086239999495" lon="12.953780991509076"><ele>346.0</ele><time>2026-04-12T09:10:24Z</time></trkpt><trkpt lat="46.4108442586897" lon="12.95352973729207"><ele>346.3333333333333</ele><time>2026-04-12T09:10:25Z</time></trkpt><trkpt lat="46.41081204191906" lon="12.953275964206759"><ele>346.6666666666667</ele><time>2026-04-12T09:10:26Z</time></trkpt><trkpt lat="46.410763970884794" lon="12.953020614964695"><ele>347.0</ele><time>2026-04-12T09:10:27Z</time></trkpt><trkpt lat="46.410708556570476" lon="12.952763591207255"><ele>351.0</ele><time>2026-04-12T09:10:28Z</time></trkpt><trkpt lat="46.41064793472687" lon="12.952501617846288"><ele>355.0</ele><time>2026-04-12T09:10:29Z</time></trkpt><trkpt lat="46.41060470020852" lon="12.95222908035537"><ele>359.0</ele><time>2026-04-12T09:10:30Z</time></trkpt><trkpt lat="46.41054756598663" lon="12.951965340766929"><ele>353.6666666666667</ele><time>2026-04-12T09:10:31Z</time></trkpt><trkpt lat="46.41046930906914" lon="12.951710324208184"><ele>348.3333333333333</ele><time>2026-04-12T09:10:32Z</time></trkpt><trkpt lat="46.410419247662986" lon="12.951445162614602"><ele>343.0</ele><time>2026-04-12T09:10:33Z</time></trkpt><trkpt lat="46.41039448267415" lon="12.951174294901804"><ele>343.0</ele><time>2026-04-12T09:10:34Z</time></trkpt><trkpt lat="46.410388523015364" lon="12.950897908708514"><ele>343.0</ele><time>2026-04-12T09:10:35Z</time></trkpt><trkpt lat="46.41038818929233" lon="12.950635585091762"><ele>343.0</ele><time>2026-04-12T09:10:36Z</time></trkpt><trkpt lat="46.41039132863994" lon="12.950374557297994"><ele>342.0</ele><time>2026-04-12T09:10:37Z</time></trkpt><trkpt lat="46.4103951921812" lon="12.95011373675462"><ele>341.0</ele><time>2026-04-12T09:10:38Z</time></trkpt><trkpt lat="46.41039399957328" lon="12.949851737922016"><ele>340.0</ele><time>2026-04-12T09:10:39Z</time></trkpt><trkpt lat="46.41039133698093" lon="12.94959965673198"><ele>340.0</ele><time>2026-04-12T09:10:40Z</time></trkpt><trkpt lat="46.4103954723194" lon="12.949361945021922"><ele>340.0</ele><time>2026-04-12T09:10:41Z</time></trkpt><trkpt lat="46.4104093528793" lon="12.949131766549403"><ele>340.0</ele><time>2026-04-12T09:10:42Z</time></trkpt><trkpt lat="46.41043916997821" lon="12.94890213316211"><ele>340.3333333333333</ele><time>2026-04-12T09:10:43Z</time></trkpt><trkpt lat="46.41048399220778" lon="12.948674679795259"><ele>340.6666666666667</ele><time>2026-04-12T09:10:44Z</time></trkpt><trkpt lat="46.410548970582305" lon="12.948461464212945"><ele>341.0</ele><time>2026-04-12T09:10:45Z</time></trkpt><trkpt lat="46.410621753293455" lon="12.948287649605895"><ele>344.6</ele><time>2026-04-12T09:10:46Z</time></trkpt><trkpt lat="46.41068333693812" lon="12.948152483242277"><ele>348.20000000000005</ele><time>2026-04-12T09:10:47Z</time></trkpt><trkpt lat="46.410746226480235" lon="12.948033350515772"><ele>351.79999999999995</ele><time>2026-04-12T09:10:48Z</time></trkpt><trkpt lat="46.41081395370953" lon="12.947907659584901"><ele>355.4</ele><time>2026-04-12T09:10:49Z</time></trkpt><trkpt lat="46.410879593231385" lon="12.94778038203912"><ele>359.0</ele><time>2026-04-12T09:10:49.999Z</time></trkpt><trkpt lat="46.4109378186379" lon="12.947660042722694"><ele>357.0</ele><time>2026-04-12T09:10:50.999Z</time></trkpt><trkpt lat="46.4109983670679" lon="12.947534419154696"><ele>355.0</ele><time>2026-04-12T09:10:51.999Z</time></trkpt><trkpt lat="46.411056368246676" lon="12.947400199436656"><ele>353.0</ele><time>2026-04-12T09:10:52.999Z</time></trkpt><trkpt lat="46.411111355647044" lon="12.947259428815848"><ele>351.0</ele><time>2026-04-12T09:10:53.999Z</time></trkpt><trkpt lat="46.41115946067486" lon="12.947106143877358"><ele>349.0</ele><time>2026-04-12T09:10:54.999Z</time></trkpt><trkpt lat="46.411197898505115" lon="12.946932065893508"><ele>349.0</ele><time>2026-04-12T09:10:55.999Z</time></trkpt><trkpt lat="46.41123541070206" lon="12.946738543653494"><ele>349.0</ele><time>2026-04-12T09:10:56.999Z</time></trkpt><trkpt lat="46.41127701041097" lon="12.946529756607156"><ele>349.0</ele><time>2026-04-12T09:10:57.999Z</time></trkpt><trkpt lat="46.41131542684248" lon="12.946316778815362"><ele>349.0</ele><time>2026-04-12T09:10:58.999Z</time></trkpt><trkpt lat="46.4113503946161" lon="12.946116803808671"><ele>350.75</ele><time>2026-04-12T09:10:59.999Z</time></trkpt><trkpt lat="46.41138942615733" lon="12.94593408257828"><ele>352.5</ele><time>2026-04-12T09:11:00.999Z</time></trkpt><trkpt lat="46.41143977600835" lon="12.94577085309264"><ele>354.25</ele><time>2026-04-12T09:11:01.999Z</time></trkpt><trkpt lat="46.41150454959891" lon="12.945610686740263"><ele>356.0</ele><time>2026-04-12T09:11:02.999Z</time></trkpt><trkpt lat="46.41158208615906" lon="12.945448553621844"><ele>356.0</ele><time>2026-04-12T09:11:03.999Z</time></trkpt><trkpt lat="46.41167234236041" lon="12.945282009645743"><ele>356.0</ele><time>2026-04-12T09:11:04.999Z</time></trkpt><trkpt lat="46.41176354961542" lon="12.945113514047186"><ele>356.0</ele><time>2026-04-12T09:11:05.999Z</time></trkpt><trkpt lat="46.411842443187275" lon="12.944918377502612"><ele>353.33333333333337</ele><time>2026-04-12T09:11:06.999Z</time></trkpt><trkpt lat="46.41191140438585" lon="12.944697859312162"><ele>350.6666666666667</ele><time>2026-04-12T09:11:07.999Z</time></trkpt><trkpt lat="46.41198071908227" lon="12.944460248829321"><ele>348.0</ele><time>2026-04-12T09:11:08.999Z</time></trkpt><trkpt lat="46.41205417948543" lon="12.944220145603984"><ele>347.3333333333333</ele><time>2026-04-12T09:11:09.999Z</time></trkpt><trkpt lat="46.412120504530044" lon="12.943977586642086"><ele>346.66666666666663</ele><time>2026-04-12T09:11:10.999Z</time></trkpt><trkpt lat="46.41217549839758" lon="12.94371496988931"><ele>346.0</ele><time>2026-04-12T09:11:11.999Z</time></trkpt><trkpt lat="46.412225716867425" lon="12.943456473442897"><ele>352.66666666666663</ele><time>2026-04-12T09:11:12.999Z</time></trkpt><trkpt lat="46.41227440628187" lon="12.943204994438648"><ele>359.3333333333333</ele><time>2026-04-12T09:11:13.999Z</time></trkpt><trkpt lat="46.41231531521769" lon="12.942959723899662"><ele>366.0</ele><time>2026-04-12T09:11:14.999Z</time></trkpt><trkpt lat="46.412338379215136" lon="12.942712791031916"><ele>363.6666666666667</ele><time>2026-04-12T09:11:15.999Z</time></trkpt><trkpt lat="46.41234146287459" lon="12.942454215119533"><ele>361.33333333333337</ele><time>2026-04-12T09:11:16.999Z</time></trkpt><trkpt lat="46.41232636191362" lon="12.942185681801316"><ele>359.0</ele><time>2026-04-12T09:11:17.999Z</time></trkpt><trkpt lat="46.412308394643794" lon="12.941909672464275"><ele>358.6666666666667</ele><time>2026-04-12T09:11:18.999Z</time></trkpt><trkpt lat="46.41228928987543" lon="12.94163523422527"><ele>358.3333333333333</ele><time>2026-04-12T09:11:19.999Z</time></trkpt><trkpt lat="46.41227256216715" lon="12.941363177658333"><ele>358.0</ele><time>2026-04-12T09:11:20.999Z</time></trkpt><trkpt lat="46.412255822344164" lon="12.941094175754513"><ele>357.66666666666663</ele><time>2026-04-12T09:11:21.999Z</time></trkpt><trkpt lat="46.412238329942824" lon="12.940834428198734"><ele>357.3333333333333</ele><time>2026-04-12T09:11:22.999Z</time></trkpt><trkpt lat="46.41222266773233" lon="12.940598343000515"><ele>357.0</ele><time>2026-04-12T09:11:23.999Z</time></trkpt><trkpt lat="46.41220732278111" lon="12.940370254078498"><ele>357.0</ele><time>2026-04-12T09:11:25Z</time></trkpt><trkpt lat="46.41219109961483" lon="12.94015005139948"><ele>357.0</ele><time>2026-04-12T09:11:26Z</time></trkpt><trkpt lat="46.41217615216322" lon="12.939939107785692"><ele>357.0</ele><time>2026-04-12T09:11:27Z</time></trkpt><trkpt lat="46.41216429986457" lon="12.939739993085125"><ele>357.0</ele><time>2026-04-12T09:11:28Z</time></trkpt><trkpt lat="46.41215122171526" lon="12.939550394282834"><ele>355.0</ele><time>2026-04-12T09:11:29Z</time></trkpt><trkpt lat="46.41214027378123" lon="12.93936837839212"><ele>353.0</ele><time>2026-04-12T09:11:30Z</time></trkpt><trkpt lat="46.41212931713081" lon="12.939193099187237"><ele>351.0</ele><time>2026-04-12T09:11:31Z</time></trkpt><trkpt lat="46.412118832464195" lon="12.939018000054054"><ele>349.0</ele><time>2026-04-12T09:11:32Z</time></trkpt><trkpt lat="46.412107682905436" lon="12.938850971080727"><ele>349.0</ele><time>2026-04-12T09:11:33Z</time></trkpt><trkpt lat="46.41209625443183" lon="12.938697056412282"><ele>349.0</ele><time>2026-04-12T09:11:34Z</time></trkpt><trkpt lat="46.41208616714449" lon="12.938541607473091"><ele>349.0</ele><time>2026-04-12T09:11:35Z</time></trkpt><trkpt lat="46.41208055459811" lon="12.938406840890256"><ele>349.0</ele><time>2026-04-12T09:11:36Z</time></trkpt><trkpt lat="46.41207969840873" lon="12.938282419553627"><ele>349.0</ele><time>2026-04-12T09:11:37Z</time></trkpt><trkpt lat="46.41208303064838" lon="12.938159597718261"><ele>349.6</ele><time>2026-04-12T09:11:38Z</time></trkpt><trkpt lat="46.412097291640954" lon="12.938040182755017"><ele>350.2</ele><time>2026-04-12T09:11:39Z</time></trkpt><trkpt lat="46.412121792022006" lon="12.937924169386566"><ele>350.8</ele><time>2026-04-12T09:11:40Z</time></trkpt><trkpt lat="46.412169098873136" lon="12.93781734180417"><ele>351.40000000000003</ele><time>2026-04-12T09:11:41Z</time></trkpt><trkpt lat="46.41223538141117" lon="12.937711349163518"><ele>352.0</ele><time>2026-04-12T09:11:42Z</time></trkpt><trkpt lat="46.41227507109881" lon="12.93756811646718"><ele>353.75</ele><time>2026-04-12T09:11:43Z</time></trkpt><trkpt lat="46.412295925815805" lon="12.93739424971032"><ele>355.5</ele><time>2026-04-12T09:11:44Z</time></trkpt><trkpt lat="46.412328024480274" lon="12.937207100318387"><ele>357.25</ele><time>2026-04-12T09:11:45Z</time></trkpt><trkpt lat="46.412397817704466" lon="12.93701750724792"><ele>359.0</ele><time>2026-04-12T09:11:46Z</time></trkpt><trkpt lat="46.4124691177041" lon="12.936842968202003"><ele>358.4</ele><time>2026-04-12T09:11:47Z</time></trkpt><trkpt lat="46.41252532351894" lon="12.936686078857432"><ele>357.79999999999995</ele><time>2026-04-12T09:11:48Z</time></trkpt><trkpt lat="46.4125724769145" lon="12.936537386013267"><ele>357.20000000000005</ele><time>2026-04-12T09:11:49Z</time></trkpt><trkpt lat="46.41261416704637" lon="12.936396166753312"><ele>356.6</ele><time>2026-04-12T09:11:50Z</time></trkpt><trkpt lat="46.41265478933694" lon="12.936250141892415"><ele>356.0</ele><time>2026-04-12T09:11:51Z</time></trkpt><trkpt lat="46.412698828256175" lon="12.93609961835874"><ele>356.0</ele><time>2026-04-12T09:11:52Z</time></trkpt><trkpt lat="46.41274530609697" lon="12.935942957354001"><ele>356.0</ele><time>2026-04-12T09:11:53Z</time></trkpt><trkpt lat="46.41279357410139" lon="12.935784365623404"><ele>356.0</ele><time>2026-04-12T09:11:54Z</time></trkpt><trkpt lat="46.41284058321252" lon="12.93562127367246"><ele>356.0</ele><time>2026-04-12T09:11:55Z</time></trkpt><trkpt lat="46.412888855344015" lon="12.93545580710401"><ele>356.0</ele><time>2026-04-12T09:11:56Z</time></trkpt><trkpt lat="46.41293823468751" lon="12.935289134931972"><ele>356.0</ele><time>2026-04-12T09:11:57Z</time></trkpt><trkpt lat="46.412987768083084" lon="12.935118763256925"><ele>356.0</ele><time>2026-04-12T09:11:58Z</time></trkpt><trkpt lat="46.41303770390344" lon="12.934949105252294"><ele>356.0</ele><time>2026-04-12T09:11:59Z</time></trkpt><trkpt lat="46.413085782618715" lon="12.93478366912248"><ele>356.0</ele><time>2026-04-12T09:12:00Z</time></trkpt><trkpt lat="46.413130933290375" lon="12.934626042676642"><ele>356.0</ele><time>2026-04-12T09:12:01Z</time></trkpt><trkpt lat="46.413174776015914" lon="12.93447385455949"><ele>356.0</ele><time>2026-04-12T09:12:02Z</time></trkpt><trkpt lat="46.41321875434619" lon="12.93432652890532"><ele>356.0</ele><time>2026-04-12T09:12:03Z</time></trkpt><trkpt lat="46.41326125120953" lon="12.934183122082983"><ele>356.4</ele><time>2026-04-12T09:12:04Z</time></trkpt><trkpt lat="46.41330318971841" lon="12.93403922393055"><ele>356.8</ele><time>2026-04-12T09:12:05Z</time></trkpt><trkpt lat="46.41334536269895" lon="12.93389338504402"><ele>357.2</ele><time>2026-04-12T09:12:06Z</time></trkpt><trkpt lat="46.41339194227837" lon="12.933744538248765"><ele>357.59999999999997</ele><time>2026-04-12T09:12:07Z</time></trkpt><trkpt lat="46.41344153623038" lon="12.933594789565936"><ele>358.0</ele><time>2026-04-12T09:12:08Z</time></trkpt><trkpt lat="46.41349504420035" lon="12.933451783504372"><ele>357.75</ele><time>2026-04-12T09:12:09Z</time></trkpt><trkpt lat="46.41355375750954" lon="12.933314150380241"><ele>357.5</ele><time>2026-04-12T09:12:10Z</time></trkpt><trkpt lat="46.41362203375082" lon="12.933179871122162"><ele>357.25</ele><time>2026-04-12T09:12:11Z</time></trkpt><trkpt lat="46.41370082075489" lon="12.933037268532022"><ele>357.0</ele><time>2026-04-12T09:12:12Z</time></trkpt><trkpt lat="46.41379103767494" lon="12.932891691744892"><ele>357.25</ele><time>2026-04-12T09:12:13Z</time></trkpt><trkpt lat="46.41388636569639" lon="12.932741069220498"><ele>357.5</ele><time>2026-04-12T09:12:14Z</time></trkpt><trkpt lat="46.41398616671395" lon="12.932588110621277"><ele>357.75</ele><time>2026-04-12T09:12:15Z</time></trkpt><trkpt lat="46.41408624829287" lon="12.932436042343493"><ele>358.0</ele><time>2026-04-12T09:12:16Z</time></trkpt><trkpt lat="46.414183768063694" lon="12.932278914434349"><ele>358.0</ele><time>2026-04-12T09:12:17Z</time></trkpt><trkpt lat="46.41428094216105" lon="12.932120316864301"><ele>358.0</ele><time>2026-04-12T09:12:18Z</time></trkpt><trkpt lat="46.414379657435624" lon="12.931957769071476"><ele>358.0</ele><time>2026-04-12T09:12:19Z</time></trkpt><trkpt lat="46.414473953371726" lon="12.931785318562532"><ele>358.0</ele><time>2026-04-12T09:12:20Z</time></trkpt><trkpt lat="46.41456581452778" lon="12.931608990914546"><ele>363.66666666666663</ele><time>2026-04-12T09:12:21Z</time></trkpt><trkpt lat="46.41465751170486" lon="12.931428423990452"><ele>369.3333333333333</ele><time>2026-04-12T09:12:22Z</time></trkpt><trkpt lat="46.41474827642646" lon="12.931250956709546"><ele>375.0</ele><time>2026-04-12T09:12:23Z</time></trkpt><trkpt lat="46.41483941330819" lon="12.93107712660254"><ele>375.0</ele><time>2026-04-12T09:12:24Z</time></trkpt><trkpt lat="46.41492570316385" lon="12.930911175275488"><ele>375.0</ele><time>2026-04-12T09:12:25Z</time></trkpt><trkpt lat="46.41500643431806" lon="12.930750702912482"><ele>375.0</ele><time>2026-04-12T09:12:26Z</time></trkpt><trkpt lat="46.41508123367625" lon="12.930600800415839"><ele>375.0</ele><time>2026-04-12T09:12:27Z</time></trkpt><trkpt lat="46.415151101876944" lon="12.93045928002283"><ele>373.0</ele><time>2026-04-12T09:12:28Z</time></trkpt><trkpt lat="46.41521639583523" lon="12.930315727017623"><ele>371.0</ele><time>2026-04-12T09:12:29Z</time></trkpt><trkpt lat="46.415271254484" lon="12.930165742662618"><ele>369.0</ele><time>2026-04-12T09:12:30Z</time></trkpt><trkpt lat="46.415317706546816" lon="12.930003451747602"><ele>367.0</ele><time>2026-04-12T09:12:31Z</time></trkpt><trkpt lat="46.41535992337039" lon="12.929832790560543"><ele>366.5</ele><time>2026-04-12T09:12:32Z</time></trkpt><trkpt lat="46.415401604952336" lon="12.929654748834798"><ele>366.0</ele><time>2026-04-12T09:12:33Z</time></trkpt><trkpt lat="46.41544535993369" lon="12.929470218536828"><ele>365.5</ele><time>2026-04-12T09:12:34Z</time></trkpt><trkpt lat="46.415485091235695" lon="12.92927139955914"><ele>365.0</ele><time>2026-04-12T09:12:35Z</time></trkpt><trkpt lat="46.41552052804321" lon="12.92906635673323"><ele>366.25</ele><time>2026-04-12T09:12:36Z</time></trkpt><trkpt lat="46.41555054873824" lon="12.928865685613468"><ele>367.5</ele><time>2026-04-12T09:12:37Z</time></trkpt><trkpt lat="46.41557632884952" lon="12.928685361542893"><ele>368.75</ele><time>2026-04-12T09:12:38Z</time></trkpt><trkpt lat="46.415597698374455" lon="12.928508622587689"><ele>370.0</ele><time>2026-04-12T09:12:39Z</time></trkpt><trkpt lat="46.415612715442315" lon="12.928342276372005"><ele>370.0</ele><time>2026-04-12T09:12:40Z</time></trkpt><trkpt lat="46.41562361555542" lon="12.928184429861073"><ele>370.0</ele><time>2026-04-12T09:12:41Z</time></trkpt><trkpt lat="46.415634728368474" lon="12.928027295065213"><ele>370.0</ele><time>2026-04-12T09:12:42Z</time></trkpt><trkpt lat="46.41564779918472" lon="12.92786973665116"><ele>370.0</ele><time>2026-04-12T09:12:43Z</time></trkpt><trkpt lat="46.41565985121624" lon="12.927714850629835"><ele>370.0</ele><time>2026-04-12T09:12:44Z</time></trkpt><trkpt lat="46.41566857378918" lon="12.927565085487911"><ele>368.66666666666663</ele><time>2026-04-12T09:12:45Z</time></trkpt><trkpt lat="46.415676280416825" lon="12.927422595525965"><ele>367.3333333333333</ele><time>2026-04-12T09:12:46Z</time></trkpt><trkpt lat="46.415684024281745" lon="12.927291458121534"><ele>366.0</ele><time>2026-04-12T09:12:47Z</time></trkpt><trkpt lat="46.41569187661808" lon="12.927170512305064"><ele>364.6666666666667</ele><time>2026-04-12T09:12:48Z</time></trkpt><trkpt lat="46.41569841428595" lon="12.927059097322756"><ele>363.33333333333337</ele><time>2026-04-12T09:12:49Z</time></trkpt><trkpt lat="46.415701296096586" lon="12.926953162250511"><ele>362.0</ele><time>2026-04-12T09:12:50Z</time></trkpt><trkpt lat="46.415707490907806" lon="12.926853666678902"><ele>362.0</ele><time>2026-04-12T09:12:51Z</time></trkpt><trkpt lat="46.415713774428646" lon="12.926754848621687"><ele>362.0</ele><time>2026-04-12T09:12:52Z</time></trkpt><trkpt lat="46.41572112166634" lon="12.926656371696437"><ele>362.0</ele><time>2026-04-12T09:12:53Z</time></trkpt><trkpt lat="46.41572662242319" lon="12.926558877459788"><ele>362.0</ele><time>2026-04-12T09:12:54Z</time></trkpt><trkpt lat="46.415734866294294" lon="12.926453803025844"><ele>362.0</ele><time>2026-04-12T09:12:55Z</time></trkpt><trkpt lat="46.41574337690617" lon="12.926343478032368"><ele>362.0</ele><time>2026-04-12T09:12:55.999Z</time></trkpt><trkpt lat="46.41575502710659" lon="12.926223526479012"><ele>362.0</ele><time>2026-04-12T09:12:56.999Z</time></trkpt><trkpt lat="46.415768818717225" lon="12.926081440782836"><ele>362.0</ele><time>2026-04-12T09:12:57.999Z</time></trkpt><trkpt lat="46.41578754118664" lon="12.92592803676501"><ele>362.0</ele><time>2026-04-12T09:12:58.999Z</time></trkpt><trkpt lat="46.41581750456699" lon="12.925765802476748"><ele>362.0</ele><time>2026-04-12T09:12:59.999Z</time></trkpt><trkpt lat="46.41584810873047" lon="12.925598432803561"><ele>362.0</ele><time>2026-04-12T09:13:00.999Z</time></trkpt><trkpt lat="46.41587876191843" lon="12.925436658921008"><ele>362.0</ele><time>2026-04-12T09:13:01.999Z</time></trkpt><trkpt lat="46.415903255797815" lon="12.925295174041976"><ele>362.0</ele><time>2026-04-12T09:13:02.999Z</time></trkpt><trkpt lat="46.41592123660448" lon="12.925161180520387"><ele>362.0</ele><time>2026-04-12T09:13:03.999Z</time></trkpt><trkpt lat="46.41593204677373" lon="12.925032379579745"><ele>362.0</ele><time>2026-04-12T09:13:04.999Z</time></trkpt><trkpt lat="46.41594454901182" lon="12.924920122018174"><ele>362.0</ele><time>2026-04-12T09:13:05.999Z</time></trkpt><trkpt lat="46.41595582290732" lon="12.924818563452124"><ele>362.0</ele><time>2026-04-12T09:13:06.999Z</time></trkpt><trkpt lat="46.41597031409846" lon="12.924712377809156"><ele>362.1428571428571</ele><time>2026-04-12T09:13:07.999Z</time></trkpt><trkpt lat="46.4159917255794" lon="12.924606022631808"><ele>362.2857142857143</ele><time>2026-04-12T09:13:08.999Z</time></trkpt><trkpt lat="46.41601689386118" lon="12.924500769916506"><ele>362.42857142857144</ele><time>2026-04-12T09:13:09.999Z</time></trkpt><trkpt lat="46.416046565131595" lon="12.924405626002876"><ele>362.57142857142856</ele><time>2026-04-12T09:13:10.999Z</time></trkpt><trkpt lat="46.41608087140937" lon="12.924322953732352"><ele>362.7142857142857</ele><time>2026-04-12T09:13:11.999Z</time></trkpt><trkpt lat="46.416117061649466" lon="12.924237413977135"><ele>362.85714285714283</ele><time>2026-04-12T09:13:12.999Z</time></trkpt><trkpt lat="46.416156877310385" lon="12.924142947222492"><ele>363.0</ele><time>2026-04-12T09:13:13.999Z</time></trkpt><trkpt lat="46.416198425204186" lon="12.924034370378028"><ele>363.2</ele><time>2026-04-12T09:13:14.999Z</time></trkpt><trkpt lat="46.41624454544941" lon="12.92391237865625"><ele>363.4</ele><time>2026-04-12T09:13:15.999Z</time></trkpt><trkpt lat="46.416282734693276" lon="12.923773591669296"><ele>363.59999999999997</ele><time>2026-04-12T09:13:16.999Z</time></trkpt><trkpt lat="46.41631471119423" lon="12.923613459326015"><ele>363.79999999999995</ele><time>2026-04-12T09:13:17.999Z</time></trkpt><trkpt lat="46.41635098772995" lon="12.923442746246618"><ele>364.0</ele><time>2026-04-12T09:13:18.999Z</time></trkpt><trkpt lat="46.416390292520525" lon="12.923274324821309"><ele>364.75</ele><time>2026-04-12T09:13:19.999Z</time></trkpt><trkpt lat="46.41642321088669" lon="12.923108948550704"><ele>365.5</ele><time>2026-04-12T09:13:20.999Z</time></trkpt><trkpt lat="46.41645464630375" lon="12.922945899299705"><ele>366.25</ele><time>2026-04-12T09:13:21.999Z</time></trkpt><trkpt lat="46.41648681698877" lon="12.922784330661802"><ele>367.0</ele><time>2026-04-12T09:13:22.999Z</time></trkpt><trkpt lat="46.41652203758936" lon="12.922622885346202"><ele>366.75</ele><time>2026-04-12T09:13:23.999Z</time></trkpt><trkpt lat="46.41655683806612" lon="12.922446046817864"><ele>366.5</ele><time>2026-04-12T09:13:24.999Z</time></trkpt><trkpt lat="46.41659569651608" lon="12.922262060177491"><ele>366.25</ele><time>2026-04-12T09:13:25.999Z</time></trkpt><trkpt lat="46.416636675994994" lon="12.922072565486648"><ele>366.0</ele><time>2026-04-12T09:13:26.999Z</time></trkpt><trkpt lat="46.41667284481426" lon="12.921879858071623"><ele>365.75</ele><time>2026-04-12T09:13:27.999Z</time></trkpt><trkpt lat="46.41671021607978" lon="12.921693576643596"><ele>365.5</ele><time>2026-04-12T09:13:28.999Z</time></trkpt><trkpt lat="46.416745481142826" lon="12.921522747549233"><ele>365.25</ele><time>2026-04-12T09:13:30Z</time></trkpt><trkpt lat="46.416773887990196" lon="12.921374411083615"><ele>365.0</ele><time>2026-04-12T09:13:31Z</time></trkpt><trkpt lat="46.416799458216126" lon="12.921235135437474"><ele>365.0</ele><time>2026-04-12T09:13:32Z</time></trkpt><trkpt lat="46.41682633624862" lon="12.921100413088343"><ele>365.0</ele><time>2026-04-12T09:13:33Z</time></trkpt><trkpt lat="46.41685215202979" lon="12.92096742285251"><ele>365.0</ele><time>2026-04-12T09:13:34Z</time></trkpt><trkpt lat="46.41687851204331" lon="12.920839088076718"><ele>365.0</ele><time>2026-04-12T09:13:35Z</time></trkpt><trkpt lat="46.416905136714774" lon="12.920710000161385"><ele>365.0</ele><time>2026-04-12T09:13:36Z</time></trkpt><trkpt lat="46.4169253692749" lon="12.920595016788019"><ele>365.1666666666667</ele><time>2026-04-12T09:13:37Z</time></trkpt><trkpt lat="46.416937411945135" lon="12.92048967813889"><ele>365.33333333333337</ele><time>2026-04-12T09:13:38Z</time></trkpt><trkpt lat="46.416944734606496" lon="12.920343113900563"><ele>365.5</ele><time>2026-04-12T09:13:40Z</time></trkpt><trkpt lat="46.41694349488781" lon="12.920233091766065"><ele>365.6666666666667</ele><time>2026-04-12T09:13:42Z</time></trkpt><trkpt lat="46.41698302452835" lon="12.92008234868972"><ele>365.8333333333333</ele><time>2026-04-12T09:13:44Z</time></trkpt><trkpt lat="46.41701181250541" lon="12.919995337620561"><ele>366.0</ele><time>2026-04-12T09:13:45Z</time></trkpt><trkpt lat="46.41700647952409" lon="12.919843923014554"><ele>366.20000000000005</ele><time>2026-04-12T09:13:47Z</time></trkpt><trkpt lat="46.416907916178964" lon="12.919763759185749"><ele>366.40000000000003</ele><time>2026-04-12T09:13:49Z</time></trkpt><trkpt lat="46.416831675591645" lon="12.919756118101532"><ele>366.6</ele><time>2026-04-12T09:13:50Z</time></trkpt><trkpt lat="46.41676328358393" lon="12.919706503955213"><ele>366.8</ele><time>2026-04-12T09:13:51Z</time></trkpt><trkpt lat="46.416694617860706" lon="12.919629601307397"><ele>367.0</ele><time>2026-04-12T09:13:52Z</time></trkpt><trkpt lat="46.41661832322642" lon="12.919514037563298"><ele>367.0</ele><time>2026-04-12T09:13:53Z</time></trkpt><trkpt lat="46.41653389201846" lon="12.919391241303442"><ele>367.0</ele><time>2026-04-12T09:13:54Z</time></trkpt><trkpt lat="46.41644376609816" lon="12.919258783845457"><ele>367.0</ele><time>2026-04-12T09:13:55Z</time></trkpt><trkpt lat="46.416349638973685" lon="12.919115681349144"><ele>367.0</ele><time>2026-04-12T09:13:56Z</time></trkpt><trkpt lat="46.416242559277336" lon="12.918963465791455"><ele>367.25</ele><time>2026-04-12T09:13:57Z</time></trkpt><trkpt lat="46.41613802672023" lon="12.918811564249516"><ele>367.5</ele><time>2026-04-12T09:13:58Z</time></trkpt><trkpt lat="46.416034925352314" lon="12.918662575954821"><ele>367.75</ele><time>2026-04-12T09:13:59Z</time></trkpt><trkpt lat="46.41593309729906" lon="12.918519238195215"><ele>368.0</ele><time>2026-04-12T09:14:00Z</time></trkpt><trkpt lat="46.415835987117674" lon="12.918376492259917"><ele>368.0</ele><time>2026-04-12T09:14:01Z</time></trkpt><trkpt lat="46.41574008414498" lon="12.91823478200419"><ele>368.0</ele><time>2026-04-12T09:14:02Z</time></trkpt><trkpt lat="46.41564467700059" lon="12.918093296362585"><ele>368.0</ele><time>2026-04-12T09:14:03Z</time></trkpt><trkpt lat="46.415549956771066" lon="12.917953756731078"><ele>368.0</ele><time>2026-04-12T09:14:04Z</time></trkpt><trkpt lat="46.415463162152555" lon="12.917825743362439"><ele>367.75</ele><time>2026-04-12T09:14:05Z</time></trkpt><trkpt lat="46.41537820452829" lon="12.917701168269211"><ele>367.5</ele><time>2026-04-12T09:14:06Z</time></trkpt><trkpt lat="46.41529330452547" lon="12.917580535988721"><ele>367.25</ele><time>2026-04-12T09:14:07Z</time></trkpt><trkpt lat="46.41520933269699" lon="12.917455977358278"><ele>367.0</ele><time>2026-04-12T09:14:08Z</time></trkpt><trkpt lat="46.41512416088871" lon="12.91732254624065"><ele>367.0</ele><time>2026-04-12T09:14:09Z</time></trkpt><trkpt lat="46.41503062419692" lon="12.91717764303565"><ele>367.0</ele><time>2026-04-12T09:14:10Z</time></trkpt><trkpt lat="46.41494065705466" lon="12.917024197875552"><ele>367.0</ele><time>2026-04-12T09:14:11Z</time></trkpt><trkpt lat="46.41485702256528" lon="12.916851397758611"><ele>367.0</ele><time>2026-04-12T09:14:12Z</time></trkpt><trkpt lat="46.41477722555844" lon="12.916654836143689"><ele>367.0</ele><time>2026-04-12T09:14:13Z</time></trkpt><trkpt lat="46.41470677698954" lon="12.916452570479999"><ele>367.0</ele><time>2026-04-12T09:14:14Z</time></trkpt><trkpt lat="46.41463666063778" lon="12.91624980098552"><ele>367.0</ele><time>2026-04-12T09:14:15Z</time></trkpt><trkpt lat="46.41456342804486" lon="12.91604385511902"><ele>367.0</ele><time>2026-04-12T09:14:16Z</time></trkpt><trkpt lat="46.41448829748783" lon="12.91582924767237"><ele>367.0</ele><time>2026-04-12T09:14:17Z</time></trkpt><trkpt lat="46.41440867880076" lon="12.915607977228687"><ele>367.0</ele><time>2026-04-12T09:14:18Z</time></trkpt><trkpt lat="46.41433249062914" lon="12.915387694987857"><ele>367.0</ele><time>2026-04-12T09:14:19Z</time></trkpt><trkpt lat="46.41425220263707" lon="12.915148746481673"><ele>367.0</ele><time>2026-04-12T09:14:20Z</time></trkpt><trkpt lat="46.41416571864985" lon="12.914899009366518"><ele>367.0</ele><time>2026-04-12T09:14:21Z</time></trkpt><trkpt lat="46.414078220729145" lon="12.914640082004446"><ele>367.66666666666663</ele><time>2026-04-12T09:14:22Z</time></trkpt><trkpt lat="46.41399312993072" lon="12.914385431022312"><ele>368.3333333333333</ele><time>2026-04-12T09:14:23Z</time></trkpt><trkpt lat="46.41390896535826" lon="12.914136115255282"><ele>369.0</ele><time>2026-04-12T09:14:24Z</time></trkpt><trkpt lat="46.41382604129694" lon="12.913895419989526"><ele>369.0</ele><time>2026-04-12T09:14:25Z</time></trkpt><trkpt lat="46.41374892605899" lon="12.913673028371091"><ele>369.0</ele><time>2026-04-12T09:14:26Z</time></trkpt><trkpt lat="46.413676554954826" lon="12.913460734010727"><ele>369.0</ele><time>2026-04-12T09:14:27Z</time></trkpt><trkpt lat="46.413601024026484" lon="12.913253713583595"><ele>369.6666666666667</ele><time>2026-04-12T09:14:28Z</time></trkpt><trkpt lat="46.41352573447133" lon="12.913037187921795"><ele>370.33333333333337</ele><time>2026-04-12T09:14:29Z</time></trkpt><trkpt lat="46.41345170189669" lon="12.912818041135047"><ele>371.0</ele><time>2026-04-12T09:14:30Z</time></trkpt><trkpt lat="46.41337658536594" lon="12.912598682798729"><ele>372.0</ele><time>2026-04-12T09:14:31Z</time></trkpt><trkpt lat="46.413299923014975" lon="12.912373117804597"><ele>373.0</ele><time>2026-04-12T09:14:32Z</time></trkpt><trkpt lat="46.413222617814014" lon="12.912144662213208"><ele>374.0</ele><time>2026-04-12T09:14:33Z</time></trkpt><trkpt lat="46.41314472105517" lon="12.911912562048668"><ele>374.0</ele><time>2026-04-12T09:14:34Z</time></trkpt><trkpt lat="46.413064394661724" lon="12.911677623150615"><ele>374.0</ele><time>2026-04-12T09:14:35Z</time></trkpt><trkpt lat="46.41298210270492" lon="12.911438794607973"><ele>374.0</ele><time>2026-04-12T09:14:36Z</time></trkpt><trkpt lat="46.41289986577367" lon="12.911200503123936"><ele>374.0</ele><time>2026-04-12T09:14:37Z</time></trkpt><trkpt lat="46.41281792421338" lon="12.910963013906041"><ele>374.0</ele><time>2026-04-12T09:14:38Z</time></trkpt><trkpt lat="46.412736724030815" lon="12.910723803038094"><ele>374.0</ele><time>2026-04-12T09:14:39Z</time></trkpt><trkpt lat="46.41265654747141" lon="12.910484216854712"><ele>374.0</ele><time>2026-04-12T09:14:40Z</time></trkpt><trkpt lat="46.41257341001431" lon="12.910244089896903"><ele>374.0</ele><time>2026-04-12T09:14:41Z</time></trkpt><trkpt lat="46.412489592747306" lon="12.91000544623749"><ele>374.0</ele><time>2026-04-12T09:14:42Z</time></trkpt><trkpt lat="46.41240408038108" lon="12.909759181947377"><ele>374.33333333333337</ele><time>2026-04-12T09:14:43Z</time></trkpt><trkpt lat="46.41231827223261" lon="12.909509126835383"><ele>374.6666666666667</ele><time>2026-04-12T09:14:44Z</time></trkpt><trkpt lat="46.41222403964301" lon="12.909252091309702"><ele>375.0</ele><time>2026-04-12T09:14:45Z</time></trkpt><trkpt lat="46.412132632077515" lon="12.908989710105965"><ele>372.6666666666667</ele><time>2026-04-12T09:14:46Z</time></trkpt><trkpt lat="46.412038598011655" lon="12.908711989101157"><ele>370.33333333333337</ele><time>2026-04-12T09:14:47Z</time></trkpt><trkpt lat="46.41193802288412" lon="12.908423525312612"><ele>368.0</ele><time>2026-04-12T09:14:48Z</time></trkpt><trkpt lat="46.41183587357818" lon="12.908126165052694"><ele>367.5</ele><time>2026-04-12T09:14:49Z</time></trkpt><trkpt lat="46.4117309394389" lon="12.907818657680997"><ele>367.0</ele><time>2026-04-12T09:14:50Z</time></trkpt><trkpt lat="46.41162280259047" lon="12.9075076721907"><ele>367.0</ele><time>2026-04-12T09:14:51Z</time></trkpt><trkpt lat="46.41151472700956" lon="12.90719667016679"><ele>367.0</ele><time>2026-04-12T09:14:52Z</time></trkpt><trkpt lat="46.411408207967625" lon="12.906891520080563"><ele>368.0</ele><time>2026-04-12T09:14:53Z</time></trkpt><trkpt lat="46.41130572817484" lon="12.906591457674597"><ele>369.0</ele><time>2026-04-12T09:14:54Z</time></trkpt><trkpt lat="46.41120611982669" lon="12.906301942486495"><ele>369.0</ele><time>2026-04-12T09:14:55Z</time></trkpt><trkpt lat="46.41110960323422" lon="12.90602686100688"><ele>369.0</ele><time>2026-04-12T09:14:56Z</time></trkpt><trkpt lat="46.41101659903193" lon="12.905757866794218"><ele>369.0</ele><time>2026-04-12T09:14:57Z</time></trkpt><trkpt lat="46.410926609277844" lon="12.905492867696077"><ele>369.0</ele><time>2026-04-12T09:14:57.999Z</time></trkpt><trkpt lat="46.41083401601893" lon="12.905226220875672"><ele>369.0</ele><time>2026-04-12T09:14:58.999Z</time></trkpt><trkpt lat="46.41074105263569" lon="12.90495842299243"><ele>369.0</ele><time>2026-04-12T09:14:59.999Z</time></trkpt><trkpt lat="46.410644874643324" lon="12.904688777874263"><ele>369.0</ele><time>2026-04-12T09:15:00.999Z</time></trkpt><trkpt lat="46.41055177054749" lon="12.904423224464079"><ele>369.0</ele><time>2026-04-12T09:15:01.999Z</time></trkpt><trkpt lat="46.41046132520783" lon="12.904161023813868"><ele>369.0</ele><time>2026-04-12T09:15:02.999Z</time></trkpt><trkpt lat="46.41038321128183" lon="12.903906732532565"><ele>368.6666666666667</ele><time>2026-04-12T09:15:03.999Z</time></trkpt><trkpt lat="46.41031957401887" lon="12.903657461585126"><ele>368.33333333333337</ele><time>2026-04-12T09:15:04.999Z</time></trkpt><trkpt lat="46.41026467347901" lon="12.903399588584945"><ele>368.0</ele><time>2026-04-12T09:15:05.999Z</time></trkpt><trkpt lat="46.41021790511113" lon="12.903129993119618"><ele>368.0</ele><time>2026-04-12T09:15:06.999Z</time></trkpt><trkpt lat="46.41017699789982" lon="12.902854593305982"><ele>368.0</ele><time>2026-04-12T09:15:07.999Z</time></trkpt><trkpt lat="46.410140521405665" lon="12.902563768223885"><ele>368.0</ele><time>2026-04-12T09:15:08.999Z</time></trkpt><trkpt lat="46.41009904807854" lon="12.902268005882094"><ele>368.6666666666667</ele><time>2026-04-12T09:15:09.999Z</time></trkpt><trkpt lat="46.410057957397576" lon="12.901981660154787"><ele>369.3333333333333</ele><time>2026-04-12T09:15:10.999Z</time></trkpt><trkpt lat="46.41001916948285" lon="12.901699417096745"><ele>370.0</ele><time>2026-04-12T09:15:11.999Z</time></trkpt><trkpt lat="46.4099811783904" lon="12.901429234266372"><ele>370.0</ele><time>2026-04-12T09:15:12.999Z</time></trkpt><trkpt lat="46.4099423230458" lon="12.90116564354148"><ele>370.0</ele><time>2026-04-12T09:15:13.999Z</time></trkpt><trkpt lat="46.40990442206172" lon="12.900911921237467"><ele>370.0</ele><time>2026-04-12T09:15:14.999Z</time></trkpt><trkpt lat="46.40986622537915" lon="12.900664863785645"><ele>370.66666666666663</ele><time>2026-04-12T09:15:15.999Z</time></trkpt><trkpt lat="46.40983073360155" lon="12.900415895702876"><ele>371.3333333333333</ele><time>2026-04-12T09:15:16.999Z</time></trkpt><trkpt lat="46.40979606240465" lon="12.900167643681293"><ele>372.0</ele><time>2026-04-12T09:15:17.999Z</time></trkpt><trkpt lat="46.40976109115604" lon="12.89992236741642"><ele>372.6666666666667</ele><time>2026-04-12T09:15:18.999Z</time></trkpt><trkpt lat="46.40972943290098" lon="12.89968009651514"><ele>373.33333333333337</ele><time>2026-04-12T09:15:19.999Z</time></trkpt><trkpt lat="46.40970586944955" lon="12.899433002511476"><ele>374.0</ele><time>2026-04-12T09:15:20.999Z</time></trkpt><trkpt lat="46.4096918736326" lon="12.899189585443464"><ele>374.0</ele><time>2026-04-12T09:15:21.999Z</time></trkpt><trkpt lat="46.409679614407565" lon="12.898947666203387"><ele>374.0</ele><time>2026-04-12T09:15:22.999Z</time></trkpt><trkpt lat="46.409664748681074" lon="12.898700985587006"><ele>374.0</ele><time>2026-04-12T09:15:23.999Z</time></trkpt><trkpt lat="46.40965248293038" lon="12.898464461895392"><ele>373.0</ele><time>2026-04-12T09:15:24.999Z</time></trkpt><trkpt lat="46.40963932675031" lon="12.898230006664283"><ele>372.0</ele><time>2026-04-12T09:15:25.999Z</time></trkpt><trkpt lat="46.40962887896095" lon="12.897992534842237"><ele>371.0</ele><time>2026-04-12T09:15:26.999Z</time></trkpt><trkpt lat="46.40961651440792" lon="12.897754483755731"><ele>370.6666666666667</ele><time>2026-04-12T09:15:27.999Z</time></trkpt><trkpt lat="46.40960515331666" lon="12.897513359662842"><ele>370.3333333333333</ele><time>2026-04-12T09:15:28.999Z</time></trkpt><trkpt lat="46.40959403397017" lon="12.89726757739175"><ele>370.0</ele><time>2026-04-12T09:15:29.999Z</time></trkpt><trkpt lat="46.409580194910184" lon="12.897012865399853"><ele>370.0</ele><time>2026-04-12T09:15:30.999Z</time></trkpt><trkpt lat="46.40956820507646" lon="12.89675730612736"><ele>370.0</ele><time>2026-04-12T09:15:31.999Z</time></trkpt><trkpt lat="46.40955641302982" lon="12.896503083238851"><ele>370.0</ele><time>2026-04-12T09:15:32.999Z</time></trkpt><trkpt lat="46.40954655222147" lon="12.8962616218152"><ele>370.3333333333333</ele><time>2026-04-12T09:15:33.999Z</time></trkpt><trkpt lat="46.40953662648439" lon="12.896035479653069"><ele>370.6666666666667</ele><time>2026-04-12T09:15:34.999Z</time></trkpt><trkpt lat="46.40952484833633" lon="12.895815058733316"><ele>371.0</ele><time>2026-04-12T09:15:36Z</time></trkpt><trkpt lat="46.40951470603734" lon="12.89560160424045"><ele>371.75</ele><time>2026-04-12T09:15:37Z</time></trkpt><trkpt lat="46.40950648847614" lon="12.895395922549096"><ele>372.5</ele><time>2026-04-12T09:15:38Z</time></trkpt><trkpt lat="46.40949683592974" lon="12.895191733623852"><ele>373.25</ele><time>2026-04-12T09:15:39Z</time></trkpt><trkpt lat="46.40948655856494" lon="12.894979591153914"><ele>374.0</ele><time>2026-04-12T09:15:40Z</time></trkpt><trkpt lat="46.40947676041596" lon="12.894764805111384"><ele>374.0</ele><time>2026-04-12T09:15:41Z</time></trkpt><trkpt lat="46.40946709220273" lon="12.894552439344723"><ele>374.0</ele><time>2026-04-12T09:15:42Z</time></trkpt><trkpt lat="46.40945633222646" lon="12.894352457395946"><ele>374.0</ele><time>2026-04-12T09:15:43Z</time></trkpt><trkpt lat="46.40944518677034" lon="12.89416069894256"><ele>374.0</ele><time>2026-04-12T09:15:44Z</time></trkpt><trkpt lat="46.40943437348402" lon="12.893976631481458"><ele>374.0</ele><time>2026-04-12T09:15:45Z</time></trkpt><trkpt lat="46.4094261486243" lon="12.893796243984463"><ele>374.0</ele><time>2026-04-12T09:15:46Z</time></trkpt><trkpt lat="46.40942005991592" lon="12.893615183710777"><ele>374.0</ele><time>2026-04-12T09:15:47Z</time></trkpt><trkpt lat="46.40941752690625" lon="12.893434317848882"><ele>374.0</ele><time>2026-04-12T09:15:48Z</time></trkpt><trkpt lat="46.40941942531261" lon="12.893247053205803"><ele>374.25</ele><time>2026-04-12T09:15:49Z</time></trkpt><trkpt lat="46.409434565872814" lon="12.893058150509"><ele>374.5</ele><time>2026-04-12T09:15:50Z</time></trkpt><trkpt lat="46.40946151651929" lon="12.892872359635684"><ele>374.75</ele><time>2026-04-12T09:15:51Z</time></trkpt><trkpt lat="46.40949630031943" lon="12.89268582859757"><ele>375.0</ele><time>2026-04-12T09:15:52Z</time></trkpt><trkpt lat="46.40954451975026" lon="12.892502641658927"><ele>375.0</ele><time>2026-04-12T09:15:53Z</time></trkpt><trkpt lat="46.40959892673726" lon="12.892321363010753"><ele>375.0</ele><time>2026-04-12T09:15:54Z</time></trkpt><trkpt lat="46.40965762386228" lon="12.892146887708792"><ele>375.0</ele><time>2026-04-12T09:15:55Z</time></trkpt><trkpt lat="46.40971811058795" lon="12.891975591687864"><ele>375.0</ele><time>2026-04-12T09:15:56Z</time></trkpt><trkpt lat="46.40978161781139" lon="12.89180797252197"><ele>374.75</ele><time>2026-04-12T09:15:57Z</time></trkpt><trkpt lat="46.40984495652661" lon="12.891644374382382"><ele>374.5</ele><time>2026-04-12T09:15:58Z</time></trkpt><trkpt lat="46.409910198480986" lon="12.891485087235266"><ele>374.25</ele><time>2026-04-12T09:15:59Z</time></trkpt><trkpt lat="46.409975736550564" lon="12.891325025677856"><ele>374.0</ele><time>2026-04-12T09:16:00Z</time></trkpt><trkpt lat="46.41004066408578" lon="12.891161550397287"><ele>374.0</ele><time>2026-04-12T09:16:01Z</time></trkpt><trkpt lat="46.41009634474436" lon="12.890991920896951"><ele>374.0</ele><time>2026-04-12T09:16:02Z</time></trkpt><trkpt lat="46.410135410296284" lon="12.890811122000262"><ele>374.0</ele><time>2026-04-12T09:16:03Z</time></trkpt><trkpt lat="46.41015582755187" lon="12.89061709172369"><ele>374.0</ele><time>2026-04-12T09:16:04Z</time></trkpt><trkpt lat="46.410164018706226" lon="12.89041502721359"><ele>374.75</ele><time>2026-04-12T09:16:05Z</time></trkpt><trkpt lat="46.41015564695034" lon="12.890206607766794"><ele>375.5</ele><time>2026-04-12T09:16:06Z</time></trkpt><trkpt lat="46.41013226988947" lon="12.889999959499534"><ele>376.25</ele><time>2026-04-12T09:16:07Z</time></trkpt><trkpt lat="46.410099895950324" lon="12.889793808089246"><ele>377.0</ele><time>2026-04-12T09:16:08Z</time></trkpt><trkpt lat="46.4100651216257" lon="12.889586765108598"><ele>377.5</ele><time>2026-04-12T09:16:09Z</time></trkpt><trkpt lat="46.41003066488059" lon="12.88937875637441"><ele>378.0</ele><time>2026-04-12T09:16:10Z</time></trkpt><trkpt lat="46.4099932662402" lon="12.889168858505734"><ele>378.5</ele><time>2026-04-12T09:16:11Z</time></trkpt><trkpt lat="46.40995675453438" lon="12.888959210535019"><ele>379.0</ele><time>2026-04-12T09:16:12Z</time></trkpt><trkpt lat="46.40992189947494" lon="12.888750599268391"><ele>379.5</ele><time>2026-04-12T09:16:13Z</time></trkpt><trkpt lat="46.40989614779897" lon="12.888552821859372"><ele>380.0</ele><time>2026-04-12T09:16:14Z</time></trkpt><trkpt lat="46.40988818923963" lon="12.88836349173272"><ele>380.5</ele><time>2026-04-12T09:16:15Z</time></trkpt><trkpt lat="46.40989864626198" lon="12.888175410695418"><ele>381.0</ele><time>2026-04-12T09:16:16Z</time></trkpt><trkpt lat="46.40991643120039" lon="12.887990074455804"><ele>381.25</ele><time>2026-04-12T09:16:17Z</time></trkpt><trkpt lat="46.40993429177453" lon="12.88779958819088"><ele>381.5</ele><time>2026-04-12T09:16:18Z</time></trkpt><trkpt lat="46.40995526037901" lon="12.887605771275688"><ele>381.75</ele><time>2026-04-12T09:16:19Z</time></trkpt><trkpt lat="46.40997358973994" lon="12.887408784039957"><ele>382.0</ele><time>2026-04-12T09:16:20Z</time></trkpt><trkpt lat="46.40998673359659" lon="12.887202154954881"><ele>382.0</ele><time>2026-04-12T09:16:21Z</time></trkpt><trkpt lat="46.40999834411462" lon="12.88699126194073"><ele>382.0</ele><time>2026-04-12T09:16:22Z</time></trkpt><trkpt lat="46.41000482744847" lon="12.886779080377053"><ele>382.0</ele><time>2026-04-12T09:16:23Z</time></trkpt><trkpt lat="46.41000619934778" lon="12.886561776335355"><ele>382.0</ele><time>2026-04-12T09:16:24Z</time></trkpt><trkpt lat="46.41000765365294" lon="12.886342196995617"><ele>381.3333333333333</ele><time>2026-04-12T09:16:25Z</time></trkpt><trkpt lat="46.4100093382903" lon="12.886117857729271"><ele>380.6666666666667</ele><time>2026-04-12T09:16:26Z</time></trkpt><trkpt lat="46.410009620311754" lon="12.885891223050672"><ele>380.0</ele><time>2026-04-12T09:16:27Z</time></trkpt><trkpt lat="46.41001107034654" lon="12.885667243554618"><ele>380.0</ele><time>2026-04-12T09:16:28Z</time></trkpt><trkpt lat="46.41001249329715" lon="12.885455558531755"><ele>380.0</ele><time>2026-04-12T09:16:29Z</time></trkpt><trkpt lat="46.41001165261256" lon="12.88525383376509"><ele>380.0</ele><time>2026-04-12T09:16:30Z</time></trkpt><trkpt lat="46.41001152987127" lon="12.885060436350438"><ele>380.0</ele><time>2026-04-12T09:16:31Z</time></trkpt><trkpt lat="46.410011627783476" lon="12.884875569391875"><ele>380.5</ele><time>2026-04-12T09:16:32Z</time></trkpt><trkpt lat="46.41001262290083" lon="12.884689958185795"><ele>381.0</ele><time>2026-04-12T09:16:33Z</time></trkpt><trkpt lat="46.410013784916856" lon="12.884506698065968"><ele>381.5</ele><time>2026-04-12T09:16:34Z</time></trkpt><trkpt lat="46.410014137744675" lon="12.884323591153125"><ele>382.0</ele><time>2026-04-12T09:16:35Z</time></trkpt><trkpt lat="46.41001446324798" lon="12.884142950617603"><ele>382.75</ele><time>2026-04-12T09:16:36Z</time></trkpt><trkpt lat="46.410015236264435" lon="12.88396413141126"><ele>383.5</ele><time>2026-04-12T09:16:37Z</time></trkpt><trkpt lat="46.41001448842112" lon="12.883785118105685"><ele>384.25</ele><time>2026-04-12T09:16:38Z</time></trkpt><trkpt lat="46.410008365916624" lon="12.883602262723917"><ele>385.0</ele><time>2026-04-12T09:16:39Z</time></trkpt><trkpt lat="46.40999397988897" lon="12.883417007602121"><ele>385.25</ele><time>2026-04-12T09:16:40Z</time></trkpt><trkpt lat="46.40996325192539" lon="12.883229475652286"><ele>385.5</ele><time>2026-04-12T09:16:41Z</time></trkpt><trkpt lat="46.409926943367644" lon="12.883045082952272"><ele>385.75</ele><time>2026-04-12T09:16:42Z</time></trkpt><trkpt lat="46.4098934883292" lon="12.882860716429263"><ele>386.0</ele><time>2026-04-12T09:16:43Z</time></trkpt><trkpt lat="46.40986626075735" lon="12.882677741282695"><ele>387.25</ele><time>2026-04-12T09:16:44Z</time></trkpt><trkpt lat="46.4098472437949" lon="12.882500841621559"><ele>388.5</ele><time>2026-04-12T09:16:45Z</time></trkpt><trkpt lat="46.40984503871381" lon="12.882334631894961"><ele>389.75</ele><time>2026-04-12T09:16:46Z</time></trkpt><trkpt lat="46.40985488278088" lon="12.882172840307128"><ele>391.0</ele><time>2026-04-12T09:16:47Z</time></trkpt><trkpt lat="46.40986449997884" lon="12.882006248526746"><ele>391.0</ele><time>2026-04-12T09:16:48Z</time></trkpt><trkpt lat="46.4098754626725" lon="12.881839988041772"><ele>391.0</ele><time>2026-04-12T09:16:49Z</time></trkpt><trkpt lat="46.4098892768342" lon="12.881677335220347"><ele>391.0</ele><time>2026-04-12T09:16:50Z</time></trkpt><trkpt lat="46.40989966579958" lon="12.881523895164708"><ele>391.0</ele><time>2026-04-12T09:16:51Z</time></trkpt><trkpt lat="46.40990276170526" lon="12.881367994283105"><ele>391.0</ele><time>2026-04-12T09:16:52Z</time></trkpt><trkpt lat="46.409904320106115" lon="12.881206542221996"><ele>391.0</ele><time>2026-04-12T09:16:53Z</time></trkpt><trkpt lat="46.40990300685609" lon="12.881044130244561"><ele>391.0</ele><time>2026-04-12T09:16:54Z</time></trkpt><trkpt lat="46.40990006179472" lon="12.880881663610381"><ele>391.0</ele><time>2026-04-12T09:16:55Z</time></trkpt><trkpt lat="46.40989907753311" lon="12.880717873999556"><ele>391.0</ele><time>2026-04-12T09:16:56Z</time></trkpt><trkpt lat="46.40989500648761" lon="12.880554248149739"><ele>391.0</ele><time>2026-04-12T09:16:57Z</time></trkpt><trkpt lat="46.40989205198815" lon="12.880391575592993"><ele>391.0</ele><time>2026-04-12T09:16:58Z</time></trkpt><trkpt lat="46.409891407364775" lon="12.880242381768008"><ele>391.0</ele><time>2026-04-12T09:16:58.999Z</time></trkpt><trkpt lat="46.40989424965981" lon="12.88010883390539"><ele>391.0</ele><time>2026-04-12T09:16:59.999Z</time></trkpt><trkpt lat="46.4098992398146" lon="12.879984184265123"><ele>391.0</ele><time>2026-04-12T09:17:00.999Z</time></trkpt><trkpt lat="46.409902458868665" lon="12.879864204982663"><ele>391.50000000000006</ele><time>2026-04-12T09:17:01.999Z</time></trkpt><trkpt lat="46.40990306552386" lon="12.879751738362177"><ele>392.0</ele><time>2026-04-12T09:17:02.999Z</time></trkpt><trkpt lat="46.40990277918823" lon="12.879647929351037"><ele>392.5</ele><time>2026-04-12T09:17:03.999Z</time></trkpt><trkpt lat="46.40989864001704" lon="12.879545698299564"><ele>393.0</ele><time>2026-04-12T09:17:04.999Z</time></trkpt><trkpt lat="46.4098839059917" lon="12.879440162177426"><ele>393.50000000000006</ele><time>2026-04-12T09:17:05.999Z</time></trkpt><trkpt lat="46.40985587227565" lon="12.879335451973889"><ele>394.0</ele><time>2026-04-12T09:17:06.999Z</time></trkpt><trkpt lat="46.40982545562968" lon="12.87921860734929"><ele>394.00000000000006</ele><time>2026-04-12T09:17:07.999Z</time></trkpt><trkpt lat="46.40978886492439" lon="12.8790843806692"><ele>394.0</ele><time>2026-04-12T09:17:08.999Z</time></trkpt><trkpt lat="46.409754658079315" lon="12.878956394960648"><ele>394.0</ele><time>2026-04-12T09:17:09.999Z</time></trkpt><trkpt lat="46.40972153844405" lon="12.878840535140531"><ele>394.0</ele><time>2026-04-12T09:17:10.999Z</time></trkpt><trkpt lat="46.409690172853054" lon="12.878735073305153"><ele>394.00000000000006</ele><time>2026-04-12T09:17:11.999Z</time></trkpt><trkpt lat="46.409668898737145" lon="12.878623518935154"><ele>394.0</ele><time>2026-04-12T09:17:12.999Z</time></trkpt><trkpt lat="46.409657308419895" lon="12.878503142366942"><ele>394.0</ele><time>2026-04-12T09:17:13.999Z</time></trkpt><trkpt lat="46.40965685837375" lon="12.878378191407004"><ele>394.0</ele><time>2026-04-12T09:17:14.999Z</time></trkpt><trkpt lat="46.40966553324376" lon="12.878247332007922"><ele>394.0</ele><time>2026-04-12T09:17:15.999Z</time></trkpt><trkpt lat="46.40967732361342" lon="12.878116845388078"><ele>394.0</ele><time>2026-04-12T09:17:16.999Z</time></trkpt><trkpt lat="46.409696820279" lon="12.877985768054865"><ele>394.0</ele><time>2026-04-12T09:17:17.999Z</time></trkpt><trkpt lat="46.40971042559809" lon="12.877847055194088"><ele>394.2</ele><time>2026-04-12T09:17:18.999Z</time></trkpt><trkpt lat="46.40973237878702" lon="12.8777079183333"><ele>394.4</ele><time>2026-04-12T09:17:19.999Z</time></trkpt><trkpt lat="46.40975125796105" lon="12.877562937045587"><ele>394.6</ele><time>2026-04-12T09:17:20.999Z</time></trkpt><trkpt lat="46.409769837802706" lon="12.87740913690453"><ele>394.8</ele><time>2026-04-12T09:17:21.999Z</time></trkpt><trkpt lat="46.40978483747487" lon="12.87724776357778"><ele>395.0</ele><time>2026-04-12T09:17:22.999Z</time></trkpt><trkpt lat="46.40979651157352" lon="12.877075383243705"><ele>395.0</ele><time>2026-04-12T09:17:23.999Z</time></trkpt><trkpt lat="46.40981035962067" lon="12.87690316976224"><ele>395.0</ele><time>2026-04-12T09:17:24.999Z</time></trkpt><trkpt lat="46.40982452747331" lon="12.876732305393778"><ele>395.0</ele><time>2026-04-12T09:17:25.999Z</time></trkpt><trkpt lat="46.409842878022886" lon="12.876567836491772"><ele>395.0</ele><time>2026-04-12T09:17:26.999Z</time></trkpt><trkpt lat="46.40985732431672" lon="12.876410345433104"><ele>394.8</ele><time>2026-04-12T09:17:27.999Z</time></trkpt><trkpt lat="46.409858799373474" lon="12.876255485055388"><ele>394.6</ele><time>2026-04-12T09:17:28.999Z</time></trkpt><trkpt lat="46.40983975471545" lon="12.876102694582427"><ele>394.4</ele><time>2026-04-12T09:17:29.999Z</time></trkpt><trkpt lat="46.40979495626229" lon="12.875959372670414"><ele>394.2</ele><time>2026-04-12T09:17:30.999Z</time></trkpt><trkpt lat="46.409732895900284" lon="12.87582715977948"><ele>394.0</ele><time>2026-04-12T09:17:31.999Z</time></trkpt><trkpt lat="46.40964823083382" lon="12.875710425204469"><ele>393.5</ele><time>2026-04-12T09:17:32.999Z</time></trkpt><trkpt lat="46.40955944088142" lon="12.875591125993918"><ele>393.0</ele><time>2026-04-12T09:17:33.999Z</time></trkpt><trkpt lat="46.409468363478354" lon="12.875462782810374"><ele>392.5</ele><time>2026-04-12T09:17:34.999Z</time></trkpt><trkpt lat="46.409373492932275" lon="12.875330079693436"><ele>392.0</ele><time>2026-04-12T09:17:35.999Z</time></trkpt><trkpt lat="46.40927433881918" lon="12.8751964341703"><ele>392.5</ele><time>2026-04-12T09:17:36.999Z</time></trkpt><trkpt lat="46.40917021304915" lon="12.875058067341518"><ele>393.0</ele><time>2026-04-12T09:17:37.999Z</time></trkpt><trkpt lat="46.4090676423469" lon="12.874917232484107"><ele>393.5</ele><time>2026-04-12T09:17:38.999Z</time></trkpt><trkpt lat="46.408965725412656" lon="12.874780045434436"><ele>394.0</ele><time>2026-04-12T09:17:39.999Z</time></trkpt><trkpt lat="46.40886376898065" lon="12.87464296694117"><ele>393.75</ele><time>2026-04-12T09:17:40.999Z</time></trkpt><trkpt lat="46.40876339543077" lon="12.874507046592136"><ele>393.5</ele><time>2026-04-12T09:17:42Z</time></trkpt><trkpt lat="46.408664086535616" lon="12.874375175197972"><ele>393.25</ele><time>2026-04-12T09:17:43Z</time></trkpt><trkpt lat="46.40856653417159" lon="12.8742467409254"><ele>393.0</ele><time>2026-04-12T09:17:44Z</time></trkpt><trkpt lat="46.4084792047536" lon="12.874128765754742"><ele>393.5</ele><time>2026-04-12T09:17:45Z</time></trkpt><trkpt lat="46.40839469827978" lon="12.874015534134314"><ele>394.0</ele><time>2026-04-12T09:17:46Z</time></trkpt><trkpt lat="46.408310319666704" lon="12.873902739329507"><ele>394.5</ele><time>2026-04-12T09:17:47Z</time></trkpt><trkpt lat="46.4082291314797" lon="12.873789857620451"><ele>395.0</ele><time>2026-04-12T09:17:48Z</time></trkpt><trkpt lat="46.408149401276624" lon="12.873678546063179"><ele>395.0</ele><time>2026-04-12T09:17:49Z</time></trkpt><trkpt lat="46.40806753172898" lon="12.873568922558054"><ele>395.0</ele><time>2026-04-12T09:17:50Z</time></trkpt><trkpt lat="46.40798413560434" lon="12.87345790462994"><ele>395.0</ele><time>2026-04-12T09:17:51Z</time></trkpt><trkpt lat="46.407898438531944" lon="12.873343514214985"><ele>395.0</ele><time>2026-04-12T09:17:52Z</time></trkpt><trkpt lat="46.407807943920886" lon="12.873226007331386"><ele>395.0</ele><time>2026-04-12T09:17:53Z</time></trkpt><trkpt lat="46.40771630065595" lon="12.873104422475157"><ele>395.0</ele><time>2026-04-12T09:17:54Z</time></trkpt><trkpt lat="46.40762326442635" lon="12.872975894319898"><ele>395.0</ele><time>2026-04-12T09:17:55Z</time></trkpt><trkpt lat="46.40752870001782" lon="12.872841842679987"><ele>395.0</ele><time>2026-04-12T09:17:56Z</time></trkpt><trkpt lat="46.407426176921255" lon="12.872703242423807"><ele>396.66666666666663</ele><time>2026-04-12T09:17:57Z</time></trkpt><trkpt lat="46.40731528339973" lon="12.872554238126831"><ele>398.33333333333337</ele><time>2026-04-12T09:17:58Z</time></trkpt><trkpt lat="46.40720031672124" lon="12.872390576770085"><ele>400.0</ele><time>2026-04-12T09:17:59Z</time></trkpt><trkpt lat="46.407079875218336" lon="12.872210001695827"><ele>401.6666666666667</ele><time>2026-04-12T09:18:00Z</time></trkpt><trkpt lat="46.40695904789442" lon="12.872021296101146"><ele>403.33333333333337</ele><time>2026-04-12T09:18:01Z</time></trkpt><trkpt lat="46.40684523216971" lon="12.871834757691639"><ele>405.0</ele><time>2026-04-12T09:18:02Z</time></trkpt><trkpt lat="46.406737500710776" lon="12.87164186933508"><ele>406.33333333333337</ele><time>2026-04-12T09:18:03Z</time></trkpt><trkpt lat="46.40663998957576" lon="12.871441129135802"><ele>407.6666666666667</ele><time>2026-04-12T09:18:04Z</time></trkpt><trkpt lat="46.40655060279532" lon="12.871233658057902"><ele>409.0</ele><time>2026-04-12T09:18:05Z</time></trkpt><trkpt lat="46.406464950408484" lon="12.871012149611222"><ele>410.33333333333337</ele><time>2026-04-12T09:18:06Z</time></trkpt><trkpt lat="46.40638375003268" lon="12.870776967848256"><ele>411.66666666666663</ele><time>2026-04-12T09:18:07Z</time></trkpt><trkpt lat="46.40631087329865" lon="12.870529902934727"><ele>413.0</ele><time>2026-04-12T09:18:08Z</time></trkpt><trkpt lat="46.4062461658228" lon="12.870263883888239"><ele>411.3333333333333</ele><time>2026-04-12T09:18:09Z</time></trkpt><trkpt lat="46.40619271500476" lon="12.869978718041747"><ele>409.66666666666663</ele><time>2026-04-12T09:18:10Z</time></trkpt><trkpt lat="46.40615231903872" lon="12.869675932691594"><ele>408.0</ele><time>2026-04-12T09:18:11Z</time></trkpt><trkpt lat="46.40612334486628" lon="12.869360966091309"><ele>409.66666666666663</ele><time>2026-04-12T09:18:12Z</time></trkpt><trkpt lat="46.40610542928881" lon="12.86903944002613"><ele>411.3333333333333</ele><time>2026-04-12T09:18:13Z</time></trkpt><trkpt lat="46.406099249263924" lon="12.868726922667074"><ele>413.0</ele><time>2026-04-12T09:18:14Z</time></trkpt><trkpt lat="46.40609999573165" lon="12.86842297642107"><ele>413.0</ele><time>2026-04-12T09:18:15Z</time></trkpt><trkpt lat="46.40610881583235" lon="12.868129522223368"><ele>413.0</ele><time>2026-04-12T09:18:16Z</time></trkpt><trkpt lat="46.40612207028399" lon="12.867832029652876"><ele>413.0</ele><time>2026-04-12T09:18:17Z</time></trkpt><trkpt lat="46.4061388886707" lon="12.867528822517016"><ele>409.0</ele><time>2026-04-12T09:18:18Z</time></trkpt><trkpt lat="46.40615589659013" lon="12.867232746870545"><ele>405.0</ele><time>2026-04-12T09:18:19Z</time></trkpt><trkpt lat="46.4061670994358" lon="12.86694167602588"><ele>401.0</ele><time>2026-04-12T09:18:20Z</time></trkpt><trkpt lat="46.40617426840276" lon="12.866652657450816"><ele>400.66666666666663</ele><time>2026-04-12T09:18:21Z</time></trkpt><trkpt lat="46.40617765452759" lon="12.866365901181034"><ele>400.33333333333337</ele><time>2026-04-12T09:18:22Z</time></trkpt><trkpt lat="46.40617613610231" lon="12.866078359488862"><ele>400.0</ele><time>2026-04-12T09:18:23Z</time></trkpt><trkpt lat="46.4061664466751" lon="12.8657891548212"><ele>400.0</ele><time>2026-04-12T09:18:24Z</time></trkpt><trkpt lat="46.40614439912835" lon="12.865499215632862"><ele>400.0</ele><time>2026-04-12T09:18:25Z</time></trkpt><trkpt lat="46.40611377577357" lon="12.865208053702387"><ele>400.0</ele><time>2026-04-12T09:18:26Z</time></trkpt><trkpt lat="46.40607365561316" lon="12.864917120673713"><ele>399.6666666666667</ele><time>2026-04-12T09:18:27Z</time></trkpt><trkpt lat="46.40601949141139" lon="12.864626596182914"><ele>399.33333333333337</ele><time>2026-04-12T09:18:28Z</time></trkpt><trkpt lat="46.40595597297997" lon="12.864336214265721"><ele>399.0</ele><time>2026-04-12T09:18:29Z</time></trkpt><trkpt lat="46.405881969563495" lon="12.864045666289146"><ele>399.0</ele><time>2026-04-12T09:18:30Z</time></trkpt><trkpt lat="46.40579429263658" lon="12.863751478987023"><ele>399.0</ele><time>2026-04-12T09:18:31Z</time></trkpt><trkpt lat="46.40569110358642" lon="12.863453905679593"><ele>400.5</ele><time>2026-04-12T09:18:32Z</time></trkpt><trkpt lat="46.40557370840928" lon="12.863151094865119"><ele>402.0</ele><time>2026-04-12T09:18:33Z</time></trkpt><trkpt lat="46.405442556608996" lon="12.86284871477747"><ele>403.5</ele><time>2026-04-12T09:18:34Z</time></trkpt><trkpt lat="46.40531449965789" lon="12.862554522270916"><ele>405.0</ele><time>2026-04-12T09:18:35Z</time></trkpt><trkpt lat="46.405191602545926" lon="12.862261917687913"><ele>405.0</ele><time>2026-04-12T09:18:36Z</time></trkpt><trkpt lat="46.40506976340723" lon="12.861975269760194"><ele>405.0</ele><time>2026-04-12T09:18:37Z</time></trkpt><trkpt lat="46.40494625566468" lon="12.86168020646414"><ele>406.0</ele><time>2026-04-12T09:18:38Z</time></trkpt><trkpt lat="46.404826411936824" lon="12.861369094494428"><ele>407.0</ele><time>2026-04-12T09:18:39Z</time></trkpt><trkpt lat="46.404707506554" lon="12.861039374359414"><ele>402.0</ele><time>2026-04-12T09:18:40Z</time></trkpt><trkpt lat="46.404588553029065" lon="12.860685556822899"><ele>397.0</ele><time>2026-04-12T09:18:41Z</time></trkpt><trkpt lat="46.40447138154243" lon="12.860318229769353"><ele>399.0</ele><time>2026-04-12T09:18:42Z</time></trkpt><trkpt lat="46.40435817806482" lon="12.859936362346547"><ele>401.0</ele><time>2026-04-12T09:18:43Z</time></trkpt><trkpt lat="46.40427144054823" lon="12.859526189255838"><ele>403.0</ele><time>2026-04-12T09:18:44Z</time></trkpt><trkpt lat="46.404174036604594" lon="12.859107844310067"><ele>405.0</ele><time>2026-04-12T09:18:45Z</time></trkpt><trkpt lat="46.40405887123343" lon="12.85868144122973"><ele>408.0</ele><time>2026-04-12T09:18:46Z</time></trkpt><trkpt lat="46.40396378764251" lon="12.858235681428079"><ele>411.0</ele><time>2026-04-12T09:18:47Z</time></trkpt><trkpt lat="46.4038624272788" lon="12.857786209517101"><ele>408.5</ele><time>2026-04-12T09:18:48Z</time></trkpt><trkpt lat="46.403758416820786" lon="12.857335934358387"><ele>406.0</ele><time>2026-04-12T09:18:49Z</time></trkpt><trkpt lat="46.40365560545746" lon="12.856883981624526"><ele>410.5</ele><time>2026-04-12T09:18:50Z</time></trkpt><trkpt lat="46.40355056543594" lon="12.856430868820514"><ele>415.0</ele><time>2026-04-12T09:18:51Z</time></trkpt><trkpt lat="46.40344579565367" lon="12.855982014011708"><ele>420.5</ele><time>2026-04-12T09:18:52Z</time></trkpt><trkpt lat="46.40334348024834" lon="12.855540952330163"><ele>426.0</ele><time>2026-04-12T09:18:53Z</time></trkpt><trkpt lat="46.4032417353441" lon="12.855103491351693"><ele>431.0</ele><time>2026-04-12T09:18:54Z</time></trkpt><trkpt lat="46.40314043709559" lon="12.854669900534484"><ele>436.0</ele><time>2026-04-12T09:18:55Z</time></trkpt><trkpt lat="46.40304000561572" lon="12.854239744654123"><ele>433.5</ele><time>2026-04-12T09:18:56Z</time></trkpt><trkpt lat="46.40294370306941" lon="12.853812611332344"><ele>431.0</ele><time>2026-04-12T09:18:57Z</time></trkpt><trkpt lat="46.4028517773548" lon="12.853384633596445"><ele>431.0</ele><time>2026-04-12T09:18:58Z</time></trkpt><trkpt lat="46.40276119496028" lon="12.852956793500802"><ele>431.0</ele><time>2026-04-12T09:18:59Z</time></trkpt><trkpt lat="46.40267311184792" lon="12.852530243902924"><ele>432.0</ele><time>2026-04-12T09:19:00Z</time></trkpt><trkpt lat="46.40259064898127" lon="12.852106309803833"><ele>433.0</ele><time>2026-04-12T09:19:01Z</time></trkpt><trkpt lat="46.402518082030845" lon="12.851683744807211"><ele>440.5</ele><time>2026-04-12T09:19:02Z</time></trkpt><trkpt lat="46.40245343417636" lon="12.851262962153974"><ele>448.0</ele><time>2026-04-12T09:19:03Z</time></trkpt><trkpt lat="46.402400258431506" lon="12.850845454222274"><ele>453.5</ele><time>2026-04-12T09:19:04Z</time></trkpt><trkpt lat="46.40235440815357" lon="12.850432296657448"><ele>459.0</ele><time>2026-04-12T09:19:04.999Z</time></trkpt><trkpt lat="46.40231741401561" lon="12.850023493392777"><ele>459.0</ele><time>2026-04-12T09:19:05.999Z</time></trkpt><trkpt lat="46.40228476833616" lon="12.849616272162551"><ele>459.0</ele><time>2026-04-12T09:19:06.999Z</time></trkpt><trkpt lat="46.40225162013154" lon="12.849211469488413"><ele>459.5</ele><time>2026-04-12T09:19:07.999Z</time></trkpt><trkpt lat="46.40222079111964" lon="12.848792279131155"><ele>460.0</ele><time>2026-04-12T09:19:08.999Z</time></trkpt><trkpt lat="46.40218683761987" lon="12.848330857456817"><ele>449.5</ele><time>2026-04-12T09:19:09.999Z</time></trkpt><trkpt lat="46.40215396222447" lon="12.847835890661726"><ele>439.0</ele><time>2026-04-12T09:19:10.999Z</time></trkpt><trkpt lat="46.402127081186585" lon="12.847325635623335"><ele>438.5</ele><time>2026-04-12T09:19:11.999Z</time></trkpt><trkpt lat="46.40210279174805" lon="12.846839702441994"><ele>438.0</ele><time>2026-04-12T09:19:12.999Z</time></trkpt><trkpt lat="46.402082298889034" lon="12.84639667496098"><ele>437.5</ele><time>2026-04-12T09:19:13.999Z</time></trkpt><trkpt lat="46.40206540291167" lon="12.845989987109078"><ele>437.0</ele><time>2026-04-12T09:19:14.999Z</time></trkpt><trkpt lat="46.40204527020202" lon="12.845621909582155"><ele>440.0</ele><time>2026-04-12T09:19:15.999Z</time></trkpt><trkpt lat="46.402032125347326" lon="12.845270369106261"><ele>443.0</ele><time>2026-04-12T09:19:16.999Z</time></trkpt><trkpt lat="46.40201765943452" lon="12.84489642384508"><ele>447.0</ele><time>2026-04-12T09:19:17.999Z</time></trkpt><trkpt lat="46.4020012317772" lon="12.844511316377844"><ele>451.0</ele><time>2026-04-12T09:19:18.999Z</time></trkpt><trkpt lat="46.401983499630646" lon="12.844155742518144"><ele>453.0</ele><time>2026-04-12T09:19:19.999Z</time></trkpt><trkpt lat="46.40196851237877" lon="12.843815537894544"><ele>455.0</ele><time>2026-04-12T09:19:20.999Z</time></trkpt><trkpt lat="46.40195472871584" lon="12.843465988166002"><ele>458.5</ele><time>2026-04-12T09:19:21.999Z</time></trkpt><trkpt lat="46.40194529115962" lon="12.843113213614888"><ele>462.0</ele><time>2026-04-12T09:19:22.999Z</time></trkpt><trkpt lat="46.401938705505636" lon="12.842755681802782"><ele>465.5</ele><time>2026-04-12T09:19:23.999Z</time></trkpt><trkpt lat="46.4019352048566" lon="12.84239409160144"><ele>469.0</ele><time>2026-04-12T09:19:24.999Z</time></trkpt><trkpt lat="46.401937670777585" lon="12.842028281578163"><ele>472.0</ele><time>2026-04-12T09:19:25.999Z</time></trkpt><trkpt lat="46.40194374769981" lon="12.841656453103312"><ele>475.0</ele><time>2026-04-12T09:19:26.999Z</time></trkpt><trkpt lat="46.40195298408273" lon="12.841277965424291"><ele>474.0</ele><time>2026-04-12T09:19:27.999Z</time></trkpt><trkpt lat="46.40196435033801" lon="12.84089710452129"><ele>473.0</ele><time>2026-04-12T09:19:28.999Z</time></trkpt><trkpt lat="46.40198020798238" lon="12.840523780430251"><ele>473.0</ele><time>2026-04-12T09:19:29.999Z</time></trkpt><trkpt lat="46.40200143365876" lon="12.840157810145246"><ele>473.0</ele><time>2026-04-12T09:19:30.999Z</time></trkpt><trkpt lat="46.40202281747189" lon="12.839795923675275"><ele>469.0</ele><time>2026-04-12T09:19:31.999Z</time></trkpt><trkpt lat="46.40204476806965" lon="12.839436641550003"><ele>465.0</ele><time>2026-04-12T09:19:32.999Z</time></trkpt><trkpt lat="46.402067737877154" lon="12.839078005110675"><ele>464.0</ele><time>2026-04-12T09:19:33.999Z</time></trkpt><trkpt lat="46.40208926817459" lon="12.838716889372888"><ele>463.0</ele><time>2026-04-12T09:19:34.999Z</time></trkpt><trkpt lat="46.40211359918583" lon="12.838358348840583"><ele>463.0</ele><time>2026-04-12T09:19:35.999Z</time></trkpt><trkpt lat="46.402141792007825" lon="12.837995648817248"><ele>463.0</ele><time>2026-04-12T09:19:36.999Z</time></trkpt><trkpt lat="46.40216985769258" lon="12.837631207578392"><ele>477.0</ele><time>2026-04-12T09:19:37.999Z</time></trkpt><trkpt lat="46.40219630450788" lon="12.837266264090593"><ele>491.0</ele><time>2026-04-12T09:19:38.999Z</time></trkpt><trkpt lat="46.402220173303505" lon="12.836901766443825"><ele>490.0</ele><time>2026-04-12T09:19:39.999Z</time></trkpt><trkpt lat="46.40223846126747" lon="12.83653857181408"><ele>489.0</ele><time>2026-04-12T09:19:40.999Z</time></trkpt><trkpt lat="46.402244506450906" lon="12.836176591389385"><ele>487.5</ele><time>2026-04-12T09:19:41.999Z</time></trkpt><trkpt lat="46.40224051288964" lon="12.835814384816329"><ele>486.0</ele><time>2026-04-12T09:19:42.999Z</time></trkpt><trkpt lat="46.402233895972266" lon="12.835453008100155"><ele>487.0</ele><time>2026-04-12T09:19:43.999Z</time></trkpt><trkpt lat="46.402217035524664" lon="12.835094077589648"><ele>488.0</ele><time>2026-04-12T09:19:44.999Z</time></trkpt><trkpt lat="46.40218692551131" lon="12.834738064067972"><ele>479.0</ele><time>2026-04-12T09:19:45.999Z</time></trkpt><trkpt lat="46.40214954581256" lon="12.834386882185296"><ele>470.0</ele><time>2026-04-12T09:19:46.999Z</time></trkpt><trkpt lat="46.40210688071389" lon="12.834036723466287"><ele>470.0</ele><time>2026-04-12T09:19:48Z</time></trkpt><trkpt lat="46.402065753315426" lon="12.833690177632837"><ele>470.0</ele><time>2026-04-12T09:19:49Z</time></trkpt><trkpt lat="46.402030528260774" lon="12.833342345426244"><ele>474.0</ele><time>2026-04-12T09:19:50Z</time></trkpt><trkpt lat="46.401994772426484" lon="12.833000079270391"><ele>478.0</ele><time>2026-04-12T09:19:51Z</time></trkpt><trkpt lat="46.40195466999341" lon="12.832652231166104"><ele>478.5</ele><time>2026-04-12T09:19:52Z</time></trkpt><trkpt lat="46.40191701380793" lon="12.832299783791038"><ele>479.0</ele><time>2026-04-12T09:19:53Z</time></trkpt><trkpt lat="46.40187812817285" lon="12.831942983501778"><ele>478.5</ele><time>2026-04-12T09:19:54Z</time></trkpt><trkpt lat="46.40184222205304" lon="12.831590651865298"><ele>478.0</ele><time>2026-04-12T09:19:55Z</time></trkpt><trkpt lat="46.401812838474314" lon="12.831242134704393"><ele>479.5</ele><time>2026-04-12T09:19:56Z</time></trkpt><trkpt lat="46.401797082025034" lon="12.83089734593243"><ele>481.0</ele><time>2026-04-12T09:19:57Z</time></trkpt><trkpt lat="46.40179277096506" lon="12.830553659931548"><ele>481.0</ele><time>2026-04-12T09:19:58Z</time></trkpt><trkpt lat="46.40180849906327" lon="12.830214694714504"><ele>481.0</ele><time>2026-04-12T09:19:59Z</time></trkpt><trkpt lat="46.40183765119942" lon="12.829872002320629"><ele>483.0</ele><time>2026-04-12T09:20:00Z</time></trkpt><trkpt lat="46.40186705494972" lon="12.829526031839636"><ele>485.0</ele><time>2026-04-12T09:20:01Z</time></trkpt><trkpt lat="46.401898374540444" lon="12.82918325688323"><ele>485.5</ele><time>2026-04-12T09:20:02Z</time></trkpt><trkpt lat="46.40192511505622" lon="12.82885124780541"><ele>486.0</ele><time>2026-04-12T09:20:03Z</time></trkpt><trkpt lat="46.40194272252027" lon="12.82851789784319"><ele>485.66666666666663</ele><time>2026-04-12T09:20:04Z</time></trkpt><trkpt lat="46.40195937331864" lon="12.828200524731086"><ele>485.3333333333333</ele><time>2026-04-12T09:20:05Z</time></trkpt><trkpt lat="46.40197672082318" lon="12.827913263961035"><ele>485.0</ele><time>2026-04-12T09:20:06Z</time></trkpt><trkpt lat="46.401995570289984" lon="12.827639436448948"><ele>484.3333333333333</ele><time>2026-04-12T09:20:07Z</time></trkpt><trkpt lat="46.4020148047866" lon="12.827383859872095"><ele>483.66666666666663</ele><time>2026-04-12T09:20:08Z</time></trkpt><trkpt lat="46.40204916124328" lon="12.827143244555351"><ele>483.0</ele><time>2026-04-12T09:20:09Z</time></trkpt><trkpt lat="46.40211294620447" lon="12.826915877909252"><ele>482.66666666666663</ele><time>2026-04-12T09:20:10Z</time></trkpt><trkpt lat="46.40219518718679" lon="12.82669825347552"><ele>482.3333333333333</ele><time>2026-04-12T09:20:11Z</time></trkpt><trkpt lat="46.40227901109463" lon="12.826483661922092"><ele>482.0</ele><time>2026-04-12T09:20:12Z</time></trkpt><trkpt lat="46.402352226532315" lon="12.826268359922063"><ele>482.0</ele><time>2026-04-12T09:20:13Z</time></trkpt><trkpt lat="46.40241533563603" lon="12.826059658215636"><ele>482.0</ele><time>2026-04-12T09:20:14Z</time></trkpt><trkpt lat="46.40246899007264" lon="12.825858659968894"><ele>482.0</ele><time>2026-04-12T09:20:15Z</time></trkpt><trkpt lat="46.40251891548379" lon="12.82566443148505"><ele>482.0</ele><time>2026-04-12T09:20:16Z</time></trkpt><trkpt lat="46.40256637667341" lon="12.825470807536894"><ele>481.25</ele><time>2026-04-12T09:20:17Z</time></trkpt><trkpt lat="46.40260441130412" lon="12.825279630783367"><ele>480.5</ele><time>2026-04-12T09:20:18Z</time></trkpt><trkpt lat="46.40263597932382" lon="12.82508797668064"><ele>479.75</ele><time>2026-04-12T09:20:19Z</time></trkpt><trkpt lat="46.4026647321094" lon="12.824899264126476"><ele>479.0</ele><time>2026-04-12T09:20:20Z</time></trkpt><trkpt lat="46.40267156217667" lon="12.824709054876186"><ele>478.25</ele><time>2026-04-12T09:20:21Z</time></trkpt><trkpt lat="46.402664738307415" lon="12.824520751949398"><ele>477.5</ele><time>2026-04-12T09:20:22Z</time></trkpt><trkpt lat="46.40264201090733" lon="12.824331729137775"><ele>476.75</ele><time>2026-04-12T09:20:23Z</time></trkpt><trkpt lat="46.40260382710175" lon="12.824134814135963"><ele>476.0</ele><time>2026-04-12T09:20:24Z</time></trkpt><trkpt lat="46.40257067718552" lon="12.823915264109406"><ele>474.66666666666663</ele><time>2026-04-12T09:20:25Z</time></trkpt><trkpt lat="46.4025348327974" lon="12.823677253304568"><ele>473.33333333333337</ele><time>2026-04-12T09:20:26Z</time></trkpt><trkpt lat="46.40249709711644" lon="12.823446985753396"><ele>472.0</ele><time>2026-04-12T09:20:27Z</time></trkpt><trkpt lat="46.40248063858556" lon="12.823227399212952"><ele>470.6666666666667</ele><time>2026-04-12T09:20:28Z</time></trkpt><trkpt lat="46.40248995146295" lon="12.823000270526483"><ele>469.33333333333337</ele><time>2026-04-12T09:20:29Z</time></trkpt><trkpt lat="46.402539299655324" lon="12.822763675813436"><ele>468.0</ele><time>2026-04-12T09:20:30Z</time></trkpt><trkpt lat="46.40263194502838" lon="12.82253451097557"><ele>466.0</ele><time>2026-04-12T09:20:31Z</time></trkpt><trkpt lat="46.40275547187385" lon="12.822327124954006"><ele>464.0</ele><time>2026-04-12T09:20:32Z</time></trkpt><trkpt lat="46.40288800685656" lon="12.822130378491108"><ele>462.0</ele><time>2026-04-12T09:20:33Z</time></trkpt><trkpt lat="46.40300140493579" lon="12.821911412436675"><ele>464.33333333333337</ele><time>2026-04-12T09:20:34Z</time></trkpt><trkpt lat="46.403094188917144" lon="12.82166781191584"><ele>466.6666666666667</ele><time>2026-04-12T09:20:35Z</time></trkpt><trkpt lat="46.40315821444789" lon="12.821430862038353"><ele>469.0</ele><time>2026-04-12T09:20:36Z</time></trkpt><trkpt lat="46.40320585585769" lon="12.821196885378313"><ele>465.33333333333337</ele><time>2026-04-12T09:20:37Z</time></trkpt><trkpt lat="46.40325000417817" lon="12.820964750278458"><ele>461.66666666666663</ele><time>2026-04-12T09:20:38Z</time></trkpt><trkpt lat="46.40329795795867" lon="12.820756074879288"><ele>458.0</ele><time>2026-04-12T09:20:39Z</time></trkpt><trkpt lat="46.4033607434908" lon="12.820557582408743"><ele>458.0</ele><time>2026-04-12T09:20:40Z</time></trkpt><trkpt lat="46.403444155206834" lon="12.82036888111807"><ele>458.0</ele><time>2026-04-12T09:20:41Z</time></trkpt><trkpt lat="46.40354929892336" lon="12.820198730411644"><ele>458.0</ele><time>2026-04-12T09:20:42Z</time></trkpt><trkpt lat="46.40367745054808" lon="12.820042738103659"><ele>459.3333333333333</ele><time>2026-04-12T09:20:43Z</time></trkpt><trkpt lat="46.403819969599496" lon="12.81990503399209"><ele>460.66666666666663</ele><time>2026-04-12T09:20:44Z</time></trkpt><trkpt lat="46.40396869097061" lon="12.819807461154946"><ele>462.0</ele><time>2026-04-12T09:20:45Z</time></trkpt><trkpt lat="46.40410948038098" lon="12.81974370207868"><ele>462.0</ele><time>2026-04-12T09:20:46Z</time></trkpt><trkpt lat="46.404239632057255" lon="12.819679907171777"><ele>462.0</ele><time>2026-04-12T09:20:47Z</time></trkpt><trkpt lat="46.404353947444925" lon="12.819610608575957"><ele>462.0</ele><time>2026-04-12T09:20:48Z</time></trkpt><trkpt lat="46.40445889270269" lon="12.819567941508518"><ele>462.0</ele><time>2026-04-12T09:20:49Z</time></trkpt><trkpt lat="46.40453728672598" lon="12.819472099213751"><ele>457.5</ele><time>2026-04-12T09:20:50Z</time></trkpt><trkpt lat="46.404586207640065" lon="12.81929749656049"><ele>453.0</ele><time>2026-04-12T09:20:51Z</time></trkpt><trkpt lat="46.40457356027907" lon="12.819085278046616"><ele>448.5</ele><time>2026-04-12T09:20:52Z</time></trkpt><trkpt lat="46.404569260653346" lon="12.818861691510245"><ele>444.0</ele><time>2026-04-12T09:20:53Z</time></trkpt><trkpt lat="46.4045694062296" lon="12.81861542985965"><ele>444.0</ele><time>2026-04-12T09:20:54Z</time></trkpt><trkpt lat="46.40457047664462" lon="12.818356550828762"><ele>444.0</ele><time>2026-04-12T09:20:55Z</time></trkpt><trkpt lat="46.40457204451985" lon="12.818122314586768"><ele>444.0</ele><time>2026-04-12T09:20:56Z</time></trkpt><trkpt lat="46.40457366489762" lon="12.817908982353261"><ele>444.0</ele><time>2026-04-12T09:20:57Z</time></trkpt><trkpt lat="46.40457389899429" lon="12.81769300958859"><ele>444.0</ele><time>2026-04-12T09:20:58Z</time></trkpt><trkpt lat="46.40457726067567" lon="12.817486799055196"><ele>444.0</ele><time>2026-04-12T09:20:59Z</time></trkpt><trkpt lat="46.404581748831454" lon="12.817291940718105"><ele>444.0</ele><time>2026-04-12T09:21:00Z</time></trkpt><trkpt lat="46.40458432699353" lon="12.81710630328237"><ele>444.25</ele><time>2026-04-12T09:21:01Z</time></trkpt><trkpt lat="46.404591550258004" lon="12.816918251891678"><ele>444.5</ele><time>2026-04-12T09:21:02Z</time></trkpt><trkpt lat="46.40461125093908" lon="12.816721256290652"><ele>444.75</ele><time>2026-04-12T09:21:03Z</time></trkpt><trkpt lat="46.40465850165705" lon="12.816543290269232"><ele>445.0</ele><time>2026-04-12T09:21:04Z</time></trkpt><trkpt lat="46.40473939244861" lon="12.816388403914752"><ele>449.75</ele><time>2026-04-12T09:21:05Z</time></trkpt><trkpt lat="46.40482396547273" lon="12.81624059191341"><ele>454.5</ele><time>2026-04-12T09:21:06Z</time></trkpt><trkpt lat="46.40485205945524" lon="12.816057049302065"><ele>459.25</ele><time>2026-04-12T09:21:07Z</time></trkpt><trkpt lat="46.4048360545975" lon="12.815836590014696"><ele>464.0</ele><time>2026-04-12T09:21:08Z</time></trkpt><trkpt lat="46.40481352974728" lon="12.815628331626854"><ele>465.25</ele><time>2026-04-12T09:21:08.999Z</time></trkpt><trkpt lat="46.40479768380777" lon="12.815428572532454"><ele>466.5</ele><time>2026-04-12T09:21:09.999Z</time></trkpt><trkpt lat="46.40478362731295" lon="12.815234549047243"><ele>467.75</ele><time>2026-04-12T09:21:10.999Z</time></trkpt><trkpt lat="46.40478147761772" lon="12.815045215433738"><ele>469.0</ele><time>2026-04-12T09:21:11.999Z</time></trkpt><trkpt lat="46.404804687318375" lon="12.814860226244186"><ele>470.25</ele><time>2026-04-12T09:21:12.999Z</time></trkpt><trkpt lat="46.404852101310105" lon="12.814679519421679"><ele>471.5</ele><time>2026-04-12T09:21:13.999Z</time></trkpt><trkpt lat="46.40491519660852" lon="12.814508423380815"><ele>472.75</ele><time>2026-04-12T09:21:14.999Z</time></trkpt><trkpt lat="46.40496818662024" lon="12.814352183302548"><ele>474.0</ele><time>2026-04-12T09:21:15.999Z</time></trkpt><trkpt lat="46.40500940249325" lon="12.814215286480835"><ele>474.4</ele><time>2026-04-12T09:21:16.999Z</time></trkpt><trkpt lat="46.40503136340138" lon="12.814079365229283"><ele>474.79999999999995</ele><time>2026-04-12T09:21:17.999Z</time></trkpt><trkpt lat="46.40501521527645" lon="12.81393898109562"><ele>475.20000000000005</ele><time>2026-04-12T09:21:18.999Z</time></trkpt><trkpt lat="46.40495700205899" lon="12.813823920423038"><ele>475.6</ele><time>2026-04-12T09:21:19.999Z</time></trkpt><trkpt lat="46.40486057917765" lon="12.813746910075707"><ele>476.0</ele><time>2026-04-12T09:21:20.999Z</time></trkpt><trkpt lat="46.40473419657633" lon="12.813720394640278"><ele>474.0</ele><time>2026-04-12T09:21:21.999Z</time></trkpt><trkpt lat="46.40461881947703" lon="12.813696326338324"><ele>472.0</ele><time>2026-04-12T09:21:22.999Z</time></trkpt><trkpt lat="46.404530888792166" lon="12.8136301718252"><ele>470.0</ele><time>2026-04-12T09:21:23.999Z</time></trkpt><trkpt lat="46.404469257995714" lon="12.813528630075979"><ele>468.0</ele><time>2026-04-12T09:21:24.999Z</time></trkpt><trkpt lat="46.404450070465444" lon="12.813379028136772"><ele>466.0</ele><time>2026-04-12T09:21:25.999Z</time></trkpt><trkpt lat="46.40447356981322" lon="12.813209799873254"><ele>466.0</ele><time>2026-04-12T09:21:26.999Z</time></trkpt><trkpt lat="46.40451086919807" lon="12.813008213522583"><ele>466.0</ele><time>2026-04-12T09:21:27.999Z</time></trkpt><trkpt lat="46.40454094316262" lon="12.812742799163376"><ele>466.0</ele><time>2026-04-12T09:21:28.999Z</time></trkpt><trkpt lat="46.40459221522959" lon="12.81241886312639"><ele>466.33333333333337</ele><time>2026-04-12T09:21:29.999Z</time></trkpt><trkpt lat="46.40460487486144" lon="12.812132138221836"><ele>466.66666666666663</ele><time>2026-04-12T09:21:30.999Z</time></trkpt><trkpt lat="46.40462923451632" lon="12.811856057189772"><ele>467.0</ele><time>2026-04-12T09:21:31.999Z</time></trkpt><trkpt lat="46.40466168048103" lon="12.81159934839308"><ele>477.0</ele><time>2026-04-12T09:21:32.999Z</time></trkpt><trkpt lat="46.40471192129024" lon="12.811377825687256"><ele>487.0</ele><time>2026-04-12T09:21:33.999Z</time></trkpt><trkpt lat="46.404774365681966" lon="12.811180920907931"><ele>497.0</ele><time>2026-04-12T09:21:34.999Z</time></trkpt><trkpt lat="46.40481892614926" lon="12.810988265888207"><ele>497.0</ele><time>2026-04-12T09:21:35.999Z</time></trkpt><trkpt lat="46.40482549110571" lon="12.810770133740435"><ele>497.0</ele><time>2026-04-12T09:21:36.999Z</time></trkpt><trkpt lat="46.4048043253413" lon="12.810517774843692"><ele>497.0</ele><time>2026-04-12T09:21:37.999Z</time></trkpt><trkpt lat="46.404771253390955" lon="12.810253015333966"><ele>497.0</ele><time>2026-04-12T09:21:38.999Z</time></trkpt><trkpt lat="46.404745932810854" lon="12.810022435451177"><ele>497.0</ele><time>2026-04-12T09:21:39.999Z</time></trkpt><trkpt lat="46.40473086375525" lon="12.809806974380832"><ele>497.0</ele><time>2026-04-12T09:21:40.999Z</time></trkpt><trkpt lat="46.404746041809126" lon="12.80958643628896"><ele>497.0</ele><time>2026-04-12T09:21:41.999Z</time></trkpt><trkpt lat="46.404799061437544" lon="12.809333425534351"><ele>497.0</ele><time>2026-04-12T09:21:42.999Z</time></trkpt><trkpt lat="46.404878096735935" lon="12.809044322664194"><ele>497.0</ele><time>2026-04-12T09:21:43.999Z</time></trkpt><trkpt lat="46.40495840349516" lon="12.808758165652563"><ele>499.0</ele><time>2026-04-12T09:21:44.999Z</time></trkpt><trkpt lat="46.40501945378954" lon="12.808524576978368"><ele>501.0</ele><time>2026-04-12T09:21:45.999Z</time></trkpt><trkpt lat="46.40508282821206" lon="12.808324396250036"><ele>503.0</ele><time>2026-04-12T09:21:46.999Z</time></trkpt><trkpt lat="46.40517347266906" lon="12.808159891767591"><ele>503.0</ele><time>2026-04-12T09:21:47.999Z</time></trkpt><trkpt lat="46.40526209780562" lon="12.808025659326104"><ele>502.99999999999994</ele><time>2026-04-12T09:21:48.999Z</time></trkpt><trkpt lat="46.40531461791877" lon="12.807908784341105"><ele>502.99999999999994</ele><time>2026-04-12T09:21:49.999Z</time></trkpt><trkpt lat="46.405347434048586" lon="12.807794070117543"><ele>503.0</ele><time>2026-04-12T09:21:50.999Z</time></trkpt><trkpt lat="46.40537371123663" lon="12.807681007761714"><ele>503.0</ele><time>2026-04-12T09:21:51.999Z</time></trkpt><trkpt lat="46.405402719745105" lon="12.807576168140347"><ele>501.59999999999997</ele><time>2026-04-12T09:21:52.999Z</time></trkpt><trkpt lat="46.40542876742029" lon="12.807469778961483"><ele>500.19999999999993</ele><time>2026-04-12T09:21:54Z</time></trkpt><trkpt lat="46.40546487592311" lon="12.807360354258073"><ele>498.8</ele><time>2026-04-12T09:21:55Z</time></trkpt><trkpt lat="46.40548545450107" lon="12.807234661031934"><ele>497.4</ele><time>2026-04-12T09:21:56Z</time></trkpt><trkpt lat="46.40549483387941" lon="12.807091715328562"><ele>496.0</ele><time>2026-04-12T09:21:57Z</time></trkpt><trkpt lat="46.40548994054001" lon="12.806939151311568"><ele>497.0</ele><time>2026-04-12T09:21:58Z</time></trkpt><trkpt lat="46.40550384723064" lon="12.806785329837806"><ele>498.0</ele><time>2026-04-12T09:21:59Z</time></trkpt><trkpt lat="46.40549002246983" lon="12.806635436249072"><ele>499.0</ele><time>2026-04-12T09:22:00Z</time></trkpt><trkpt lat="46.405488430227926" lon="12.806491488452295"><ele>500.0</ele><time>2026-04-12T09:22:01Z</time></trkpt><trkpt lat="46.405487700386566" lon="12.806351356781203"><ele>501.0</ele><time>2026-04-12T09:22:02Z</time></trkpt><trkpt lat="46.40548106435058" lon="12.806214593607919"><ele>501.0</ele><time>2026-04-12T09:22:03Z</time></trkpt><trkpt lat="46.40546240342547" lon="12.806085454902876"><ele>501.0</ele><time>2026-04-12T09:22:04Z</time></trkpt><trkpt lat="46.40541713644897" lon="12.80596843459301"><ele>501.0</ele><time>2026-04-12T09:22:05Z</time></trkpt><trkpt lat="46.40535429949795" lon="12.805863635451981"><ele>501.0</ele><time>2026-04-12T09:22:06Z</time></trkpt><trkpt lat="46.40528810426672" lon="12.805762662986526"><ele>501.0</ele><time>2026-04-12T09:22:07Z</time></trkpt><trkpt lat="46.40522506033994" lon="12.805656817445673"><ele>502.4</ele><time>2026-04-12T09:22:08Z</time></trkpt><trkpt lat="46.40517187154948" lon="12.805542352737152"><ele>503.8</ele><time>2026-04-12T09:22:09Z</time></trkpt><trkpt lat="46.405139725771804" lon="12.805416164775448"><ele>505.19999999999993</ele><time>2026-04-12T09:22:10Z</time></trkpt><trkpt lat="46.40512683847937" lon="12.805287354120628"><ele>506.59999999999997</ele><time>2026-04-12T09:22:11Z</time></trkpt><trkpt lat="46.40512875677962" lon="12.805156762577436"><ele>508.0</ele><time>2026-04-12T09:22:12Z</time></trkpt><trkpt lat="46.40513532674729" lon="12.805014046827036"><ele>508.5</ele><time>2026-04-12T09:22:13Z</time></trkpt><trkpt lat="46.4051454754761" lon="12.80485911189394"><ele>509.0</ele><time>2026-04-12T09:22:14Z</time></trkpt><trkpt lat="46.40516403633503" lon="12.804695634615188"><ele>509.5</ele><time>2026-04-12T09:22:15Z</time></trkpt><trkpt lat="46.40518430799107" lon="12.804512234764275"><ele>510.0</ele><time>2026-04-12T09:22:16Z</time></trkpt><trkpt lat="46.4051848657274" lon="12.804306485715454"><ele>511.33333333333337</ele><time>2026-04-12T09:22:17Z</time></trkpt><trkpt lat="46.40515220796452" lon="12.804076482712722"><ele>512.6666666666667</ele><time>2026-04-12T09:22:18Z</time></trkpt><trkpt lat="46.4051240400023" lon="12.803795602832215"><ele>514.0</ele><time>2026-04-12T09:22:19Z</time></trkpt><trkpt lat="46.40508770562004" lon="12.803484596150076"><ele>516.0</ele><time>2026-04-12T09:22:20Z</time></trkpt><trkpt lat="46.405043021865346" lon="12.803229514265558"><ele>518.0</ele><time>2026-04-12T09:22:21Z</time></trkpt><trkpt lat="46.40502221280043" lon="12.803010081504828"><ele>520.0</ele><time>2026-04-12T09:22:22Z</time></trkpt><trkpt lat="46.40499798334259" lon="12.802825603597968"><ele>520.0</ele><time>2026-04-12T09:22:23Z</time></trkpt><trkpt lat="46.404976913475956" lon="12.80266687381771"><ele>520.0</ele><time>2026-04-12T09:22:24Z</time></trkpt><trkpt lat="46.40495605680836" lon="12.80252682695613"><ele>520.0</ele><time>2026-04-12T09:22:25Z</time></trkpt><trkpt lat="46.404942500763546" lon="12.802406162738732"><ele>520.0</ele><time>2026-04-12T09:22:26Z</time></trkpt><trkpt lat="46.404929974315195" lon="12.802297298557791"><ele>520.0</ele><time>2026-04-12T09:22:27Z</time></trkpt><trkpt lat="46.40492834427168" lon="12.802186084528866"><ele>520.0</ele><time>2026-04-12T09:22:28Z</time></trkpt><trkpt lat="46.404954105498256" lon="12.802077816320962"><ele>521.6</ele><time>2026-04-12T09:22:29Z</time></trkpt><trkpt lat="46.40501557699116" lon="12.801996942307289"><ele>523.2</ele><time>2026-04-12T09:22:30Z</time></trkpt><trkpt lat="46.405104661535155" lon="12.801984185693378"><ele>524.8</ele><time>2026-04-12T09:22:31Z</time></trkpt><trkpt lat="46.405187157415135" lon="12.802061620084988"><ele>526.4</ele><time>2026-04-12T09:22:32Z</time></trkpt><trkpt lat="46.405226015637304" lon="12.802205265067197"><ele>528.0</ele><time>2026-04-12T09:22:33Z</time></trkpt><trkpt lat="46.405211837257845" lon="12.802365413092406"><ele>528.0</ele><time>2026-04-12T09:22:34Z</time></trkpt><trkpt lat="46.405157601403886" lon="12.80252852271598"><ele>528.0</ele><time>2026-04-12T09:22:35Z</time></trkpt><trkpt lat="46.405115328649174" lon="12.80268129769618"><ele>528.0</ele><time>2026-04-12T09:22:36Z</time></trkpt><trkpt lat="46.405113843345056" lon="12.802855835484872"><ele>528.0</ele><time>2026-04-12T09:22:37Z</time></trkpt><trkpt lat="46.405155964917824" lon="12.803080955965976"><ele>526.0</ele><time>2026-04-12T09:22:38Z</time></trkpt><trkpt lat="46.40521113598177" lon="12.803310079978813"><ele>524.0</ele><time>2026-04-12T09:22:39Z</time></trkpt><trkpt lat="46.405247251804646" lon="12.803494195066593"><ele>522.0</ele><time>2026-04-12T09:22:40Z</time></trkpt><trkpt lat="46.4052899326245" lon="12.80364359519946"><ele>520.0</ele><time>2026-04-12T09:22:41Z</time></trkpt><trkpt lat="46.40535725247149" lon="12.803746933556923"><ele>518.5</ele><time>2026-04-12T09:22:42Z</time></trkpt><trkpt lat="46.40545655361552" lon="12.80379664203553"><ele>517.0</ele><time>2026-04-12T09:22:43Z</time></trkpt><trkpt lat="46.40556933949824" lon="12.803800609855442"><ele>515.5</ele><time>2026-04-12T09:22:44Z</time></trkpt><trkpt lat="46.40567880682421" lon="12.80373136548525"><ele>514.0</ele><time>2026-04-12T09:22:45Z</time></trkpt><trkpt lat="46.40578567235582" lon="12.803587710351943"><ele>519.0</ele><time>2026-04-12T09:22:46Z</time></trkpt><trkpt lat="46.40588584137588" lon="12.803440228638609"><ele>524.0</ele><time>2026-04-12T09:22:47Z</time></trkpt><trkpt lat="46.405968897063886" lon="12.803330840793233"><ele>529.0</ele><time>2026-04-12T09:22:48Z</time></trkpt><trkpt lat="46.40605666389968" lon="12.803246965504211"><ele>534.0</ele><time>2026-04-12T09:22:49Z</time></trkpt><trkpt lat="46.40615741722598" lon="12.803212442228174"><ele>534.0</ele><time>2026-04-12T09:22:50Z</time></trkpt><trkpt lat="46.40627458637059" lon="12.803243015039586"><ele>534.0</ele><time>2026-04-12T09:22:51Z</time></trkpt><trkpt lat="46.406394774435334" lon="12.803353767387646"><ele>534.0</ele><time>2026-04-12T09:22:52Z</time></trkpt><trkpt lat="46.40653072035557" lon="12.803521132688687"><ele>534.0</ele><time>2026-04-12T09:22:53Z</time></trkpt><trkpt lat="46.40669406861868" lon="12.803716288085782"><ele>532.0</ele><time>2026-04-12T09:22:54Z</time></trkpt><trkpt lat="46.406859724751996" lon="12.80391552427518"><ele>530.0</ele><time>2026-04-12T09:22:55Z</time></trkpt><trkpt lat="46.40700954944147" lon="12.804100219647516"><ele>528.0</ele><time>2026-04-12T09:22:56Z</time></trkpt><trkpt lat="46.40715396638033" lon="12.804279725223138"><ele>525.6666666666666</ele><time>2026-04-12T09:22:57Z</time></trkpt><trkpt lat="46.40728280918039" lon="12.804450022452691"><ele>523.3333333333333</ele><time>2026-04-12T09:22:58Z</time></trkpt><trkpt lat="46.40740445929016" lon="12.804599480953726"><ele>521.0</ele><time>2026-04-12T09:22:59Z</time></trkpt><trkpt lat="46.4075318991165" lon="12.804736604952756"><ele>521.0</ele><time>2026-04-12T09:23:00Z</time></trkpt><trkpt lat="46.407674722208945" lon="12.804857352420925"><ele>521.0</ele><time>2026-04-12T09:23:01Z</time></trkpt><trkpt lat="46.407846830259466" lon="12.804949127234497"><ele>521.0</ele><time>2026-04-12T09:23:02Z</time></trkpt><trkpt lat="46.40804604648311" lon="12.8050344224656"><ele>516.0</ele><time>2026-04-12T09:23:03Z</time></trkpt><trkpt lat="46.408274327209405" lon="12.805125280345777"><ele>511.0</ele><time>2026-04-12T09:23:04Z</time></trkpt><trkpt lat="46.40849181143931" lon="12.805225464233828"><ele>510.0</ele><time>2026-04-12T09:23:05Z</time></trkpt><trkpt lat="46.40870974061617" lon="12.805321555742266"><ele>509.0</ele><time>2026-04-12T09:23:06Z</time></trkpt><trkpt lat="46.40891629040082" lon="12.805411360807586"><ele>508.0</ele><time>2026-04-12T09:23:07Z</time></trkpt><trkpt lat="46.40909874497236" lon="12.805497427465166"><ele>514.0</ele><time>2026-04-12T09:23:08Z</time></trkpt><trkpt lat="46.40926346057302" lon="12.80557245336369"><ele>520.0</ele><time>2026-04-12T09:23:09Z</time></trkpt><trkpt lat="46.40941201988244" lon="12.805636862083935"><ele>526.0</ele><time>2026-04-12T09:23:09.999Z</time></trkpt><trkpt lat="46.40955237719754" lon="12.80569590410104"><ele>526.25</ele><time>2026-04-12T09:23:10.999Z</time></trkpt><trkpt lat="46.40968909588598" lon="12.805757991686436"><ele>526.5</ele><time>2026-04-12T09:23:11.999Z</time></trkpt><trkpt lat="46.409823730323964" lon="12.805822879809288"><ele>526.75</ele><time>2026-04-12T09:23:12.999Z</time></trkpt><trkpt lat="46.40995140491424" lon="12.805875523025732"><ele>527.0</ele><time>2026-04-12T09:23:13.999Z</time></trkpt><trkpt lat="46.41006404307003" lon="12.80590847791084"><ele>527.0</ele><time>2026-04-12T09:23:14.999Z</time></trkpt><trkpt lat="46.41017833104396" lon="12.805932775900548"><ele>527.0</ele><time>2026-04-12T09:23:15.999Z</time></trkpt><trkpt lat="46.410295932264404" lon="12.805945114728658"><ele>527.0</ele><time>2026-04-12T09:23:16.999Z</time></trkpt><trkpt lat="46.410411503293936" lon="12.805927171415117"><ele>527.0</ele><time>2026-04-12T09:23:17.999Z</time></trkpt><trkpt lat="46.41052740170567" lon="12.805882318998945"><ele>527.5</ele><time>2026-04-12T09:23:18.999Z</time></trkpt><trkpt lat="46.41064279938616" lon="12.805818841977597"><ele>528.0</ele><time>2026-04-12T09:23:19.999Z</time></trkpt><trkpt lat="46.410761350668885" lon="12.805748394340718"><ele>528.5</ele><time>2026-04-12T09:23:20.999Z</time></trkpt><trkpt lat="46.41088756844788" lon="12.805675294771422"><ele>529.0</ele><time>2026-04-12T09:23:21.999Z</time></trkpt><trkpt lat="46.411022403827765" lon="12.805619442756173"><ele>529.0</ele><time>2026-04-12T09:23:22.999Z</time></trkpt><trkpt lat="46.411159446291144" lon="12.805577852866593"><ele>529.0</ele><time>2026-04-12T09:23:23.999Z</time></trkpt><trkpt lat="46.41130584608754" lon="12.805542842264677"><ele>529.0</ele><time>2026-04-12T09:23:24.999Z</time></trkpt><trkpt lat="46.41145861837418" lon="12.805527629104644"><ele>529.0</ele><time>2026-04-12T09:23:25.999Z</time></trkpt><trkpt lat="46.41161493528957" lon="12.805527661776694"><ele>529.3333333333334</ele><time>2026-04-12T09:23:26.999Z</time></trkpt><trkpt lat="46.411773867806005" lon="12.805537083074118"><ele>529.6666666666666</ele><time>2026-04-12T09:23:27.999Z</time></trkpt><trkpt lat="46.411937448197996" lon="12.805537965407888"><ele>530.0</ele><time>2026-04-12T09:23:28.999Z</time></trkpt><trkpt lat="46.41210247327494" lon="12.805512009393508"><ele>532.6666666666666</ele><time>2026-04-12T09:23:29.999Z</time></trkpt><trkpt lat="46.4122719860338" lon="12.805483307528474"><ele>535.3333333333334</ele><time>2026-04-12T09:23:30.999Z</time></trkpt><trkpt lat="46.41243076784786" lon="12.8053934905655"><ele>538.0</ele><time>2026-04-12T09:23:31.999Z</time></trkpt><trkpt lat="46.4125901065746" lon="12.805329951846124"><ele>538.0</ele><time>2026-04-12T09:23:32.999Z</time></trkpt><trkpt lat="46.412747648851074" lon="12.805260056499332"><ele>538.0</ele><time>2026-04-12T09:23:33.999Z</time></trkpt><trkpt lat="46.41290207827017" lon="12.805187313881067"><ele>538.0</ele><time>2026-04-12T09:23:34.999Z</time></trkpt><trkpt lat="46.41305118062051" lon="12.805121778595755"><ele>539.0</ele><time>2026-04-12T09:23:35.999Z</time></trkpt><trkpt lat="46.413194842112965" lon="12.80504830739918"><ele>540.0</ele><time>2026-04-12T09:23:36.999Z</time></trkpt><trkpt lat="46.41332611795938" lon="12.804947344620052"><ele>541.0</ele><time>2026-04-12T09:23:37.999Z</time></trkpt><trkpt lat="46.413441801479145" lon="12.804808748798607"><ele>541.0</ele><time>2026-04-12T09:23:38.999Z</time></trkpt><trkpt lat="46.413540448830155" lon="12.804642372989743"><ele>541.0</ele><time>2026-04-12T09:23:39.999Z</time></trkpt><trkpt lat="46.413622184945694" lon="12.80444524641728"><ele>541.0</ele><time>2026-04-12T09:23:40.999Z</time></trkpt><trkpt lat="46.41368386057235" lon="12.804229864752534"><ele>539.0</ele><time>2026-04-12T09:23:41.999Z</time></trkpt><trkpt lat="46.41371790044252" lon="12.804003018050095"><ele>537.0</ele><time>2026-04-12T09:23:42.999Z</time></trkpt><trkpt lat="46.41372573972177" lon="12.803773641979422"><ele>535.0</ele><time>2026-04-12T09:23:43.999Z</time></trkpt><trkpt lat="46.41370066157631" lon="12.80355281126162"><ele>535.5</ele><time>2026-04-12T09:23:44.999Z</time></trkpt><trkpt lat="46.41365490675764" lon="12.803344792200432"><ele>536.0</ele><time>2026-04-12T09:23:45.999Z</time></trkpt><trkpt lat="46.41360297292249" lon="12.803141906034968"><ele>536.5</ele><time>2026-04-12T09:23:46.999Z</time></trkpt><trkpt lat="46.41354600914211" lon="12.802943561045007"><ele>537.0</ele><time>2026-04-12T09:23:47.999Z</time></trkpt><trkpt lat="46.41348664806985" lon="12.80274517584468"><ele>538.25</ele><time>2026-04-12T09:23:48.999Z</time></trkpt><trkpt lat="46.413427902002795" lon="12.802549644404944"><ele>539.5</ele><time>2026-04-12T09:23:49.999Z</time></trkpt><trkpt lat="46.41337249872159" lon="12.802351750823703"><ele>540.75</ele><time>2026-04-12T09:23:50.999Z</time></trkpt><trkpt lat="46.413317947368235" lon="12.802147261299725"><ele>542.0</ele><time>2026-04-12T09:23:51.999Z</time></trkpt><trkpt lat="46.41326731997309" lon="12.801938212469862"><ele>543.3333333333333</ele><time>2026-04-12T09:23:52.999Z</time></trkpt><trkpt lat="46.41323595074259" lon="12.801723705926896"><ele>544.6666666666666</ele><time>2026-04-12T09:23:53.999Z</time></trkpt><trkpt lat="46.41322615964781" lon="12.801498284962744"><ele>546.0</ele><time>2026-04-12T09:23:54.999Z</time></trkpt><trkpt lat="46.41322655196489" lon="12.801274410087352"><ele>546.0</ele><time>2026-04-12T09:23:55.999Z</time></trkpt><trkpt lat="46.41324646162457" lon="12.801058385716106"><ele>546.0</ele><time>2026-04-12T09:23:56.999Z</time></trkpt><trkpt lat="46.413283762582445" lon="12.800847725706754"><ele>546.0</ele><time>2026-04-12T09:23:57.999Z</time></trkpt><trkpt lat="46.4133174906268" lon="12.800643424187346"><ele>546.0</ele><time>2026-04-12T09:23:58.999Z</time></trkpt><trkpt lat="46.4133542071125" lon="12.80044568792957"><ele>545.0</ele><time>2026-04-12T09:24:00Z</time></trkpt><trkpt lat="46.413405337239915" lon="12.800257348021832"><ele>544.0</ele><time>2026-04-12T09:24:01Z</time></trkpt><trkpt lat="46.41348692557319" lon="12.800101064712484"><ele>543.0</ele><time>2026-04-12T09:24:02Z</time></trkpt><trkpt lat="46.41359347691013" lon="12.799974122659584"><ele>542.0</ele><time>2026-04-12T09:24:03Z</time></trkpt><trkpt lat="46.41372259996843" lon="12.799884209317517"><ele>544.75</ele><time>2026-04-12T09:24:04Z</time></trkpt><trkpt lat="46.41386559965933" lon="12.79985029703385"><ele>547.5</ele><time>2026-04-12T09:24:05Z</time></trkpt><trkpt lat="46.41400296507124" lon="12.799785573825748"><ele>550.25</ele><time>2026-04-12T09:24:06Z</time></trkpt><trkpt lat="46.41413718680651" lon="12.799701627986481"><ele>553.0</ele><time>2026-04-12T09:24:07Z</time></trkpt><trkpt lat="46.41425299807324" lon="12.79957866662853"><ele>553.0</ele><time>2026-04-12T09:24:08Z</time></trkpt><trkpt lat="46.41435307283409" lon="12.79942686596185"><ele>553.0</ele><time>2026-04-12T09:24:09Z</time></trkpt><trkpt lat="46.41443344790372" lon="12.799244053945397"><ele>553.0</ele><time>2026-04-12T09:24:10Z</time></trkpt><trkpt lat="46.414510273423055" lon="12.799042621896229"><ele>553.6666666666667</ele><time>2026-04-12T09:24:11Z</time></trkpt><trkpt lat="46.41459814396201" lon="12.798846902406009"><ele>554.3333333333334</ele><time>2026-04-12T09:24:12Z</time></trkpt><trkpt lat="46.414684452932946" lon="12.798651597869066"><ele>555.0</ele><time>2026-04-12T09:24:13Z</time></trkpt><trkpt lat="46.41476624568013" lon="12.79845534787886"><ele>555.0</ele><time>2026-04-12T09:24:14Z</time></trkpt><trkpt lat="46.41484565922984" lon="12.79826937054456"><ele>555.0</ele><time>2026-04-12T09:24:15Z</time></trkpt><trkpt lat="46.41492302962628" lon="12.798093479633756"><ele>555.0</ele><time>2026-04-12T09:24:16Z</time></trkpt><trkpt lat="46.414999343877824" lon="12.797920573618837"><ele>555.0</ele><time>2026-04-12T09:24:17Z</time></trkpt><trkpt lat="46.41507073417648" lon="12.797756675700247"><ele>555.0</ele><time>2026-04-12T09:24:18Z</time></trkpt><trkpt lat="46.415139354329824" lon="12.797591652296928"><ele>555.0</ele><time>2026-04-12T09:24:19Z</time></trkpt><trkpt lat="46.415210218873376" lon="12.797432259302605"><ele>555.0</ele><time>2026-04-12T09:24:20Z</time></trkpt><trkpt lat="46.41528033953327" lon="12.797271519183068"><ele>555.0</ele><time>2026-04-12T09:24:21Z</time></trkpt><trkpt lat="46.41535019247719" lon="12.797112893548013"><ele>555.0</ele><time>2026-04-12T09:24:22Z</time></trkpt><trkpt lat="46.41542073021243" lon="12.796954851359677"><ele>555.0</ele><time>2026-04-12T09:24:23Z</time></trkpt><trkpt lat="46.41549370082567" lon="12.796796817859951"><ele>555.0</ele><time>2026-04-12T09:24:24Z</time></trkpt><trkpt lat="46.41556769064877" lon="12.7966326367511"><ele>555.0</ele><time>2026-04-12T09:24:25Z</time></trkpt><trkpt lat="46.41564212146883" lon="12.796465953202643"><ele>555.0</ele><time>2026-04-12T09:24:26Z</time></trkpt><trkpt lat="46.415720787782334" lon="12.796299335299896"><ele>555.0</ele><time>2026-04-12T09:24:27Z</time></trkpt><trkpt lat="46.41579462819463" lon="12.79612708388644"><ele>555.0</ele><time>2026-04-12T09:24:28Z</time></trkpt><trkpt lat="46.41586503684181" lon="12.795950621900463"><ele>555.0</ele><time>2026-04-12T09:24:29Z</time></trkpt><trkpt lat="46.41593624226818" lon="12.79577556788535"><ele>555.0</ele><time>2026-04-12T09:24:30Z</time></trkpt><trkpt lat="46.41600512642026" lon="12.795604084511949"><ele>555.0</ele><time>2026-04-12T09:24:31Z</time></trkpt><trkpt lat="46.41607898772045" lon="12.795436612735097"><ele>555.0</ele><time>2026-04-12T09:24:32Z</time></trkpt><trkpt lat="46.41615712862791" lon="12.795278736403466"><ele>555.0</ele><time>2026-04-12T09:24:33Z</time></trkpt><trkpt lat="46.41624355719679" lon="12.795133333396938"><ele>555.0</ele><time>2026-04-12T09:24:34Z</time></trkpt><trkpt lat="46.416318919603" lon="12.795000180796137"><ele>555.0</ele><time>2026-04-12T09:24:35Z</time></trkpt><trkpt lat="46.41637405512922" lon="12.794853961769325"><ele>555.0</ele><time>2026-04-12T09:24:36Z</time></trkpt><trkpt lat="46.4163888454213" lon="12.794691074303886"><ele>555.0</ele><time>2026-04-12T09:24:37Z</time></trkpt><trkpt lat="46.416371540452566" lon="12.794529469376435"><ele>555.5</ele><time>2026-04-12T09:24:38Z</time></trkpt><trkpt lat="46.41635088010947" lon="12.794358140082679"><ele>556.0</ele><time>2026-04-12T09:24:39Z</time></trkpt><trkpt lat="46.41636427418513" lon="12.794184419645164"><ele>556.5</ele><time>2026-04-12T09:24:40Z</time></trkpt><trkpt lat="46.41640959593873" lon="12.794000274392312"><ele>557.0</ele><time>2026-04-12T09:24:41Z</time></trkpt><trkpt lat="46.41648524877007" lon="12.793819339037839"><ele>558.0</ele><time>2026-04-12T09:24:42Z</time></trkpt><trkpt lat="46.41654568517013" lon="12.793633420845225"><ele>559.0</ele><time>2026-04-12T09:24:43Z</time></trkpt><trkpt lat="46.41658530669491" lon="12.79344561045138"><ele>560.0</ele><time>2026-04-12T09:24:44Z</time></trkpt><trkpt lat="46.41661843016481" lon="12.79326982987305"><ele>561.0</ele><time>2026-04-12T09:24:45Z</time></trkpt><trkpt lat="46.416620818823866" lon="12.793082631690687"><ele>561.75</ele><time>2026-04-12T09:24:46Z</time></trkpt><trkpt lat="46.41659538881608" lon="12.792879093863755"><ele>562.5</ele><time>2026-04-12T09:24:47Z</time></trkpt><trkpt lat="46.41655212705876" lon="12.792678830730475"><ele>563.25</ele><time>2026-04-12T09:24:48Z</time></trkpt><trkpt lat="46.416492025948074" lon="12.792493940244078"><ele>564.0</ele><time>2026-04-12T09:24:49Z</time></trkpt><trkpt lat="46.41642283660069" lon="12.792321621856376"><ele>564.5</ele><time>2026-04-12T09:24:50Z</time></trkpt><trkpt lat="46.41635339888646" lon="12.792149729020917"><ele>565.0</ele><time>2026-04-12T09:24:51Z</time></trkpt><trkpt lat="46.41631731197801" lon="12.79194673939196"><ele>565.5</ele><time>2026-04-12T09:24:52Z</time></trkpt><trkpt lat="46.41626411107053" lon="12.791746931037606"><ele>566.0</ele><time>2026-04-12T09:24:53Z</time></trkpt><trkpt lat="46.416232740661066" lon="12.791548786795948"><ele>566.0</ele><time>2026-04-12T09:24:54Z</time></trkpt><trkpt lat="46.41620013977848" lon="12.791359322976284"><ele>566.0</ele><time>2026-04-12T09:24:55Z</time></trkpt><trkpt lat="46.41621238216284" lon="12.791179018056702"><ele>566.0</ele><time>2026-04-12T09:24:56Z</time></trkpt><trkpt lat="46.41626648406781" lon="12.791051301898051"><ele>566.0</ele><time>2026-04-12T09:24:57Z</time></trkpt><trkpt lat="46.41632271082988" lon="12.790952476606336"><ele>566.0</ele><time>2026-04-12T09:24:58Z</time></trkpt><trkpt lat="46.416405837913345" lon="12.79091575907209"><ele>566.0</ele><time>2026-04-12T09:24:59Z</time></trkpt><trkpt lat="46.416490248452455" lon="12.790921290182304"><ele>566.0</ele><time>2026-04-12T09:25:00Z</time></trkpt><trkpt lat="46.4165706567085" lon="12.790989358128224"><ele>566.0</ele><time>2026-04-12T09:25:01Z</time></trkpt><trkpt lat="46.416668046611555" lon="12.79097810632833"><ele>566.0</ele><time>2026-04-12T09:25:02Z</time></trkpt><trkpt lat="46.41677921610584" lon="12.790970923817369"><ele>566.0</ele><time>2026-04-12T09:25:03Z</time></trkpt><trkpt lat="46.416882095878556" lon="12.790957746521396"><ele>566.0</ele><time>2026-04-12T09:25:04Z</time></trkpt><trkpt lat="46.41697154278005" lon="12.790945447198029"><ele>566.0</ele><time>2026-04-12T09:25:05Z</time></trkpt><trkpt lat="46.417051743924155" lon="12.790861310057412"><ele>566.0</ele><time>2026-04-12T09:25:06Z</time></trkpt><trkpt lat="46.41708463168896" lon="12.790696273772202"><ele>566.0</ele><time>2026-04-12T09:25:07Z</time></trkpt><trkpt lat="46.417122561178275" lon="12.790572941521562"><ele>566.4</ele><time>2026-04-12T09:25:08Z</time></trkpt><trkpt lat="46.41716243988898" lon="12.790444326641024"><ele>566.8</ele><time>2026-04-12T09:25:09Z</time></trkpt><trkpt lat="46.417205614404544" lon="12.790322016147547"><ele>567.1999999999999</ele><time>2026-04-12T09:25:10Z</time></trkpt><trkpt lat="46.417248723363876" lon="12.790204314245063"><ele>567.6</ele><time>2026-04-12T09:25:11Z</time></trkpt><trkpt lat="46.41728981066637" lon="12.790085047841433"><ele>568.0</ele><time>2026-04-12T09:25:12Z</time></trkpt><trkpt lat="46.41733065426679" lon="12.78996692298619"><ele>568.4</ele><time>2026-04-12T09:25:13Z</time></trkpt><trkpt lat="46.41737117416604" lon="12.789845975894403"><ele>568.8</ele><time>2026-04-12T09:25:13.999Z</time></trkpt><trkpt lat="46.417412170287164" lon="12.789726243584397"><ele>569.2</ele><time>2026-04-12T09:25:14.999Z</time></trkpt><trkpt lat="46.41745301453641" lon="12.789608191541806"><ele>569.6</ele><time>2026-04-12T09:25:15.999Z</time></trkpt><trkpt lat="46.417492897758855" lon="12.78949117668698"><ele>570.0</ele><time>2026-04-12T09:25:16.999Z</time></trkpt><trkpt lat="46.41753253965201" lon="12.789375205232112"><ele>570.4</ele><time>2026-04-12T09:25:17.999Z</time></trkpt><trkpt lat="46.41756717495609" lon="12.789262726923425"><ele>570.8</ele><time>2026-04-12T09:25:18.999Z</time></trkpt><trkpt lat="46.41757867068628" lon="12.789135592581665"><ele>571.2</ele><time>2026-04-12T09:25:19.999Z</time></trkpt><trkpt lat="46.41756491620351" lon="12.788996590467951"><ele>571.6</ele><time>2026-04-12T09:25:20.999Z</time></trkpt><trkpt lat="46.417534789140284" lon="12.788874967781657"><ele>572.0</ele><time>2026-04-12T09:25:21.999Z</time></trkpt><trkpt lat="46.41748996142636" lon="12.788756873820732"><ele>572.0</ele><time>2026-04-12T09:25:22.999Z</time></trkpt><trkpt lat="46.41743368528239" lon="12.788646104831699"><ele>572.0</ele><time>2026-04-12T09:25:23.999Z</time></trkpt><trkpt lat="46.41736590937742" lon="12.78854411459541"><ele>572.0</ele><time>2026-04-12T09:25:24.999Z</time></trkpt><trkpt lat="46.41729288844806" lon="12.788437735826871"><ele>572.0</ele><time>2026-04-12T09:25:25.999Z</time></trkpt><trkpt lat="46.41721998921652" lon="12.78833453036107"><ele>572.0</ele><time>2026-04-12T09:25:26.999Z</time></trkpt><trkpt lat="46.4171393340734" lon="12.788243865869813"><ele>574.0</ele><time>2026-04-12T09:25:27.999Z</time></trkpt><trkpt lat="46.41703939833468" lon="12.788186470174097"><ele>576.0</ele><time>2026-04-12T09:25:28.999Z</time></trkpt><trkpt lat="46.41692488634473" lon="12.78814005525738"><ele>578.0</ele><time>2026-04-12T09:25:29.999Z</time></trkpt><trkpt lat="46.41680668284716" lon="12.788094638946053"><ele>580.0</ele><time>2026-04-12T09:25:30.999Z</time></trkpt><trkpt lat="46.41668115767482" lon="12.788053291624438"><ele>580.0</ele><time>2026-04-12T09:25:31.999Z</time></trkpt><trkpt lat="46.41654522439944" lon="12.788016550706027"><ele>580.0</ele><time>2026-04-12T09:25:32.999Z</time></trkpt><trkpt lat="46.416405465960615" lon="12.787972641259588"><ele>580.0</ele><time>2026-04-12T09:25:33.999Z</time></trkpt><trkpt lat="46.4162632569707" lon="12.787921878889001"><ele>580.0</ele><time>2026-04-12T09:25:34.999Z</time></trkpt><trkpt lat="46.41612464959411" lon="12.787875647021139"><ele>581.0</ele><time>2026-04-12T09:25:35.999Z</time></trkpt><trkpt lat="46.416001967939096" lon="12.787840800799865"><ele>582.0</ele><time>2026-04-12T09:25:36.999Z</time></trkpt><trkpt lat="46.415895538298265" lon="12.78783263218292"><ele>583.0</ele><time>2026-04-12T09:25:37.999Z</time></trkpt><trkpt lat="46.415796501262356" lon="12.787857922303091"><ele>584.0</ele><time>2026-04-12T09:25:38.999Z</time></trkpt><trkpt lat="46.41569839139626" lon="12.787898521717333"><ele>585.0</ele><time>2026-04-12T09:25:39.999Z</time></trkpt><trkpt lat="46.415614618959815" lon="12.787993850553484"><ele>585.0</ele><time>2026-04-12T09:25:40.999Z</time></trkpt><trkpt lat="46.41556271655303" lon="12.788130467690689"><ele>585.0</ele><time>2026-04-12T09:25:41.999Z</time></trkpt><trkpt lat="46.415520432161486" lon="12.788271050480565"><ele>585.0</ele><time>2026-04-12T09:25:42.999Z</time></trkpt><trkpt lat="46.415483547804065" lon="12.788414027754706"><ele>585.0</ele><time>2026-04-12T09:25:43.999Z</time></trkpt><trkpt lat="46.41542622642589" lon="12.788549309844925"><ele>585.0</ele><time>2026-04-12T09:25:44.999Z</time></trkpt><trkpt lat="46.41534029924838" lon="12.788676286504936"><ele>586.5</ele><time>2026-04-12T09:25:45.999Z</time></trkpt><trkpt lat="46.41524744280591" lon="12.788790845125567"><ele>588.0</ele><time>2026-04-12T09:25:46.999Z</time></trkpt><trkpt lat="46.4151561995317" lon="12.78889348146388"><ele>589.5</ele><time>2026-04-12T09:25:47.999Z</time></trkpt><trkpt lat="46.41507089709703" lon="12.788999264622001"><ele>591.0</ele><time>2026-04-12T09:25:48.999Z</time></trkpt><trkpt lat="46.414990296913004" lon="12.789099002385473"><ele>591.0</ele><time>2026-04-12T09:25:49.999Z</time></trkpt><trkpt lat="46.41490927258718" lon="12.789199660030702"><ele>591.0</ele><time>2026-04-12T09:25:50.999Z</time></trkpt><trkpt lat="46.41482603124401" lon="12.78928977031362"><ele>591.0</ele><time>2026-04-12T09:25:51.999Z</time></trkpt><trkpt lat="46.4147469663674" lon="12.789343207423364"><ele>591.0</ele><time>2026-04-12T09:25:52.999Z</time></trkpt><trkpt lat="46.414675136805336" lon="12.789354432446592"><ele>591.0</ele><time>2026-04-12T09:25:53.999Z</time></trkpt><trkpt lat="46.41460133862408" lon="12.78933195434135"><ele>591.0</ele><time>2026-04-12T09:25:54.999Z</time></trkpt><trkpt lat="46.41453510468785" lon="12.789275862952834"><ele>590.4</ele><time>2026-04-12T09:25:55.999Z</time></trkpt><trkpt lat="46.41448285138729" lon="12.789187992004434"><ele>589.8</ele><time>2026-04-12T09:25:56.999Z</time></trkpt><trkpt lat="46.41443437011164" lon="12.789083959902003"><ele>589.1999999999999</ele><time>2026-04-12T09:25:57.999Z</time></trkpt><trkpt lat="46.41438034540011" lon="12.788963802685009"><ele>588.6</ele><time>2026-04-12T09:25:58.999Z</time></trkpt><trkpt lat="46.41432536280337" lon="12.788837715840975"><ele>588.0</ele><time>2026-04-12T09:25:59.999Z</time></trkpt><trkpt lat="46.41427483675314" lon="12.788709729658436"><ele>588.0</ele><time>2026-04-12T09:26:00.999Z</time></trkpt><trkpt lat="46.41423835538445" lon="12.788575178683676"><ele>588.0</ele><time>2026-04-12T09:26:01.999Z</time></trkpt><trkpt lat="46.41421680666352" lon="12.788432469359826"><ele>588.0</ele><time>2026-04-12T09:26:02.999Z</time></trkpt><trkpt lat="46.41420751324245" lon="12.788277563514349"><ele>588.0</ele><time>2026-04-12T09:26:03.999Z</time></trkpt><trkpt lat="46.41421050292405" lon="12.788107709447011"><ele>588.0</ele><time>2026-04-12T09:26:04.999Z</time></trkpt><trkpt lat="46.414220809101735" lon="12.787922090957432"><ele>591.0</ele><time>2026-04-12T09:26:06Z</time></trkpt><trkpt lat="46.41423478616311" lon="12.787726445884969"><ele>594.0</ele><time>2026-04-12T09:26:07Z</time></trkpt><trkpt lat="46.41424808586193" lon="12.78755000290009"><ele>597.0</ele><time>2026-04-12T09:26:08Z</time></trkpt><trkpt lat="46.414256909425355" lon="12.787370326093967"><ele>600.0</ele><time>2026-04-12T09:26:09Z</time></trkpt><trkpt lat="46.414242779325626" lon="12.78719447423747"><ele>601.5</ele><time>2026-04-12T09:26:10Z</time></trkpt><trkpt lat="46.41418918517985" lon="12.787039718397946"><ele>603.0</ele><time>2026-04-12T09:26:11Z</time></trkpt><trkpt lat="46.414105721647324" lon="12.78691106836879"><ele>604.5</ele><time>2026-04-12T09:26:12Z</time></trkpt><trkpt lat="46.41400249594634" lon="12.786808303826508"><ele>606.0</ele><time>2026-04-12T09:26:13Z</time></trkpt><trkpt lat="46.41385610684042" lon="12.786764452718412"><ele>607.25</ele><time>2026-04-12T09:26:14Z</time></trkpt><trkpt lat="46.41371121946417" lon="12.786727756161497"><ele>608.5</ele><time>2026-04-12T09:26:15Z</time></trkpt><trkpt lat="46.413597488879624" lon="12.786689532985264"><ele>609.75</ele><time>2026-04-12T09:26:16Z</time></trkpt><trkpt lat="46.41348258192257" lon="12.78660687812903"><ele>611.0</ele><time>2026-04-12T09:26:17Z</time></trkpt><trkpt lat="46.41336713443548" lon="12.78649767625148"><ele>611.0</ele><time>2026-04-12T09:26:18Z</time></trkpt><trkpt lat="46.41327380550801" lon="12.786358133703137"><ele>611.0</ele><time>2026-04-12T09:26:19Z</time></trkpt><trkpt lat="46.41318919013435" lon="12.786187293812043"><ele>611.0</ele><time>2026-04-12T09:26:20Z</time></trkpt><trkpt lat="46.41312019295264" lon="12.786024803680201"><ele>611.0</ele><time>2026-04-12T09:26:21Z</time></trkpt><trkpt lat="46.41304492854438" lon="12.785864702365737"><ele>610.0</ele><time>2026-04-12T09:26:22Z</time></trkpt><trkpt lat="46.41296644701249" lon="12.785711133766952"><ele>609.0</ele><time>2026-04-12T09:26:23Z</time></trkpt><trkpt lat="46.41287116536133" lon="12.785574974397546"><ele>608.0</ele><time>2026-04-12T09:26:24Z</time></trkpt><trkpt lat="46.41276723211972" lon="12.785435003011788"><ele>607.0</ele><time>2026-04-12T09:26:25Z</time></trkpt><trkpt lat="46.41265272959621" lon="12.785332971254043"><ele>607.0</ele><time>2026-04-12T09:26:26Z</time></trkpt><trkpt lat="46.412545028132875" lon="12.785283286529577"><ele>607.0</ele><time>2026-04-12T09:26:27Z</time></trkpt><trkpt lat="46.412446746584465" lon="12.785174370695147"><ele>607.0</ele><time>2026-04-12T09:26:28Z</time></trkpt><trkpt lat="46.41236334549869" lon="12.785034994981592"><ele>607.0</ele><time>2026-04-12T09:26:29Z</time></trkpt><trkpt lat="46.41231169944699" lon="12.784866016638514"><ele>610.8000000000001</ele><time>2026-04-12T09:26:30Z</time></trkpt><trkpt lat="46.41227674136865" lon="12.78467481466218"><ele>614.6</ele><time>2026-04-12T09:26:31Z</time></trkpt><trkpt lat="46.4122515952878" lon="12.78450972405673"><ele>618.4000000000001</ele><time>2026-04-12T09:26:32Z</time></trkpt><trkpt lat="46.41223642738822" lon="12.784372424609158"><ele>622.2</ele><time>2026-04-12T09:26:33Z</time></trkpt><trkpt lat="46.41222987410236" lon="12.784251935071286"><ele>626.0</ele><time>2026-04-12T09:26:34Z</time></trkpt><trkpt lat="46.412236235464185" lon="12.78413223225042"><ele>628.0</ele><time>2026-04-12T09:26:35Z</time></trkpt><trkpt lat="46.412258542761066" lon="12.78400915687659"><ele>630.0</ele><time>2026-04-12T09:26:36Z</time></trkpt><trkpt lat="46.412287658559556" lon="12.783885603014546"><ele>632.0</ele><time>2026-04-12T09:26:37Z</time></trkpt><trkpt lat="46.41231758379158" lon="12.78376137142868"><ele>634.0</ele><time>2026-04-12T09:26:38Z</time></trkpt><trkpt lat="46.412347712929574" lon="12.783633726889047"><ele>636.0</ele><time>2026-04-12T09:26:39Z</time></trkpt><trkpt lat="46.41238086473802" lon="12.783503584593689"><ele>636.0</ele><time>2026-04-12T09:26:40Z</time></trkpt><trkpt lat="46.41241790589312" lon="12.783368978512351"><ele>636.0</ele><time>2026-04-12T09:26:41Z</time></trkpt><trkpt lat="46.41245424974217" lon="12.78322969668489"><ele>636.0</ele><time>2026-04-12T09:26:42Z</time></trkpt><trkpt lat="46.41248857664161" lon="12.783082864179196"><ele>636.0</ele><time>2026-04-12T09:26:43Z</time></trkpt><trkpt lat="46.41252081742174" lon="12.78292953756434"><ele>636.0</ele><time>2026-04-12T09:26:44Z</time></trkpt><trkpt lat="46.41253948591797" lon="12.782762196345658"><ele>635.5</ele><time>2026-04-12T09:26:45Z</time></trkpt><trkpt lat="46.41255076233281" lon="12.782585851419235"><ele>635.0</ele><time>2026-04-12T09:26:46Z</time></trkpt><trkpt lat="46.41256332096394" lon="12.782403068910265"><ele>634.5</ele><time>2026-04-12T09:26:47Z</time></trkpt><trkpt lat="46.41257306827255" lon="12.782215510104077"><ele>634.0</ele><time>2026-04-12T09:26:48Z</time></trkpt><trkpt lat="46.41258867024155" lon="12.78203696068221"><ele>634.0</ele><time>2026-04-12T09:26:49Z</time></trkpt><trkpt lat="46.41261055244246" lon="12.781862327577436"><ele>634.0</ele><time>2026-04-12T09:26:50Z</time></trkpt><trkpt lat="46.41264871414576" lon="12.78169396803141"><ele>634.0</ele><time>2026-04-12T09:26:51Z</time></trkpt><trkpt lat="46.412701530453255" lon="12.781536378928898"><ele>634.0</ele><time>2026-04-12T09:26:52Z</time></trkpt><trkpt lat="46.412768452199536" lon="12.781390379097887"><ele>634.75</ele><time>2026-04-12T09:26:53Z</time></trkpt><trkpt lat="46.41284657810128" lon="12.781259311830748"><ele>635.5</ele><time>2026-04-12T09:26:54Z</time></trkpt><trkpt lat="46.41293649463594" lon="12.781146242646328"><ele>636.25</ele><time>2026-04-12T09:26:55Z</time></trkpt><trkpt lat="46.41303940423113" lon="12.781053114151355"><ele>637.0</ele><time>2026-04-12T09:26:56Z</time></trkpt><trkpt lat="46.41315431030271" lon="12.780972227637061"><ele>640.5</ele><time>2026-04-12T09:26:57Z</time></trkpt><trkpt lat="46.41328615971151" lon="12.780919492266332"><ele>644.0</ele><time>2026-04-12T09:26:58Z</time></trkpt><trkpt lat="46.41343140204195" lon="12.780880302344894"><ele>647.5</ele><time>2026-04-12T09:26:59Z</time></trkpt><trkpt lat="46.41357865875848" lon="12.78082032450582"><ele>651.0</ele><time>2026-04-12T09:27:00Z</time></trkpt><trkpt lat="46.413731064146816" lon="12.78072534928348"><ele>652.6666666666666</ele><time>2026-04-12T09:27:01Z</time></trkpt><trkpt lat="46.413883977035944" lon="12.780594464371406"><ele>654.3333333333333</ele><time>2026-04-12T09:27:02Z</time></trkpt><trkpt lat="46.414027665783436" lon="12.780435235765404"><ele>656.0</ele><time>2026-04-12T09:27:03Z</time></trkpt><trkpt lat="46.414161390243244" lon="12.780287638796814"><ele>653.5</ele><time>2026-04-12T09:27:04Z</time></trkpt><trkpt lat="46.41428573337607" lon="12.780156154735788"><ele>651.0</ele><time>2026-04-12T09:27:05Z</time></trkpt><trkpt lat="46.41439864162825" lon="12.780038182314875"><ele>648.5</ele><time>2026-04-12T09:27:06Z</time></trkpt><trkpt lat="46.41451370878731" lon="12.779920358311497"><ele>646.0</ele><time>2026-04-12T09:27:07Z</time></trkpt><trkpt lat="46.414622902230654" lon="12.779804585593986"><ele>647.5</ele><time>2026-04-12T09:27:08Z</time></trkpt><trkpt lat="46.41472370369989" lon="12.779697059850903"><ele>649.0</ele><time>2026-04-12T09:27:09Z</time></trkpt><trkpt lat="46.414813779853205" lon="12.77958265255621"><ele>650.5</ele><time>2026-04-12T09:27:10Z</time></trkpt><trkpt lat="46.41487500339823" lon="12.779433440264064"><ele>652.0</ele><time>2026-04-12T09:27:11Z</time></trkpt><trkpt lat="46.41489858676727" lon="12.77924792738394"><ele>655.0</ele><time>2026-04-12T09:27:12Z</time></trkpt><trkpt lat="46.41487483710735" lon="12.7790298426417"><ele>658.0</ele><time>2026-04-12T09:27:13Z</time></trkpt><trkpt lat="46.41480765838978" lon="12.778771735694562"><ele>661.0</ele><time>2026-04-12T09:27:14Z</time></trkpt><trkpt lat="46.41472338796024" lon="12.77842502013771"><ele>661.6666666666667</ele><time>2026-04-12T09:27:15Z</time></trkpt><trkpt lat="46.41463558166723" lon="12.778117668455383"><ele>662.3333333333334</ele><time>2026-04-12T09:27:15.999Z</time></trkpt><trkpt lat="46.414564038648656" lon="12.777860257884907"><ele>663.0</ele><time>2026-04-12T09:27:16.999Z</time></trkpt><trkpt lat="46.4145071243385" lon="12.777636337371462"><ele>663.0</ele><time>2026-04-12T09:27:17.999Z</time></trkpt><trkpt lat="46.41445345233484" lon="12.777404238875825"><ele>663.0</ele><time>2026-04-12T09:27:18.999Z</time></trkpt><trkpt lat="46.41439221615057" lon="12.777162957595523"><ele>663.0</ele><time>2026-04-12T09:27:19.999Z</time></trkpt><trkpt lat="46.414345320164536" lon="12.776922215277386"><ele>665.5</ele><time>2026-04-12T09:27:20.999Z</time></trkpt><trkpt lat="46.41429138132601" lon="12.77671036572282"><ele>668.0</ele><time>2026-04-12T09:27:21.999Z</time></trkpt><trkpt lat="46.414226034542125" lon="12.776525118031639"><ele>670.5</ele><time>2026-04-12T09:27:22.999Z</time></trkpt><trkpt lat="46.41414603264402" lon="12.776355178434867"><ele>673.0</ele><time>2026-04-12T09:27:23.999Z</time></trkpt><trkpt lat="46.414057432809706" lon="12.77619473055161"><ele>673.0</ele><time>2026-04-12T09:27:24.999Z</time></trkpt><trkpt lat="46.4139853832642" lon="12.776024811175466"><ele>673.0</ele><time>2026-04-12T09:27:25.999Z</time></trkpt><trkpt lat="46.413937936954916" lon="12.775835279777127"><ele>673.0</ele><time>2026-04-12T09:27:26.999Z</time></trkpt><trkpt lat="46.413912328708825" lon="12.775628638857249"><ele>673.0</ele><time>2026-04-12T09:27:27.999Z</time></trkpt><trkpt lat="46.41389204416194" lon="12.775420246914535"><ele>674.0</ele><time>2026-04-12T09:27:28.999Z</time></trkpt><trkpt lat="46.4138721009315" lon="12.775225288442842"><ele>675.0</ele><time>2026-04-12T09:27:29.999Z</time></trkpt><trkpt lat="46.41385418755473" lon="12.775033949641399"><ele>676.0</ele><time>2026-04-12T09:27:30.999Z</time></trkpt><trkpt lat="46.41383647920258" lon="12.774847601384986"><ele>677.0</ele><time>2026-04-12T09:27:31.999Z</time></trkpt><trkpt lat="46.41382043155858" lon="12.77466680492518"><ele>676.25</ele><time>2026-04-12T09:27:32.999Z</time></trkpt><trkpt lat="46.41380857471105" lon="12.774486440223905"><ele>675.5</ele><time>2026-04-12T09:27:33.999Z</time></trkpt><trkpt lat="46.413810670910586" lon="12.774291450483272"><ele>674.75</ele><time>2026-04-12T09:27:34.999Z</time></trkpt><trkpt lat="46.41382509778472" lon="12.77408185469406"><ele>674.0</ele><time>2026-04-12T09:27:35.999Z</time></trkpt><trkpt lat="46.4138514619658" lon="12.773858101275719"><ele>679.6666666666666</ele><time>2026-04-12T09:27:36.999Z</time></trkpt><trkpt lat="46.4138917198768" lon="12.773629758045049"><ele>685.3333333333334</ele><time>2026-04-12T09:27:37.999Z</time></trkpt><trkpt lat="46.41391667885511" lon="12.773397590926313"><ele>691.0</ele><time>2026-04-12T09:27:38.999Z</time></trkpt><trkpt lat="46.41392791392841" lon="12.773160699849983"><ele>694.0</ele><time>2026-04-12T09:27:39.999Z</time></trkpt><trkpt lat="46.4139402655391" lon="12.772933011429737"><ele>697.0</ele><time>2026-04-12T09:27:40.999Z</time></trkpt><trkpt lat="46.413948366947444" lon="12.77269966075424"><ele>700.0</ele><time>2026-04-12T09:27:41.999Z</time></trkpt><trkpt lat="46.41395948445524" lon="12.772485063958346"><ele>702.75</ele><time>2026-04-12T09:27:42.999Z</time></trkpt><trkpt lat="46.413969664520664" lon="12.77228474776128"><ele>705.5</ele><time>2026-04-12T09:27:43.999Z</time></trkpt><trkpt lat="46.41397403888274" lon="12.772096157284786"><ele>708.25</ele><time>2026-04-12T09:27:44.999Z</time></trkpt><trkpt lat="46.41396733278136" lon="12.771911909631015"><ele>711.0</ele><time>2026-04-12T09:27:45.999Z</time></trkpt><trkpt lat="46.41395976892252" lon="12.771720209488608"><ele>711.25</ele><time>2026-04-12T09:27:46.999Z</time></trkpt><trkpt lat="46.413886678537075" lon="12.771544814595183"><ele>711.5</ele><time>2026-04-12T09:27:47.999Z</time></trkpt><trkpt lat="46.41383026702889" lon="12.771366163577275"><ele>711.75</ele><time>2026-04-12T09:27:48.999Z</time></trkpt><trkpt lat="46.41377833527998" lon="12.77119081423986"><ele>712.0</ele><time>2026-04-12T09:27:49.999Z</time></trkpt><trkpt lat="46.413732909561276" lon="12.77104190269912"><ele>709.3333333333334</ele><time>2026-04-12T09:27:50.999Z</time></trkpt><trkpt lat="46.41369084402988" lon="12.770910676873738"><ele>706.6666666666667</ele><time>2026-04-12T09:27:51.999Z</time></trkpt><trkpt lat="46.4136622146921" lon="12.770792094664714"><ele>704.0</ele><time>2026-04-12T09:27:52.999Z</time></trkpt><trkpt lat="46.41364832175382" lon="12.77068410712832"><ele>701.3333333333334</ele><time>2026-04-12T09:27:53.999Z</time></trkpt><trkpt lat="46.413642961595656" lon="12.770589360231527"><ele>698.6666666666666</ele><time>2026-04-12T09:27:54.999Z</time></trkpt><trkpt lat="46.41364048074799" lon="12.77048906671077"><ele>696.0</ele><time>2026-04-12T09:27:55.999Z</time></trkpt><trkpt lat="46.4136385850319" lon="12.770387718476481"><ele>696.0</ele><time>2026-04-12T09:27:56.999Z</time></trkpt><trkpt lat="46.413641372231815" lon="12.770280874379266"><ele>696.0</ele><time>2026-04-12T09:27:57.999Z</time></trkpt><trkpt lat="46.4136534799414" lon="12.770164365370569"><ele>696.0</ele><time>2026-04-12T09:27:58.999Z</time></trkpt><trkpt lat="46.41368241294254" lon="12.77002987467119"><ele>696.0</ele><time>2026-04-12T09:27:59.999Z</time></trkpt><trkpt lat="46.41371705825313" lon="12.769876233629297"><ele>696.0</ele><time>2026-04-12T09:28:00.999Z</time></trkpt><trkpt lat="46.41376306631606" lon="12.769709926800294"><ele>695.25</ele><time>2026-04-12T09:28:01.999Z</time></trkpt><trkpt lat="46.41381397906483" lon="12.769531733440456"><ele>694.5</ele><time>2026-04-12T09:28:02.999Z</time></trkpt><trkpt lat="46.41386214556434" lon="12.769358351753523"><ele>693.75</ele><time>2026-04-12T09:28:03.999Z</time></trkpt><trkpt lat="46.41391021855389" lon="12.769191109157996"><ele>693.0</ele><time>2026-04-12T09:28:04.999Z</time></trkpt><trkpt lat="46.41395604500902" lon="12.769027217376612"><ele>696.5</ele><time>2026-04-12T09:28:05.999Z</time></trkpt><trkpt lat="46.41399272861276" lon="12.76885891324668"><ele>700.0</ele><time>2026-04-12T09:28:06.999Z</time></trkpt><trkpt lat="46.414013262226064" lon="12.768685016202452"><ele>703.5</ele><time>2026-04-12T09:28:07.999Z</time></trkpt><trkpt lat="46.414015684533624" lon="12.768511047214998"><ele>707.0</ele><time>2026-04-12T09:28:08.999Z</time></trkpt><trkpt lat="46.4139883734804" lon="12.7683393014206"><ele>707.0</ele><time>2026-04-12T09:28:09.999Z</time></trkpt><trkpt lat="46.41394665960629" lon="12.768174983102575"><ele>707.0</ele><time>2026-04-12T09:28:10.999Z</time></trkpt><trkpt lat="46.41388356928099" lon="12.768027654074315"><ele>707.0</ele><time>2026-04-12T09:28:12Z</time></trkpt><trkpt lat="46.41380292500862" lon="12.76790039316186"><ele>707.0</ele><time>2026-04-12T09:28:13Z</time></trkpt><trkpt lat="46.41371763062056" lon="12.76778781039735"><ele>707.6</ele><time>2026-04-12T09:28:14Z</time></trkpt><trkpt lat="46.41363465395911" lon="12.767676581181174"><ele>708.2</ele><time>2026-04-12T09:28:15Z</time></trkpt><trkpt lat="46.413558170163" lon="12.767564542848579"><ele>708.8</ele><time>2026-04-12T09:28:16Z</time></trkpt><trkpt lat="46.4134866234568" lon="12.767452506549708"><ele>709.4</ele><time>2026-04-12T09:28:17Z</time></trkpt><trkpt lat="46.41342638634581" lon="12.767332697521013"><ele>710.0</ele><time>2026-04-12T09:28:18Z</time></trkpt><trkpt lat="46.41337901040809" lon="12.767200978536094"><ele>710.0</ele><time>2026-04-12T09:28:19Z</time></trkpt><trkpt lat="46.4133618918109" lon="12.76704816522657"><ele>710.0</ele><time>2026-04-12T09:28:20Z</time></trkpt><trkpt lat="46.41337871530155" lon="12.766880943284264"><ele>710.0</ele><time>2026-04-12T09:28:21Z</time></trkpt><trkpt lat="46.413440043447785" lon="12.7667279513293"><ele>710.0</ele><time>2026-04-12T09:28:22Z</time></trkpt><trkpt lat="46.413540988135686" lon="12.766615339198168"><ele>712.75</ele><time>2026-04-12T09:28:23Z</time></trkpt><trkpt lat="46.41366625688403" lon="12.76655607338926"><ele>715.5</ele><time>2026-04-12T09:28:24Z</time></trkpt><trkpt lat="46.413805180286396" lon="12.766563907068289"><ele>718.25</ele><time>2026-04-12T09:28:25Z</time></trkpt><trkpt lat="46.41394490171799" lon="12.76664324116809"><ele>721.0</ele><time>2026-04-12T09:28:26Z</time></trkpt><trkpt lat="46.414082048741136" lon="12.766745970873167"><ele>721.0</ele><time>2026-04-12T09:28:27Z</time></trkpt><trkpt lat="46.41423301151435" lon="12.766839168403239"><ele>721.0</ele><time>2026-04-12T09:28:28Z</time></trkpt><trkpt lat="46.41438273880893" lon="12.76693161624048"><ele>721.0</ele><time>2026-04-12T09:28:29Z</time></trkpt><trkpt lat="46.41451284990535" lon="12.767014121197041"><ele>721.75</ele><time>2026-04-12T09:28:30Z</time></trkpt><trkpt lat="46.41462635570255" lon="12.767082707372909"><ele>722.5</ele><time>2026-04-12T09:28:31Z</time></trkpt><trkpt lat="46.41473232711707" lon="12.767149725431006"><ele>723.25</ele><time>2026-04-12T09:28:32Z</time></trkpt><trkpt lat="46.41483486173323" lon="12.767212336220888"><ele>724.0</ele><time>2026-04-12T09:28:33Z</time></trkpt><trkpt lat="46.41493326734277" lon="12.76725552731291"><ele>724.0</ele><time>2026-04-12T09:28:34Z</time></trkpt><trkpt lat="46.41503714494112" lon="12.767252364445156"><ele>724.0</ele><time>2026-04-12T09:28:35Z</time></trkpt><trkpt lat="46.41514188966407" lon="12.767194529368295"><ele>724.0</ele><time>2026-04-12T09:28:36Z</time></trkpt><trkpt lat="46.415241519430154" lon="12.767097229802642"><ele>724.0</ele><time>2026-04-12T09:28:37Z</time></trkpt><trkpt lat="46.4153079002515" lon="12.766945888138922"><ele>724.5</ele><time>2026-04-12T09:28:38Z</time></trkpt><trkpt lat="46.41534007261331" lon="12.766769870755285"><ele>725.0</ele><time>2026-04-12T09:28:39Z</time></trkpt><trkpt lat="46.41531707551508" lon="12.766579493160904"><ele>725.5</ele><time>2026-04-12T09:28:40Z</time></trkpt><trkpt lat="46.41525569249578" lon="12.766412600127412"><ele>726.0</ele><time>2026-04-12T09:28:41Z</time></trkpt><trkpt lat="46.415173838698" lon="12.766299490136804"><ele>726.0</ele><time>2026-04-12T09:28:42Z</time></trkpt><trkpt lat="46.415097731196646" lon="12.766212619725955"><ele>726.0</ele><time>2026-04-12T09:28:43Z</time></trkpt><trkpt lat="46.415045923522825" lon="12.766133279162444"><ele>726.0</ele><time>2026-04-12T09:28:44Z</time></trkpt><trkpt lat="46.41498969327586" lon="12.766081546955567"><ele>726.0</ele><time>2026-04-12T09:28:45Z</time></trkpt><trkpt lat="46.414979933742146" lon="12.765974507720797"><ele>726.0</ele><time>2026-04-12T09:28:47Z</time></trkpt><trkpt lat="46.41508900331196" lon="12.76596839698249"><ele>726.0</ele><time>2026-04-12T09:28:50Z</time></trkpt><trkpt lat="46.4151519197925" lon="12.766030919243281"><ele>726.0</ele><time>2026-04-12T09:28:53Z</time></trkpt><trkpt lat="46.41523855245834" lon="12.766084228061358"><ele>726.0</ele><time>2026-04-12T09:29:50.999Z</time></trkpt><trkpt lat="46.41530140556788" lon="12.766098047239133"><ele>726.0</ele><time>2026-04-12T09:29:51.999Z</time></trkpt><trkpt lat="46.41538869553666" lon="12.766118777990142"><ele>726.0</ele><time>2026-04-12T09:29:52.999Z</time></trkpt><trkpt lat="46.41545975247806" lon="12.76613083150096"><ele>726.0</ele><time>2026-04-12T09:29:53.999Z</time></trkpt><trkpt lat="46.41552673371707" lon="12.766191634284821"><ele>726.0</ele><time>2026-04-12T09:29:55.999Z</time></trkpt><trkpt lat="46.41558297129653" lon="12.766289358431703"><ele>732.1999999999999</ele><time>2026-04-12T09:43:53.999Z</time></trkpt><trkpt lat="46.41560030933808" lon="12.766465853206793"><ele>738.4</ele><time>2026-04-12T09:43:55.999Z</time></trkpt><trkpt lat="46.41560199056029" lon="12.766581136109084"><ele>744.6</ele><time>2026-04-12T09:43:56.999Z</time></trkpt><trkpt lat="46.41559297828724" lon="12.766724549551148"><ele>750.8</ele><time>2026-04-12T09:43:57.999Z</time></trkpt><trkpt lat="46.41554219083289" lon="12.766887148567742"><ele>757.0</ele><time>2026-04-12T09:43:58.999Z</time></trkpt><trkpt lat="46.41550345436746" lon="12.767093107214492"><ele>757.25</ele><time>2026-04-12T09:43:59.999Z</time></trkpt><trkpt lat="46.4154979823214" lon="12.767308642304547"><ele>757.5</ele><time>2026-04-12T09:44:00.999Z</time></trkpt><trkpt lat="46.415502985388535" lon="12.767498480995325"><ele>757.75</ele><time>2026-04-12T09:44:01.999Z</time></trkpt><trkpt lat="46.41550667399067" lon="12.767684514616542"><ele>758.0</ele><time>2026-04-12T09:44:02.999Z</time></trkpt><trkpt lat="46.41552017638493" lon="12.76789219576445"><ele>759.0</ele><time>2026-04-12T09:44:03.999Z</time></trkpt><trkpt lat="46.415511328874665" lon="12.76811024639985"><ele>760.0</ele><time>2026-04-12T09:44:04.999Z</time></trkpt><trkpt lat="46.41548628371469" lon="12.768314650965488"><ele>761.0</ele><time>2026-04-12T09:44:05.999Z</time></trkpt><trkpt lat="46.41546448456847" lon="12.768474073150475"><ele>762.0</ele><time>2026-04-12T09:44:06.999Z</time></trkpt><trkpt lat="46.41547185826177" lon="12.76864883216586"><ele>762.75</ele><time>2026-04-12T09:44:07.999Z</time></trkpt><trkpt lat="46.41547355183454" lon="12.768838373287583"><ele>763.5</ele><time>2026-04-12T09:44:08.999Z</time></trkpt><trkpt lat="46.415520048742714" lon="12.769041882620177"><ele>764.25</ele><time>2026-04-12T09:44:09.999Z</time></trkpt><trkpt lat="46.41556900478546" lon="12.769258600065752"><ele>765.0</ele><time>2026-04-12T09:44:10.999Z</time></trkpt><trkpt lat="46.41559922335242" lon="12.769489991612236"><ele>765.0</ele><time>2026-04-12T09:44:11.999Z</time></trkpt><trkpt lat="46.41564407181907" lon="12.769734599865867"><ele>765.0</ele><time>2026-04-12T09:44:12.999Z</time></trkpt><trkpt lat="46.415691774943916" lon="12.770007704441383"><ele>765.0</ele><time>2026-04-12T09:44:13.999Z</time></trkpt><trkpt lat="46.41574470797008" lon="12.770255499627504"><ele>763.75</ele><time>2026-04-12T09:44:14.999Z</time></trkpt><trkpt lat="46.41577075782855" lon="12.770474993012515"><ele>762.5</ele><time>2026-04-12T09:44:15.999Z</time></trkpt><trkpt lat="46.41579992185154" lon="12.770672107345014"><ele>761.25</ele><time>2026-04-12T09:44:16.999Z</time></trkpt><trkpt lat="46.415835207640555" lon="12.770847817885523"><ele>760.0</ele><time>2026-04-12T09:44:17.999Z</time></trkpt><trkpt lat="46.41589456628987" lon="12.770985568967646"><ele>758.5</ele><time>2026-04-12T09:44:18.999Z</time></trkpt><trkpt lat="46.41594876889343" lon="12.771139249857214"><ele>757.0</ele><time>2026-04-12T09:44:19.999Z</time></trkpt><trkpt lat="46.41602636462536" lon="12.771291581644583"><ele>755.5</ele><time>2026-04-12T09:44:20.999Z</time></trkpt><trkpt lat="46.41612523507135" lon="12.771438418676565"><ele>754.0</ele><time>2026-04-12T09:44:21.999Z</time></trkpt><trkpt lat="46.41621765153254" lon="12.771608638792793"><ele>757.6666666666667</ele><time>2026-04-12T09:44:22.999Z</time></trkpt><trkpt lat="46.41633309700882" lon="12.771754420711078"><ele>761.3333333333334</ele><time>2026-04-12T09:44:23.999Z</time></trkpt><trkpt lat="46.416470258623264" lon="12.771861614409268"><ele>765.0</ele><time>2026-04-12T09:44:24.999Z</time></trkpt><trkpt lat="46.41657424857931" lon="12.772001586399176"><ele>765.0</ele><time>2026-04-12T09:44:25.999Z</time></trkpt><trkpt lat="46.41666444787747" lon="12.772115867085228"><ele>765.0</ele><time>2026-04-12T09:44:26.999Z</time></trkpt><trkpt lat="46.41674384335882" lon="12.772250367979398"><ele>765.0</ele><time>2026-04-12T09:44:27.999Z</time></trkpt><trkpt lat="46.41682560146149" lon="12.772416066803194"><ele>765.0</ele><time>2026-04-12T09:44:28.999Z</time></trkpt><trkpt lat="46.416906932454076" lon="12.772591703052182"><ele>759.6666666666666</ele><time>2026-04-12T09:44:29.999Z</time></trkpt><trkpt lat="46.41698750053962" lon="12.772781942934053"><ele>754.3333333333333</ele><time>2026-04-12T09:44:30.999Z</time></trkpt><trkpt lat="46.41709141884663" lon="12.772972955933811"><ele>749.0</ele><time>2026-04-12T09:44:31.999Z</time></trkpt><trkpt lat="46.41721975264508" lon="12.773146212590623"><ele>754.3333333333333</ele><time>2026-04-12T09:44:32.999Z</time></trkpt><trkpt lat="46.41733177757851" lon="12.773338094121838"><ele>759.6666666666666</ele><time>2026-04-12T09:44:33.999Z</time></trkpt><trkpt lat="46.41744217433928" lon="12.773531544155992"><ele>765.0</ele><time>2026-04-12T09:44:34.999Z</time></trkpt><trkpt lat="46.41754152439639" lon="12.77370872600332"><ele>765.0</ele><time>2026-04-12T09:44:35.999Z</time></trkpt><trkpt lat="46.417629342417975" lon="12.77386875341199"><ele>765.0</ele><time>2026-04-12T09:44:36.999Z</time></trkpt><trkpt lat="46.417722422381736" lon="12.774010134214508"><ele>765.0</ele><time>2026-04-12T09:44:37.999Z</time></trkpt><trkpt lat="46.41781792528577" lon="12.774160101788379"><ele>765.0</ele><time>2026-04-12T09:44:38.999Z</time></trkpt><trkpt lat="46.4179431689224" lon="12.774252919430419"><ele>771.75</ele><time>2026-04-12T09:44:39.999Z</time></trkpt><trkpt lat="46.41803984846184" lon="12.774386065728228"><ele>778.5</ele><time>2026-04-12T09:44:40.999Z</time></trkpt><trkpt lat="46.41809784942163" lon="12.774545597501547"><ele>785.25</ele><time>2026-04-12T09:44:41.999Z</time></trkpt><trkpt lat="46.41815136505201" lon="12.77468436828162"><ele>792.0</ele><time>2026-04-12T09:44:42.999Z</time></trkpt><trkpt lat="46.418210028869176" lon="12.774813577567613"><ele>792.0</ele><time>2026-04-12T09:44:43.999Z</time></trkpt><trkpt lat="46.418257805857735" lon="12.774952783658913"><ele>792.0</ele><time>2026-04-12T09:44:44.999Z</time></trkpt><trkpt lat="46.41831364570549" lon="12.775091421621688"><ele>792.0</ele><time>2026-04-12T09:44:45.999Z</time></trkpt><trkpt lat="46.41837986413033" lon="12.775219678354114"><ele>792.0</ele><time>2026-04-12T09:44:46.999Z</time></trkpt><trkpt lat="46.41845956267873" lon="12.775335097804515"><ele>792.0</ele><time>2026-04-12T09:44:47.999Z</time></trkpt><trkpt lat="46.41854585078215" lon="12.77544100379702"><ele>788.25</ele><time>2026-04-12T09:44:48.999Z</time></trkpt><trkpt lat="46.41863610664803" lon="12.775540563802815"><ele>784.5</ele><time>2026-04-12T09:44:49.999Z</time></trkpt><trkpt lat="46.41873491002186" lon="12.775616373814042"><ele>780.75</ele><time>2026-04-12T09:44:50.999Z</time></trkpt><trkpt lat="46.4188434898138" lon="12.775674188352625"><ele>777.0</ele><time>2026-04-12T09:44:51.999Z</time></trkpt><trkpt lat="46.41894529338877" lon="12.775744597278266"><ele>781.25</ele><time>2026-04-12T09:44:52.999Z</time></trkpt><trkpt lat="46.41904067305104" lon="12.775842329190045"><ele>785.5</ele><time>2026-04-12T09:44:53.999Z</time></trkpt><trkpt lat="46.4191122608746" lon="12.77598415619892"><ele>789.75</ele><time>2026-04-12T09:44:54.999Z</time></trkpt><trkpt lat="46.41918829973816" lon="12.776131869231302"><ele>794.0</ele><time>2026-04-12T09:44:55.999Z</time></trkpt><trkpt lat="46.41927400397605" lon="12.776255012657476"><ele>794.0</ele><time>2026-04-12T09:44:56.999Z</time></trkpt><trkpt lat="46.4193229134067" lon="12.776398253268072"><ele>794.0</ele><time>2026-04-12T09:44:57.999Z</time></trkpt><trkpt lat="46.41933294289023" lon="12.776550325357839"><ele>794.0</ele><time>2026-04-12T09:44:59Z</time></trkpt><trkpt lat="46.41939213607194" lon="12.776665541295813"><ele>794.0</ele><time>2026-04-12T09:45:00Z</time></trkpt><trkpt lat="46.41950158725651" lon="12.776737514919827"><ele>794.0</ele><time>2026-04-12T09:45:01Z</time></trkpt><trkpt lat="46.4196058569781" lon="12.776827018452321"><ele>797.75</ele><time>2026-04-12T09:45:02Z</time></trkpt><trkpt lat="46.419715637209045" lon="12.776914602214813"><ele>801.5</ele><time>2026-04-12T09:45:03Z</time></trkpt><trkpt lat="46.419838552793465" lon="12.776990174866564"><ele>805.25</ele><time>2026-04-12T09:45:04Z</time></trkpt><trkpt lat="46.41996578567191" lon="12.777085305825606"><ele>809.0</ele><time>2026-04-12T09:45:05Z</time></trkpt><trkpt lat="46.42008877515192" lon="12.777193702475126"><ele>809.0</ele><time>2026-04-12T09:45:06Z</time></trkpt><trkpt lat="46.42019786624353" lon="12.777315405112608"><ele>809.0</ele><time>2026-04-12T09:45:07Z</time></trkpt><trkpt lat="46.42029413220341" lon="12.77744090365623"><ele>809.0</ele><time>2026-04-12T09:45:08Z</time></trkpt><trkpt lat="46.42038509307745" lon="12.7775420324163"><ele>809.0</ele><time>2026-04-12T09:45:09Z</time></trkpt><trkpt lat="46.42045883663378" lon="12.777617392864478"><ele>810.8000000000001</ele><time>2026-04-12T09:45:10Z</time></trkpt><trkpt lat="46.420536100629235" lon="12.7776555158415"><ele>812.6</ele><time>2026-04-12T09:45:11Z</time></trkpt><trkpt lat="46.420629685544284" lon="12.777651908825417"><ele>814.4</ele><time>2026-04-12T09:45:12Z</time></trkpt><trkpt lat="46.4207408682774" lon="12.777660679613446"><ele>816.2</ele><time>2026-04-12T09:45:13Z</time></trkpt><trkpt lat="46.420852183177345" lon="12.777728395882525"><ele>818.0</ele><time>2026-04-12T09:45:14Z</time></trkpt><trkpt lat="46.420973733588745" lon="12.777832390803498"><ele>818.0</ele><time>2026-04-12T09:45:15Z</time></trkpt><trkpt lat="46.421129548413454" lon="12.777975011673302"><ele>818.0</ele><time>2026-04-12T09:45:16Z</time></trkpt><trkpt lat="46.42130571234366" lon="12.778129788294535"><ele>818.0</ele><time>2026-04-12T09:45:17Z</time></trkpt><trkpt lat="46.42143118443006" lon="12.77827149399849"><ele>818.0</ele><time>2026-04-12T09:45:18Z</time></trkpt><trkpt lat="46.42153616367659" lon="12.778369120993872"><ele>818.0</ele><time>2026-04-12T09:45:19Z</time></trkpt><trkpt lat="46.42161334927805" lon="12.778463179995823"><ele>818.0</ele><time>2026-04-12T09:45:20Z</time></trkpt><trkpt lat="46.42169750947095" lon="12.778520253782935"><ele>818.0</ele><time>2026-04-12T09:45:21Z</time></trkpt><trkpt lat="46.42179378034519" lon="12.778543300137379"><ele>818.0</ele><time>2026-04-12T09:45:22Z</time></trkpt><trkpt lat="46.42190560069768" lon="12.77855632832841"><ele>818.0</ele><time>2026-04-12T09:45:23Z</time></trkpt><trkpt lat="46.42200770848566" lon="12.778571760526685"><ele>818.0</ele><time>2026-04-12T09:45:24Z</time></trkpt><trkpt lat="46.422073657943244" lon="12.77860172341168"><ele>818.0</ele><time>2026-04-12T09:45:25Z</time></trkpt><trkpt lat="46.42216594381285" lon="12.778656133123823"><ele>818.0</ele><time>2026-04-12T09:45:27Z</time></trkpt><trkpt lat="46.422262476432074" lon="12.778633613344683"><ele>818.0</ele><time>2026-04-12T09:45:29Z</time></trkpt><trkpt lat="46.42226515195163" lon="12.778458167102416"><ele>823.4</ele><time>2026-04-12T09:45:31Z</time></trkpt><trkpt lat="46.422194599032245" lon="12.77839226286341"><ele>828.8</ele><time>2026-04-12T09:45:32Z</time></trkpt><trkpt lat="46.42209068943895" lon="12.778350621535106"><ele>834.2</ele><time>2026-04-12T09:45:33Z</time></trkpt><trkpt lat="46.42195915798949" lon="12.778300458982567"><ele>839.6</ele><time>2026-04-12T09:45:34Z</time></trkpt><trkpt lat="46.421868952833535" lon="12.778230797487204"><ele>845.0</ele><time>2026-04-12T09:45:35Z</time></trkpt><trkpt lat="46.42180657242978" lon="12.778124155691291"><ele>845.0</ele><time>2026-04-12T09:45:36Z</time></trkpt><trkpt lat="46.421736239339566" lon="12.77801381757718"><ele>845.0</ele><time>2026-04-12T09:45:37Z</time></trkpt><trkpt lat="46.42166013893934" lon="12.777882448708528"><ele>845.0</ele><time>2026-04-12T09:45:38Z</time></trkpt><trkpt lat="46.42160185608264" lon="12.777717810811362"><ele>845.0</ele><time>2026-04-12T09:45:39Z</time></trkpt><trkpt lat="46.42153895009637" lon="12.77757141673271"><ele>845.25</ele><time>2026-04-12T09:45:40Z</time></trkpt><trkpt lat="46.421482783173055" lon="12.777431042323803"><ele>845.5</ele><time>2026-04-12T09:45:41Z</time></trkpt><trkpt lat="46.421392600290154" lon="12.777312204067732"><ele>845.75</ele><time>2026-04-12T09:45:42Z</time></trkpt><trkpt lat="46.42125786000031" lon="12.777255559858032"><ele>846.0</ele><time>2026-04-12T09:45:43Z</time></trkpt><trkpt lat="46.42113641217558" lon="12.777227082677287"><ele>846.0</ele><time>2026-04-12T09:45:44Z</time></trkpt><trkpt lat="46.42103420782876" lon="12.777160728204267"><ele>846.0</ele><time>2026-04-12T09:45:44.999Z</time></trkpt><trkpt lat="46.42094980658603" lon="12.777057584662176"><ele>846.0</ele><time>2026-04-12T09:45:45.999Z</time></trkpt><trkpt lat="46.420863095051125" lon="12.776942686696461"><ele>846.0</ele><time>2026-04-12T09:45:46.999Z</time></trkpt><trkpt lat="46.42079160114164" lon="12.776823734600855"><ele>846.0</ele><time>2026-04-12T09:45:47.999Z</time></trkpt><trkpt lat="46.420721862995414" lon="12.776726997532748"><ele>851.0</ele><time>2026-04-12T09:45:48.999Z</time></trkpt><trkpt lat="46.420654678998346" lon="12.776657634384204"><ele>856.0</ele><time>2026-04-12T09:45:49.999Z</time></trkpt><trkpt lat="46.42060987356315" lon="12.776562576154069"><ele>861.0</ele><time>2026-04-12T09:45:50.999Z</time></trkpt><trkpt lat="46.42058847560178" lon="12.776454883655619"><ele>866.0</ele><time>2026-04-12T09:45:51.999Z</time></trkpt><trkpt lat="46.42058651049167" lon="12.77633444303341"><ele>871.0</ele><time>2026-04-12T09:45:52.999Z</time></trkpt><trkpt lat="46.42060034411928" lon="12.776200159577513"><ele>876.0</ele><time>2026-04-12T09:45:53.999Z</time></trkpt><trkpt lat="46.42059465481241" lon="12.776044567986602"><ele>872.75</ele><time>2026-04-12T09:45:54.999Z</time></trkpt><trkpt lat="46.4205658800028" lon="12.77589537420572"><ele>869.5</ele><time>2026-04-12T09:45:55.999Z</time></trkpt><trkpt lat="46.420474711591055" lon="12.775759747496075"><ele>866.25</ele><time>2026-04-12T09:45:56.999Z</time></trkpt><trkpt lat="46.420381358221775" lon="12.775614701117068"><ele>863.0</ele><time>2026-04-12T09:45:57.999Z</time></trkpt><trkpt lat="46.42031157252706" lon="12.775429496821735"><ele>863.0</ele><time>2026-04-12T09:45:58.999Z</time></trkpt><trkpt lat="46.420238959528206" lon="12.775231166125735"><ele>863.0</ele><time>2026-04-12T09:45:59.999Z</time></trkpt><trkpt lat="46.420146502456625" lon="12.775049487326715"><ele>863.0</ele><time>2026-04-12T09:46:00.999Z</time></trkpt><trkpt lat="46.42006332280861" lon="12.774884839153582"><ele>867.4</ele><time>2026-04-12T09:46:01.999Z</time></trkpt><trkpt lat="46.41997721005538" lon="12.774742707205904"><ele>871.8</ele><time>2026-04-12T09:46:02.999Z</time></trkpt><trkpt lat="46.419900004178736" lon="12.774628257168294"><ele>876.2</ele><time>2026-04-12T09:46:03.999Z</time></trkpt><trkpt lat="46.41982655726941" lon="12.77453985548809"><ele>880.6</ele><time>2026-04-12T09:46:04.999Z</time></trkpt><trkpt lat="46.41976273389799" lon="12.774496346142627"><ele>885.0</ele><time>2026-04-12T09:46:05.999Z</time></trkpt><trkpt lat="46.419698819964154" lon="12.774365367914239"><ele>885.0</ele><time>2026-04-12T09:46:07.999Z</time></trkpt><trkpt lat="46.41968523379242" lon="12.774273219534317"><ele>885.0</ele><time>2026-04-12T09:46:09.999Z</time></trkpt><trkpt lat="46.41980073962246" lon="12.774273045270986"><ele>885.0</ele><time>2026-04-12T09:46:11.999Z</time></trkpt><trkpt lat="46.41984125811136" lon="12.774379844463054"><ele>885.0</ele><time>2026-04-12T09:46:12.999Z</time></trkpt><trkpt lat="46.41992096936001" lon="12.774512014075011"><ele>885.0</ele><time>2026-04-12T09:46:13.999Z</time></trkpt><trkpt lat="46.420042049199026" lon="12.774636633432475"><ele>885.0</ele><time>2026-04-12T09:46:14.999Z</time></trkpt><trkpt lat="46.42018252641369" lon="12.774762571130944"><ele>885.0</ele><time>2026-04-12T09:46:15.999Z</time></trkpt><trkpt lat="46.42029314095917" lon="12.77488268514027"><ele>885.0</ele><time>2026-04-12T09:46:16.999Z</time></trkpt><trkpt lat="46.42037064086235" lon="12.775000023311188"><ele>885.0</ele><time>2026-04-12T09:46:17.999Z</time></trkpt><trkpt lat="46.42045888964317" lon="12.775122869133593"><ele>889.0</ele><time>2026-04-12T09:46:18.999Z</time></trkpt><trkpt lat="46.42052929647487" lon="12.775228030474075"><ele>893.0</ele><time>2026-04-12T09:46:19.999Z</time></trkpt><trkpt lat="46.420636834097785" lon="12.77527838146535"><ele>897.0</ele><time>2026-04-12T09:46:20.999Z</time></trkpt><trkpt lat="46.42075936004045" lon="12.775343765862429"><ele>901.0</ele><time>2026-04-12T09:46:21.999Z</time></trkpt><trkpt lat="46.42089120992902" lon="12.775397515153498"><ele>900.9999999999999</ele><time>2026-04-12T09:46:22.999Z</time></trkpt><trkpt lat="46.42098733008044" lon="12.775445213514809"><ele>901.0</ele><time>2026-04-12T09:46:23.999Z</time></trkpt><trkpt lat="46.42106091739835" lon="12.775498743894087"><ele>901.0</ele><time>2026-04-12T09:46:24.999Z</time></trkpt><trkpt lat="46.421123846267626" lon="12.775562859740372"><ele>901.0</ele><time>2026-04-12T09:46:25.999Z</time></trkpt><trkpt lat="46.42117376662285" lon="12.775639079108497"><ele>900.9999999999999</ele><time>2026-04-12T09:46:26.999Z</time></trkpt><trkpt lat="46.42114715961688" lon="12.77575619964719"><ele>901.0</ele><time>2026-04-12T09:46:27.999Z</time></trkpt><trkpt lat="46.42115589222075" lon="12.775884714296275"><ele>900.9999999999999</ele><time>2026-04-12T09:46:28.999Z</time></trkpt><trkpt lat="46.42116451745826" lon="12.775998292463381"><ele>901.0</ele><time>2026-04-12T09:46:29.999Z</time></trkpt><trkpt lat="46.42120874542757" lon="12.776097986530068"><ele>901.0</ele><time>2026-04-12T09:46:30.999Z</time></trkpt><trkpt lat="46.42128013684125" lon="12.776168568269425"><ele>901.0</ele><time>2026-04-12T09:46:31.999Z</time></trkpt><trkpt lat="46.42134425483827" lon="12.776219277143806"><ele>900.9999999999999</ele><time>2026-04-12T09:46:32.999Z</time></trkpt><trkpt lat="46.421409902194746" lon="12.776224637009314"><ele>901.0</ele><time>2026-04-12T09:46:33.999Z</time></trkpt><trkpt lat="46.421475344093956" lon="12.776179875517023"><ele>901.5999999999999</ele><time>2026-04-12T09:46:34.999Z</time></trkpt><trkpt lat="46.42154914171249" lon="12.776103250783699"><ele>902.1999999999999</ele><time>2026-04-12T09:46:35.999Z</time></trkpt><trkpt lat="46.421636860030326" lon="12.77602343566788"><ele>902.8000000000001</ele><time>2026-04-12T09:46:36.999Z</time></trkpt><trkpt lat="46.421718739570885" lon="12.775950761310542"><ele>903.4000000000001</ele><time>2026-04-12T09:46:37.999Z</time></trkpt><trkpt lat="46.42180263871812" lon="12.775894595143951"><ele>904.0</ele><time>2026-04-12T09:46:38.999Z</time></trkpt><trkpt lat="46.42188960931129" lon="12.775876399562021"><ele>908.6</ele><time>2026-04-12T09:46:39.999Z</time></trkpt><trkpt lat="46.42198611661388" lon="12.775898159478151"><ele>913.2</ele><time>2026-04-12T09:46:40.999Z</time></trkpt><trkpt lat="46.4220832174608" lon="12.77594745073345"><ele>917.8000000000001</ele><time>2026-04-12T09:46:41.999Z</time></trkpt><trkpt lat="46.42217623991687" lon="12.776028353484737"><ele>922.4000000000001</ele><time>2026-04-12T09:46:42.999Z</time></trkpt><trkpt lat="46.42227508041549" lon="12.776123625380063"><ele>927.0</ele><time>2026-04-12T09:46:43.999Z</time></trkpt><trkpt lat="46.42238408544674" lon="12.776228677119866"><ele>927.0</ele><time>2026-04-12T09:46:44.999Z</time></trkpt><trkpt lat="46.42250344001422" lon="12.776340258448444"><ele>927.0</ele><time>2026-04-12T09:46:45.999Z</time></trkpt><trkpt lat="46.422623979510846" lon="12.776449800614639"><ele>927.0</ele><time>2026-04-12T09:46:46.999Z</time></trkpt><trkpt lat="46.42274708072697" lon="12.776540124193508"><ele>927.0</ele><time>2026-04-12T09:46:47.999Z</time></trkpt><trkpt lat="46.422885542341014" lon="12.7766044595491"><ele>933.25</ele><time>2026-04-12T09:46:48.999Z</time></trkpt><trkpt lat="46.42302045912125" lon="12.776670755432916"><ele>939.5</ele><time>2026-04-12T09:46:49.999Z</time></trkpt><trkpt lat="46.42314525708853" lon="12.77673215448855"><ele>945.75</ele><time>2026-04-12T09:46:50.999Z</time></trkpt><trkpt lat="46.42325036034893" lon="12.776789866853312"><ele>952.0</ele><time>2026-04-12T09:46:51.999Z</time></trkpt><trkpt lat="46.4233327868714" lon="12.776842285522386"><ele>951.9999999999999</ele><time>2026-04-12T09:46:52.999Z</time></trkpt><trkpt lat="46.42339880464762" lon="12.776904129701277"><ele>952.0</ele><time>2026-04-12T09:46:53.999Z</time></trkpt><trkpt lat="46.42345811834749" lon="12.776951146452364"><ele>952.0</ele><time>2026-04-12T09:46:54.999Z</time></trkpt><trkpt lat="46.423545363178086" lon="12.776959437337235"><ele>952.0</ele><time>2026-04-12T09:46:56.999Z</time></trkpt><trkpt lat="46.42357772114997" lon="12.776830592064124"><ele>951.9999999999999</ele><time>2026-04-12T09:46:58.999Z</time></trkpt><trkpt lat="46.42356650317722" lon="12.776740373365811"><ele>952.0</ele><time>2026-04-12T09:46:59.999Z</time></trkpt><trkpt lat="46.42344260416662" lon="12.77671223126237"><ele>952.0</ele><time>2026-04-12T09:47:00.999Z</time></trkpt><trkpt lat="46.42332754955135" lon="12.776623001107104"><ele>952.0</ele><time>2026-04-12T09:47:01.999Z</time></trkpt><trkpt lat="46.42318919536456" lon="12.776503324607205"><ele>952.0</ele><time>2026-04-12T09:47:02.999Z</time></trkpt><trkpt lat="46.423074488192036" lon="12.776412544845451"><ele>952.0</ele><time>2026-04-12T09:47:03.999Z</time></trkpt><trkpt lat="46.42297067123928" lon="12.776340811943255"><ele>953.25</ele><time>2026-04-12T09:47:05Z</time></trkpt><trkpt lat="46.42289093012371" lon="12.776275955165097"><ele>954.5</ele><time>2026-04-12T09:47:06Z</time></trkpt><trkpt lat="46.42279680610959" lon="12.776150041768346"><ele>955.75</ele><time>2026-04-12T09:47:07Z</time></trkpt><trkpt lat="46.42270790247036" lon="12.775980357189898"><ele>957.0</ele><time>2026-04-12T09:47:08Z</time></trkpt><trkpt lat="46.422614640587774" lon="12.775824210269608"><ele>957.0</ele><time>2026-04-12T09:47:09Z</time></trkpt><trkpt lat="46.42252852233342" lon="12.775659962800967"><ele>957.0</ele><time>2026-04-12T09:47:10Z</time></trkpt><trkpt lat="46.422430366588806" lon="12.77550685192266"><ele>957.0</ele><time>2026-04-12T09:47:11Z</time></trkpt><trkpt lat="46.422354664878355" lon="12.775379113128212"><ele>957.0</ele><time>2026-04-12T09:47:12Z</time></trkpt><trkpt lat="46.422275603997605" lon="12.775270645557125"><ele>957.8333333333334</ele><time>2026-04-12T09:47:13Z</time></trkpt><trkpt lat="46.42221648636081" lon="12.775172886986153"><ele>958.6666666666667</ele><time>2026-04-12T09:47:14Z</time></trkpt><trkpt lat="46.42214351841455" lon="12.775122401329755"><ele>959.5</ele><time>2026-04-12T09:47:15Z</time></trkpt><trkpt lat="46.422076041872636" lon="12.775108322025629"><ele>960.3333333333334</ele><time>2026-04-12T09:47:16Z</time></trkpt><trkpt lat="46.421990613782924" lon="12.775103838344076"><ele>961.1666666666667</ele><time>2026-04-12T09:47:17Z</time></trkpt><trkpt lat="46.421872977955154" lon="12.775113051093818"><ele>962.0</ele><time>2026-04-12T09:47:19Z</time></trkpt><trkpt lat="46.42183072091646" lon="12.775038153405042"><ele>962.0</ele><time>2026-04-12T09:47:20Z</time></trkpt><trkpt lat="46.421799575398296" lon="12.774896044156613"><ele>962.0</ele><time>2026-04-12T09:47:21Z</time></trkpt><trkpt lat="46.42178216352237" lon="12.774730864416778"><ele>962.0</ele><time>2026-04-12T09:47:22Z</time></trkpt><trkpt lat="46.421757088478735" lon="12.774570254169308"><ele>962.0</ele><time>2026-04-12T09:47:23Z</time></trkpt><trkpt lat="46.421679229444415" lon="12.774422062535239"><ele>961.75</ele><time>2026-04-12T09:47:24Z</time></trkpt><trkpt lat="46.421588832515894" lon="12.774263770498065"><ele>961.5</ele><time>2026-04-12T09:47:25Z</time></trkpt><trkpt lat="46.42147119962084" lon="12.774159102611234"><ele>961.25</ele><time>2026-04-12T09:47:26Z</time></trkpt><trkpt lat="46.42134345203689" lon="12.774098632271047"><ele>961.0</ele><time>2026-04-12T09:47:27Z</time></trkpt><trkpt lat="46.42123163856539" lon="12.7740105154365"><ele>961.0</ele><time>2026-04-12T09:47:28Z</time></trkpt><trkpt lat="46.42113790259335" lon="12.773896101111031"><ele>961.0</ele><time>2026-04-12T09:47:29Z</time></trkpt><trkpt lat="46.42103814823551" lon="12.77378840184573"><ele>961.0</ele><time>2026-04-12T09:47:30Z</time></trkpt><trkpt lat="46.42095698147503" lon="12.773648375987065"><ele>961.0</ele><time>2026-04-12T09:47:31Z</time></trkpt><trkpt lat="46.42086207642644" lon="12.773521503248572"><ele>968.5999999999999</ele><time>2026-04-12T09:47:32Z</time></trkpt><trkpt lat="46.420766393466984" lon="12.773401365067478"><ele>976.1999999999999</ele><time>2026-04-12T09:47:33Z</time></trkpt><trkpt lat="46.420663835531585" lon="12.773296388069461"><ele>983.8000000000001</ele><time>2026-04-12T09:47:34Z</time></trkpt><trkpt lat="46.42059390527959" lon="12.773189149720306"><ele>991.4000000000001</ele><time>2026-04-12T09:47:35Z</time></trkpt><trkpt lat="46.42054303771675" lon="12.77309987628105"><ele>999.0</ele><time>2026-04-12T09:47:36Z</time></trkpt><trkpt lat="46.42049351365005" lon="12.772955899250418"><ele>999.0</ele><time>2026-04-12T09:47:38Z</time></trkpt><trkpt lat="46.42053105475734" lon="12.77282516362428"><ele>999.0000000000001</ele><time>2026-04-12T09:47:40Z</time></trkpt><trkpt lat="46.42061383928709" lon="12.7729216121103"><ele>999.0000000000001</ele><time>2026-04-12T09:47:42Z</time></trkpt><trkpt lat="46.420657361906954" lon="12.77303099621696"><ele>999.0</ele><time>2026-04-12T09:47:43Z</time></trkpt><trkpt lat="46.420757726585826" lon="12.773154121758152"><ele>999.0</ele><time>2026-04-12T09:47:44Z</time></trkpt><trkpt lat="46.420864141087876" lon="12.773276173899736"><ele>999.0</ele><time>2026-04-12T09:47:45Z</time></trkpt><trkpt lat="46.42099752402438" lon="12.773352941603502"><ele>999.0</ele><time>2026-04-12T09:47:46Z</time></trkpt><trkpt lat="46.421112890859256" lon="12.773436385595973"><ele>999.0</ele><time>2026-04-12T09:47:46.999Z</time></trkpt><trkpt lat="46.421200245009224" lon="12.773514655040957"><ele>999.0</ele><time>2026-04-12T09:47:47.999Z</time></trkpt><trkpt lat="46.42126959419302" lon="12.773592132921804"><ele>998.0</ele><time>2026-04-12T09:47:48.999Z</time></trkpt><trkpt lat="46.42134687644783" lon="12.773669249070196"><ele>997.0000000000001</ele><time>2026-04-12T09:47:49.999Z</time></trkpt><trkpt lat="46.42143753565685" lon="12.77368142708993"><ele>996.0000000000001</ele><time>2026-04-12T09:47:50.999Z</time></trkpt><trkpt lat="46.42153281039137" lon="12.773649333368484"><ele>995.0</ele><time>2026-04-12T09:47:51.999Z</time></trkpt><trkpt lat="46.42163923779733" lon="12.773653950035921"><ele>994.0</ele><time>2026-04-12T09:47:52.999Z</time></trkpt><trkpt lat="46.42175395732639" lon="12.773649876880954"><ele>994.0</ele><time>2026-04-12T09:47:53.999Z</time></trkpt><trkpt lat="46.42187227364192" lon="12.773750295615592"><ele>994.0</ele><time>2026-04-12T09:47:54.999Z</time></trkpt><trkpt lat="46.42199432428802" lon="12.773872578444198"><ele>994.0</ele><time>2026-04-12T09:47:55.999Z</time></trkpt><trkpt lat="46.422131551369624" lon="12.773999483069955"><ele>994.0</ele><time>2026-04-12T09:47:56.999Z</time></trkpt><trkpt lat="46.422236313045346" lon="12.774078115966987"><ele>1000.6</ele><time>2026-04-12T09:47:57.999Z</time></trkpt><trkpt lat="46.4223235053859" lon="12.774168073658734"><ele>1007.2</ele><time>2026-04-12T09:47:58.999Z</time></trkpt><trkpt lat="46.42237493136606" lon="12.77426107564561"><ele>1013.8000000000001</ele><time>2026-04-12T09:47:59.999Z</time></trkpt><trkpt lat="46.42243950483372" lon="12.774335241750608"><ele>1020.4000000000001</ele><time>2026-04-12T09:48:01.999Z</time></trkpt><trkpt lat="46.42253467216235" lon="12.774295868410231"><ele>1027.0</ele><time>2026-04-12T09:48:02.999Z</time></trkpt><trkpt lat="46.4226580295504" lon="12.774269867985074"><ele>1027.0</ele><time>2026-04-12T09:48:03.999Z</time></trkpt><trkpt lat="46.42281613944131" lon="12.774282987347847"><ele>1027.0</ele><time>2026-04-12T09:48:04.999Z</time></trkpt><trkpt lat="46.42294614968855" lon="12.774367631700141"><ele>1027.0</ele><time>2026-04-12T09:48:05.999Z</time></trkpt><trkpt lat="46.423052511409125" lon="12.774440835756659"><ele>1027.0</ele><time>2026-04-12T09:48:06.999Z</time></trkpt><trkpt lat="46.42315133014934" lon="12.774505831257793"><ele>1025.2</ele><time>2026-04-12T09:48:07.999Z</time></trkpt><trkpt lat="46.42326763842186" lon="12.774536406338088"><ele>1023.4000000000001</ele><time>2026-04-12T09:48:08.999Z</time></trkpt><trkpt lat="46.42337403489992" lon="12.774528823069602"><ele>1021.5999999999999</ele><time>2026-04-12T09:48:09.999Z</time></trkpt><trkpt lat="46.423477394496985" lon="12.774575358788011"><ele>1019.8</ele><time>2026-04-12T09:48:10.999Z</time></trkpt><trkpt lat="46.423572096861214" lon="12.774593689589066"><ele>1018.0</ele><time>2026-04-12T09:48:11.999Z</time></trkpt><trkpt lat="46.42366341764716" lon="12.774582960715298"><ele>1018.0</ele><time>2026-04-12T09:48:13.999Z</time></trkpt><trkpt lat="46.42370547254774" lon="12.774480152797503"><ele>1018.0</ele><time>2026-04-12T09:48:15.999Z</time></trkpt><trkpt lat="46.42360025069648" lon="12.774329989381231"><ele>1018.0</ele><time>2026-04-12T09:48:17.999Z</time></trkpt><trkpt lat="46.423484473218046" lon="12.774314511863778"><ele>1018.0</ele><time>2026-04-12T09:48:18.999Z</time></trkpt><trkpt lat="46.42335716287304" lon="12.774306882522438"><ele>1020.25</ele><time>2026-04-12T09:48:19.999Z</time></trkpt><trkpt lat="46.42323479662995" lon="12.774273777411102"><ele>1022.5</ele><time>2026-04-12T09:48:20.999Z</time></trkpt><trkpt lat="46.42312028757718" lon="12.774185477963542"><ele>1024.75</ele><time>2026-04-12T09:48:21.999Z</time></trkpt><trkpt lat="46.4230056886104" lon="12.77407468309097"><ele>1027.0</ele><time>2026-04-12T09:48:22.999Z</time></trkpt><trkpt lat="46.422882254898724" lon="12.773976009062963"><ele>1027.0</ele><time>2026-04-12T09:48:23.999Z</time></trkpt><trkpt lat="46.42274881861943" lon="12.77389658898752"><ele>1027.0</ele><time>2026-04-12T09:48:24.999Z</time></trkpt><trkpt lat="46.42262816497752" lon="12.773820721841842"><ele>1027.0</ele><time>2026-04-12T09:48:25.999Z</time></trkpt><trkpt lat="46.422531854902765" lon="12.773718448651838"><ele>1027.0</ele><time>2026-04-12T09:48:26.999Z</time></trkpt><trkpt lat="46.42241659547538" lon="12.773614637218943"><ele>1028.25</ele><time>2026-04-12T09:48:27.999Z</time></trkpt><trkpt lat="46.422322605862746" lon="12.773512709232074"><ele>1029.5</ele><time>2026-04-12T09:48:28.999Z</time></trkpt><trkpt lat="46.42224397111166" lon="12.773406061635583"><ele>1030.75</ele><time>2026-04-12T09:48:29.999Z</time></trkpt><trkpt lat="46.42218004460884" lon="12.77326408449654"><ele>1032.0</ele><time>2026-04-12T09:48:30.999Z</time></trkpt><trkpt lat="46.42211669144823" lon="12.773089051043163"><ele>1032.0</ele><time>2026-04-12T09:48:31.999Z</time></trkpt><trkpt lat="46.422037420341425" lon="12.772923948054228"><ele>1032.0</ele><time>2026-04-12T09:48:32.999Z</time></trkpt><trkpt lat="46.42194834058817" lon="12.772785491914284"><ele>1032.0</ele><time>2026-04-12T09:48:33.999Z</time></trkpt><trkpt lat="46.42186009611696" lon="12.77267974596602"><ele>1032.0</ele><time>2026-04-12T09:48:34.999Z</time></trkpt><trkpt lat="46.421766436244354" lon="12.772609863154255"><ele>1037.1666666666667</ele><time>2026-04-12T09:48:35.999Z</time></trkpt><trkpt lat="46.42166940020964" lon="12.772552357647102"><ele>1042.3333333333333</ele><time>2026-04-12T09:48:36.999Z</time></trkpt><trkpt lat="46.42159071573186" lon="12.772521863573777"><ele>1047.5</ele><time>2026-04-12T09:48:37.999Z</time></trkpt><trkpt lat="46.42150285484417" lon="12.77247639963934"><ele>1052.6666666666665</ele><time>2026-04-12T09:48:39.999Z</time></trkpt><trkpt lat="46.42150191060088" lon="12.772374860289698"><ele>1057.8333333333333</ele><time>2026-04-12T09:48:40.999Z</time></trkpt><trkpt lat="46.42154988873176" lon="12.772281270576912"><ele>1063.0</ele><time>2026-04-12T09:48:41.999Z</time></trkpt><trkpt lat="46.42163041218232" lon="12.772225105187"><ele>1063.0</ele><time>2026-04-12T09:48:42.999Z</time></trkpt><trkpt lat="46.42173346643527" lon="12.772196895229733"><ele>1063.0</ele><time>2026-04-12T09:48:43.999Z</time></trkpt><trkpt lat="46.421828765885664" lon="12.7722249684298"><ele>1063.0</ele><time>2026-04-12T09:48:44.999Z</time></trkpt><trkpt lat="46.42190195037752" lon="12.77232842687473"><ele>1063.0</ele><time>2026-04-12T09:48:45.999Z</time></trkpt><trkpt lat="46.42198403022189" lon="12.772448239539688"><ele>1063.0</ele><time>2026-04-12T09:48:46.999Z</time></trkpt><trkpt lat="46.42207365962478" lon="12.772616153691573"><ele>1063.75</ele><time>2026-04-12T09:48:47.999Z</time></trkpt><trkpt lat="46.42218691723951" lon="12.772784806513496"><ele>1064.5</ele><time>2026-04-12T09:48:48.999Z</time></trkpt><trkpt lat="46.422270287756064" lon="12.772937026899678"><ele>1065.25</ele><time>2026-04-12T09:48:49.999Z</time></trkpt><trkpt lat="46.42234793272701" lon="12.773023121397088"><ele>1066.0</ele><time>2026-04-12T09:48:50.999Z</time></trkpt><trkpt lat="46.422433358573855" lon="12.773098084745516"><ele>1066.0</ele><time>2026-04-12T09:48:51.999Z</time></trkpt><trkpt lat="46.42254574786032" lon="12.773142723238392"><ele>1066.0</ele><time>2026-04-12T09:48:52.999Z</time></trkpt><trkpt lat="46.422668838469974" lon="12.773178641492427"><ele>1066.0</ele><time>2026-04-12T09:48:53.999Z</time></trkpt><trkpt lat="46.42280295287191" lon="12.77326239165635"><ele>1066.0</ele><time>2026-04-12T09:48:54.999Z</time></trkpt><trkpt lat="46.42295208696366" lon="12.773334579148457"><ele>1075.3333333333333</ele><time>2026-04-12T09:48:55.999Z</time></trkpt><trkpt lat="46.42310985206358" lon="12.773374288650222"><ele>1084.6666666666667</ele><time>2026-04-12T09:48:56.999Z</time></trkpt><trkpt lat="46.42325809592917" lon="12.773391936031945"><ele>1094.0</ele><time>2026-04-12T09:48:57.999Z</time></trkpt><trkpt lat="46.42340648027436" lon="12.773401173659389"><ele>1094.0</ele><time>2026-04-12T09:48:58.999Z</time></trkpt><trkpt lat="46.4235604776787" lon="12.773416587401634"><ele>1094.0</ele><time>2026-04-12T09:48:59.999Z</time></trkpt><trkpt lat="46.42371510714495" lon="12.773429367673764"><ele>1094.0</ele><time>2026-04-12T09:49:00.999Z</time></trkpt><trkpt lat="46.42386655024935" lon="12.773429641595275"><ele>1097.25</ele><time>2026-04-12T09:49:01.999Z</time></trkpt><trkpt lat="46.424007725744005" lon="12.773416042550735"><ele>1100.5</ele><time>2026-04-12T09:49:02.999Z</time></trkpt><trkpt lat="46.424134872643286" lon="12.773417648121928"><ele>1103.75</ele><time>2026-04-12T09:49:03.999Z</time></trkpt><trkpt lat="46.42426460208148" lon="12.773430928965482"><ele>1107.0</ele><time>2026-04-12T09:49:04.999Z</time></trkpt><trkpt lat="46.42438699279462" lon="12.773514315602583"><ele>1100.0</ele><time>2026-04-12T09:49:05.999Z</time></trkpt><trkpt lat="46.42451739107921" lon="12.773534818139893"><ele>1093.0</ele><time>2026-04-12T09:49:06.999Z</time></trkpt><trkpt lat="46.42465022042178" lon="12.773544805504198"><ele>1086.0</ele><time>2026-04-12T09:49:07.999Z</time></trkpt><trkpt lat="46.424750607658915" lon="12.773543072329128"><ele>1079.0</ele><time>2026-04-12T09:49:08.999Z</time></trkpt><trkpt lat="46.4248402684116" lon="12.773559434445442"><ele>1079.0</ele><time>2026-04-12T09:49:10Z</time></trkpt><trkpt lat="46.42493452533654" lon="12.773626536104546"><ele>1079.0</ele><time>2026-04-12T09:49:11Z</time></trkpt><trkpt lat="46.42501825346892" lon="12.77374383814058"><ele>1079.0</ele><time>2026-04-12T09:49:12Z</time></trkpt><trkpt lat="46.42509009595212" lon="12.773830213228777"><ele>1079.0</ele><time>2026-04-12T09:49:13Z</time></trkpt><trkpt lat="46.42517574777174" lon="12.773874898250664"><ele>1079.0</ele><time>2026-04-12T09:49:14Z</time></trkpt><trkpt lat="46.425278109563024" lon="12.773887574609772"><ele>1079.0</ele><time>2026-04-12T09:49:15Z</time></trkpt><trkpt lat="46.425380085909204" lon="12.773881711257658"><ele>1079.0</ele><time>2026-04-12T09:49:16Z</time></trkpt><trkpt lat="46.42546812958858" lon="12.773858505936602"><ele>1079.0</ele><time>2026-04-12T09:49:17Z</time></trkpt><trkpt lat="46.42555888653678" lon="12.773773028847417"><ele>1079.0</ele><time>2026-04-12T09:49:18Z</time></trkpt><trkpt lat="46.425639278877604" lon="12.773705006664823"><ele>1079.0</ele><time>2026-04-12T09:49:19Z</time></trkpt><trkpt lat="46.42573683932989" lon="12.773674854513805"><ele>1085.25</ele><time>2026-04-12T09:49:20Z</time></trkpt><trkpt lat="46.42585413234876" lon="12.77369319968952"><ele>1091.5</ele><time>2026-04-12T09:49:21Z</time></trkpt><trkpt lat="46.42598307525921" lon="12.773746429389604"><ele>1097.75</ele><time>2026-04-12T09:49:22Z</time></trkpt><trkpt lat="46.42611349263656" lon="12.77383480104261"><ele>1104.0</ele><time>2026-04-12T09:49:23Z</time></trkpt><trkpt lat="46.42623128189011" lon="12.773956154351122"><ele>1103.8</ele><time>2026-04-12T09:49:24Z</time></trkpt><trkpt lat="46.42631720786538" lon="12.774065002351215"><ele>1103.6000000000001</ele><time>2026-04-12T09:49:25Z</time></trkpt><trkpt lat="46.426385272376955" lon="12.774186396850277"><ele>1103.4</ele><time>2026-04-12T09:49:26Z</time></trkpt><trkpt lat="46.426449217182984" lon="12.77431962573727"><ele>1103.2</ele><time>2026-04-12T09:49:27Z</time></trkpt><trkpt lat="46.4264934064845" lon="12.774453678786923"><ele>1103.0</ele><time>2026-04-12T09:49:28Z</time></trkpt><trkpt lat="46.4265227725311" lon="12.774554708736153"><ele>1103.0</ele><time>2026-04-12T09:49:29Z</time></trkpt><trkpt lat="46.42663845975973" lon="12.774639958873808"><ele>1103.0</ele><time>2026-04-12T09:49:31Z</time></trkpt><trkpt lat="46.42670671962919" lon="12.774612223246043"><ele>1103.0</ele><time>2026-04-12T09:49:32Z</time></trkpt><trkpt lat="46.42675415404172" lon="12.774528881260135"><ele>1103.0</ele><time>2026-04-12T09:49:33Z</time></trkpt><trkpt lat="46.426763564872395" lon="12.774426814812822"><ele>1103.0</ele><time>2026-04-12T09:49:34Z</time></trkpt><trkpt lat="46.42673195926005" lon="12.774324933276791"><ele>1103.0</ele><time>2026-04-12T09:49:35Z</time></trkpt><trkpt lat="46.42667152355723" lon="12.77422219076625"><ele>1109.5</ele><time>2026-04-12T09:49:36Z</time></trkpt><trkpt lat="46.42661368562421" lon="12.774076587796108"><ele>1116.0</ele><time>2026-04-12T09:49:37Z</time></trkpt><trkpt lat="46.42652391376166" lon="12.773913673425305"><ele>1122.5</ele><time>2026-04-12T09:49:38Z</time></trkpt><trkpt lat="46.426454142536834" lon="12.773731610432492"><ele>1129.0</ele><time>2026-04-12T09:49:39Z</time></trkpt><trkpt lat="46.426375829908785" lon="12.773566148340732"><ele>1131.6000000000001</ele><time>2026-04-12T09:49:40Z</time></trkpt><trkpt lat="46.4263070968223" lon="12.773437254139797"><ele>1134.2</ele><time>2026-04-12T09:49:41Z</time></trkpt><trkpt lat="46.42625661854413" lon="12.77332997682545"><ele>1136.8000000000002</ele><time>2026-04-12T09:49:42Z</time></trkpt><trkpt lat="46.42620685501463" lon="12.773250575115709"><ele>1139.4</ele><time>2026-04-12T09:49:43Z</time></trkpt><trkpt lat="46.426160260571734" lon="12.773154599807967"><ele>1142.0</ele><time>2026-04-12T09:49:44Z</time></trkpt><trkpt lat="46.426069361609066" lon="12.77309751245548"><ele>1142.0</ele><time>2026-04-12T09:49:45Z</time></trkpt><trkpt lat="46.42594255941695" lon="12.773106659486539"><ele>1142.0</ele><time>2026-04-12T09:49:46Z</time></trkpt><trkpt lat="46.42582523254723" lon="12.773096015911126"><ele>1142.0</ele><time>2026-04-12T09:49:47Z</time></trkpt><trkpt lat="46.42573608693094" lon="12.773076990541236"><ele>1142.0</ele><time>2026-04-12T09:49:48Z</time></trkpt><trkpt lat="46.42565004933506" lon="12.773032803219454"><ele>1142.0</ele><time>2026-04-12T09:49:49Z</time></trkpt><trkpt lat="46.42555040932169" lon="12.77295255826064"><ele>1139.2</ele><time>2026-04-12T09:49:50Z</time></trkpt><trkpt lat="46.425455438805635" lon="12.772905368057954"><ele>1136.4</ele><time>2026-04-12T09:49:51Z</time></trkpt><trkpt lat="46.4253674650414" lon="12.772876108798664"><ele>1133.6</ele><time>2026-04-12T09:49:52Z</time></trkpt><trkpt lat="46.425268674734" lon="12.772828893415939"><ele>1130.8</ele><time>2026-04-12T09:49:52.999Z</time></trkpt><trkpt lat="46.425154343645524" lon="12.772752627991663"><ele>1128.0</ele><time>2026-04-12T09:49:53.999Z</time></trkpt><trkpt lat="46.42503743537466" lon="12.772661999987879"><ele>1131.4</ele><time>2026-04-12T09:49:54.999Z</time></trkpt><trkpt lat="46.42493623468106" lon="12.772573710869125"><ele>1134.8</ele><time>2026-04-12T09:49:55.999Z</time></trkpt><trkpt lat="46.42484311793911" lon="12.772498780946364"><ele>1138.2</ele><time>2026-04-12T09:49:56.999Z</time></trkpt><trkpt lat="46.42475740472658" lon="12.772431437372514"><ele>1141.6</ele><time>2026-04-12T09:49:57.999Z</time></trkpt><trkpt lat="46.42468258180711" lon="12.772347345357359"><ele>1145.0</ele><time>2026-04-12T09:49:58.999Z</time></trkpt><trkpt lat="46.42460800876134" lon="12.772226104716571"><ele>1145.0</ele><time>2026-04-12T09:49:59.999Z</time></trkpt><trkpt lat="46.424531427893605" lon="12.772057396959983"><ele>1145.0</ele><time>2026-04-12T09:50:00.999Z</time></trkpt><trkpt lat="46.42444167483781" lon="12.77188497067646"><ele>1145.0</ele><time>2026-04-12T09:50:01.999Z</time></trkpt><trkpt lat="46.424314378499716" lon="12.771739647501288"><ele>1151.75</ele><time>2026-04-12T09:50:02.999Z</time></trkpt><trkpt lat="46.424161783845264" lon="12.771639752847875"><ele>1158.5</ele><time>2026-04-12T09:50:03.999Z</time></trkpt><trkpt lat="46.424035480884086" lon="12.77153372268729"><ele>1165.25</ele><time>2026-04-12T09:50:04.999Z</time></trkpt><trkpt lat="46.42392961920873" lon="12.771411851846086"><ele>1172.0</ele><time>2026-04-12T09:50:05.999Z</time></trkpt><trkpt lat="46.423819925396664" lon="12.771271994207273"><ele>1173.0</ele><time>2026-04-12T09:50:06.999Z</time></trkpt><trkpt lat="46.42370992786321" lon="12.771129612865302"><ele>1174.0</ele><time>2026-04-12T09:50:07.999Z</time></trkpt><trkpt lat="46.423611881908705" lon="12.77097293067283"><ele>1175.0</ele><time>2026-04-12T09:50:08.999Z</time></trkpt><trkpt lat="46.4235133244056" lon="12.770829273083029"><ele>1176.0</ele><time>2026-04-12T09:50:09.999Z</time></trkpt><trkpt lat="46.42343808443093" lon="12.770691514023003"><ele>1176.0</ele><time>2026-04-12T09:50:10.999Z</time></trkpt><trkpt lat="46.42337678339658" lon="12.770553854062099"><ele>1176.0</ele><time>2026-04-12T09:50:11.999Z</time></trkpt><trkpt lat="46.42329371060442" lon="12.770437523151811"><ele>1176.0</ele><time>2026-04-12T09:50:12.999Z</time></trkpt><trkpt lat="46.42317112441219" lon="12.77035230189226"><ele>1176.0</ele><time>2026-04-12T09:50:13.999Z</time></trkpt><trkpt lat="46.4230505422534" lon="12.7702935320736"><ele>1179.0</ele><time>2026-04-12T09:50:14.999Z</time></trkpt><trkpt lat="46.422963738211614" lon="12.770207832844875"><ele>1182.0</ele><time>2026-04-12T09:50:15.999Z</time></trkpt><trkpt lat="46.42286531487648" lon="12.770108953090167"><ele>1185.0</ele><time>2026-04-12T09:50:16.999Z</time></trkpt><trkpt lat="46.42273111651564" lon="12.770068466238403"><ele>1188.0</ele><time>2026-04-12T09:50:17.999Z</time></trkpt><trkpt lat="46.422626198398476" lon="12.770037659664592"><ele>1188.0</ele><time>2026-04-12T09:50:18.999Z</time></trkpt><trkpt lat="46.42255485680601" lon="12.769990660372441"><ele>1188.0</ele><time>2026-04-12T09:50:19.999Z</time></trkpt><trkpt lat="46.422493282347986" lon="12.769921157157036"><ele>1188.0</ele><time>2026-04-12T09:50:20.999Z</time></trkpt><trkpt lat="46.42241388697202" lon="12.769845125902059"><ele>1188.0</ele><time>2026-04-12T09:50:21.999Z</time></trkpt><trkpt lat="46.422314260764686" lon="12.76979322979127"><ele>1188.0</ele><time>2026-04-12T09:50:22.999Z</time></trkpt><trkpt lat="46.42221979693279" lon="12.769724596364192"><ele>1185.6</ele><time>2026-04-12T09:50:23.999Z</time></trkpt><trkpt lat="46.42213863638904" lon="12.769644075503267"><ele>1183.1999999999998</ele><time>2026-04-12T09:50:24.999Z</time></trkpt><trkpt lat="46.42205693770055" lon="12.769547492796253"><ele>1180.8</ele><time>2026-04-12T09:50:25.999Z</time></trkpt><trkpt lat="46.42199317609541" lon="12.769425421395097"><ele>1178.3999999999999</ele><time>2026-04-12T09:50:26.999Z</time></trkpt><trkpt lat="46.421946255685874" lon="12.769297316616658"><ele>1176.0</ele><time>2026-04-12T09:50:27.999Z</time></trkpt><trkpt lat="46.42186640326193" lon="12.769197617967269"><ele>1185.75</ele><time>2026-04-12T09:50:28.999Z</time></trkpt><trkpt lat="46.42176672853723" lon="12.769123746196495"><ele>1195.5</ele><time>2026-04-12T09:50:29.999Z</time></trkpt><trkpt lat="46.421659420197855" lon="12.769058965291832"><ele>1205.25</ele><time>2026-04-12T09:50:30.999Z</time></trkpt><trkpt lat="46.421544742600005" lon="12.769005406627592"><ele>1215.0</ele><time>2026-04-12T09:50:31.999Z</time></trkpt><trkpt lat="46.421433453198915" lon="12.768971957946409"><ele>1215.0</ele><time>2026-04-12T09:50:32.999Z</time></trkpt><trkpt lat="46.42133303636303" lon="12.768941877127817"><ele>1215.0</ele><time>2026-04-12T09:50:33.999Z</time></trkpt><trkpt lat="46.42124899344358" lon="12.768897856795137"><ele>1215.0</ele><time>2026-04-12T09:50:34.999Z</time></trkpt><trkpt lat="46.42117271278051" lon="12.768787829514652"><ele>1215.0</ele><time>2026-04-12T09:50:35.999Z</time></trkpt><trkpt lat="46.421091603776745" lon="12.76865817565279"><ele>1215.0</ele><time>2026-04-12T09:50:36.999Z</time></trkpt><trkpt lat="46.42102607151316" lon="12.76849514893235"><ele>1212.5</ele><time>2026-04-12T09:50:37.999Z</time></trkpt><trkpt lat="46.42096465878222" lon="12.768311502042115"><ele>1210.0</ele><time>2026-04-12T09:50:38.999Z</time></trkpt><trkpt lat="46.42089981501676" lon="12.76812568152512"><ele>1207.5</ele><time>2026-04-12T09:50:39.999Z</time></trkpt><trkpt lat="46.420834831399794" lon="12.76795911925708"><ele>1205.0</ele><time>2026-04-12T09:50:40.999Z</time></trkpt><trkpt lat="46.42076860122893" lon="12.767810649283927"><ele>1211.25</ele><time>2026-04-12T09:50:41.999Z</time></trkpt><trkpt lat="46.42072789714065" lon="12.76766152219205"><ele>1217.5</ele><time>2026-04-12T09:50:42.999Z</time></trkpt><trkpt lat="46.42070507499739" lon="12.767491283403912"><ele>1223.75</ele><time>2026-04-12T09:50:43.999Z</time></trkpt><trkpt lat="46.42070737006391" lon="12.767301921066958"><ele>1230.0</ele><time>2026-04-12T09:50:44.999Z</time></trkpt><trkpt lat="46.42072348362188" lon="12.76709194234126"><ele>1230.0</ele><time>2026-04-12T09:50:45.999Z</time></trkpt><trkpt lat="46.42073458986819" lon="12.7668824000678"><ele>1230.0</ele><time>2026-04-12T09:50:46.999Z</time></trkpt><trkpt lat="46.42074284460291" lon="12.766689878260854"><ele>1230.0</ele><time>2026-04-12T09:50:47.999Z</time></trkpt><trkpt lat="46.42074619392893" lon="12.766504118495968"><ele>1230.0</ele><time>2026-04-12T09:50:48.999Z</time></trkpt><trkpt lat="46.42075145320479" lon="12.766328052546887"><ele>1231.5</ele><time>2026-04-12T09:50:49.999Z</time></trkpt><trkpt lat="46.42076092444768" lon="12.766156882595897"><ele>1233.0</ele><time>2026-04-12T09:50:50.999Z</time></trkpt><trkpt lat="46.420765266763" lon="12.765986300172997"><ele>1234.5</ele><time>2026-04-12T09:50:51.999Z</time></trkpt><trkpt lat="46.42076806935427" lon="12.765813794567753"><ele>1236.0</ele><time>2026-04-12T09:50:52.999Z</time></trkpt><trkpt lat="46.420772907624496" lon="12.765633561246947"><ele>1236.0</ele><time>2026-04-12T09:50:53.999Z</time></trkpt><trkpt lat="46.42079691073743" lon="12.765444764325114"><ele>1236.0</ele><time>2026-04-12T09:50:54.999Z</time></trkpt><trkpt lat="46.420823816625564" lon="12.76525178896101"><ele>1236.0</ele><time>2026-04-12T09:50:55.999Z</time></trkpt><trkpt lat="46.420862311179576" lon="12.765058121963204"><ele>1236.0</ele><time>2026-04-12T09:50:56.999Z</time></trkpt><trkpt lat="46.420914336959534" lon="12.764869620306877"><ele>1234.75</ele><time>2026-04-12T09:50:57.999Z</time></trkpt><trkpt lat="46.420966819817565" lon="12.764692131901741"><ele>1233.5</ele><time>2026-04-12T09:50:58.999Z</time></trkpt><trkpt lat="46.421030426984444" lon="12.764520023442532"><ele>1232.25</ele><time>2026-04-12T09:50:59.999Z</time></trkpt><trkpt lat="46.42110561580617" lon="12.76434734819403"><ele>1231.0</ele><time>2026-04-12T09:51:00.999Z</time></trkpt><trkpt lat="46.42118925143147" lon="12.76417295240675"><ele>1227.3333333333333</ele><time>2026-04-12T09:51:01.999Z</time></trkpt><trkpt lat="46.42127597808122" lon="12.763991100109244"><ele>1223.6666666666667</ele><time>2026-04-12T09:51:02.999Z</time></trkpt><trkpt lat="46.421365816530255" lon="12.763797579021325"><ele>1220.0</ele><time>2026-04-12T09:51:03.999Z</time></trkpt><trkpt lat="46.421466355573386" lon="12.763594472829281"><ele>1230.0</ele><time>2026-04-12T09:51:04.999Z</time></trkpt><trkpt lat="46.421568907802296" lon="12.763401369172268"><ele>1240.0</ele><time>2026-04-12T09:51:05.999Z</time></trkpt><trkpt lat="46.42166460881366" lon="12.7632249403802"><ele>1250.0</ele><time>2026-04-12T09:51:06.999Z</time></trkpt><trkpt lat="46.42175222840751" lon="12.76307311049812"><ele>1250.0</ele><time>2026-04-12T09:51:07.999Z</time></trkpt><trkpt lat="46.421844907494744" lon="12.762937636558602"><ele>1250.0</ele><time>2026-04-12T09:51:08.999Z</time></trkpt><trkpt lat="46.421950753031325" lon="12.762804990716798"><ele>1250.0</ele><time>2026-04-12T09:51:09.999Z</time></trkpt><trkpt lat="46.42206868104264" lon="12.762678368455566"><ele>1250.0</ele><time>2026-04-12T09:51:10.999Z</time></trkpt><trkpt lat="46.42219572082715" lon="12.762526073343215"><ele>1256.25</ele><time>2026-04-12T09:51:11.999Z</time></trkpt><trkpt lat="46.42229999217245" lon="12.762378925229036"><ele>1262.5</ele><time>2026-04-12T09:51:12.999Z</time></trkpt><trkpt lat="46.42238937085654" lon="12.762251809525788"><ele>1268.75</ele><time>2026-04-12T09:51:13.999Z</time></trkpt><trkpt lat="46.42246365823404" lon="12.7621262184972"><ele>1275.0</ele><time>2026-04-12T09:51:14.999Z</time></trkpt><trkpt lat="46.422520858103674" lon="12.762006543926155"><ele>1275.0</ele><time>2026-04-12T09:51:16Z</time></trkpt><trkpt lat="46.4225659951557" lon="12.761874295773454"><ele>1275.0</ele><time>2026-04-12T09:51:17Z</time></trkpt><trkpt lat="46.422591163275335" lon="12.761734569437163"><ele>1275.0</ele><time>2026-04-12T09:51:18Z</time></trkpt><trkpt lat="46.422601230043135" lon="12.76157040188192"><ele>1275.0</ele><time>2026-04-12T09:51:19Z</time></trkpt><trkpt lat="46.42255582749683" lon="12.761400513049095"><ele>1275.0</ele><time>2026-04-12T09:51:20Z</time></trkpt><trkpt lat="46.42247980367819" lon="12.761245669543122"><ele>1276.2</ele><time>2026-04-12T09:51:21Z</time></trkpt><trkpt lat="46.42239161530608" lon="12.761112967631957"><ele>1277.4</ele><time>2026-04-12T09:51:22Z</time></trkpt><trkpt lat="46.42230785978974" lon="12.761006183603332"><ele>1278.6</ele><time>2026-04-12T09:51:23Z</time></trkpt><trkpt lat="46.42222190667519" lon="12.760944903263447"><ele>1279.8</ele><time>2026-04-12T09:51:24Z</time></trkpt><trkpt lat="46.42216087416539" lon="12.76085732957342"><ele>1281.0</ele><time>2026-04-12T09:51:25Z</time></trkpt><trkpt lat="46.422129757894616" lon="12.760747077518484"><ele>1281.0</ele><time>2026-04-12T09:51:26Z</time></trkpt><trkpt lat="46.42212392970325" lon="12.760615198876197"><ele>1281.0</ele><time>2026-04-12T09:51:27Z</time></trkpt><trkpt lat="46.422156107355555" lon="12.760471923008007"><ele>1281.0</ele><time>2026-04-12T09:51:28Z</time></trkpt><trkpt lat="46.42220673626438" lon="12.760312655740746"><ele>1281.0</ele><time>2026-04-12T09:51:29Z</time></trkpt><trkpt lat="46.42222832008875" lon="12.760107979850671"><ele>1283.75</ele><time>2026-04-12T09:51:30Z</time></trkpt><trkpt lat="46.42223479537809" lon="12.759893481146152"><ele>1286.5</ele><time>2026-04-12T09:51:31Z</time></trkpt><trkpt lat="46.42225368485508" lon="12.759727596880538"><ele>1289.25</ele><time>2026-04-12T09:51:32Z</time></trkpt><trkpt lat="46.422275194330865" lon="12.75958361156012"><ele>1292.0</ele><time>2026-04-12T09:51:33Z</time></trkpt><trkpt lat="46.42233685408419" lon="12.759430824335782"><ele>1291.0</ele><time>2026-04-12T09:51:34Z</time></trkpt><trkpt lat="46.42241954008392" lon="12.759313554624105"><ele>1290.0</ele><time>2026-04-12T09:51:35Z</time></trkpt><trkpt lat="46.42246040675082" lon="12.759155335125456"><ele>1289.0</ele><time>2026-04-12T09:51:36Z</time></trkpt><trkpt lat="46.42245958820474" lon="12.75896561628169"><ele>1288.0</ele><time>2026-04-12T09:51:37Z</time></trkpt><trkpt lat="46.4224860188669" lon="12.758805226484695"><ele>1288.0</ele><time>2026-04-12T09:51:38Z</time></trkpt><trkpt lat="46.42248716997957" lon="12.758637705982702"><ele>1288.0</ele><time>2026-04-12T09:51:39Z</time></trkpt><trkpt lat="46.42247281741784" lon="12.758456606754825"><ele>1288.0</ele><time>2026-04-12T09:51:40Z</time></trkpt><trkpt lat="46.42241603491308" lon="12.758262708439021"><ele>1288.0</ele><time>2026-04-12T09:51:41Z</time></trkpt><trkpt lat="46.422340999680216" lon="12.758072777077148"><ele>1290.0</ele><time>2026-04-12T09:51:42Z</time></trkpt><trkpt lat="46.422254973357454" lon="12.757916284240423"><ele>1292.0</ele><time>2026-04-12T09:51:43Z</time></trkpt><trkpt lat="46.42223807485523" lon="12.757728530820884"><ele>1294.0</ele><time>2026-04-12T09:51:44Z</time></trkpt><trkpt lat="46.42217950550543" lon="12.757532413539979"><ele>1296.0</ele><time>2026-04-12T09:51:45Z</time></trkpt><trkpt lat="46.422129246160054" lon="12.757359603814885"><ele>1290.2</ele><time>2026-04-12T09:51:46Z</time></trkpt><trkpt lat="46.422097243437214" lon="12.757209695809896"><ele>1284.3999999999999</ele><time>2026-04-12T09:51:47Z</time></trkpt><trkpt lat="46.42206065280219" lon="12.757090354659198"><ele>1278.6</ele><time>2026-04-12T09:51:48Z</time></trkpt><trkpt lat="46.42203942115184" lon="12.756992401459838"><ele>1272.8</ele><time>2026-04-12T09:51:49Z</time></trkpt><trkpt lat="46.42205147977928" lon="12.75688118696519"><ele>1267.0</ele><time>2026-04-12T09:51:50Z</time></trkpt><trkpt lat="46.422099934064235" lon="12.756747695648643"><ele>1267.0</ele><time>2026-04-12T09:51:51Z</time></trkpt><trkpt lat="46.42211924003815" lon="12.756590063115368"><ele>1267.0</ele><time>2026-04-12T09:51:52Z</time></trkpt><trkpt lat="46.42211541446024" lon="12.75641502481798"><ele>1267.0</ele><time>2026-04-12T09:51:53Z</time></trkpt><trkpt lat="46.42210167292859" lon="12.756231345906373"><ele>1267.0</ele><time>2026-04-12T09:51:54Z</time></trkpt><trkpt lat="46.4220688080511" lon="12.756054585017223"><ele>1269.4</ele><time>2026-04-12T09:51:55Z</time></trkpt><trkpt lat="46.422048932077765" lon="12.75591684884159"><ele>1271.8000000000002</ele><time>2026-04-12T09:51:56Z</time></trkpt><trkpt lat="46.42202964764964" lon="12.755782757277263"><ele>1274.2</ele><time>2026-04-12T09:51:56.999Z</time></trkpt><trkpt lat="46.42198686983491" lon="12.75566013866592"><ele>1276.6000000000001</ele><time>2026-04-12T09:51:57.999Z</time></trkpt><trkpt lat="46.42194624843821" lon="12.755547160055402"><ele>1279.0</ele><time>2026-04-12T09:51:58.999Z</time></trkpt><trkpt lat="46.421932443193256" lon="12.755412577452603"><ele>1279.0</ele><time>2026-04-12T09:51:59.999Z</time></trkpt><trkpt lat="46.42195316360444" lon="12.75526292879916"><ele>1279.0</ele><time>2026-04-12T09:52:00.999Z</time></trkpt><trkpt lat="46.42197765491488" lon="12.75510972588776"><ele>1279.0</ele><time>2026-04-12T09:52:01.999Z</time></trkpt><trkpt lat="46.421962163504965" lon="12.754969620647381"><ele>1279.0</ele><time>2026-04-12T09:52:02.999Z</time></trkpt><trkpt lat="46.421923203493236" lon="12.754820396909702"><ele>1279.0</ele><time>2026-04-12T09:52:03.999Z</time></trkpt><trkpt lat="46.421885163658295" lon="12.754680763419756"><ele>1281.0</ele><time>2026-04-12T09:52:04.999Z</time></trkpt><trkpt lat="46.42184627289487" lon="12.754574867655663"><ele>1283.0</ele><time>2026-04-12T09:52:05.999Z</time></trkpt><trkpt lat="46.42181926309748" lon="12.754473641403044"><ele>1285.0</ele><time>2026-04-12T09:52:06.999Z</time></trkpt><trkpt lat="46.42181642573704" lon="12.754360026484726"><ele>1287.0</ele><time>2026-04-12T09:52:07.999Z</time></trkpt><trkpt lat="46.42183459497965" lon="12.754216435267546"><ele>1289.0</ele><time>2026-04-12T09:52:08.999Z</time></trkpt><trkpt lat="46.421857164331485" lon="12.754080770807029"><ele>1291.0</ele><time>2026-04-12T09:52:09.999Z</time></trkpt><trkpt lat="46.42188039213812" lon="12.753949613206084"><ele>1292.1999999999998</ele><time>2026-04-12T09:52:10.999Z</time></trkpt><trkpt lat="46.42190151378023" lon="12.753811911280257"><ele>1293.3999999999999</ele><time>2026-04-12T09:52:11.999Z</time></trkpt><trkpt lat="46.421920631909266" lon="12.753668654735272"><ele>1294.6</ele><time>2026-04-12T09:52:12.999Z</time></trkpt><trkpt lat="46.42194172012068" lon="12.753515713144493"><ele>1295.8</ele><time>2026-04-12T09:52:13.999Z</time></trkpt><trkpt lat="46.421967796742784" lon="12.753348877353599"><ele>1297.0</ele><time>2026-04-12T09:52:14.999Z</time></trkpt><trkpt lat="46.422007100879334" lon="12.753181177770259"><ele>1297.0</ele><time>2026-04-12T09:52:15.999Z</time></trkpt><trkpt lat="46.42204889066682" lon="12.753006919830076"><ele>1297.0</ele><time>2026-04-12T09:52:16.999Z</time></trkpt><trkpt lat="46.42209209325895" lon="12.752828001825073"><ele>1297.0</ele><time>2026-04-12T09:52:17.999Z</time></trkpt><trkpt lat="46.42212465077258" lon="12.752648730354538"><ele>1297.0</ele><time>2026-04-12T09:52:18.999Z</time></trkpt><trkpt lat="46.422138905114934" lon="12.752458327682104"><ele>1296.75</ele><time>2026-04-12T09:52:19.999Z</time></trkpt><trkpt lat="46.42213354828648" lon="12.752253208287948"><ele>1296.5</ele><time>2026-04-12T09:52:20.999Z</time></trkpt><trkpt lat="46.4221063583378" lon="12.752047966388995"><ele>1296.25</ele><time>2026-04-12T09:52:21.999Z</time></trkpt><trkpt lat="46.42205651934586" lon="12.751839110697485"><ele>1296.0</ele><time>2026-04-12T09:52:22.999Z</time></trkpt><trkpt lat="46.42197987946735" lon="12.7516514210969"><ele>1310.0</ele><time>2026-04-12T09:52:23.999Z</time></trkpt><trkpt lat="46.42192972239595" lon="12.751460492194303"><ele>1310.0</ele><time>2026-04-12T09:52:24.999Z</time></trkpt></trkseg><trkseg><trkpt lat="46.425237812310414" lon="12.742537640126953"><ele>1425.0</ele><time>2026-04-12T12:11:07Z</time></trkpt><trkpt lat="46.425253313849765" lon="12.742411665445893"><ele>1425.0</ele><time>2026-04-12T12:12:29.999Z</time></trkpt><trkpt lat="46.42529871861837" lon="12.742320383574754"><ele>1425.0</ele><time>2026-04-12T12:12:31.999Z</time></trkpt><trkpt lat="46.42534373904331" lon="12.74223713554325"><ele>1425.0</ele><time>2026-04-12T12:12:33.999Z</time></trkpt><trkpt lat="46.425372331434346" lon="12.74214310462881"><ele>1425.0</ele><time>2026-04-12T12:12:36.999Z</time></trkpt><trkpt lat="46.42538712293813" lon="12.742041738904346"><ele>1425.0</ele><time>2026-04-12T12:12:39.999Z</time></trkpt><trkpt lat="46.425417691762746" lon="12.741929997137524"><ele>1424.1666666666667</ele><time>2026-04-12T12:12:41.999Z</time></trkpt><trkpt lat="46.4254604187602" lon="12.741830328263243"><ele>1423.3333333333333</ele><time>2026-04-12T12:12:43.999Z</time></trkpt><trkpt lat="46.425519271019404" lon="12.741726072461143"><ele>1422.5</ele><time>2026-04-12T12:12:45.999Z</time></trkpt><trkpt lat="46.42559450484661" lon="12.74160701963721"><ele>1421.6666666666665</ele><time>2026-04-12T12:12:47.999Z</time></trkpt><trkpt lat="46.425641506616884" lon="12.741524270748377"><ele>1420.8333333333333</ele><time>2026-04-12T12:12:48.999Z</time></trkpt><trkpt lat="46.42568814810514" lon="12.741437700052357"><ele>1420.0</ele><time>2026-04-12T12:12:49.999Z</time></trkpt><trkpt lat="46.42575964647282" lon="12.741313114769246"><ele>1420.0</ele><time>2026-04-12T12:12:52Z</time></trkpt><trkpt lat="46.42581140302497" lon="12.741203378010466"><ele>1420.0</ele><time>2026-04-12T12:12:54Z</time></trkpt><trkpt lat="46.425834296168276" lon="12.741082809350067"><ele>1420.0</ele><time>2026-04-12T12:12:56Z</time></trkpt><trkpt lat="46.42578083586247" lon="12.740954787577655"><ele>1420.0</ele><time>2026-04-12T12:12:58Z</time></trkpt><trkpt lat="46.42572209587526" lon="12.740918175754752"><ele>1420.0</ele><time>2026-04-12T12:12:59Z</time></trkpt><trkpt lat="46.42565047796636" lon="12.74089366960233"><ele>1420.0</ele><time>2026-04-12T12:13:00Z</time></trkpt><trkpt lat="46.42558513909392" lon="12.740884064237871"><ele>1419.8</ele><time>2026-04-12T12:13:01Z</time></trkpt><trkpt lat="46.425473768684434" lon="12.740908241931876"><ele>1419.6</ele><time>2026-04-12T12:13:03Z</time></trkpt><trkpt lat="46.42536270609612" lon="12.74096154377222"><ele>1419.4</ele><time>2026-04-12T12:13:05Z</time></trkpt><trkpt lat="46.42528205580265" lon="12.740996338246472"><ele>1419.2</ele><time>2026-04-12T12:13:07Z</time></trkpt><trkpt lat="46.42519147382879" lon="12.741042508037285"><ele>1419.0</ele><time>2026-04-12T12:13:09Z</time></trkpt><trkpt lat="46.4251014665182" lon="12.741106498608689"><ele>1419.0</ele><time>2026-04-12T12:13:11Z</time></trkpt><trkpt lat="46.42502161641887" lon="12.741173949686058"><ele>1419.0</ele><time>2026-04-12T12:13:13Z</time></trkpt><trkpt lat="46.42496487089624" lon="12.741231794824188"><ele>1419.0</ele><time>2026-04-12T12:13:15Z</time></trkpt><trkpt lat="46.424899123526714" lon="12.741204595880848"><ele>1419.0</ele><time>2026-04-12T12:13:17Z</time></trkpt><trkpt lat="46.424899402094" lon="12.741071348072776"><ele>1419.0</ele><time>2026-04-12T12:13:19Z</time></trkpt><trkpt lat="46.42497158240532" lon="12.740967010685853"><ele>1419.0</ele><time>2026-04-12T12:13:21Z</time></trkpt><trkpt lat="46.425053742092466" lon="12.740835530766523"><ele>1418.5714285714284</ele><time>2026-04-12T12:13:23Z</time></trkpt><trkpt lat="46.42509291213785" lon="12.740753299931757"><ele>1418.1428571428573</ele><time>2026-04-12T12:13:24Z</time></trkpt><trkpt lat="46.42512918545924" lon="12.740653677645387"><ele>1417.7142857142858</ele><time>2026-04-12T12:13:25Z</time></trkpt><trkpt lat="46.42516323091373" lon="12.740550924674757"><ele>1417.2857142857142</ele><time>2026-04-12T12:13:26Z</time></trkpt><trkpt lat="46.42519138396454" lon="12.740455551000585"><ele>1416.8571428571427</ele><time>2026-04-12T12:13:27Z</time></trkpt><trkpt lat="46.42522265126556" lon="12.74036786106168"><ele>1416.4285714285716</ele><time>2026-04-12T12:13:28Z</time></trkpt><trkpt lat="46.42525746920278" lon="12.74028510869628"><ele>1416.0</ele><time>2026-04-12T12:13:29Z</time></trkpt><trkpt lat="46.42529759823758" lon="12.740203441629601"><ele>1417.7142857142858</ele><time>2026-04-12T12:13:30Z</time></trkpt><trkpt lat="46.4253478028325" lon="12.740123722690354"><ele>1419.4285714285713</ele><time>2026-04-12T12:13:31Z</time></trkpt><trkpt lat="46.42539765259947" lon="12.740047200914168"><ele>1421.142857142857</ele><time>2026-04-12T12:13:32Z</time></trkpt><trkpt lat="46.42544991237292" lon="12.739970953723184"><ele>1422.857142857143</ele><time>2026-04-12T12:13:33Z</time></trkpt><trkpt lat="46.42550219313628" lon="12.739894199036222"><ele>1424.5714285714284</ele><time>2026-04-12T12:13:34Z</time></trkpt><trkpt lat="46.4255556304186" lon="12.739817481019433"><ele>1426.2857142857142</ele><time>2026-04-12T12:13:35Z</time></trkpt><trkpt lat="46.42561029709403" lon="12.739740343051569"><ele>1428.0</ele><time>2026-04-12T12:13:36Z</time></trkpt><trkpt lat="46.42566663229795" lon="12.739655470291234"><ele>1424.1666666666667</ele><time>2026-04-12T12:13:37Z</time></trkpt><trkpt lat="46.42572753213378" lon="12.739566840313675"><ele>1420.3333333333333</ele><time>2026-04-12T12:13:38Z</time></trkpt><trkpt lat="46.42578900765574" lon="12.739471633381015"><ele>1416.5</ele><time>2026-04-12T12:13:39Z</time></trkpt><trkpt lat="46.42584904922064" lon="12.739376017153639"><ele>1412.6666666666665</ele><time>2026-04-12T12:13:40Z</time></trkpt><trkpt lat="46.42590889050149" lon="12.739284159055195"><ele>1408.8333333333333</ele><time>2026-04-12T12:13:41Z</time></trkpt><trkpt lat="46.42596716035681" lon="12.739191343323935"><ele>1405.0</ele><time>2026-04-12T12:13:42Z</time></trkpt><trkpt lat="46.42602393650279" lon="12.739096602192362"><ele>1405.0</ele><time>2026-04-12T12:13:43Z</time></trkpt><trkpt lat="46.42608164986127" lon="12.738996825484243"><ele>1405.0</ele><time>2026-04-12T12:13:44Z</time></trkpt><trkpt lat="46.42613922766132" lon="12.738887906133087"><ele>1405.0</ele><time>2026-04-12T12:13:45Z</time></trkpt><trkpt lat="46.42619556715477" lon="12.738766953799221"><ele>1405.0</ele><time>2026-04-12T12:13:46Z</time></trkpt><trkpt lat="46.426248471498404" lon="12.738637370085272"><ele>1405.0</ele><time>2026-04-12T12:13:47Z</time></trkpt><trkpt lat="46.42629813431008" lon="12.738507548101289"><ele>1401.6666666666665</ele><time>2026-04-12T12:13:48Z</time></trkpt><trkpt lat="46.42634386595985" lon="12.73839101352449"><ele>1398.3333333333333</ele><time>2026-04-12T12:13:49Z</time></trkpt><trkpt lat="46.426385072808124" lon="12.738283428937672"><ele>1395.0</ele><time>2026-04-12T12:13:50Z</time></trkpt><trkpt lat="46.42642261951628" lon="12.738182339984965"><ele>1391.6666666666667</ele><time>2026-04-12T12:13:51Z</time></trkpt><trkpt lat="46.42646125585301" lon="12.738078604389052"><ele>1388.3333333333335</ele><time>2026-04-12T12:13:52Z</time></trkpt><trkpt lat="46.426498589382085" lon="12.737976374991801"><ele>1385.0</ele><time>2026-04-12T12:13:53Z</time></trkpt><trkpt lat="46.42653498967227" lon="12.737877706766527"><ele>1385.0</ele><time>2026-04-12T12:13:54Z</time></trkpt><trkpt lat="46.42657060048767" lon="12.737782314586955"><ele>1385.0</ele><time>2026-04-12T12:13:55Z</time></trkpt><trkpt lat="46.42660848264226" lon="12.737691272011654"><ele>1385.0</ele><time>2026-04-12T12:13:56Z</time></trkpt><trkpt lat="46.42664967798493" lon="12.737605826612235"><ele>1385.0</ele><time>2026-04-12T12:13:57Z</time></trkpt><trkpt lat="46.426695480404966" lon="12.737528899784863"><ele>1385.0</ele><time>2026-04-12T12:13:58Z</time></trkpt><trkpt lat="46.42675014341043" lon="12.737464814826428"><ele>1385.0</ele><time>2026-04-12T12:13:59Z</time></trkpt><trkpt lat="46.42681006866421" lon="12.737407760309436"><ele>1385.0</ele><time>2026-04-12T12:13:59.999Z</time></trkpt><trkpt lat="46.42687732610162" lon="12.737355206889426"><ele>1385.142857142857</ele><time>2026-04-12T12:14:00.999Z</time></trkpt><trkpt lat="46.42695172556809" lon="12.737302945760307"><ele>1385.2857142857142</ele><time>2026-04-12T12:14:01.999Z</time></trkpt><trkpt lat="46.4270323424003" lon="12.73726133777739"><ele>1385.4285714285716</ele><time>2026-04-12T12:14:02.999Z</time></trkpt><trkpt lat="46.427109517514594" lon="12.737237874582238"><ele>1385.5714285714284</ele><time>2026-04-12T12:14:03.999Z</time></trkpt><trkpt lat="46.42717919796701" lon="12.737256495982615"><ele>1385.7142857142858</ele><time>2026-04-12T12:14:04.999Z</time></trkpt><trkpt lat="46.427243278613474" lon="12.737272666012679"><ele>1385.857142857143</ele><time>2026-04-12T12:14:05.999Z</time></trkpt><trkpt lat="46.427302789334064" lon="12.737309252583499"><ele>1386.0</ele><time>2026-04-12T12:14:06.999Z</time></trkpt><trkpt lat="46.42735112206926" lon="12.737378281120124"><ele>1385.8333333333333</ele><time>2026-04-12T12:14:07.999Z</time></trkpt><trkpt lat="46.427368230227295" lon="12.737545793119025"><ele>1385.6666666666667</ele><time>2026-04-12T12:14:09.999Z</time></trkpt><trkpt lat="46.42738488373405" lon="12.737657071478619"><ele>1385.5</ele><time>2026-04-12T12:14:10.999Z</time></trkpt><trkpt lat="46.42739608429216" lon="12.737769797740402"><ele>1385.3333333333335</ele><time>2026-04-12T12:14:11.999Z</time></trkpt><trkpt lat="46.42740233269312" lon="12.737897329736365"><ele>1385.1666666666667</ele><time>2026-04-12T12:14:12.999Z</time></trkpt><trkpt lat="46.42741739060679" lon="12.73801132334856"><ele>1385.0</ele><time>2026-04-12T12:14:13.999Z</time></trkpt><trkpt lat="46.42744723823156" lon="12.738127292557444"><ele>1385.0</ele><time>2026-04-12T12:14:14.999Z</time></trkpt><trkpt lat="46.42750559521873" lon="12.738241376138497"><ele>1385.0</ele><time>2026-04-12T12:14:15.999Z</time></trkpt><trkpt lat="46.42757409971736" lon="12.738334093562393"><ele>1385.0</ele><time>2026-04-12T12:14:16.999Z</time></trkpt><trkpt lat="46.42765238941153" lon="12.738426653226835"><ele>1385.0</ele><time>2026-04-12T12:14:17.999Z</time></trkpt><trkpt lat="46.42773648976014" lon="12.738520128041191"><ele>1385.0</ele><time>2026-04-12T12:14:18.999Z</time></trkpt><trkpt lat="46.427824557920516" lon="12.73861630962436"><ele>1385.5</ele><time>2026-04-12T12:14:19.999Z</time></trkpt><trkpt lat="46.42792203069787" lon="12.738721623106247"><ele>1386.0</ele><time>2026-04-12T12:14:20.999Z</time></trkpt><trkpt lat="46.428026414307894" lon="12.738830054986003"><ele>1386.5</ele><time>2026-04-12T12:14:21.999Z</time></trkpt><trkpt lat="46.428125756127415" lon="12.738926833271265"><ele>1387.0</ele><time>2026-04-12T12:14:22.999Z</time></trkpt><trkpt lat="46.42820887231474" lon="12.739003296456143"><ele>1385.1999999999998</ele><time>2026-04-12T12:14:23.999Z</time></trkpt><trkpt lat="46.42829915219492" lon="12.739077118434087"><ele>1383.4</ele><time>2026-04-12T12:14:24.999Z</time></trkpt><trkpt lat="46.42838145557501" lon="12.739137265421926"><ele>1381.6</ele><time>2026-04-12T12:14:25.999Z</time></trkpt><trkpt lat="46.42847094927678" lon="12.739176836646417"><ele>1379.8000000000002</ele><time>2026-04-12T12:14:26.999Z</time></trkpt><trkpt lat="46.42857074512789" lon="12.739182106426817"><ele>1378.0</ele><time>2026-04-12T12:14:27.999Z</time></trkpt><trkpt lat="46.4286665477367" lon="12.739135324577127"><ele>1378.0</ele><time>2026-04-12T12:14:28.999Z</time></trkpt><trkpt lat="46.42876366126643" lon="12.73910085576041"><ele>1378.0</ele><time>2026-04-12T12:14:29.999Z</time></trkpt><trkpt lat="46.42885928834606" lon="12.73902838888361"><ele>1378.0</ele><time>2026-04-12T12:14:30.999Z</time></trkpt><trkpt lat="46.42894820686821" lon="12.738947197614118"><ele>1378.0</ele><time>2026-04-12T12:14:31.999Z</time></trkpt><trkpt lat="46.429039402500905" lon="12.738863006667353"><ele>1378.0</ele><time>2026-04-12T12:14:32.999Z</time></trkpt><trkpt lat="46.42912404419139" lon="12.73877378326984"><ele>1380.0</ele><time>2026-04-12T12:14:33.999Z</time></trkpt><trkpt lat="46.42920784179483" lon="12.738677021748861"><ele>1382.0</ele><time>2026-04-12T12:14:34.999Z</time></trkpt><trkpt lat="46.429286560267734" lon="12.738576148907436"><ele>1384.0</ele><time>2026-04-12T12:14:35.999Z</time></trkpt><trkpt lat="46.42936501225588" lon="12.738483509054442"><ele>1386.0</ele><time>2026-04-12T12:14:36.999Z</time></trkpt><trkpt lat="46.42944067925074" lon="12.738407699832068"><ele>1388.0</ele><time>2026-04-12T12:14:37.999Z</time></trkpt><trkpt lat="46.4295052819082" lon="12.738340698770305"><ele>1386.8000000000002</ele><time>2026-04-12T12:14:38.999Z</time></trkpt><trkpt lat="46.42956381170753" lon="12.738284894672244"><ele>1385.6</ele><time>2026-04-12T12:14:39.999Z</time></trkpt><trkpt lat="46.42964519698002" lon="12.73817128150129"><ele>1384.4</ele><time>2026-04-12T12:14:41.999Z</time></trkpt><trkpt lat="46.42963113569598" lon="12.738027261352793"><ele>1383.1999999999998</ele><time>2026-04-12T12:14:43.999Z</time></trkpt><trkpt lat="46.42953510086167" lon="12.737934256519894"><ele>1382.0</ele><time>2026-04-12T12:14:45.999Z</time></trkpt><trkpt lat="46.42944823467852" lon="12.737971718089018"><ele>1379.3333333333335</ele><time>2026-04-12T12:14:46.999Z</time></trkpt><trkpt lat="46.42937514106252" lon="12.738022144858371"><ele>1376.6666666666667</ele><time>2026-04-12T12:14:47.999Z</time></trkpt><trkpt lat="46.42929811975579" lon="12.738084348342923"><ele>1374.0</ele><time>2026-04-12T12:14:48.999Z</time></trkpt><trkpt lat="46.42922793839191" lon="12.73813820098212"><ele>1371.3333333333333</ele><time>2026-04-12T12:14:49.999Z</time></trkpt><trkpt lat="46.429164119166316" lon="12.73818574244593"><ele>1368.6666666666665</ele><time>2026-04-12T12:14:50.999Z</time></trkpt><trkpt lat="46.429068474590494" lon="12.738254324362833"><ele>1366.0</ele><time>2026-04-12T12:14:52.999Z</time></trkpt><trkpt lat="46.42899986621048" lon="12.738257380689388"><ele>1366.0</ele><time>2026-04-12T12:14:54.999Z</time></trkpt><trkpt lat="46.42896795309096" lon="12.738103445815858"><ele>1366.0</ele><time>2026-04-12T12:14:57Z</time></trkpt><trkpt lat="46.42904180782669" lon="12.737976186205461"><ele>1366.0</ele><time>2026-04-12T12:14:59Z</time></trkpt><trkpt lat="46.42910142638381" lon="12.73792674211975"><ele>1366.0</ele><time>2026-04-12T12:15:00Z</time></trkpt><trkpt lat="46.42916620469024" lon="12.737876429475193"><ele>1366.0</ele><time>2026-04-12T12:15:01Z</time></trkpt><trkpt lat="46.429236937659745" lon="12.737816767181815"><ele>1366.0</ele><time>2026-04-12T12:15:02Z</time></trkpt><trkpt lat="46.42931313023271" lon="12.737749476334765"><ele>1365.1999999999998</ele><time>2026-04-12T12:15:03Z</time></trkpt><trkpt lat="46.429393883126295" lon="12.73767440882649"><ele>1364.3999999999999</ele><time>2026-04-12T12:15:04Z</time></trkpt><trkpt lat="46.42948341779427" lon="12.737593302605054"><ele>1363.6</ele><time>2026-04-12T12:15:05Z</time></trkpt><trkpt lat="46.42957423839969" lon="12.737511296797392"><ele>1362.8</ele><time>2026-04-12T12:15:06Z</time></trkpt><trkpt lat="46.42966473832308" lon="12.7374306695491"><ele>1362.0</ele><time>2026-04-12T12:15:07Z</time></trkpt><trkpt lat="46.42975094735966" lon="12.737350063692926"><ele>1362.0</ele><time>2026-04-12T12:15:08Z</time></trkpt><trkpt lat="46.42983501532069" lon="12.737270606372087"><ele>1362.0</ele><time>2026-04-12T12:15:09Z</time></trkpt><trkpt lat="46.42991590860924" lon="12.737192028143333"><ele>1362.0</ele><time>2026-04-12T12:15:10Z</time></trkpt><trkpt lat="46.42999580048752" lon="12.737111708367529"><ele>1362.0</ele><time>2026-04-12T12:15:11Z</time></trkpt><trkpt lat="46.430071935316946" lon="12.73702103538795"><ele>1362.0</ele><time>2026-04-12T12:15:12Z</time></trkpt><trkpt lat="46.43014050235922" lon="12.736917728646057"><ele>1361.0</ele><time>2026-04-12T12:15:13Z</time></trkpt><trkpt lat="46.43020790623072" lon="12.736804355421455"><ele>1360.0</ele><time>2026-04-12T12:15:14Z</time></trkpt><trkpt lat="46.43027651123994" lon="12.736682521984951"><ele>1359.0</ele><time>2026-04-12T12:15:15Z</time></trkpt><trkpt lat="46.43034880444659" lon="12.736561002551568"><ele>1358.0</ele><time>2026-04-12T12:15:16Z</time></trkpt><trkpt lat="46.43042024943349" lon="12.736439929042442"><ele>1357.0</ele><time>2026-04-12T12:15:17Z</time></trkpt><trkpt lat="46.43049072083277" lon="12.736320502688638"><ele>1357.0</ele><time>2026-04-12T12:15:18Z</time></trkpt><trkpt lat="46.430560667941265" lon="12.736202952378278"><ele>1357.0</ele><time>2026-04-12T12:15:19Z</time></trkpt><trkpt lat="46.43062081955428" lon="12.736090706370394"><ele>1357.0</ele><time>2026-04-12T12:15:20Z</time></trkpt><trkpt lat="46.430671483719266" lon="12.735985539081575"><ele>1357.0</ele><time>2026-04-12T12:15:21Z</time></trkpt><trkpt lat="46.43071214010662" lon="12.735883688656616"><ele>1357.0</ele><time>2026-04-12T12:15:22Z</time></trkpt><trkpt lat="46.43074468044246" lon="12.735786922361601"><ele>1357.0</ele><time>2026-04-12T12:15:23Z</time></trkpt><trkpt lat="46.43077288718508" lon="12.73569936591588"><ele>1355.6</ele><time>2026-04-12T12:15:24Z</time></trkpt><trkpt lat="46.430838936070344" lon="12.735580076781133"><ele>1354.1999999999998</ele><time>2026-04-12T12:15:26Z</time></trkpt><trkpt lat="46.43096012116413" lon="12.735557041463837"><ele>1352.8</ele><time>2026-04-12T12:15:28Z</time></trkpt><trkpt lat="46.43102308745486" lon="12.735613677644977"><ele>1351.4</ele><time>2026-04-12T12:15:29Z</time></trkpt><trkpt lat="46.43109405212165" lon="12.735657566656569"><ele>1350.0</ele><time>2026-04-12T12:15:30Z</time></trkpt><trkpt lat="46.43117833364059" lon="12.735682203597777"><ele>1350.0</ele><time>2026-04-12T12:15:31Z</time></trkpt><trkpt lat="46.43125631438683" lon="12.735736147705007"><ele>1350.0</ele><time>2026-04-12T12:15:32Z</time></trkpt><trkpt lat="46.43133399193899" lon="12.735780667583445"><ele>1350.0</ele><time>2026-04-12T12:15:33Z</time></trkpt><trkpt lat="46.4314070118416" lon="12.735824481128324"><ele>1350.0</ele><time>2026-04-12T12:15:34Z</time></trkpt><trkpt lat="46.43146887111171" lon="12.735865766853765"><ele>1350.0</ele><time>2026-04-12T12:15:35Z</time></trkpt><trkpt lat="46.4315300125508" lon="12.73591159586678"><ele>1350.0</ele><time>2026-04-12T12:15:36Z</time></trkpt><trkpt lat="46.43163649004428" lon="12.735950643296444"><ele>1349.6</ele><time>2026-04-12T12:15:38Z</time></trkpt><trkpt lat="46.431713903149564" lon="12.735869067436587"><ele>1349.2</ele><time>2026-04-12T12:15:40Z</time></trkpt><trkpt lat="46.43168720641728" lon="12.735724708077754"><ele>1348.8000000000002</ele><time>2026-04-12T12:15:42Z</time></trkpt><trkpt lat="46.43162140218955" lon="12.735597458938528"><ele>1348.4</ele><time>2026-04-12T12:15:44Z</time></trkpt><trkpt lat="46.43157502224201" lon="12.73545509668715"><ele>1348.0</ele><time>2026-04-12T12:15:46Z</time></trkpt><trkpt lat="46.431547842226934" lon="12.735322616084888"><ele>1348.0</ele><time>2026-04-12T12:15:48Z</time></trkpt><trkpt lat="46.43160152149787" lon="12.735218699577297"><ele>1348.0</ele><time>2026-04-12T12:15:50Z</time></trkpt><trkpt lat="46.43170568479619" lon="12.735249298218001"><ele>1348.0</ele><time>2026-04-12T12:15:52Z</time></trkpt><trkpt lat="46.43180959303593" lon="12.735318379924411"><ele>1348.0</ele><time>2026-04-12T12:15:54Z</time></trkpt><trkpt lat="46.43187594746099" lon="12.735355220186388"><ele>1348.0</ele><time>2026-04-12T12:15:55Z</time></trkpt><trkpt lat="46.43194061671564" lon="12.73538252197162"><ele>1348.0</ele><time>2026-04-12T12:15:56Z</time></trkpt><trkpt lat="46.432048989646" lon="12.735432690633518"><ele>1347.2</ele><time>2026-04-12T12:15:58Z</time></trkpt><trkpt lat="46.43215499136674" lon="12.73541464880875"><ele>1346.4</ele><time>2026-04-12T12:15:59.999Z</time></trkpt><trkpt lat="46.43220043812932" lon="12.735272634293926"><ele>1345.6000000000001</ele><time>2026-04-12T12:16:01.999Z</time></trkpt><trkpt lat="46.432189772039465" lon="12.735085592363133"><ele>1344.8000000000002</ele><time>2026-04-12T12:16:03.999Z</time></trkpt><trkpt lat="46.432204562480884" lon="12.734978281055373"><ele>1344.0</ele><time>2026-04-12T12:16:04.999Z</time></trkpt><trkpt lat="46.43220255287224" lon="12.734853739752799"><ele>1342.5</ele><time>2026-04-12T12:16:05.999Z</time></trkpt><trkpt lat="46.43219236848085" lon="12.734726262525463"><ele>1341.0</ele><time>2026-04-12T12:16:06.999Z</time></trkpt><trkpt lat="46.432198719956105" lon="12.734600322638755"><ele>1339.5</ele><time>2026-04-12T12:16:07.999Z</time></trkpt><trkpt lat="46.432206519873006" lon="12.734487734990024"><ele>1338.0</ele><time>2026-04-12T12:16:08.999Z</time></trkpt><trkpt lat="46.43221251226773" lon="12.734388032887734"><ele>1336.5</ele><time>2026-04-12T12:16:09.999Z</time></trkpt><trkpt lat="46.43221358311838" lon="12.73422462704921"><ele>1335.0</ele><time>2026-04-12T12:16:11.999Z</time></trkpt><trkpt lat="46.43225080557701" lon="12.734101273742995"><ele>1333.4</ele><time>2026-04-12T12:16:13.999Z</time></trkpt><trkpt lat="46.43231492899309" lon="12.734149738780788"><ele>1331.8</ele><time>2026-04-12T12:16:15.999Z</time></trkpt><trkpt lat="46.432406773267324" lon="12.734209735062588"><ele>1330.1999999999998</ele><time>2026-04-12T12:16:17.999Z</time></trkpt><trkpt lat="46.43251948897838" lon="12.73422747055647"><ele>1328.6</ele><time>2026-04-12T12:16:19.999Z</time></trkpt><trkpt lat="46.432596803403904" lon="12.734146452369227"><ele>1327.0</ele><time>2026-04-12T12:16:21.999Z</time></trkpt><trkpt lat="46.432596830164755" lon="12.733978927662195"><ele>1327.0</ele><time>2026-04-12T12:16:23.999Z</time></trkpt><trkpt lat="46.43258854849872" lon="12.733804474609677"><ele>1327.0</ele><time>2026-04-12T12:16:25.999Z</time></trkpt><trkpt lat="46.43259204369377" lon="12.733700544222264"><ele>1327.0</ele><time>2026-04-12T12:16:26.999Z</time></trkpt><trkpt lat="46.43260689543861" lon="12.733582338781181"><ele>1327.0</ele><time>2026-04-12T12:16:27.999Z</time></trkpt><trkpt lat="46.432637702280346" lon="12.733469989675436"><ele>1327.0</ele><time>2026-04-12T12:16:28.999Z</time></trkpt><trkpt lat="46.43267427854606" lon="12.733374627218355"><ele>1327.0</ele><time>2026-04-12T12:16:29.999Z</time></trkpt><trkpt lat="46.432729096936995" lon="12.73328079659"><ele>1326.0000000000002</ele><time>2026-04-12T12:16:30.999Z</time></trkpt><trkpt lat="46.43277408620917" lon="12.733194795284225"><ele>1325.0</ele><time>2026-04-12T12:16:31.999Z</time></trkpt><trkpt lat="46.43282299059997" lon="12.733109591142634"><ele>1324.0</ele><time>2026-04-12T12:16:32.999Z</time></trkpt><trkpt lat="46.43287161609817" lon="12.733033674465641"><ele>1323.0</ele><time>2026-04-12T12:16:33.999Z</time></trkpt><trkpt lat="46.432912688632186" lon="12.732956788562484"><ele>1322.0</ele><time>2026-04-12T12:16:34.999Z</time></trkpt><trkpt lat="46.432937282116825" lon="12.732866959629487"><ele>1321.0000000000002</ele><time>2026-04-12T12:16:35.999Z</time></trkpt><trkpt lat="46.43293608368903" lon="12.732773241772891"><ele>1320.0</ele><time>2026-04-12T12:16:36.999Z</time></trkpt><trkpt lat="46.43290079384385" lon="12.732674640861598"><ele>1318.1666666666667</ele><time>2026-04-12T12:16:37.999Z</time></trkpt><trkpt lat="46.43284858913209" lon="12.732589120383665"><ele>1316.3333333333333</ele><time>2026-04-12T12:16:38.999Z</time></trkpt><trkpt lat="46.43278817074556" lon="12.732514535275756"><ele>1314.5</ele><time>2026-04-12T12:16:39.999Z</time></trkpt><trkpt lat="46.43273265629443" lon="12.732410888839832"><ele>1312.6666666666665</ele><time>2026-04-12T12:16:40.999Z</time></trkpt><trkpt lat="46.432667737462985" lon="12.732329521668241"><ele>1310.8333333333333</ele><time>2026-04-12T12:16:41.999Z</time></trkpt><trkpt lat="46.432585827277556" lon="12.732263939107884"><ele>1309.0</ele><time>2026-04-12T12:16:42.999Z</time></trkpt><trkpt lat="46.43251069558475" lon="12.732176187645202"><ele>1309.0</ele><time>2026-04-12T12:16:43.999Z</time></trkpt><trkpt lat="46.43242800707429" lon="12.732099966629196"><ele>1309.0</ele><time>2026-04-12T12:16:44.999Z</time></trkpt><trkpt lat="46.43234603433105" lon="12.732008055231315"><ele>1309.0</ele><time>2026-04-12T12:16:45.999Z</time></trkpt><trkpt lat="46.432249860786236" lon="12.731940446074132"><ele>1309.0</ele><time>2026-04-12T12:16:46.999Z</time></trkpt><trkpt lat="46.432156621797844" lon="12.731886393090535"><ele>1309.0</ele><time>2026-04-12T12:16:47.999Z</time></trkpt><trkpt lat="46.43206781478351" lon="12.731842730476725"><ele>1306.8000000000002</ele><time>2026-04-12T12:16:48.999Z</time></trkpt><trkpt lat="46.43196813748713" lon="12.731808091362817"><ele>1304.6000000000001</ele><time>2026-04-12T12:16:49.999Z</time></trkpt><trkpt lat="46.43187432601518" lon="12.731808517253247"><ele>1302.4</ele><time>2026-04-12T12:16:50.999Z</time></trkpt><trkpt lat="46.43178297532828" lon="12.731802030236619"><ele>1300.2</ele><time>2026-04-12T12:16:51.999Z</time></trkpt><trkpt lat="46.43169073664611" lon="12.731779883771464"><ele>1298.0</ele><time>2026-04-12T12:16:52.999Z</time></trkpt><trkpt lat="46.43160053260818" lon="12.731781439012046"><ele>1298.0</ele><time>2026-04-12T12:16:53.999Z</time></trkpt><trkpt lat="46.43150961150861" lon="12.731782508239093"><ele>1298.0</ele><time>2026-04-12T12:16:54.999Z</time></trkpt><trkpt lat="46.43142123303004" lon="12.731783047834544"><ele>1298.0</ele><time>2026-04-12T12:16:55.999Z</time></trkpt><trkpt lat="46.43133227849889" lon="12.731783590945275"><ele>1298.0</ele><time>2026-04-12T12:16:56.999Z</time></trkpt><trkpt lat="46.43124848596477" lon="12.73178275975"><ele>1298.0</ele><time>2026-04-12T12:16:57.999Z</time></trkpt><trkpt lat="46.43116607937046" lon="12.731780546945366"><ele>1298.0</ele><time>2026-04-12T12:16:58.999Z</time></trkpt><trkpt lat="46.4310874785935" lon="12.731776911826948"><ele>1295.5</ele><time>2026-04-12T12:16:59.999Z</time></trkpt><trkpt lat="46.43101944776857" lon="12.731770146344505"><ele>1293.0</ele><time>2026-04-12T12:17:00.999Z</time></trkpt><trkpt lat="46.4309533019421" lon="12.73176008178375"><ele>1290.5</ele><time>2026-04-12T12:17:01.999Z</time></trkpt><trkpt lat="46.43084642434966" lon="12.731721050717148"><ele>1288.0</ele><time>2026-04-12T12:17:04Z</time></trkpt><trkpt lat="46.43078766772305" lon="12.731659028305138"><ele>1285.5</ele><time>2026-04-12T12:17:06Z</time></trkpt><trkpt lat="46.430796595305566" lon="12.73152220412834"><ele>1283.0</ele><time>2026-04-12T12:17:08Z</time></trkpt><trkpt lat="46.430853339599096" lon="12.731454597271878"><ele>1283.0</ele><time>2026-04-12T12:17:09Z</time></trkpt><trkpt lat="46.430914630206075" lon="12.731412508391548"><ele>1283.0</ele><time>2026-04-12T12:17:10Z</time></trkpt><trkpt lat="46.43098490746157" lon="12.731387688389546"><ele>1283.0</ele><time>2026-04-12T12:17:11Z</time></trkpt><trkpt lat="46.43105215714294" lon="12.731359470982511"><ele>1283.0</ele><time>2026-04-12T12:17:12Z</time></trkpt><trkpt lat="46.431124120023995" lon="12.731330638613196"><ele>1283.0</ele><time>2026-04-12T12:17:13Z</time></trkpt><trkpt lat="46.43119953261325" lon="12.731282146738984"><ele>1283.0</ele><time>2026-04-12T12:17:14Z</time></trkpt><trkpt lat="46.43127342316171" lon="12.731215584609833"><ele>1282.4</ele><time>2026-04-12T12:17:15Z</time></trkpt><trkpt lat="46.43135128143008" lon="12.731141330485674"><ele>1281.8000000000002</ele><time>2026-04-12T12:17:16Z</time></trkpt><trkpt lat="46.431426650517984" lon="12.731047836492548"><ele>1281.2</ele><time>2026-04-12T12:17:17Z</time></trkpt><trkpt lat="46.43150516794017" lon="12.730951361151094"><ele>1280.6</ele><time>2026-04-12T12:17:18Z</time></trkpt><trkpt lat="46.43158492519703" lon="12.730856430686192"><ele>1280.0</ele><time>2026-04-12T12:17:19Z</time></trkpt><trkpt lat="46.43167511989404" lon="12.730769052148448"><ele>1280.0</ele><time>2026-04-12T12:17:20Z</time></trkpt><trkpt lat="46.43176768381829" lon="12.730680034660908"><ele>1280.0</ele><time>2026-04-12T12:17:21Z</time></trkpt><trkpt lat="46.43186690179657" lon="12.730581247643613"><ele>1280.0</ele><time>2026-04-12T12:17:22Z</time></trkpt><trkpt lat="46.43196631653567" lon="12.730487222877787"><ele>1280.0</ele><time>2026-04-12T12:17:23Z</time></trkpt><trkpt lat="46.4320576835331" lon="12.730392778494009"><ele>1280.0</ele><time>2026-04-12T12:17:24Z</time></trkpt><trkpt lat="46.432136342953754" lon="12.730311844641882"><ele>1280.0</ele><time>2026-04-12T12:17:25Z</time></trkpt><trkpt lat="46.43220294175174" lon="12.730238948286804"><ele>1280.0</ele><time>2026-04-12T12:17:26Z</time></trkpt><trkpt lat="46.43227315831183" lon="12.730206733755608"><ele>1280.0</ele><time>2026-04-12T12:17:27Z</time></trkpt><trkpt lat="46.4323385169631" lon="12.730171913285877"><ele>1280.0</ele><time>2026-04-12T12:17:28Z</time></trkpt><trkpt lat="46.43245101994223" lon="12.730121583849838"><ele>1280.0</ele><time>2026-04-12T12:17:30Z</time></trkpt><trkpt lat="46.43254885131138" lon="12.730092084662145"><ele>1278.1666666666667</ele><time>2026-04-12T12:17:32Z</time></trkpt><trkpt lat="46.43263264142238" lon="12.730077037110652"><ele>1276.3333333333335</ele><time>2026-04-12T12:17:34Z</time></trkpt><trkpt lat="46.43267092560679" lon="12.72996843107665"><ele>1274.5</ele><time>2026-04-12T12:17:36Z</time></trkpt><trkpt lat="46.43269723287373" lon="12.729883580271817"><ele>1272.6666666666667</ele><time>2026-04-12T12:17:37Z</time></trkpt><trkpt lat="46.432649565680876" lon="12.729802180719094"><ele>1270.8333333333333</ele><time>2026-04-12T12:17:38Z</time></trkpt><trkpt lat="46.43254789080012" lon="12.729794236209633"><ele>1269.0</ele><time>2026-04-12T12:17:39Z</time></trkpt><trkpt lat="46.43247420650306" lon="12.72981663456243"><ele>1269.0</ele><time>2026-04-12T12:17:40Z</time></trkpt><trkpt lat="46.43240563689689" lon="12.729839491085615"><ele>1269.0</ele><time>2026-04-12T12:17:41Z</time></trkpt><trkpt lat="46.43233163579979" lon="12.729862590033171"><ele>1269.0</ele><time>2026-04-12T12:17:42Z</time></trkpt><trkpt lat="46.43223848289072" lon="12.729890581508513"><ele>1269.0</ele><time>2026-04-12T12:17:43Z</time></trkpt><trkpt lat="46.43215694031808" lon="12.72994032903804"><ele>1269.0</ele><time>2026-04-12T12:17:44Z</time></trkpt><trkpt lat="46.432075924716415" lon="12.729948751626686"><ele>1269.0</ele><time>2026-04-12T12:17:45Z</time></trkpt><trkpt lat="46.4320038768928" lon="12.729917427405683"><ele>1268.142857142857</ele><time>2026-04-12T12:17:46Z</time></trkpt><trkpt lat="46.43193850922124" lon="12.729892348383299"><ele>1267.2857142857142</ele><time>2026-04-12T12:17:47Z</time></trkpt><trkpt lat="46.43188055892808" lon="12.729854008779004"><ele>1266.4285714285713</ele><time>2026-04-12T12:17:48Z</time></trkpt><trkpt lat="46.4318201723589" lon="12.729814444776075"><ele>1265.5714285714284</ele><time>2026-04-12T12:17:49Z</time></trkpt><trkpt lat="46.431762058959286" lon="12.729777204373857"><ele>1264.7142857142858</ele><time>2026-04-12T12:17:50Z</time></trkpt><trkpt lat="46.43169937230586" lon="12.729741650701737"><ele>1263.8571428571427</ele><time>2026-04-12T12:17:51Z</time></trkpt><trkpt lat="46.431616458574744" lon="12.729697030288937"><ele>1263.0</ele><time>2026-04-12T12:17:53Z</time></trkpt><trkpt lat="46.431608833184576" lon="12.7295430858275"><ele>1263.0</ele><time>2026-04-12T12:17:55Z</time></trkpt><trkpt lat="46.43165586979354" lon="12.729467161268298"><ele>1263.0</ele><time>2026-04-12T12:17:56Z</time></trkpt><trkpt lat="46.431722040186706" lon="12.729464643458657"><ele>1263.0</ele><time>2026-04-12T12:17:57Z</time></trkpt><trkpt lat="46.43178974524371" lon="12.729455153422842"><ele>1263.0</ele><time>2026-04-12T12:17:58Z</time></trkpt><trkpt lat="46.431871667143106" lon="12.729418403806239"><ele>1263.0</ele><time>2026-04-12T12:17:58.999Z</time></trkpt><trkpt lat="46.43196219999571" lon="12.729411511043374"><ele>1263.0</ele><time>2026-04-12T12:17:59.999Z</time></trkpt><trkpt lat="46.432055360913594" lon="12.729395373781557"><ele>1260.6</ele><time>2026-04-12T12:18:00.999Z</time></trkpt><trkpt lat="46.43215368370857" lon="12.729368398079327"><ele>1258.1999999999998</ele><time>2026-04-12T12:18:01.999Z</time></trkpt><trkpt lat="46.432248516992324" lon="12.729317094181335"><ele>1255.8</ele><time>2026-04-12T12:18:02.999Z</time></trkpt><trkpt lat="46.43233684013571" lon="12.729243289177113"><ele>1253.3999999999999</ele><time>2026-04-12T12:18:03.999Z</time></trkpt><trkpt lat="46.432425787387" lon="12.72914958477756"><ele>1251.0</ele><time>2026-04-12T12:18:04.999Z</time></trkpt><trkpt lat="46.4325080903951" lon="12.729064425807179"><ele>1251.0</ele><time>2026-04-12T12:18:05.999Z</time></trkpt><trkpt lat="46.43257993883831" lon="12.728992037375086"><ele>1251.0</ele><time>2026-04-12T12:18:06.999Z</time></trkpt><trkpt lat="46.432662906195134" lon="12.728931569684764"><ele>1251.0</ele><time>2026-04-12T12:18:07.999Z</time></trkpt><trkpt lat="46.43274430263858" lon="12.728876453850324"><ele>1251.0</ele><time>2026-04-12T12:18:08.999Z</time></trkpt><trkpt lat="46.43282746898663" lon="12.728881180917275"><ele>1251.0</ele><time>2026-04-12T12:18:09.999Z</time></trkpt><trkpt lat="46.432921030951064" lon="12.728899606722246"><ele>1251.0</ele><time>2026-04-12T12:18:10.999Z</time></trkpt><trkpt lat="46.43301544916407" lon="12.728906465785602"><ele>1252.0</ele><time>2026-04-12T12:18:11.999Z</time></trkpt><trkpt lat="46.43311084623015" lon="12.728888207947687"><ele>1253.0</ele><time>2026-04-12T12:18:12.999Z</time></trkpt><trkpt lat="46.43320922571752" lon="12.728833296941712"><ele>1254.0</ele><time>2026-04-12T12:18:13.999Z</time></trkpt><trkpt lat="46.433315869204534" lon="12.728797864111629"><ele>1255.0</ele><time>2026-04-12T12:18:14.999Z</time></trkpt><trkpt lat="46.433420667073435" lon="12.728759489651253"><ele>1256.0</ele><time>2026-04-12T12:18:15.999Z</time></trkpt><trkpt lat="46.43352862220192" lon="12.728727538281216"><ele>1256.0</ele><time>2026-04-12T12:18:16.999Z</time></trkpt><trkpt lat="46.43363798838183" lon="12.728692425280883"><ele>1256.0</ele><time>2026-04-12T12:18:17.999Z</time></trkpt><trkpt lat="46.43375473219552" lon="12.728660454446164"><ele>1256.0</ele><time>2026-04-12T12:18:18.999Z</time></trkpt><trkpt lat="46.43386972439669" lon="12.728630047146199"><ele>1256.0</ele><time>2026-04-12T12:18:19.999Z</time></trkpt><trkpt lat="46.43398302725198" lon="12.728607471632055"><ele>1255.5</ele><time>2026-04-12T12:18:20.999Z</time></trkpt><trkpt lat="46.43410434438434" lon="12.728575007911823"><ele>1255.0</ele><time>2026-04-12T12:18:21.999Z</time></trkpt><trkpt lat="46.43422438459457" lon="12.72855958533674"><ele>1254.5</ele><time>2026-04-12T12:18:22.999Z</time></trkpt><trkpt lat="46.43433996136871" lon="12.728540554397533"><ele>1254.0</ele><time>2026-04-12T12:18:23.999Z</time></trkpt><trkpt lat="46.434454615260734" lon="12.728510803033977"><ele>1247.75</ele><time>2026-04-12T12:18:24.999Z</time></trkpt><trkpt lat="46.43456343766951" lon="12.728477519337176"><ele>1241.5</ele><time>2026-04-12T12:18:25.999Z</time></trkpt><trkpt lat="46.434671500540446" lon="12.728437549080256"><ele>1235.25</ele><time>2026-04-12T12:18:26.999Z</time></trkpt><trkpt lat="46.43478633462337" lon="12.72838850118586"><ele>1229.0</ele><time>2026-04-12T12:18:27.999Z</time></trkpt><trkpt lat="46.43489162237202" lon="12.728328166328865"><ele>1228.75</ele><time>2026-04-12T12:18:28.999Z</time></trkpt><trkpt lat="46.435002918129435" lon="12.728278979345228"><ele>1228.5</ele><time>2026-04-12T12:18:29.999Z</time></trkpt><trkpt lat="46.4351172817345" lon="12.728245958773464"><ele>1228.25</ele><time>2026-04-12T12:18:30.999Z</time></trkpt><trkpt lat="46.43523562025741" lon="12.72821679114335"><ele>1228.0</ele><time>2026-04-12T12:18:31.999Z</time></trkpt><trkpt lat="46.435340797365114" lon="12.728194253653786"><ele>1228.0</ele><time>2026-04-12T12:18:32.999Z</time></trkpt><trkpt lat="46.43544082346713" lon="12.7281660967385"><ele>1228.0</ele><time>2026-04-12T12:18:33.999Z</time></trkpt><trkpt lat="46.43554417078144" lon="12.728139383674064"><ele>1228.0</ele><time>2026-04-12T12:18:34.999Z</time></trkpt><trkpt lat="46.43564437878997" lon="12.728117776241369"><ele>1228.0</ele><time>2026-04-12T12:18:35.999Z</time></trkpt><trkpt lat="46.43574343423583" lon="12.728103943424857"><ele>1228.0</ele><time>2026-04-12T12:18:36.999Z</time></trkpt><trkpt lat="46.43583585038641" lon="12.72809443780546"><ele>1226.1666666666665</ele><time>2026-04-12T12:18:37.999Z</time></trkpt><trkpt lat="46.43592245589026" lon="12.728090352160818"><ele>1224.3333333333333</ele><time>2026-04-12T12:18:38.999Z</time></trkpt><trkpt lat="46.43600423907125" lon="12.728104736645545"><ele>1222.5</ele><time>2026-04-12T12:18:39.999Z</time></trkpt><trkpt lat="46.43608113479006" lon="12.728129379059508"><ele>1220.6666666666667</ele><time>2026-04-12T12:18:40.999Z</time></trkpt><trkpt lat="46.43614949989981" lon="12.728160274498086"><ele>1218.8333333333335</ele><time>2026-04-12T12:18:41.999Z</time></trkpt><trkpt lat="46.43621355526016" lon="12.728195314318128"><ele>1217.0</ele><time>2026-04-12T12:18:42.999Z</time></trkpt><trkpt lat="46.43631644624084" lon="12.728197705874067"><ele>1217.0</ele><time>2026-04-12T12:18:44.999Z</time></trkpt><trkpt lat="46.436346691800026" lon="12.728083537146432"><ele>1217.0</ele><time>2026-04-12T12:18:46.999Z</time></trkpt><trkpt lat="46.43625802606425" lon="12.727940793842208"><ele>1217.0</ele><time>2026-04-12T12:18:48.999Z</time></trkpt><trkpt lat="46.4361887179046" lon="12.727903692677456"><ele>1217.0</ele><time>2026-04-12T12:18:49.999Z</time></trkpt><trkpt lat="46.436116517667976" lon="12.727871728177778"><ele>1217.0</ele><time>2026-04-12T12:18:50.999Z</time></trkpt><trkpt lat="46.43602663354094" lon="12.727841448909599"><ele>1217.0</ele><time>2026-04-12T12:18:51.999Z</time></trkpt><trkpt lat="46.43593547358711" lon="12.727816844135717"><ele>1217.0</ele><time>2026-04-12T12:18:52.999Z</time></trkpt><trkpt lat="46.43584332785223" lon="12.727792527878663"><ele>1217.0</ele><time>2026-04-12T12:18:53.999Z</time></trkpt><trkpt lat="46.43574440685374" lon="12.727771914182357"><ele>1217.0</ele><time>2026-04-12T12:18:54.999Z</time></trkpt><trkpt lat="46.43565298794174" lon="12.727754708239587"><ele>1217.0</ele><time>2026-04-12T12:18:55.999Z</time></trkpt><trkpt lat="46.43557029782346" lon="12.727734609100741"><ele>1213.3333333333335</ele><time>2026-04-12T12:18:56.999Z</time></trkpt><trkpt lat="46.435485939761705" lon="12.72770671199646"><ele>1209.6666666666667</ele><time>2026-04-12T12:18:57.999Z</time></trkpt><trkpt lat="46.43539929665708" lon="12.727671196229105"><ele>1206.0</ele><time>2026-04-12T12:18:58.999Z</time></trkpt><trkpt lat="46.43531425525116" lon="12.727634683048958"><ele>1202.3333333333333</ele><time>2026-04-12T12:18:59.999Z</time></trkpt><trkpt lat="46.4352300213553" lon="12.727598474296668"><ele>1198.6666666666665</ele><time>2026-04-12T12:19:00.999Z</time></trkpt><trkpt lat="46.43514212006728" lon="12.727560889701582"><ele>1195.0</ele><time>2026-04-12T12:19:01.999Z</time></trkpt><trkpt lat="46.43505195604008" lon="12.727527257088768"><ele>1195.0</ele><time>2026-04-12T12:19:02.999Z</time></trkpt><trkpt lat="46.43495559907622" lon="12.727494790209558"><ele>1195.0</ele><time>2026-04-12T12:19:03.999Z</time></trkpt><trkpt lat="46.43485600872485" lon="12.727463704371717"><ele>1195.0</ele><time>2026-04-12T12:19:04.999Z</time></trkpt><trkpt lat="46.43475295937455" lon="12.727433211698548"><ele>1195.0</ele><time>2026-04-12T12:19:05.999Z</time></trkpt><trkpt lat="46.43465101913678" lon="12.727406918855008"><ele>1195.0</ele><time>2026-04-12T12:19:06.999Z</time></trkpt><trkpt lat="46.434545910595716" lon="12.72738192411231"><ele>1195.6</ele><time>2026-04-12T12:19:07.999Z</time></trkpt><trkpt lat="46.43443572443013" lon="12.727361662378966"><ele>1196.2</ele><time>2026-04-12T12:19:09Z</time></trkpt><trkpt lat="46.43433375633961" lon="12.727350524811383"><ele>1196.8</ele><time>2026-04-12T12:19:10Z</time></trkpt><trkpt lat="46.43424533082002" lon="12.7273423517478"><ele>1197.4</ele><time>2026-04-12T12:19:11Z</time></trkpt><trkpt lat="46.43416117529688" lon="12.727334573355277"><ele>1198.0</ele><time>2026-04-12T12:19:12Z</time></trkpt><trkpt lat="46.43408452872631" lon="12.727324141500448"><ele>1198.0</ele><time>2026-04-12T12:19:13Z</time></trkpt><trkpt lat="46.43400996687389" lon="12.7273097923731"><ele>1198.0</ele><time>2026-04-12T12:19:14Z</time></trkpt><trkpt lat="46.433931493606536" lon="12.727286540004108"><ele>1198.0</ele><time>2026-04-12T12:19:15Z</time></trkpt><trkpt lat="46.43385400527552" lon="12.727254829092"><ele>1198.0</ele><time>2026-04-12T12:19:16Z</time></trkpt><trkpt lat="46.433780760129046" lon="12.727221528543998"><ele>1198.0</ele><time>2026-04-12T12:19:17Z</time></trkpt><trkpt lat="46.43369587817909" lon="12.727177482246576"><ele>1198.0</ele><time>2026-04-12T12:19:18Z</time></trkpt><trkpt lat="46.43360992081251" lon="12.72713239603598"><ele>1198.6666666666665</ele><time>2026-04-12T12:19:19Z</time></trkpt><trkpt lat="46.433521400504624" lon="12.727089712772004"><ele>1199.3333333333333</ele><time>2026-04-12T12:19:20Z</time></trkpt><trkpt lat="46.43343922168688" lon="12.727052079937804"><ele>1200.0</ele><time>2026-04-12T12:19:21Z</time></trkpt><trkpt lat="46.43334838511663" lon="12.72703465221252"><ele>1200.6666666666667</ele><time>2026-04-12T12:19:22Z</time></trkpt><trkpt lat="46.43327270336083" lon="12.726995731865049"><ele>1201.3333333333335</ele><time>2026-04-12T12:19:23Z</time></trkpt><trkpt lat="46.4332053663828" lon="12.726952829830678"><ele>1202.0</ele><time>2026-04-12T12:19:24Z</time></trkpt><trkpt lat="46.4331407228337" lon="12.726916253012817"><ele>1198.0</ele><time>2026-04-12T12:19:25Z</time></trkpt><trkpt lat="46.433085754908426" lon="12.726848155213059"><ele>1194.0</ele><time>2026-04-12T12:19:26Z</time></trkpt><trkpt lat="46.433045153955526" lon="12.72676067734819"><ele>1190.0</ele><time>2026-04-12T12:19:27Z</time></trkpt><trkpt lat="46.433039342975974" lon="12.726650552368932"><ele>1186.0</ele><time>2026-04-12T12:19:28Z</time></trkpt><trkpt lat="46.4330636989701" lon="12.726550044034784"><ele>1182.0</ele><time>2026-04-12T12:19:29Z</time></trkpt><trkpt lat="46.433121546245026" lon="12.726486670464219"><ele>1178.0</ele><time>2026-04-12T12:19:30Z</time></trkpt><trkpt lat="46.433177937893795" lon="12.726428273346553"><ele>1174.0</ele><time>2026-04-12T12:19:31Z</time></trkpt><trkpt lat="46.43325067091348" lon="12.726437395960225"><ele>1174.0</ele><time>2026-04-12T12:19:32Z</time></trkpt><trkpt lat="46.433335644890185" lon="12.726467735801728"><ele>1174.0</ele><time>2026-04-12T12:19:33Z</time></trkpt><trkpt lat="46.433408026646234" lon="12.726494299186797"><ele>1174.0</ele><time>2026-04-12T12:19:34Z</time></trkpt><trkpt lat="46.43349708425912" lon="12.726544939917208"><ele>1174.0</ele><time>2026-04-12T12:19:35Z</time></trkpt><trkpt lat="46.43356980559307" lon="12.72658672016594"><ele>1174.0</ele><time>2026-04-12T12:19:36Z</time></trkpt><trkpt lat="46.433649685543365" lon="12.72663405952398"><ele>1174.0</ele><time>2026-04-12T12:19:37Z</time></trkpt><trkpt lat="46.43374907753985" lon="12.726652676064486"><ele>1171.6000000000001</ele><time>2026-04-12T12:19:38Z</time></trkpt><trkpt lat="46.433830809597595" lon="12.726678947918655"><ele>1169.2</ele><time>2026-04-12T12:19:39Z</time></trkpt><trkpt lat="46.43389039528667" lon="12.726724988039257"><ele>1166.8000000000002</ele><time>2026-04-12T12:19:40Z</time></trkpt><trkpt lat="46.43396542463722" lon="12.726733014428483"><ele>1164.4</ele><time>2026-04-12T12:19:41Z</time></trkpt><trkpt lat="46.43408164367785" lon="12.726781492089703"><ele>1162.0</ele><time>2026-04-12T12:19:43Z</time></trkpt><trkpt lat="46.43418698028977" lon="12.726839538707186"><ele>1162.0</ele><time>2026-04-12T12:19:45Z</time></trkpt><trkpt lat="46.434282009457355" lon="12.726878627772052"><ele>1162.0</ele><time>2026-04-12T12:19:47Z</time></trkpt><trkpt lat="46.4343700603928" lon="12.726822731893941"><ele>1162.0</ele><time>2026-04-12T12:19:49Z</time></trkpt><trkpt lat="46.43437606843946" lon="12.726731725896402"><ele>1162.0</ele><time>2026-04-12T12:19:50Z</time></trkpt><trkpt lat="46.43429787035392" lon="12.726677525378532"><ele>1162.0</ele><time>2026-04-12T12:19:51Z</time></trkpt><trkpt lat="46.43420851570619" lon="12.726597510887968"><ele>1162.0</ele><time>2026-04-12T12:19:53Z</time></trkpt><trkpt lat="46.43410718653758" lon="12.726531052354058"><ele>1162.0</ele><time>2026-04-12T12:19:55Z</time></trkpt><trkpt lat="46.433990788667714" lon="12.726461986173145"><ele>1162.0</ele><time>2026-04-12T12:19:57Z</time></trkpt><trkpt lat="46.43389564394062" lon="12.726407260695073"><ele>1162.0</ele><time>2026-04-12T12:19:59Z</time></trkpt><trkpt lat="46.433811516089435" lon="12.726349349146655"><ele>1162.0</ele><time>2026-04-12T12:20:01Z</time></trkpt><trkpt lat="46.433764743499324" lon="12.726278999953468"><ele>1162.0</ele><time>2026-04-12T12:20:03Z</time></trkpt><trkpt lat="46.43379236283311" lon="12.726195308739943"><ele>1162.0</ele><time>2026-04-12T12:20:07Z</time></trkpt><trkpt lat="46.43387310460758" lon="12.726213288969333"><ele>1162.0</ele><time>2026-04-12T12:20:08.999Z</time></trkpt><trkpt lat="46.43393695204958" lon="12.726201118947483"><ele>1162.0</ele><time>2026-04-12T12:20:09.999Z</time></trkpt><trkpt lat="46.43401416431688" lon="12.726228773608588"><ele>1162.0</ele><time>2026-04-12T12:20:10.999Z</time></trkpt><trkpt lat="46.434094513348775" lon="12.726257933997788"><ele>1162.0</ele><time>2026-04-12T12:20:11.999Z</time></trkpt><trkpt lat="46.43418373505955" lon="12.726289973188537"><ele>1162.0</ele><time>2026-04-12T12:20:12.999Z</time></trkpt><trkpt lat="46.43428169270423" lon="12.72633753088127"><ele>1162.0</ele><time>2026-04-12T12:20:13.999Z</time></trkpt><trkpt lat="46.43438175178173" lon="12.726395912005865"><ele>1162.0</ele><time>2026-04-12T12:20:14.999Z</time></trkpt><trkpt lat="46.43449637771794" lon="12.72646615173063"><ele>1162.0</ele><time>2026-04-12T12:20:15.999Z</time></trkpt><trkpt lat="46.43461999921143" lon="12.726536065725439"><ele>1158.25</ele><time>2026-04-12T12:20:16.999Z</time></trkpt><trkpt lat="46.43476230518898" lon="12.726603089438704"><ele>1154.5</ele><time>2026-04-12T12:20:17.999Z</time></trkpt><trkpt lat="46.434888724909634" lon="12.72666735117543"><ele>1150.75</ele><time>2026-04-12T12:20:18.999Z</time></trkpt><trkpt lat="46.43501162821504" lon="12.726722645558711"><ele>1147.0</ele><time>2026-04-12T12:20:19.999Z</time></trkpt><trkpt lat="46.43513464540488" lon="12.726772699917982"><ele>1147.0</ele><time>2026-04-12T12:20:20.999Z</time></trkpt><trkpt lat="46.43525717692695" lon="12.726812961982812"><ele>1147.0</ele><time>2026-04-12T12:20:21.999Z</time></trkpt><trkpt lat="46.43538105809458" lon="12.726820283718293"><ele>1147.0</ele><time>2026-04-12T12:20:22.999Z</time></trkpt><trkpt lat="46.43549717386211" lon="12.726841122879168"><ele>1147.0</ele><time>2026-04-12T12:20:23.999Z</time></trkpt><trkpt lat="46.435608301928184" lon="12.726880210969735"><ele>1142.4</ele><time>2026-04-12T12:20:24.999Z</time></trkpt><trkpt lat="46.43570888937196" lon="12.726883757912237"><ele>1137.8000000000002</ele><time>2026-04-12T12:20:25.999Z</time></trkpt><trkpt lat="46.43581537479634" lon="12.726889656694464"><ele>1133.2</ele><time>2026-04-12T12:20:26.999Z</time></trkpt><trkpt lat="46.43591200987429" lon="12.72691479275101"><ele>1128.6000000000001</ele><time>2026-04-12T12:20:27.999Z</time></trkpt><trkpt lat="46.43600647219268" lon="12.726940482184643"><ele>1124.0</ele><time>2026-04-12T12:20:28.999Z</time></trkpt><trkpt lat="46.436096601286394" lon="12.726956104522051"><ele>1132.2</ele><time>2026-04-12T12:20:29.999Z</time></trkpt><trkpt lat="46.43618281723049" lon="12.72697433712681"><ele>1140.4</ele><time>2026-04-12T12:20:30.999Z</time></trkpt><trkpt lat="46.43627063840781" lon="12.726997229162079"><ele>1148.6</ele><time>2026-04-12T12:20:31.999Z</time></trkpt><trkpt lat="46.43636129360806" lon="12.727019681216282"><ele>1156.8</ele><time>2026-04-12T12:20:32.999Z</time></trkpt><trkpt lat="46.43645794658039" lon="12.727035868600929"><ele>1165.0</ele><time>2026-04-12T12:20:33.999Z</time></trkpt><trkpt lat="46.4365639855266" lon="12.727049313338558"><ele>1165.0</ele><time>2026-04-12T12:20:34.999Z</time></trkpt><trkpt lat="46.43667751984889" lon="12.727045236751248"><ele>1165.0</ele><time>2026-04-12T12:20:35.999Z</time></trkpt><trkpt lat="46.43678284110694" lon="12.727034358199457"><ele>1165.0</ele><time>2026-04-12T12:20:36.999Z</time></trkpt><trkpt lat="46.43688206791017" lon="12.727019831377183"><ele>1165.0</ele><time>2026-04-12T12:20:37.999Z</time></trkpt><trkpt lat="46.43697889123025" lon="12.727043674395986"><ele>1165.0</ele><time>2026-04-12T12:20:38.999Z</time></trkpt><trkpt lat="46.43707394171715" lon="12.727046721896217"><ele>1162.2</ele><time>2026-04-12T12:20:39.999Z</time></trkpt><trkpt lat="46.437170670404754" lon="12.72702962304693"><ele>1159.4</ele><time>2026-04-12T12:20:40.999Z</time></trkpt><trkpt lat="46.43726010906328" lon="12.72705045906334"><ele>1156.6</ele><time>2026-04-12T12:20:41.999Z</time></trkpt><trkpt lat="46.437363199216435" lon="12.72706909862978"><ele>1153.8</ele><time>2026-04-12T12:20:42.999Z</time></trkpt><trkpt lat="46.437464999371336" lon="12.727082985884927"><ele>1151.0</ele><time>2026-04-12T12:20:43.999Z</time></trkpt><trkpt lat="46.43756403218645" lon="12.727057683595149"><ele>1151.0</ele><time>2026-04-12T12:20:44.999Z</time></trkpt><trkpt lat="46.43766522845424" lon="12.727048131516955"><ele>1151.0</ele><time>2026-04-12T12:20:45.999Z</time></trkpt><trkpt lat="46.43776139908278" lon="12.727039053819075"><ele>1151.0</ele><time>2026-04-12T12:20:46.999Z</time></trkpt><trkpt lat="46.43785506631142" lon="12.727030212420456"><ele>1151.0</ele><time>2026-04-12T12:20:47.999Z</time></trkpt><trkpt lat="46.43794616814448" lon="12.727024066203652"><ele>1151.0</ele><time>2026-04-12T12:20:48.999Z</time></trkpt><trkpt lat="46.4380386833069" lon="12.72699683309329"><ele>1149.2</ele><time>2026-04-12T12:20:49.999Z</time></trkpt><trkpt lat="46.43813618322291" lon="12.726995216322772"><ele>1147.3999999999999</ele><time>2026-04-12T12:20:50.999Z</time></trkpt><trkpt lat="46.43823560131285" lon="12.727013439854177"><ele>1145.6</ele><time>2026-04-12T12:20:51.999Z</time></trkpt><trkpt lat="46.43833623829619" lon="12.72699865366934"><ele>1143.8</ele><time>2026-04-12T12:20:52.999Z</time></trkpt><trkpt lat="46.43844051258624" lon="12.726994107987533"><ele>1142.0</ele><time>2026-04-12T12:20:53.999Z</time></trkpt><trkpt lat="46.438542021202416" lon="12.72699073130681"><ele>1142.0</ele><time>2026-04-12T12:20:54.999Z</time></trkpt><trkpt lat="46.43864680027942" lon="12.726992965941903"><ele>1142.0</ele><time>2026-04-12T12:20:55.999Z</time></trkpt><trkpt lat="46.43875680550358" lon="12.726998680241856"><ele>1142.0</ele><time>2026-04-12T12:20:56.999Z</time></trkpt><trkpt lat="46.43886409834689" lon="12.727011831488973"><ele>1142.0</ele><time>2026-04-12T12:20:57.999Z</time></trkpt><trkpt lat="46.43897903338591" lon="12.727032245271385"><ele>1142.0</ele><time>2026-04-12T12:20:58.999Z</time></trkpt><trkpt lat="46.43909235674983" lon="12.72705337179266"><ele>1141.25</ele><time>2026-04-12T12:20:59.999Z</time></trkpt><trkpt lat="46.43920415927846" lon="12.727092828689202"><ele>1140.5</ele><time>2026-04-12T12:21:00.999Z</time></trkpt><trkpt lat="46.439318422044906" lon="12.727093421707412"><ele>1139.75</ele><time>2026-04-12T12:21:01.999Z</time></trkpt><trkpt lat="46.439434242103104" lon="12.727072358501548"><ele>1139.0</ele><time>2026-04-12T12:21:02.999Z</time></trkpt><trkpt lat="46.43955098760728" lon="12.727082268536952"><ele>1135.5</ele><time>2026-04-12T12:21:03.999Z</time></trkpt><trkpt lat="46.43967440446635" lon="12.727075022891855"><ele>1132.0</ele><time>2026-04-12T12:21:04.999Z</time></trkpt><trkpt lat="46.439796555645" lon="12.727061531572724"><ele>1128.5</ele><time>2026-04-12T12:21:05.999Z</time></trkpt><trkpt lat="46.439919307689415" lon="12.727044598841529"><ele>1125.0</ele><time>2026-04-12T12:21:06.999Z</time></trkpt><trkpt lat="46.44004035275761" lon="12.727023344931917"><ele>1125.0</ele><time>2026-04-12T12:21:07.999Z</time></trkpt><trkpt lat="46.44016300502496" lon="12.727019853417675"><ele>1125.0</ele><time>2026-04-12T12:21:08.999Z</time></trkpt><trkpt lat="46.4402783747408" lon="12.727010541741967"><ele>1125.0</ele><time>2026-04-12T12:21:09.999Z</time></trkpt><trkpt lat="46.440388458554125" lon="12.727001832214215"><ele>1125.0</ele><time>2026-04-12T12:21:10.999Z</time></trkpt><trkpt lat="46.440491833093205" lon="12.72698968144433"><ele>1121.2</ele><time>2026-04-12T12:21:11.999Z</time></trkpt><trkpt lat="46.44059143979008" lon="12.72697869515202"><ele>1117.4</ele><time>2026-04-12T12:21:12.999Z</time></trkpt><trkpt lat="46.44068782817387" lon="12.72696450053651"><ele>1113.6</ele><time>2026-04-12T12:21:13.999Z</time></trkpt><trkpt lat="46.44077873748368" lon="12.726942453910711"><ele>1109.8</ele><time>2026-04-12T12:21:15Z</time></trkpt><trkpt lat="46.440869385156645" lon="12.726926807872609"><ele>1106.0</ele><time>2026-04-12T12:21:16Z</time></trkpt><trkpt lat="46.44096288391896" lon="12.726951301658955"><ele>1106.0</ele><time>2026-04-12T12:21:17Z</time></trkpt><trkpt lat="46.441059148629655" lon="12.72693964979933"><ele>1106.0</ele><time>2026-04-12T12:21:18Z</time></trkpt><trkpt lat="46.44116028835908" lon="12.726964804683098"><ele>1106.0</ele><time>2026-04-12T12:21:19Z</time></trkpt><trkpt lat="46.44126479651019" lon="12.726994387219662"><ele>1106.0</ele><time>2026-04-12T12:21:20Z</time></trkpt><trkpt lat="46.44136801806153" lon="12.727029661162154"><ele>1106.0</ele><time>2026-04-12T12:21:21Z</time></trkpt><trkpt lat="46.44147180596492" lon="12.727069759997342"><ele>1101.75</ele><time>2026-04-12T12:21:22Z</time></trkpt><trkpt lat="46.441577159755475" lon="12.727112827958797"><ele>1097.5</ele><time>2026-04-12T12:21:23Z</time></trkpt><trkpt lat="46.44168452184612" lon="12.727161197906455"><ele>1093.25</ele><time>2026-04-12T12:21:24Z</time></trkpt><trkpt lat="46.44179521950802" lon="12.727206891213843"><ele>1089.0</ele><time>2026-04-12T12:21:25Z</time></trkpt><trkpt lat="46.44190892204612" lon="12.727242955534468"><ele>1089.0</ele><time>2026-04-12T12:21:26Z</time></trkpt><trkpt lat="46.442019813561856" lon="12.727286367770883"><ele>1089.0</ele><time>2026-04-12T12:21:27Z</time></trkpt><trkpt lat="46.442120852444546" lon="12.727320083707118"><ele>1089.0</ele><time>2026-04-12T12:21:28Z</time></trkpt><trkpt lat="46.442216338137655" lon="12.727353012098076"><ele>1089.0</ele><time>2026-04-12T12:21:29Z</time></trkpt><trkpt lat="46.4423088331095" lon="12.727384204913603"><ele>1089.0</ele><time>2026-04-12T12:21:30Z</time></trkpt><trkpt lat="46.442394574190956" lon="12.727417934209965"><ele>1085.6666666666667</ele><time>2026-04-12T12:21:31Z</time></trkpt><trkpt lat="46.442478803066045" lon="12.727445417862961"><ele>1082.3333333333333</ele><time>2026-04-12T12:21:32Z</time></trkpt><trkpt lat="46.44255967121516" lon="12.727480518259506"><ele>1079.0</ele><time>2026-04-12T12:21:33Z</time></trkpt><trkpt lat="46.4426413387942" lon="12.727515443075317"><ele>1075.6666666666665</ele><time>2026-04-12T12:21:34Z</time></trkpt><trkpt lat="46.44271909615719" lon="12.727545075020636"><ele>1072.3333333333333</ele><time>2026-04-12T12:21:35Z</time></trkpt><trkpt lat="46.44280008510345" lon="12.727574186216117"><ele>1069.0</ele><time>2026-04-12T12:21:36Z</time></trkpt><trkpt lat="46.44286038489547" lon="12.727636764912123"><ele>1069.0</ele><time>2026-04-12T12:21:37Z</time></trkpt><trkpt lat="46.442922438270124" lon="12.727682962657529"><ele>1069.0</ele><time>2026-04-12T12:21:38Z</time></trkpt><trkpt lat="46.44298577192853" lon="12.727729188966562"><ele>1069.0</ele><time>2026-04-12T12:21:39Z</time></trkpt><trkpt lat="46.443050221208516" lon="12.727765956652288"><ele>1069.0</ele><time>2026-04-12T12:21:40Z</time></trkpt><trkpt lat="46.44311580678297" lon="12.727786921390111"><ele>1069.0</ele><time>2026-04-12T12:21:41Z</time></trkpt><trkpt lat="46.44319640829141" lon="12.727798273482625"><ele>1069.0</ele><time>2026-04-12T12:21:43Z</time></trkpt><trkpt lat="46.44326086446113" lon="12.727762267793635"><ele>1069.0</ele><time>2026-04-12T12:21:45Z</time></trkpt><trkpt lat="46.44326042401418" lon="12.72763857636742"><ele>1069.0</ele><time>2026-04-12T12:21:48Z</time></trkpt><trkpt lat="46.44320766875659" lon="12.727508709270058"><ele>1069.0</ele><time>2026-04-12T12:21:50Z</time></trkpt><trkpt lat="46.44315729875638" lon="12.727435652804306"><ele>1069.0</ele><time>2026-04-12T12:21:51Z</time></trkpt><trkpt lat="46.443105943662374" lon="12.727367389412658"><ele>1069.0</ele><time>2026-04-12T12:21:52Z</time></trkpt><trkpt lat="46.443044513352085" lon="12.727289803187302"><ele>1069.0</ele><time>2026-04-12T12:21:53Z</time></trkpt><trkpt lat="46.442983689972145" lon="12.727216489987596"><ele>1069.0</ele><time>2026-04-12T12:21:54Z</time></trkpt><trkpt lat="46.442915614969706" lon="12.727138231814044"><ele>1069.0</ele><time>2026-04-12T12:21:55Z</time></trkpt><trkpt lat="46.4428446072824" lon="12.72706910011555"><ele>1069.0</ele><time>2026-04-12T12:21:56Z</time></trkpt><trkpt lat="46.44277783543005" lon="12.727018535057185"><ele>1069.0</ele><time>2026-04-12T12:21:57Z</time></trkpt><trkpt lat="46.44271692392368" lon="12.72693075185968"><ele>1069.0</ele><time>2026-04-12T12:21:58Z</time></trkpt><trkpt lat="46.44265340000369" lon="12.726863918867052"><ele>1069.0</ele><time>2026-04-12T12:21:59Z</time></trkpt><trkpt lat="46.442578565744846" lon="12.72679531061043"><ele>1069.0</ele><time>2026-04-12T12:22:00Z</time></trkpt><trkpt lat="46.44249753177254" lon="12.726733834808913"><ele>1067.5</ele><time>2026-04-12T12:22:01Z</time></trkpt><trkpt lat="46.44242365006941" lon="12.726687639373864"><ele>1066.0</ele><time>2026-04-12T12:22:02Z</time></trkpt><trkpt lat="46.442357418520245" lon="12.726634021388739"><ele>1064.5</ele><time>2026-04-12T12:22:03Z</time></trkpt><trkpt lat="46.44229834572705" lon="12.72657223082563"><ele>1063.0</ele><time>2026-04-12T12:22:04Z</time></trkpt><trkpt lat="46.44223510056881" lon="12.726504799842534"><ele>1061.5</ele><time>2026-04-12T12:22:05Z</time></trkpt><trkpt lat="46.442170759662446" lon="12.726440061597431"><ele>1060.0</ele><time>2026-04-12T12:22:06Z</time></trkpt><trkpt lat="46.44210048542827" lon="12.72638370891034"><ele>1059.9999999999998</ele><time>2026-04-12T12:22:07Z</time></trkpt><trkpt lat="46.44202969090575" lon="12.726351779154331"><ele>1060.0</ele><time>2026-04-12T12:22:08Z</time></trkpt><trkpt lat="46.441953267386246" lon="12.726313297853826"><ele>1060.0</ele><time>2026-04-12T12:22:09Z</time></trkpt><trkpt lat="46.44188816040212" lon="12.726252331627206"><ele>1060.0</ele><time>2026-04-12T12:22:10Z</time></trkpt><trkpt lat="46.441829803276335" lon="12.726216156970946"><ele>1060.0</ele><time>2026-04-12T12:22:11Z</time></trkpt><trkpt lat="46.44179339675638" lon="12.726136008449751"><ele>1059.9999999999998</ele><time>2026-04-12T12:22:12.999Z</time></trkpt><trkpt lat="46.441797221880385" lon="12.72604126333958"><ele>1060.0</ele><time>2026-04-12T12:22:15.999Z</time></trkpt><trkpt lat="46.44190556611297" lon="12.726096933089023"><ele>1060.0</ele><time>2026-04-12T12:22:17.999Z</time></trkpt><trkpt lat="46.44196717996455" lon="12.726132410618082"><ele>1060.0</ele><time>2026-04-12T12:22:18.999Z</time></trkpt><trkpt lat="46.44204007589885" lon="12.726167237777616"><ele>1060.0</ele><time>2026-04-12T12:22:19.999Z</time></trkpt><trkpt lat="46.442114920621975" lon="12.726197838256503"><ele>1060.0</ele><time>2026-04-12T12:22:20.999Z</time></trkpt><trkpt lat="46.4421973922245" lon="12.726216852091396"><ele>1060.0</ele><time>2026-04-12T12:22:21.999Z</time></trkpt><trkpt lat="46.44227916890732" lon="12.726235746817332"><ele>1060.0</ele><time>2026-04-12T12:22:22.999Z</time></trkpt><trkpt lat="46.44236063944599" lon="12.726256806595002"><ele>1056.3333333333333</ele><time>2026-04-12T12:22:23.999Z</time></trkpt><trkpt lat="46.44244358491979" lon="12.726279205369211"><ele>1052.6666666666665</ele><time>2026-04-12T12:22:24.999Z</time></trkpt><trkpt lat="46.44252808843415" lon="12.726298961051173"><ele>1049.0</ele><time>2026-04-12T12:22:25.999Z</time></trkpt><trkpt lat="46.44261529625717" lon="12.726321960494467"><ele>1045.3333333333333</ele><time>2026-04-12T12:22:26.999Z</time></trkpt><trkpt lat="46.442697342389735" lon="12.726358408971558"><ele>1041.6666666666667</ele><time>2026-04-12T12:22:27.999Z</time></trkpt><trkpt lat="46.44277896487251" lon="12.726401035458734"><ele>1038.0</ele><time>2026-04-12T12:22:28.999Z</time></trkpt><trkpt lat="46.442870657766775" lon="12.726451778053809"><ele>1038.0</ele><time>2026-04-12T12:22:29.999Z</time></trkpt><trkpt lat="46.442963092399474" lon="12.726514202599136"><ele>1038.0</ele><time>2026-04-12T12:22:30.999Z</time></trkpt><trkpt lat="46.443072611980824" lon="12.726584070955246"><ele>1038.0</ele><time>2026-04-12T12:22:31.999Z</time></trkpt><trkpt lat="46.443183322364135" lon="12.72665081226236"><ele>1038.0</ele><time>2026-04-12T12:22:32.999Z</time></trkpt><trkpt lat="46.44329224227393" lon="12.726719576280404"><ele>1039.4</ele><time>2026-04-12T12:22:33.999Z</time></trkpt><trkpt lat="46.443395866243925" lon="12.72677147975829"><ele>1040.8</ele><time>2026-04-12T12:22:34.999Z</time></trkpt><trkpt lat="46.44349170672785" lon="12.72682157584452"><ele>1042.2</ele><time>2026-04-12T12:22:35.999Z</time></trkpt><trkpt lat="46.443581112071854" lon="12.726869083228543"><ele>1043.6</ele><time>2026-04-12T12:22:36.999Z</time></trkpt><trkpt lat="46.443673702457055" lon="12.726919900952991"><ele>1045.0</ele><time>2026-04-12T12:22:37.999Z</time></trkpt><trkpt lat="46.44375522370385" lon="12.72695253355386"><ele>1042.1666666666665</ele><time>2026-04-12T12:22:38.999Z</time></trkpt><trkpt lat="46.44383597262767" lon="12.726984920221161"><ele>1039.3333333333333</ele><time>2026-04-12T12:22:39.999Z</time></trkpt><trkpt lat="46.443910918610484" lon="12.72700900137385"><ele>1036.5</ele><time>2026-04-12T12:22:40.999Z</time></trkpt><trkpt lat="46.443977180507254" lon="12.727033573830651"><ele>1033.6666666666667</ele><time>2026-04-12T12:22:41.999Z</time></trkpt><trkpt lat="46.4440704275359" lon="12.727036982868887"><ele>1030.8333333333335</ele><time>2026-04-12T12:22:43.999Z</time></trkpt><trkpt lat="46.44411694007642" lon="12.726919421498428"><ele>1028.0</ele><time>2026-04-12T12:22:45.999Z</time></trkpt><trkpt lat="46.44409058741035" lon="12.726808922099716"><ele>1026.8333333333335</ele><time>2026-04-12T12:22:46.999Z</time></trkpt><trkpt lat="46.44401715890022" lon="12.726693011571667"><ele>1025.6666666666667</ele><time>2026-04-12T12:22:47.999Z</time></trkpt><trkpt lat="46.443954443682735" lon="12.726639138070848"><ele>1024.5</ele><time>2026-04-12T12:22:48.999Z</time></trkpt><trkpt lat="46.443895836269064" lon="12.726595254508558"><ele>1023.3333333333333</ele><time>2026-04-12T12:22:49.999Z</time></trkpt><trkpt lat="46.44380318124577" lon="12.726530676924142"><ele>1022.1666666666666</ele><time>2026-04-12T12:22:51.999Z</time></trkpt><trkpt lat="46.44373860370032" lon="12.726481299675893"><ele>1021.0</ele><time>2026-04-12T12:22:53.999Z</time></trkpt><trkpt lat="46.44366628362676" lon="12.726421826272144"><ele>1021.0</ele><time>2026-04-12T12:22:55.999Z</time></trkpt><trkpt lat="46.443602002231785" lon="12.72638894182691"><ele>1020.9999999999999</ele><time>2026-04-12T12:22:58.999Z</time></trkpt><trkpt lat="46.44367936373387" lon="12.726499359692912"><ele>1020.9999999999999</ele><time>2026-04-12T12:23:01.999Z</time></trkpt><trkpt lat="46.44378446318582" lon="12.72659552584852"><ele>1021.0</ele><time>2026-04-12T12:23:03.999Z</time></trkpt><trkpt lat="46.44386499875658" lon="12.726630854957344"><ele>1021.0</ele><time>2026-04-12T12:23:04.999Z</time></trkpt><trkpt lat="46.443949905109235" lon="12.726647293876278"><ele>1016.4</ele><time>2026-04-12T12:23:05.999Z</time></trkpt><trkpt lat="46.444043627470506" lon="12.726618967105187"><ele>1011.8</ele><time>2026-04-12T12:23:06.999Z</time></trkpt><trkpt lat="46.4441450000504" lon="12.72662054786118"><ele>1007.1999999999999</ele><time>2026-04-12T12:23:07.999Z</time></trkpt><trkpt lat="46.44424730884285" lon="12.726651262959134"><ele>1002.5999999999999</ele><time>2026-04-12T12:23:08.999Z</time></trkpt><trkpt lat="46.44435013604043" lon="12.726670535990888"><ele>998.0</ele><time>2026-04-12T12:23:09.999Z</time></trkpt><trkpt lat="46.44445236124141" lon="12.726700332743011"><ele>998.0</ele><time>2026-04-12T12:23:10.999Z</time></trkpt><trkpt lat="46.444546176018584" lon="12.726746773309038"><ele>998.0</ele><time>2026-04-12T12:23:11.999Z</time></trkpt><trkpt lat="46.44463161131982" lon="12.726804767312084"><ele>998.0</ele><time>2026-04-12T12:23:12.999Z</time></trkpt><trkpt lat="46.44471311213463" lon="12.726864165018238"><ele>998.0</ele><time>2026-04-12T12:23:13.999Z</time></trkpt><trkpt lat="46.444792952785185" lon="12.726927201195744"><ele>998.0</ele><time>2026-04-12T12:23:14.999Z</time></trkpt><trkpt lat="46.444874094440884" lon="12.726985459692475"><ele>999.6666666666667</ele><time>2026-04-12T12:23:15.999Z</time></trkpt><trkpt lat="46.444949916590865" lon="12.72703325053517"><ele>1001.3333333333334</ele><time>2026-04-12T12:23:16.999Z</time></trkpt><trkpt lat="46.44501157854519" lon="12.727085775931117"><ele>1003.0</ele><time>2026-04-12T12:23:17.999Z</time></trkpt><trkpt lat="46.44508288634814" lon="12.727129134521135"><ele>1004.6666666666667</ele><time>2026-04-12T12:23:18.999Z</time></trkpt><trkpt lat="46.445152740244005" lon="12.727185459653032"><ele>1006.3333333333334</ele><time>2026-04-12T12:23:20Z</time></trkpt><trkpt lat="46.44522616720181" lon="12.727243430717179"><ele>1008.0</ele><time>2026-04-12T12:23:21Z</time></trkpt><trkpt lat="46.4452925020654" lon="12.72729889852129"><ele>1008.0</ele><time>2026-04-12T12:23:22Z</time></trkpt><trkpt lat="46.445361092213155" lon="12.727358677655557"><ele>1008.0</ele><time>2026-04-12T12:23:23Z</time></trkpt><trkpt lat="46.44540682445275" lon="12.727449505087058"><ele>1008.0</ele><time>2026-04-12T12:23:24Z</time></trkpt><trkpt lat="46.4454375845053" lon="12.727538797134418"><ele>1008.0</ele><time>2026-04-12T12:23:25Z</time></trkpt><trkpt lat="46.445464509077716" lon="12.727638797748526"><ele>1008.0</ele><time>2026-04-12T12:23:26Z</time></trkpt><trkpt lat="46.445493830843226" lon="12.72774800180501"><ele>1008.0</ele><time>2026-04-12T12:23:27Z</time></trkpt><trkpt lat="46.44554378416896" lon="12.72786825414896"><ele>1006.5999999999999</ele><time>2026-04-12T12:23:28Z</time></trkpt><trkpt lat="46.44559764077385" lon="12.72799758584639"><ele>1005.1999999999999</ele><time>2026-04-12T12:23:29Z</time></trkpt><trkpt lat="46.445683301410334" lon="12.728113357379923"><ele>1003.8</ele><time>2026-04-12T12:23:30Z</time></trkpt><trkpt lat="46.44576348445906" lon="12.728220795832224"><ele>1002.4</ele><time>2026-04-12T12:23:31Z</time></trkpt><trkpt lat="46.445839975437934" lon="12.728313194122906"><ele>1001.0</ele><time>2026-04-12T12:23:32Z</time></trkpt><trkpt lat="46.44591101720384" lon="12.728387273412302"><ele>1001.0000000000001</ele><time>2026-04-12T12:23:33Z</time></trkpt><trkpt lat="46.445979091308445" lon="12.728461169881847"><ele>1001.0</ele><time>2026-04-12T12:23:34Z</time></trkpt><trkpt lat="46.446039333781236" lon="12.728540050659861"><ele>1001.0</ele><time>2026-04-12T12:23:35Z</time></trkpt><trkpt lat="46.44610284650091" lon="12.728608484596249"><ele>1001.0</ele><time>2026-04-12T12:23:36Z</time></trkpt><trkpt lat="46.44616301667206" lon="12.728681115447198"><ele>1001.0000000000001</ele><time>2026-04-12T12:23:37Z</time></trkpt><trkpt lat="46.44621685080247" lon="12.728763702518727"><ele>1001.0</ele><time>2026-04-12T12:23:38Z</time></trkpt><trkpt lat="46.44626703087508" lon="12.728853905536134"><ele>995.5999999999999</ele><time>2026-04-12T12:23:39Z</time></trkpt><trkpt lat="46.44630373481332" lon="12.72895269377392"><ele>990.1999999999999</ele><time>2026-04-12T12:23:40Z</time></trkpt><trkpt lat="46.44633332986508" lon="12.72906966589174"><ele>984.8000000000001</ele><time>2026-04-12T12:23:41Z</time></trkpt><trkpt lat="46.44635207063147" lon="12.729204662279836"><ele>979.4000000000001</ele><time>2026-04-12T12:23:42Z</time></trkpt><trkpt lat="46.44636601939474" lon="12.729362855840225"><ele>974.0</ele><time>2026-04-12T12:23:43Z</time></trkpt><trkpt lat="46.446370572119356" lon="12.729527278940564"><ele>974.0</ele><time>2026-04-12T12:23:44Z</time></trkpt><trkpt lat="46.446371837163476" lon="12.729686674480515"><ele>974.0000000000001</ele><time>2026-04-12T12:23:45Z</time></trkpt><trkpt lat="46.446373192960735" lon="12.729844053731552"><ele>974.0000000000001</ele><time>2026-04-12T12:23:46Z</time></trkpt><trkpt lat="46.446377073217846" lon="12.730001109334651"><ele>974.0</ele><time>2026-04-12T12:23:47Z</time></trkpt><trkpt lat="46.446384229292775" lon="12.730156737848178"><ele>974.0</ele><time>2026-04-12T12:23:48Z</time></trkpt><trkpt lat="46.44639330157347" lon="12.73031060147815"><ele>976.0</ele><time>2026-04-12T12:23:49Z</time></trkpt><trkpt lat="46.44640516491369" lon="12.730464375518006"><ele>978.0000000000001</ele><time>2026-04-12T12:23:50Z</time></trkpt><trkpt lat="46.446433579742276" lon="12.730609500498606"><ele>980.0000000000001</ele><time>2026-04-12T12:23:51Z</time></trkpt><trkpt lat="46.446451770824126" lon="12.730751347537856"><ele>982.0</ele><time>2026-04-12T12:23:52Z</time></trkpt><trkpt lat="46.446489286424246" lon="12.73089863463097"><ele>984.0</ele><time>2026-04-12T12:23:53Z</time></trkpt><trkpt lat="46.446530886954854" lon="12.731057485265032"><ele>987.6</ele><time>2026-04-12T12:23:54Z</time></trkpt><trkpt lat="46.44656949771424" lon="12.73121745738336"><ele>991.2</ele><time>2026-04-12T12:23:55Z</time></trkpt><trkpt lat="46.446599041326586" lon="12.731376474254755"><ele>994.8000000000001</ele><time>2026-04-12T12:23:56Z</time></trkpt><trkpt lat="46.44663122928724" lon="12.731515552635937"><ele>998.4000000000001</ele><time>2026-04-12T12:23:57Z</time></trkpt><trkpt lat="46.44666843175431" lon="12.731636270346938"><ele>1002.0</ele><time>2026-04-12T12:23:58Z</time></trkpt><trkpt lat="46.44669974290404" lon="12.731740579412921"><ele>1002.0</ele><time>2026-04-12T12:23:59Z</time></trkpt><trkpt lat="46.44671336974937" lon="12.731836878678756"><ele>1002.0</ele><time>2026-04-12T12:24:00Z</time></trkpt><trkpt lat="46.44673764046945" lon="12.731930814785281"><ele>1002.0</ele><time>2026-04-12T12:24:01Z</time></trkpt><trkpt lat="46.44676305798527" lon="12.732027088351956"><ele>1002.0</ele><time>2026-04-12T12:24:02Z</time></trkpt><trkpt lat="46.44678803489281" lon="12.73212169303346"><ele>1002.0</ele><time>2026-04-12T12:24:03Z</time></trkpt><trkpt lat="46.446815525298554" lon="12.732225790499468"><ele>1002.0</ele><time>2026-04-12T12:24:04Z</time></trkpt><trkpt lat="46.44684306702451" lon="12.73233113918026"><ele>1002.0</ele><time>2026-04-12T12:24:05Z</time></trkpt><trkpt lat="46.446870898846626" lon="12.732433598219043"><ele>1004.0</ele><time>2026-04-12T12:24:06Z</time></trkpt><trkpt lat="46.44690936317517" lon="12.732521014964714"><ele>1006.0</ele><time>2026-04-12T12:24:07Z</time></trkpt><trkpt lat="46.446915857983335" lon="12.732627133825982"><ele>1008.0</ele><time>2026-04-12T12:24:08Z</time></trkpt><trkpt lat="46.446924179796156" lon="12.732734009105075"><ele>1010.0</ele><time>2026-04-12T12:24:09Z</time></trkpt><trkpt lat="46.446962386635974" lon="12.732825895941877"><ele>1012.0</ele><time>2026-04-12T12:24:10Z</time></trkpt><trkpt lat="46.44698699890805" lon="12.732928022804337"><ele>1014.0</ele><time>2026-04-12T12:24:11Z</time></trkpt><trkpt lat="46.44700575903151" lon="12.733031564719152"><ele>1016.0</ele><time>2026-04-12T12:24:12Z</time></trkpt><trkpt lat="46.44702624757942" lon="12.733142284464437"><ele>1011.6666666666667</ele><time>2026-04-12T12:24:13Z</time></trkpt><trkpt lat="46.44704266977301" lon="12.733243010960667"><ele>1007.3333333333334</ele><time>2026-04-12T12:24:14Z</time></trkpt><trkpt lat="46.447060425930104" lon="12.733351919614705"><ele>1003.0</ele><time>2026-04-12T12:24:15Z</time></trkpt><trkpt lat="46.44707986297049" lon="12.733471138103784"><ele>998.6666666666667</ele><time>2026-04-12T12:24:16Z</time></trkpt><trkpt lat="46.447100425808536" lon="12.733597261850992"><ele>994.3333333333334</ele><time>2026-04-12T12:24:16.999Z</time></trkpt><trkpt lat="46.447121455705016" lon="12.733721356595465"><ele>990.0</ele><time>2026-04-12T12:24:17.999Z</time></trkpt><trkpt lat="46.447146276688805" lon="12.733858885962198"><ele>990.0</ele><time>2026-04-12T12:24:19.07Z</time></trkpt><trkpt lat="46.44717060751568" lon="12.733993699484337"><ele>990.0</ele><time>2026-04-12T12:24:20.036Z</time></trkpt><trkpt lat="46.44719559078569" lon="12.734132128054181"><ele>990.0</ele><time>2026-04-12T12:24:21.032Z</time></trkpt><trkpt lat="46.44721938558557" lon="12.734268483649164"><ele>990.0</ele><time>2026-04-12T12:24:22.03Z</time></trkpt><trkpt lat="46.447357612321085" lon="12.734926686002922"><ele>991.4</ele><time>2026-04-12T12:24:26.729Z</time></trkpt><trkpt lat="46.44737791962797" lon="12.735068018720597"><ele>992.8</ele><time>2026-04-12T12:24:27.73Z</time></trkpt><trkpt lat="46.4473811516583" lon="12.735213590578761"><ele>994.2</ele><time>2026-04-12T12:24:28.726Z</time></trkpt><trkpt lat="46.44740011061594" lon="12.735354686236454"><ele>995.6</ele><time>2026-04-12T12:24:29.726Z</time></trkpt><trkpt lat="46.44741723743943" lon="12.735497035396666"><ele>997.0</ele><time>2026-04-12T12:24:30.728Z</time></trkpt><trkpt lat="46.447449567934164" lon="12.735635313657225"><ele>997.0</ele><time>2026-04-12T12:24:31.729Z</time></trkpt><trkpt lat="46.44746137383998" lon="12.735778807964046"><ele>997.0</ele><time>2026-04-12T12:24:32.731Z</time></trkpt><trkpt lat="46.44747076176022" lon="12.73592208945343"><ele>997.0</ele><time>2026-04-12T12:24:33.729Z</time></trkpt><trkpt lat="46.44746358933853" lon="12.736068197915484"><ele>997.0</ele><time>2026-04-12T12:24:34.73Z</time></trkpt><trkpt lat="46.447475348365415" lon="12.73621270980292"><ele>997.0</ele><time>2026-04-12T12:24:35.73Z</time></trkpt><trkpt lat="46.44749258635007" lon="12.73635572514623"><ele>1007.25</ele><time>2026-04-12T12:24:36.731Z</time></trkpt><trkpt lat="46.447541041327234" lon="12.736487360716804"><ele>1017.5</ele><time>2026-04-12T12:24:37.728Z</time></trkpt><trkpt lat="46.447573654089474" lon="12.736626734460442"><ele>1027.75</ele><time>2026-04-12T12:24:38.73Z</time></trkpt><trkpt lat="46.447637226646144" lon="12.736726192105909"><ele>1038.0</ele><time>2026-04-12T12:24:39.728Z</time></trkpt><trkpt lat="46.447791089432975" lon="12.736782869231993"><ele>1038.0</ele><time>2026-04-12T12:25:21.999Z</time></trkpt><trkpt lat="46.44784015132701" lon="12.736966716002721"><ele>1038.0</ele><time>2026-04-12T12:25:22.999Z</time></trkpt><trkpt lat="46.447789824794086" lon="12.737027807845223"><ele>1038.0</ele><time>2026-04-12T12:26:08Z</time></trkpt><trkpt lat="46.447744342497074" lon="12.736957523002225"><ele>1038.0</ele><time>2026-04-12T12:26:23.999Z</time></trkpt><trkpt lat="46.44776610248964" lon="12.736859953357415"><ele>1038.0</ele><time>2026-04-12T12:26:42.999Z</time></trkpt><trkpt lat="46.44775024473963" lon="12.736766025433985"><ele>1038.0</ele><time>2026-04-12T12:26:49.999Z</time></trkpt><trkpt lat="46.447774944149906" lon="12.7366810560357"><ele>1038.0</ele><time>2026-04-12T12:27:52Z</time></trkpt><trkpt lat="46.447725671174936" lon="12.736767881372437"><ele>1038.0</ele><time>2026-04-12T12:28:06Z</time></trkpt><trkpt lat="46.447705871506116" lon="12.73686382780856"><ele>1038.0</ele><time>2026-04-12T12:28:16.999Z</time></trkpt><trkpt lat="46.44770459077401" lon="12.73696718418472"><ele>1038.0</ele><time>2026-04-12T12:28:27.999Z</time></trkpt><trkpt lat="46.44775313580244" lon="12.737036281832843"><ele>1038.0</ele><time>2026-04-12T12:28:46.999Z</time></trkpt><trkpt lat="46.44779217405804" lon="12.736952969208195"><ele>1038.0</ele><time>2026-04-12T12:29:21.999Z</time></trkpt><trkpt lat="46.44771741643532" lon="12.736943425135403"><ele>1038.0</ele><time>2026-04-12T12:33:59Z</time></trkpt><trkpt lat="46.447684419283775" lon="12.73684526270244"><ele>1038.0</ele><time>2026-04-12T12:34:03Z</time></trkpt><trkpt lat="46.44770956656008" lon="12.736714053515488"><ele>1038.0</ele><time>2026-04-12T12:34:05Z</time></trkpt><trkpt lat="46.447753364956" lon="12.736596387119228"><ele>1038.0</ele><time>2026-04-12T12:34:07Z</time></trkpt><trkpt lat="46.447812055609745" lon="12.73645929829541"><ele>1038.0</ele><time>2026-04-12T12:34:09Z</time></trkpt><trkpt lat="46.44788108546182" lon="12.736338387169935"><ele>1038.0</ele><time>2026-04-12T12:34:11Z</time></trkpt><trkpt lat="46.44792614198094" lon="12.736272232448608"><ele>1026.8333333333333</ele><time>2026-04-12T12:34:12Z</time></trkpt><trkpt lat="46.44798048358017" lon="12.736212977632336"><ele>1015.6666666666667</ele><time>2026-04-12T12:34:13Z</time></trkpt><trkpt lat="46.448038310351635" lon="12.73616213981411"><ele>1004.5</ele><time>2026-04-12T12:34:14Z</time></trkpt><trkpt lat="46.44809492133494" lon="12.736120872536622"><ele>993.3333333333334</ele><time>2026-04-12T12:34:15Z</time></trkpt><trkpt lat="46.448209821255276" lon="12.736062578545274"><ele>982.1666666666667</ele><time>2026-04-12T12:34:17Z</time></trkpt><trkpt lat="46.448317962357976" lon="12.736040479478367"><ele>971.0</ele><time>2026-04-12T12:34:19Z</time></trkpt><trkpt lat="46.448421099371934" lon="12.736037877703833"><ele>970.3333333333334</ele><time>2026-04-12T12:34:21Z</time></trkpt><trkpt lat="46.44853486234986" lon="12.736054783305269"><ele>969.6666666666667</ele><time>2026-04-12T12:34:23Z</time></trkpt><trkpt lat="46.44860328771134" lon="12.736080697762873"><ele>969.0</ele><time>2026-04-12T12:34:24Z</time></trkpt><trkpt lat="46.44867592215728" lon="12.7361192406964"><ele>968.3333333333333</ele><time>2026-04-12T12:34:25Z</time></trkpt><trkpt lat="46.448749133448885" lon="12.736171092718534"><ele>967.6666666666666</ele><time>2026-04-12T12:34:26Z</time></trkpt><trkpt lat="46.448827258846165" lon="12.73623622914362"><ele>967.0</ele><time>2026-04-12T12:34:27Z</time></trkpt><trkpt lat="46.448906214748675" lon="12.736315440804576"><ele>973.2</ele><time>2026-04-12T12:34:28Z</time></trkpt><trkpt lat="46.448985887959246" lon="12.736404978424753"><ele>979.4000000000001</ele><time>2026-04-12T12:34:29Z</time></trkpt><trkpt lat="46.44907307663676" lon="12.736479413943346"><ele>985.5999999999999</ele><time>2026-04-12T12:34:29.999Z</time></trkpt><trkpt lat="46.44914898532407" lon="12.736576921430762"><ele>991.8</ele><time>2026-04-12T12:34:30.999Z</time></trkpt><trkpt lat="46.449239325782344" lon="12.736651416235565"><ele>998.0</ele><time>2026-04-12T12:34:31.999Z</time></trkpt><trkpt lat="46.44931479714917" lon="12.73673997699935"><ele>998.0</ele><time>2026-04-12T12:34:32.999Z</time></trkpt><trkpt lat="46.44935948160199" lon="12.736839785415027"><ele>998.0</ele><time>2026-04-12T12:34:33.999Z</time></trkpt><trkpt lat="46.449394866402294" lon="12.736935912513708"><ele>998.0</ele><time>2026-04-12T12:34:34.999Z</time></trkpt><trkpt lat="46.449766800078564" lon="12.739537976805687"><ele>998.0</ele><time>2026-04-12T12:34:39.724Z</time></trkpt><trkpt lat="46.44975628637159" lon="12.740636548919277"><ele>1008.0</ele><time>2026-04-12T12:34:40.725Z</time></trkpt><trkpt lat="46.44930520113777" lon="12.74158752194049"><ele>1023.0</ele><time>2026-04-12T12:34:41.726Z</time></trkpt><trkpt lat="46.44944653005144" lon="12.74266799798659"><ele>1027.0</ele><time>2026-04-12T12:34:42.723Z</time></trkpt><trkpt lat="46.449848750080726" lon="12.743685507210701"><ele>1027.0</ele><time>2026-04-12T12:34:43.724Z</time></trkpt><trkpt lat="46.4500307" lon="12.7441406"><ele>1027.0</ele><time>2026-04-12T12:34:44.724Z</time></trkpt><trkpt lat="46.45073438108319" lon="12.75059888075991"><ele>1027.0</ele><time>2026-04-12T12:36:29.999Z</time></trkpt><trkpt lat="46.45070563113793" lon="12.750722814358818"><ele>1027.0</ele><time>2026-04-12T12:36:30.999Z</time></trkpt><trkpt lat="46.45065851318964" lon="12.750904456517146"><ele>1027.0</ele><time>2026-04-12T12:36:31.999Z</time></trkpt><trkpt lat="46.45071047202953" lon="12.751100215315361"><ele>1027.0</ele><time>2026-04-12T12:36:32.999Z</time></trkpt><trkpt lat="46.4507594915981" lon="12.751315772411125"><ele>1027.0</ele><time>2026-04-12T12:36:33.999Z</time></trkpt><trkpt lat="46.450824903883316" lon="12.751532569328758"><ele>1027.0</ele><time>2026-04-12T12:36:34.999Z</time></trkpt><trkpt lat="46.450889170463526" lon="12.75172212227578"><ele>1027.0</ele><time>2026-04-12T12:36:36Z</time></trkpt><trkpt lat="46.45093868111542" lon="12.751882789996676"><ele>1027.0</ele><time>2026-04-12T12:36:37Z</time></trkpt><trkpt lat="46.45097942456602" lon="12.752024987878611"><ele>1027.0</ele><time>2026-04-12T12:36:38Z</time></trkpt><trkpt lat="46.451012318838345" lon="12.75215963363664"><ele>1027.0</ele><time>2026-04-12T12:36:39Z</time></trkpt><trkpt lat="46.45100271417162" lon="12.752303895234306"><ele>1027.0</ele><time>2026-04-12T12:36:40Z</time></trkpt><trkpt lat="46.4509433411327" lon="12.752449851926903"><ele>1027.0</ele><time>2026-04-12T12:36:41Z</time></trkpt><trkpt lat="46.450878631300675" lon="12.752587384690424"><ele>1027.0</ele><time>2026-04-12T12:36:42Z</time></trkpt><trkpt lat="46.45079588021473" lon="12.752691175979905"><ele>996.0</ele><time>2026-04-12T12:36:43Z</time></trkpt><trkpt lat="46.45071314189705" lon="12.752835293922828"><ele>965.0</ele><time>2026-04-12T12:36:44Z</time></trkpt><trkpt lat="46.450685454982874" lon="12.752996544042448"><ele>934.0</ele><time>2026-04-12T12:36:45Z</time></trkpt><trkpt lat="46.450659059205975" lon="12.753198879426849"><ele>903.0</ele><time>2026-04-12T12:36:46Z</time></trkpt><trkpt lat="46.450673023841404" lon="12.753437131700473"><ele>903.25</ele><time>2026-04-12T12:36:47Z</time></trkpt><trkpt lat="46.450695651282196" lon="12.753685635137012"><ele>903.5</ele><time>2026-04-12T12:36:48Z</time></trkpt><trkpt lat="46.45071839256612" lon="12.753894162668965"><ele>903.75</ele><time>2026-04-12T12:36:49Z</time></trkpt><trkpt lat="46.45074822494217" lon="12.754078888946115"><ele>904.0</ele><time>2026-04-12T12:36:50Z</time></trkpt><trkpt lat="46.450754027535964" lon="12.754269804226745"><ele>901.75</ele><time>2026-04-12T12:36:51Z</time></trkpt><trkpt lat="46.45072766784519" lon="12.754471690974286"><ele>899.5</ele><time>2026-04-12T12:36:52Z</time></trkpt><trkpt lat="46.45070304550429" lon="12.754648920189146"><ele>897.25</ele><time>2026-04-12T12:36:53Z</time></trkpt><trkpt lat="46.45068165853048" lon="12.754820941838783"><ele>895.0</ele><time>2026-04-12T12:36:54Z</time></trkpt><trkpt lat="46.45065521873156" lon="12.75498800230244"><ele>895.0</ele><time>2026-04-12T12:36:55Z</time></trkpt><trkpt lat="46.450631136739155" lon="12.755148334961786"><ele>895.0</ele><time>2026-04-12T12:36:56Z</time></trkpt><trkpt lat="46.45061204726473" lon="12.755287798578884"><ele>895.0</ele><time>2026-04-12T12:36:57Z</time></trkpt><trkpt lat="46.45060278463528" lon="12.755441268413067"><ele>895.0</ele><time>2026-04-12T12:36:58Z</time></trkpt><trkpt lat="46.450620947883834" lon="12.755624237822063"><ele>895.0</ele><time>2026-04-12T12:36:59Z</time></trkpt><trkpt lat="46.45065169749481" lon="12.755798268754027"><ele>891.5</ele><time>2026-04-12T12:37:00Z</time></trkpt><trkpt lat="46.45069452942079" lon="12.755953676006186"><ele>888.0</ele><time>2026-04-12T12:37:01Z</time></trkpt><trkpt lat="46.45074845866953" lon="12.756103599567638"><ele>884.5</ele><time>2026-04-12T12:37:02Z</time></trkpt><trkpt lat="46.45083803466503" lon="12.756255638029323"><ele>881.0</ele><time>2026-04-12T12:37:03Z</time></trkpt><trkpt lat="46.45093071377652" lon="12.756422589728983"><ele>881.75</ele><time>2026-04-12T12:37:04Z</time></trkpt><trkpt lat="46.451016010249674" lon="12.756570416151265"><ele>882.5</ele><time>2026-04-12T12:37:05Z</time></trkpt><trkpt lat="46.45109432519149" lon="12.75671186579851"><ele>883.25</ele><time>2026-04-12T12:37:06Z</time></trkpt><trkpt lat="46.4511666779247" lon="12.756847455996134"><ele>884.0</ele><time>2026-04-12T12:37:07Z</time></trkpt><trkpt lat="46.45123745447452" lon="12.756981117668484"><ele>887.6</ele><time>2026-04-12T12:37:08Z</time></trkpt><trkpt lat="46.451313470602564" lon="12.75711815113103"><ele>891.2</ele><time>2026-04-12T12:37:09Z</time></trkpt><trkpt lat="46.45138455291939" lon="12.757246190136948"><ele>894.8000000000001</ele><time>2026-04-12T12:37:10Z</time></trkpt><trkpt lat="46.451446796196926" lon="12.757358423691374"><ele>898.4000000000001</ele><time>2026-04-12T12:37:11Z</time></trkpt><trkpt lat="46.45150405731144" lon="12.757466472487787"><ele>902.0</ele><time>2026-04-12T12:37:12Z</time></trkpt><trkpt lat="46.45155571785513" lon="12.757590208342288"><ele>851.0</ele><time>2026-04-12T12:37:13.046Z</time></trkpt><trkpt lat="46.45159995895533" lon="12.757716510041297"><ele>800.0</ele><time>2026-04-12T12:37:14.046Z</time></trkpt><trkpt lat="46.451198661655084" lon="12.763307104733217"><ele>800.0</ele><time>2026-04-12T12:37:49.999Z</time></trkpt><trkpt lat="46.451110758126404" lon="12.763362764267713"><ele>800.0</ele><time>2026-04-12T12:37:50.999Z</time></trkpt><trkpt lat="46.451018387626625" lon="12.763482626905903"><ele>800.0</ele><time>2026-04-12T12:37:52.999Z</time></trkpt><trkpt lat="46.45093357223777" lon="12.763532552588881"><ele>800.0</ele><time>2026-04-12T12:37:53.999Z</time></trkpt><trkpt lat="46.45084097914651" lon="12.763580601012228"><ele>800.0</ele><time>2026-04-12T12:37:54.999Z</time></trkpt><trkpt lat="46.45075310913413" lon="12.763618510990536"><ele>795.0</ele><time>2026-04-12T12:37:55.999Z</time></trkpt><trkpt lat="46.450661637028404" lon="12.763644884683876"><ele>790.0</ele><time>2026-04-12T12:37:56.999Z</time></trkpt><trkpt lat="46.45055317866314" lon="12.763645138230476"><ele>785.0</ele><time>2026-04-12T12:37:57.999Z</time></trkpt><trkpt lat="46.450448232073605" lon="12.76364389544992"><ele>780.0</ele><time>2026-04-12T12:37:58.999Z</time></trkpt><trkpt lat="46.45034536014131" lon="12.76366341494931"><ele>775.0</ele><time>2026-04-12T12:37:59.999Z</time></trkpt><trkpt lat="46.45024559543897" lon="12.763697604323742"><ele>799.2</ele><time>2026-04-12T12:38:00.999Z</time></trkpt><trkpt lat="46.450150841967165" lon="12.76374744413204"><ele>823.4</ele><time>2026-04-12T12:38:01.999Z</time></trkpt><trkpt lat="46.45005502011245" lon="12.76381494483437"><ele>847.5999999999999</ele><time>2026-04-12T12:38:03.07Z</time></trkpt><trkpt lat="46.449972219065934" lon="12.763889455961051"><ele>871.8</ele><time>2026-04-12T12:38:04.046Z</time></trkpt><trkpt lat="46.44989528421144" lon="12.763972334443183"><ele>896.0</ele><time>2026-04-12T12:38:05.044Z</time></trkpt><trkpt lat="46.44981588840243" lon="12.7640540224879"><ele>896.0</ele><time>2026-04-12T12:38:06.048Z</time></trkpt><trkpt lat="46.44973060328535" lon="12.764131268668399"><ele>896.0</ele><time>2026-04-12T12:38:07.046Z</time></trkpt><trkpt lat="46.44965004159445" lon="12.764210880619794"><ele>896.0</ele><time>2026-04-12T12:38:08.041Z</time></trkpt><trkpt lat="46.44875733401483" lon="12.767041679257572"><ele>896.3333333333334</ele><time>2026-04-12T12:38:26.999Z</time></trkpt><trkpt lat="46.448701236609736" lon="12.767151028345078"><ele>896.6666666666667</ele><time>2026-04-12T12:38:27.999Z</time></trkpt><trkpt lat="46.448714426114215" lon="12.766737158103341"><ele>897.0</ele><time>2026-04-12T12:38:28.999Z</time></trkpt><trkpt lat="46.44873886792873" lon="12.767169258132231"><ele>888.0</ele><time>2026-04-12T12:38:29.999Z</time></trkpt><trkpt lat="46.44877853007285" lon="12.767679720131724"><ele>879.0</ele><time>2026-04-12T12:38:30.999Z</time></trkpt><trkpt lat="46.44872562123503" lon="12.76805010334503"><ele>876.6666666666667</ele><time>2026-04-12T12:38:31.999Z</time></trkpt><trkpt lat="46.448737673340624" lon="12.768284940810368"><ele>874.3333333333334</ele><time>2026-04-12T12:38:32.999Z</time></trkpt><trkpt lat="46.44870783978522" lon="12.768563406705326"><ele>872.0</ele><time>2026-04-12T12:38:33.999Z</time></trkpt><trkpt lat="46.448695287517666" lon="12.768811332520524"><ele>871.25</ele><time>2026-04-12T12:38:34.999Z</time></trkpt><trkpt lat="46.44868898306642" lon="12.769033335666128"><ele>870.5</ele><time>2026-04-12T12:38:35.999Z</time></trkpt><trkpt lat="46.448695620537926" lon="12.769232788618277"><ele>869.75</ele><time>2026-04-12T12:38:36.999Z</time></trkpt><trkpt lat="46.448704168177784" lon="12.769430620923623"><ele>869.0</ele><time>2026-04-12T12:38:37.999Z</time></trkpt><trkpt lat="46.44873705933459" lon="12.769623838483666"><ele>867.25</ele><time>2026-04-12T12:38:38.999Z</time></trkpt><trkpt lat="46.44875064658284" lon="12.769810237665574"><ele>865.5</ele><time>2026-04-12T12:38:39.999Z</time></trkpt><trkpt lat="46.44876343702902" lon="12.769997730535971"><ele>863.75</ele><time>2026-04-12T12:38:40.999Z</time></trkpt><trkpt lat="46.4487824280896" lon="12.770178768605462"><ele>862.0</ele><time>2026-04-12T12:38:42Z</time></trkpt><trkpt lat="46.448801974234364" lon="12.770332957745516"><ele>861.2</ele><time>2026-04-12T12:38:43Z</time></trkpt><trkpt lat="46.4488129124183" lon="12.770488198204767"><ele>860.4000000000001</ele><time>2026-04-12T12:38:44Z</time></trkpt><trkpt lat="46.448803744186854" lon="12.77063633628573"><ele>859.5999999999999</ele><time>2026-04-12T12:38:45Z</time></trkpt><trkpt lat="46.448769046883406" lon="12.770785272326581"><ele>858.8</ele><time>2026-04-12T12:38:46Z</time></trkpt><trkpt lat="46.448716616088234" lon="12.770922981916165"><ele>858.0</ele><time>2026-04-12T12:38:47Z</time></trkpt><trkpt lat="46.44864539395325" lon="12.771047240975301"><ele>857.5</ele><time>2026-04-12T12:38:48Z</time></trkpt><trkpt lat="46.448545426990165" lon="12.771166011981983"><ele>857.0</ele><time>2026-04-12T12:38:49Z</time></trkpt><trkpt lat="46.44846623691051" lon="12.77131989451151"><ele>856.5</ele><time>2026-04-12T12:38:50Z</time></trkpt><trkpt lat="46.44841444873432" lon="12.771502101342177"><ele>856.0</ele><time>2026-04-12T12:38:51Z</time></trkpt><trkpt lat="46.44838684512534" lon="12.771683018788949"><ele>855.0</ele><time>2026-04-12T12:38:52Z</time></trkpt><trkpt lat="46.44836402647306" lon="12.771866572034533"><ele>854.0</ele><time>2026-04-12T12:38:53Z</time></trkpt><trkpt lat="46.448340219775254" lon="12.77202917040137"><ele>853.0</ele><time>2026-04-12T12:38:54Z</time></trkpt><trkpt lat="46.44834822192635" lon="12.77219495293887"><ele>852.0</ele><time>2026-04-12T12:38:55Z</time></trkpt><trkpt lat="46.44838551323798" lon="12.772334449332648"><ele>852.0</ele><time>2026-04-12T12:38:56Z</time></trkpt><trkpt lat="46.44845152548818" lon="12.77246022688935"><ele>852.0</ele><time>2026-04-12T12:38:57Z</time></trkpt><trkpt lat="46.4485093219285" lon="12.772582713339219"><ele>852.0</ele><time>2026-04-12T12:38:58Z</time></trkpt><trkpt lat="46.44854744059174" lon="12.772718191448"><ele>852.0</ele><time>2026-04-12T12:38:59Z</time></trkpt><trkpt lat="46.44857117035559" lon="12.772876922383322"><ele>852.0</ele><time>2026-04-12T12:39:00Z</time></trkpt><trkpt lat="46.448569127615954" lon="12.773033521742773"><ele>848.2</ele><time>2026-04-12T12:39:01Z</time></trkpt><trkpt lat="46.44855022896218" lon="12.773163992571654"><ele>844.4000000000001</ele><time>2026-04-12T12:39:02Z</time></trkpt><trkpt lat="46.448505839320276" lon="12.773288177321179"><ele>840.5999999999999</ele><time>2026-04-12T12:39:03Z</time></trkpt><trkpt lat="46.44842828183962" lon="12.773415264907499"><ele>836.8</ele><time>2026-04-12T12:39:04Z</time></trkpt><trkpt lat="46.448329788913384" lon="12.77355354878888"><ele>833.0</ele><time>2026-04-12T12:39:05Z</time></trkpt><trkpt lat="46.448214009980795" lon="12.773699481129535"><ele>824.0</ele><time>2026-04-12T12:39:06Z</time></trkpt><trkpt lat="46.44810644050026" lon="12.773855249798954"><ele>815.0</ele><time>2026-04-12T12:39:07Z</time></trkpt><trkpt lat="46.448008350931296" lon="12.774028831903781"><ele>806.0</ele><time>2026-04-12T12:39:08Z</time></trkpt><trkpt lat="46.44793853102913" lon="12.774218995668486"><ele>811.0</ele><time>2026-04-12T12:39:09Z</time></trkpt><trkpt lat="46.44786158407616" lon="12.774397211433303"><ele>816.0</ele><time>2026-04-12T12:39:10Z</time></trkpt><trkpt lat="46.44777070331926" lon="12.774538839078238"><ele>821.0</ele><time>2026-04-12T12:39:11Z</time></trkpt><trkpt lat="46.447670060142094" lon="12.774661770634882"><ele>826.0</ele><time>2026-04-12T12:39:12Z</time></trkpt><trkpt lat="46.44756118041403" lon="12.774780486598802"><ele>826.0</ele><time>2026-04-12T12:39:13Z</time></trkpt><trkpt lat="46.44744866501159" lon="12.774901613492155"><ele>826.0</ele><time>2026-04-12T12:39:14Z</time></trkpt><trkpt lat="46.44732123957537" lon="12.775010576172848"><ele>826.0</ele><time>2026-04-12T12:39:15Z</time></trkpt><trkpt lat="46.447186803534535" lon="12.77509436592268"><ele>826.0</ele><time>2026-04-12T12:39:16Z</time></trkpt><trkpt lat="46.447053490639505" lon="12.775165885068525"><ele>822.25</ele><time>2026-04-12T12:39:17Z</time></trkpt><trkpt lat="46.44694251332383" lon="12.775246102416556"><ele>818.5</ele><time>2026-04-12T12:39:18Z</time></trkpt><trkpt lat="46.4468497712366" lon="12.775348216602037"><ele>814.75</ele><time>2026-04-12T12:39:19Z</time></trkpt><trkpt lat="46.44675381688018" lon="12.775425270905455"><ele>811.0</ele><time>2026-04-12T12:39:20Z</time></trkpt><trkpt lat="46.44663414932517" lon="12.775461608684846"><ele>811.0</ele><time>2026-04-12T12:39:21Z</time></trkpt><trkpt lat="46.44650209047969" lon="12.775477106612259"><ele>811.0</ele><time>2026-04-12T12:39:22Z</time></trkpt><trkpt lat="46.44635968698458" lon="12.775498639037478"><ele>811.0</ele><time>2026-04-12T12:39:23Z</time></trkpt><trkpt lat="46.446230037739305" lon="12.775518344182824"><ele>811.0</ele><time>2026-04-12T12:39:24Z</time></trkpt><trkpt lat="46.44611435891647" lon="12.775521093635083"><ele>812.5999999999999</ele><time>2026-04-12T12:39:25Z</time></trkpt><trkpt lat="46.446007250077166" lon="12.775480099999132"><ele>814.2</ele><time>2026-04-12T12:39:26Z</time></trkpt><trkpt lat="46.44591274421519" lon="12.77541010232648"><ele>815.8</ele><time>2026-04-12T12:39:27Z</time></trkpt><trkpt lat="46.44581929416386" lon="12.77535312657783"><ele>817.4000000000001</ele><time>2026-04-12T12:39:28Z</time></trkpt><trkpt lat="46.44572283061717" lon="12.77535953747061"><ele>819.0</ele><time>2026-04-12T12:39:29Z</time></trkpt><trkpt lat="46.445617035359504" lon="12.775434621752979"><ele>819.0</ele><time>2026-04-12T12:39:30Z</time></trkpt><trkpt lat="46.44550767833177" lon="12.775568932040862"><ele>819.0</ele><time>2026-04-12T12:39:31Z</time></trkpt><trkpt lat="46.445381912138814" lon="12.775730866773596"><ele>819.0</ele><time>2026-04-12T12:39:31.999Z</time></trkpt><trkpt lat="46.4452462695484" lon="12.77589235802864"><ele>812.0</ele><time>2026-04-12T12:39:32.999Z</time></trkpt><trkpt lat="46.44513119572353" lon="12.776024516671692"><ele>805.0</ele><time>2026-04-12T12:39:33.999Z</time></trkpt><trkpt lat="46.44503351545213" lon="12.776130403801957"><ele>798.0</ele><time>2026-04-12T12:39:34.999Z</time></trkpt><trkpt lat="46.44493294983457" lon="12.776210803343664"><ele>791.0</ele><time>2026-04-12T12:39:35.999Z</time></trkpt><trkpt lat="46.44483280017526" lon="12.776267548092777"><ele>791.0</ele><time>2026-04-12T12:39:36.999Z</time></trkpt><trkpt lat="46.4447409494459" lon="12.776315934598403"><ele>791.0</ele><time>2026-04-12T12:39:37.999Z</time></trkpt><trkpt lat="46.44464541798522" lon="12.776367669230767"><ele>791.0</ele><time>2026-04-12T12:39:38.999Z</time></trkpt><trkpt lat="46.44455381431426" lon="12.77636623209808"><ele>791.0</ele><time>2026-04-12T12:39:39.999Z</time></trkpt><trkpt lat="46.444462784748936" lon="12.776335357549364"><ele>791.0</ele><time>2026-04-12T12:39:40.999Z</time></trkpt><trkpt lat="46.44437972066932" lon="12.776258167468376"><ele>788.0</ele><time>2026-04-12T12:39:41.999Z</time></trkpt><trkpt lat="46.44431253968724" lon="12.776147746928581"><ele>785.0</ele><time>2026-04-12T12:39:42.999Z</time></trkpt><trkpt lat="46.444238656447745" lon="12.776021282099263"><ele>782.0</ele><time>2026-04-12T12:39:43.999Z</time></trkpt><trkpt lat="46.44413864674581" lon="12.775914721958445"><ele>779.0</ele><time>2026-04-12T12:39:44.999Z</time></trkpt><trkpt lat="46.44402647419597" lon="12.775812222590531"><ele>788.0</ele><time>2026-04-12T12:39:45.999Z</time></trkpt><trkpt lat="46.44392599703276" lon="12.775733500288045"><ele>797.0</ele><time>2026-04-12T12:39:46.999Z</time></trkpt><trkpt lat="46.443829821361184" lon="12.775661973901437"><ele>806.0</ele><time>2026-04-12T12:39:47.999Z</time></trkpt><trkpt lat="46.4437426717597" lon="12.775615141763092"><ele>815.0</ele><time>2026-04-12T12:39:48.999Z</time></trkpt><trkpt lat="46.443658479832386" lon="12.775583669559886"><ele>824.0</ele><time>2026-04-12T12:39:49.999Z</time></trkpt><trkpt lat="46.443581335724176" lon="12.775588879411014"><ele>824.0</ele><time>2026-04-12T12:39:50.999Z</time></trkpt><trkpt lat="46.44349863787482" lon="12.775630770659227"><ele>824.0</ele><time>2026-04-12T12:39:51.999Z</time></trkpt><trkpt lat="46.4434324436759" lon="12.775736369177567"><ele>824.0</ele><time>2026-04-12T12:39:52.999Z</time></trkpt><trkpt lat="46.44338563489489" lon="12.77586492811051"><ele>824.0</ele><time>2026-04-12T12:39:53.999Z</time></trkpt><trkpt lat="46.443346700153555" lon="12.775991437006715"><ele>824.0</ele><time>2026-04-12T12:39:54.999Z</time></trkpt><trkpt lat="46.44324336414012" lon="12.776052938323543"><ele>825.6</ele><time>2026-04-12T12:39:55.999Z</time></trkpt><trkpt lat="46.44317456603423" lon="12.776150290776465"><ele>827.2</ele><time>2026-04-12T12:39:56.999Z</time></trkpt><trkpt lat="46.44309005862894" lon="12.776243614508738"><ele>828.8000000000001</ele><time>2026-04-12T12:39:57.999Z</time></trkpt><trkpt lat="46.44299851283215" lon="12.776344647292884"><ele>830.4000000000001</ele><time>2026-04-12T12:39:58.999Z</time></trkpt><trkpt lat="46.44289968460182" lon="12.776453318740876"><ele>832.0</ele><time>2026-04-12T12:39:59.999Z</time></trkpt><trkpt lat="46.442790983950836" lon="12.776545948956398"><ele>832.0</ele><time>2026-04-12T12:40:00.999Z</time></trkpt><trkpt lat="46.44267942029538" lon="12.776646101596208"><ele>832.0</ele><time>2026-04-12T12:40:01.999Z</time></trkpt><trkpt lat="46.442566950298335" lon="12.776717972953277"><ele>832.0</ele><time>2026-04-12T12:40:02.999Z</time></trkpt><trkpt lat="46.44247390256929" lon="12.776783611318606"><ele>832.0</ele><time>2026-04-12T12:40:03.999Z</time></trkpt><trkpt lat="46.44238700237221" lon="12.776834657051285"><ele>828.4000000000001</ele><time>2026-04-12T12:40:04.999Z</time></trkpt><trkpt lat="46.44231483149658" lon="12.776891282562726"><ele>824.8000000000001</ele><time>2026-04-12T12:40:05.999Z</time></trkpt><trkpt lat="46.44224292758553" lon="12.77700773274837"><ele>821.2</ele><time>2026-04-12T12:40:06.999Z</time></trkpt><trkpt lat="46.442214057151844" lon="12.777142128258756"><ele>817.6</ele><time>2026-04-12T12:40:07.999Z</time></trkpt><trkpt lat="46.442169432275215" lon="12.777233436481435"><ele>814.0</ele><time>2026-04-12T12:40:08.999Z</time></trkpt><trkpt lat="46.44209778235615" lon="12.777325754441176"><ele>814.0</ele><time>2026-04-12T12:40:09.999Z</time></trkpt><trkpt lat="46.441985353081336" lon="12.777379829501426"><ele>814.0</ele><time>2026-04-12T12:40:10.999Z</time></trkpt><trkpt lat="46.44184842892688" lon="12.777430013067116"><ele>814.0</ele><time>2026-04-12T12:40:11.999Z</time></trkpt><trkpt lat="46.44172312892641" lon="12.777471520754291"><ele>814.0</ele><time>2026-04-12T12:40:12.999Z</time></trkpt><trkpt lat="46.441618114578674" lon="12.777507556894397"><ele>813.9999999999999</ele><time>2026-04-12T12:40:13.999Z</time></trkpt><trkpt lat="46.44152706255494" lon="12.777541328574761"><ele>814.0</ele><time>2026-04-12T12:40:14.999Z</time></trkpt><trkpt lat="46.44144224540378" lon="12.777566044548564"><ele>814.0</ele><time>2026-04-12T12:40:15.999Z</time></trkpt><trkpt lat="46.4413576920494" lon="12.777590942550395"><ele>814.0</ele><time>2026-04-12T12:40:16.999Z</time></trkpt><trkpt lat="46.44126957115097" lon="12.777619159627891"><ele>813.9999999999999</ele><time>2026-04-12T12:40:17.999Z</time></trkpt><trkpt lat="46.441181072752514" lon="12.777647347395046"><ele>814.0</ele><time>2026-04-12T12:40:18.999Z</time></trkpt><trkpt lat="46.44108611214773" lon="12.777671557385856"><ele>813.3333333333333</ele><time>2026-04-12T12:40:20.052Z</time></trkpt><trkpt lat="46.440995667762984" lon="12.777697724176024"><ele>812.6666666666667</ele><time>2026-04-12T12:40:21.046Z</time></trkpt><trkpt lat="46.44090461455245" lon="12.777720971888906"><ele>812.0</ele><time>2026-04-12T12:40:22.047Z</time></trkpt><trkpt lat="46.438264365429106" lon="12.779213458637324"><ele>776.0</ele><time>2026-04-12T12:40:26.723Z</time></trkpt><trkpt lat="46.43729798517166" lon="12.780054922446142"><ele>776.0</ele><time>2026-04-12T12:41:01.999Z</time></trkpt><trkpt lat="46.43718221482175" lon="12.780060621150728"><ele>776.0</ele><time>2026-04-12T12:41:02.999Z</time></trkpt><trkpt lat="46.437101999021095" lon="12.779996759932057"><ele>776.0</ele><time>2026-04-12T12:41:03.999Z</time></trkpt><trkpt lat="46.43702929285935" lon="12.779963120734719"><ele>776.0</ele><time>2026-04-12T12:41:04.999Z</time></trkpt><trkpt lat="46.43693999687453" lon="12.779954841987337"><ele>776.0</ele><time>2026-04-12T12:41:05.999Z</time></trkpt><trkpt lat="46.43685392727474" lon="12.779932584268813"><ele>776.8</ele><time>2026-04-12T12:41:07Z</time></trkpt><trkpt lat="46.43677089713792" lon="12.779898410556562"><ele>777.5999999999999</ele><time>2026-04-12T12:41:08Z</time></trkpt><trkpt lat="46.43669503933595" lon="12.779868030309752"><ele>778.4</ele><time>2026-04-12T12:41:09Z</time></trkpt><trkpt lat="46.43659490857262" lon="12.779886018524278"><ele>779.2</ele><time>2026-04-12T12:41:10Z</time></trkpt><trkpt lat="46.43649367806995" lon="12.779968689648864"><ele>780.0</ele><time>2026-04-12T12:41:11Z</time></trkpt><trkpt lat="46.43642517316868" lon="12.780035645619217"><ele>780.0</ele><time>2026-04-12T12:41:12Z</time></trkpt><trkpt lat="46.43633223748735" lon="12.780097875137487"><ele>780.0</ele><time>2026-04-12T12:41:13Z</time></trkpt><trkpt lat="46.43622150260121" lon="12.780088064010409"><ele>780.0</ele><time>2026-04-12T12:41:14Z</time></trkpt><trkpt lat="46.436112965809045" lon="12.780055708349577"><ele>780.0</ele><time>2026-04-12T12:41:15Z</time></trkpt><trkpt lat="46.43601564694203" lon="12.779997837902226"><ele>780.0</ele><time>2026-04-12T12:41:16Z</time></trkpt><trkpt lat="46.4359237316755" lon="12.779914792560682"><ele>776.25</ele><time>2026-04-12T12:41:17Z</time></trkpt><trkpt lat="46.43582957524295" lon="12.779831371832683"><ele>772.5</ele><time>2026-04-12T12:41:18Z</time></trkpt><trkpt lat="46.43574487165859" lon="12.77972929866337"><ele>768.75</ele><time>2026-04-12T12:41:19Z</time></trkpt><trkpt lat="46.43564762820342" lon="12.779637671720629"><ele>765.0</ele><time>2026-04-12T12:41:20Z</time></trkpt><trkpt lat="46.435546238004" lon="12.779549469830396"><ele>766.75</ele><time>2026-04-12T12:41:21Z</time></trkpt><trkpt lat="46.43544458435113" lon="12.779458905220837"><ele>768.5</ele><time>2026-04-12T12:41:22Z</time></trkpt><trkpt lat="46.43532855551235" lon="12.7793870668322"><ele>770.25</ele><time>2026-04-12T12:41:23Z</time></trkpt><trkpt lat="46.435206196837974" lon="12.779325304828882"><ele>772.0</ele><time>2026-04-12T12:41:24Z</time></trkpt><trkpt lat="46.4350806983813" lon="12.779291508291792"><ele>772.0</ele><time>2026-04-12T12:41:25Z</time></trkpt><trkpt lat="46.43496053132635" lon="12.77928667559588"><ele>772.0</ele><time>2026-04-12T12:41:26Z</time></trkpt><trkpt lat="46.434842692935845" lon="12.779309505955503"><ele>772.0</ele><time>2026-04-12T12:41:27Z</time></trkpt><trkpt lat="46.43471828631635" lon="12.779342363250931"><ele>772.0</ele><time>2026-04-12T12:41:28Z</time></trkpt><trkpt lat="46.43459665922344" lon="12.779377012571807"><ele>765.8</ele><time>2026-04-12T12:41:29Z</time></trkpt><trkpt lat="46.4344786584348" lon="12.779402425980276"><ele>759.6</ele><time>2026-04-12T12:41:30Z</time></trkpt><trkpt lat="46.43436621548592" lon="12.779434681422076"><ele>753.4</ele><time>2026-04-12T12:41:31Z</time></trkpt><trkpt lat="46.43426352058326" lon="12.779476319417446"><ele>747.1999999999999</ele><time>2026-04-12T12:41:32Z</time></trkpt><trkpt lat="46.434172360286766" lon="12.779492789053984"><ele>741.0</ele><time>2026-04-12T12:41:33Z</time></trkpt><trkpt lat="46.43408139273435" lon="12.779457900117286"><ele>741.0</ele><time>2026-04-12T12:41:34Z</time></trkpt><trkpt lat="46.43398897146461" lon="12.77937045889517"><ele>741.0</ele><time>2026-04-12T12:41:35Z</time></trkpt><trkpt lat="46.433883933236004" lon="12.779263036552296"><ele>741.0</ele><time>2026-04-12T12:41:36Z</time></trkpt><trkpt lat="46.43376984861601" lon="12.779178300111383"><ele>741.0</ele><time>2026-04-12T12:41:36.999Z</time></trkpt><trkpt lat="46.43365072083359" lon="12.779133659452652"><ele>742.0</ele><time>2026-04-12T12:41:37.999Z</time></trkpt><trkpt lat="46.43353275075418" lon="12.779130664802548"><ele>743.0</ele><time>2026-04-12T12:41:38.999Z</time></trkpt><trkpt lat="46.43341791510117" lon="12.779139577860256"><ele>744.0</ele><time>2026-04-12T12:41:39.999Z</time></trkpt><trkpt lat="46.43331550232804" lon="12.779147000807669"><ele>745.0</ele><time>2026-04-12T12:41:40.999Z</time></trkpt><trkpt lat="46.43322915298363" lon="12.779158722800457"><ele>746.0</ele><time>2026-04-12T12:41:41.999Z</time></trkpt><trkpt lat="46.43315810857582" lon="12.779212695607594"><ele>746.0</ele><time>2026-04-12T12:41:42.999Z</time></trkpt><trkpt lat="46.433108211884054" lon="12.779288614746676"><ele>746.0</ele><time>2026-04-12T12:41:43.999Z</time></trkpt><trkpt lat="46.43308345924357" lon="12.779407335623118"><ele>746.0</ele><time>2026-04-12T12:41:44.999Z</time></trkpt><trkpt lat="46.433139045096055" lon="12.779551580886052"><ele>746.0</ele><time>2026-04-12T12:41:45.999Z</time></trkpt><trkpt lat="46.43326283444414" lon="12.779593243302504"><ele>746.0</ele><time>2026-04-12T12:41:46.999Z</time></trkpt><trkpt lat="46.43337030363999" lon="12.779448691747003"><ele>742.0</ele><time>2026-04-12T12:41:47.999Z</time></trkpt><trkpt lat="46.43346169994001" lon="12.779430034506445"><ele>738.0</ele><time>2026-04-12T12:41:48.999Z</time></trkpt><trkpt lat="46.43352843615844" lon="12.779440791676409"><ele>734.0</ele><time>2026-04-12T12:41:49.999Z</time></trkpt><trkpt lat="46.43359034198974" lon="12.779478644049131"><ele>730.0</ele><time>2026-04-12T12:41:50.999Z</time></trkpt><trkpt lat="46.433666598875945" lon="12.779553834452011"><ele>726.0</ele><time>2026-04-12T12:41:51.999Z</time></trkpt><trkpt lat="46.43374327920867" lon="12.779647950307508"><ele>722.0</ele><time>2026-04-12T12:41:52.999Z</time></trkpt><trkpt lat="46.43379492024503" lon="12.779764039599527"><ele>722.2</ele><time>2026-04-12T12:41:53.999Z</time></trkpt><trkpt lat="46.43382250720215" lon="12.779903869374307"><ele>722.4000000000001</ele><time>2026-04-12T12:41:54.999Z</time></trkpt><trkpt lat="46.43385368007076" lon="12.78004583233541"><ele>722.5999999999999</ele><time>2026-04-12T12:41:55.999Z</time></trkpt><trkpt lat="46.43388960472417" lon="12.78017747307182"><ele>722.8</ele><time>2026-04-12T12:41:56.999Z</time></trkpt><trkpt lat="46.43395012629483" lon="12.780295607016576"><ele>723.0</ele><time>2026-04-12T12:41:57.999Z</time></trkpt><trkpt lat="46.43407048605043" lon="12.780346900806412"><ele>723.0</ele><time>2026-04-12T12:41:58.999Z</time></trkpt><trkpt lat="46.43418872097408" lon="12.780396574707535"><ele>723.0</ele><time>2026-04-12T12:41:59.999Z</time></trkpt><trkpt lat="46.43431331150411" lon="12.780438045223024"><ele>723.0</ele><time>2026-04-12T12:42:00.999Z</time></trkpt><trkpt lat="46.43445058972223" lon="12.78044736983897"><ele>723.0</ele><time>2026-04-12T12:42:01.999Z</time></trkpt><trkpt lat="46.43460695056942" lon="12.780379015539362"><ele>726.0</ele><time>2026-04-12T12:42:02.999Z</time></trkpt><trkpt lat="46.43478751118634" lon="12.780369531915278"><ele>729.0</ele><time>2026-04-12T12:42:03.999Z</time></trkpt><trkpt lat="46.43494720199577" lon="12.780381728245127"><ele>732.0</ele><time>2026-04-12T12:42:04.999Z</time></trkpt><trkpt lat="46.435098071337485" lon="12.780379483478082"><ele>732.0</ele><time>2026-04-12T12:42:05.999Z</time></trkpt><trkpt lat="46.435231334392135" lon="12.780366884793173"><ele>732.0</ele><time>2026-04-12T12:42:06.999Z</time></trkpt><trkpt lat="46.435343060697306" lon="12.780275645167663"><ele>732.0</ele><time>2026-04-12T12:42:07.999Z</time></trkpt><trkpt lat="46.43542540794897" lon="12.780260551344217"><ele>732.0</ele><time>2026-04-12T12:42:08.999Z</time></trkpt><trkpt lat="46.43549573205212" lon="12.780275352855933"><ele>732.0</ele><time>2026-04-12T12:42:09.999Z</time></trkpt><trkpt lat="46.43553014174173" lon="12.780358605870013"><ele>732.0</ele><time>2026-04-12T12:42:10.999Z</time></trkpt><trkpt lat="46.435524902004516" lon="12.780473904691071"><ele>732.0</ele><time>2026-04-12T12:42:11.999Z</time></trkpt><trkpt lat="46.43545518243332" lon="12.780565396258819"><ele>732.0</ele><time>2026-04-12T12:42:12.999Z</time></trkpt><trkpt lat="46.43535095031772" lon="12.780569121695619"><ele>732.0</ele><time>2026-04-12T12:42:13.999Z</time></trkpt><trkpt lat="46.43523324590534" lon="12.780529365278323"><ele>732.0</ele><time>2026-04-12T12:42:14.999Z</time></trkpt><trkpt lat="46.43511711975458" lon="12.78050093024465"><ele>732.0</ele><time>2026-04-12T12:42:15.999Z</time></trkpt><trkpt lat="46.43502315059788" lon="12.780531121716937"><ele>732.0</ele><time>2026-04-12T12:42:16.999Z</time></trkpt><trkpt lat="46.43494667330252" lon="12.78057913058155"><ele>732.0</ele><time>2026-04-12T12:42:17.999Z</time></trkpt><trkpt lat="46.43487136897134" lon="12.780646734757395"><ele>732.0</ele><time>2026-04-12T12:42:18.999Z</time></trkpt><trkpt lat="46.434822033681954" lon="12.780739181331473"><ele>732.0</ele><time>2026-04-12T12:42:19.999Z</time></trkpt><trkpt lat="46.434793485339156" lon="12.780862167712021"><ele>732.0</ele><time>2026-04-12T12:42:20.999Z</time></trkpt><trkpt lat="46.43479247757707" lon="12.781002509137501"><ele>728.1666666666666</ele><time>2026-04-12T12:42:21.999Z</time></trkpt><trkpt lat="46.43479027203556" lon="12.78111350442291"><ele>724.3333333333334</ele><time>2026-04-12T12:42:22.999Z</time></trkpt><trkpt lat="46.43475248358838" lon="12.781209518570417"><ele>720.5</ele><time>2026-04-12T12:42:23.999Z</time></trkpt><trkpt lat="46.43466419256463" lon="12.781266859773163"><ele>716.6666666666667</ele><time>2026-04-12T12:42:24.999Z</time></trkpt><trkpt lat="46.43459294788692" lon="12.78131825083275"><ele>712.8333333333334</ele><time>2026-04-12T12:42:25.999Z</time></trkpt><trkpt lat="46.43448378185119" lon="12.781265171552619"><ele>709.0</ele><time>2026-04-12T12:42:26.999Z</time></trkpt><trkpt lat="46.434364884005774" lon="12.781193882003889"><ele>707.8000000000001</ele><time>2026-04-12T12:42:27.999Z</time></trkpt><trkpt lat="46.434240771106786" lon="12.781136744768988"><ele>706.6</ele><time>2026-04-12T12:42:28.999Z</time></trkpt><trkpt lat="46.43412655478905" lon="12.781079426376937"><ele>705.4</ele><time>2026-04-12T12:42:29.999Z</time></trkpt><trkpt lat="46.43403180635085" lon="12.78103080326015"><ele>704.2</ele><time>2026-04-12T12:42:30.999Z</time></trkpt><trkpt lat="46.433947077587504" lon="12.78097363453281"><ele>703.0</ele><time>2026-04-12T12:42:31.999Z</time></trkpt><trkpt lat="46.43386468507747" lon="12.780905070289975"><ele>703.1666666666667</ele><time>2026-04-12T12:42:32.999Z</time></trkpt><trkpt lat="46.433798135250946" lon="12.780828613779514"><ele>703.3333333333334</ele><time>2026-04-12T12:42:33.999Z</time></trkpt><trkpt lat="46.43373223990122" lon="12.780760746004686"><ele>703.5</ele><time>2026-04-12T12:42:34.999Z</time></trkpt><trkpt lat="46.43366917602875" lon="12.780710913140172"><ele>703.6666666666666</ele><time>2026-04-12T12:42:35.999Z</time></trkpt><trkpt lat="46.433606967325765" lon="12.780695172721442"><ele>703.8333333333333</ele><time>2026-04-12T12:42:36.999Z</time></trkpt><trkpt lat="46.43353482895157" lon="12.780817516743067"><ele>704.0</ele><time>2026-04-12T12:42:38.999Z</time></trkpt><trkpt lat="46.43350225914673" lon="12.78090499908638"><ele>703.8000000000001</ele><time>2026-04-12T12:42:39.999Z</time></trkpt><trkpt lat="46.4335464172563" lon="12.781024278785635"><ele>703.6</ele><time>2026-04-12T12:42:40.999Z</time></trkpt><trkpt lat="46.433659776877505" lon="12.781069117273464"><ele>703.4</ele><time>2026-04-12T12:42:41.999Z</time></trkpt><trkpt lat="46.43373656524437" lon="12.781116787791406"><ele>703.2</ele><time>2026-04-12T12:42:42.999Z</time></trkpt><trkpt lat="46.43381297499818" lon="12.781182458900183"><ele>703.0</ele><time>2026-04-12T12:42:43.999Z</time></trkpt><trkpt lat="46.433897506162126" lon="12.781270855450956"><ele>703.0</ele><time>2026-04-12T12:42:44.999Z</time></trkpt><trkpt lat="46.43397844705464" lon="12.781374475516548"><ele>703.0</ele><time>2026-04-12T12:42:45.999Z</time></trkpt><trkpt lat="46.43404252090333" lon="12.781496915597941"><ele>703.0</ele><time>2026-04-12T12:42:46.999Z</time></trkpt><trkpt lat="46.43409999594939" lon="12.781662435981442"><ele>703.0</ele><time>2026-04-12T12:42:47.999Z</time></trkpt><trkpt lat="46.434184495471676" lon="12.781801715747498"><ele>696.25</ele><time>2026-04-12T12:42:48.999Z</time></trkpt><trkpt lat="46.43432163825867" lon="12.78189063481239"><ele>689.5</ele><time>2026-04-12T12:42:49.999Z</time></trkpt><trkpt lat="46.43443272950472" lon="12.781971555025912"><ele>682.75</ele><time>2026-04-12T12:42:50.999Z</time></trkpt><trkpt lat="46.434538222265594" lon="12.782044958011028"><ele>676.0</ele><time>2026-04-12T12:42:51.999Z</time></trkpt><trkpt lat="46.434625192354524" lon="12.782097503489764"><ele>678.8</ele><time>2026-04-12T12:42:52.999Z</time></trkpt><trkpt lat="46.43472208381401" lon="12.78212420185868"><ele>681.5999999999999</ele><time>2026-04-12T12:42:53.999Z</time></trkpt><trkpt lat="46.43481361947263" lon="12.782121270004767"><ele>684.4</ele><time>2026-04-12T12:42:54.999Z</time></trkpt><trkpt lat="46.43489569995862" lon="12.78206318499192"><ele>687.2</ele><time>2026-04-12T12:42:55.999Z</time></trkpt><trkpt lat="46.43496711610254" lon="12.781989477385562"><ele>690.0</ele><time>2026-04-12T12:42:56.999Z</time></trkpt><trkpt lat="46.43503562533535" lon="12.781895017836867"><ele>690.0</ele><time>2026-04-12T12:42:57.999Z</time></trkpt><trkpt lat="46.435116903452155" lon="12.781829207331459"><ele>690.0</ele><time>2026-04-12T12:42:58.999Z</time></trkpt><trkpt lat="46.43521695418223" lon="12.781793822774194"><ele>690.0</ele><time>2026-04-12T12:42:59.999Z</time></trkpt><trkpt lat="46.43531470525721" lon="12.781842928316973"><ele>690.0</ele><time>2026-04-12T12:43:00.999Z</time></trkpt><trkpt lat="46.43541048787287" lon="12.781864688899898"><ele>690.0</ele><time>2026-04-12T12:43:01.999Z</time></trkpt><trkpt lat="46.4355255433936" lon="12.781890561546197"><ele>688.25</ele><time>2026-04-12T12:43:02.999Z</time></trkpt><trkpt lat="46.435645214761124" lon="12.781892433320394"><ele>686.5</ele><time>2026-04-12T12:43:03.999Z</time></trkpt><trkpt lat="46.43576648662966" lon="12.78192238452987"><ele>684.75</ele><time>2026-04-12T12:43:04.999Z</time></trkpt><trkpt lat="46.435884678378066" lon="12.781947511508813"><ele>683.0</ele><time>2026-04-12T12:43:05.999Z</time></trkpt><trkpt lat="46.43600605378514" lon="12.7819819763736"><ele>683.0</ele><time>2026-04-12T12:43:06.999Z</time></trkpt><trkpt lat="46.436119149862975" lon="12.782044297747355"><ele>683.0</ele><time>2026-04-12T12:43:07.999Z</time></trkpt><trkpt lat="46.436220113093356" lon="12.782109686625363"><ele>683.0</ele><time>2026-04-12T12:43:08.999Z</time></trkpt><trkpt lat="46.4363212081878" lon="12.782184921800527"><ele>683.0</ele><time>2026-04-12T12:43:09.999Z</time></trkpt><trkpt lat="46.436422510280096" lon="12.782251136024708"><ele>682.4</ele><time>2026-04-12T12:43:10.999Z</time></trkpt><trkpt lat="46.43652910039546" lon="12.78231678744225"><ele>681.8</ele><time>2026-04-12T12:43:12Z</time></trkpt><trkpt lat="46.436636994615284" lon="12.782386708408055"><ele>681.2</ele><time>2026-04-12T12:43:13Z</time></trkpt><trkpt lat="46.436736176422514" lon="12.782449320923396"><ele>680.6</ele><time>2026-04-12T12:43:14Z</time></trkpt><trkpt lat="46.43683287392312" lon="12.782502308213884"><ele>680.0</ele><time>2026-04-12T12:43:15Z</time></trkpt><trkpt lat="46.43694112153675" lon="12.782541116721752"><ele>680.0</ele><time>2026-04-12T12:43:16Z</time></trkpt><trkpt lat="46.43704762232256" lon="12.782538596275792"><ele>680.0</ele><time>2026-04-12T12:43:17Z</time></trkpt><trkpt lat="46.43714548213898" lon="12.782544653906466"><ele>680.0</ele><time>2026-04-12T12:43:18Z</time></trkpt><trkpt lat="46.437233274843386" lon="12.782517314902563"><ele>680.0</ele><time>2026-04-12T12:43:19Z</time></trkpt><trkpt lat="46.437306174897316" lon="12.782450978068045"><ele>680.0</ele><time>2026-04-12T12:43:20Z</time></trkpt><trkpt lat="46.43735609899611" lon="12.78235493109038"><ele>678.8333333333333</ele><time>2026-04-12T12:43:21Z</time></trkpt><trkpt lat="46.437395357976634" lon="12.782274304684934"><ele>677.6666666666666</ele><time>2026-04-12T12:43:22Z</time></trkpt><trkpt lat="46.43746038502464" lon="12.78225225991709"><ele>676.5</ele><time>2026-04-12T12:43:23Z</time></trkpt><trkpt lat="46.43751087957516" lon="12.782318976316114"><ele>675.3333333333334</ele><time>2026-04-12T12:43:24Z</time></trkpt><trkpt lat="46.43745713958246" lon="12.782468425268956"><ele>674.1666666666667</ele><time>2026-04-12T12:43:26Z</time></trkpt><trkpt lat="46.43738400625915" lon="12.782504870001441"><ele>673.0</ele><time>2026-04-12T12:43:27Z</time></trkpt><trkpt lat="46.437284804374094" lon="12.78258410775262"><ele>673.0</ele><time>2026-04-12T12:43:28Z</time></trkpt><trkpt lat="46.43718307523749" lon="12.782662376358497"><ele>673.0</ele><time>2026-04-12T12:43:29Z</time></trkpt><trkpt lat="46.43707945999376" lon="12.782724171759938"><ele>673.0</ele><time>2026-04-12T12:43:30Z</time></trkpt><trkpt lat="46.43696032648772" lon="12.782724697815041"><ele>673.0</ele><time>2026-04-12T12:43:31Z</time></trkpt><trkpt lat="46.43683484104217" lon="12.782716070440392"><ele>667.0</ele><time>2026-04-12T12:43:32Z</time></trkpt><trkpt lat="46.436696317578686" lon="12.782734386597097"><ele>661.0</ele><time>2026-04-12T12:43:33Z</time></trkpt><trkpt lat="46.43655346267362" lon="12.782768180162277"><ele>655.0</ele><time>2026-04-12T12:43:34Z</time></trkpt><trkpt lat="46.43642943450205" lon="12.782801754855114"><ele>649.0</ele><time>2026-04-12T12:43:35Z</time></trkpt><trkpt lat="46.43631743553384" lon="12.782833497319219"><ele>651.25</ele><time>2026-04-12T12:43:36Z</time></trkpt><trkpt lat="46.43622054169572" lon="12.782868205018906"><ele>653.5</ele><time>2026-04-12T12:43:37Z</time></trkpt><trkpt lat="46.436124675373485" lon="12.782894176638722"><ele>655.75</ele><time>2026-04-12T12:43:38Z</time></trkpt><trkpt lat="46.43602532889346" lon="12.78300892852612"><ele>658.0</ele><time>2026-04-12T12:43:39Z</time></trkpt><trkpt lat="46.435954253854185" lon="12.78317730341695"><ele>658.0</ele><time>2026-04-12T12:43:40Z</time></trkpt><trkpt lat="46.435900616025926" lon="12.783313902807947"><ele>658.0</ele><time>2026-04-12T12:43:41Z</time></trkpt><trkpt lat="46.435848709235536" lon="12.78342573082946"><ele>658.0</ele><time>2026-04-12T12:43:42Z</time></trkpt><trkpt lat="46.43579039711443" lon="12.783503576212828"><ele>658.0</ele><time>2026-04-12T12:43:43Z</time></trkpt><trkpt lat="46.435731933520586" lon="12.783566698171814"><ele>658.0</ele><time>2026-04-12T12:43:44Z</time></trkpt><trkpt lat="46.43566875842986" lon="12.783610409289484"><ele>658.0</ele><time>2026-04-12T12:43:45Z</time></trkpt><trkpt lat="46.43559644997836" lon="12.783566905680239"><ele>658.0</ele><time>2026-04-12T12:43:46Z</time></trkpt><trkpt lat="46.43551720850783" lon="12.783484816813214"><ele>658.0</ele><time>2026-04-12T12:43:47Z</time></trkpt><trkpt lat="46.435441675417074" lon="12.783424490810164"><ele>658.0</ele><time>2026-04-12T12:43:48Z</time></trkpt><trkpt lat="46.43534519243184" lon="12.783360504986224"><ele>658.0</ele><time>2026-04-12T12:43:48.999Z</time></trkpt><trkpt lat="46.43522329413633" lon="12.783410125353951"><ele>658.0</ele><time>2026-04-12T12:43:49.999Z</time></trkpt><trkpt lat="46.435134175100096" lon="12.783510200950058"><ele>648.25</ele><time>2026-04-12T12:43:50.999Z</time></trkpt><trkpt lat="46.43504659968509" lon="12.783569688607578"><ele>638.5</ele><time>2026-04-12T12:43:51.999Z</time></trkpt><trkpt lat="46.43491732205947" lon="12.78354562634999"><ele>628.75</ele><time>2026-04-12T12:43:52.999Z</time></trkpt><trkpt lat="46.43478843111041" lon="12.783549981748193"><ele>619.0</ele><time>2026-04-12T12:43:53.999Z</time></trkpt><trkpt lat="46.434679876734336" lon="12.783567806982388"><ele>618.8333333333334</ele><time>2026-04-12T12:43:54.999Z</time></trkpt><trkpt lat="46.4345845242345" lon="12.783603720164262"><ele>618.6666666666667</ele><time>2026-04-12T12:43:55.999Z</time></trkpt><trkpt lat="46.43450233151759" lon="12.783642000986731"><ele>618.5</ele><time>2026-04-12T12:43:56.999Z</time></trkpt><trkpt lat="46.43443070722706" lon="12.783693679534952"><ele>618.3333333333334</ele><time>2026-04-12T12:43:57.999Z</time></trkpt><trkpt lat="46.43434609532221" lon="12.783677044864111"><ele>618.1666666666666</ele><time>2026-04-12T12:43:58.999Z</time></trkpt><trkpt lat="46.434268022673564" lon="12.783607611305449"><ele>618.0</ele><time>2026-04-12T12:43:59.999Z</time></trkpt><trkpt lat="46.434184626685244" lon="12.78350240538413"><ele>622.0</ele><time>2026-04-12T12:44:00.999Z</time></trkpt><trkpt lat="46.43406977402039" lon="12.78342297104765"><ele>626.0</ele><time>2026-04-12T12:44:01.999Z</time></trkpt><trkpt lat="46.43393639292863" lon="12.783365570109757"><ele>630.0</ele><time>2026-04-12T12:44:02.999Z</time></trkpt><trkpt lat="46.43382496417665" lon="12.783328992388318"><ele>634.0</ele><time>2026-04-12T12:44:03.999Z</time></trkpt><trkpt lat="46.433714547292375" lon="12.783282778459911"><ele>634.0</ele><time>2026-04-12T12:44:04.999Z</time></trkpt><trkpt lat="46.43362077864774" lon="12.783243060262187"><ele>634.0</ele><time>2026-04-12T12:44:05.999Z</time></trkpt><trkpt lat="46.43353638896949" lon="12.783176019597445"><ele>634.0</ele><time>2026-04-12T12:44:06.999Z</time></trkpt><trkpt lat="46.433461174302884" lon="12.783065552628306"><ele>634.0</ele><time>2026-04-12T12:44:07.999Z</time></trkpt><trkpt lat="46.43337647250909" lon="12.782929119483425"><ele>634.0</ele><time>2026-04-12T12:44:08.999Z</time></trkpt><trkpt lat="46.43328296837225" lon="12.782794113421273"><ele>638.5</ele><time>2026-04-12T12:44:09.999Z</time></trkpt><trkpt lat="46.43319955648317" lon="12.782650348613478"><ele>643.0</ele><time>2026-04-12T12:44:10.999Z</time></trkpt><trkpt lat="46.43313112144825" lon="12.78249845351806"><ele>647.5</ele><time>2026-04-12T12:44:11.999Z</time></trkpt><trkpt lat="46.433067658135194" lon="12.782353971330986"><ele>652.0</ele><time>2026-04-12T12:44:12.999Z</time></trkpt><trkpt lat="46.4330059225821" lon="12.78221662451079"><ele>654.75</ele><time>2026-04-12T12:44:13.999Z</time></trkpt><trkpt lat="46.432955853003044" lon="12.782066142451862"><ele>657.5</ele><time>2026-04-12T12:44:14.999Z</time></trkpt><trkpt lat="46.43291412589221" lon="12.7818997928408"><ele>660.25</ele><time>2026-04-12T12:44:15.999Z</time></trkpt><trkpt lat="46.43286600016248" lon="12.781741496914652"><ele>663.0</ele><time>2026-04-12T12:44:16.999Z</time></trkpt><trkpt lat="46.432820029237334" lon="12.781609038550089"><ele>663.0</ele><time>2026-04-12T12:44:17.999Z</time></trkpt><trkpt lat="46.43277970648943" lon="12.781496703697517"><ele>663.0</ele><time>2026-04-12T12:44:18.999Z</time></trkpt><trkpt lat="46.43273838117513" lon="12.781387285751228"><ele>663.0</ele><time>2026-04-12T12:44:19.999Z</time></trkpt><trkpt lat="46.43270236377154" lon="12.781292425403846"><ele>663.0</ele><time>2026-04-12T12:44:20.999Z</time></trkpt><trkpt lat="46.43264830637095" lon="12.781230761902592"><ele>663.0</ele><time>2026-04-12T12:44:21.999Z</time></trkpt><trkpt lat="46.43257795218323" lon="12.781211828038971"><ele>663.0</ele><time>2026-04-12T12:44:22.999Z</time></trkpt><trkpt lat="46.43249613151921" lon="12.781218218038957"><ele>663.0</ele><time>2026-04-12T12:44:23.999Z</time></trkpt><trkpt lat="46.432416404610684" lon="12.781284637973057"><ele>663.0</ele><time>2026-04-12T12:44:24.999Z</time></trkpt><trkpt lat="46.432367523813454" lon="12.781436977621913"><ele>663.0</ele><time>2026-04-12T12:44:25.999Z</time></trkpt><trkpt lat="46.43238731701523" lon="12.781648899563415"><ele>663.0</ele><time>2026-04-12T12:44:26.999Z</time></trkpt><trkpt lat="46.432389196893574" lon="12.78182929333157"><ele>656.1999999999999</ele><time>2026-04-12T12:44:27.999Z</time></trkpt><trkpt lat="46.432383447063145" lon="12.781985734471052"><ele>649.4</ele><time>2026-04-12T12:44:28.999Z</time></trkpt><trkpt lat="46.432370674522645" lon="12.782137435569245"><ele>642.5999999999999</ele><time>2026-04-12T12:44:29.999Z</time></trkpt><trkpt lat="46.43233817825391" lon="12.782261607161287"><ele>635.8</ele><time>2026-04-12T12:44:30.999Z</time></trkpt><trkpt lat="46.43230547910067" lon="12.782381934188933"><ele>629.0</ele><time>2026-04-12T12:44:31.999Z</time></trkpt><trkpt lat="46.432271701889015" lon="12.78248223348106"><ele>629.0</ele><time>2026-04-12T12:44:32.999Z</time></trkpt><trkpt lat="46.432202286760926" lon="12.782573214012823"><ele>629.0</ele><time>2026-04-12T12:44:33.999Z</time></trkpt><trkpt lat="46.43209204374321" lon="12.782651521175804"><ele>629.0</ele><time>2026-04-12T12:44:34.999Z</time></trkpt><trkpt lat="46.431960648194455" lon="12.782718975655484"><ele>629.0</ele><time>2026-04-12T12:44:35.999Z</time></trkpt><trkpt lat="46.43181835311576" lon="12.782764591299676"><ele>624.6666666666666</ele><time>2026-04-12T12:44:36.999Z</time></trkpt><trkpt lat="46.431703866463735" lon="12.782790685328374"><ele>620.3333333333334</ele><time>2026-04-12T12:44:37.999Z</time></trkpt><trkpt lat="46.43152834862545" lon="12.78283213113013"><ele>616.0</ele><time>2026-04-12T12:44:38.999Z</time></trkpt><trkpt lat="46.431366970949846" lon="12.782882958813655"><ele>618.0</ele><time>2026-04-12T12:44:39.999Z</time></trkpt><trkpt lat="46.43122817439271" lon="12.782947329896604"><ele>620.0</ele><time>2026-04-12T12:44:40.999Z</time></trkpt><trkpt lat="46.43110545112722" lon="12.783068958665716"><ele>622.0</ele><time>2026-04-12T12:44:41.999Z</time></trkpt><trkpt lat="46.43101373853762" lon="12.78318889744464"><ele>624.0</ele><time>2026-04-12T12:44:42.999Z</time></trkpt><trkpt lat="46.43095269976486" lon="12.78326946656388"><ele>624.0</ele><time>2026-04-12T12:44:43.999Z</time></trkpt><trkpt lat="46.43088534561967" lon="12.783336964569063"><ele>624.0</ele><time>2026-04-12T12:44:44.999Z</time></trkpt><trkpt lat="46.43081327375061" lon="12.783363484028596"><ele>624.0</ele><time>2026-04-12T12:44:45.999Z</time></trkpt><trkpt lat="46.43069888116656" lon="12.78324970266609"><ele>624.0</ele><time>2026-04-12T12:44:47.999Z</time></trkpt><trkpt lat="46.43057019740344" lon="12.78318569968499"><ele>624.0</ele><time>2026-04-12T12:44:48.999Z</time></trkpt><trkpt lat="46.43042647087225" lon="12.783135615493276"><ele>625.0</ele><time>2026-04-12T12:44:49.999Z</time></trkpt><trkpt lat="46.430258470289516" lon="12.783180908462386"><ele>626.0</ele><time>2026-04-12T12:44:50.999Z</time></trkpt><trkpt lat="46.430120623200054" lon="12.783161269420038"><ele>627.0</ele><time>2026-04-12T12:44:51.999Z</time></trkpt><trkpt lat="46.43001365693787" lon="12.783175894511116"><ele>628.0</ele><time>2026-04-12T12:44:52.999Z</time></trkpt><trkpt lat="46.42992964899394" lon="12.783237993546937"><ele>628.0</ele><time>2026-04-12T12:44:53.999Z</time></trkpt><trkpt lat="46.429866180833244" lon="12.783326309227595"><ele>628.0</ele><time>2026-04-12T12:44:54.999Z</time></trkpt><trkpt lat="46.42978081055962" lon="12.783339264879883"><ele>628.0</ele><time>2026-04-12T12:44:55.999Z</time></trkpt><trkpt lat="46.42970527902841" lon="12.783292866431648"><ele>628.0</ele><time>2026-04-12T12:44:56.999Z</time></trkpt><trkpt lat="46.429631688263356" lon="12.783284465387343"><ele>628.0</ele><time>2026-04-12T12:44:57.999Z</time></trkpt><trkpt lat="46.42950412628813" lon="12.783387657939313"><ele>623.1999999999999</ele><time>2026-04-12T12:44:59.999Z</time></trkpt><trkpt lat="46.42943654449772" lon="12.783522513628176"><ele>618.4</ele><time>2026-04-12T12:45:00.999Z</time></trkpt><trkpt lat="46.42940445535385" lon="12.783647268904017"><ele>613.5999999999999</ele><time>2026-04-12T12:45:01.999Z</time></trkpt><trkpt lat="46.42934452236924" lon="12.783712570096462"><ele>608.8</ele><time>2026-04-12T12:45:02.999Z</time></trkpt><trkpt lat="46.4292550022947" lon="12.783756779639816"><ele>604.0</ele><time>2026-04-12T12:45:03.999Z</time></trkpt><trkpt lat="46.429142662674906" lon="12.783774013840528"><ele>604.0</ele><time>2026-04-12T12:45:04.999Z</time></trkpt><trkpt lat="46.4290103132367" lon="12.783779709901008"><ele>604.0</ele><time>2026-04-12T12:45:05.999Z</time></trkpt><trkpt lat="46.42890558086664" lon="12.78383313617438"><ele>604.0</ele><time>2026-04-12T12:45:06.999Z</time></trkpt><trkpt lat="46.428821331231894" lon="12.783903011117552"><ele>604.0</ele><time>2026-04-12T12:45:07.999Z</time></trkpt><trkpt lat="46.4287331723293" lon="12.783946420265027"><ele>604.0</ele><time>2026-04-12T12:45:08.999Z</time></trkpt><trkpt lat="46.42865380842116" lon="12.783941702936383"><ele>604.0</ele><time>2026-04-12T12:45:09.999Z</time></trkpt><trkpt lat="46.428522774221285" lon="12.783870922807067"><ele>604.0</ele><time>2026-04-12T12:45:10.999Z</time></trkpt><trkpt lat="46.42838142372221" lon="12.78381111890629"><ele>604.0</ele><time>2026-04-12T12:45:11.999Z</time></trkpt><trkpt lat="46.42825721236713" lon="12.783781939816176"><ele>604.0</ele><time>2026-04-12T12:45:12.999Z</time></trkpt><trkpt lat="46.42813813706058" lon="12.783803811496755"><ele>604.0</ele><time>2026-04-12T12:45:13.999Z</time></trkpt><trkpt lat="46.428021343918" lon="12.783839819420594"><ele>604.0</ele><time>2026-04-12T12:45:14.999Z</time></trkpt><trkpt lat="46.4279141435139" lon="12.783856595068185"><ele>604.0</ele><time>2026-04-12T12:45:15.999Z</time></trkpt><trkpt lat="46.427808241018525" lon="12.783823900577344"><ele>604.0</ele><time>2026-04-12T12:45:16.999Z</time></trkpt><trkpt lat="46.42769616292012" lon="12.783765249600043"><ele>600.6</ele><time>2026-04-12T12:45:18Z</time></trkpt><trkpt lat="46.42756888951186" lon="12.7837290097222"><ele>597.2</ele><time>2026-04-12T12:45:19Z</time></trkpt><trkpt lat="46.42746134934495" lon="12.783694071647144"><ele>593.8000000000001</ele><time>2026-04-12T12:45:20Z</time></trkpt><trkpt lat="46.42737086661535" lon="12.783637972968089"><ele>590.4</ele><time>2026-04-12T12:45:21Z</time></trkpt><trkpt lat="46.427313128637586" lon="12.783545274424533"><ele>587.0</ele><time>2026-04-12T12:45:22Z</time></trkpt><trkpt lat="46.42724049510176" lon="12.783462391937567"><ele>588.5</ele><time>2026-04-12T12:45:23Z</time></trkpt><trkpt lat="46.42712059693069" lon="12.783432935496387"><ele>590.0</ele><time>2026-04-12T12:45:24Z</time></trkpt><trkpt lat="46.4269957438243" lon="12.783436812963538"><ele>591.5</ele><time>2026-04-12T12:45:25Z</time></trkpt><trkpt lat="46.426890250150436" lon="12.783480152572087"><ele>593.0</ele><time>2026-04-12T12:45:26Z</time></trkpt><trkpt lat="46.42680787371189" lon="12.783560938648662"><ele>593.0</ele><time>2026-04-12T12:45:27Z</time></trkpt><trkpt lat="46.42672941716637" lon="12.78369423243181"><ele>593.0</ele><time>2026-04-12T12:45:28Z</time></trkpt><trkpt lat="46.42663422910393" lon="12.7838401232809"><ele>593.0</ele><time>2026-04-12T12:45:29Z</time></trkpt><trkpt lat="46.42651207693617" lon="12.783946066040597"><ele>593.0</ele><time>2026-04-12T12:45:30Z</time></trkpt><trkpt lat="46.426418599774536" lon="12.783999984344947"><ele>593.0</ele><time>2026-04-12T12:45:31Z</time></trkpt><trkpt lat="46.42633448673363" lon="12.784062342071335"><ele>593.0</ele><time>2026-04-12T12:45:32Z</time></trkpt><trkpt lat="46.42625172345764" lon="12.784120780342887"><ele>593.0</ele><time>2026-04-12T12:45:33Z</time></trkpt><trkpt lat="46.42617485980789" lon="12.784150939836342"><ele>593.0</ele><time>2026-04-12T12:45:34Z</time></trkpt><trkpt lat="46.42608093076585" lon="12.78412584334443"><ele>593.0</ele><time>2026-04-12T12:45:35Z</time></trkpt><trkpt lat="46.426012011033876" lon="12.784056940214198"><ele>593.0</ele><time>2026-04-12T12:45:36Z</time></trkpt><trkpt lat="46.42592759032261" lon="12.783980186027128"><ele>592.5</ele><time>2026-04-12T12:45:37Z</time></trkpt><trkpt lat="46.42582032760491" lon="12.78391872269328"><ele>592.0</ele><time>2026-04-12T12:45:38Z</time></trkpt><trkpt lat="46.425685391225485" lon="12.783918734017114"><ele>591.5</ele><time>2026-04-12T12:45:39Z</time></trkpt><trkpt lat="46.42557091716635" lon="12.78396460674106"><ele>591.0</ele><time>2026-04-12T12:45:40Z</time></trkpt><trkpt lat="46.42543954753719" lon="12.783957710632588"><ele>588.75</ele><time>2026-04-12T12:45:41Z</time></trkpt><trkpt lat="46.42531148066703" lon="12.78389763159954"><ele>586.5</ele><time>2026-04-12T12:45:42Z</time></trkpt><trkpt lat="46.42517858001605" lon="12.783820959531804"><ele>584.25</ele><time>2026-04-12T12:45:43Z</time></trkpt><trkpt lat="46.4250275071944" lon="12.783767711653107"><ele>582.0</ele><time>2026-04-12T12:45:44Z</time></trkpt><trkpt lat="46.424881721285345" lon="12.783727745855586"><ele>582.0</ele><time>2026-04-12T12:45:45Z</time></trkpt><trkpt lat="46.42474863376871" lon="12.783694293664974"><ele>582.0</ele><time>2026-04-12T12:45:46Z</time></trkpt><trkpt lat="46.424630977245265" lon="12.783675990754066"><ele>582.0</ele><time>2026-04-12T12:45:47Z</time></trkpt><trkpt lat="46.424502641247535" lon="12.783684939637114"><ele>582.0</ele><time>2026-04-12T12:45:48Z</time></trkpt><trkpt lat="46.424371132679134" lon="12.783731732012793"><ele>582.75</ele><time>2026-04-12T12:45:49Z</time></trkpt><trkpt lat="46.42423503172773" lon="12.783818080514541"><ele>583.5</ele><time>2026-04-12T12:45:50Z</time></trkpt><trkpt lat="46.42410453190842" lon="12.783910564889812"><ele>584.25</ele><time>2026-04-12T12:45:51Z</time></trkpt><trkpt lat="46.423976776807315" lon="12.784000496077086"><ele>585.0</ele><time>2026-04-12T12:45:52Z</time></trkpt><trkpt lat="46.42385705281948" lon="12.784120407093068"><ele>585.0</ele><time>2026-04-12T12:45:53Z</time></trkpt><trkpt lat="46.42375568838957" lon="12.784282457337522"><ele>585.0</ele><time>2026-04-12T12:45:54Z</time></trkpt><trkpt lat="46.42364974630621" lon="12.784429915232947"><ele>585.0</ele><time>2026-04-12T12:45:55Z</time></trkpt><trkpt lat="46.42356480978263" lon="12.78458518073342"><ele>585.0</ele><time>2026-04-12T12:45:56Z</time></trkpt><trkpt lat="46.42349548507163" lon="12.784719997283538"><ele>585.0</ele><time>2026-04-12T12:45:57Z</time></trkpt><trkpt lat="46.423432175750605" lon="12.784839612497896"><ele>585.0</ele><time>2026-04-12T12:45:58Z</time></trkpt><trkpt lat="46.42337326286642" lon="12.78494936722673"><ele>585.0</ele><time>2026-04-12T12:45:59Z</time></trkpt><trkpt lat="46.42332095550148" lon="12.785042622833698"><ele>585.0</ele><time>2026-04-12T12:45:59.999Z</time></trkpt><trkpt lat="46.4232681889222" lon="12.785129696382974"><ele>585.0</ele><time>2026-04-12T12:46:00.999Z</time></trkpt><trkpt lat="46.42320533233444" lon="12.785199108673792"><ele>585.0</ele><time>2026-04-12T12:46:01.999Z</time></trkpt><trkpt lat="46.423116231231624" lon="12.785220750840748"><ele>588.75</ele><time>2026-04-12T12:46:02.999Z</time></trkpt><trkpt lat="46.422997417075486" lon="12.785198712215346"><ele>592.5</ele><time>2026-04-12T12:46:03.999Z</time></trkpt><trkpt lat="46.422868375736186" lon="12.785152937029304"><ele>596.25</ele><time>2026-04-12T12:46:04.999Z</time></trkpt><trkpt lat="46.422744014536164" lon="12.785087018926948"><ele>600.0</ele><time>2026-04-12T12:46:05.999Z</time></trkpt><trkpt lat="46.422636426654336" lon="12.785051200376733"><ele>600.0</ele><time>2026-04-12T12:46:06.999Z</time></trkpt><trkpt lat="46.422557210806886" lon="12.785011134058418"><ele>600.0</ele><time>2026-04-12T12:46:07.999Z</time></trkpt><trkpt lat="46.42247592628738" lon="12.785010658327089"><ele>600.0</ele><time>2026-04-12T12:46:08.999Z</time></trkpt><trkpt lat="46.422384937795236" lon="12.785068349730503"><ele>600.0</ele><time>2026-04-12T12:46:09.999Z</time></trkpt><trkpt lat="46.42232867479993" lon="12.78521592825605"><ele>600.0</ele><time>2026-04-12T12:46:10.999Z</time></trkpt><trkpt lat="46.422335508364085" lon="12.785409782821285"><ele>601.5</ele><time>2026-04-12T12:46:11.999Z</time></trkpt><trkpt lat="46.422277645078196" lon="12.785566843078557"><ele>603.0</ele><time>2026-04-12T12:46:12.999Z</time></trkpt><trkpt lat="46.42220783882249" lon="12.785707514407674"><ele>604.5</ele><time>2026-04-12T12:46:13.999Z</time></trkpt><trkpt lat="46.422117441266785" lon="12.785865274665003"><ele>606.0</ele><time>2026-04-12T12:46:14.999Z</time></trkpt><trkpt lat="46.42203876484285" lon="12.785980205584563"><ele>602.2</ele><time>2026-04-12T12:46:15.999Z</time></trkpt><trkpt lat="46.42195505220506" lon="12.786102960466158"><ele>598.4000000000001</ele><time>2026-04-12T12:46:16.999Z</time></trkpt><trkpt lat="46.42189447068238" lon="12.786189842260665"><ele>594.6</ele><time>2026-04-12T12:46:17.999Z</time></trkpt><trkpt lat="46.42184766429786" lon="12.786290245202258"><ele>590.8000000000001</ele><time>2026-04-12T12:46:18.999Z</time></trkpt><trkpt lat="46.42180822615098" lon="12.786407742452255"><ele>587.0</ele><time>2026-04-12T12:46:19.999Z</time></trkpt><trkpt lat="46.42175891486203" lon="12.786517834672512"><ele>587.0</ele><time>2026-04-12T12:46:20.999Z</time></trkpt><trkpt lat="46.421726955684" lon="12.786631508414928"><ele>587.0</ele><time>2026-04-12T12:46:21.999Z</time></trkpt><trkpt lat="46.421697167205245" lon="12.786737836937673"><ele>587.0</ele><time>2026-04-12T12:46:22.999Z</time></trkpt><trkpt lat="46.421664317811505" lon="12.786855091664469"><ele>587.0</ele><time>2026-04-12T12:46:23.999Z</time></trkpt><trkpt lat="46.42163100831399" lon="12.786962839969226"><ele>587.0</ele><time>2026-04-12T12:46:24.999Z</time></trkpt><trkpt lat="46.42159707678963" lon="12.787057537690442"><ele>587.0</ele><time>2026-04-12T12:46:25.999Z</time></trkpt><trkpt lat="46.42153892073481" lon="12.787123939611384"><ele>588.5</ele><time>2026-04-12T12:46:26.999Z</time></trkpt><trkpt lat="46.42146965859081" lon="12.787147674077087"><ele>590.0</ele><time>2026-04-12T12:46:27.999Z</time></trkpt><trkpt lat="46.421389737355526" lon="12.787173348224302"><ele>591.5</ele><time>2026-04-12T12:46:28.999Z</time></trkpt><trkpt lat="46.42131634884295" lon="12.787168857784998"><ele>593.0</ele><time>2026-04-12T12:46:29.999Z</time></trkpt><trkpt lat="46.42119595479095" lon="12.787207694659555"><ele>594.5</ele><time>2026-04-12T12:46:31.999Z</time></trkpt><trkpt lat="46.42113544756989" lon="12.787290152441845"><ele>596.0</ele><time>2026-04-12T12:46:32.999Z</time></trkpt><trkpt lat="46.42110771128056" lon="12.78740692449012"><ele>596.0</ele><time>2026-04-12T12:46:33.999Z</time></trkpt><trkpt lat="46.421145535904834" lon="12.787595637795125"><ele>596.0</ele><time>2026-04-12T12:46:34.999Z</time></trkpt><trkpt lat="46.4211810791531" lon="12.787706471091543"><ele>596.0</ele><time>2026-04-12T12:46:35.999Z</time></trkpt><trkpt lat="46.42120491696465" lon="12.78779239649219"><ele>596.0</ele><time>2026-04-12T12:46:36.999Z</time></trkpt><trkpt lat="46.42122469301227" lon="12.78788218766504"><ele>596.0</ele><time>2026-04-12T12:46:37.999Z</time></trkpt><trkpt lat="46.42121816974338" lon="12.788037323226005"><ele>591.8333333333333</ele><time>2026-04-12T12:46:39.999Z</time></trkpt><trkpt lat="46.42113800181792" lon="12.788146723005008"><ele>587.6666666666666</ele><time>2026-04-12T12:46:41.999Z</time></trkpt><trkpt lat="46.42107769642937" lon="12.788195242184205"><ele>583.5</ele><time>2026-04-12T12:46:42.999Z</time></trkpt><trkpt lat="46.42101715057007" lon="12.788164858797604"><ele>579.3333333333334</ele><time>2026-04-12T12:46:43.999Z</time></trkpt><trkpt lat="46.42095970732457" lon="12.788097038786445"><ele>575.1666666666667</ele><time>2026-04-12T12:46:44.999Z</time></trkpt><trkpt lat="46.42089919819712" lon="12.78801787784958"><ele>571.0</ele><time>2026-04-12T12:46:45.999Z</time></trkpt><trkpt lat="46.42084791755642" lon="12.787944656419636"><ele>571.0</ele><time>2026-04-12T12:46:46.999Z</time></trkpt><trkpt lat="46.4207930141542" lon="12.787883820415226"><ele>571.0</ele><time>2026-04-12T12:46:47.999Z</time></trkpt><trkpt lat="46.42072666987638" lon="12.78783900240424"><ele>571.0</ele><time>2026-04-12T12:46:48.999Z</time></trkpt><trkpt lat="46.420644898928444" lon="12.787810229832186"><ele>571.0</ele><time>2026-04-12T12:46:49.999Z</time></trkpt><trkpt lat="46.42056014821684" lon="12.787807615109964"><ele>571.0</ele><time>2026-04-12T12:46:50.999Z</time></trkpt><trkpt lat="46.42048701437241" lon="12.787826500229773"><ele>571.0</ele><time>2026-04-12T12:46:51.999Z</time></trkpt><trkpt lat="46.42041858743785" lon="12.787830003056238"><ele>574.1666666666667</ele><time>2026-04-12T12:46:52.999Z</time></trkpt><trkpt lat="46.420346594053015" lon="12.787877215955701"><ele>577.3333333333334</ele><time>2026-04-12T12:46:53.999Z</time></trkpt><trkpt lat="46.420281298485996" lon="12.787928497432944"><ele>580.5</ele><time>2026-04-12T12:46:54.999Z</time></trkpt><trkpt lat="46.42021592432741" lon="12.788006319329323"><ele>583.6666666666666</ele><time>2026-04-12T12:46:55.999Z</time></trkpt><trkpt lat="46.42016121341874" lon="12.788102773419112"><ele>586.8333333333333</ele><time>2026-04-12T12:46:56.999Z</time></trkpt><trkpt lat="46.420117168666565" lon="12.788209573538072"><ele>590.0</ele><time>2026-04-12T12:46:57.999Z</time></trkpt><trkpt lat="46.420081812830986" lon="12.788294157348837"><ele>590.0</ele><time>2026-04-12T12:46:58.999Z</time></trkpt><trkpt lat="46.420044674846444" lon="12.78838300435523"><ele>590.0</ele><time>2026-04-12T12:46:59.999Z</time></trkpt><trkpt lat="46.4200078310479" lon="12.788471137247042"><ele>590.0</ele><time>2026-04-12T12:47:00.999Z</time></trkpt><trkpt lat="46.41997030037382" lon="12.788574593016444"><ele>590.0</ele><time>2026-04-12T12:47:01.999Z</time></trkpt><trkpt lat="46.41994081645676" lon="12.788690581110457"><ele>590.0</ele><time>2026-04-12T12:47:02.999Z</time></trkpt><trkpt lat="46.4199234979548" lon="12.7888247894187"><ele>590.0</ele><time>2026-04-12T12:47:03.999Z</time></trkpt><trkpt lat="46.419913586625974" lon="12.788932060989117"><ele>589.0</ele><time>2026-04-12T12:47:04.999Z</time></trkpt><trkpt lat="46.419893624722235" lon="12.789048637647278"><ele>588.0</ele><time>2026-04-12T12:47:06.999Z</time></trkpt><trkpt lat="46.41982106210565" lon="12.789160341393055"><ele>587.0</ele><time>2026-04-12T12:47:08.999Z</time></trkpt><trkpt lat="46.41975520603611" lon="12.789174064684014"><ele>586.0</ele><time>2026-04-12T12:47:09.999Z</time></trkpt><trkpt lat="46.419686182889194" lon="12.789199344969772"><ele>585.0</ele><time>2026-04-12T12:47:10.999Z</time></trkpt><trkpt lat="46.419611550378725" lon="12.789203961749873"><ele>584.0</ele><time>2026-04-12T12:47:11.999Z</time></trkpt><trkpt lat="46.41953699590511" lon="12.789245823023684"><ele>584.0</ele><time>2026-04-12T12:47:12.999Z</time></trkpt><trkpt lat="46.41947287217119" lon="12.789329568039097"><ele>584.0</ele><time>2026-04-12T12:47:13.999Z</time></trkpt><trkpt lat="46.41942261158852" lon="12.789422371152154"><ele>584.0</ele><time>2026-04-12T12:47:14.999Z</time></trkpt><trkpt lat="46.4193762670199" lon="12.789516400572303"><ele>584.0</ele><time>2026-04-12T12:47:15.999Z</time></trkpt><trkpt lat="46.4193349697106" lon="12.789602180159147"><ele>584.0</ele><time>2026-04-12T12:47:16.999Z</time></trkpt><trkpt lat="46.419293032174025" lon="12.789680515602345"><ele>584.0</ele><time>2026-04-12T12:47:17.999Z</time></trkpt><trkpt lat="46.41924077142861" lon="12.789749168642052"><ele>581.4</ele><time>2026-04-12T12:47:18.999Z</time></trkpt><trkpt lat="46.4191057070337" lon="12.78979591557481"><ele>578.8</ele><time>2026-04-12T12:47:20.999Z</time></trkpt><trkpt lat="46.41902487370572" lon="12.789826968935252"><ele>576.2</ele><time>2026-04-12T12:47:21.999Z</time></trkpt><trkpt lat="46.418933614220144" lon="12.789871388663295"><ele>573.6</ele><time>2026-04-12T12:47:23Z</time></trkpt><trkpt lat="46.41884916928146" lon="12.789961538355287"><ele>571.0</ele><time>2026-04-12T12:47:24Z</time></trkpt><trkpt lat="46.41879181062814" lon="12.79010795415188"><ele>570.2857142857143</ele><time>2026-04-12T12:47:25Z</time></trkpt><trkpt lat="46.41876145531657" lon="12.790197507525347"><ele>569.5714285714286</ele><time>2026-04-12T12:47:26Z</time></trkpt><trkpt lat="46.41871734588034" lon="12.79028189889112"><ele>568.8571428571429</ele><time>2026-04-12T12:47:27Z</time></trkpt><trkpt lat="46.41866288302521" lon="12.790365832757796"><ele>568.1428571428571</ele><time>2026-04-12T12:47:28Z</time></trkpt><trkpt lat="46.41860997114239" lon="12.790443355755164"><ele>567.4285714285714</ele><time>2026-04-12T12:47:29Z</time></trkpt><trkpt lat="46.418552513155255" lon="12.790509890213354"><ele>566.7142857142858</ele><time>2026-04-12T12:47:30Z</time></trkpt><trkpt lat="46.41849452678189" lon="12.790566495620782"><ele>566.0</ele><time>2026-04-12T12:47:31Z</time></trkpt><trkpt lat="46.418430341405305" lon="12.790605101124157"><ele>566.0</ele><time>2026-04-12T12:47:32Z</time></trkpt><trkpt lat="46.418360496252035" lon="12.790615542443696"><ele>566.0</ele><time>2026-04-12T12:47:33Z</time></trkpt><trkpt lat="46.418283422752175" lon="12.790640031833238"><ele>566.0</ele><time>2026-04-12T12:47:34Z</time></trkpt><trkpt lat="46.4182066271324" lon="12.790616784277855"><ele>566.0</ele><time>2026-04-12T12:47:35Z</time></trkpt><trkpt lat="46.418130388957394" lon="12.7905746521989"><ele>566.0</ele><time>2026-04-12T12:47:36Z</time></trkpt><trkpt lat="46.418063660699126" lon="12.790522791175059"><ele>566.0</ele><time>2026-04-12T12:47:37Z</time></trkpt><trkpt lat="46.41799526205449" lon="12.790464595240664"><ele>566.3333333333333</ele><time>2026-04-12T12:47:38Z</time></trkpt><trkpt lat="46.417928887036354" lon="12.790402594085133"><ele>566.6666666666666</ele><time>2026-04-12T12:47:39Z</time></trkpt><trkpt lat="46.41786724453002" lon="12.790340446442393"><ele>567.0</ele><time>2026-04-12T12:47:40Z</time></trkpt><trkpt lat="46.41780003064746" lon="12.790295108921473"><ele>567.3333333333334</ele><time>2026-04-12T12:47:41Z</time></trkpt><trkpt lat="46.41773522727813" lon="12.790269378752582"><ele>567.6666666666667</ele><time>2026-04-12T12:47:42Z</time></trkpt><trkpt lat="46.41760770053256" lon="12.790274349696114"><ele>568.0</ele><time>2026-04-12T12:47:44Z</time></trkpt><trkpt lat="46.41753768295287" lon="12.790276732634167"><ele>568.0</ele><time>2026-04-12T12:47:45Z</time></trkpt><trkpt lat="46.41742231118444" lon="12.79028315112779"><ele>568.0</ele><time>2026-04-12T12:47:47Z</time></trkpt><trkpt lat="46.417354925789574" lon="12.790261626143465"><ele>568.0</ele><time>2026-04-12T12:47:49Z</time></trkpt><trkpt lat="46.41728723858704" lon="12.790198574452303"><ele>568.0</ele><time>2026-04-12T12:48:45.999Z</time></trkpt><trkpt lat="46.41722011900861" lon="12.790234044487228"><ele>568.0</ele><time>2026-04-12T12:48:47.999Z</time></trkpt><trkpt lat="46.41716387480549" lon="12.79035969731094"><ele>568.0</ele><time>2026-04-12T12:48:48.999Z</time></trkpt><trkpt lat="46.4171303085147" lon="12.790456617438611"><ele>567.7142857142857</ele><time>2026-04-12T12:48:49.999Z</time></trkpt><trkpt lat="46.41709671621381" lon="12.790552690502391"><ele>567.4285714285713</ele><time>2026-04-12T12:48:50.999Z</time></trkpt><trkpt lat="46.417064685081385" lon="12.790643454272622"><ele>567.1428571428571</ele><time>2026-04-12T12:48:51.999Z</time></trkpt><trkpt lat="46.41703228830627" lon="12.790731058006584"><ele>566.8571428571429</ele><time>2026-04-12T12:48:52.999Z</time></trkpt><trkpt lat="46.416996376155446" lon="12.790811106999953"><ele>566.5714285714287</ele><time>2026-04-12T12:48:53.999Z</time></trkpt><trkpt lat="46.41695103089638" lon="12.790883470148604"><ele>566.2857142857143</ele><time>2026-04-12T12:48:54.999Z</time></trkpt><trkpt lat="46.416883930932165" lon="12.790931616019812"><ele>566.0</ele><time>2026-04-12T12:48:55.999Z</time></trkpt><trkpt lat="46.41680147709627" lon="12.790959381921047"><ele>566.0</ele><time>2026-04-12T12:48:56.999Z</time></trkpt><trkpt lat="46.41671582834585" lon="12.790950821957345"><ele>566.0</ele><time>2026-04-12T12:48:57.999Z</time></trkpt><trkpt lat="46.41662172456193" lon="12.790964274622763"><ele>566.0</ele><time>2026-04-12T12:48:58.999Z</time></trkpt><trkpt lat="46.41653356353841" lon="12.790950523842369"><ele>566.0</ele><time>2026-04-12T12:48:59.999Z</time></trkpt><trkpt lat="46.416443819689206" lon="12.790930517777955"><ele>566.0</ele><time>2026-04-12T12:49:00.999Z</time></trkpt><trkpt lat="46.41635756843973" lon="12.790910761041204"><ele>566.0</ele><time>2026-04-12T12:49:01.999Z</time></trkpt><trkpt lat="46.4162716732536" lon="12.79099411107651"><ele>564.5</ele><time>2026-04-12T12:49:02.999Z</time></trkpt><trkpt lat="46.41622339328009" lon="12.791170464632183"><ele>563.0</ele><time>2026-04-12T12:49:03.999Z</time></trkpt><trkpt lat="46.416250782529495" lon="12.79136026745775"><ele>561.5</ele><time>2026-04-12T12:49:04.999Z</time></trkpt><trkpt lat="46.41624608688204" lon="12.7915304858158"><ele>560.0</ele><time>2026-04-12T12:49:05.999Z</time></trkpt><trkpt lat="46.41625922492213" lon="12.791699274913114"><ele>560.0</ele><time>2026-04-12T12:49:06.999Z</time></trkpt><trkpt lat="46.41629792440682" lon="12.791879827977503"><ele>560.0</ele><time>2026-04-12T12:49:07.999Z</time></trkpt><trkpt lat="46.41634077439026" lon="12.792040801640965"><ele>560.0</ele><time>2026-04-12T12:49:08.999Z</time></trkpt><trkpt lat="46.41638733874264" lon="12.792189546115289"><ele>560.0</ele><time>2026-04-12T12:49:09.999Z</time></trkpt><trkpt lat="46.416427243256614" lon="12.792333246419751"><ele>560.8</ele><time>2026-04-12T12:49:10.999Z</time></trkpt><trkpt lat="46.41646665047287" lon="12.792478103657611"><ele>561.6</ele><time>2026-04-12T12:49:11.999Z</time></trkpt><trkpt lat="46.41650452741248" lon="12.792626833412138"><ele>562.4</ele><time>2026-04-12T12:49:12.999Z</time></trkpt><trkpt lat="46.41657123726444" lon="12.792764329826987"><ele>563.2</ele><time>2026-04-12T12:49:13.999Z</time></trkpt><trkpt lat="46.4166000315938" lon="12.792890825704593"><ele>564.0</ele><time>2026-04-12T12:49:14.999Z</time></trkpt><trkpt lat="46.41663217619954" lon="12.793031407119466"><ele>564.0</ele><time>2026-04-12T12:49:15.999Z</time></trkpt><trkpt lat="46.41658113067379" lon="12.793182167545625"><ele>564.0</ele><time>2026-04-12T12:49:16.999Z</time></trkpt><trkpt lat="46.416577150779396" lon="12.793320910033128"><ele>564.0</ele><time>2026-04-12T12:49:17.999Z</time></trkpt><trkpt lat="46.41656131757128" lon="12.793436164823365"><ele>564.0</ele><time>2026-04-12T12:49:18.999Z</time></trkpt><trkpt lat="46.41652797205241" lon="12.793573629434624"><ele>564.0</ele><time>2026-04-12T12:49:19.999Z</time></trkpt><trkpt lat="46.41648270907961" lon="12.793721194243458"><ele>563.25</ele><time>2026-04-12T12:49:20.999Z</time></trkpt><trkpt lat="46.41643337754525" lon="12.793861007770015"><ele>562.5</ele><time>2026-04-12T12:49:21.999Z</time></trkpt><trkpt lat="46.41638419813451" lon="12.79400780468188"><ele>561.75</ele><time>2026-04-12T12:49:22.999Z</time></trkpt><trkpt lat="46.41633917105941" lon="12.794163831912712"><ele>561.0</ele><time>2026-04-12T12:49:23.999Z</time></trkpt><trkpt lat="46.41631759685071" lon="12.794343385817818"><ele>560.2</ele><time>2026-04-12T12:49:24.999Z</time></trkpt><trkpt lat="46.41634019554539" lon="12.794537991743793"><ele>559.4000000000001</ele><time>2026-04-12T12:49:25.999Z</time></trkpt><trkpt lat="46.4163643577674" lon="12.794683625271547"><ele>558.6</ele><time>2026-04-12T12:49:26.999Z</time></trkpt><trkpt lat="46.41635495164273" lon="12.794822574030189"><ele>557.8000000000001</ele><time>2026-04-12T12:49:27.999Z</time></trkpt><trkpt lat="46.41631581650164" lon="12.794939836034864"><ele>557.0</ele><time>2026-04-12T12:49:29Z</time></trkpt><trkpt lat="46.416259039413404" lon="12.795053518206489"><ele>556.5</ele><time>2026-04-12T12:49:30Z</time></trkpt><trkpt lat="46.41618945822648" lon="12.79517923777387"><ele>556.0</ele><time>2026-04-12T12:49:31Z</time></trkpt><trkpt lat="46.4161174987849" lon="12.795308666951431"><ele>555.5</ele><time>2026-04-12T12:49:32Z</time></trkpt><trkpt lat="46.416039290424706" lon="12.795451286940779"><ele>555.0</ele><time>2026-04-12T12:49:33Z</time></trkpt><trkpt lat="46.41596848421529" lon="12.795617777033275"><ele>555.0</ele><time>2026-04-12T12:49:34Z</time></trkpt><trkpt lat="46.41590349547151" lon="12.795780270267594"><ele>555.0</ele><time>2026-04-12T12:49:35Z</time></trkpt><trkpt lat="46.415838509302795" lon="12.795944264977354"><ele>555.0</ele><time>2026-04-12T12:49:36Z</time></trkpt><trkpt lat="46.415847599574384" lon="12.796164645458056"><ele>555.0</ele><time>2026-04-12T12:49:37Z</time></trkpt><trkpt lat="46.415783537784975" lon="12.796319751201533"><ele>555.0</ele><time>2026-04-12T12:49:38Z</time></trkpt><trkpt lat="46.41571474598407" lon="12.796471970361006"><ele>555.0</ele><time>2026-04-12T12:49:39Z</time></trkpt><trkpt lat="46.415642482581454" lon="12.79661787700998"><ele>555.0</ele><time>2026-04-12T12:49:40Z</time></trkpt><trkpt lat="46.415509412788346" lon="12.796696386590316"><ele>555.0</ele><time>2026-04-12T12:49:41Z</time></trkpt><trkpt lat="46.41551363455756" lon="12.796905064627044"><ele>555.0</ele><time>2026-04-12T12:49:42Z</time></trkpt><trkpt lat="46.415450330723374" lon="12.797041965222565"><ele>555.0</ele><time>2026-04-12T12:49:43Z</time></trkpt><trkpt lat="46.41538836951425" lon="12.797177634453808"><ele>555.0</ele><time>2026-04-12T12:49:44Z</time></trkpt><trkpt lat="46.41532777446213" lon="12.797316879594113"><ele>555.0</ele><time>2026-04-12T12:49:45Z</time></trkpt><trkpt lat="46.41526394634566" lon="12.797468935053985"><ele>555.0</ele><time>2026-04-12T12:49:46Z</time></trkpt><trkpt lat="46.41519283224634" lon="12.797631424958146"><ele>555.0</ele><time>2026-04-12T12:49:47Z</time></trkpt><trkpt lat="46.41512799328397" lon="12.797788765676101"><ele>555.0</ele><time>2026-04-12T12:49:48Z</time></trkpt><trkpt lat="46.41498763608668" lon="12.79787868837625"><ele>555.0</ele><time>2026-04-12T12:49:49Z</time></trkpt><trkpt lat="46.41491768325222" lon="12.798038631437931"><ele>555.0</ele><time>2026-04-12T12:49:50Z</time></trkpt><trkpt lat="46.41485032217975" lon="12.79819607609097"><ele>555.0</ele><time>2026-04-12T12:49:51Z</time></trkpt><trkpt lat="46.41478486944957" lon="12.798349060381629"><ele>555.0</ele><time>2026-04-12T12:49:52Z</time></trkpt><trkpt lat="46.414719952510424" lon="12.798500792306164"><ele>555.0</ele><time>2026-04-12T12:49:53Z</time></trkpt><trkpt lat="46.41465573011136" lon="12.79865090243388"><ele>555.25</ele><time>2026-04-12T12:49:54Z</time></trkpt><trkpt lat="46.41466023198915" lon="12.798863043173757"><ele>555.5</ele><time>2026-04-12T12:49:55Z</time></trkpt><trkpt lat="46.41459707293311" lon="12.79901444831124"><ele>555.75</ele><time>2026-04-12T12:49:56Z</time></trkpt><trkpt lat="46.414531459859134" lon="12.799162737408608"><ele>556.0</ele><time>2026-04-12T12:49:57Z</time></trkpt><trkpt lat="46.41446514600636" lon="12.799309580123179"><ele>555.25</ele><time>2026-04-12T12:49:58Z</time></trkpt><trkpt lat="46.414331287263906" lon="12.799391891981962"><ele>554.5</ele><time>2026-04-12T12:49:59Z</time></trkpt><trkpt lat="46.41426375206048" lon="12.799513391449365"><ele>553.75</ele><time>2026-04-12T12:50:00Z</time></trkpt><trkpt lat="46.41417896365595" lon="12.799615365217969"><ele>553.0</ele><time>2026-04-12T12:50:01Z</time></trkpt><trkpt lat="46.41408404434546" lon="12.799699227483352"><ele>553.0</ele><time>2026-04-12T12:50:02Z</time></trkpt><trkpt lat="46.41397421554938" lon="12.799763278396775"><ele>553.0</ele><time>2026-04-12T12:50:03Z</time></trkpt><trkpt lat="46.41385839145437" lon="12.799803318235918"><ele>553.0</ele><time>2026-04-12T12:50:03.999Z</time></trkpt><trkpt lat="46.413744448796386" lon="12.79984466437632"><ele>553.0</ele><time>2026-04-12T12:50:04.999Z</time></trkpt><trkpt lat="46.41362838020756" lon="12.799905954666691"><ele>550.25</ele><time>2026-04-12T12:50:05.999Z</time></trkpt><trkpt lat="46.41351768561596" lon="12.80002023203804"><ele>547.5</ele><time>2026-04-12T12:50:06.999Z</time></trkpt><trkpt lat="46.41342568328431" lon="12.800155759173242"><ele>544.75</ele><time>2026-04-12T12:50:07.999Z</time></trkpt><trkpt lat="46.41335580728843" lon="12.800336106066903"><ele>542.0</ele><time>2026-04-12T12:50:08.999Z</time></trkpt><trkpt lat="46.41330898311452" lon="12.800537711861347"><ele>542.0</ele><time>2026-04-12T12:50:09.999Z</time></trkpt><trkpt lat="46.413272299851435" lon="12.800746294620417"><ele>542.0</ele><time>2026-04-12T12:50:10.999Z</time></trkpt><trkpt lat="46.413232956795426" lon="12.800967246160567"><ele>542.0</ele><time>2026-04-12T12:50:11.999Z</time></trkpt><trkpt lat="46.41319732577758" lon="12.80121131642613"><ele>542.0</ele><time>2026-04-12T12:50:12.999Z</time></trkpt><trkpt lat="46.413184095625034" lon="12.801457717041911"><ele>542.0</ele><time>2026-04-12T12:50:13.999Z</time></trkpt><trkpt lat="46.4131932568394" lon="12.80170347142516"><ele>542.0</ele><time>2026-04-12T12:50:14.999Z</time></trkpt><trkpt lat="46.413231412672815" lon="12.801951861400571"><ele>542.0</ele><time>2026-04-12T12:50:15.999Z</time></trkpt><trkpt lat="46.41328639124712" lon="12.80218162883592"><ele>542.0</ele><time>2026-04-12T12:50:16.999Z</time></trkpt><trkpt lat="46.41334892041053" lon="12.802398146423418"><ele>542.0</ele><time>2026-04-12T12:50:17.999Z</time></trkpt><trkpt lat="46.41341242633251" lon="12.802612029636897"><ele>540.75</ele><time>2026-04-12T12:50:18.999Z</time></trkpt><trkpt lat="46.4134739224856" lon="12.802822256781996"><ele>539.5</ele><time>2026-04-12T12:50:19.999Z</time></trkpt><trkpt lat="46.41353067559133" lon="12.803021644884222"><ele>538.25</ele><time>2026-04-12T12:50:20.999Z</time></trkpt><trkpt lat="46.41358415748489" lon="12.803202261897393"><ele>537.0</ele><time>2026-04-12T12:50:21.999Z</time></trkpt><trkpt lat="46.41363174414916" lon="12.803370224132044"><ele>536.5</ele><time>2026-04-12T12:50:22.999Z</time></trkpt><trkpt lat="46.4136701062893" lon="12.803545609726099"><ele>536.0</ele><time>2026-04-12T12:50:23.999Z</time></trkpt><trkpt lat="46.41369176770399" lon="12.8037272767985"><ele>535.5</ele><time>2026-04-12T12:50:24.999Z</time></trkpt><trkpt lat="46.413694289737734" lon="12.803920123416825"><ele>535.0</ele><time>2026-04-12T12:50:25.999Z</time></trkpt><trkpt lat="46.41367017071331" lon="12.80412325362543"><ele>537.0</ele><time>2026-04-12T12:50:26.999Z</time></trkpt><trkpt lat="46.41362515266935" lon="12.804336778782384"><ele>539.0</ele><time>2026-04-12T12:50:27.999Z</time></trkpt><trkpt lat="46.4135553962549" lon="12.804543826773035"><ele>541.0</ele><time>2026-04-12T12:50:28.999Z</time></trkpt><trkpt lat="46.413461832605414" lon="12.804728663135087"><ele>541.0</ele><time>2026-04-12T12:50:29.999Z</time></trkpt><trkpt lat="46.413339561559816" lon="12.804870971531793"><ele>541.0</ele><time>2026-04-12T12:50:30.999Z</time></trkpt><trkpt lat="46.41320297422971" lon="12.804986644975488"><ele>541.0</ele><time>2026-04-12T12:50:31.999Z</time></trkpt><trkpt lat="46.4130515949185" lon="12.805069708956903"><ele>540.0</ele><time>2026-04-12T12:50:32.999Z</time></trkpt><trkpt lat="46.41287182894062" lon="12.805156576562425"><ele>539.0</ele><time>2026-04-12T12:50:33.999Z</time></trkpt><trkpt lat="46.41267683823222" lon="12.805247478603176"><ele>538.0</ele><time>2026-04-12T12:50:34.999Z</time></trkpt><trkpt lat="46.41249123720884" lon="12.805332889455988"><ele>538.0</ele><time>2026-04-12T12:50:35.999Z</time></trkpt><trkpt lat="46.412321728631404" lon="12.805411310013707"><ele>538.0</ele><time>2026-04-12T12:50:36.999Z</time></trkpt><trkpt lat="46.41215591304948" lon="12.805470818201645"><ele>538.0</ele><time>2026-04-12T12:50:37.999Z</time></trkpt><trkpt lat="46.41198552923741" lon="12.805517524688565"><ele>535.3333333333334</ele><time>2026-04-12T12:50:38.999Z</time></trkpt><trkpt lat="46.411813986488305" lon="12.80551463123691"><ele>532.6666666666666</ele><time>2026-04-12T12:50:39.999Z</time></trkpt><trkpt lat="46.41164800502139" lon="12.805496862276778"><ele>530.0</ele><time>2026-04-12T12:50:40.999Z</time></trkpt><trkpt lat="46.41149585808792" lon="12.805486279237028"><ele>530.0</ele><time>2026-04-12T12:50:41.999Z</time></trkpt><trkpt lat="46.41135788550842" lon="12.805493726137573"><ele>530.0</ele><time>2026-04-12T12:50:42.999Z</time></trkpt><trkpt lat="46.411211928604985" lon="12.805504347017319"><ele>530.0</ele><time>2026-04-12T12:50:43.999Z</time></trkpt><trkpt lat="46.411065240224325" lon="12.805549643413299"><ele>530.0</ele><time>2026-04-12T12:50:44.999Z</time></trkpt><trkpt lat="46.41092412638413" lon="12.805613401970277"><ele>529.75</ele><time>2026-04-12T12:50:45.999Z</time></trkpt><trkpt lat="46.41079116977961" lon="12.805690687241185"><ele>529.5</ele><time>2026-04-12T12:50:46.999Z</time></trkpt><trkpt lat="46.41066254100681" lon="12.80576958903836"><ele>529.25</ele><time>2026-04-12T12:50:47.999Z</time></trkpt><trkpt lat="46.41054064924555" lon="12.805832926873125"><ele>529.0</ele><time>2026-04-12T12:50:48.999Z</time></trkpt><trkpt lat="46.41042031711605" lon="12.805869613727781"><ele>528.5</ele><time>2026-04-12T12:50:49.999Z</time></trkpt><trkpt lat="46.41029872637" lon="12.805897506658903"><ele>528.0</ele><time>2026-04-12T12:50:50.999Z</time></trkpt><trkpt lat="46.410173974309195" lon="12.805890897151263"><ele>527.5</ele><time>2026-04-12T12:50:51.999Z</time></trkpt><trkpt lat="46.41005002348029" lon="12.805854648774039"><ele>527.0</ele><time>2026-04-12T12:50:52.999Z</time></trkpt><trkpt lat="46.40991964071926" lon="12.8058145219524"><ele>527.0</ele><time>2026-04-12T12:50:53.999Z</time></trkpt><trkpt lat="46.40977954645845" lon="12.805757536845014"><ele>527.0</ele><time>2026-04-12T12:50:54.999Z</time></trkpt><trkpt lat="46.40962697999212" lon="12.805693967885519"><ele>527.0</ele><time>2026-04-12T12:50:55.999Z</time></trkpt><trkpt lat="46.409465186616686" lon="12.80561904279251"><ele>526.6666666666666</ele><time>2026-04-12T12:50:56.999Z</time></trkpt><trkpt lat="46.40929670136346" lon="12.805544784173284"><ele>526.3333333333334</ele><time>2026-04-12T12:50:57.999Z</time></trkpt><trkpt lat="46.409122624616934" lon="12.805470211161612"><ele>526.0</ele><time>2026-04-12T12:50:58.999Z</time></trkpt><trkpt lat="46.40894553231106" lon="12.805395842576445"><ele>521.0</ele><time>2026-04-12T12:50:59.999Z</time></trkpt><trkpt lat="46.408769373263596" lon="12.80532378052517"><ele>516.0</ele><time>2026-04-12T12:51:00.999Z</time></trkpt><trkpt lat="46.408605283194994" lon="12.805227894894916"><ele>511.0</ele><time>2026-04-12T12:51:01.999Z</time></trkpt><trkpt lat="46.40844857994651" lon="12.805158757144653"><ele>511.0</ele><time>2026-04-12T12:51:02.999Z</time></trkpt><trkpt lat="46.40829686895858" lon="12.805091673534543"><ele>511.0</ele><time>2026-04-12T12:51:03.999Z</time></trkpt><trkpt lat="46.408146664199236" lon="12.805027064051812"><ele>511.0</ele><time>2026-04-12T12:51:04.999Z</time></trkpt><trkpt lat="46.407995766632425" lon="12.80496102541373"><ele>514.3333333333334</ele><time>2026-04-12T12:51:05.999Z</time></trkpt><trkpt lat="46.407838326521556" lon="12.804890172047443"><ele>517.6666666666666</ele><time>2026-04-12T12:51:06.999Z</time></trkpt><trkpt lat="46.40767656544809" lon="12.804824003514431"><ele>521.0</ele><time>2026-04-12T12:51:07.999Z</time></trkpt><trkpt lat="46.40751838155311" lon="12.804693523361676"><ele>521.0</ele><time>2026-04-12T12:51:08.999Z</time></trkpt><trkpt lat="46.40736469590623" lon="12.804517346016656"><ele>521.0</ele><time>2026-04-12T12:51:09.999Z</time></trkpt><trkpt lat="46.407207949425135" lon="12.804318194686578"><ele>521.0</ele><time>2026-04-12T12:51:10.999Z</time></trkpt><trkpt lat="46.40705647645253" lon="12.804136367401497"><ele>523.3333333333333</ele><time>2026-04-12T12:51:11.999Z</time></trkpt><trkpt lat="46.40691646950502" lon="12.803965681679975"><ele>525.6666666666666</ele><time>2026-04-12T12:51:12.999Z</time></trkpt><trkpt lat="46.4067844341418" lon="12.803803511246594"><ele>528.0</ele><time>2026-04-12T12:51:13.999Z</time></trkpt><trkpt lat="46.40666248725849" lon="12.803654589553565"><ele>528.0</ele><time>2026-04-12T12:51:14.999Z</time></trkpt><trkpt lat="46.406555767692694" lon="12.803523041002766"><ele>528.0</ele><time>2026-04-12T12:51:15.999Z</time></trkpt><trkpt lat="46.40647000108621" lon="12.80341595637989"><ele>528.0</ele><time>2026-04-12T12:51:16.999Z</time></trkpt><trkpt lat="46.406384190889156" lon="12.803320407837825"><ele>528.0</ele><time>2026-04-12T12:51:17.999Z</time></trkpt><trkpt lat="46.40629354902785" lon="12.803244563034964"><ele>529.5</ele><time>2026-04-12T12:51:18.999Z</time></trkpt><trkpt lat="46.40620565280979" lon="12.803166495449869"><ele>531.0</ele><time>2026-04-12T12:51:19.999Z</time></trkpt><trkpt lat="46.4060888649489" lon="12.803178654228686"><ele>532.5</ele><time>2026-04-12T12:51:20.999Z</time></trkpt><trkpt lat="46.405974988166356" lon="12.803267268152641"><ele>534.0</ele><time>2026-04-12T12:51:21.999Z</time></trkpt><trkpt lat="46.40586985187014" lon="12.80340656084152"><ele>533.5</ele><time>2026-04-12T12:51:22.999Z</time></trkpt><trkpt lat="46.405758236436334" lon="12.803555151460914"><ele>533.0</ele><time>2026-04-12T12:51:23.999Z</time></trkpt><trkpt lat="46.40566992359387" lon="12.803666681940623"><ele>532.5</ele><time>2026-04-12T12:51:24.999Z</time></trkpt><trkpt lat="46.40558524623316" lon="12.803738393383629"><ele>532.0</ele><time>2026-04-12T12:51:25.999Z</time></trkpt><trkpt lat="46.4054983784174" lon="12.80375791264785"><ele>529.0</ele><time>2026-04-12T12:51:26.999Z</time></trkpt><trkpt lat="46.40539793031319" lon="12.803738224274607"><ele>526.0</ele><time>2026-04-12T12:51:27.999Z</time></trkpt><trkpt lat="46.40532070420661" lon="12.803623761106662"><ele>523.0</ele><time>2026-04-12T12:51:28.999Z</time></trkpt><trkpt lat="46.4052750635294" lon="12.803474381779791"><ele>520.0</ele><time>2026-04-12T12:51:29.999Z</time></trkpt><trkpt lat="46.4052451910555" lon="12.803298230368393"><ele>520.0</ele><time>2026-04-12T12:51:30.999Z</time></trkpt><trkpt lat="46.40520711142799" lon="12.803131160200742"><ele>520.0</ele><time>2026-04-12T12:51:31.999Z</time></trkpt><trkpt lat="46.40517132762318" lon="12.802965722849118"><ele>520.0</ele><time>2026-04-12T12:51:32.999Z</time></trkpt><trkpt lat="46.405154709442336" lon="12.80280006945743"><ele>520.0</ele><time>2026-04-12T12:51:33.999Z</time></trkpt><trkpt lat="46.40516820400681" lon="12.802647410486378"><ele>521.3333333333334</ele><time>2026-04-12T12:51:35Z</time></trkpt><trkpt lat="46.40520712077752" lon="12.802505626378341"><ele>522.6666666666667</ele><time>2026-04-12T12:51:36Z</time></trkpt><trkpt lat="46.4052543696147" lon="12.802385734850073"><ele>524.0</ele><time>2026-04-12T12:51:37Z</time></trkpt><trkpt lat="46.40528009423151" lon="12.802268930111698"><ele>525.3333333333334</ele><time>2026-04-12T12:51:38Z</time></trkpt><trkpt lat="46.405274431248024" lon="12.802155333135516"><ele>526.6666666666666</ele><time>2026-04-12T12:51:39Z</time></trkpt><trkpt lat="46.40524154664705" lon="12.8020424580069"><ele>528.0</ele><time>2026-04-12T12:51:40Z</time></trkpt><trkpt lat="46.40516544256161" lon="12.801967858637001"><ele>528.0</ele><time>2026-04-12T12:51:41Z</time></trkpt><trkpt lat="46.40506962741719" lon="12.801917311087939"><ele>528.0</ele><time>2026-04-12T12:51:42Z</time></trkpt><trkpt lat="46.40496177865807" lon="12.80196570108181"><ele>528.0</ele><time>2026-04-12T12:51:43Z</time></trkpt><trkpt lat="46.40491006302888" lon="12.802135390338945"><ele>528.0</ele><time>2026-04-12T12:51:44Z</time></trkpt><trkpt lat="46.40490188392493" lon="12.802332961086222"><ele>528.0</ele><time>2026-04-12T12:51:45Z</time></trkpt><trkpt lat="46.40492757257685" lon="12.802515916429508"><ele>528.0</ele><time>2026-04-12T12:51:46Z</time></trkpt><trkpt lat="46.404957129386005" lon="12.80271431933107"><ele>528.0</ele><time>2026-04-12T12:51:47Z</time></trkpt><trkpt lat="46.40499176478078" lon="12.80295095784858"><ele>528.0</ele><time>2026-04-12T12:51:48Z</time></trkpt><trkpt lat="46.40503567755887" lon="12.803208816354928"><ele>525.3333333333334</ele><time>2026-04-12T12:51:49Z</time></trkpt><trkpt lat="46.40505194486168" lon="12.803466577558709"><ele>522.6666666666667</ele><time>2026-04-12T12:51:50Z</time></trkpt><trkpt lat="46.40507943614411" lon="12.803705472672544"><ele>520.0</ele><time>2026-04-12T12:51:51Z</time></trkpt><trkpt lat="46.40510921218986" lon="12.803933963891891"><ele>518.0</ele><time>2026-04-12T12:51:52Z</time></trkpt><trkpt lat="46.405143349304616" lon="12.804150655732375"><ele>516.0</ele><time>2026-04-12T12:51:53Z</time></trkpt><trkpt lat="46.405177105036515" lon="12.804357791818477"><ele>514.0</ele><time>2026-04-12T12:51:54Z</time></trkpt><trkpt lat="46.405144304801404" lon="12.804572102863808"><ele>513.0</ele><time>2026-04-12T12:51:55Z</time></trkpt><trkpt lat="46.40512449582506" lon="12.80478205337978"><ele>512.0</ele><time>2026-04-12T12:51:56Z</time></trkpt><trkpt lat="46.40510751748975" lon="12.80497416610601"><ele>511.0</ele><time>2026-04-12T12:51:57Z</time></trkpt><trkpt lat="46.405095844719064" lon="12.805154969940014"><ele>510.0</ele><time>2026-04-12T12:51:58Z</time></trkpt><trkpt lat="46.405097658312464" lon="12.805323728617143"><ele>509.6</ele><time>2026-04-12T12:51:59Z</time></trkpt><trkpt lat="46.4051360778654" lon="12.80547468351459"><ele>509.2</ele><time>2026-04-12T12:52:00Z</time></trkpt><trkpt lat="46.405175185904994" lon="12.80561315909577"><ele>508.79999999999995</ele><time>2026-04-12T12:52:01Z</time></trkpt><trkpt lat="46.40523403984765" lon="12.805732982313272"><ele>508.4</ele><time>2026-04-12T12:52:02Z</time></trkpt><trkpt lat="46.40530286466571" lon="12.805840968620466"><ele>508.0</ele><time>2026-04-12T12:52:02.999Z</time></trkpt><trkpt lat="46.40537798386137" lon="12.805952196129734"><ele>506.59999999999997</ele><time>2026-04-12T12:52:03.999Z</time></trkpt><trkpt lat="46.40543834141209" lon="12.80606845685216"><ele>505.19999999999993</ele><time>2026-04-12T12:52:04.999Z</time></trkpt><trkpt lat="46.40547667586472" lon="12.806209553183077"><ele>503.8</ele><time>2026-04-12T12:52:05.999Z</time></trkpt><trkpt lat="46.405460689083085" lon="12.806372556886968"><ele>502.4</ele><time>2026-04-12T12:52:06.999Z</time></trkpt><trkpt lat="46.40548067795101" lon="12.806542895890885"><ele>501.0</ele><time>2026-04-12T12:52:07.999Z</time></trkpt><trkpt lat="46.40546880177679" lon="12.806713977941762"><ele>500.0</ele><time>2026-04-12T12:52:08.999Z</time></trkpt><trkpt lat="46.40547205165596" lon="12.806870364939568"><ele>499.0</ele><time>2026-04-12T12:52:09.999Z</time></trkpt><trkpt lat="46.405474348901905" lon="12.807018630466814"><ele>498.0</ele><time>2026-04-12T12:52:10.999Z</time></trkpt><trkpt lat="46.405473573310566" lon="12.80716220082794"><ele>497.0</ele><time>2026-04-12T12:52:11.999Z</time></trkpt><trkpt lat="46.40545470198948" lon="12.807292143680682"><ele>496.0</ele><time>2026-04-12T12:52:12.999Z</time></trkpt><trkpt lat="46.405420757027734" lon="12.807423273046783"><ele>496.0</ele><time>2026-04-12T12:52:13.999Z</time></trkpt><trkpt lat="46.4053821645697" lon="12.807568947158288"><ele>496.0</ele><time>2026-04-12T12:52:14.999Z</time></trkpt><trkpt lat="46.405341587628826" lon="12.807721260324156"><ele>496.0</ele><time>2026-04-12T12:52:15.999Z</time></trkpt><trkpt lat="46.405299556145735" lon="12.807874383051823"><ele>496.0</ele><time>2026-04-12T12:52:16.999Z</time></trkpt><trkpt lat="46.40523931045868" lon="12.808012784031511"><ele>496.0</ele><time>2026-04-12T12:52:17.999Z</time></trkpt><trkpt lat="46.405156894001934" lon="12.808135510403417"><ele>497.75</ele><time>2026-04-12T12:52:18.999Z</time></trkpt><trkpt lat="46.40507391601162" lon="12.80828441395968"><ele>499.5</ele><time>2026-04-12T12:52:19.999Z</time></trkpt><trkpt lat="46.405016241363754" lon="12.808460888634517"><ele>501.25</ele><time>2026-04-12T12:52:20.999Z</time></trkpt><trkpt lat="46.404967067084726" lon="12.80863586841828"><ele>503.0</ele><time>2026-04-12T12:52:21.999Z</time></trkpt><trkpt lat="46.40491728114696" lon="12.808816332550194"><ele>504.25</ele><time>2026-04-12T12:52:22.999Z</time></trkpt><trkpt lat="46.4048666670244" lon="12.80899981275335"><ele>505.5</ele><time>2026-04-12T12:52:23.999Z</time></trkpt><trkpt lat="46.40481655966838" lon="12.809181888818895"><ele>506.75</ele><time>2026-04-12T12:52:24.999Z</time></trkpt><trkpt lat="46.40477013438484" lon="12.809352033825142"><ele>508.0</ele><time>2026-04-12T12:52:25.999Z</time></trkpt><trkpt lat="46.40473062689467" lon="12.809518814323251"><ele>505.25</ele><time>2026-04-12T12:52:26.999Z</time></trkpt><trkpt lat="46.404704647776555" lon="12.809682202734567"><ele>502.5</ele><time>2026-04-12T12:52:27.999Z</time></trkpt><trkpt lat="46.40470285496021" lon="12.809846917387551"><ele>499.75</ele><time>2026-04-12T12:52:28.999Z</time></trkpt><trkpt lat="46.40471659637494" lon="12.81001822164987"><ele>497.0</ele><time>2026-04-12T12:52:29.999Z</time></trkpt><trkpt lat="46.40474267083014" lon="12.810197343279043"><ele>497.0</ele><time>2026-04-12T12:52:30.999Z</time></trkpt><trkpt lat="46.40476916949011" lon="12.810375622688161"><ele>497.0</ele><time>2026-04-12T12:52:31.999Z</time></trkpt><trkpt lat="46.40478683388587" lon="12.810543792064005"><ele>497.0</ele><time>2026-04-12T12:52:32.999Z</time></trkpt><trkpt lat="46.40480004905342" lon="12.810704559977724"><ele>497.0</ele><time>2026-04-12T12:52:33.999Z</time></trkpt><trkpt lat="46.40480695850788" lon="12.810859638686708"><ele>497.0</ele><time>2026-04-12T12:52:34.999Z</time></trkpt><trkpt lat="46.404797347171055" lon="12.811018280116778"><ele>497.0</ele><time>2026-04-12T12:52:35.999Z</time></trkpt><trkpt lat="46.404752318130704" lon="12.811157907357227"><ele>497.0</ele><time>2026-04-12T12:52:36.999Z</time></trkpt><trkpt lat="46.40470041707607" lon="12.81131160573932"><ele>497.0</ele><time>2026-04-12T12:52:37.999Z</time></trkpt><trkpt lat="46.40465669921283" lon="12.811475827642994"><ele>490.0</ele><time>2026-04-12T12:52:38.999Z</time></trkpt><trkpt lat="46.404623894724736" lon="12.811644650122997"><ele>483.0</ele><time>2026-04-12T12:52:39.999Z</time></trkpt><trkpt lat="46.40460536734511" lon="12.811804832364484"><ele>476.0</ele><time>2026-04-12T12:52:40.999Z</time></trkpt><trkpt lat="46.40459543229391" lon="12.81196954943519"><ele>469.0</ele><time>2026-04-12T12:52:41.999Z</time></trkpt><trkpt lat="46.404585070059525" lon="12.81215104999539"><ele>468.5</ele><time>2026-04-12T12:52:42.999Z</time></trkpt><trkpt lat="46.404569789456815" lon="12.812327522644152"><ele>468.0</ele><time>2026-04-12T12:52:43.999Z</time></trkpt><trkpt lat="46.40454742498398" lon="12.81250588573536"><ele>467.5</ele><time>2026-04-12T12:52:44.999Z</time></trkpt><trkpt lat="46.4045252065446" lon="12.812668007829863"><ele>467.0</ele><time>2026-04-12T12:52:45.999Z</time></trkpt><trkpt lat="46.4045054009019" lon="12.812810633995582"><ele>466.8</ele><time>2026-04-12T12:52:46.999Z</time></trkpt><trkpt lat="46.4044844144531" lon="12.812957267247123"><ele>466.6</ele><time>2026-04-12T12:52:47.999Z</time></trkpt><trkpt lat="46.404464064710744" lon="12.813097268569587"><ele>466.40000000000003</ele><time>2026-04-12T12:52:48.999Z</time></trkpt><trkpt lat="46.40444536701271" lon="12.81323260610185"><ele>466.20000000000005</ele><time>2026-04-12T12:52:49.999Z</time></trkpt><trkpt lat="46.40443120616674" lon="12.81336101129686"><ele>466.0</ele><time>2026-04-12T12:52:50.999Z</time></trkpt><trkpt lat="46.40443561501695" lon="12.813497095725799"><ele>464.6666666666667</ele><time>2026-04-12T12:52:51.999Z</time></trkpt><trkpt lat="46.404483010998426" lon="12.813614402044852"><ele>463.33333333333337</ele><time>2026-04-12T12:52:52.999Z</time></trkpt><trkpt lat="46.4045558182065" lon="12.813683606796364"><ele>462.0</ele><time>2026-04-12T12:52:53.999Z</time></trkpt><trkpt lat="46.404634709741636" lon="12.81373277213829"><ele>460.66666666666663</ele><time>2026-04-12T12:52:54.999Z</time></trkpt><trkpt lat="46.40471073677103" lon="12.813765081928837"><ele>459.3333333333333</ele><time>2026-04-12T12:52:55.999Z</time></trkpt><trkpt lat="46.40478120287986" lon="12.813787989592491"><ele>458.0</ele><time>2026-04-12T12:52:56.999Z</time></trkpt><trkpt lat="46.404848882452455" lon="12.81379990871968"><ele>460.99999999999994</ele><time>2026-04-12T12:52:57.999Z</time></trkpt><trkpt lat="46.404912909569596" lon="12.813821121014705"><ele>464.0</ele><time>2026-04-12T12:52:58.999Z</time></trkpt><trkpt lat="46.404967665625264" lon="12.813873100028124"><ele>467.0</ele><time>2026-04-12T12:52:59.999Z</time></trkpt><trkpt lat="46.4050084568101" lon="12.813959596750419"><ele>470.0</ele><time>2026-04-12T12:53:00.999Z</time></trkpt><trkpt lat="46.40502851951342" lon="12.814077392649088"><ele>472.99999999999994</ele><time>2026-04-12T12:53:01.999Z</time></trkpt><trkpt lat="46.4049877460302" lon="12.814199242800406"><ele>476.0</ele><time>2026-04-12T12:53:02.999Z</time></trkpt><trkpt lat="46.40494414316468" lon="12.814306124130347"><ele>475.6</ele><time>2026-04-12T12:53:03.999Z</time></trkpt><trkpt lat="46.40489990235625" lon="12.814443289019659"><ele>475.20000000000005</ele><time>2026-04-12T12:53:04.999Z</time></trkpt><trkpt lat="46.40485563333049" lon="12.81458272004937"><ele>474.79999999999995</ele><time>2026-04-12T12:53:05.999Z</time></trkpt><trkpt lat="46.40480750399014" lon="12.81473430966237"><ele>474.4</ele><time>2026-04-12T12:53:06.999Z</time></trkpt><trkpt lat="46.404778904223505" lon="12.814836849647177"><ele>474.0</ele><time>2026-04-12T12:53:07.999Z</time></trkpt><trkpt lat="46.40475173095721" lon="12.815030939678447"><ele>472.75</ele><time>2026-04-12T12:53:08.999Z</time></trkpt><trkpt lat="46.40475389458354" lon="12.815188893531378"><ele>471.5</ele><time>2026-04-12T12:53:09.999Z</time></trkpt><trkpt lat="46.40476855277997" lon="12.81535891660183"><ele>470.25</ele><time>2026-04-12T12:53:10.999Z</time></trkpt><trkpt lat="46.40478207869428" lon="12.81552404729958"><ele>469.0</ele><time>2026-04-12T12:53:11.999Z</time></trkpt><trkpt lat="46.404794793112394" lon="12.81568864744196"><ele>469.0</ele><time>2026-04-12T12:53:12.999Z</time></trkpt><trkpt lat="46.404806169611085" lon="12.815835926964866"><ele>469.0</ele><time>2026-04-12T12:53:13.999Z</time></trkpt><trkpt lat="46.40482855229606" lon="12.815986975731965"><ele>469.0</ele><time>2026-04-12T12:53:14.999Z</time></trkpt><trkpt lat="46.404821267414995" lon="12.816124077032695"><ele>469.0</ele><time>2026-04-12T12:53:15.999Z</time></trkpt><trkpt lat="46.4048107733631" lon="12.816251946765046"><ele>469.0</ele><time>2026-04-12T12:53:16.999Z</time></trkpt><trkpt lat="46.40477617387684" lon="12.816359592476305"><ele>468.0</ele><time>2026-04-12T12:53:17.999Z</time></trkpt><trkpt lat="46.404696358860036" lon="12.816418981368653"><ele>467.0</ele><time>2026-04-12T12:53:18.999Z</time></trkpt><trkpt lat="46.4046299659023" lon="12.816540470408638"><ele>466.0</ele><time>2026-04-12T12:53:19.999Z</time></trkpt><trkpt lat="46.404591444632096" lon="12.816660063498906"><ele>465.0</ele><time>2026-04-12T12:53:20.999Z</time></trkpt><trkpt lat="46.40457084180575" lon="12.816780755802736"><ele>464.0</ele><time>2026-04-12T12:53:21.999Z</time></trkpt><trkpt lat="46.40456092162161" lon="12.816906042396159"><ele>459.25</ele><time>2026-04-12T12:53:22.999Z</time></trkpt><trkpt lat="46.40455884639085" lon="12.817055974158302"><ele>454.5</ele><time>2026-04-12T12:53:23.999Z</time></trkpt><trkpt lat="46.40455574220441" lon="12.81722080880098"><ele>449.75</ele><time>2026-04-12T12:53:24.999Z</time></trkpt><trkpt lat="46.4045539948309" lon="12.817405804143505"><ele>445.0</ele><time>2026-04-12T12:53:25.999Z</time></trkpt><trkpt lat="46.40455262492032" lon="12.81760174319977"><ele>444.75</ele><time>2026-04-12T12:53:26.999Z</time></trkpt><trkpt lat="46.40455064531574" lon="12.817800905987943"><ele>444.5</ele><time>2026-04-12T12:53:27.999Z</time></trkpt><trkpt lat="46.404549626804126" lon="12.818000062751235"><ele>444.25</ele><time>2026-04-12T12:53:28.999Z</time></trkpt><trkpt lat="46.40454855795074" lon="12.818203832340014"><ele>444.0</ele><time>2026-04-12T12:53:29.999Z</time></trkpt><trkpt lat="46.40454751964551" lon="12.818401777805635"><ele>444.0</ele><time>2026-04-12T12:53:30.999Z</time></trkpt><trkpt lat="46.4045463604965" lon="12.818601008308706"><ele>444.0</ele><time>2026-04-12T12:53:31.999Z</time></trkpt><trkpt lat="46.404545136318774" lon="12.818796264718078"><ele>444.0</ele><time>2026-04-12T12:53:32.999Z</time></trkpt><trkpt lat="46.40454401546085" lon="12.818975041439527"><ele>444.0</ele><time>2026-04-12T12:53:33.999Z</time></trkpt><trkpt lat="46.40454306434999" lon="12.819126743873417"><ele>444.0</ele><time>2026-04-12T12:53:34.999Z</time></trkpt><trkpt lat="46.40454174905686" lon="12.8192531439221"><ele>444.0</ele><time>2026-04-12T12:53:35.999Z</time></trkpt><trkpt lat="46.404535459294" lon="12.819367267906333"><ele>444.0</ele><time>2026-04-12T12:53:36.999Z</time></trkpt><trkpt lat="46.404553157361214" lon="12.819483422432747"><ele>444.0</ele><time>2026-04-12T12:53:37.999Z</time></trkpt><trkpt lat="46.4045215927956" lon="12.819589950930453"><ele>444.0</ele><time>2026-04-12T12:53:38.999Z</time></trkpt><trkpt lat="46.404442384619855" lon="12.819658697226377"><ele>444.0</ele><time>2026-04-12T12:53:39.999Z</time></trkpt><trkpt lat="46.40433946177365" lon="12.819678416323264"><ele>447.6</ele><time>2026-04-12T12:53:41Z</time></trkpt><trkpt lat="46.40421456371072" lon="12.819688821760762"><ele>451.2</ele><time>2026-04-12T12:53:42Z</time></trkpt><trkpt lat="46.404129605786736" lon="12.819737354129531"><ele>454.80000000000007</ele><time>2026-04-12T12:53:43Z</time></trkpt><trkpt lat="46.40404786619743" lon="12.819788088647792"><ele>458.40000000000003</ele><time>2026-04-12T12:53:44Z</time></trkpt><trkpt lat="46.403970654321384" lon="12.819836554925162"><ele>462.0</ele><time>2026-04-12T12:53:45Z</time></trkpt><trkpt lat="46.40389657237491" lon="12.819885928724927"><ele>461.3333333333333</ele><time>2026-04-12T12:53:46Z</time></trkpt><trkpt lat="46.403825721019274" lon="12.819938613587317"><ele>460.66666666666663</ele><time>2026-04-12T12:53:47Z</time></trkpt><trkpt lat="46.403756848325216" lon="12.819999186637714"><ele>460.0</ele><time>2026-04-12T12:53:48Z</time></trkpt><trkpt lat="46.403688314933234" lon="12.820066292632143"><ele>459.3333333333333</ele><time>2026-04-12T12:53:49Z</time></trkpt><trkpt lat="46.40362023828656" lon="12.82014773921247"><ele>458.66666666666663</ele><time>2026-04-12T12:53:50Z</time></trkpt><trkpt lat="46.40354893244233" lon="12.820249333952741"><ele>458.0</ele><time>2026-04-12T12:53:51Z</time></trkpt><trkpt lat="46.40347964464299" lon="12.820365971535304"><ele>458.0</ele><time>2026-04-12T12:53:52Z</time></trkpt><trkpt lat="46.403419898157836" lon="12.820495661165348"><ele>458.0</ele><time>2026-04-12T12:53:53Z</time></trkpt><trkpt lat="46.40331525328211" lon="12.820605218682491"><ele>458.0</ele><time>2026-04-12T12:53:54Z</time></trkpt><trkpt lat="46.40326332914496" lon="12.82078894200922"><ele>458.0</ele><time>2026-04-12T12:53:55Z</time></trkpt><trkpt lat="46.403222798943794" lon="12.820987789241071"><ele>460.75</ele><time>2026-04-12T12:53:56Z</time></trkpt><trkpt lat="46.4031804968414" lon="12.821194625109888"><ele>463.5</ele><time>2026-04-12T12:53:57Z</time></trkpt><trkpt lat="46.40313991493797" lon="12.821389339206707"><ele>466.25</ele><time>2026-04-12T12:53:58Z</time></trkpt><trkpt lat="46.40309112715208" lon="12.821580640805136"><ele>469.0</ele><time>2026-04-12T12:53:59Z</time></trkpt><trkpt lat="46.40303153076752" lon="12.821755073785104"><ele>467.25</ele><time>2026-04-12T12:54:00Z</time></trkpt><trkpt lat="46.4029642443807" lon="12.821914519369432"><ele>465.5</ele><time>2026-04-12T12:54:01Z</time></trkpt><trkpt lat="46.40288583781142" lon="12.822068991369758"><ele>463.75</ele><time>2026-04-12T12:54:02Z</time></trkpt><trkpt lat="46.4028017385775" lon="12.82221380632859"><ele>462.0</ele><time>2026-04-12T12:54:03Z</time></trkpt><trkpt lat="46.402713705284434" lon="12.822348207197066"><ele>462.0</ele><time>2026-04-12T12:54:03.999Z</time></trkpt><trkpt lat="46.402618438142625" lon="12.82249570440225"><ele>462.0</ele><time>2026-04-12T12:54:04.999Z</time></trkpt><trkpt lat="46.402540473964045" lon="12.822671405356285"><ele>462.0</ele><time>2026-04-12T12:54:05.999Z</time></trkpt><trkpt lat="46.40248403444215" lon="12.822862013757037"><ele>462.0</ele><time>2026-04-12T12:54:06.999Z</time></trkpt><trkpt lat="46.402453106353335" lon="12.823056148826305"><ele>463.5</ele><time>2026-04-12T12:54:07.999Z</time></trkpt><trkpt lat="46.402444752931174" lon="12.823250601495616"><ele>465.0</ele><time>2026-04-12T12:54:08.999Z</time></trkpt><trkpt lat="46.40246541765208" lon="12.823449041432855"><ele>466.5</ele><time>2026-04-12T12:54:09.999Z</time></trkpt><trkpt lat="46.4024971879086" lon="12.823641261127033"><ele>468.0</ele><time>2026-04-12T12:54:10.999Z</time></trkpt><trkpt lat="46.40253046846823" lon="12.823839998403194"><ele>469.0</ele><time>2026-04-12T12:54:11.999Z</time></trkpt><trkpt lat="46.40256263638725" lon="12.824041390629375"><ele>470.0</ele><time>2026-04-12T12:54:12.999Z</time></trkpt><trkpt lat="46.40259387488736" lon="12.824240117393066"><ele>471.0</ele><time>2026-04-12T12:54:13.999Z</time></trkpt><trkpt lat="46.40262215461351" lon="12.824435435811406"><ele>472.0</ele><time>2026-04-12T12:54:14.999Z</time></trkpt><trkpt lat="46.40263624010131" lon="12.82462059556908"><ele>473.0</ele><time>2026-04-12T12:54:15.999Z</time></trkpt><trkpt lat="46.402638958456606" lon="12.824804749903016"><ele>474.0</ele><time>2026-04-12T12:54:16.999Z</time></trkpt><trkpt lat="46.40262333113686" lon="12.824977556154618"><ele>475.0</ele><time>2026-04-12T12:54:17.999Z</time></trkpt><trkpt lat="46.40259551715089" lon="12.82515204740448"><ele>476.0</ele><time>2026-04-12T12:54:18.999Z</time></trkpt><trkpt lat="46.40256247170579" lon="12.8253303986669"><ele>476.75</ele><time>2026-04-12T12:54:19.999Z</time></trkpt><trkpt lat="46.402522005228825" lon="12.825512115135316"><ele>477.5</ele><time>2026-04-12T12:54:20.999Z</time></trkpt><trkpt lat="46.40247793887555" lon="12.825703359461723"><ele>478.25</ele><time>2026-04-12T12:54:21.999Z</time></trkpt><trkpt lat="46.40243399539639" lon="12.82589062914149"><ele>479.0</ele><time>2026-04-12T12:54:22.999Z</time></trkpt><trkpt lat="46.40238664064777" lon="12.826051760707015"><ele>479.4</ele><time>2026-04-12T12:54:23.999Z</time></trkpt><trkpt lat="46.402340766851054" lon="12.826199078084054"><ele>479.79999999999995</ele><time>2026-04-12T12:54:24.999Z</time></trkpt><trkpt lat="46.402294287862944" lon="12.8263344730059"><ele>480.20000000000005</ele><time>2026-04-12T12:54:25.999Z</time></trkpt><trkpt lat="46.402243580249085" lon="12.826469819876342"><ele>480.6</ele><time>2026-04-12T12:54:26.999Z</time></trkpt><trkpt lat="46.40219124640597" lon="12.82660587901129"><ele>481.0</ele><time>2026-04-12T12:54:27.999Z</time></trkpt><trkpt lat="46.40213986699569" lon="12.826742588757561"><ele>481.5</ele><time>2026-04-12T12:54:28.999Z</time></trkpt><trkpt lat="46.40209080826451" lon="12.826877742174089"><ele>482.0</ele><time>2026-04-12T12:54:29.999Z</time></trkpt><trkpt lat="46.40204415457466" lon="12.827030124448246"><ele>482.5</ele><time>2026-04-12T12:54:30.999Z</time></trkpt><trkpt lat="46.402003992536095" lon="12.827205416079266"><ele>483.0</ele><time>2026-04-12T12:54:31.999Z</time></trkpt><trkpt lat="46.401984447918885" lon="12.827401936875802"><ele>483.0</ele><time>2026-04-12T12:54:32.999Z</time></trkpt><trkpt lat="46.40197086914003" lon="12.827594844898403"><ele>483.0</ele><time>2026-04-12T12:54:33.999Z</time></trkpt><trkpt lat="46.40195808687376" lon="12.827792278794018"><ele>483.0</ele><time>2026-04-12T12:54:35Z</time></trkpt><trkpt lat="46.401945641119546" lon="12.827984516251187"><ele>483.0</ele><time>2026-04-12T12:54:36Z</time></trkpt><trkpt lat="46.40193309532873" lon="12.82818166961451"><ele>483.5</ele><time>2026-04-12T12:54:37Z</time></trkpt><trkpt lat="46.4019224650744" lon="12.828377753527406"><ele>484.0</ele><time>2026-04-12T12:54:38Z</time></trkpt><trkpt lat="46.40191175185742" lon="12.828575367697333"><ele>484.5</ele><time>2026-04-12T12:54:39Z</time></trkpt><trkpt lat="46.401899755455986" lon="12.82878177191731"><ele>485.0</ele><time>2026-04-12T12:54:40Z</time></trkpt><trkpt lat="46.401885677530224" lon="12.828996027487198"><ele>485.0</ele><time>2026-04-12T12:54:41Z</time></trkpt><trkpt lat="46.401863129705035" lon="12.829228213718395"><ele>485.0</ele><time>2026-04-12T12:54:42Z</time></trkpt><trkpt lat="46.40183597843604" lon="12.829482142016621"><ele>485.0</ele><time>2026-04-12T12:54:43Z</time></trkpt><trkpt lat="46.40180945924488" lon="12.82973734334443"><ele>485.0</ele><time>2026-04-12T12:54:44Z</time></trkpt><trkpt lat="46.401786827948605" lon="12.82998317078524"><ele>485.0</ele><time>2026-04-12T12:54:45Z</time></trkpt><trkpt lat="46.40176770005867" lon="12.83022605203783"><ele>485.0</ele><time>2026-04-12T12:54:46Z</time></trkpt><trkpt lat="46.40175579832423" lon="12.830474717590942"><ele>483.66666666666663</ele><time>2026-04-12T12:54:47Z</time></trkpt><trkpt lat="46.40175026123185" lon="12.830720221704006"><ele>482.33333333333337</ele><time>2026-04-12T12:54:48Z</time></trkpt><trkpt lat="46.40175704329397" lon="12.830978974771405"><ele>481.0</ele><time>2026-04-12T12:54:49Z</time></trkpt><trkpt lat="46.40177257009599" lon="12.831231527925636"><ele>480.33333333333337</ele><time>2026-04-12T12:54:50Z</time></trkpt><trkpt lat="46.401796035097036" lon="12.831487682987412"><ele>479.66666666666663</ele><time>2026-04-12T12:54:51Z</time></trkpt><trkpt lat="46.40182385202819" lon="12.83174809723926"><ele>479.0</ele><time>2026-04-12T12:54:52Z</time></trkpt><trkpt lat="46.401852106418715" lon="12.83200939308495"><ele>479.0</ele><time>2026-04-12T12:54:53Z</time></trkpt><trkpt lat="46.401882583462935" lon="12.832275453589835"><ele>479.0</ele><time>2026-04-12T12:54:54Z</time></trkpt><trkpt lat="46.40191287497535" lon="12.832538247444703"><ele>479.0</ele><time>2026-04-12T12:54:55Z</time></trkpt><trkpt lat="46.401943267148425" lon="12.832801914812057"><ele>478.66666666666663</ele><time>2026-04-12T12:54:56Z</time></trkpt><trkpt lat="46.40197368557148" lon="12.833067477703574"><ele>478.33333333333337</ele><time>2026-04-12T12:54:57Z</time></trkpt><trkpt lat="46.40200383518172" lon="12.833331823060954"><ele>478.0</ele><time>2026-04-12T12:54:58Z</time></trkpt><trkpt lat="46.4020335698726" lon="12.833593227938358"><ele>475.33333333333337</ele><time>2026-04-12T12:54:59Z</time></trkpt><trkpt lat="46.402062965231245" lon="12.833855320453305"><ele>472.66666666666663</ele><time>2026-04-12T12:55:00Z</time></trkpt><trkpt lat="46.40209111738319" lon="12.834115267794786"><ele>470.0</ele><time>2026-04-12T12:55:01Z</time></trkpt><trkpt lat="46.40211866910105" lon="12.834377983968373"><ele>467.0</ele><time>2026-04-12T12:55:02Z</time></trkpt><trkpt lat="46.4021444805395" lon="12.834638451266807"><ele>464.0</ele><time>2026-04-12T12:55:03Z</time></trkpt><trkpt lat="46.40216676627868" lon="12.83489962643231"><ele>461.0</ele><time>2026-04-12T12:55:04Z</time></trkpt><trkpt lat="46.40218672552869" lon="12.835169511748994"><ele>469.3333333333333</ele><time>2026-04-12T12:55:05Z</time></trkpt><trkpt lat="46.40220148644507" lon="12.835427593729289"><ele>477.66666666666663</ele><time>2026-04-12T12:55:06Z</time></trkpt><trkpt lat="46.402210960062156" lon="12.835707061051384"><ele>486.0</ele><time>2026-04-12T12:55:07Z</time></trkpt><trkpt lat="46.40221355844828" lon="12.835996691112172"><ele>487.5</ele><time>2026-04-12T12:55:08Z</time></trkpt><trkpt lat="46.40220682429778" lon="12.836417570857472"><ele>489.0</ele><time>2026-04-12T12:55:09Z</time></trkpt><trkpt lat="46.40218344067978" lon="12.836877109925513"><ele>476.0</ele><time>2026-04-12T12:55:10Z</time></trkpt><trkpt lat="46.40214886602747" lon="12.837393692727689"><ele>463.0</ele><time>2026-04-12T12:55:11Z</time></trkpt><trkpt lat="46.40211258818939" lon="12.837894892724895"><ele>463.0</ele><time>2026-04-12T12:55:12Z</time></trkpt><trkpt lat="46.40207889615281" lon="12.838368236162955"><ele>463.0</ele><time>2026-04-12T12:55:13Z</time></trkpt><trkpt lat="46.40204718828984" lon="12.838815618509111"><ele>462.5</ele><time>2026-04-12T12:55:14Z</time></trkpt><trkpt lat="46.40201638960647" lon="12.839239730925977"><ele>462.0</ele><time>2026-04-12T12:55:15Z</time></trkpt><trkpt lat="46.40199301175519" lon="12.83963977573378"><ele>463.5</ele><time>2026-04-12T12:55:16Z</time></trkpt><trkpt lat="46.401973065956625" lon="12.840016891926048"><ele>465.0</ele><time>2026-04-12T12:55:17Z</time></trkpt><trkpt lat="46.401953825262694" lon="12.84038356467787"><ele>469.0</ele><time>2026-04-12T12:55:18Z</time></trkpt><trkpt lat="46.40193833924529" lon="12.840733191068207"><ele>473.0</ele><time>2026-04-12T12:55:19Z</time></trkpt><trkpt lat="46.40192801332626" lon="12.841075678963907"><ele>474.0</ele><time>2026-04-12T12:55:20Z</time></trkpt><trkpt lat="46.40191938553317" lon="12.841408736139146"><ele>475.0</ele><time>2026-04-12T12:55:21Z</time></trkpt><trkpt lat="46.40191408601358" lon="12.841737883620858"><ele>473.0</ele><time>2026-04-12T12:55:22Z</time></trkpt><trkpt lat="46.4019089349521" lon="12.842057818656436"><ele>471.0</ele><time>2026-04-12T12:55:23Z</time></trkpt><trkpt lat="46.4019038111457" lon="12.84237606085777"><ele>469.0</ele><time>2026-04-12T12:55:24Z</time></trkpt><trkpt lat="46.401938375610726" lon="12.842690138544588"><ele>466.6666666666667</ele><time>2026-04-12T12:55:25Z</time></trkpt><trkpt lat="46.40194518262573" lon="12.843004797355333"><ele>464.33333333333337</ele><time>2026-04-12T12:55:26Z</time></trkpt><trkpt lat="46.401955432106234" lon="12.84332149096486"><ele>462.0</ele><time>2026-04-12T12:55:27Z</time></trkpt><trkpt lat="46.401965887844646" lon="12.843641567442525"><ele>459.66666666666663</ele><time>2026-04-12T12:55:28Z</time></trkpt><trkpt lat="46.401975017213815" lon="12.84396083021755"><ele>457.3333333333333</ele><time>2026-04-12T12:55:29Z</time></trkpt><trkpt lat="46.40198798706787" lon="12.844282087814198"><ele>455.0</ele><time>2026-04-12T12:55:30Z</time></trkpt><trkpt lat="46.402003512040636" lon="12.844604950124953"><ele>453.0</ele><time>2026-04-12T12:55:31Z</time></trkpt><trkpt lat="46.40201864076921" lon="12.844931563460465"><ele>451.0</ele><time>2026-04-12T12:55:32Z</time></trkpt><trkpt lat="46.402034976306005" lon="12.845261633843403"><ele>447.0</ele><time>2026-04-12T12:55:33Z</time></trkpt><trkpt lat="46.40205724774273" lon="12.84560395903105"><ele>443.0</ele><time>2026-04-12T12:55:34Z</time></trkpt><trkpt lat="46.40207610925867" lon="12.845941895793308"><ele>440.0</ele><time>2026-04-12T12:55:35Z</time></trkpt><trkpt lat="46.40209538119383" lon="12.846269942367998"><ele>437.0</ele><time>2026-04-12T12:55:36Z</time></trkpt><trkpt lat="46.402116126601236" lon="12.846598313903677"><ele>437.5</ele><time>2026-04-12T12:55:37Z</time></trkpt><trkpt lat="46.40213794441483" lon="12.84693481524758"><ele>438.0</ele><time>2026-04-12T12:55:38Z</time></trkpt><trkpt lat="46.402158355419154" lon="12.847281167263873"><ele>449.5</ele><time>2026-04-12T12:55:39Z</time></trkpt><trkpt lat="46.402178323892294" lon="12.847631475018852"><ele>461.0</ele><time>2026-04-12T12:55:40Z</time></trkpt><trkpt lat="46.40219780843286" lon="12.84797842738619"><ele>461.0</ele><time>2026-04-12T12:55:41Z</time></trkpt><trkpt lat="46.402218098836286" lon="12.848315334302495"><ele>461.0</ele><time>2026-04-12T12:55:42Z</time></trkpt><trkpt lat="46.40223667724485" lon="12.848630271717742"><ele>460.66666666666663</ele><time>2026-04-12T12:55:43Z</time></trkpt><trkpt lat="46.40225184445671" lon="12.848924435716501"><ele>460.33333333333337</ele><time>2026-04-12T12:55:44Z</time></trkpt><trkpt lat="46.402267193391566" lon="12.849206502443986"><ele>460.0</ele><time>2026-04-12T12:55:45Z</time></trkpt><trkpt lat="46.402281901585496" lon="12.849480614571865"><ele>460.0</ele><time>2026-04-12T12:55:46Z</time></trkpt><trkpt lat="46.40230064282365" lon="12.849752673206073"><ele>460.0</ele><time>2026-04-12T12:55:47.001Z</time></trkpt><trkpt lat="46.40232244381437" lon="12.850020767590467"><ele>460.0</ele><time>2026-04-12T12:55:48.001Z</time></trkpt><trkpt lat="46.402344037303415" lon="12.850297206239917"><ele>460.0</ele><time>2026-04-12T12:55:49.001Z</time></trkpt><trkpt lat="46.40236800119703" lon="12.850574596711915"><ele>460.0</ele><time>2026-04-12T12:55:50.001Z</time></trkpt><trkpt lat="46.40239745457022" lon="12.850857872559585"><ele>460.0</ele><time>2026-04-12T12:55:51.001Z</time></trkpt><trkpt lat="46.40243661142818" lon="12.85116022511183"><ele>456.0</ele><time>2026-04-12T12:55:52.001Z</time></trkpt><trkpt lat="46.40248030641783" lon="12.851466575824036"><ele>452.0</ele><time>2026-04-12T12:55:53.001Z</time></trkpt><trkpt lat="46.40252849714571" lon="12.851776501204917"><ele>448.0</ele><time>2026-04-12T12:55:54.001Z</time></trkpt><trkpt lat="46.402585558369275" lon="12.852096694577703"><ele>443.0</ele><time>2026-04-12T12:55:55.001Z</time></trkpt><trkpt lat="46.40264634539162" lon="12.852411288575299"><ele>438.0</ele><time>2026-04-12T12:55:56.001Z</time></trkpt><trkpt lat="46.40270920710335" lon="12.852723047749786"><ele>433.0</ele><time>2026-04-12T12:55:57.001Z</time></trkpt><trkpt lat="46.40277530562174" lon="12.85303033083224"><ele>432.33333333333337</ele><time>2026-04-12T12:55:58.001Z</time></trkpt><trkpt lat="46.40284613749317" lon="12.853337733086635"><ele>431.66666666666663</ele><time>2026-04-12T12:55:59.001Z</time></trkpt><trkpt lat="46.40291533483968" lon="12.853646482900444"><ele>431.0</ele><time>2026-04-12T12:56:00.001Z</time></trkpt><trkpt lat="46.402987327678346" lon="12.85396035547095"><ele>433.5</ele><time>2026-04-12T12:56:01.001Z</time></trkpt><trkpt lat="46.40306128736926" lon="12.854277878186705"><ele>436.0</ele><time>2026-04-12T12:56:02.001Z</time></trkpt><trkpt lat="46.40313508748491" lon="12.854601199220207"><ele>436.0</ele><time>2026-04-12T12:56:03.001Z</time></trkpt><trkpt lat="46.403211533014435" lon="12.854923496593006"><ele>436.0</ele><time>2026-04-12T12:56:04.001Z</time></trkpt><trkpt lat="46.40328571019572" lon="12.855232877632526"><ele>432.6666666666667</ele><time>2026-04-12T12:56:05Z</time></trkpt><trkpt lat="46.40335488806336" lon="12.855529633846631"><ele>429.33333333333337</ele><time>2026-04-12T12:56:06Z</time></trkpt><trkpt lat="46.403424346433354" lon="12.855823738087588"><ele>426.0</ele><time>2026-04-12T12:56:07Z</time></trkpt><trkpt lat="46.40349227889452" lon="12.856114869269012"><ele>422.33333333333337</ele><time>2026-04-12T12:56:08Z</time></trkpt><trkpt lat="46.40355880472388" lon="12.856404256061234"><ele>418.6666666666667</ele><time>2026-04-12T12:56:09Z</time></trkpt><trkpt lat="46.403623305157936" lon="12.856689368527269"><ele>415.0</ele><time>2026-04-12T12:56:10Z</time></trkpt><trkpt lat="46.40368861626493" lon="12.856967329013948"><ele>413.6666666666667</ele><time>2026-04-12T12:56:11Z</time></trkpt><trkpt lat="46.40375397504938" lon="12.85724265503787"><ele>412.33333333333337</ele><time>2026-04-12T12:56:12Z</time></trkpt><trkpt lat="46.40381868964899" lon="12.857523155537923"><ele>411.0</ele><time>2026-04-12T12:56:13Z</time></trkpt><trkpt lat="46.40388365185809" lon="12.857806142918456"><ele>411.0</ele><time>2026-04-12T12:56:14Z</time></trkpt><trkpt lat="46.40395416487323" lon="12.858096926330031"><ele>411.0</ele><time>2026-04-12T12:56:15Z</time></trkpt><trkpt lat="46.40402328246281" lon="12.858392828631166"><ele>411.0</ele><time>2026-04-12T12:56:16Z</time></trkpt><trkpt lat="46.40409000493477" lon="12.858696459461637"><ele>409.0</ele><time>2026-04-12T12:56:17Z</time></trkpt><trkpt lat="46.40416139590799" lon="12.858999348852032"><ele>407.0</ele><time>2026-04-12T12:56:18Z</time></trkpt><trkpt lat="46.40423379618099" lon="12.859299865690774"><ele>405.0</ele><time>2026-04-12T12:56:19Z</time></trkpt><trkpt lat="46.404303922403706" lon="12.859590324873322"><ele>403.66666666666663</ele><time>2026-04-12T12:56:20Z</time></trkpt><trkpt lat="46.40437266581145" lon="12.859868319588442"><ele>402.3333333333333</ele><time>2026-04-12T12:56:21Z</time></trkpt><trkpt lat="46.40444209245672" lon="12.860136871518131"><ele>401.0</ele><time>2026-04-12T12:56:22Z</time></trkpt><trkpt lat="46.404519401391426" lon="12.860401184521848"><ele>399.66666666666663</ele><time>2026-04-12T12:56:23Z</time></trkpt><trkpt lat="46.40460046869747" lon="12.860661243338875"><ele>398.33333333333337</ele><time>2026-04-12T12:56:24Z</time></trkpt><trkpt lat="46.40468353921328" lon="12.860918709747716"><ele>397.0</ele><time>2026-04-12T12:56:25Z</time></trkpt><trkpt lat="46.404770549398194" lon="12.861173210117158"><ele>399.6666666666667</ele><time>2026-04-12T12:56:26Z</time></trkpt><trkpt lat="46.404819939783685" lon="12.861460967204858"><ele>402.33333333333337</ele><time>2026-04-12T12:56:27Z</time></trkpt><trkpt lat="46.404919879450766" lon="12.861720299837266"><ele>405.0</ele><time>2026-04-12T12:56:28Z</time></trkpt><trkpt lat="46.405024648371906" lon="12.8619718758896"><ele>405.0</ele><time>2026-04-12T12:56:29Z</time></trkpt><trkpt lat="46.40513252490775" lon="12.862220964355888"><ele>405.0</ele><time>2026-04-12T12:56:30Z</time></trkpt><trkpt lat="46.40523996009708" lon="12.862465531669466"><ele>405.0</ele><time>2026-04-12T12:56:31Z</time></trkpt><trkpt lat="46.405346564123725" lon="12.862708731343487"><ele>404.0</ele><time>2026-04-12T12:56:32Z</time></trkpt><trkpt lat="46.40545153817428" lon="12.862953700386022"><ele>403.0</ele><time>2026-04-12T12:56:33Z</time></trkpt><trkpt lat="46.40555633616942" lon="12.86320216500644"><ele>402.0</ele><time>2026-04-12T12:56:34Z</time></trkpt><trkpt lat="46.40565571272547" lon="12.863457199476374"><ele>401.0</ele><time>2026-04-12T12:56:35Z</time></trkpt><trkpt lat="46.40574541088279" lon="12.863720712616638"><ele>400.0</ele><time>2026-04-12T12:56:36Z</time></trkpt><trkpt lat="46.405827665211056" lon="12.863988510600262"><ele>399.0</ele><time>2026-04-12T12:56:37Z</time></trkpt><trkpt lat="46.40590203164286" lon="12.864267518873168"><ele>399.33333333333337</ele><time>2026-04-12T12:56:38Z</time></trkpt><trkpt lat="46.405969688838034" lon="12.864552610017842"><ele>399.6666666666667</ele><time>2026-04-12T12:56:39Z</time></trkpt><trkpt lat="46.40602565128432" lon="12.864844617857322"><ele>400.0</ele><time>2026-04-12T12:56:40Z</time></trkpt><trkpt lat="46.40607420410411" lon="12.865141743532112"><ele>400.0</ele><time>2026-04-12T12:56:41Z</time></trkpt><trkpt lat="46.40611006275444" lon="12.865441603168822"><ele>400.0</ele><time>2026-04-12T12:56:42Z</time></trkpt><trkpt lat="46.40613361843014" lon="12.865739596075407"><ele>400.0</ele><time>2026-04-12T12:56:43Z</time></trkpt><trkpt lat="46.406147263215054" lon="12.86604050850487"><ele>400.33333333333337</ele><time>2026-04-12T12:56:44Z</time></trkpt><trkpt lat="46.406150153644475" lon="12.866342525262723"><ele>400.66666666666663</ele><time>2026-04-12T12:56:45Z</time></trkpt><trkpt lat="46.40614418389961" lon="12.866647438808982"><ele>401.0</ele><time>2026-04-12T12:56:46Z</time></trkpt><trkpt lat="46.40613507666264" lon="12.866954179952954"><ele>401.0</ele><time>2026-04-12T12:56:47Z</time></trkpt><trkpt lat="46.40612168073484" lon="12.867253758491545"><ele>401.0</ele><time>2026-04-12T12:56:48Z</time></trkpt><trkpt lat="46.406102072513505" lon="12.867553267825501"><ele>401.0</ele><time>2026-04-12T12:56:49Z</time></trkpt><trkpt lat="46.406083505326876" lon="12.867850337806049"><ele>405.0</ele><time>2026-04-12T12:56:50Z</time></trkpt><trkpt lat="46.406067534415136" lon="12.868145736872394"><ele>409.0</ele><time>2026-04-12T12:56:51Z</time></trkpt><trkpt lat="46.40605559851427" lon="12.868431916158183"><ele>413.0</ele><time>2026-04-12T12:56:52Z</time></trkpt><trkpt lat="46.40605091058933" lon="12.868714826522469"><ele>413.66666666666663</ele><time>2026-04-12T12:56:53Z</time></trkpt><trkpt lat="46.40605498946486" lon="12.868987799128114"><ele>414.33333333333337</ele><time>2026-04-12T12:56:54Z</time></trkpt><trkpt lat="46.40606342980051" lon="12.869255946337356"><ele>415.0</ele><time>2026-04-12T12:56:55Z</time></trkpt><trkpt lat="46.406080957735526" lon="12.869524462530638"><ele>412.6666666666667</ele><time>2026-04-12T12:56:56Z</time></trkpt><trkpt lat="46.40611311573631" lon="12.869790587694652"><ele>410.33333333333337</ele><time>2026-04-12T12:56:57Z</time></trkpt><trkpt lat="46.40615196494425" lon="12.870048813828014"><ele>408.0</ele><time>2026-04-12T12:56:58Z</time></trkpt><trkpt lat="46.40620165595595" lon="12.870303564648607"><ele>408.33333333333337</ele><time>2026-04-12T12:56:59Z</time></trkpt><trkpt lat="46.40626332044828" lon="12.87054981715308"><ele>408.6666666666667</ele><time>2026-04-12T12:57:00Z</time></trkpt><trkpt lat="46.40633158915094" lon="12.870791050276463"><ele>409.0</ele><time>2026-04-12T12:57:01Z</time></trkpt><trkpt lat="46.40641180783135" lon="12.871029127492733"><ele>409.0</ele><time>2026-04-12T12:57:02Z</time></trkpt><trkpt lat="46.40650253633638" lon="12.871263372268839"><ele>409.0</ele><time>2026-04-12T12:57:03Z</time></trkpt><trkpt lat="46.406605835375885" lon="12.871496608137921"><ele>409.0</ele><time>2026-04-12T12:57:04Z</time></trkpt><trkpt lat="46.406722158404264" lon="12.871724900618645"><ele>407.6666666666667</ele><time>2026-04-12T12:57:05Z</time></trkpt><trkpt lat="46.40685213958746" lon="12.871944869072674"><ele>406.33333333333337</ele><time>2026-04-12T12:57:06Z</time></trkpt><trkpt lat="46.40699085926213" lon="12.872164068193271"><ele>405.0</ele><time>2026-04-12T12:57:07Z</time></trkpt><trkpt lat="46.40713556491222" lon="12.872384062722897"><ele>403.33333333333337</ele><time>2026-04-12T12:57:08Z</time></trkpt><trkpt lat="46.40728913885106" lon="12.872595539710382"><ele>401.6666666666667</ele><time>2026-04-12T12:57:09Z</time></trkpt><trkpt lat="46.40744630628643" lon="12.872808260473652"><ele>400.0</ele><time>2026-04-12T12:57:10Z</time></trkpt><trkpt lat="46.40760583298883" lon="12.873022922463317"><ele>398.33333333333337</ele><time>2026-04-12T12:57:11Z</time></trkpt><trkpt lat="46.407762172630264" lon="12.87323083582267"><ele>396.66666666666663</ele><time>2026-04-12T12:57:12Z</time></trkpt><trkpt lat="46.40790806993187" lon="12.873424862268347"><ele>395.0</ele><time>2026-04-12T12:57:13Z</time></trkpt><trkpt lat="46.40804536214827" lon="12.873608947858047"><ele>395.0</ele><time>2026-04-12T12:57:14Z</time></trkpt><trkpt lat="46.40817517612931" lon="12.873786409458631"><ele>395.0</ele><time>2026-04-12T12:57:15Z</time></trkpt><trkpt lat="46.40830346348133" lon="12.873960000067346"><ele>395.0</ele><time>2026-04-12T12:57:16Z</time></trkpt><trkpt lat="46.40842940573679" lon="12.87413126603727"><ele>394.3333333333333</ele><time>2026-04-12T12:57:17Z</time></trkpt><trkpt lat="46.40855552956626" lon="12.874301558039246"><ele>393.66666666666663</ele><time>2026-04-12T12:57:18Z</time></trkpt><trkpt lat="46.408678697583426" lon="12.874465384369119"><ele>393.0</ele><time>2026-04-12T12:57:19Z</time></trkpt><trkpt lat="46.40879531918436" lon="12.87462039976123"><ele>393.25</ele><time>2026-04-12T12:57:20Z</time></trkpt><trkpt lat="46.40890812072544" lon="12.874770544650408"><ele>393.5</ele><time>2026-04-12T12:57:21Z</time></trkpt><trkpt lat="46.40901786182057" lon="12.874918216088432"><ele>393.75</ele><time>2026-04-12T12:57:22Z</time></trkpt><trkpt lat="46.40912433416437" lon="12.875061543504689"><ele>394.0</ele><time>2026-04-12T12:57:23Z</time></trkpt><trkpt lat="46.409223650309436" lon="12.875195335229353"><ele>393.5</ele><time>2026-04-12T12:57:24Z</time></trkpt><trkpt lat="46.40931741306794" lon="12.875321399135096"><ele>393.0</ele><time>2026-04-12T12:57:25Z</time></trkpt><trkpt lat="46.40941147233361" lon="12.875447628843741"><ele>392.5</ele><time>2026-04-12T12:57:26Z</time></trkpt><trkpt lat="46.40950530817904" lon="12.875573558894187"><ele>392.0</ele><time>2026-04-12T12:57:27Z</time></trkpt><trkpt lat="46.40959573063315" lon="12.87569491035219"><ele>392.5</ele><time>2026-04-12T12:57:28Z</time></trkpt><trkpt lat="46.40968152809294" lon="12.87581595397535"><ele>393.0</ele><time>2026-04-12T12:57:29Z</time></trkpt><trkpt lat="46.40975983106474" lon="12.875941059732746"><ele>393.5</ele><time>2026-04-12T12:57:30Z</time></trkpt><trkpt lat="46.40980803115975" lon="12.87608231139158"><ele>394.0</ele><time>2026-04-12T12:57:31Z</time></trkpt><trkpt lat="46.409829496497956" lon="12.876236490879355"><ele>394.0</ele><time>2026-04-12T12:57:32Z</time></trkpt><trkpt lat="46.409829758255455" lon="12.876394601575914"><ele>394.0</ele><time>2026-04-12T12:57:33Z</time></trkpt><trkpt lat="46.40981377570245" lon="12.876556426949056"><ele>394.0</ele><time>2026-04-12T12:57:34Z</time></trkpt><trkpt lat="46.40979901530006" lon="12.876730110073678"><ele>394.0</ele><time>2026-04-12T12:57:35Z</time></trkpt><trkpt lat="46.40978436602503" lon="12.876902485511343"><ele>394.25</ele><time>2026-04-12T12:57:36Z</time></trkpt><trkpt lat="46.40976926071865" lon="12.877076704928903"><ele>394.5</ele><time>2026-04-12T12:57:37Z</time></trkpt><trkpt lat="46.40975394215963" lon="12.877251925402273"><ele>394.75</ele><time>2026-04-12T12:57:38Z</time></trkpt><trkpt lat="46.4097351974261" lon="12.877421281298085"><ele>395.0</ele><time>2026-04-12T12:57:39Z</time></trkpt><trkpt lat="46.409710444641505" lon="12.877590617083504"><ele>395.25</ele><time>2026-04-12T12:57:40Z</time></trkpt><trkpt lat="46.40968469665704" lon="12.877759941664165"><ele>395.5</ele><time>2026-04-12T12:57:41Z</time></trkpt><trkpt lat="46.4097302173857" lon="12.877950445283481"><ele>395.75</ele><time>2026-04-12T12:57:42Z</time></trkpt><trkpt lat="46.40971120983375" lon="12.878120334556703"><ele>396.0</ele><time>2026-04-12T12:57:43Z</time></trkpt><trkpt lat="46.409695816709" lon="12.878290446605249"><ele>396.0</ele><time>2026-04-12T12:57:44Z</time></trkpt><trkpt lat="46.40968941398946" lon="12.878454724665929"><ele>396.0</ele><time>2026-04-12T12:57:45Z</time></trkpt><trkpt lat="46.40969777547438" lon="12.878611839953173"><ele>396.0</ele><time>2026-04-12T12:57:46Z</time></trkpt><trkpt lat="46.409671040349146" lon="12.878794549896629"><ele>396.0</ele><time>2026-04-12T12:57:47Z</time></trkpt><trkpt lat="46.40971442109117" lon="12.8789491177642"><ele>396.0</ele><time>2026-04-12T12:57:48Z</time></trkpt><trkpt lat="46.409762050529395" lon="12.87910556674454"><ele>396.0</ele><time>2026-04-12T12:57:48.999Z</time></trkpt><trkpt lat="46.40980959379963" lon="12.879262184290438"><ele>396.0</ele><time>2026-04-12T12:57:49.999Z</time></trkpt><trkpt lat="46.409844678981536" lon="12.879416253460235"><ele>396.0</ele><time>2026-04-12T12:57:50.999Z</time></trkpt><trkpt lat="46.40986459352682" lon="12.879566938349555"><ele>395.5</ele><time>2026-04-12T12:57:51.999Z</time></trkpt><trkpt lat="46.409873161164334" lon="12.879721548592562"><ele>395.0</ele><time>2026-04-12T12:57:53.001Z</time></trkpt><trkpt lat="46.40986792416896" lon="12.879883209938953"><ele>394.5</ele><time>2026-04-12T12:57:54.001Z</time></trkpt><trkpt lat="46.409866706292945" lon="12.880064459596662"><ele>394.0</ele><time>2026-04-12T12:57:55Z</time></trkpt><trkpt lat="46.409867636964144" lon="12.880238794608145"><ele>393.75</ele><time>2026-04-12T12:57:56.001Z</time></trkpt><trkpt lat="46.40986857910103" lon="12.8804152771218"><ele>393.5</ele><time>2026-04-12T12:57:57.001Z</time></trkpt><trkpt lat="46.40986953788947" lon="12.88059487892956"><ele>393.25</ele><time>2026-04-12T12:57:58Z</time></trkpt><trkpt lat="46.409868914905424" lon="12.880779724203947"><ele>393.0</ele><time>2026-04-12T12:57:59Z</time></trkpt><trkpt lat="46.40986820698026" lon="12.880979098096471"><ele>393.0</ele><time>2026-04-12T12:58:00Z</time></trkpt><trkpt lat="46.409947463790814" lon="12.881191387016068"><ele>393.0</ele><time>2026-04-12T12:58:01Z</time></trkpt><trkpt lat="46.4099432913502" lon="12.881412404859333"><ele>393.0</ele><time>2026-04-12T12:58:02Z</time></trkpt><trkpt lat="46.40993473301002" lon="12.8816272198929"><ele>392.33333333333337</ele><time>2026-04-12T12:58:03Z</time></trkpt><trkpt lat="46.40991998292244" lon="12.881840740141737"><ele>391.6666666666667</ele><time>2026-04-12T12:58:04Z</time></trkpt><trkpt lat="46.409825358913615" lon="12.882046795458185"><ele>391.0</ele><time>2026-04-12T12:58:05Z</time></trkpt><trkpt lat="46.409810835124546" lon="12.882266235457635"><ele>391.0</ele><time>2026-04-12T12:58:06Z</time></trkpt><trkpt lat="46.409812512719895" lon="12.882495599147548"><ele>391.0</ele><time>2026-04-12T12:58:07Z</time></trkpt><trkpt lat="46.40983670201267" lon="12.88271992469724"><ele>391.0</ele><time>2026-04-12T12:58:08Z</time></trkpt><trkpt lat="46.40987472958427" lon="12.882930963939492"><ele>389.75</ele><time>2026-04-12T12:58:09Z</time></trkpt><trkpt lat="46.40991470606889" lon="12.883132761644024"><ele>388.5</ele><time>2026-04-12T12:58:10Z</time></trkpt><trkpt lat="46.40994887666533" lon="12.883340533653188"><ele>387.25</ele><time>2026-04-12T12:58:11Z</time></trkpt><trkpt lat="46.4099708880545" lon="12.88354595355137"><ele>386.0</ele><time>2026-04-12T12:58:12Z</time></trkpt><trkpt lat="46.40997752594725" lon="12.883752846416234"><ele>385.66666666666663</ele><time>2026-04-12T12:58:13Z</time></trkpt><trkpt lat="46.40998030993952" lon="12.883973630287423"><ele>385.33333333333337</ele><time>2026-04-12T12:58:14Z</time></trkpt><trkpt lat="46.40997890210472" lon="12.884197253479757"><ele>385.0</ele><time>2026-04-12T12:58:15Z</time></trkpt><trkpt lat="46.409978557677675" lon="12.884420563879868"><ele>384.0</ele><time>2026-04-12T12:58:16Z</time></trkpt><trkpt lat="46.40997843700673" lon="12.88464194072635"><ele>383.0</ele><time>2026-04-12T12:58:17Z</time></trkpt><trkpt lat="46.409978317638306" lon="12.884860927546477"><ele>382.0</ele><time>2026-04-12T12:58:18Z</time></trkpt><trkpt lat="46.409978198703456" lon="12.885079118743898"><ele>381.3333333333333</ele><time>2026-04-12T12:58:19Z</time></trkpt><trkpt lat="46.4099780792824" lon="12.885298201543172"><ele>380.6666666666667</ele><time>2026-04-12T12:58:20Z</time></trkpt><trkpt lat="46.409977957946204" lon="12.885520798862663"><ele>380.0</ele><time>2026-04-12T12:58:21Z</time></trkpt><trkpt lat="46.40997783529844" lon="12.885745800832316"><ele>379.6666666666667</ele><time>2026-04-12T12:58:22Z</time></trkpt><trkpt lat="46.40997771122414" lon="12.885973417778471"><ele>379.3333333333333</ele><time>2026-04-12T12:58:23Z</time></trkpt><trkpt lat="46.409977616368664" lon="12.886199096247951"><ele>379.0</ele><time>2026-04-12T12:58:24Z</time></trkpt><trkpt lat="46.409977162817185" lon="12.886420126110746"><ele>379.0</ele><time>2026-04-12T12:58:25Z</time></trkpt><trkpt lat="46.40997671087238" lon="12.886640375675237"><ele>379.0</ele><time>2026-04-12T12:58:26Z</time></trkpt><trkpt lat="46.40997253503711" lon="12.886857444253362"><ele>379.0</ele><time>2026-04-12T12:58:27Z</time></trkpt><trkpt lat="46.40996438514608" lon="12.887073048954349"><ele>379.75</ele><time>2026-04-12T12:58:28Z</time></trkpt><trkpt lat="46.4099508407488" lon="12.88728471210849"><ele>380.5</ele><time>2026-04-12T12:58:29Z</time></trkpt><trkpt lat="46.409932692898956" lon="12.887489054335385"><ele>381.25</ele><time>2026-04-12T12:58:30Z</time></trkpt><trkpt lat="46.40991350058356" lon="12.887686782649988"><ele>382.0</ele><time>2026-04-12T12:58:31Z</time></trkpt><trkpt lat="46.40989414399094" lon="12.887881604645882"><ele>382.0</ele><time>2026-04-12T12:58:32Z</time></trkpt><trkpt lat="46.40987473127433" lon="12.88807699155944"><ele>382.0</ele><time>2026-04-12T12:58:33Z</time></trkpt><trkpt lat="46.40985587589112" lon="12.888269160596488"><ele>382.0</ele><time>2026-04-12T12:58:34Z</time></trkpt><trkpt lat="46.40985004585597" lon="12.888482233355544"><ele>382.0</ele><time>2026-04-12T12:58:35Z</time></trkpt><trkpt lat="46.40987336576356" lon="12.888693422462074"><ele>381.66666666666663</ele><time>2026-04-12T12:58:36Z</time></trkpt><trkpt lat="46.4099075106892" lon="12.88890564175742"><ele>381.3333333333333</ele><time>2026-04-12T12:58:37Z</time></trkpt><trkpt lat="46.40994622843558" lon="12.889122756290902"><ele>381.0</ele><time>2026-04-12T12:58:38Z</time></trkpt><trkpt lat="46.409985468277284" lon="12.889342798462772"><ele>380.3333333333333</ele><time>2026-04-12T12:58:39Z</time></trkpt><trkpt lat="46.41002283227475" lon="12.88956276797218"><ele>379.66666666666663</ele><time>2026-04-12T12:58:40Z</time></trkpt><trkpt lat="46.410060649993774" lon="12.88978621950311"><ele>379.0</ele><time>2026-04-12T12:58:41Z</time></trkpt><trkpt lat="46.410096531749076" lon="12.889995098668605"><ele>378.5</ele><time>2026-04-12T12:58:42Z</time></trkpt><trkpt lat="46.41012287304712" lon="12.89019512939643"><ele>378.0</ele><time>2026-04-12T12:58:43Z</time></trkpt><trkpt lat="46.41013284553636" lon="12.890390005125191"><ele>377.5</ele><time>2026-04-12T12:58:44Z</time></trkpt><trkpt lat="46.41013053075524" lon="12.890589436483861"><ele>377.0</ele><time>2026-04-12T12:58:45Z</time></trkpt><trkpt lat="46.410107525872675" lon="12.890786659881647"><ele>376.25</ele><time>2026-04-12T12:58:46Z</time></trkpt><trkpt lat="46.41006727986437" lon="12.890980415047476"><ele>375.5</ele><time>2026-04-12T12:58:47Z</time></trkpt><trkpt lat="46.410010322341755" lon="12.89116233568149"><ele>374.75</ele><time>2026-04-12T12:58:48Z</time></trkpt><trkpt lat="46.40993963166465" lon="12.891340992221167"><ele>374.0</ele><time>2026-04-12T12:58:49Z</time></trkpt><trkpt lat="46.409864233319254" lon="12.89152211439765"><ele>374.0</ele><time>2026-04-12T12:58:50Z</time></trkpt><trkpt lat="46.4097892359362" lon="12.891706447387147"><ele>374.0</ele><time>2026-04-12T12:58:51Z</time></trkpt><trkpt lat="46.409718191783696" lon="12.891887649544817"><ele>374.0</ele><time>2026-04-12T12:58:52Z</time></trkpt><trkpt lat="46.40964906432765" lon="12.892067228029255"><ele>374.0</ele><time>2026-04-12T12:58:53Z</time></trkpt><trkpt lat="46.4095854731765" lon="12.89224740806233"><ele>374.25</ele><time>2026-04-12T12:58:54Z</time></trkpt><trkpt lat="46.40958980078124" lon="12.892463707719156"><ele>374.5</ele><time>2026-04-12T12:58:55Z</time></trkpt><trkpt lat="46.409542108059014" lon="12.892634924901934"><ele>374.75</ele><time>2026-04-12T12:58:56Z</time></trkpt><trkpt lat="46.40950543965949" lon="12.892812339683637"><ele>375.0</ele><time>2026-04-12T12:58:57Z</time></trkpt><trkpt lat="46.40947540207129" lon="12.892991229527716"><ele>375.0</ele><time>2026-04-12T12:58:58Z</time></trkpt><trkpt lat="46.409391704766044" lon="12.893164974097001"><ele>375.0</ele><time>2026-04-12T12:58:59Z</time></trkpt><trkpt lat="46.4093844928543" lon="12.893353410506986"><ele>375.0</ele><time>2026-04-12T12:59:00Z</time></trkpt><trkpt lat="46.409386252453665" lon="12.893554163328004"><ele>375.0</ele><time>2026-04-12T12:59:01Z</time></trkpt><trkpt lat="46.409396007730564" lon="12.893760408331314"><ele>374.6666666666667</ele><time>2026-04-12T12:59:02Z</time></trkpt><trkpt lat="46.40940595812925" lon="12.893971906388204"><ele>374.33333333333337</ele><time>2026-04-12T12:59:03Z</time></trkpt><trkpt lat="46.40941695269634" lon="12.894197938865055"><ele>374.0</ele><time>2026-04-12T12:59:04Z</time></trkpt><trkpt lat="46.40942868530008" lon="12.894439144095333"><ele>374.0</ele><time>2026-04-12T12:59:05Z</time></trkpt><trkpt lat="46.40944117909899" lon="12.894695998752267"><ele>374.0</ele><time>2026-04-12T12:59:06Z</time></trkpt><trkpt lat="46.40945461712796" lon="12.894972265348654"><ele>374.0</ele><time>2026-04-12T12:59:07Z</time></trkpt><trkpt lat="46.40946865788896" lon="12.895260923029921"><ele>374.33333333333337</ele><time>2026-04-12T12:59:08Z</time></trkpt><trkpt lat="46.40948194046122" lon="12.895538899356156"><ele>374.6666666666667</ele><time>2026-04-12T12:59:09Z</time></trkpt><trkpt lat="46.40949523801004" lon="12.895814356633046"><ele>375.0</ele><time>2026-04-12T12:59:10Z</time></trkpt><trkpt lat="46.40950907114643" lon="12.896095551575256"><ele>373.6666666666667</ele><time>2026-04-12T12:59:11Z</time></trkpt><trkpt lat="46.409522408601376" lon="12.89636666723798"><ele>372.33333333333337</ele><time>2026-04-12T12:59:12Z</time></trkpt><trkpt lat="46.40953431781494" lon="12.896627165465736"><ele>371.0</ele><time>2026-04-12T12:59:13Z</time></trkpt><trkpt lat="46.40954598012228" lon="12.896880230129256"><ele>371.0</ele><time>2026-04-12T12:59:14Z</time></trkpt><trkpt lat="46.40955765962085" lon="12.897128181511595"><ele>371.0</ele><time>2026-04-12T12:59:15Z</time></trkpt><trkpt lat="46.40956895602054" lon="12.897363251831976"><ele>371.0</ele><time>2026-04-12T12:59:16Z</time></trkpt><trkpt lat="46.40958124672186" lon="12.897594164132666"><ele>371.0</ele><time>2026-04-12T12:59:17Z</time></trkpt><trkpt lat="46.40959342664933" lon="12.897818359029108"><ele>371.0</ele><time>2026-04-12T12:59:18Z</time></trkpt><trkpt lat="46.40960495158146" lon="12.898042268787316"><ele>371.0</ele><time>2026-04-12T12:59:19Z</time></trkpt><trkpt lat="46.40961591678785" lon="12.898267319772783"><ele>370.33333333333337</ele><time>2026-04-12T12:59:20Z</time></trkpt><trkpt lat="46.40962630736919" lon="12.89849193930376"><ele>369.6666666666667</ele><time>2026-04-12T12:59:21Z</time></trkpt><trkpt lat="46.40963728020953" lon="12.898721949546466"><ele>369.0</ele><time>2026-04-12T12:59:22Z</time></trkpt><trkpt lat="46.4096476401328" lon="12.898944726188457"><ele>370.6666666666667</ele><time>2026-04-12T12:59:23Z</time></trkpt><trkpt lat="46.409659337904365" lon="12.89916839895181"><ele>372.33333333333337</ele><time>2026-04-12T12:59:24Z</time></trkpt><trkpt lat="46.40967405371845" lon="12.89940056155582"><ele>374.0</ele><time>2026-04-12T12:59:25Z</time></trkpt><trkpt lat="46.40969522870781" lon="12.899633847587214"><ele>374.0</ele><time>2026-04-12T12:59:26Z</time></trkpt><trkpt lat="46.409724701532014" lon="12.8998674464432"><ele>374.0</ele><time>2026-04-12T12:59:27Z</time></trkpt><trkpt lat="46.40975674948818" lon="12.900104262125577"><ele>374.0</ele><time>2026-04-12T12:59:28Z</time></trkpt><trkpt lat="46.4097911957606" lon="12.90035211919204"><ele>373.33333333333337</ele><time>2026-04-12T12:59:29Z</time></trkpt><trkpt lat="46.4098262584285" lon="12.900603857676334"><ele>372.6666666666667</ele><time>2026-04-12T12:59:30Z</time></trkpt><trkpt lat="46.40986198919219" lon="12.900860393105702"><ele>372.0</ele><time>2026-04-12T12:59:31Z</time></trkpt><trkpt lat="46.40989912011578" lon="12.901120739853168"><ele>371.3333333333333</ele><time>2026-04-12T12:59:32Z</time></trkpt><trkpt lat="46.40993686410021" lon="12.901383412560467"><ele>370.66666666666663</ele><time>2026-04-12T12:59:33Z</time></trkpt><trkpt lat="46.40997420447601" lon="12.901643421242907"><ele>370.0</ele><time>2026-04-12T12:59:34Z</time></trkpt><trkpt lat="46.41001041591059" lon="12.901897443539443"><ele>370.0</ele><time>2026-04-12T12:59:35Z</time></trkpt><trkpt lat="46.41004664665734" lon="12.9021516011786"><ele>370.0</ele><time>2026-04-12T12:59:36Z</time></trkpt><trkpt lat="46.41008214070703" lon="12.90240059113176"><ele>370.0</ele><time>2026-04-12T12:59:37Z</time></trkpt><trkpt lat="46.41011690997412" lon="12.902644496696894"><ele>369.3333333333333</ele><time>2026-04-12T12:59:38Z</time></trkpt><trkpt lat="46.41015061088682" lon="12.902880907830234"><ele>368.6666666666667</ele><time>2026-04-12T12:59:39Z</time></trkpt><trkpt lat="46.41018487061042" lon="12.903116871709845"><ele>368.0</ele><time>2026-04-12T12:59:40Z</time></trkpt><trkpt lat="46.41022179863395" lon="12.90335075479916"><ele>368.0</ele><time>2026-04-12T12:59:41Z</time></trkpt><trkpt lat="46.41026517726748" lon="12.903583507675123"><ele>368.0</ele><time>2026-04-12T12:59:42Z</time></trkpt><trkpt lat="46.41031662194842" lon="12.903816398155868"><ele>368.0</ele><time>2026-04-12T12:59:43Z</time></trkpt><trkpt lat="46.41038277188659" lon="12.904046267578215"><ele>368.0</ele><time>2026-04-12T12:59:44Z</time></trkpt><trkpt lat="46.41045589853967" lon="12.904270640435604"><ele>368.0</ele><time>2026-04-12T12:59:45Z</time></trkpt><trkpt lat="46.41053266897125" lon="12.904492170232878"><ele>368.0</ele><time>2026-04-12T12:59:46Z</time></trkpt><trkpt lat="46.410608367786544" lon="12.9047105952719"><ele>368.33333333333337</ele><time>2026-04-12T12:59:47Z</time></trkpt><trkpt lat="46.41068573981188" lon="12.90493279207789"><ele>368.6666666666667</ele><time>2026-04-12T12:59:48Z</time></trkpt><trkpt lat="46.4107616185534" lon="12.905150699996963"><ele>369.0</ele><time>2026-04-12T12:59:48.999Z</time></trkpt><trkpt lat="46.410833585712936" lon="12.905357375042469"><ele>369.0</ele><time>2026-04-12T12:59:49.999Z</time></trkpt><trkpt lat="46.41090219819017" lon="12.905557316826316"><ele>369.0</ele><time>2026-04-12T12:59:50.999Z</time></trkpt><trkpt lat="46.41096931287271" lon="12.905753258524715"><ele>369.0</ele><time>2026-04-12T12:59:51.999Z</time></trkpt><trkpt lat="46.411037775846" lon="12.905950860617846"><ele>369.0</ele><time>2026-04-12T12:59:52.999Z</time></trkpt><trkpt lat="46.41110927706749" lon="12.906156017497914"><ele>369.0</ele><time>2026-04-12T12:59:53.999Z</time></trkpt><trkpt lat="46.41118205388745" lon="12.906365355343244"><ele>369.0</ele><time>2026-04-12T12:59:54.999Z</time></trkpt><trkpt lat="46.411255585807915" lon="12.90657864983582"><ele>368.3333333333333</ele><time>2026-04-12T12:59:55.999Z</time></trkpt><trkpt lat="46.41133246493274" lon="12.906800724919409"><ele>367.66666666666663</ele><time>2026-04-12T12:59:56.999Z</time></trkpt><trkpt lat="46.41141109310299" lon="12.907027852376183"><ele>367.0</ele><time>2026-04-12T12:59:58Z</time></trkpt><trkpt lat="46.411491518917586" lon="12.90726017257792"><ele>367.0</ele><time>2026-04-12T12:59:59Z</time></trkpt><trkpt lat="46.41157466890727" lon="12.907500362003963"><ele>367.0</ele><time>2026-04-12T13:00:00Z</time></trkpt><trkpt lat="46.41166008249369" lon="12.907747459542772"><ele>367.0</ele><time>2026-04-12T13:00:01Z</time></trkpt><trkpt lat="46.41174775748218" lon="12.908001156247"><ele>367.0</ele><time>2026-04-12T13:00:02Z</time></trkpt><trkpt lat="46.41183736403336" lon="12.908256687111102"><ele>367.0</ele><time>2026-04-12T13:00:03Z</time></trkpt><trkpt lat="46.41192684176003" lon="12.908514257860729"><ele>367.0</ele><time>2026-04-12T13:00:04Z</time></trkpt><trkpt lat="46.4120166838354" lon="12.908772877627447"><ele>367.3333333333333</ele><time>2026-04-12T13:00:05Z</time></trkpt><trkpt lat="46.412106267049666" lon="12.909031410660203"><ele>367.6666666666667</ele><time>2026-04-12T13:00:06Z</time></trkpt><trkpt lat="46.412196668729976" lon="12.909293670241613"><ele>368.0</ele><time>2026-04-12T13:00:07Z</time></trkpt><trkpt lat="46.41228786547384" lon="12.909557672877817"><ele>370.0</ele><time>2026-04-12T13:00:08Z</time></trkpt><trkpt lat="46.41237879143353" lon="12.909820575440172"><ele>372.0</ele><time>2026-04-12T13:00:09Z</time></trkpt><trkpt lat="46.41246907882428" lon="12.91008163160776"><ele>374.0</ele><time>2026-04-12T13:00:10Z</time></trkpt><trkpt lat="46.41255875178432" lon="12.910340911179283"><ele>374.0</ele><time>2026-04-12T13:00:11Z</time></trkpt><trkpt lat="46.41264688937544" lon="12.910595751564998"><ele>374.0</ele><time>2026-04-12T13:00:12Z</time></trkpt><trkpt lat="46.41273449434443" lon="12.910849088932384"><ele>374.0</ele><time>2026-04-12T13:00:13Z</time></trkpt><trkpt lat="46.41281947937839" lon="12.911094921227777"><ele>374.0</ele><time>2026-04-12T13:00:14Z</time></trkpt><trkpt lat="46.4129004547046" lon="12.911329348814125"><ele>374.0</ele><time>2026-04-12T13:00:15Z</time></trkpt><trkpt lat="46.412974103836326" lon="12.911542566840687"><ele>374.0</ele><time>2026-04-12T13:00:16Z</time></trkpt><trkpt lat="46.41304428761977" lon="12.911745089244894"><ele>374.0</ele><time>2026-04-12T13:00:17Z</time></trkpt><trkpt lat="46.41311074796611" lon="12.911935913564918"><ele>374.0</ele><time>2026-04-12T13:00:18Z</time></trkpt><trkpt lat="46.41317218484114" lon="12.91211231420078"><ele>374.0</ele><time>2026-04-12T13:00:19Z</time></trkpt><trkpt lat="46.41322868832976" lon="12.91227454978206"><ele>374.0</ele><time>2026-04-12T13:00:20Z</time></trkpt><trkpt lat="46.413281225138235" lon="12.912425396118337"><ele>373.25</ele><time>2026-04-12T13:00:21Z</time></trkpt><trkpt lat="46.41333334969524" lon="12.912575058770868"><ele>372.5</ele><time>2026-04-12T13:00:22Z</time></trkpt><trkpt lat="46.413384292245844" lon="12.912724088333732"><ele>371.75</ele><time>2026-04-12T13:00:23Z</time></trkpt><trkpt lat="46.41343528857033" lon="12.912873451884684"><ele>371.0</ele><time>2026-04-12T13:00:24Z</time></trkpt><trkpt lat="46.41348997141022" lon="12.913033612761707"><ele>371.0</ele><time>2026-04-12T13:00:25Z</time></trkpt><trkpt lat="46.4135480001448" lon="12.913203573519091"><ele>371.0</ele><time>2026-04-12T13:00:26Z</time></trkpt><trkpt lat="46.413611507623095" lon="12.913388914840533"><ele>371.0</ele><time>2026-04-12T13:00:27Z</time></trkpt><trkpt lat="46.41367945451847" lon="12.913586799549527"><ele>371.0</ele><time>2026-04-12T13:00:28Z</time></trkpt><trkpt lat="46.41375067120994" lon="12.913794207070156"><ele>370.6666666666667</ele><time>2026-04-12T13:00:29Z</time></trkpt><trkpt lat="46.41382231135953" lon="12.914002847992142"><ele>370.3333333333333</ele><time>2026-04-12T13:00:30Z</time></trkpt><trkpt lat="46.41389470172455" lon="12.914213963305079"><ele>370.0</ele><time>2026-04-12T13:00:31Z</time></trkpt><trkpt lat="46.41396846947777" lon="12.914427413592417"><ele>369.66666666666663</ele><time>2026-04-12T13:00:32Z</time></trkpt><trkpt lat="46.41404223821203" lon="12.914640866722486"><ele>369.3333333333333</ele><time>2026-04-12T13:00:33Z</time></trkpt><trkpt lat="46.41411680766345" lon="12.914856639521862"><ele>369.0</ele><time>2026-04-12T13:00:34Z</time></trkpt><trkpt lat="46.41419115845424" lon="12.915071789583461"><ele>368.3333333333333</ele><time>2026-04-12T13:00:35Z</time></trkpt><trkpt lat="46.41426420834243" lon="12.915284190585785"><ele>367.66666666666663</ele><time>2026-04-12T13:00:36Z</time></trkpt><trkpt lat="46.41433689729468" lon="12.915495505682022"><ele>367.0</ele><time>2026-04-12T13:00:37Z</time></trkpt><trkpt lat="46.41441006144804" lon="12.915706747985189"><ele>367.0</ele><time>2026-04-12T13:00:38Z</time></trkpt><trkpt lat="46.41448364090071" lon="12.915919189348747"><ele>367.0</ele><time>2026-04-12T13:00:39Z</time></trkpt><trkpt lat="46.41455692310269" lon="12.916131650449074"><ele>367.0</ele><time>2026-04-12T13:00:40Z</time></trkpt><trkpt lat="46.41462849403026" lon="12.916340644382752"><ele>367.0</ele><time>2026-04-12T13:00:41Z</time></trkpt><trkpt lat="46.41469640287745" lon="12.91653894469944"><ele>367.0</ele><time>2026-04-12T13:00:42Z</time></trkpt><trkpt lat="46.414758206329346" lon="12.916715486425156"><ele>367.0</ele><time>2026-04-12T13:00:43Z</time></trkpt><trkpt lat="46.41482423676618" lon="12.91688038167926"><ele>367.0</ele><time>2026-04-12T13:00:44Z</time></trkpt><trkpt lat="46.4149022352427" lon="12.91704219700488"><ele>367.0</ele><time>2026-04-12T13:00:45Z</time></trkpt><trkpt lat="46.41499158120456" lon="12.917198479461524"><ele>367.0</ele><time>2026-04-12T13:00:46Z</time></trkpt><trkpt lat="46.41508677213477" lon="12.917342283393307"><ele>367.0</ele><time>2026-04-12T13:00:47Z</time></trkpt><trkpt lat="46.415190173286014" lon="12.91749409364398"><ele>367.0</ele><time>2026-04-12T13:00:48Z</time></trkpt><trkpt lat="46.41529913889104" lon="12.917652139507275"><ele>367.0</ele><time>2026-04-12T13:00:49Z</time></trkpt><trkpt lat="46.41540941977743" lon="12.91781101047996"><ele>367.0</ele><time>2026-04-12T13:00:50Z</time></trkpt><trkpt lat="46.41551659301288" lon="12.917967448771629"><ele>367.0</ele><time>2026-04-12T13:00:51Z</time></trkpt><trkpt lat="46.4156195082046" lon="12.918118222125807"><ele>367.25</ele><time>2026-04-12T13:00:52Z</time></trkpt><trkpt lat="46.41571800030048" lon="12.91826251566102"><ele>367.5</ele><time>2026-04-12T13:00:53Z</time></trkpt><trkpt lat="46.41581006733749" lon="12.918397973248737"><ele>367.75</ele><time>2026-04-12T13:00:54Z</time></trkpt><trkpt lat="46.41589686012757" lon="12.918525654150978"><ele>368.0</ele><time>2026-04-12T13:00:55Z</time></trkpt><trkpt lat="46.41597030464282" lon="12.918633698421855"><ele>368.0</ele><time>2026-04-12T13:00:56Z</time></trkpt><trkpt lat="46.416028573874065" lon="12.918719418229044"><ele>368.0</ele><time>2026-04-12T13:00:57Z</time></trkpt><trkpt lat="46.416081605989305" lon="12.91879683614922"><ele>368.0</ele><time>2026-04-12T13:00:58Z</time></trkpt><trkpt lat="46.41612983996392" lon="12.918867148805482"><ele>368.0</ele><time>2026-04-12T13:00:59Z</time></trkpt><trkpt lat="46.416203010738656" lon="12.918973813031204"><ele>368.0</ele><time>2026-04-12T13:01:01Z</time></trkpt><trkpt lat="46.416257684048134" lon="12.919063044836232"><ele>368.0</ele><time>2026-04-12T13:01:04Z</time></trkpt><trkpt lat="46.416245850588766" lon="12.919163601506384"><ele>368.0</ele><time>2026-04-12T13:01:06Z</time></trkpt><trkpt lat="46.41628396859325" lon="12.919265340261225"><ele>368.0</ele><time>2026-04-12T13:01:09Z</time></trkpt><trkpt lat="46.41635282425344" lon="12.919238714046735"><ele>368.0</ele><time>2026-04-12T13:07:27Z</time></trkpt><trkpt lat="46.41643596657773" lon="12.919222067246846"><ele>368.0</ele><time>2026-04-12T13:07:50Z</time></trkpt><trkpt lat="46.4164977510013" lon="12.919271607710126"><ele>368.0</ele><time>2026-04-12T13:07:51Z</time></trkpt><trkpt lat="46.41655786620798" lon="12.919375556563795"><ele>368.0</ele><time>2026-04-12T13:07:52Z</time></trkpt><trkpt lat="46.41662049469232" lon="12.919470581675972"><ele>367.79999999999995</ele><time>2026-04-12T13:07:53Z</time></trkpt><trkpt lat="46.41667442249749" lon="12.919548428807966"><ele>367.6</ele><time>2026-04-12T13:07:54Z</time></trkpt><trkpt lat="46.41668133518541" lon="12.91967062006784"><ele>367.4</ele><time>2026-04-12T13:07:55Z</time></trkpt><trkpt lat="46.41675721988294" lon="12.919780598245307"><ele>367.20000000000005</ele><time>2026-04-12T13:07:57Z</time></trkpt><trkpt lat="46.41684385930174" lon="12.919864661474229"><ele>367.0</ele><time>2026-04-12T13:07:59Z</time></trkpt><trkpt lat="46.416899642615704" lon="12.920043515591091"><ele>366.8333333333333</ele><time>2026-04-12T13:08:01Z</time></trkpt><trkpt lat="46.41692926612491" lon="12.920149564054489"><ele>366.66666666666663</ele><time>2026-04-12T13:08:01.999Z</time></trkpt><trkpt lat="46.416906880328206" lon="12.920276553002338"><ele>366.5</ele><time>2026-04-12T13:08:02.999Z</time></trkpt><trkpt lat="46.416912097273716" lon="12.920399715816032"><ele>366.3333333333333</ele><time>2026-04-12T13:08:03.999Z</time></trkpt><trkpt lat="46.41690916727916" lon="12.920519867824282"><ele>366.1666666666667</ele><time>2026-04-12T13:08:04.999Z</time></trkpt><trkpt lat="46.416887405319514" lon="12.92063435793382"><ele>366.0</ele><time>2026-04-12T13:08:05.999Z</time></trkpt><trkpt lat="46.4169214413635" lon="12.920787665236473"><ele>365.8</ele><time>2026-04-12T13:08:06.999Z</time></trkpt><trkpt lat="46.41689307775188" lon="12.920919318945966"><ele>365.6</ele><time>2026-04-12T13:08:07.999Z</time></trkpt><trkpt lat="46.416863856105955" lon="12.921059234572713"><ele>365.4</ele><time>2026-04-12T13:08:08.999Z</time></trkpt><trkpt lat="46.41683294107305" lon="12.921207161888791"><ele>365.2</ele><time>2026-04-12T13:08:09.999Z</time></trkpt><trkpt lat="46.41680081596672" lon="12.921362513150456"><ele>365.0</ele><time>2026-04-12T13:08:10.999Z</time></trkpt><trkpt lat="46.4167702423195" lon="12.921521642194813"><ele>365.0</ele><time>2026-04-12T13:08:11.999Z</time></trkpt><trkpt lat="46.416738777943515" lon="12.921675589649967"><ele>365.0</ele><time>2026-04-12T13:08:12.999Z</time></trkpt><trkpt lat="46.4167106128643" lon="12.921820892784451"><ele>365.0</ele><time>2026-04-12T13:08:13.999Z</time></trkpt><trkpt lat="46.416628687361566" lon="12.921931677233975"><ele>365.0</ele><time>2026-04-12T13:08:14.999Z</time></trkpt><trkpt lat="46.416602381286275" lon="12.922062420493248"><ele>365.0</ele><time>2026-04-12T13:08:15.999Z</time></trkpt><trkpt lat="46.41657556946444" lon="12.92219487307676"><ele>365.2</ele><time>2026-04-12T13:08:16.999Z</time></trkpt><trkpt lat="46.416547995732095" lon="12.922330063440231"><ele>365.4</ele><time>2026-04-12T13:08:17.999Z</time></trkpt><trkpt lat="46.41652073684753" lon="12.922463709315396"><ele>365.6</ele><time>2026-04-12T13:08:18.999Z</time></trkpt><trkpt lat="46.41649326778932" lon="12.922598386481186"><ele>365.8</ele><time>2026-04-12T13:08:19.999Z</time></trkpt><trkpt lat="46.416465611994525" lon="12.922733978769005"><ele>366.0</ele><time>2026-04-12T13:08:21Z</time></trkpt><trkpt lat="46.41643804659143" lon="12.922869127861993"><ele>366.20000000000005</ele><time>2026-04-12T13:08:22Z</time></trkpt><trkpt lat="46.416409650052344" lon="12.923008352123098"><ele>366.40000000000003</ele><time>2026-04-12T13:08:23Z</time></trkpt><trkpt lat="46.41638126120089" lon="12.923150936419214"><ele>366.6</ele><time>2026-04-12T13:08:24Z</time></trkpt><trkpt lat="46.416352124282575" lon="12.923297905788647"><ele>366.8</ele><time>2026-04-12T13:08:25Z</time></trkpt><trkpt lat="46.41632100903614" lon="12.923454853886945"><ele>367.0</ele><time>2026-04-12T13:08:26Z</time></trkpt><trkpt lat="46.4162891753806" lon="12.923615425765956"><ele>366.40000000000003</ele><time>2026-04-12T13:08:27Z</time></trkpt><trkpt lat="46.41625218061962" lon="12.923765886870388"><ele>365.8</ele><time>2026-04-12T13:08:28Z</time></trkpt><trkpt lat="46.416204920786235" lon="12.923906462743265"><ele>365.2</ele><time>2026-04-12T13:08:29Z</time></trkpt><trkpt lat="46.41615051840504" lon="12.924050557696072"><ele>364.6</ele><time>2026-04-12T13:08:30Z</time></trkpt><trkpt lat="46.41609560478453" lon="12.924191255246706"><ele>364.0</ele><time>2026-04-12T13:08:31Z</time></trkpt><trkpt lat="46.41603938519664" lon="12.924330852624731"><ele>363.75</ele><time>2026-04-12T13:08:32Z</time></trkpt><trkpt lat="46.415982989529915" lon="12.924479027901766"><ele>363.5</ele><time>2026-04-12T13:08:33Z</time></trkpt><trkpt lat="46.415940739032" lon="12.92465746454714"><ele>363.25</ele><time>2026-04-12T13:08:34Z</time></trkpt><trkpt lat="46.415915947067695" lon="12.924844541524125"><ele>363.0</ele><time>2026-04-12T13:08:35Z</time></trkpt><trkpt lat="46.415901692810195" lon="12.925026889352667"><ele>362.75</ele><time>2026-04-12T13:08:36Z</time></trkpt><trkpt lat="46.41588723355354" lon="12.925204781630242"><ele>362.5</ele><time>2026-04-12T13:08:37Z</time></trkpt><trkpt lat="46.41585583652167" lon="12.92537491078071"><ele>362.25</ele><time>2026-04-12T13:08:38Z</time></trkpt><trkpt lat="46.41582225454932" lon="12.925548542684991"><ele>362.0</ele><time>2026-04-12T13:08:39Z</time></trkpt><trkpt lat="46.415787804062575" lon="12.92572666558414"><ele>362.0</ele><time>2026-04-12T13:08:40Z</time></trkpt><trkpt lat="46.415753907468186" lon="12.925913898570993"><ele>362.0</ele><time>2026-04-12T13:08:41Z</time></trkpt><trkpt lat="46.41573348797805" lon="12.926104502765469"><ele>362.0</ele><time>2026-04-12T13:08:42Z</time></trkpt><trkpt lat="46.4157828398702" lon="12.926300161770618"><ele>362.0</ele><time>2026-04-12T13:08:43Z</time></trkpt><trkpt lat="46.415773151280476" lon="12.926486427628374"><ele>362.0</ele><time>2026-04-12T13:08:44Z</time></trkpt><trkpt lat="46.415758790868765" lon="12.926666926622435"><ele>362.0</ele><time>2026-04-12T13:08:45Z</time></trkpt><trkpt lat="46.415742773028065" lon="12.926852503177551"><ele>362.0</ele><time>2026-04-12T13:08:46Z</time></trkpt><trkpt lat="46.41572775440555" lon="12.927043153736525"><ele>362.0</ele><time>2026-04-12T13:08:47Z</time></trkpt><trkpt lat="46.415714836821756" lon="12.927242451456596"><ele>362.0</ele><time>2026-04-12T13:08:48Z</time></trkpt><trkpt lat="46.41570052907282" lon="12.92745013531394"><ele>362.0</ele><time>2026-04-12T13:08:49Z</time></trkpt><trkpt lat="46.41568717072096" lon="12.927668315001142"><ele>362.0</ele><time>2026-04-12T13:08:50Z</time></trkpt><trkpt lat="46.41567067984351" lon="12.927892665639336"><ele>364.6666666666667</ele><time>2026-04-12T13:08:51Z</time></trkpt><trkpt lat="46.4156552237445" lon="12.928122435525227"><ele>367.3333333333333</ele><time>2026-04-12T13:08:52Z</time></trkpt><trkpt lat="46.41558536574057" lon="12.928348560192072"><ele>370.0</ele><time>2026-04-12T13:08:53Z</time></trkpt><trkpt lat="46.415556314498154" lon="12.928585406086313"><ele>368.3333333333333</ele><time>2026-04-12T13:08:54Z</time></trkpt><trkpt lat="46.41552040884462" lon="12.928828727419425"><ele>366.6666666666667</ele><time>2026-04-12T13:08:55Z</time></trkpt><trkpt lat="46.41548112395804" lon="12.929069959271906"><ele>365.0</ele><time>2026-04-12T13:08:56Z</time></trkpt><trkpt lat="46.41543968412973" lon="12.92930502658923"><ele>365.0</ele><time>2026-04-12T13:08:57Z</time></trkpt><trkpt lat="46.41539324928251" lon="12.92954456459558"><ele>365.0</ele><time>2026-04-12T13:08:58Z</time></trkpt><trkpt lat="46.41534334806562" lon="12.92977548722465"><ele>365.0</ele><time>2026-04-12T13:08:59Z</time></trkpt><trkpt lat="46.41528973133477" lon="12.929995047568376"><ele>365.6666666666667</ele><time>2026-04-12T13:09:00Z</time></trkpt><trkpt lat="46.415227546762814" lon="12.9301971443051"><ele>366.3333333333333</ele><time>2026-04-12T13:09:01Z</time></trkpt><trkpt lat="46.41514716689958" lon="12.930379332841188"><ele>367.0</ele><time>2026-04-12T13:09:02Z</time></trkpt><trkpt lat="46.41505732624912" lon="12.930567291601706"><ele>367.0</ele><time>2026-04-12T13:09:03Z</time></trkpt><trkpt lat="46.41495966788213" lon="12.930759540649785"><ele>367.0</ele><time>2026-04-12T13:09:04Z</time></trkpt><trkpt lat="46.41486439154826" lon="12.930946733515967"><ele>367.0</ele><time>2026-04-12T13:09:05Z</time></trkpt><trkpt lat="46.41476973825834" lon="12.931131781159312"><ele>369.66666666666663</ele><time>2026-04-12T13:09:06Z</time></trkpt><trkpt lat="46.41467557594486" lon="12.93131662793034"><ele>372.3333333333333</ele><time>2026-04-12T13:09:07Z</time></trkpt><trkpt lat="46.41458134631248" lon="12.931501909083213"><ele>375.0</ele><time>2026-04-12T13:09:08Z</time></trkpt><trkpt lat="46.41448796204243" lon="12.931687943961139"><ele>369.6666666666667</ele><time>2026-04-12T13:09:09Z</time></trkpt><trkpt lat="46.41439026711334" lon="12.931868506861601"><ele>364.33333333333337</ele><time>2026-04-12T13:09:10Z</time></trkpt><trkpt lat="46.41428802670014" lon="12.932045048982408"><ele>359.0</ele><time>2026-04-12T13:09:11Z</time></trkpt><trkpt lat="46.41418103860402" lon="12.932218700570546"><ele>359.0</ele><time>2026-04-12T13:09:12Z</time></trkpt><trkpt lat="46.41407063410443" lon="12.932391015473113"><ele>359.0</ele><time>2026-04-12T13:09:13Z</time></trkpt><trkpt lat="46.41395938158317" lon="12.932560815345257"><ele>359.0</ele><time>2026-04-12T13:09:14Z</time></trkpt><trkpt lat="46.4138490300757" lon="12.932729240119224"><ele>358.33333333333337</ele><time>2026-04-12T13:09:15Z</time></trkpt><trkpt lat="46.41373925370138" lon="12.932897779854212"><ele>357.6666666666667</ele><time>2026-04-12T13:09:16Z</time></trkpt><trkpt lat="46.413634397047225" lon="12.93306912087046"><ele>357.0</ele><time>2026-04-12T13:09:17Z</time></trkpt><trkpt lat="46.41353658127244" lon="12.93324953283605"><ele>357.3333333333333</ele><time>2026-04-12T13:09:18Z</time></trkpt><trkpt lat="46.41345396368273" lon="12.933452939830644"><ele>357.66666666666663</ele><time>2026-04-12T13:09:19Z</time></trkpt><trkpt lat="46.41338534305265" lon="12.93365553892182"><ele>358.0</ele><time>2026-04-12T13:09:20Z</time></trkpt><trkpt lat="46.41331930190277" lon="12.933863414748968"><ele>358.0</ele><time>2026-04-12T13:09:21Z</time></trkpt><trkpt lat="46.413256689995706" lon="12.934071769197292"><ele>358.0</ele><time>2026-04-12T13:09:22Z</time></trkpt><trkpt lat="46.413193668010784" lon="12.93428224975647"><ele>358.0</ele><time>2026-04-12T13:09:23Z</time></trkpt><trkpt lat="46.413130007821174" lon="12.934499519213528"><ele>357.3333333333333</ele><time>2026-04-12T13:09:24Z</time></trkpt><trkpt lat="46.41306738370147" lon="12.934713532732431"><ele>356.6666666666667</ele><time>2026-04-12T13:09:25Z</time></trkpt><trkpt lat="46.41300668018089" lon="12.934923942312752"><ele>356.0</ele><time>2026-04-12T13:09:26Z</time></trkpt><trkpt lat="46.41294607500519" lon="12.935131111079963"><ele>356.0</ele><time>2026-04-12T13:09:27Z</time></trkpt><trkpt lat="46.41288684418317" lon="12.935333777272344"><ele>356.0</ele><time>2026-04-12T13:09:28Z</time></trkpt><trkpt lat="46.41282862916793" lon="12.935532255861288"><ele>356.0</ele><time>2026-04-12T13:09:29Z</time></trkpt><trkpt lat="46.41277122965958" lon="12.935727594037774"><ele>356.0</ele><time>2026-04-12T13:09:30Z</time></trkpt><trkpt lat="46.41271462489661" lon="12.935920227580166"><ele>356.0</ele><time>2026-04-12T13:09:31Z</time></trkpt><trkpt lat="46.41265868712981" lon="12.936110591263803"><ele>356.0</ele><time>2026-04-12T13:09:32Z</time></trkpt><trkpt lat="46.412603095432566" lon="12.936299924959902"><ele>356.0</ele><time>2026-04-12T13:09:33Z</time></trkpt><trkpt lat="46.412553752196736" lon="12.93647106398175"><ele>356.0</ele><time>2026-04-12T13:09:34Z</time></trkpt><trkpt lat="46.41250817899239" lon="12.936624267633842"><ele>356.6</ele><time>2026-04-12T13:09:35Z</time></trkpt><trkpt lat="46.41245978679188" lon="12.936756318219597"><ele>357.20000000000005</ele><time>2026-04-12T13:09:36Z</time></trkpt><trkpt lat="46.41240897877035" lon="12.936881231054747"><ele>357.79999999999995</ele><time>2026-04-12T13:09:37Z</time></trkpt><trkpt lat="46.412357311937235" lon="12.93699631793291"><ele>358.4</ele><time>2026-04-12T13:09:38Z</time></trkpt><trkpt lat="46.41231542757585" lon="12.93712154968906"><ele>359.0</ele><time>2026-04-12T13:09:39Z</time></trkpt><trkpt lat="46.41223912212061" lon="12.937210912421397"><ele>357.6</ele><time>2026-04-12T13:09:40Z</time></trkpt><trkpt lat="46.412151958881566" lon="12.937274095977418"><ele>356.2</ele><time>2026-04-12T13:09:41Z</time></trkpt><trkpt lat="46.41206844890934" lon="12.93733715959083"><ele>354.8</ele><time>2026-04-12T13:09:42Z</time></trkpt><trkpt lat="46.41200760226313" lon="12.937445228998818"><ele>353.40000000000003</ele><time>2026-04-12T13:09:43Z</time></trkpt><trkpt lat="46.411983575516416" lon="12.937585596731957"><ele>352.0</ele><time>2026-04-12T13:09:44Z</time></trkpt><trkpt lat="46.41199103693425" lon="12.93773150908376"><ele>352.0</ele><time>2026-04-12T13:09:45Z</time></trkpt><trkpt lat="46.4120093709709" lon="12.93787564914244"><ele>352.0</ele><time>2026-04-12T13:09:46Z</time></trkpt><trkpt lat="46.41202562292535" lon="12.93802753278549"><ele>352.0</ele><time>2026-04-12T13:09:47Z</time></trkpt><trkpt lat="46.41204131117893" lon="12.938195570967476"><ele>352.0</ele><time>2026-04-12T13:09:48Z</time></trkpt><trkpt lat="46.41203951037668" lon="12.938378028389417"><ele>351.25</ele><time>2026-04-12T13:09:49Z</time></trkpt><trkpt lat="46.412051543772805" lon="12.938563319006095"><ele>350.5</ele><time>2026-04-12T13:09:50Z</time></trkpt><trkpt lat="46.412064009656724" lon="12.938752673955028"><ele>349.75</ele><time>2026-04-12T13:09:51Z</time></trkpt><trkpt lat="46.41207699251381" lon="12.938949881651688"><ele>349.0</ele><time>2026-04-12T13:09:52Z</time></trkpt><trkpt lat="46.41209020414852" lon="12.939150564463942"><ele>348.5</ele><time>2026-04-12T13:09:53Z</time></trkpt><trkpt lat="46.41210383452092" lon="12.939357607819645"><ele>348.0</ele><time>2026-04-12T13:09:54Z</time></trkpt><trkpt lat="46.4121180037691" lon="12.939569294750774"><ele>347.5</ele><time>2026-04-12T13:09:55Z</time></trkpt><trkpt lat="46.41213310940954" lon="12.939789470906012"><ele>347.0</ele><time>2026-04-12T13:09:56Z</time></trkpt><trkpt lat="46.41214831036398" lon="12.94001350521278"><ele>350.33333333333337</ele><time>2026-04-12T13:09:57Z</time></trkpt><trkpt lat="46.41216394898525" lon="12.940244426392022"><ele>353.6666666666667</ele><time>2026-04-12T13:09:58Z</time></trkpt><trkpt lat="46.41217992369719" lon="12.940480310347404"><ele>357.0</ele><time>2026-04-12T13:09:59Z</time></trkpt><trkpt lat="46.412196140545674" lon="12.940719769659198"><ele>357.3333333333333</ele><time>2026-04-12T13:10:00Z</time></trkpt><trkpt lat="46.412212677651645" lon="12.94096218468607"><ele>357.66666666666663</ele><time>2026-04-12T13:10:01Z</time></trkpt><trkpt lat="46.412229938128796" lon="12.941213630415875"><ele>358.0</ele><time>2026-04-12T13:10:01.999Z</time></trkpt><trkpt lat="46.412247676869406" lon="12.941472043343731"><ele>358.3333333333333</ele><time>2026-04-12T13:10:02.999Z</time></trkpt><trkpt lat="46.4122659801942" lon="12.941738680975755"><ele>358.6666666666667</ele><time>2026-04-12T13:10:03.999Z</time></trkpt><trkpt lat="46.41228460842141" lon="12.942010767122987"><ele>359.0</ele><time>2026-04-12T13:10:04.999Z</time></trkpt><trkpt lat="46.412301639001335" lon="12.942278933231238"><ele>359.0</ele><time>2026-04-12T13:10:05.999Z</time></trkpt><trkpt lat="46.412311472043456" lon="12.942547483695163"><ele>359.0</ele><time>2026-04-12T13:10:06.999Z</time></trkpt><trkpt lat="46.41229772786763" lon="12.942800863424088"><ele>359.0</ele><time>2026-04-12T13:10:07.999Z</time></trkpt><trkpt lat="46.41226671918064" lon="12.94305596726678"><ele>361.33333333333337</ele><time>2026-04-12T13:10:08.999Z</time></trkpt><trkpt lat="46.41222164817161" lon="12.943305564857553"><ele>363.6666666666667</ele><time>2026-04-12T13:10:09.999Z</time></trkpt><trkpt lat="46.412171531376345" lon="12.943557599322784"><ele>366.0</ele><time>2026-04-12T13:10:10.999Z</time></trkpt><trkpt lat="46.41212114413508" lon="12.943801181751743"><ele>360.0</ele><time>2026-04-12T13:10:11.999Z</time></trkpt><trkpt lat="46.41207065181879" lon="12.944031559837418"><ele>354.0</ele><time>2026-04-12T13:10:12.999Z</time></trkpt><trkpt lat="46.412010800538845" lon="12.944252778520315"><ele>348.0</ele><time>2026-04-12T13:10:13.999Z</time></trkpt><trkpt lat="46.41194371789529" lon="12.944474821309237"><ele>348.0</ele><time>2026-04-12T13:10:14.999Z</time></trkpt><trkpt lat="46.411876768210966" lon="12.944691129462752"><ele>348.0</ele><time>2026-04-12T13:10:15.999Z</time></trkpt><trkpt lat="46.411809789410356" lon="12.944901607879713"><ele>348.0</ele><time>2026-04-12T13:10:16.999Z</time></trkpt><trkpt lat="46.41173519317618" lon="12.945102152380645"><ele>350.6666666666667</ele><time>2026-04-12T13:10:17.999Z</time></trkpt><trkpt lat="46.41163783266724" lon="12.945278550344332"><ele>353.33333333333337</ele><time>2026-04-12T13:10:18.999Z</time></trkpt><trkpt lat="46.41152954190896" lon="12.945460482740184"><ele>356.0</ele><time>2026-04-12T13:10:19.999Z</time></trkpt><trkpt lat="46.411441504600525" lon="12.945661141660176"><ele>356.0</ele><time>2026-04-12T13:10:20.999Z</time></trkpt><trkpt lat="46.41137463655824" lon="12.945873906410032"><ele>356.0</ele><time>2026-04-12T13:10:21.999Z</time></trkpt><trkpt lat="46.411323119358016" lon="12.94608962076141"><ele>356.0</ele><time>2026-04-12T13:10:22.999Z</time></trkpt><trkpt lat="46.41128028784323" lon="12.946310474018173"><ele>353.6666666666667</ele><time>2026-04-12T13:10:23.999Z</time></trkpt><trkpt lat="46.411239422144" lon="12.946535981472689"><ele>351.3333333333333</ele><time>2026-04-12T13:10:24.999Z</time></trkpt><trkpt lat="46.411198696845325" lon="12.946761577400451"><ele>349.0</ele><time>2026-04-12T13:10:25.999Z</time></trkpt><trkpt lat="46.41115551715863" lon="12.946986837745923"><ele>349.0</ele><time>2026-04-12T13:10:27Z</time></trkpt><trkpt lat="46.411092937405776" lon="12.947199333747983"><ele>349.0</ele><time>2026-04-12T13:10:28Z</time></trkpt><trkpt lat="46.41100857218441" lon="12.947404025886222"><ele>349.0</ele><time>2026-04-12T13:10:29Z</time></trkpt><trkpt lat="46.41091529396894" lon="12.947607895312972"><ele>352.3333333333333</ele><time>2026-04-12T13:10:30Z</time></trkpt><trkpt lat="46.41081925384111" lon="12.947811608574268"><ele>355.6666666666667</ele><time>2026-04-12T13:10:31Z</time></trkpt><trkpt lat="46.41071800646448" lon="12.948005433031476"><ele>359.0</ele><time>2026-04-12T13:10:32Z</time></trkpt><trkpt lat="46.41061803006159" lon="12.94819866565769"><ele>362.33333333333337</ele><time>2026-04-12T13:10:33Z</time></trkpt><trkpt lat="46.410526237197594" lon="12.94841245742117"><ele>365.6666666666667</ele><time>2026-04-12T13:10:34Z</time></trkpt><trkpt lat="46.41045878669389" lon="12.94864081659091"><ele>369.0</ele><time>2026-04-12T13:10:35Z</time></trkpt><trkpt lat="46.41040725320733" lon="12.948876614614367"><ele>359.6666666666667</ele><time>2026-04-12T13:10:36Z</time></trkpt><trkpt lat="46.4103789179656" lon="12.94912376473188"><ele>350.33333333333337</ele><time>2026-04-12T13:10:37Z</time></trkpt><trkpt lat="46.41036647018413" lon="12.949375602451811"><ele>341.0</ele><time>2026-04-12T13:10:38Z</time></trkpt><trkpt lat="46.41036303560223" lon="12.949628675899872"><ele>340.6666666666667</ele><time>2026-04-12T13:10:39Z</time></trkpt><trkpt lat="46.41036217955483" lon="12.949881330836009"><ele>340.3333333333333</ele><time>2026-04-12T13:10:40Z</time></trkpt><trkpt lat="46.410360212275656" lon="12.950134625468829"><ele>340.0</ele><time>2026-04-12T13:10:41Z</time></trkpt><trkpt lat="46.410358269266965" lon="12.950384795166054"><ele>340.0</ele><time>2026-04-12T13:10:42Z</time></trkpt><trkpt lat="46.410356349768506" lon="12.950631937881262"><ele>340.0</ele><time>2026-04-12T13:10:43Z</time></trkpt><trkpt lat="46.41035595811427" lon="12.950875012011277"><ele>340.0</ele><time>2026-04-12T13:10:44Z</time></trkpt><trkpt lat="46.410359561715254" lon="12.951118259771064"><ele>340.0</ele><time>2026-04-12T13:10:45Z</time></trkpt><trkpt lat="46.410377578678265" lon="12.951362024505451"><ele>340.0</ele><time>2026-04-12T13:10:46Z</time></trkpt><trkpt lat="46.41041565663228" lon="12.951602122866001"><ele>340.0</ele><time>2026-04-12T13:10:47Z</time></trkpt><trkpt lat="46.41046833105927" lon="12.951837149707506"><ele>342.3333333333333</ele><time>2026-04-12T13:10:48Z</time></trkpt><trkpt lat="46.410523227670474" lon="12.952078357131612"><ele>344.6666666666667</ele><time>2026-04-12T13:10:49Z</time></trkpt><trkpt lat="46.410578836650224" lon="12.952322894165349"><ele>347.0</ele><time>2026-04-12T13:10:50Z</time></trkpt><trkpt lat="46.410637666533894" lon="12.952572671807797"><ele>347.0</ele><time>2026-04-12T13:10:51Z</time></trkpt><trkpt lat="46.41069523444159" lon="12.952823071930398"><ele>347.0</ele><time>2026-04-12T13:10:52Z</time></trkpt><trkpt lat="46.41075002235656" lon="12.953079632361362"><ele>347.0</ele><time>2026-04-12T13:10:53Z</time></trkpt><trkpt lat="46.41079480210473" lon="12.953332610706282"><ele>346.6666666666667</ele><time>2026-04-12T13:10:54Z</time></trkpt><trkpt lat="46.41082238136324" lon="12.953584241565684"><ele>346.3333333333333</ele><time>2026-04-12T13:10:55Z</time></trkpt><trkpt lat="46.4108338657496" lon="12.953836350125153"><ele>346.0</ele><time>2026-04-12T13:10:56Z</time></trkpt><trkpt lat="46.410838158847596" lon="12.954083948766067"><ele>346.0</ele><time>2026-04-12T13:10:57Z</time></trkpt><trkpt lat="46.41083957087194" lon="12.954329678171227"><ele>346.0</ele><time>2026-04-12T13:10:58Z</time></trkpt><trkpt lat="46.410841475110026" lon="12.954581035877645"><ele>346.0</ele><time>2026-04-12T13:10:59Z</time></trkpt><trkpt lat="46.41084185300839" lon="12.954836873115696"><ele>346.0</ele><time>2026-04-12T13:11:00Z</time></trkpt><trkpt lat="46.410842239533174" lon="12.95509855037536"><ele>346.0</ele><time>2026-04-12T13:11:01Z</time></trkpt><trkpt lat="46.410842632118694" lon="12.9553643307597"><ele>346.0</ele><time>2026-04-12T13:11:02Z</time></trkpt><trkpt lat="46.410843027641484" lon="12.955632100038054"><ele>343.66666666666663</ele><time>2026-04-12T13:11:03Z</time></trkpt><trkpt lat="46.41084410708494" lon="12.955902909410163"><ele>341.3333333333333</ele><time>2026-04-12T13:11:04Z</time></trkpt><trkpt lat="46.410848430779936" lon="12.956173257224387"><ele>339.0</ele><time>2026-04-12T13:11:05Z</time></trkpt><trkpt lat="46.41085309956411" lon="12.95644104700453"><ele>338.6666666666667</ele><time>2026-04-12T13:11:06Z</time></trkpt><trkpt lat="46.410859628521685" lon="12.956705369243608"><ele>338.33333333333337</ele><time>2026-04-12T13:11:07Z</time></trkpt><trkpt lat="46.41086960440401" lon="12.956968295541056"><ele>338.0</ele><time>2026-04-12T13:11:08Z</time></trkpt><trkpt lat="46.41087972286218" lon="12.957229126392596"><ele>338.0</ele><time>2026-04-12T13:11:09Z</time></trkpt><trkpt lat="46.41088929164216" lon="12.95749042325143"><ele>338.0</ele><time>2026-04-12T13:11:10Z</time></trkpt><trkpt lat="46.410898825061025" lon="12.957751098982415"><ele>338.0</ele><time>2026-04-12T13:11:11Z</time></trkpt><trkpt lat="46.410908338999484" lon="12.958011489459365"><ele>337.6666666666667</ele><time>2026-04-12T13:11:12Z</time></trkpt><trkpt lat="46.410918326916644" lon="12.958276439663214"><ele>337.3333333333333</ele><time>2026-04-12T13:11:13Z</time></trkpt><trkpt lat="46.410929239499595" lon="12.958542816555772"><ele>337.0</ele><time>2026-04-12T13:11:14Z</time></trkpt><trkpt lat="46.4109345631008" lon="12.958805375535082"><ele>336.66666666666663</ele><time>2026-04-12T13:11:15Z</time></trkpt><trkpt lat="46.41092761621907" lon="12.959069057239706"><ele>336.3333333333333</ele><time>2026-04-12T13:11:16Z</time></trkpt><trkpt lat="46.41091690775769" lon="12.959331907722627"><ele>336.0</ele><time>2026-04-12T13:11:17Z</time></trkpt><trkpt lat="46.410870217838095" lon="12.959586585800812"><ele>335.6666666666667</ele><time>2026-04-12T13:11:18Z</time></trkpt><trkpt lat="46.410809464112376" lon="12.959830698000044"><ele>335.33333333333337</ele><time>2026-04-12T13:11:19Z</time></trkpt><trkpt lat="46.410739081820736" lon="12.960070114654881"><ele>335.0</ele><time>2026-04-12T13:11:20Z</time></trkpt><trkpt lat="46.410669218352425" lon="12.960312770871411"><ele>336.0</ele><time>2026-04-12T13:11:21Z</time></trkpt><trkpt lat="46.410598959397426" lon="12.960560789351552"><ele>337.0</ele><time>2026-04-12T13:11:22Z</time></trkpt><trkpt lat="46.41052926279749" lon="12.960816860069189"><ele>338.0</ele><time>2026-04-12T13:11:23Z</time></trkpt><trkpt lat="46.41044824323185" lon="12.961071180820069"><ele>338.0</ele><time>2026-04-12T13:11:24Z</time></trkpt><trkpt lat="46.410389970075315" lon="12.961341303697901"><ele>338.0</ele><time>2026-04-12T13:11:25Z</time></trkpt><trkpt lat="46.41035138145451" lon="12.961623057162"><ele>338.0</ele><time>2026-04-12T13:11:26Z</time></trkpt><trkpt lat="46.41033025325411" lon="12.961915103711943"><ele>338.0</ele><time>2026-04-12T13:11:27Z</time></trkpt><trkpt lat="46.41032685995296" lon="12.96221590939517"><ele>338.0</ele><time>2026-04-12T13:11:28Z</time></trkpt><trkpt lat="46.41035368092135" lon="12.9625151860867"><ele>338.0</ele><time>2026-04-12T13:11:29Z</time></trkpt><trkpt lat="46.41037037960665" lon="12.962816715527323"><ele>337.6666666666667</ele><time>2026-04-12T13:11:30Z</time></trkpt><trkpt lat="46.410369172070666" lon="12.963125342328608"><ele>337.3333333333333</ele><time>2026-04-12T13:11:31Z</time></trkpt><trkpt lat="46.41038135298238" lon="12.96343560527496"><ele>337.0</ele><time>2026-04-12T13:11:32Z</time></trkpt><trkpt lat="46.41038616913676" lon="12.963747323107194"><ele>337.0</ele><time>2026-04-12T13:11:33Z</time></trkpt><trkpt lat="46.41038084225906" lon="12.964058745915711"><ele>337.0</ele><time>2026-04-12T13:11:34Z</time></trkpt><trkpt lat="46.41036951091456" lon="12.964374148249874"><ele>337.0</ele><time>2026-04-12T13:11:35Z</time></trkpt><trkpt lat="46.41035276175078" lon="12.964689405063828"><ele>337.0</ele><time>2026-04-12T13:11:36Z</time></trkpt><trkpt lat="46.41032600517859" lon="12.965000337604456"><ele>337.0</ele><time>2026-04-12T13:11:37Z</time></trkpt><trkpt lat="46.4102959321906" lon="12.965306291040632"><ele>337.0</ele><time>2026-04-12T13:11:38Z</time></trkpt><trkpt lat="46.41026409345145" lon="12.965608575381033"><ele>335.66666666666663</ele><time>2026-04-12T13:11:39Z</time></trkpt><trkpt lat="46.410231582665254" lon="12.965908106945287"><ele>334.3333333333333</ele><time>2026-04-12T13:11:40Z</time></trkpt><trkpt lat="46.410192541780084" lon="12.96619661840737"><ele>333.0</ele><time>2026-04-12T13:11:41Z</time></trkpt><trkpt lat="46.41013990570526" lon="12.966474620660973"><ele>334.0</ele><time>2026-04-12T13:11:42Z</time></trkpt><trkpt lat="46.41009632993148" lon="12.966753993687465"><ele>335.0</ele><time>2026-04-12T13:11:43Z</time></trkpt><trkpt lat="46.410027966450585" lon="12.967022605953353"><ele>336.0</ele><time>2026-04-12T13:11:44Z</time></trkpt><trkpt lat="46.40994205626029" lon="12.967280308834932"><ele>338.6666666666667</ele><time>2026-04-12T13:11:45Z</time></trkpt><trkpt lat="46.40986241917645" lon="12.967545100300036"><ele>341.33333333333337</ele><time>2026-04-12T13:11:46Z</time></trkpt><trkpt lat="46.409779226283405" lon="12.967812758702285"><ele>344.0</ele><time>2026-04-12T13:11:47Z</time></trkpt><trkpt lat="46.409697823821226" lon="12.968077182370056"><ele>340.0</ele><time>2026-04-12T13:11:48Z</time></trkpt><trkpt lat="46.40961712395662" lon="12.968339323958194"><ele>336.0</ele><time>2026-04-12T13:11:49Z</time></trkpt><trkpt lat="46.40953686617153" lon="12.968600549821787"><ele>332.0</ele><time>2026-04-12T13:11:50Z</time></trkpt><trkpt lat="46.409455660515654" lon="12.968866383727885"><ele>332.0</ele><time>2026-04-12T13:11:51Z</time></trkpt><trkpt lat="46.40937336123845" lon="12.969135797585428"><ele>332.0</ele><time>2026-04-12T13:11:52Z</time></trkpt><trkpt lat="46.409289331792415" lon="12.96941087545"><ele>332.0</ele><time>2026-04-12T13:11:53Z</time></trkpt><trkpt lat="46.4092045617564" lon="12.969688377686207"><ele>333.0</ele><time>2026-04-12T13:11:54Z</time></trkpt><trkpt lat="46.40911845182528" lon="12.969970266149224"><ele>334.0</ele><time>2026-04-12T13:11:55Z</time></trkpt><trkpt lat="46.409031661066024" lon="12.970254383354582"><ele>335.0</ele><time>2026-04-12T13:11:56Z</time></trkpt><trkpt lat="46.40894413738611" lon="12.970540899786032"><ele>333.6666666666667</ele><time>2026-04-12T13:11:57Z</time></trkpt><trkpt lat="46.40885480931153" lon="12.97083332318335"><ele>332.3333333333333</ele><time>2026-04-12T13:11:58Z</time></trkpt><trkpt lat="46.40876260335361" lon="12.971135167576707"><ele>331.0</ele><time>2026-04-12T13:11:59Z</time></trkpt><trkpt lat="46.408670426766314" lon="12.971445218101508"><ele>331.5</ele><time>2026-04-12T13:12:00Z</time></trkpt><trkpt lat="46.408576976996756" lon="12.971761603277406"><ele>332.0</ele><time>2026-04-12T13:12:01Z</time></trkpt><trkpt lat="46.40849620368111" lon="12.972091258646778"><ele>332.0</ele><time>2026-04-12T13:12:02Z</time></trkpt><trkpt lat="46.408399565765805" lon="12.972415655311064"><ele>332.0</ele><time>2026-04-12T13:12:03Z</time></trkpt><trkpt lat="46.408287625614804" lon="12.97273745681412"><ele>334.0</ele><time>2026-04-12T13:12:04Z</time></trkpt><trkpt lat="46.4082087302247" lon="12.973087995866226"><ele>336.0</ele><time>2026-04-12T13:12:05Z</time></trkpt><trkpt lat="46.40811678828596" lon="12.973435401154973"><ele>339.5</ele><time>2026-04-12T13:12:06Z</time></trkpt><trkpt lat="46.408027555591175" lon="12.97378517123923"><ele>343.0</ele><time>2026-04-12T13:12:06.999Z</time></trkpt><trkpt lat="46.40792583421914" lon="12.974132104887323"><ele>335.0</ele><time>2026-04-12T13:12:07.999Z</time></trkpt><trkpt lat="46.4078451338773" lon="12.97448939298878"><ele>327.0</ele><time>2026-04-12T13:12:08.999Z</time></trkpt><trkpt lat="46.407764385197" lon="12.97484689499381"><ele>327.0</ele><time>2026-04-12T13:12:09.999Z</time></trkpt><trkpt lat="46.40768436573683" lon="12.975201139991924"><ele>327.0</ele><time>2026-04-12T13:12:10.999Z</time></trkpt><trkpt lat="46.407604730685" lon="12.97555368322354"><ele>328.5</ele><time>2026-04-12T13:12:11.999Z</time></trkpt><trkpt lat="46.4075727146775" lon="12.97592575550065"><ele>330.0</ele><time>2026-04-12T13:12:12.999Z</time></trkpt><trkpt lat="46.40750926972465" lon="12.97627862345772"><ele>330.0</ele><time>2026-04-12T13:12:13.999Z</time></trkpt><trkpt lat="46.40745044464353" lon="12.976631877706343"><ele>330.0</ele><time>2026-04-12T13:12:14.999Z</time></trkpt><trkpt lat="46.407392441987454" lon="12.976982918618841"><ele>330.5</ele><time>2026-04-12T13:12:15.999Z</time></trkpt><trkpt lat="46.407342363099666" lon="12.977334554695634"><ele>331.0</ele><time>2026-04-12T13:12:16.999Z</time></trkpt><trkpt lat="46.40729518252004" lon="12.977685633120286"><ele>331.5</ele><time>2026-04-12T13:12:17.999Z</time></trkpt><trkpt lat="46.407253172222404" lon="12.978034277361559"><ele>332.0</ele><time>2026-04-12T13:12:18.999Z</time></trkpt><trkpt lat="46.40721462290878" lon="12.97838005942033"><ele>333.5</ele><time>2026-04-12T13:12:19.999Z</time></trkpt><trkpt lat="46.40717996696664" lon="12.978724903819687"><ele>335.0</ele><time>2026-04-12T13:12:20.999Z</time></trkpt><trkpt lat="46.407145939381124" lon="12.979070175891062"><ele>331.5</ele><time>2026-04-12T13:12:21.999Z</time></trkpt><trkpt lat="46.40711360873788" lon="12.97941486167147"><ele>328.0</ele><time>2026-04-12T13:12:22.999Z</time></trkpt><trkpt lat="46.40707855195991" lon="12.979763100507624"><ele>327.0</ele><time>2026-04-12T13:12:23.999Z</time></trkpt><trkpt lat="46.4070459174839" lon="12.980113441127653"><ele>326.0</ele><time>2026-04-12T13:12:24.999Z</time></trkpt><trkpt lat="46.40701325353596" lon="12.980469077677371"><ele>326.0</ele><time>2026-04-12T13:12:25.999Z</time></trkpt><trkpt lat="46.406979763082106" lon="12.980827923337277"><ele>326.0</ele><time>2026-04-12T13:12:26.999Z</time></trkpt><trkpt lat="46.40694456619628" lon="12.981189129472641"><ele>326.5</ele><time>2026-04-12T13:12:27.999Z</time></trkpt><trkpt lat="46.4069084225453" lon="12.981553681918255"><ele>327.0</ele><time>2026-04-12T13:12:28.999Z</time></trkpt><trkpt lat="46.406873340567095" lon="12.98191996520987"><ele>327.0</ele><time>2026-04-12T13:12:29.999Z</time></trkpt><trkpt lat="46.406841765417504" lon="12.982287666272134"><ele>327.0</ele><time>2026-04-12T13:12:30.999Z</time></trkpt><trkpt lat="46.406804356459496" lon="12.982655481243997"><ele>327.5</ele><time>2026-04-12T13:12:31.999Z</time></trkpt><trkpt lat="46.40677292099466" lon="12.983015725863966"><ele>328.0</ele><time>2026-04-12T13:12:33Z</time></trkpt><trkpt lat="46.406740252440606" lon="12.98337035675499"><ele>328.0</ele><time>2026-04-12T13:12:34Z</time></trkpt><trkpt lat="46.40670640507829" lon="12.983720714512055"><ele>328.0</ele><time>2026-04-12T13:12:35Z</time></trkpt><trkpt lat="46.406676598792664" lon="12.984067214736765"><ele>329.0</ele><time>2026-04-12T13:12:36Z</time></trkpt><trkpt lat="46.40664423071016" lon="12.984410335289557"><ele>330.0</ele><time>2026-04-12T13:12:37Z</time></trkpt><trkpt lat="46.406610490572646" lon="12.984749490141548"><ele>332.0</ele><time>2026-04-12T13:12:38Z</time></trkpt><trkpt lat="46.40657692456067" lon="12.985086336417586"><ele>334.0</ele><time>2026-04-12T13:12:39Z</time></trkpt><trkpt lat="46.406537931550076" lon="12.98541882686827"><ele>334.0</ele><time>2026-04-12T13:12:40Z</time></trkpt><trkpt lat="46.40649925095368" lon="12.9857460425726"><ele>334.0</ele><time>2026-04-12T13:12:41Z</time></trkpt><trkpt lat="46.406455740437195" lon="12.986067572355624"><ele>334.0</ele><time>2026-04-12T13:12:42Z</time></trkpt><trkpt lat="46.40640764995303" lon="12.986382913599229"><ele>334.0</ele><time>2026-04-12T13:12:43Z</time></trkpt><trkpt lat="46.40635791238086" lon="12.986696901826287"><ele>334.0</ele><time>2026-04-12T13:12:44Z</time></trkpt><trkpt lat="46.4063081373327" lon="12.987008892476021"><ele>330.3333333333333</ele><time>2026-04-12T13:12:45Z</time></trkpt><trkpt lat="46.406255713848914" lon="12.98731925521674"><ele>326.6666666666667</ele><time>2026-04-12T13:12:46Z</time></trkpt><trkpt lat="46.40620243148519" lon="12.987625172083005"><ele>323.0</ele><time>2026-04-12T13:12:47Z</time></trkpt><trkpt lat="46.406146240828" lon="12.987928039871022"><ele>323.0</ele><time>2026-04-12T13:12:48Z</time></trkpt><trkpt lat="46.406085473741136" lon="12.98822448866321"><ele>323.0</ele><time>2026-04-12T13:12:49Z</time></trkpt><trkpt lat="46.40602595115163" lon="12.988519456292522"><ele>323.0</ele><time>2026-04-12T13:12:50Z</time></trkpt><trkpt lat="46.40595865603043" lon="12.988814015489483"><ele>322.33333333333337</ele><time>2026-04-12T13:12:51Z</time></trkpt><trkpt lat="46.40588892890647" lon="12.989110098228284"><ele>321.6666666666667</ele><time>2026-04-12T13:12:52Z</time></trkpt><trkpt lat="46.40581468161986" lon="12.989406031987691"><ele>321.0</ele><time>2026-04-12T13:12:53Z</time></trkpt><trkpt lat="46.405742553464606" lon="12.989705927467384"><ele>320.3333333333333</ele><time>2026-04-12T13:12:54Z</time></trkpt><trkpt lat="46.4056695036714" lon="12.99000701529052"><ele>319.66666666666663</ele><time>2026-04-12T13:12:55Z</time></trkpt><trkpt lat="46.40559023983629" lon="12.99030600041013"><ele>319.0</ele><time>2026-04-12T13:12:56Z</time></trkpt><trkpt lat="46.40550470457441" lon="12.990606489729792"><ele>319.0</ele><time>2026-04-12T13:12:57Z</time></trkpt><trkpt lat="46.40541711765101" lon="12.990909279140666"><ele>319.0</ele><time>2026-04-12T13:12:58Z</time></trkpt><trkpt lat="46.405327869781246" lon="12.991215306301623"><ele>319.0</ele><time>2026-04-12T13:12:59Z</time></trkpt><trkpt lat="46.40523114178371" lon="12.99151750241785"><ele>319.0</ele><time>2026-04-12T13:13:00Z</time></trkpt><trkpt lat="46.405130426172235" lon="12.991814897234272"><ele>318.5</ele><time>2026-04-12T13:13:01Z</time></trkpt><trkpt lat="46.40503133812989" lon="12.992115758286623"><ele>318.0</ele><time>2026-04-12T13:13:02Z</time></trkpt><trkpt lat="46.4049313680675" lon="12.992410818347972"><ele>317.5</ele><time>2026-04-12T13:13:03Z</time></trkpt><trkpt lat="46.40482581996224" lon="12.992702615052998"><ele>317.0</ele><time>2026-04-12T13:13:04Z</time></trkpt><trkpt lat="46.404718544581186" lon="12.992992607216978"><ele>317.5</ele><time>2026-04-12T13:13:05Z</time></trkpt><trkpt lat="46.404612057442456" lon="12.993281494266776"><ele>318.0</ele><time>2026-04-12T13:13:06Z</time></trkpt><trkpt lat="46.40449985987245" lon="12.993565422671864"><ele>318.5</ele><time>2026-04-12T13:13:07Z</time></trkpt><trkpt lat="46.404382165867915" lon="12.993848035414521"><ele>319.0</ele><time>2026-04-12T13:13:08Z</time></trkpt><trkpt lat="46.40424077410447" lon="12.99410311778242"><ele>319.0</ele><time>2026-04-12T13:13:09Z</time></trkpt><trkpt lat="46.404118923379485" lon="12.994380415979737"><ele>319.0</ele><time>2026-04-12T13:13:10Z</time></trkpt><trkpt lat="46.403994380182624" lon="12.99465679605844"><ele>319.0</ele><time>2026-04-12T13:13:11Z</time></trkpt><trkpt lat="46.40386831674522" lon="12.994933795235392"><ele>319.0</ele><time>2026-04-12T13:13:12Z</time></trkpt><trkpt lat="46.40375590816442" lon="12.9952246356562"><ele>319.0</ele><time>2026-04-12T13:13:13Z</time></trkpt><trkpt lat="46.4036246612496" lon="12.995497715601523"><ele>319.0</ele><time>2026-04-12T13:13:14Z</time></trkpt><trkpt lat="46.403489550202536" lon="12.995767210633566"><ele>319.5</ele><time>2026-04-12T13:13:15Z</time></trkpt><trkpt lat="46.403353770929414" lon="12.996035114064837"><ele>320.0</ele><time>2026-04-12T13:13:16Z</time></trkpt><trkpt lat="46.40321661134806" lon="12.996301932236417"><ele>320.0</ele><time>2026-04-12T13:13:17Z</time></trkpt><trkpt lat="46.40307720706342" lon="12.996566249867543"><ele>320.0</ele><time>2026-04-12T13:13:18Z</time></trkpt><trkpt lat="46.40294066808175" lon="12.996832504102432"><ele>320.5</ele><time>2026-04-12T13:13:19Z</time></trkpt><trkpt lat="46.40280693584692" lon="12.997101663818292"><ele>321.0</ele><time>2026-04-12T13:13:20Z</time></trkpt><trkpt lat="46.40267735079773" lon="12.997374949537953"><ele>322.0</ele><time>2026-04-12T13:13:21Z</time></trkpt><trkpt lat="46.402542019491314" lon="12.997645036531223"><ele>323.0</ele><time>2026-04-12T13:13:22Z</time></trkpt><trkpt lat="46.40244730908052" lon="12.997947192046492"><ele>323.0</ele><time>2026-04-12T13:13:23Z</time></trkpt><trkpt lat="46.402347705319265" lon="12.998241006689643"><ele>323.0</ele><time>2026-04-12T13:13:24Z</time></trkpt><trkpt lat="46.40223951663133" lon="12.998528584740244"><ele>321.6666666666667</ele><time>2026-04-12T13:13:25Z</time></trkpt><trkpt lat="46.402158474276355" lon="12.998822764799769"><ele>320.3333333333333</ele><time>2026-04-12T13:13:26Z</time></trkpt><trkpt lat="46.4020858203014" lon="12.999109804402911"><ele>319.0</ele><time>2026-04-12T13:13:27Z</time></trkpt><trkpt lat="46.40201910156884" lon="12.99939616348077"><ele>318.3333333333333</ele><time>2026-04-12T13:13:28Z</time></trkpt><trkpt lat="46.40197018513329" lon="12.999686744948747"><ele>317.6666666666667</ele><time>2026-04-12T13:13:29Z</time></trkpt><trkpt lat="46.401907699921566" lon="12.999968828094268"><ele>317.0</ele><time>2026-04-12T13:13:30Z</time></trkpt><trkpt lat="46.40183091740689" lon="13.000234945903253"><ele>317.0</ele><time>2026-04-12T13:13:31Z</time></trkpt><trkpt lat="46.40176926670338" lon="13.000506047477709"><ele>317.0</ele><time>2026-04-12T13:13:32Z</time></trkpt><trkpt lat="46.40171051095637" lon="13.000767893639784"><ele>317.0</ele><time>2026-04-12T13:13:33Z</time></trkpt><trkpt lat="46.40165667531183" lon="13.001008780520756"><ele>317.0</ele><time>2026-04-12T13:13:34Z</time></trkpt><trkpt lat="46.40160600076606" lon="13.001235342321168"><ele>317.0</ele><time>2026-04-12T13:13:35Z</time></trkpt><trkpt lat="46.40155832238175" lon="13.001448207194482"><ele>317.0</ele><time>2026-04-12T13:13:36Z</time></trkpt><trkpt lat="46.401513798285706" lon="13.001645953751257"><ele>316.75</ele><time>2026-04-12T13:13:37Z</time></trkpt><trkpt lat="46.40147087757948" lon="13.001831322547186"><ele>316.5</ele><time>2026-04-12T13:13:38Z</time></trkpt><trkpt lat="46.40144650004936" lon="13.002010118036669"><ele>316.25</ele><time>2026-04-12T13:13:39Z</time></trkpt><trkpt lat="46.401405212494" lon="13.002165642867814"><ele>316.0</ele><time>2026-04-12T13:13:40Z</time></trkpt><trkpt lat="46.401355782058104" lon="13.002289195569753"><ele>316.16666666666663</ele><time>2026-04-12T13:13:41Z</time></trkpt><trkpt lat="46.40130180808193" lon="13.002404321106285"><ele>316.3333333333333</ele><time>2026-04-12T13:13:42Z</time></trkpt><trkpt lat="46.401249998991815" lon="13.002502154710161"><ele>316.5</ele><time>2026-04-12T13:13:43Z</time></trkpt><trkpt lat="46.40119514192462" lon="13.002574994674863"><ele>316.6666666666667</ele><time>2026-04-12T13:13:44Z</time></trkpt><trkpt lat="46.401147293812144" lon="13.002639960633656"><ele>316.83333333333337</ele><time>2026-04-12T13:13:45Z</time></trkpt><trkpt lat="46.4010589428943" lon="13.00271018964524"><ele>317.0</ele><time>2026-04-12T13:13:47Z</time></trkpt><trkpt lat="46.40095318576904" lon="13.002721995967946"><ele>317.0</ele><time>2026-04-12T13:13:49Z</time></trkpt><trkpt lat="46.400890289823046" lon="13.002713883570317"><ele>317.0</ele><time>2026-04-12T13:13:50Z</time></trkpt><trkpt lat="46.40082645560848" lon="13.002703248749368"><ele>317.0</ele><time>2026-04-12T13:13:51Z</time></trkpt><trkpt lat="46.400752277577" lon="13.002720915698715"><ele>317.0</ele><time>2026-04-12T13:13:52Z</time></trkpt><trkpt lat="46.40067962987414" lon="13.002682539177009"><ele>317.0</ele><time>2026-04-12T13:13:53Z</time></trkpt><trkpt lat="46.40059041326249" lon="13.002689185047338"><ele>317.0</ele><time>2026-04-12T13:13:54Z</time></trkpt><trkpt lat="46.40048022434418" lon="13.002671223583535"><ele>317.0</ele><time>2026-04-12T13:13:55Z</time></trkpt><trkpt lat="46.40035887158649" lon="13.00266061731279"><ele>317.0</ele><time>2026-04-12T13:13:56Z</time></trkpt><trkpt lat="46.400246005291116" lon="13.002675655337264"><ele>317.0</ele><time>2026-04-12T13:13:57Z</time></trkpt><trkpt lat="46.40012381595598" lon="13.002633870180796"><ele>317.0</ele><time>2026-04-12T13:13:58Z</time></trkpt><trkpt lat="46.40001107253816" lon="13.002657317771872"><ele>317.0</ele><time>2026-04-12T13:13:59Z</time></trkpt><trkpt lat="46.399899665060154" lon="13.002712625546012"><ele>317.0</ele><time>2026-04-12T13:14:00Z</time></trkpt><trkpt lat="46.399786343165" lon="13.002797057499158"><ele>317.0</ele><time>2026-04-12T13:14:01Z</time></trkpt><trkpt lat="46.39967603633389" lon="13.002909690300218"><ele>317.0</ele><time>2026-04-12T13:14:02Z</time></trkpt><trkpt lat="46.399573684532484" lon="13.003035616442405"><ele>317.0</ele><time>2026-04-12T13:14:03Z</time></trkpt><trkpt lat="46.39947457934661" lon="13.0031597814799"><ele>317.0</ele><time>2026-04-12T13:14:04Z</time></trkpt><trkpt lat="46.39937824094569" lon="13.003287423023385"><ele>317.0</ele><time>2026-04-12T13:14:05Z</time></trkpt><trkpt lat="46.39929002759965" lon="13.003411917591556"><ele>317.0</ele><time>2026-04-12T13:14:06Z</time></trkpt><trkpt lat="46.39920763515828" lon="13.003526521780824"><ele>317.0</ele><time>2026-04-12T13:14:07Z</time></trkpt><trkpt lat="46.399126787900364" lon="13.003638864967277"><ele>317.0</ele><time>2026-04-12T13:14:08Z</time></trkpt><trkpt lat="46.39904913682518" lon="13.00374744810705"><ele>317.0</ele><time>2026-04-12T13:14:09Z</time></trkpt><trkpt lat="46.398968527923806" lon="13.00385425987365"><ele>317.0</ele><time>2026-04-12T13:14:09.999Z</time></trkpt><trkpt lat="46.3988839637455" lon="13.003968922662175"><ele>317.0</ele><time>2026-04-12T13:14:10.999Z</time></trkpt><trkpt lat="46.39879822556352" lon="13.004088689257058"><ele>316.25</ele><time>2026-04-12T13:14:11.999Z</time></trkpt><trkpt lat="46.39871303389622" lon="13.004203389116071"><ele>315.5</ele><time>2026-04-12T13:14:12.999Z</time></trkpt><trkpt lat="46.39863179036219" lon="13.004314716714049"><ele>314.75</ele><time>2026-04-12T13:14:13.999Z</time></trkpt><trkpt lat="46.39853956178481" lon="13.00441426991509"><ele>314.0</ele><time>2026-04-12T13:14:14.999Z</time></trkpt><trkpt lat="46.39845431285387" lon="13.00452850071221"><ele>314.0</ele><time>2026-04-12T13:14:15.999Z</time></trkpt><trkpt lat="46.398383716469695" lon="13.0046856337325"><ele>314.0</ele><time>2026-04-12T13:14:16.999Z</time></trkpt><trkpt lat="46.39831128289547" lon="13.004832122982405"><ele>314.0</ele><time>2026-04-12T13:14:17.999Z</time></trkpt><trkpt lat="46.39820137868506" lon="13.004943458072807"><ele>314.0</ele><time>2026-04-12T13:14:18.999Z</time></trkpt><trkpt lat="46.39810712031771" lon="13.005078223232031"><ele>313.75</ele><time>2026-04-12T13:14:19.999Z</time></trkpt><trkpt lat="46.398008654808386" lon="13.005224893029068"><ele>313.5</ele><time>2026-04-12T13:14:20.999Z</time></trkpt><trkpt lat="46.39790572390053" lon="13.005364424605759"><ele>313.25</ele><time>2026-04-12T13:14:21.999Z</time></trkpt><trkpt lat="46.3978036906075" lon="13.005507927925834"><ele>313.0</ele><time>2026-04-12T13:14:22.999Z</time></trkpt><trkpt lat="46.39769912016643" lon="13.005655532094417"><ele>313.0</ele><time>2026-04-12T13:14:23.999Z</time></trkpt><trkpt lat="46.39758819907055" lon="13.005804429065117"><ele>313.0</ele><time>2026-04-12T13:14:24.999Z</time></trkpt><trkpt lat="46.39747808850841" lon="13.005959024478155"><ele>313.0</ele><time>2026-04-12T13:14:25.999Z</time></trkpt><trkpt lat="46.39735706103687" lon="13.006125602960896"><ele>312.66666666666663</ele><time>2026-04-12T13:14:26.999Z</time></trkpt><trkpt lat="46.39722242044925" lon="13.006310214593775"><ele>312.3333333333333</ele><time>2026-04-12T13:14:27.999Z</time></trkpt><trkpt lat="46.39707076238491" lon="13.006515637628619"><ele>312.0</ele><time>2026-04-12T13:14:28.999Z</time></trkpt><trkpt lat="46.396916285017085" lon="13.00672668038795"><ele>312.6666666666667</ele><time>2026-04-12T13:14:29.999Z</time></trkpt><trkpt lat="46.396762257925694" lon="13.006946074426299"><ele>313.33333333333337</ele><time>2026-04-12T13:14:30.999Z</time></trkpt><trkpt lat="46.396599729330035" lon="13.00716592250009"><ele>314.0</ele><time>2026-04-12T13:14:31.999Z</time></trkpt><trkpt lat="46.39643309561832" lon="13.007393284322776"><ele>312.0</ele><time>2026-04-12T13:14:32.999Z</time></trkpt><trkpt lat="46.396262737233144" lon="13.007621481165943"><ele>310.0</ele><time>2026-04-12T13:14:33.999Z</time></trkpt><trkpt lat="46.396093883355704" lon="13.007855657542242"><ele>310.0</ele><time>2026-04-12T13:14:34.999Z</time></trkpt><trkpt lat="46.39592028007691" lon="13.008101988075047"><ele>310.0</ele><time>2026-04-12T13:14:35.999Z</time></trkpt><trkpt lat="46.395746527372424" lon="13.008340871992456"><ele>309.66666666666663</ele><time>2026-04-12T13:14:36.999Z</time></trkpt><trkpt lat="46.39558495861652" lon="13.008565733160712"><ele>309.3333333333333</ele><time>2026-04-12T13:14:37.999Z</time></trkpt><trkpt lat="46.39543347621643" lon="13.008797186571494"><ele>309.0</ele><time>2026-04-12T13:14:39Z</time></trkpt><trkpt lat="46.39528327426812" lon="13.009049080549726"><ele>308.0</ele><time>2026-04-12T13:14:40Z</time></trkpt><trkpt lat="46.39511588221559" lon="13.00930859722417"><ele>307.0</ele><time>2026-04-12T13:14:41Z</time></trkpt><trkpt lat="46.39498095761056" lon="13.00960725281523"><ele>307.0</ele><time>2026-04-12T13:14:42Z</time></trkpt><trkpt lat="46.39483559699958" lon="13.009886419345042"><ele>307.0</ele><time>2026-04-12T13:14:43Z</time></trkpt><trkpt lat="46.39469388653757" lon="13.010165395371594"><ele>308.0</ele><time>2026-04-12T13:14:44Z</time></trkpt><trkpt lat="46.394550070361085" lon="13.010445623107367"><ele>309.0</ele><time>2026-04-12T13:14:45Z</time></trkpt><trkpt lat="46.39440644653218" lon="13.010727935670445"><ele>308.0</ele><time>2026-04-12T13:14:46Z</time></trkpt><trkpt lat="46.394266069426216" lon="13.0110092001738"><ele>307.0</ele><time>2026-04-12T13:14:47Z</time></trkpt><trkpt lat="46.39412491788078" lon="13.011287848559533"><ele>307.0</ele><time>2026-04-12T13:14:48Z</time></trkpt><trkpt lat="46.39398295751364" lon="13.011561426892937"><ele>307.0</ele><time>2026-04-12T13:14:49Z</time></trkpt><trkpt lat="46.39384059665811" lon="13.011833973886814"><ele>306.5</ele><time>2026-04-12T13:14:50Z</time></trkpt><trkpt lat="46.39370100484021" lon="13.012114621145628"><ele>306.0</ele><time>2026-04-12T13:14:51Z</time></trkpt><trkpt lat="46.39356055772592" lon="13.012393377969799"><ele>306.5</ele><time>2026-04-12T13:14:52Z</time></trkpt><trkpt lat="46.393419755247685" lon="13.012666856575844"><ele>307.0</ele><time>2026-04-12T13:14:53Z</time></trkpt><trkpt lat="46.393278244640044" lon="13.012939760479192"><ele>307.0</ele><time>2026-04-12T13:14:54Z</time></trkpt><trkpt lat="46.393136821072524" lon="13.013220392208943"><ele>307.0</ele><time>2026-04-12T13:14:55Z</time></trkpt><trkpt lat="46.392993280866996" lon="13.01350565091368"><ele>304.0</ele><time>2026-04-12T13:14:56Z</time></trkpt><trkpt lat="46.392845015758596" lon="13.013793894507348"><ele>301.0</ele><time>2026-04-12T13:14:57Z</time></trkpt><trkpt lat="46.392697438774206" lon="13.014089098114937"><ele>302.5</ele><time>2026-04-12T13:14:58Z</time></trkpt><trkpt lat="46.392547807794514" lon="13.014386419722666"><ele>304.0</ele><time>2026-04-12T13:14:59Z</time></trkpt><trkpt lat="46.392399834329936" lon="13.01467814299705"><ele>304.0</ele><time>2026-04-12T13:15:00Z</time></trkpt><trkpt lat="46.392247817745975" lon="13.014976575277279"><ele>304.0</ele><time>2026-04-12T13:15:01Z</time></trkpt><trkpt lat="46.392092727909684" lon="13.015283341794605"><ele>303.0</ele><time>2026-04-12T13:15:02Z</time></trkpt><trkpt lat="46.391936088795866" lon="13.015597173496351"><ele>302.0</ele><time>2026-04-12T13:15:03Z</time></trkpt><trkpt lat="46.39177928965028" lon="13.015909997810532"><ele>299.5</ele><time>2026-04-12T13:15:04Z</time></trkpt><trkpt lat="46.391622442628844" lon="13.016215757091652"><ele>297.0</ele><time>2026-04-12T13:15:05Z</time></trkpt><trkpt lat="46.391468245223805" lon="13.016512898543619"><ele>297.0</ele><time>2026-04-12T13:15:06Z</time></trkpt><trkpt lat="46.391317706076705" lon="13.016810894713407"><ele>297.0</ele><time>2026-04-12T13:15:07Z</time></trkpt><trkpt lat="46.391168816663374" lon="13.017108822820397"><ele>297.0</ele><time>2026-04-12T13:15:08Z</time></trkpt><trkpt lat="46.391020503996025" lon="13.01739938369819"><ele>297.0</ele><time>2026-04-12T13:15:09Z</time></trkpt><trkpt lat="46.390874194039576" lon="13.017684515235615"><ele>298.5</ele><time>2026-04-12T13:15:10Z</time></trkpt><trkpt lat="46.39073237622153" lon="13.01796687015185"><ele>300.0</ele><time>2026-04-12T13:15:11Z</time></trkpt><trkpt lat="46.39059035975434" lon="13.01824300059779"><ele>299.0</ele><time>2026-04-12T13:15:12Z</time></trkpt><trkpt lat="46.39044903497211" lon="13.018515985823113"><ele>298.0</ele><time>2026-04-12T13:15:13Z</time></trkpt><trkpt lat="46.39030987707546" lon="13.018784556127038"><ele>298.0</ele><time>2026-04-12T13:15:14Z</time></trkpt><trkpt lat="46.39017320059922" lon="13.019043393371676"><ele>298.0</ele><time>2026-04-12T13:15:15Z</time></trkpt><trkpt lat="46.39004055501018" lon="13.019290443138507"><ele>298.0</ele><time>2026-04-12T13:15:16Z</time></trkpt><trkpt lat="46.389909102790746" lon="13.019538022794967"><ele>298.3333333333333</ele><time>2026-04-12T13:15:17Z</time></trkpt><trkpt lat="46.389780522545806" lon="13.01978624639987"><ele>298.6666666666667</ele><time>2026-04-12T13:15:18Z</time></trkpt><trkpt lat="46.3896565527806" lon="13.020040003593495"><ele>299.0</ele><time>2026-04-12T13:15:19Z</time></trkpt><trkpt lat="46.389536409987436" lon="13.020286384817862"><ele>298.33333333333337</ele><time>2026-04-12T13:15:20Z</time></trkpt><trkpt lat="46.38942089996118" lon="13.020529230164454"><ele>297.6666666666667</ele><time>2026-04-12T13:15:21Z</time></trkpt><trkpt lat="46.389308334665756" lon="13.020771934687138"><ele>297.0</ele><time>2026-04-12T13:15:22Z</time></trkpt><trkpt lat="46.38919848863981" lon="13.02101630653337"><ele>297.0</ele><time>2026-04-12T13:15:23Z</time></trkpt><trkpt lat="46.38908985987829" lon="13.021264572915277"><ele>297.0</ele><time>2026-04-12T13:15:24Z</time></trkpt><trkpt lat="46.38897942141099" lon="13.021530065281315"><ele>297.0</ele><time>2026-04-12T13:15:25Z</time></trkpt><trkpt lat="46.38886447767036" lon="13.021813149637369"><ele>296.0</ele><time>2026-04-12T13:15:26Z</time></trkpt><trkpt lat="46.388744003544964" lon="13.02210594963078"><ele>295.0</ele><time>2026-04-12T13:15:27Z</time></trkpt><trkpt lat="46.38862488399348" lon="13.02239152439812"><ele>295.0</ele><time>2026-04-12T13:15:28Z</time></trkpt><trkpt lat="46.38851455264578" lon="13.02266269208958"><ele>295.0</ele><time>2026-04-12T13:15:29Z</time></trkpt><trkpt lat="46.388405990621074" lon="13.022931899301133"><ele>295.0</ele><time>2026-04-12T13:15:30Z</time></trkpt><trkpt lat="46.38829790227684" lon="13.023199390976743"><ele>295.0</ele><time>2026-04-12T13:15:31Z</time></trkpt><trkpt lat="46.38820329201859" lon="13.023447990037246"><ele>295.0</ele><time>2026-04-12T13:15:32Z</time></trkpt><trkpt lat="46.38812553776844" lon="13.023684766058778"><ele>295.0</ele><time>2026-04-12T13:15:33Z</time></trkpt><trkpt lat="46.38806757487057" lon="13.023911900430663"><ele>295.0</ele><time>2026-04-12T13:15:34Z</time></trkpt><trkpt lat="46.38802735585603" lon="13.024133840704165"><ele>295.0</ele><time>2026-04-12T13:15:35Z</time></trkpt><trkpt lat="46.3879996463199" lon="13.024348085952958"><ele>295.0</ele><time>2026-04-12T13:15:36Z</time></trkpt><trkpt lat="46.38798467518775" lon="13.024517489028288"><ele>295.0</ele><time>2026-04-12T13:15:37Z</time></trkpt><trkpt lat="46.38797507159265" lon="13.02463407491835"><ele>295.0</ele><time>2026-04-12T13:15:38Z</time></trkpt><trkpt lat="46.3879685130355" lon="13.024772336528144"><ele>295.0</ele><time>2026-04-12T13:15:40Z</time></trkpt><trkpt lat="46.38795613489738" lon="13.024869516371712"><ele>295.0</ele><time>2026-04-12T13:15:42Z</time></trkpt><trkpt lat="46.388073741592336" lon="13.02486233550066"><ele>295.0</ele><time>2026-04-12T13:15:44Z</time></trkpt><trkpt lat="46.38818321849354" lon="13.024876051908143"><ele>295.0</ele><time>2026-04-12T13:15:46Z</time></trkpt><trkpt lat="46.38825520830583" lon="13.024882851298194"><ele>295.0</ele><time>2026-04-12T13:15:47Z</time></trkpt><trkpt lat="46.38834673210588" lon="13.024900329748236"><ele>295.0</ele><time>2026-04-12T13:15:48Z</time></trkpt><trkpt lat="46.38845673501367" lon="13.024919111009039"><ele>295.0</ele><time>2026-04-12T13:15:49Z</time></trkpt><trkpt lat="46.38856857012726" lon="13.024944245743661"><ele>295.0</ele><time>2026-04-12T13:15:50Z</time></trkpt><trkpt lat="46.388644333814725" lon="13.024978187969213"><ele>295.0</ele><time>2026-04-12T13:15:51Z</time></trkpt><trkpt lat="46.38871892836124" lon="13.025091577197198"><ele>295.0</ele><time>2026-04-12T13:15:52Z</time></trkpt><trkpt lat="46.38877124929517" lon="13.025234238614587"><ele>295.0</ele><time>2026-04-12T13:15:53Z</time></trkpt><trkpt lat="46.38884287417932" lon="13.025392515557126"><ele>295.0</ele><time>2026-04-12T13:15:54Z</time></trkpt><trkpt lat="46.388913960407294" lon="13.0255556761747"><ele>295.0</ele><time>2026-04-12T13:15:55Z</time></trkpt><trkpt lat="46.38903435929958" lon="13.025656615698905"><ele>295.0</ele><time>2026-04-12T13:15:56Z</time></trkpt><trkpt lat="46.38910239159989" lon="13.025803324312175"><ele>295.0</ele><time>2026-04-12T13:15:57Z</time></trkpt><trkpt lat="46.389155259537695" lon="13.025927173357779"><ele>295.0</ele><time>2026-04-12T13:15:58Z</time></trkpt><trkpt lat="46.38921125421755" lon="13.026045892832267"><ele>295.0</ele><time>2026-04-12T13:15:59Z</time></trkpt><trkpt lat="46.389262421741755" lon="13.026165606720916"><ele>295.0</ele><time>2026-04-12T13:16:00Z</time></trkpt><trkpt lat="46.38924768656277" lon="13.026331551211124"><ele>295.16666666666663</ele><time>2026-04-12T13:16:01Z</time></trkpt><trkpt lat="46.389293796270074" lon="13.026427547613416"><ele>295.3333333333333</ele><time>2026-04-12T13:16:02Z</time></trkpt><trkpt lat="46.389379642020714" lon="13.026461038850671"><ele>295.5</ele><time>2026-04-12T13:16:03Z</time></trkpt><trkpt lat="46.389411135726206" lon="13.026597573455424"><ele>295.6666666666667</ele><time>2026-04-12T13:16:05Z</time></trkpt><trkpt lat="46.3894198945806" lon="13.02669392384578"><ele>295.83333333333337</ele><time>2026-04-12T13:16:09Z</time></trkpt><trkpt lat="46.38937492103446" lon="13.026826837697422"><ele>296.0</ele><time>2026-04-12T13:16:12Z</time></trkpt><trkpt lat="46.389374921034296" lon="13.026929450466847"><ele>296.0</ele><time>2026-04-12T13:16:13Z</time></trkpt><trkpt lat="46.38948452441512" lon="13.027031242363721"><ele>296.0</ele><time>2026-04-12T13:16:14Z</time></trkpt><trkpt lat="46.38957472167412" lon="13.027124193830417"><ele>296.0</ele><time>2026-04-12T13:16:15Z</time></trkpt><trkpt lat="46.38967312525255" lon="13.027237832386612"><ele>296.0</ele><time>2026-04-12T13:16:15.999Z</time></trkpt><trkpt lat="46.38974992336615" lon="13.027387259567666"><ele>295.5</ele><time>2026-04-12T13:16:16.999Z</time></trkpt><trkpt lat="46.38979647470738" lon="13.027561274049377"><ele>295.0</ele><time>2026-04-12T13:16:17.999Z</time></trkpt><trkpt lat="46.389863822872364" lon="13.027713303544372"><ele>294.5</ele><time>2026-04-12T13:16:18.999Z</time></trkpt><trkpt lat="46.38994165258518" lon="13.02788880844163"><ele>294.0</ele><time>2026-04-12T13:16:19.999Z</time></trkpt><trkpt lat="46.39001475105213" lon="13.028053649192955"><ele>294.0</ele><time>2026-04-12T13:16:20.999Z</time></trkpt><trkpt lat="46.39009472453765" lon="13.028234811279004"><ele>294.0</ele><time>2026-04-12T13:16:21.999Z</time></trkpt><trkpt lat="46.390184432268995" lon="13.028437766037316"><ele>294.0</ele><time>2026-04-12T13:16:22.999Z</time></trkpt><trkpt lat="46.39029340030016" lon="13.028686021432648"><ele>294.0</ele><time>2026-04-12T13:16:23.999Z</time></trkpt><trkpt lat="46.39043811242119" lon="13.029015725119091"><ele>294.0</ele><time>2026-04-12T13:16:24.999Z</time></trkpt><trkpt lat="46.3905765949652" lon="13.029329201416616"><ele>294.0</ele><time>2026-04-12T13:16:25.999Z</time></trkpt><trkpt lat="46.390690367947926" lon="13.02958560889823"><ele>294.0</ele><time>2026-04-12T13:16:26.999Z</time></trkpt><trkpt lat="46.390787633567406" lon="13.02980481395523"><ele>294.0</ele><time>2026-04-12T13:16:27.999Z</time></trkpt><trkpt lat="46.39088528704583" lon="13.030022589191725"><ele>293.6666666666667</ele><time>2026-04-12T13:16:28.999Z</time></trkpt><trkpt lat="46.390978283719726" lon="13.03023540473559"><ele>293.33333333333337</ele><time>2026-04-12T13:16:29.999Z</time></trkpt><trkpt lat="46.391074725193874" lon="13.030455851534127"><ele>293.0</ele><time>2026-04-12T13:16:30.999Z</time></trkpt><trkpt lat="46.3911665584097" lon="13.030665764707965"><ele>293.0</ele><time>2026-04-12T13:16:31.999Z</time></trkpt><trkpt lat="46.39125055688459" lon="13.030856934126657"><ele>293.0</ele><time>2026-04-12T13:16:32.999Z</time></trkpt><trkpt lat="46.39132163406859" lon="13.031020225646033"><ele>293.0</ele><time>2026-04-12T13:16:33.999Z</time></trkpt><trkpt lat="46.391386456676564" lon="13.03117400246941"><ele>293.0</ele><time>2026-04-12T13:16:34.999Z</time></trkpt><trkpt lat="46.39145284269311" lon="13.031304532345837"><ele>293.0</ele><time>2026-04-12T13:16:35.999Z</time></trkpt><trkpt lat="46.39152651636898" lon="13.03141326587817"><ele>293.0</ele><time>2026-04-12T13:16:36.999Z</time></trkpt><trkpt lat="46.39163446858711" lon="13.03146704196931"><ele>293.0</ele><time>2026-04-12T13:16:37.999Z</time></trkpt><trkpt lat="46.39173648835854" lon="13.031530246925863"><ele>293.0</ele><time>2026-04-12T13:16:38.999Z</time></trkpt><trkpt lat="46.391837688577134" lon="13.031618899054985"><ele>293.0</ele><time>2026-04-12T13:16:39.999Z</time></trkpt><trkpt lat="46.391953601293224" lon="13.031691285653281"><ele>293.0</ele><time>2026-04-12T13:16:40.999Z</time></trkpt><trkpt lat="46.39208858125383" lon="13.031749778506335"><ele>293.0</ele><time>2026-04-12T13:16:41.999Z</time></trkpt><trkpt lat="46.392222290997694" lon="13.031862431673177"><ele>293.0</ele><time>2026-04-12T13:16:42.999Z</time></trkpt><trkpt lat="46.39236688933364" lon="13.031955830947677"><ele>294.33333333333337</ele><time>2026-04-12T13:16:43.999Z</time></trkpt><trkpt lat="46.39251988605748" lon="13.032055156505407"><ele>295.6666666666667</ele><time>2026-04-12T13:16:45Z</time></trkpt><trkpt lat="46.392677643886174" lon="13.03215585759157"><ele>297.0</ele><time>2026-04-12T13:16:46Z</time></trkpt><trkpt lat="46.39282185374241" lon="13.032249153677961"><ele>297.0</ele><time>2026-04-12T13:16:47Z</time></trkpt><trkpt lat="46.39294122698955" lon="13.03232638182685"><ele>297.0</ele><time>2026-04-12T13:16:48Z</time></trkpt><trkpt lat="46.39305150263968" lon="13.032397728094244"><ele>297.0</ele><time>2026-04-12T13:16:49Z</time></trkpt><trkpt lat="46.393152411025575" lon="13.032461551547938"><ele>297.0</ele><time>2026-04-12T13:16:50Z</time></trkpt><trkpt lat="46.39325453537835" lon="13.032526452600962"><ele>298.0</ele><time>2026-04-12T13:16:51Z</time></trkpt><trkpt lat="46.393355158419205" lon="13.032590399417414"><ele>299.0</ele><time>2026-04-12T13:16:52Z</time></trkpt><trkpt lat="46.39345084834599" lon="13.032651211488387"><ele>300.0</ele><time>2026-04-12T13:16:53Z</time></trkpt><trkpt lat="46.393542986967574" lon="13.032709766469688"><ele>301.0</ele><time>2026-04-12T13:16:54Z</time></trkpt><trkpt lat="46.39362268131326" lon="13.03276408093377"><ele>302.0</ele><time>2026-04-12T13:16:55Z</time></trkpt><trkpt lat="46.393686119699844" lon="13.032809239030522"><ele>302.0</ele><time>2026-04-12T13:16:56Z</time></trkpt><trkpt lat="46.393779016787626" lon="13.032891029604539"><ele>302.0</ele><time>2026-04-12T13:16:58Z</time></trkpt><trkpt lat="46.393802245124505" lon="13.033054343233035"><ele>302.0</ele><time>2026-04-12T13:17:00Z</time></trkpt><trkpt lat="46.39381384637598" lon="13.033209276094258"><ele>302.0</ele><time>2026-04-12T13:17:02Z</time></trkpt><trkpt lat="46.393821992986354" lon="13.033344921896557"><ele>302.0</ele><time>2026-04-12T13:17:04Z</time></trkpt><trkpt lat="46.3937651723743" lon="13.033430114126423"><ele>302.5</ele><time>2026-04-12T13:17:06Z</time></trkpt><trkpt lat="46.39375234453885" lon="13.03353118390857"><ele>303.0</ele><time>2026-04-12T13:17:08Z</time></trkpt><trkpt lat="46.39371279144677" lon="13.03363839790578"><ele>303.5</ele><time>2026-04-12T13:17:11Z</time></trkpt><trkpt lat="46.39368152588828" lon="13.033738889901377"><ele>304.0</ele><time>2026-04-12T13:19:54Z</time></trkpt><trkpt lat="46.39373195978022" lon="13.033802802063752"><ele>304.5</ele><time>2026-04-12T13:19:59Z</time></trkpt><trkpt lat="46.39379862095082" lon="13.033635538692842"><ele>305.0</ele><time>2026-04-12T13:20:01Z</time></trkpt><trkpt lat="46.39382839538794" lon="13.033491165384845"><ele>305.6</ele><time>2026-04-12T13:20:02Z</time></trkpt><trkpt lat="46.3938606229465" lon="13.033353639117292"><ele>306.2</ele><time>2026-04-12T13:20:03Z</time></trkpt><trkpt lat="46.39389191571706" lon="13.033228923015317"><ele>306.8</ele><time>2026-04-12T13:20:04Z</time></trkpt><trkpt lat="46.39392734256947" lon="13.033106402835168"><ele>307.4</ele><time>2026-04-12T13:20:05Z</time></trkpt><trkpt lat="46.39396231772127" lon="13.032979708529437"><ele>308.0</ele><time>2026-04-12T13:20:06Z</time></trkpt><trkpt lat="46.3939992440296" lon="13.032850312813279"><ele>308.0</ele><time>2026-04-12T13:20:07Z</time></trkpt><trkpt lat="46.394037137200165" lon="13.032718150723253"><ele>308.0</ele><time>2026-04-12T13:20:08Z</time></trkpt><trkpt lat="46.39407300912456" lon="13.032582194519573"><ele>308.0</ele><time>2026-04-12T13:20:09Z</time></trkpt><trkpt lat="46.394112532202165" lon="13.032445115167869"><ele>308.0</ele><time>2026-04-12T13:20:10Z</time></trkpt><trkpt lat="46.39415464367919" lon="13.032296653551375"><ele>308.0</ele><time>2026-04-12T13:20:11Z</time></trkpt><trkpt lat="46.39420608078869" lon="13.032121975672103"><ele>307.25</ele><time>2026-04-12T13:20:12Z</time></trkpt><trkpt lat="46.3942605415644" lon="13.031935560109362"><ele>306.5</ele><time>2026-04-12T13:20:13Z</time></trkpt><trkpt lat="46.39431369074778" lon="13.031748432262708"><ele>305.75</ele><time>2026-04-12T13:20:14Z</time></trkpt><trkpt lat="46.3943648839172" lon="13.031566273173217"><ele>305.0</ele><time>2026-04-12T13:20:15Z</time></trkpt><trkpt lat="46.394412364118324" lon="13.031381486582895"><ele>304.5</ele><time>2026-04-12T13:20:16Z</time></trkpt><trkpt lat="46.39445709081396" lon="13.031200575175623"><ele>304.0</ele><time>2026-04-12T13:20:17Z</time></trkpt><trkpt lat="46.39450037780686" lon="13.031026055968631"><ele>303.5</ele><time>2026-04-12T13:20:18Z</time></trkpt><trkpt lat="46.39454170658246" lon="13.030846105705079"><ele>303.0</ele><time>2026-04-12T13:20:19Z</time></trkpt><trkpt lat="46.39458461822506" lon="13.030657266634488"><ele>303.0</ele><time>2026-04-12T13:20:19.999Z</time></trkpt><trkpt lat="46.39463131863171" lon="13.03046393660528"><ele>303.0</ele><time>2026-04-12T13:20:20.999Z</time></trkpt><trkpt lat="46.39468433626048" lon="13.030269388205886"><ele>303.0</ele><time>2026-04-12T13:20:21.999Z</time></trkpt><trkpt lat="46.39474387685493" lon="13.030075443921957"><ele>303.0</ele><time>2026-04-12T13:20:22.999Z</time></trkpt><trkpt lat="46.39481249659584" lon="13.02988250082298"><ele>303.0</ele><time>2026-04-12T13:20:23.999Z</time></trkpt><trkpt lat="46.39489829719045" lon="13.029690739939726"><ele>303.0</ele><time>2026-04-12T13:20:24.999Z</time></trkpt><trkpt lat="46.395003677933765" lon="13.029491713218414"><ele>303.0</ele><time>2026-04-12T13:20:25.999Z</time></trkpt><trkpt lat="46.395115872624906" lon="13.029296793231627"><ele>303.3333333333333</ele><time>2026-04-12T13:20:26.999Z</time></trkpt><trkpt lat="46.39523189467534" lon="13.029118887049064"><ele>303.66666666666663</ele><time>2026-04-12T13:20:27.999Z</time></trkpt><trkpt lat="46.395347184876954" lon="13.028972614644276"><ele>304.0</ele><time>2026-04-12T13:20:28.999Z</time></trkpt><trkpt lat="46.39543930799791" lon="13.028842318113165"><ele>304.0</ele><time>2026-04-12T13:20:29.999Z</time></trkpt><trkpt lat="46.395536426255205" lon="13.028713489488394"><ele>304.0</ele><time>2026-04-12T13:20:30.999Z</time></trkpt><trkpt lat="46.39563859204924" lon="13.028578754218628"><ele>304.0</ele><time>2026-04-12T13:20:31.999Z</time></trkpt><trkpt lat="46.39574232027647" lon="13.028439302899075"><ele>304.0</ele><time>2026-04-12T13:20:32.999Z</time></trkpt><trkpt lat="46.39584971913648" lon="13.028296547017387"><ele>303.3333333333333</ele><time>2026-04-12T13:20:33.999Z</time></trkpt><trkpt lat="46.39596576294513" lon="13.028152609077896"><ele>302.6666666666667</ele><time>2026-04-12T13:20:34.999Z</time></trkpt><trkpt lat="46.3961021249935" lon="13.027997876404328"><ele>302.0</ele><time>2026-04-12T13:20:35.999Z</time></trkpt><trkpt lat="46.39624803445099" lon="13.027843509395133"><ele>302.33333333333337</ele><time>2026-04-12T13:20:36.999Z</time></trkpt><trkpt lat="46.39639635486979" lon="13.027692601314264"><ele>302.6666666666667</ele><time>2026-04-12T13:20:37.999Z</time></trkpt><trkpt lat="46.39654336751766" lon="13.027544908797777"><ele>303.0</ele><time>2026-04-12T13:20:38.999Z</time></trkpt><trkpt lat="46.39668215705579" lon="13.0274156285701"><ele>303.0</ele><time>2026-04-12T13:20:39.999Z</time></trkpt><trkpt lat="46.39682078791125" lon="13.027298347718895"><ele>303.0</ele><time>2026-04-12T13:20:40.999Z</time></trkpt><trkpt lat="46.396951378357855" lon="13.027183147031923"><ele>303.0</ele><time>2026-04-12T13:20:41.999Z</time></trkpt><trkpt lat="46.397075989046286" lon="13.027074326528068"><ele>304.25</ele><time>2026-04-12T13:20:42.999Z</time></trkpt><trkpt lat="46.397194917410815" lon="13.02697935297067"><ele>305.5</ele><time>2026-04-12T13:20:43.999Z</time></trkpt><trkpt lat="46.39730500427757" lon="13.026899292686048"><ele>306.75</ele><time>2026-04-12T13:20:44.999Z</time></trkpt><trkpt lat="46.39740964356488" lon="13.026828460696844"><ele>308.0</ele><time>2026-04-12T13:20:45.999Z</time></trkpt><trkpt lat="46.3975135059121" lon="13.026760323609315"><ele>308.0</ele><time>2026-04-12T13:20:46.999Z</time></trkpt><trkpt lat="46.397605404029584" lon="13.026700377830712"><ele>308.0</ele><time>2026-04-12T13:20:47.999Z</time></trkpt><trkpt lat="46.39768683818371" lon="13.026651125782408"><ele>308.0</ele><time>2026-04-12T13:20:48.999Z</time></trkpt><trkpt lat="46.39775907226249" lon="13.026614202768368"><ele>308.0</ele><time>2026-04-12T13:20:49.999Z</time></trkpt><trkpt lat="46.39783090301041" lon="13.026589317893544"><ele>308.0</ele><time>2026-04-12T13:20:50.999Z</time></trkpt><trkpt lat="46.39790392833705" lon="13.026580144926154"><ele>308.0</ele><time>2026-04-12T13:20:51.999Z</time></trkpt><trkpt lat="46.39797535623458" lon="13.026595620656133"><ele>308.1666666666667</ele><time>2026-04-12T13:20:52.999Z</time></trkpt><trkpt lat="46.398044101024" lon="13.026609346170167"><ele>308.33333333333337</ele><time>2026-04-12T13:20:53.999Z</time></trkpt><trkpt lat="46.39811054260782" lon="13.026604661049126"><ele>308.5</ele><time>2026-04-12T13:20:54.999Z</time></trkpt><trkpt lat="46.39821383542327" lon="13.026542128794514"><ele>308.6666666666667</ele><time>2026-04-12T13:20:57Z</time></trkpt><trkpt lat="46.39827564750798" lon="13.026407050975756"><ele>308.8333333333333</ele><time>2026-04-12T13:20:59Z</time></trkpt><trkpt lat="46.39830025677671" lon="13.02632026365645"><ele>309.0</ele><time>2026-04-12T13:21:00Z</time></trkpt><trkpt lat="46.39833120574995" lon="13.026227837105896"><ele>309.0</ele><time>2026-04-12T13:21:01Z</time></trkpt><trkpt lat="46.39837266391081" lon="13.026140883931978"><ele>309.0</ele><time>2026-04-12T13:21:02Z</time></trkpt><trkpt lat="46.39842211170397" lon="13.026058038285528"><ele>309.0</ele><time>2026-04-12T13:21:03Z</time></trkpt><trkpt lat="46.398480369068004" lon="13.025974497248825"><ele>309.0</ele><time>2026-04-12T13:21:04Z</time></trkpt><trkpt lat="46.398547527090514" lon="13.025894268818945"><ele>309.0</ele><time>2026-04-12T13:21:05Z</time></trkpt><trkpt lat="46.398624223766916" lon="13.025818001842381"><ele>309.0</ele><time>2026-04-12T13:21:06Z</time></trkpt><trkpt lat="46.39870872055007" lon="13.02572156832986"><ele>309.0</ele><time>2026-04-12T13:21:07Z</time></trkpt><trkpt lat="46.39880051320641" lon="13.025615307815963"><ele>309.0</ele><time>2026-04-12T13:21:08Z</time></trkpt><trkpt lat="46.398899600452495" lon="13.02550565124399"><ele>309.0</ele><time>2026-04-12T13:21:09Z</time></trkpt><trkpt lat="46.39900289061418" lon="13.02539327336081"><ele>309.0</ele><time>2026-04-12T13:21:10Z</time></trkpt><trkpt lat="46.39910924808739" lon="13.025276136514108"><ele>309.0</ele><time>2026-04-12T13:21:11Z</time></trkpt><trkpt lat="46.39921511769615" lon="13.025158210869593"><ele>309.0</ele><time>2026-04-12T13:21:12Z</time></trkpt><trkpt lat="46.3993186996365" lon="13.025039855892308"><ele>309.0</ele><time>2026-04-12T13:21:13Z</time></trkpt><trkpt lat="46.399418910654745" lon="13.024918829325046"><ele>309.0</ele><time>2026-04-12T13:21:14Z</time></trkpt><trkpt lat="46.39951620592796" lon="13.024794228769075"><ele>309.0</ele><time>2026-04-12T13:21:15Z</time></trkpt><trkpt lat="46.399608776308625" lon="13.024662852705593"><ele>309.0</ele><time>2026-04-12T13:21:16Z</time></trkpt><trkpt lat="46.3996977582657" lon="13.024525669033746"><ele>309.0</ele><time>2026-04-12T13:21:17Z</time></trkpt><trkpt lat="46.3997899251386" lon="13.024387954341385"><ele>309.0</ele><time>2026-04-12T13:21:18Z</time></trkpt><trkpt lat="46.39988677260708" lon="13.024251517889555"><ele>309.5</ele><time>2026-04-12T13:21:19Z</time></trkpt><trkpt lat="46.399983620922406" lon="13.024111697039295"><ele>310.0</ele><time>2026-04-12T13:21:20Z</time></trkpt><trkpt lat="46.40007967134158" lon="13.023967403817965"><ele>310.5</ele><time>2026-04-12T13:21:21Z</time></trkpt><trkpt lat="46.400179123343506" lon="13.0238176100095"><ele>311.0</ele><time>2026-04-12T13:21:22Z</time></trkpt><trkpt lat="46.40028274634205" lon="13.023669182062385"><ele>311.0</ele><time>2026-04-12T13:21:23Z</time></trkpt><trkpt lat="46.4003910700899" lon="13.023523063947149"><ele>311.0</ele><time>2026-04-12T13:21:24Z</time></trkpt><trkpt lat="46.400502806820775" lon="13.023376159973099"><ele>311.0</ele><time>2026-04-12T13:21:25Z</time></trkpt><trkpt lat="46.400615428997" lon="13.023228207674455"><ele>312.0</ele><time>2026-04-12T13:21:26Z</time></trkpt><trkpt lat="46.40072618388628" lon="13.02307980809658"><ele>313.0</ele><time>2026-04-12T13:21:27Z</time></trkpt><trkpt lat="46.40083773440092" lon="13.022931425416235"><ele>314.0</ele><time>2026-04-12T13:21:28Z</time></trkpt><trkpt lat="46.40094849589148" lon="13.022782212824035"><ele>314.0</ele><time>2026-04-12T13:21:29Z</time></trkpt><trkpt lat="46.401057136481946" lon="13.022639496079313"><ele>314.0</ele><time>2026-04-12T13:21:30Z</time></trkpt><trkpt lat="46.401161410120245" lon="13.022501183518033"><ele>314.0</ele><time>2026-04-12T13:21:31Z</time></trkpt><trkpt lat="46.401262158822796" lon="13.022369198225732"><ele>314.0</ele><time>2026-04-12T13:21:32Z</time></trkpt><trkpt lat="46.40135651529389" lon="13.022245462900928"><ele>314.75</ele><time>2026-04-12T13:21:33Z</time></trkpt><trkpt lat="46.40144603916883" lon="13.022123659003164"><ele>315.5</ele><time>2026-04-12T13:21:34Z</time></trkpt><trkpt lat="46.40153291226935" lon="13.022007705982855"><ele>316.25</ele><time>2026-04-12T13:21:35Z</time></trkpt><trkpt lat="46.40162040090967" lon="13.0218940377921"><ele>317.0</ele><time>2026-04-12T13:21:36Z</time></trkpt><trkpt lat="46.40170903345261" lon="13.021776901749707"><ele>317.0</ele><time>2026-04-12T13:21:37Z</time></trkpt><trkpt lat="46.40179824088039" lon="13.021652896993345"><ele>317.0</ele><time>2026-04-12T13:21:38Z</time></trkpt><trkpt lat="46.40188668007504" lon="13.021523170216879"><ele>317.0</ele><time>2026-04-12T13:21:39Z</time></trkpt><trkpt lat="46.40196612838047" lon="13.021394939933774"><ele>317.0</ele><time>2026-04-12T13:21:40Z</time></trkpt><trkpt lat="46.40203886273484" lon="13.021263232223792"><ele>317.0</ele><time>2026-04-12T13:21:41Z</time></trkpt><trkpt lat="46.40211324887327" lon="13.02112792451069"><ele>317.0</ele><time>2026-04-12T13:21:42Z</time></trkpt><trkpt lat="46.402184877669754" lon="13.02099076854624"><ele>317.0</ele><time>2026-04-12T13:21:43Z</time></trkpt><trkpt lat="46.40224622874819" lon="13.020867609498096"><ele>317.0</ele><time>2026-04-12T13:21:44Z</time></trkpt><trkpt lat="46.40229756725846" lon="13.020762057104285"><ele>317.0</ele><time>2026-04-12T13:21:45Z</time></trkpt><trkpt lat="46.40234195208129" lon="13.020672506644518"><ele>317.0</ele><time>2026-04-12T13:21:46Z</time></trkpt><trkpt lat="46.40240716318282" lon="13.02053858459928"><ele>317.0</ele><time>2026-04-12T13:21:48Z</time></trkpt><trkpt lat="46.40247132996413" lon="13.020408546333798"><ele>317.0</ele><time>2026-04-12T13:21:50Z</time></trkpt><trkpt lat="46.402510103125216" lon="13.020326325113778"><ele>317.0</ele><time>2026-04-12T13:21:51Z</time></trkpt><trkpt lat="46.40255766162365" lon="13.020233785897622"><ele>317.0</ele><time>2026-04-12T13:21:52Z</time></trkpt><trkpt lat="46.402598061682575" lon="13.02014862018541"><ele>317.0</ele><time>2026-04-12T13:21:53Z</time></trkpt><trkpt lat="46.402666626399416" lon="13.02000887637391"><ele>317.2</ele><time>2026-04-12T13:21:55Z</time></trkpt><trkpt lat="46.40273472010582" lon="13.019883160398983"><ele>317.4</ele><time>2026-04-12T13:21:57Z</time></trkpt><trkpt lat="46.40279230435932" lon="13.019761399489592"><ele>317.6</ele><time>2026-04-12T13:21:59Z</time></trkpt><trkpt lat="46.40285000284584" lon="13.019640403078466"><ele>317.8</ele><time>2026-04-12T13:22:01Z</time></trkpt><trkpt lat="46.40290609529776" lon="13.019525676203788"><ele>318.0</ele><time>2026-04-12T13:22:03Z</time></trkpt><trkpt lat="46.40296980327554" lon="13.01940310008074"><ele>318.1666666666667</ele><time>2026-04-12T13:22:05Z</time></trkpt><trkpt lat="46.403009179618806" lon="13.019322501668636"><ele>318.3333333333333</ele><time>2026-04-12T13:22:06Z</time></trkpt><trkpt lat="46.4030502248993" lon="13.01923118405365"><ele>318.5</ele><time>2026-04-12T13:22:07Z</time></trkpt><trkpt lat="46.40309533230985" lon="13.019132108074109"><ele>318.66666666666663</ele><time>2026-04-12T13:22:08Z</time></trkpt><trkpt lat="46.40314722579753" lon="13.019032629986327"><ele>318.8333333333333</ele><time>2026-04-12T13:22:09Z</time></trkpt><trkpt lat="46.403198367082815" lon="13.018936544299446"><ele>319.0</ele><time>2026-04-12T13:22:10Z</time></trkpt><trkpt lat="46.40324389002635" lon="13.018847933916241"><ele>319.0</ele><time>2026-04-12T13:22:11Z</time></trkpt><trkpt lat="46.403282841607535" lon="13.018771790034119"><ele>319.0</ele><time>2026-04-12T13:22:12Z</time></trkpt><trkpt lat="46.403338778978295" lon="13.018644824682616"><ele>319.0</ele><time>2026-04-12T13:22:14Z</time></trkpt><trkpt lat="46.40340235205818" lon="13.018520059381286"><ele>319.0</ele><time>2026-04-12T13:22:16Z</time></trkpt><trkpt lat="46.4034452144761" lon="13.018438067426345"><ele>319.0</ele><time>2026-04-12T13:22:17Z</time></trkpt><trkpt lat="46.4034940646933" lon="13.018348334681189"><ele>319.0</ele><time>2026-04-12T13:22:18Z</time></trkpt><trkpt lat="46.40354531329856" lon="13.018273101923993"><ele>319.0</ele><time>2026-04-12T13:22:19Z</time></trkpt><trkpt lat="46.40363668977803" lon="13.018221563976933"><ele>319.0</ele><time>2026-04-12T13:22:21Z</time></trkpt><trkpt lat="46.4037189328306" lon="13.018195849312724"><ele>319.0</ele><time>2026-04-12T13:22:23Z</time></trkpt><trkpt lat="46.403726916299696" lon="13.018096969871943"><ele>319.0</ele><time>2026-04-12T13:23:09Z</time></trkpt><trkpt lat="46.40362184186853" lon="13.018126415140275"><ele>319.0</ele><time>2026-04-12T13:23:24Z</time></trkpt><trkpt lat="46.40357269088053" lon="13.018202037689807"><ele>319.0</ele><time>2026-04-12T13:23:25Z</time></trkpt><trkpt lat="46.40352258032277" lon="13.01828547926912"><ele>319.0</ele><time>2026-04-12T13:23:26Z</time></trkpt><trkpt lat="46.403440912619146" lon="13.018340108347129"><ele>319.0</ele><time>2026-04-12T13:23:27Z</time></trkpt><trkpt lat="46.40339022028639" lon="13.018441770108828"><ele>319.0</ele><time>2026-04-12T13:23:28Z</time></trkpt><trkpt lat="46.403345404388816" lon="13.018530844535066"><ele>319.0</ele><time>2026-04-12T13:23:29Z</time></trkpt><trkpt lat="46.40330751984986" lon="13.018608704951914"><ele>319.0</ele><time>2026-04-12T13:23:30Z</time></trkpt><trkpt lat="46.40331776282854" lon="13.018731926492437"><ele>319.0</ele><time>2026-04-12T13:23:31Z</time></trkpt><trkpt lat="46.40326982037884" lon="13.018814803679307"><ele>319.0</ele><time>2026-04-12T13:23:32Z</time></trkpt><trkpt lat="46.4032192161586" lon="13.01891561475804"><ele>319.0</ele><time>2026-04-12T13:23:33Z</time></trkpt><trkpt lat="46.403159934300646" lon="13.019046120678185"><ele>319.0</ele><time>2026-04-12T13:23:34Z</time></trkpt><trkpt lat="46.40308983361134" lon="13.019191490394332"><ele>319.0</ele><time>2026-04-12T13:23:35Z</time></trkpt><trkpt lat="46.40301584146068" lon="13.019341489425239"><ele>319.0</ele><time>2026-04-12T13:23:36Z</time></trkpt><trkpt lat="46.40290330815651" lon="13.019449029332705"><ele>318.8</ele><time>2026-04-12T13:23:37Z</time></trkpt><trkpt lat="46.40286979007294" lon="13.019628307329148"><ele>318.59999999999997</ele><time>2026-04-12T13:23:38Z</time></trkpt><trkpt lat="46.40280383229858" lon="13.019754495774071"><ele>318.4</ele><time>2026-04-12T13:23:39Z</time></trkpt><trkpt lat="46.402747273713594" lon="13.01987039118719"><ele>318.2</ele><time>2026-04-12T13:23:40Z</time></trkpt><trkpt lat="46.402696294717764" lon="13.019973433926952"><ele>318.0</ele><time>2026-04-12T13:23:41Z</time></trkpt><trkpt lat="46.402648651836934" lon="13.020068567242808"><ele>318.0</ele><time>2026-04-12T13:23:42Z</time></trkpt><trkpt lat="46.40259398867943" lon="13.020138166899562"><ele>318.0</ele><time>2026-04-12T13:23:43Z</time></trkpt><trkpt lat="46.402521447808" lon="13.020169363621916"><ele>318.0</ele><time>2026-04-12T13:23:44Z</time></trkpt><trkpt lat="46.4024419728838" lon="13.020157870508621"><ele>318.0</ele><time>2026-04-12T13:23:45Z</time></trkpt><trkpt lat="46.40235531679547" lon="13.02009394428687"><ele>318.0</ele><time>2026-04-12T13:23:46Z</time></trkpt><trkpt lat="46.4022784018438" lon="13.020034167357267"><ele>318.0</ele><time>2026-04-12T13:23:47Z</time></trkpt><trkpt lat="46.40221296825173" lon="13.019983117455673"><ele>318.0</ele><time>2026-04-12T13:23:48Z</time></trkpt><trkpt lat="46.40217036112759" lon="13.019914531947148"><ele>318.0</ele><time>2026-04-12T13:23:49Z</time></trkpt><trkpt lat="46.402123148558964" lon="13.01975623150127"><ele>318.0</ele><time>2026-04-12T13:23:51Z</time></trkpt><trkpt lat="46.40206562919059" lon="13.019615339629244"><ele>318.0</ele><time>2026-04-12T13:23:53Z</time></trkpt><trkpt lat="46.40196565123651" lon="13.019520818032994"><ele>318.0</ele><time>2026-04-12T13:23:55Z</time></trkpt><trkpt lat="46.401845643904" lon="13.01946435338248"><ele>318.0</ele><time>2026-04-12T13:23:57Z</time></trkpt><trkpt lat="46.40174136567532" lon="13.019430364504363"><ele>318.0</ele><time>2026-04-12T13:23:59Z</time></trkpt><trkpt lat="46.40173322689833" lon="13.019263783178994"><ele>318.0</ele><time>2026-04-12T13:24:01Z</time></trkpt><trkpt lat="46.40180179898346" lon="13.01913969077764"><ele>318.0</ele><time>2026-04-12T13:24:03Z</time></trkpt><trkpt lat="46.40187946722075" lon="13.019032234265966"><ele>318.0</ele><time>2026-04-12T13:24:05Z</time></trkpt><trkpt lat="46.40196862505841" lon="13.01890233537497"><ele>318.0</ele><time>2026-04-12T13:24:07Z</time></trkpt><trkpt lat="46.40201749456669" lon="13.018824479490503"><ele>318.0</ele><time>2026-04-12T13:24:08Z</time></trkpt><trkpt lat="46.40207394370813" lon="13.018746921190406"><ele>318.0</ele><time>2026-04-12T13:24:09Z</time></trkpt><trkpt lat="46.402133711899644" lon="13.018661489104405"><ele>318.0</ele><time>2026-04-12T13:24:10Z</time></trkpt><trkpt lat="46.40218991335596" lon="13.018568893119763"><ele>318.0</ele><time>2026-04-12T13:24:11Z</time></trkpt><trkpt lat="46.40224809139954" lon="13.018482906902658"><ele>318.0</ele><time>2026-04-12T13:24:12Z</time></trkpt><trkpt lat="46.402308515350576" lon="13.018397026552865"><ele>317.8</ele><time>2026-04-12T13:24:13Z</time></trkpt><trkpt lat="46.40236532039223" lon="13.01830365069822"><ele>317.6</ele><time>2026-04-12T13:24:14Z</time></trkpt><trkpt lat="46.40242107757401" lon="13.01821720041709"><ele>317.4</ele><time>2026-04-12T13:24:15Z</time></trkpt><trkpt lat="46.40248020889631" lon="13.018088839153696"><ele>317.2</ele><time>2026-04-12T13:24:17Z</time></trkpt><trkpt lat="46.40255818033882" lon="13.017967609228707"><ele>317.0</ele><time>2026-04-12T13:24:19Z</time></trkpt><trkpt lat="46.40262264663174" lon="13.017921266038888"><ele>317.0</ele><time>2026-04-12T13:24:20Z</time></trkpt><trkpt lat="46.40266779680887" lon="13.017851574067587"><ele>317.0</ele><time>2026-04-12T13:24:21Z</time></trkpt><trkpt lat="46.40275232195309" lon="13.01772149821006"><ele>317.0</ele><time>2026-04-12T13:24:23Z</time></trkpt><trkpt lat="46.40280049318815" lon="13.017649746886248"><ele>317.0</ele><time>2026-04-12T13:24:24Z</time></trkpt><trkpt lat="46.402853088392085" lon="13.017580632109956"><ele>317.0</ele><time>2026-04-12T13:24:25Z</time></trkpt><trkpt lat="46.402901236391294" lon="13.017517294405408"><ele>317.0</ele><time>2026-04-12T13:24:26Z</time></trkpt><trkpt lat="46.40298377923542" lon="13.017435841770592"><ele>317.6666666666667</ele><time>2026-04-12T13:24:27.999Z</time></trkpt><trkpt lat="46.40305156123245" lon="13.017361698038643"><ele>318.33333333333337</ele><time>2026-04-12T13:24:30.999Z</time></trkpt><trkpt lat="46.403099608721526" lon="13.017222868625943"><ele>319.0</ele><time>2026-04-12T13:25:11Z</time></trkpt><trkpt lat="46.40314597584512" lon="13.017160482682254"><ele>319.6666666666667</ele><time>2026-04-12T13:25:12Z</time></trkpt><trkpt lat="46.40323439684245" lon="13.01711248747705"><ele>320.3333333333333</ele><time>2026-04-12T13:25:14Z</time></trkpt><trkpt lat="46.40328129747067" lon="13.017209120478363"><ele>321.0</ele><time>2026-04-12T13:25:16Z</time></trkpt><trkpt lat="46.40333887634282" lon="13.01734500441517"><ele>320.99999999999994</ele><time>2026-04-12T13:25:18Z</time></trkpt><trkpt lat="46.40337267286992" lon="13.017422425940035"><ele>321.0</ele><time>2026-04-12T13:25:19Z</time></trkpt><trkpt lat="46.403407358471355" lon="13.017501883943137"><ele>321.0</ele><time>2026-04-12T13:25:20Z</time></trkpt><trkpt lat="46.40345875024076" lon="13.017619612528383"><ele>321.0</ele><time>2026-04-12T13:25:22Z</time></trkpt><trkpt lat="46.40349862662923" lon="13.017710962013107"><ele>321.0</ele><time>2026-04-12T13:25:24Z</time></trkpt><trkpt lat="46.40352698404589" lon="13.017802271790854"><ele>320.99999999999994</ele><time>2026-04-12T13:25:26Z</time></trkpt><trkpt lat="46.403549758410406" lon="13.017897150759199"><ele>321.0</ele><time>2026-04-12T13:25:28Z</time></trkpt><trkpt lat="46.40358649188119" lon="13.017994765476068"><ele>321.3333333333333</ele><time>2026-04-12T13:30:24Z</time></trkpt><trkpt lat="46.403743274786265" lon="13.018177935317562"><ele>321.66666666666663</ele><time>2026-04-12T13:30:29Z</time></trkpt><trkpt lat="46.403849686536" lon="13.017935987865489"><ele>322.0</ele><time>2026-04-12T13:30:31Z</time></trkpt><trkpt lat="46.40393175708" lon="13.017857011392632"><ele>322.0</ele><time>2026-04-12T13:30:33Z</time></trkpt><trkpt lat="46.40398984157125" lon="13.017793799181888"><ele>322.0</ele><time>2026-04-12T13:30:35Z</time></trkpt><trkpt lat="46.40405151630608" lon="13.017730048004381"><ele>322.0</ele><time>2026-04-12T13:30:37Z</time></trkpt><trkpt lat="46.40411610194933" lon="13.017663552529802"><ele>322.0</ele><time>2026-04-12T13:30:38.999Z</time></trkpt><trkpt lat="46.40418259477699" lon="13.01760745028526"><ele>322.0</ele><time>2026-04-12T13:30:40.999Z</time></trkpt><trkpt lat="46.40424430319785" lon="13.017544268920846"><ele>322.0</ele><time>2026-04-12T13:30:42.999Z</time></trkpt><trkpt lat="46.40431390778312" lon="13.017489691380332"><ele>322.0</ele><time>2026-04-12T13:30:46.999Z</time></trkpt><trkpt lat="46.404306917257195" lon="13.017613507946189"><ele>322.0</ele><time>2026-04-12T13:30:50.999Z</time></trkpt><trkpt lat="46.40427729203009" lon="13.017705110960371"><ele>322.0</ele><time>2026-04-12T13:30:53.999Z</time></trkpt><trkpt lat="46.404232372381145" lon="13.017800414059108"><ele>322.0</ele><time>2026-04-12T13:30:55.999Z</time></trkpt><trkpt lat="46.40416733771506" lon="13.01784675989016"><ele>322.0</ele><time>2026-04-12T13:30:57.999Z</time></trkpt><trkpt lat="46.40409900958333" lon="13.01790573670502"><ele>322.0</ele><time>2026-04-12T13:30:59.999Z</time></trkpt><trkpt lat="46.40402023837877" lon="13.017956769140005"><ele>322.0</ele><time>2026-04-12T13:31:01.999Z</time></trkpt><trkpt lat="46.40395144750502" lon="13.017998117141314"><ele>322.0</ele><time>2026-04-12T13:31:03.999Z</time></trkpt><trkpt lat="46.40389369867089" lon="13.018039052257194"><ele>322.0</ele><time>2026-04-12T13:31:05.999Z</time></trkpt><trkpt lat="46.403824955354565" lon="13.018042852261143"><ele>322.0</ele><time>2026-04-12T13:31:13.999Z</time></trkpt><trkpt lat="46.403727190530006" lon="13.018095226068477"><ele>322.0</ele><time>2026-04-12T13:31:16.999Z</time></trkpt><trkpt lat="46.40364848769687" lon="13.017824254529312"><ele>321.8333333333333</ele><time>2026-04-12T13:31:17.999Z</time></trkpt><trkpt lat="46.40358770140909" lon="13.017659861437483"><ele>321.66666666666663</ele><time>2026-04-12T13:31:18.999Z</time></trkpt><trkpt lat="46.403541541597185" lon="13.017557877845194"><ele>321.5</ele><time>2026-04-12T13:31:19.999Z</time></trkpt><trkpt lat="46.403501619253774" lon="13.017474128713808"><ele>321.3333333333333</ele><time>2026-04-12T13:31:20.999Z</time></trkpt><trkpt lat="46.403460443547615" lon="13.01737108239549"><ele>321.1666666666667</ele><time>2026-04-12T13:31:22.999Z</time></trkpt><trkpt lat="46.403420211162356" lon="13.017289326039961"><ele>321.0</ele><time>2026-04-12T13:31:26Z</time></trkpt><trkpt lat="46.40336965846146" lon="13.017217050919227"><ele>321.0</ele><time>2026-04-12T13:32:08Z</time></trkpt><trkpt lat="46.403331215340195" lon="13.017139239665116"><ele>321.0</ele><time>2026-04-12T13:32:09Z</time></trkpt><trkpt lat="46.40328238871538" lon="13.017029552246942"><ele>321.0</ele><time>2026-04-12T13:32:10Z</time></trkpt><trkpt lat="46.40322751169852" lon="13.016893017624328"><ele>321.0</ele><time>2026-04-12T13:32:11Z</time></trkpt><trkpt lat="46.40317999651081" lon="13.016755497328171"><ele>321.0</ele><time>2026-04-12T13:32:12Z</time></trkpt><trkpt lat="46.40313158355209" lon="13.016624955636322"><ele>321.1666666666667</ele><time>2026-04-12T13:32:13Z</time></trkpt><trkpt lat="46.40308852274594" lon="13.016518453827134"><ele>321.3333333333333</ele><time>2026-04-12T13:32:14Z</time></trkpt><trkpt lat="46.40305214181246" lon="13.016423450215113"><ele>321.5</ele><time>2026-04-12T13:32:15Z</time></trkpt><trkpt lat="46.40299436287171" lon="13.016280955511851"><ele>321.66666666666663</ele><time>2026-04-12T13:32:17Z</time></trkpt><trkpt lat="46.40296592021046" lon="13.016195758094291"><ele>321.8333333333333</ele><time>2026-04-12T13:32:19Z</time></trkpt><trkpt lat="46.40294554341358" lon="13.01608595259561"><ele>322.0</ele><time>2026-04-12T13:32:25Z</time></trkpt><trkpt lat="46.402880752134166" lon="13.01603546337716"><ele>321.40000000000003</ele><time>2026-04-12T13:32:27Z</time></trkpt><trkpt lat="46.40277791907537" lon="13.016080894669273"><ele>320.8</ele><time>2026-04-12T13:32:29Z</time></trkpt><trkpt lat="46.40270790362516" lon="13.01609848878566"><ele>320.2</ele><time>2026-04-12T13:32:30Z</time></trkpt><trkpt lat="46.40262435877897" lon="13.016105733101973"><ele>319.6</ele><time>2026-04-12T13:32:31Z</time></trkpt><trkpt lat="46.40252914953062" lon="13.016116785483701"><ele>319.0</ele><time>2026-04-12T13:32:32Z</time></trkpt><trkpt lat="46.40241653432417" lon="13.016132068006568"><ele>319.0</ele><time>2026-04-12T13:32:33Z</time></trkpt><trkpt lat="46.40228813659667" lon="13.016147584781562"><ele>319.0</ele><time>2026-04-12T13:32:34Z</time></trkpt><trkpt lat="46.40214561307875" lon="13.016164559809848"><ele>319.0</ele><time>2026-04-12T13:32:35Z</time></trkpt><trkpt lat="46.401989217635276" lon="13.016185585660459"><ele>319.0</ele><time>2026-04-12T13:32:36Z</time></trkpt><trkpt lat="46.4018211250464" lon="13.016207144496489"><ele>318.3333333333333</ele><time>2026-04-12T13:32:37Z</time></trkpt><trkpt lat="46.401633843192485" lon="13.016229224195062"><ele>317.6666666666667</ele><time>2026-04-12T13:32:38Z</time></trkpt><trkpt lat="46.401452762694774" lon="13.016250903872553"><ele>317.0</ele><time>2026-04-12T13:32:39Z</time></trkpt><trkpt lat="46.401296523428286" lon="13.016272714153109"><ele>316.5</ele><time>2026-04-12T13:32:40Z</time></trkpt><trkpt lat="46.40115109872341" lon="13.016291429855801"><ele>316.0</ele><time>2026-04-12T13:32:40.999Z</time></trkpt><trkpt lat="46.40100926128306" lon="13.01630720061917"><ele>315.5</ele><time>2026-04-12T13:32:41.999Z</time></trkpt><trkpt lat="46.40087171684281" lon="13.016325724523456"><ele>315.0</ele><time>2026-04-12T13:32:42.999Z</time></trkpt><trkpt lat="46.40073238082982" lon="13.016345153288526"><ele>315.0</ele><time>2026-04-12T13:32:43.999Z</time></trkpt><trkpt lat="46.40059779922729" lon="13.016361627462512"><ele>315.0</ele><time>2026-04-12T13:32:44.999Z</time></trkpt><trkpt lat="46.40047202826155" lon="13.01637781763361"><ele>315.0</ele><time>2026-04-12T13:32:45.999Z</time></trkpt><trkpt lat="46.40035048724899" lon="13.016395057418563"><ele>315.0</ele><time>2026-04-12T13:32:46.999Z</time></trkpt><trkpt lat="46.40023184758312" lon="13.016410629724705"><ele>315.0</ele><time>2026-04-12T13:32:47.999Z</time></trkpt><trkpt lat="46.4001179125657" lon="13.01642423687803"><ele>315.0</ele><time>2026-04-12T13:32:48.999Z</time></trkpt><trkpt lat="46.40000809448994" lon="13.016431803782341"><ele>315.0</ele><time>2026-04-12T13:32:49.999Z</time></trkpt><trkpt lat="46.39989996473591" lon="13.016439864375796"><ele>315.0</ele><time>2026-04-12T13:32:50.999Z</time></trkpt><trkpt lat="46.39979169471917" lon="13.01645502022665"><ele>315.0</ele><time>2026-04-12T13:32:51.999Z</time></trkpt><trkpt lat="46.399690760106" lon="13.016468114907559"><ele>314.8333333333333</ele><time>2026-04-12T13:32:52.999Z</time></trkpt><trkpt lat="46.399599988946456" lon="13.016478293954744"><ele>314.6666666666667</ele><time>2026-04-12T13:32:53.999Z</time></trkpt><trkpt lat="46.399526597081696" lon="13.016483564225462"><ele>314.5</ele><time>2026-04-12T13:32:54.999Z</time></trkpt><trkpt lat="46.39942733382869" lon="13.016492814197322"><ele>314.33333333333337</ele><time>2026-04-12T13:32:56.999Z</time></trkpt><trkpt lat="46.399363064861355" lon="13.016487612401034"><ele>314.1666666666667</ele><time>2026-04-12T13:32:58.999Z</time></trkpt><trkpt lat="46.399296115408674" lon="13.016481331784572"><ele>314.0</ele><time>2026-04-12T13:33:00.999Z</time></trkpt><trkpt lat="46.39917656050594" lon="13.016507461679257"><ele>314.0</ele><time>2026-04-12T13:33:02.999Z</time></trkpt><trkpt lat="46.399089883426406" lon="13.016520890897299"><ele>314.0</ele><time>2026-04-12T13:33:03.999Z</time></trkpt><trkpt lat="46.39897894494222" lon="13.016525998722674"><ele>314.0</ele><time>2026-04-12T13:33:04.999Z</time></trkpt><trkpt lat="46.39884842973646" lon="13.016521086232107"><ele>314.0</ele><time>2026-04-12T13:33:05.999Z</time></trkpt><trkpt lat="46.39869918220478" lon="13.016498242540997"><ele>313.0</ele><time>2026-04-12T13:33:06.999Z</time></trkpt><trkpt lat="46.39854397282679" lon="13.016449586847152"><ele>312.0</ele><time>2026-04-12T13:33:07.999Z</time></trkpt><trkpt lat="46.398375920354745" lon="13.016392344926983"><ele>311.0</ele><time>2026-04-12T13:33:08.999Z</time></trkpt><trkpt lat="46.3982337025856" lon="13.016353429031756"><ele>311.0</ele><time>2026-04-12T13:33:09.999Z</time></trkpt><trkpt lat="46.398108349258194" lon="13.01631085075068"><ele>311.0</ele><time>2026-04-12T13:33:10.999Z</time></trkpt><trkpt lat="46.39799242289409" lon="13.016272879749897"><ele>311.0</ele><time>2026-04-12T13:33:11.999Z</time></trkpt><trkpt lat="46.397879584997824" lon="13.016242545107367"><ele>311.0</ele><time>2026-04-12T13:33:12.999Z</time></trkpt><trkpt lat="46.39775903352208" lon="13.016206581956478"><ele>310.25</ele><time>2026-04-12T13:33:13.999Z</time></trkpt><trkpt lat="46.39762819086049" lon="13.016162617752684"><ele>309.5</ele><time>2026-04-12T13:33:14.999Z</time></trkpt><trkpt lat="46.39748969281033" lon="13.016121778835487"><ele>308.75</ele><time>2026-04-12T13:33:15.999Z</time></trkpt><trkpt lat="46.39735096033556" lon="13.016082351765615"><ele>308.0</ele><time>2026-04-12T13:33:16.999Z</time></trkpt><trkpt lat="46.3972095922003" lon="13.016039502187445"><ele>308.0</ele><time>2026-04-12T13:33:17.999Z</time></trkpt><trkpt lat="46.397075605413896" lon="13.016000705947524"><ele>308.0</ele><time>2026-04-12T13:33:18.999Z</time></trkpt><trkpt lat="46.39694214369357" lon="13.015964069892618"><ele>308.0</ele><time>2026-04-12T13:33:19.999Z</time></trkpt><trkpt lat="46.39681837013585" lon="13.015927730144487"><ele>308.0</ele><time>2026-04-12T13:33:20.999Z</time></trkpt><trkpt lat="46.39670984192199" lon="13.01589309965396"><ele>308.0</ele><time>2026-04-12T13:33:21.999Z</time></trkpt><trkpt lat="46.396613291734965" lon="13.015861496161888"><ele>308.0</ele><time>2026-04-12T13:33:22.999Z</time></trkpt><trkpt lat="46.39652121530833" lon="13.015832439590513"><ele>308.0</ele><time>2026-04-12T13:33:23.999Z</time></trkpt><trkpt lat="46.3964382504096" lon="13.015806488689968"><ele>308.0</ele><time>2026-04-12T13:33:24.999Z</time></trkpt><trkpt lat="46.3963622631634" lon="13.015781821787403"><ele>308.0</ele><time>2026-04-12T13:33:25.999Z</time></trkpt><trkpt lat="46.39629755981602" lon="13.015755362223013"><ele>308.0</ele><time>2026-04-12T13:33:26.999Z</time></trkpt><trkpt lat="46.39620241284369" lon="13.015691293981787"><ele>307.75</ele><time>2026-04-12T13:33:28.999Z</time></trkpt><trkpt lat="46.396135642545474" lon="13.015659011636878"><ele>307.5</ele><time>2026-04-12T13:33:30.999Z</time></trkpt><trkpt lat="46.39613621990696" lon="13.015445301399433"><ele>307.25</ele><time>2026-04-12T13:33:32Z</time></trkpt><trkpt lat="46.396122950604955" lon="13.015272673931454"><ele>307.0</ele><time>2026-04-12T13:33:33Z</time></trkpt><trkpt lat="46.39609559825059" lon="13.0150645372612"><ele>307.0</ele><time>2026-04-12T13:33:34Z</time></trkpt><trkpt lat="46.39606205748681" lon="13.01482986942076"><ele>307.0</ele><time>2026-04-12T13:33:35Z</time></trkpt><trkpt lat="46.396026091488025" lon="13.014576937776628"><ele>307.0</ele><time>2026-04-12T13:33:36Z</time></trkpt><trkpt lat="46.395987410412175" lon="13.014317988910769"><ele>307.0</ele><time>2026-04-12T13:33:37Z</time></trkpt><trkpt lat="46.39595115777005" lon="13.014072114018662"><ele>307.0</ele><time>2026-04-12T13:33:38Z</time></trkpt><trkpt lat="46.39591651318095" lon="13.013852579706883"><ele>307.0</ele><time>2026-04-12T13:33:39Z</time></trkpt><trkpt lat="46.395877635203185" lon="13.01365345975356"><ele>307.0</ele><time>2026-04-12T13:33:40Z</time></trkpt><trkpt lat="46.3958354963052" lon="13.013463196208864"><ele>307.0</ele><time>2026-04-12T13:33:41Z</time></trkpt><trkpt lat="46.3957950295089" lon="13.013267163914994"><ele>307.0</ele><time>2026-04-12T13:33:42Z</time></trkpt><trkpt lat="46.395760535337054" lon="13.013080441453717"><ele>307.0</ele><time>2026-04-12T13:33:43Z</time></trkpt><trkpt lat="46.39572811082036" lon="13.012910572060509"><ele>307.75</ele><time>2026-04-12T13:33:44Z</time></trkpt><trkpt lat="46.39569490337966" lon="13.012730477792996"><ele>308.5</ele><time>2026-04-12T13:33:45Z</time></trkpt><trkpt lat="46.39566455438876" lon="13.012569332801826"><ele>309.25</ele><time>2026-04-12T13:33:46Z</time></trkpt><trkpt lat="46.395637832018856" lon="13.012418611207197"><ele>310.0</ele><time>2026-04-12T13:33:47Z</time></trkpt><trkpt lat="46.395624644690024" lon="13.012270907948364"><ele>310.0</ele><time>2026-04-12T13:33:48Z</time></trkpt><trkpt lat="46.3956310840563" lon="13.01211654270711"><ele>310.0</ele><time>2026-04-12T13:33:49Z</time></trkpt><trkpt lat="46.395651972697344" lon="13.011951798115108"><ele>310.0</ele><time>2026-04-12T13:33:50Z</time></trkpt><trkpt lat="46.39567948929957" lon="13.011780707759296"><ele>310.0</ele><time>2026-04-12T13:33:51Z</time></trkpt><trkpt lat="46.39570488207974" lon="13.011602509034885"><ele>309.6</ele><time>2026-04-12T13:33:52Z</time></trkpt><trkpt lat="46.395713517431055" lon="13.011434157980284"><ele>309.2</ele><time>2026-04-12T13:33:53Z</time></trkpt><trkpt lat="46.395705560308905" lon="13.011279360149542"><ele>308.8</ele><time>2026-04-12T13:33:54Z</time></trkpt><trkpt lat="46.39566010707149" lon="13.011149419919922"><ele>308.4</ele><time>2026-04-12T13:33:55Z</time></trkpt><trkpt lat="46.39563109517797" lon="13.011045917517212"><ele>308.0</ele><time>2026-04-12T13:33:56Z</time></trkpt><trkpt lat="46.39555962124877" lon="13.010915436095903"><ele>308.0</ele><time>2026-04-12T13:33:58Z</time></trkpt><trkpt lat="46.39546785682522" lon="13.010882707724063"><ele>308.0</ele><time>2026-04-12T13:34:00Z</time></trkpt><trkpt lat="46.39535112157378" lon="13.01090635316243"><ele>308.0</ele><time>2026-04-12T13:34:02Z</time></trkpt><trkpt lat="46.39526768745908" lon="13.010948916621215"><ele>308.0</ele><time>2026-04-12T13:34:03Z</time></trkpt><trkpt lat="46.39522159304655" lon="13.01107143199356"><ele>308.0</ele><time>2026-04-12T13:34:04Z</time></trkpt><trkpt lat="46.39513446682231" lon="13.011202611785945"><ele>308.0</ele><time>2026-04-12T13:34:05Z</time></trkpt><trkpt lat="46.395048520508105" lon="13.0113698560006"><ele>308.0</ele><time>2026-04-12T13:34:06Z</time></trkpt><trkpt lat="46.394965945291965" lon="13.011566096051098"><ele>308.0</ele><time>2026-04-12T13:34:07Z</time></trkpt><trkpt lat="46.39484786922022" lon="13.011755159870564"><ele>307.33333333333337</ele><time>2026-04-12T13:34:08Z</time></trkpt><trkpt lat="46.39473606168656" lon="13.011966226162913"><ele>306.6666666666667</ele><time>2026-04-12T13:34:09Z</time></trkpt><trkpt lat="46.394625903546945" lon="13.012173557406458"><ele>306.0</ele><time>2026-04-12T13:34:10Z</time></trkpt><trkpt lat="46.39451829015417" lon="13.012377614505885"><ele>305.6666666666667</ele><time>2026-04-12T13:34:11Z</time></trkpt><trkpt lat="46.39440933922326" lon="13.012584208031209"><ele>305.33333333333337</ele><time>2026-04-12T13:34:12Z</time></trkpt><trkpt lat="46.39429731405105" lon="13.012794139414906"><ele>305.0</ele><time>2026-04-12T13:34:13Z</time></trkpt><trkpt lat="46.39418439944002" lon="13.013005139674409"><ele>305.0</ele><time>2026-04-12T13:34:14Z</time></trkpt><trkpt lat="46.39407105736588" lon="13.013217222075134"><ele>305.0</ele><time>2026-04-12T13:34:15Z</time></trkpt><trkpt lat="46.39395700107551" lon="13.013430953379181"><ele>305.0</ele><time>2026-04-12T13:34:16Z</time></trkpt><trkpt lat="46.39384696346135" lon="13.01363715401618"><ele>305.6666666666667</ele><time>2026-04-12T13:34:17Z</time></trkpt><trkpt lat="46.39374836391874" lon="13.0138220577139"><ele>306.3333333333333</ele><time>2026-04-12T13:34:18Z</time></trkpt><trkpt lat="46.39365288229377" lon="13.014002354015435"><ele>307.0</ele><time>2026-04-12T13:34:19Z</time></trkpt><trkpt lat="46.39355340713932" lon="13.014170166389592"><ele>307.0</ele><time>2026-04-12T13:34:20Z</time></trkpt><trkpt lat="46.393443370209305" lon="13.014318910125137"><ele>307.0</ele><time>2026-04-12T13:34:21Z</time></trkpt><trkpt lat="46.393316649904165" lon="13.014441923368054"><ele>307.0</ele><time>2026-04-12T13:34:22Z</time></trkpt><trkpt lat="46.393181154732204" lon="13.01452520599047"><ele>307.0</ele><time>2026-04-12T13:34:23Z</time></trkpt><trkpt lat="46.39303824758746" lon="13.01459690441304"><ele>307.0</ele><time>2026-04-12T13:34:24Z</time></trkpt><trkpt lat="46.39288262466357" lon="13.014609111333735"><ele>307.0</ele><time>2026-04-12T13:34:25Z</time></trkpt><trkpt lat="46.39272959412934" lon="13.01455910175267"><ele>306.0</ele><time>2026-04-12T13:34:26Z</time></trkpt><trkpt lat="46.39257772960006" lon="13.01452871518005"><ele>305.0</ele><time>2026-04-12T13:34:27Z</time></trkpt><trkpt lat="46.39243068243974" lon="13.014464588496327"><ele>304.0</ele><time>2026-04-12T13:34:28Z</time></trkpt><trkpt lat="46.392274614814816" lon="13.01440111115991"><ele>303.0</ele><time>2026-04-12T13:34:29Z</time></trkpt><trkpt lat="46.39211500643966" lon="13.014326578413657"><ele>302.0</ele><time>2026-04-12T13:34:30Z</time></trkpt><trkpt lat="46.391951922730186" lon="13.014225757336769"><ele>301.0</ele><time>2026-04-12T13:34:31Z</time></trkpt><trkpt lat="46.39178956399411" lon="13.01408484019138"><ele>300.3333333333333</ele><time>2026-04-12T13:34:32Z</time></trkpt><trkpt lat="46.39162178221994" lon="13.013926900726831"><ele>299.6666666666667</ele><time>2026-04-12T13:34:33Z</time></trkpt><trkpt lat="46.39144897474234" lon="13.01376855262174"><ele>299.0</ele><time>2026-04-12T13:34:34Z</time></trkpt><trkpt lat="46.391271231029954" lon="13.013608207434933"><ele>299.0</ele><time>2026-04-12T13:34:35Z</time></trkpt><trkpt lat="46.39109654674286" lon="13.013452906211691"><ele>299.0</ele><time>2026-04-12T13:34:36Z</time></trkpt><trkpt lat="46.39091749636633" lon="13.01329771893147"><ele>299.0</ele><time>2026-04-12T13:34:37Z</time></trkpt><trkpt lat="46.390734554174024" lon="13.013136683123838"><ele>298.6666666666667</ele><time>2026-04-12T13:34:38Z</time></trkpt><trkpt lat="46.390548858376555" lon="13.012970026626862"><ele>298.3333333333333</ele><time>2026-04-12T13:34:39Z</time></trkpt><trkpt lat="46.39035631056001" lon="13.01279751363738"><ele>298.0</ele><time>2026-04-12T13:34:40Z</time></trkpt><trkpt lat="46.3901602568339" lon="13.012617975479607"><ele>298.0</ele><time>2026-04-12T13:34:41Z</time></trkpt><trkpt lat="46.38996974834426" lon="13.012446273192326"><ele>298.0</ele><time>2026-04-12T13:34:42Z</time></trkpt><trkpt lat="46.38979092816145" lon="13.012284525639238"><ele>298.0</ele><time>2026-04-12T13:34:43Z</time></trkpt><trkpt lat="46.389621775553344" lon="13.012131133159947"><ele>298.0</ele><time>2026-04-12T13:34:44Z</time></trkpt><trkpt lat="46.38946106271918" lon="13.0119876186723"><ele>298.0</ele><time>2026-04-12T13:34:45Z</time></trkpt><trkpt lat="46.38931211098325" lon="13.011853207830171"><ele>298.0</ele><time>2026-04-12T13:34:45.999Z</time></trkpt><trkpt lat="46.389174912224746" lon="13.011728612804307"><ele>299.5</ele><time>2026-04-12T13:34:46.999Z</time></trkpt><trkpt lat="46.38904285459337" lon="13.011613528633465"><ele>301.0</ele><time>2026-04-12T13:34:47.999Z</time></trkpt><trkpt lat="46.38892577596989" lon="13.011509337860376"><ele>302.5</ele><time>2026-04-12T13:34:48.999Z</time></trkpt><trkpt lat="46.38883568826066" lon="13.011431427930942"><ele>304.0</ele><time>2026-04-12T13:34:49.999Z</time></trkpt><trkpt lat="46.388767171778426" lon="13.011369013433375"><ele>304.2</ele><time>2026-04-12T13:34:50.999Z</time></trkpt><trkpt lat="46.38867536283143" lon="13.011267186314482"><ele>304.4</ele><time>2026-04-12T13:34:52.999Z</time></trkpt><trkpt lat="46.38862272033235" lon="13.011091586041113"><ele>304.6</ele><time>2026-04-12T13:34:54.999Z</time></trkpt><trkpt lat="46.388625303122154" lon="13.010966592657972"><ele>304.8</ele><time>2026-04-12T13:34:55.999Z</time></trkpt><trkpt lat="46.388636442589004" lon="13.01081638159325"><ele>305.0</ele><time>2026-04-12T13:34:56.999Z</time></trkpt><trkpt lat="46.38865818320497" lon="13.01064414956778"><ele>307.33333333333337</ele><time>2026-04-12T13:34:57.999Z</time></trkpt><trkpt lat="46.38868255770908" lon="13.01044782782581"><ele>309.6666666666667</ele><time>2026-04-12T13:34:58.999Z</time></trkpt><trkpt lat="46.38870196149509" lon="13.010218804123534"><ele>312.0</ele><time>2026-04-12T13:34:59.999Z</time></trkpt><trkpt lat="46.3887312230956" lon="13.009975817397757"><ele>313.6666666666667</ele><time>2026-04-12T13:35:00.999Z</time></trkpt><trkpt lat="46.38876723909543" lon="13.009725746475468"><ele>315.33333333333337</ele><time>2026-04-12T13:35:01.999Z</time></trkpt><trkpt lat="46.388791664635626" lon="13.00948481235819"><ele>317.0</ele><time>2026-04-12T13:35:02.999Z</time></trkpt><trkpt lat="46.388793637116194" lon="13.009257858368546"><ele>319.5</ele><time>2026-04-12T13:35:03.999Z</time></trkpt><trkpt lat="46.388780233918524" lon="13.009043714524934"><ele>322.0</ele><time>2026-04-12T13:35:04.999Z</time></trkpt><trkpt lat="46.388746416581" lon="13.00884611213902"><ele>324.5</ele><time>2026-04-12T13:35:05.999Z</time></trkpt><trkpt lat="46.38869374223183" lon="13.00865986879147"><ele>327.0</ele><time>2026-04-12T13:35:06.999Z</time></trkpt><trkpt lat="46.38864980043451" lon="13.008475747185106"><ele>327.75</ele><time>2026-04-12T13:35:07.999Z</time></trkpt><trkpt lat="46.38864051380539" lon="13.008283942236178"><ele>328.5</ele><time>2026-04-12T13:35:08.999Z</time></trkpt><trkpt lat="46.388668098835595" lon="13.008079763534507"><ele>329.25</ele><time>2026-04-12T13:35:09.999Z</time></trkpt><trkpt lat="46.388700421551945" lon="13.007861469887745"><ele>330.0</ele><time>2026-04-12T13:35:10.999Z</time></trkpt><trkpt lat="46.388707591422104" lon="13.00762870858336"><ele>332.3333333333333</ele><time>2026-04-12T13:35:11.999Z</time></trkpt><trkpt lat="46.38869833457712" lon="13.007376845738339"><ele>334.66666666666663</ele><time>2026-04-12T13:35:12.999Z</time></trkpt><trkpt lat="46.388674112127546" lon="13.007112752188686"><ele>337.0</ele><time>2026-04-12T13:35:13.999Z</time></trkpt><trkpt lat="46.38864518012402" lon="13.006859930797711"><ele>339.0</ele><time>2026-04-12T13:35:14.999Z</time></trkpt><trkpt lat="46.38862485700064" lon="13.006630696733511"><ele>341.0</ele><time>2026-04-12T13:35:15.999Z</time></trkpt><trkpt lat="46.38861113262139" lon="13.00642413530729"><ele>343.0</ele><time>2026-04-12T13:35:16.999Z</time></trkpt><trkpt lat="46.38859468485114" lon="13.006254049943818"><ele>345.0</ele><time>2026-04-12T13:35:17.999Z</time></trkpt><trkpt lat="46.38857200281099" lon="13.00610610787557"><ele>345.0</ele><time>2026-04-12T13:35:18.999Z</time></trkpt><trkpt lat="46.38852596448818" lon="13.005975714601224"><ele>345.0</ele><time>2026-04-12T13:35:19.999Z</time></trkpt><trkpt lat="46.38844775070358" lon="13.00586567284958"><ele>345.0</ele><time>2026-04-12T13:35:20.999Z</time></trkpt><trkpt lat="46.38835030717712" lon="13.005776366620319"><ele>345.0</ele><time>2026-04-12T13:35:21.999Z</time></trkpt><trkpt lat="46.388236572228365" lon="13.00570325710605"><ele>348.5</ele><time>2026-04-12T13:35:22.999Z</time></trkpt><trkpt lat="46.38811255017035" lon="13.005630647530138"><ele>352.0</ele><time>2026-04-12T13:35:23.999Z</time></trkpt><trkpt lat="46.387994647261" lon="13.005551597469898"><ele>355.5</ele><time>2026-04-12T13:35:24.999Z</time></trkpt><trkpt lat="46.38788557975915" lon="13.005460845659854"><ele>359.0</ele><time>2026-04-12T13:35:25.999Z</time></trkpt><trkpt lat="46.38778201365409" lon="13.005344069401131"><ele>359.2</ele><time>2026-04-12T13:35:26.999Z</time></trkpt><trkpt lat="46.38769095206227" lon="13.005221480317163"><ele>359.4</ele><time>2026-04-12T13:35:27.999Z</time></trkpt><trkpt lat="46.38762604055921" lon="13.005105828900463"><ele>359.6</ele><time>2026-04-12T13:35:28.999Z</time></trkpt><trkpt lat="46.38759694398651" lon="13.004990353020709"><ele>359.8</ele><time>2026-04-12T13:35:29.999Z</time></trkpt><trkpt lat="46.38759506364958" lon="13.004856585319782"><ele>360.0</ele><time>2026-04-12T13:35:30.999Z</time></trkpt><trkpt lat="46.387630131744714" lon="13.004733470518534"><ele>363.0</ele><time>2026-04-12T13:35:31.999Z</time></trkpt><trkpt lat="46.387711163750744" lon="13.004646181849926"><ele>366.0</ele><time>2026-04-12T13:35:32.999Z</time></trkpt><trkpt lat="46.387812774966584" lon="13.00461067800758"><ele>369.0</ele><time>2026-04-12T13:35:33.999Z</time></trkpt><trkpt lat="46.387933806676365" lon="13.004618677964963"><ele>372.0</ele><time>2026-04-12T13:35:34.999Z</time></trkpt><trkpt lat="46.38805127718504" lon="13.004620334535483"><ele>375.0</ele><time>2026-04-12T13:35:35.999Z</time></trkpt><trkpt lat="46.388174796984835" lon="13.004614419900644"><ele>375.0</ele><time>2026-04-12T13:35:36.999Z</time></trkpt><trkpt lat="46.38830377594289" lon="13.004607601537995"><ele>375.0</ele><time>2026-04-12T13:35:38Z</time></trkpt><trkpt lat="46.38842752084301" lon="13.004610406525495"><ele>375.0</ele><time>2026-04-12T13:35:39Z</time></trkpt><trkpt lat="46.388534087425604" lon="13.004675407512336"><ele>375.0</ele><time>2026-04-12T13:35:40Z</time></trkpt><trkpt lat="46.388624673443566" lon="13.00477046972159"><ele>375.0</ele><time>2026-04-12T13:35:41Z</time></trkpt><trkpt lat="46.38869860752834" lon="13.004889889849666"><ele>375.0</ele><time>2026-04-12T13:35:42Z</time></trkpt><trkpt lat="46.38876966915532" lon="13.005020875325242"><ele>375.0</ele><time>2026-04-12T13:35:43Z</time></trkpt><trkpt lat="46.38882825346206" lon="13.005129470501739"><ele>375.0</ele><time>2026-04-12T13:35:44Z</time></trkpt><trkpt lat="46.388892357297564" lon="13.005222015535498"><ele>375.0</ele><time>2026-04-12T13:35:45Z</time></trkpt><trkpt lat="46.38895630099719" lon="13.005280334207153"><ele>374.2</ele><time>2026-04-12T13:35:46Z</time></trkpt><trkpt lat="46.38904269627517" lon="13.005267082197786"><ele>373.4</ele><time>2026-04-12T13:35:47Z</time></trkpt><trkpt lat="46.38912008960609" lon="13.00520549602532"><ele>372.6</ele><time>2026-04-12T13:35:48Z</time></trkpt><trkpt lat="46.389171262542966" lon="13.005099033243104"><ele>371.8</ele><time>2026-04-12T13:35:49Z</time></trkpt><trkpt lat="46.38917380284056" lon="13.004963291344042"><ele>371.0</ele><time>2026-04-12T13:35:50Z</time></trkpt><trkpt lat="46.389127585664745" lon="13.004835065478233"><ele>371.0</ele><time>2026-04-12T13:35:51Z</time></trkpt><trkpt lat="46.38905442864397" lon="13.004728124860975"><ele>371.0</ele><time>2026-04-12T13:35:52Z</time></trkpt><trkpt lat="46.38897089265929" lon="13.004608117734913"><ele>371.0</ele><time>2026-04-12T13:35:53Z</time></trkpt><trkpt lat="46.388884129838466" lon="13.004461042014826"><ele>371.0</ele><time>2026-04-12T13:35:54Z</time></trkpt><trkpt lat="46.388787195199434" lon="13.004295154769482"><ele>379.25</ele><time>2026-04-12T13:35:55Z</time></trkpt><trkpt lat="46.388689338791025" lon="13.004121450477948"><ele>387.5</ele><time>2026-04-12T13:35:56Z</time></trkpt><trkpt lat="46.38858410571254" lon="13.003978733713538"><ele>395.75</ele><time>2026-04-12T13:35:57Z</time></trkpt><trkpt lat="46.388461481041105" lon="13.003870478975019"><ele>404.0</ele><time>2026-04-12T13:35:58Z</time></trkpt><trkpt lat="46.38832753180601" lon="13.00380151422563"><ele>404.0</ele><time>2026-04-12T13:35:59Z</time></trkpt><trkpt lat="46.38819002835605" lon="13.003772525545012"><ele>404.0</ele><time>2026-04-12T13:36:00Z</time></trkpt><trkpt lat="46.38805756944461" lon="13.003762140436718"><ele>404.0</ele><time>2026-04-12T13:36:01Z</time></trkpt><trkpt lat="46.38792789627259" lon="13.003751257968418"><ele>404.0</ele><time>2026-04-12T13:36:02Z</time></trkpt><trkpt lat="46.38780296441703" lon="13.003737130769878"><ele>406.4</ele><time>2026-04-12T13:36:03Z</time></trkpt><trkpt lat="46.38768887866409" lon="13.003755230007096"><ele>408.79999999999995</ele><time>2026-04-12T13:36:04Z</time></trkpt><trkpt lat="46.38758452065354" lon="13.003778026765712"><ele>411.20000000000005</ele><time>2026-04-12T13:36:05Z</time></trkpt><trkpt lat="46.387484962100736" lon="13.003851011206933"><ele>413.6</ele><time>2026-04-12T13:36:06Z</time></trkpt><trkpt lat="46.38739026780342" lon="13.00392570972991"><ele>416.0</ele><time>2026-04-12T13:36:07Z</time></trkpt><trkpt lat="46.38731214476056" lon="13.003987336203721"><ele>415.99999999999994</ele><time>2026-04-12T13:36:08Z</time></trkpt><trkpt lat="46.38724628956741" lon="13.004031567942745"><ele>416.0</ele><time>2026-04-12T13:36:09Z</time></trkpt><trkpt lat="46.38718330340686" lon="13.0040875077142"><ele>416.0</ele><time>2026-04-12T13:36:10Z</time></trkpt><trkpt lat="46.387104869644915" lon="13.00404718832985"><ele>416.0</ele><time>2026-04-12T13:36:11Z</time></trkpt><trkpt lat="46.38703665708092" lon="13.003952096180923"><ele>415.99999999999994</ele><time>2026-04-12T13:36:12Z</time></trkpt><trkpt lat="46.38697575999164" lon="13.003818320869971"><ele>416.0</ele><time>2026-04-12T13:36:13Z</time></trkpt><trkpt lat="46.38689944113358" lon="13.003669603102537"><ele>413.25</ele><time>2026-04-12T13:36:14Z</time></trkpt><trkpt lat="46.38681154211892" lon="13.003500052393589"><ele>410.5</ele><time>2026-04-12T13:36:15Z</time></trkpt><trkpt lat="46.38673277081112" lon="13.003316716735652"><ele>407.75</ele><time>2026-04-12T13:36:16Z</time></trkpt><trkpt lat="46.38668518599828" lon="13.003120188568285"><ele>405.0</ele><time>2026-04-12T13:36:17Z</time></trkpt><trkpt lat="46.386666551754374" lon="13.002908303967688"><ele>405.0</ele><time>2026-04-12T13:36:18Z</time></trkpt><trkpt lat="46.386649796750866" lon="13.002674560267124"><ele>405.0</ele><time>2026-04-12T13:36:19Z</time></trkpt><trkpt lat="46.38661321403054" lon="13.002452211171791"><ele>405.0</ele><time>2026-04-12T13:36:20Z</time></trkpt><trkpt lat="46.386567864988535" lon="13.002243450318883"><ele>406.0</ele><time>2026-04-12T13:36:21Z</time></trkpt><trkpt lat="46.38650931914209" lon="13.0020411069349"><ele>407.0</ele><time>2026-04-12T13:36:22Z</time></trkpt><trkpt lat="46.386446623783414" lon="13.001847326852308"><ele>408.0</ele><time>2026-04-12T13:36:23Z</time></trkpt><trkpt lat="46.386388546048096" lon="13.001667769776528"><ele>409.0</ele><time>2026-04-12T13:36:24Z</time></trkpt><trkpt lat="46.386345854490926" lon="13.00147551838324"><ele>409.25</ele><time>2026-04-12T13:36:25Z</time></trkpt><trkpt lat="46.38632549469379" lon="13.001265098803575"><ele>409.5</ele><time>2026-04-12T13:36:26Z</time></trkpt><trkpt lat="46.38631647637263" lon="13.001053605922229"><ele>409.75</ele><time>2026-04-12T13:36:27Z</time></trkpt><trkpt lat="46.38632910275714" lon="13.00083917491131"><ele>410.0</ele><time>2026-04-12T13:36:28Z</time></trkpt><trkpt lat="46.38636382161913" lon="13.00061211765319"><ele>410.0</ele><time>2026-04-12T13:36:29Z</time></trkpt><trkpt lat="46.386410610379436" lon="13.000374424959187"><ele>410.0</ele><time>2026-04-12T13:36:30Z</time></trkpt><trkpt lat="46.38645829183165" lon="13.000115446104099"><ele>410.0</ele><time>2026-04-12T13:36:31Z</time></trkpt><trkpt lat="46.38650424418767" lon="12.999852611573354"><ele>410.0</ele><time>2026-04-12T13:36:32Z</time></trkpt><trkpt lat="46.38654015282832" lon="12.999629280938315"><ele>410.0</ele><time>2026-04-12T13:36:33Z</time></trkpt><trkpt lat="46.38658283001934" lon="12.999425891309267"><ele>410.0</ele><time>2026-04-12T13:36:34Z</time></trkpt><trkpt lat="46.38664653579707" lon="12.999234380592643"><ele>409.5</ele><time>2026-04-12T13:36:35Z</time></trkpt><trkpt lat="46.38673944733114" lon="12.999069939166665"><ele>409.0</ele><time>2026-04-12T13:36:36Z</time></trkpt><trkpt lat="46.38683805541184" lon="12.99891086862194"><ele>408.5</ele><time>2026-04-12T13:36:37Z</time></trkpt><trkpt lat="46.38691514479894" lon="12.9987241071672"><ele>408.0</ele><time>2026-04-12T13:36:38Z</time></trkpt><trkpt lat="46.38696936885544" lon="12.998509348770192"><ele>407.66666666666663</ele><time>2026-04-12T13:36:39Z</time></trkpt><trkpt lat="46.387008780244564" lon="12.998272850226877"><ele>407.3333333333333</ele><time>2026-04-12T13:36:40Z</time></trkpt><trkpt lat="46.38703340315332" lon="12.998052291192595"><ele>407.0</ele><time>2026-04-12T13:36:41Z</time></trkpt><trkpt lat="46.387061248207246" lon="12.997843999496698"><ele>407.0</ele><time>2026-04-12T13:36:42Z</time></trkpt><trkpt lat="46.387096260420996" lon="12.997630160295603"><ele>407.0</ele><time>2026-04-12T13:36:43Z</time></trkpt><trkpt lat="46.38713082336779" lon="12.997421939791066"><ele>407.0</ele><time>2026-04-12T13:36:44Z</time></trkpt><trkpt lat="46.38718447733006" lon="12.997214771407572"><ele>410.66666666666663</ele><time>2026-04-12T13:36:45Z</time></trkpt><trkpt lat="46.3872597895057" lon="12.997002482794551"><ele>414.33333333333337</ele><time>2026-04-12T13:36:46Z</time></trkpt><trkpt lat="46.38733762145947" lon="12.9968073610865"><ele>418.0</ele><time>2026-04-12T13:36:47Z</time></trkpt><trkpt lat="46.38741265396803" lon="12.99664081254526"><ele>418.0</ele><time>2026-04-12T13:36:48Z</time></trkpt><trkpt lat="46.3875045064025" lon="12.996490488635992"><ele>418.0</ele><time>2026-04-12T13:36:48.999Z</time></trkpt><trkpt lat="46.38761650555869" lon="12.996360746111103"><ele>418.0</ele><time>2026-04-12T13:36:49.999Z</time></trkpt><trkpt lat="46.3877420096955" lon="12.99626739826511"><ele>418.0</ele><time>2026-04-12T13:36:50.999Z</time></trkpt><trkpt lat="46.387883260051154" lon="12.996215208623104"><ele>431.0</ele><time>2026-04-12T13:36:51.999Z</time></trkpt><trkpt lat="46.388037014378554" lon="12.996176548374882"><ele>444.0</ele><time>2026-04-12T13:36:52.999Z</time></trkpt><trkpt lat="46.38819607900746" lon="12.996126972467703"><ele>457.0</ele><time>2026-04-12T13:36:53.999Z</time></trkpt><trkpt lat="46.38835659917222" lon="12.996054227515671"><ele>457.0</ele><time>2026-04-12T13:36:54.999Z</time></trkpt><trkpt lat="46.38850988249791" lon="12.995957303383921"><ele>457.0</ele><time>2026-04-12T13:36:55.999Z</time></trkpt><trkpt lat="46.38865142316168" lon="12.995864538105586"><ele>457.0</ele><time>2026-04-12T13:36:56.999Z</time></trkpt><trkpt lat="46.38878729002965" lon="12.995781087540887"><ele>450.75</ele><time>2026-04-12T13:36:57.999Z</time></trkpt><trkpt lat="46.38890830078684" lon="12.995681920536109"><ele>444.5</ele><time>2026-04-12T13:36:58.999Z</time></trkpt><trkpt lat="46.38900778761328" lon="12.995570070843725"><ele>438.25</ele><time>2026-04-12T13:36:59.999Z</time></trkpt><trkpt lat="46.389092980978546" lon="12.995436316945167"><ele>432.0</ele><time>2026-04-12T13:37:00.999Z</time></trkpt><trkpt lat="46.38916032504914" lon="12.995286970376753"><ele>432.0</ele><time>2026-04-12T13:37:01.999Z</time></trkpt><trkpt lat="46.38920542138649" lon="12.99511628270865"><ele>432.0</ele><time>2026-04-12T13:37:02.999Z</time></trkpt><trkpt lat="46.38924035738098" lon="12.994947556815445"><ele>432.0</ele><time>2026-04-12T13:37:03.999Z</time></trkpt><trkpt lat="46.389271678649365" lon="12.994779181188195"><ele>432.0</ele><time>2026-04-12T13:37:04.999Z</time></trkpt><trkpt lat="46.389287338365854" lon="12.994611437851876"><ele>425.0</ele><time>2026-04-12T13:37:05.999Z</time></trkpt><trkpt lat="46.38926932786385" lon="12.994444729719902"><ele>418.0</ele><time>2026-04-12T13:37:06.999Z</time></trkpt><trkpt lat="46.389217735603104" lon="12.994292900883025"><ele>411.0</ele><time>2026-04-12T13:37:07.999Z</time></trkpt><trkpt lat="46.38915176912441" lon="12.994146245001797"><ele>404.0</ele><time>2026-04-12T13:37:08.999Z</time></trkpt><trkpt lat="46.38907829222831" lon="12.993982917908797"><ele>403.75</ele><time>2026-04-12T13:37:09.999Z</time></trkpt><trkpt lat="46.38900471738273" lon="12.993820092606857"><ele>403.5</ele><time>2026-04-12T13:37:10.999Z</time></trkpt><trkpt lat="46.38893810466207" lon="12.993664258791382"><ele>403.25</ele><time>2026-04-12T13:37:11.999Z</time></trkpt><trkpt lat="46.38887156173654" lon="12.993512175737264"><ele>403.0</ele><time>2026-04-12T13:37:12.999Z</time></trkpt><trkpt lat="46.388803137436106" lon="12.993357853094457"><ele>404.75</ele><time>2026-04-12T13:37:13.999Z</time></trkpt><trkpt lat="46.388733010421056" lon="12.993204931627025"><ele>406.5</ele><time>2026-04-12T13:37:14.999Z</time></trkpt><trkpt lat="46.38866360346098" lon="12.993050488978593"><ele>408.25</ele><time>2026-04-12T13:37:15.999Z</time></trkpt><trkpt lat="46.38859564227193" lon="12.992899464468925"><ele>410.0</ele><time>2026-04-12T13:37:16.999Z</time></trkpt><trkpt lat="46.38853246406685" lon="12.992768096440065"><ele>409.99999999999994</ele><time>2026-04-12T13:37:17.999Z</time></trkpt><trkpt lat="46.38848121810577" lon="12.99269023551314"><ele>410.0</ele><time>2026-04-12T13:37:18.999Z</time></trkpt><trkpt lat="46.38837429224563" lon="12.992658590252384"><ele>410.0</ele><time>2026-04-12T13:37:20.999Z</time></trkpt><trkpt lat="46.38831708355769" lon="12.992703121111687"><ele>410.0</ele><time>2026-04-12T13:37:21.999Z</time></trkpt><trkpt lat="46.3882527250651" lon="12.992733599515237"><ele>409.99999999999994</ele><time>2026-04-12T13:37:22.999Z</time></trkpt><trkpt lat="46.38818146880525" lon="12.992815752720123"><ele>410.0</ele><time>2026-04-12T13:37:23.999Z</time></trkpt><trkpt lat="46.388105599400376" lon="12.992902208652966"><ele>410.0</ele><time>2026-04-12T13:37:24.999Z</time></trkpt><trkpt lat="46.388013170857164" lon="12.992996895181314"><ele>410.0</ele><time>2026-04-12T13:37:25.999Z</time></trkpt><trkpt lat="46.387922189051615" lon="12.993092611934864"><ele>410.0</ele><time>2026-04-12T13:37:26.999Z</time></trkpt><trkpt lat="46.38780837389505" lon="12.993128930095548"><ele>410.0</ele><time>2026-04-12T13:37:27.999Z</time></trkpt><trkpt lat="46.38768384815768" lon="12.99310628107872"><ele>412.0</ele><time>2026-04-12T13:37:28.999Z</time></trkpt><trkpt lat="46.38754948214171" lon="12.993066809026852"><ele>414.0</ele><time>2026-04-12T13:37:29.999Z</time></trkpt><trkpt lat="46.38740109177238" lon="12.993049949308615"><ele>416.0</ele><time>2026-04-12T13:37:30.999Z</time></trkpt><trkpt lat="46.387248202664615" lon="12.993034387761284"><ele>418.0</ele><time>2026-04-12T13:37:31.999Z</time></trkpt><trkpt lat="46.38710745313301" lon="12.993041754804986"><ele>421.0</ele><time>2026-04-12T13:37:32.999Z</time></trkpt><trkpt lat="46.38696510108863" lon="12.993058884976726"><ele>424.0</ele><time>2026-04-12T13:37:33.999Z</time></trkpt><trkpt lat="46.386827170899664" lon="12.993073801519104"><ele>427.0</ele><time>2026-04-12T13:37:34.999Z</time></trkpt><trkpt lat="46.3867003305359" lon="12.993083491913033"><ele>430.0</ele><time>2026-04-12T13:37:35.999Z</time></trkpt><trkpt lat="46.38658022904574" lon="12.99307156676115"><ele>430.0</ele><time>2026-04-12T13:37:36.999Z</time></trkpt><trkpt lat="46.3864601772816" lon="12.993032215253232"><ele>430.0</ele><time>2026-04-12T13:37:37.999Z</time></trkpt><trkpt lat="46.386329624194836" lon="12.992979171125326"><ele>430.0</ele><time>2026-04-12T13:37:38.999Z</time></trkpt><trkpt lat="46.38619254299836" lon="12.992922033092508"><ele>430.0</ele><time>2026-04-12T13:37:39.999Z</time></trkpt><trkpt lat="46.38605127625643" lon="12.992868269521521"><ele>433.75</ele><time>2026-04-12T13:37:40.999Z</time></trkpt><trkpt lat="46.38591285496986" lon="12.992810881568431"><ele>437.5</ele><time>2026-04-12T13:37:41.999Z</time></trkpt><trkpt lat="46.38577996340968" lon="12.992753620474746"><ele>441.25</ele><time>2026-04-12T13:37:42.999Z</time></trkpt><trkpt lat="46.38565893518303" lon="12.99269985748882"><ele>445.0</ele><time>2026-04-12T13:37:44Z</time></trkpt><trkpt lat="46.38553555868706" lon="12.992634346641536"><ele>445.0</ele><time>2026-04-12T13:37:45Z</time></trkpt><trkpt lat="46.38541438366442" lon="12.992535647284658"><ele>445.0</ele><time>2026-04-12T13:37:46Z</time></trkpt><trkpt lat="46.385291873422446" lon="12.992412618843565"><ele>445.0</ele><time>2026-04-12T13:37:47Z</time></trkpt><trkpt lat="46.385167902108535" lon="12.99227834432794"><ele>445.0</ele><time>2026-04-12T13:37:48Z</time></trkpt><trkpt lat="46.38505118981531" lon="12.992151739035597"><ele>445.0</ele><time>2026-04-12T13:37:49Z</time></trkpt><trkpt lat="46.38493723641604" lon="12.99205494585156"><ele>445.0</ele><time>2026-04-12T13:37:50Z</time></trkpt><trkpt lat="46.38481820539689" lon="12.991996555902604"><ele>445.0</ele><time>2026-04-12T13:37:51Z</time></trkpt><trkpt lat="46.38468872807107" lon="12.991995069678731"><ele>445.0</ele><time>2026-04-12T13:37:52Z</time></trkpt><trkpt lat="46.38455004585397" lon="12.992026383553963"><ele>445.5</ele><time>2026-04-12T13:37:53Z</time></trkpt><trkpt lat="46.384401930257084" lon="12.99203605954511"><ele>446.0</ele><time>2026-04-12T13:37:54Z</time></trkpt><trkpt lat="46.38425609406024" lon="12.992067083793774"><ele>446.5</ele><time>2026-04-12T13:37:55Z</time></trkpt><trkpt lat="46.384123302330295" lon="12.992094954433366"><ele>447.0</ele><time>2026-04-12T13:37:56Z</time></trkpt><trkpt lat="46.38399426385801" lon="12.99213053924439"><ele>447.0</ele><time>2026-04-12T13:37:57Z</time></trkpt><trkpt lat="46.383856603119185" lon="12.992106145605264"><ele>447.0</ele><time>2026-04-12T13:37:58Z</time></trkpt><trkpt lat="46.38371588145677" lon="12.992047949976204"><ele>447.0</ele><time>2026-04-12T13:37:59Z</time></trkpt><trkpt lat="46.383578474389566" lon="12.991940320041815"><ele>447.0</ele><time>2026-04-12T13:38:00Z</time></trkpt><trkpt lat="46.38344159038706" lon="12.991804568367703"><ele>448.33333333333337</ele><time>2026-04-12T13:38:01Z</time></trkpt><trkpt lat="46.383300010630016" lon="12.991667480704406"><ele>449.6666666666667</ele><time>2026-04-12T13:38:02Z</time></trkpt><trkpt lat="46.38316790362723" lon="12.991535178821568"><ele>451.0</ele><time>2026-04-12T13:38:03Z</time></trkpt><trkpt lat="46.38305913253467" lon="12.991388664579148"><ele>452.25</ele><time>2026-04-12T13:38:04Z</time></trkpt><trkpt lat="46.38297588898667" lon="12.991225352638185"><ele>453.5</ele><time>2026-04-12T13:38:05Z</time></trkpt><trkpt lat="46.38290684451847" lon="12.991044922630286"><ele>454.75</ele><time>2026-04-12T13:38:06Z</time></trkpt><trkpt lat="46.382838039733805" lon="12.990851216717308"><ele>456.0</ele><time>2026-04-12T13:38:07Z</time></trkpt><trkpt lat="46.38277025564141" lon="12.9906565983468"><ele>457.25</ele><time>2026-04-12T13:38:08Z</time></trkpt><trkpt lat="46.38270448537456" lon="12.990469612859135"><ele>458.5</ele><time>2026-04-12T13:38:09Z</time></trkpt><trkpt lat="46.38264926016584" lon="12.990284215597844"><ele>459.75</ele><time>2026-04-12T13:38:10Z</time></trkpt><trkpt lat="46.38262303490893" lon="12.990093857897852"><ele>461.0</ele><time>2026-04-12T13:38:11Z</time></trkpt><trkpt lat="46.38262594477564" lon="12.989903594422271"><ele>462.75</ele><time>2026-04-12T13:38:12Z</time></trkpt><trkpt lat="46.38265685734568" lon="12.989714560887718"><ele>464.5</ele><time>2026-04-12T13:38:13Z</time></trkpt><trkpt lat="46.38271154020588" lon="12.989521173338686"><ele>466.25</ele><time>2026-04-12T13:38:14Z</time></trkpt><trkpt lat="46.382764118837855" lon="12.989324962956553"><ele>468.0</ele><time>2026-04-12T13:38:15Z</time></trkpt><trkpt lat="46.38280373327024" lon="12.989122335099768"><ele>469.0</ele><time>2026-04-12T13:38:16Z</time></trkpt><trkpt lat="46.38283229536808" lon="12.988914599671302"><ele>470.0</ele><time>2026-04-12T13:38:17Z</time></trkpt><trkpt lat="46.38284561201161" lon="12.988700009258515"><ele>471.0</ele><time>2026-04-12T13:38:18Z</time></trkpt><trkpt lat="46.3828431125447" lon="12.98847793155417"><ele>472.0</ele><time>2026-04-12T13:38:19Z</time></trkpt><trkpt lat="46.38282545746008" lon="12.988259085592254"><ele>472.6666666666667</ele><time>2026-04-12T13:38:20Z</time></trkpt><trkpt lat="46.38280327881294" lon="12.988042829147368"><ele>473.33333333333337</ele><time>2026-04-12T13:38:21Z</time></trkpt><trkpt lat="46.38277923866177" lon="12.987817593436194"><ele>474.0</ele><time>2026-04-12T13:38:22Z</time></trkpt><trkpt lat="46.38275604703933" lon="12.987575529984897"><ele>474.66666666666663</ele><time>2026-04-12T13:38:23Z</time></trkpt><trkpt lat="46.382732760383156" lon="12.987326206523173"><ele>475.3333333333333</ele><time>2026-04-12T13:38:24Z</time></trkpt><trkpt lat="46.382709944398755" lon="12.987083840587188"><ele>476.0</ele><time>2026-04-12T13:38:25Z</time></trkpt><trkpt lat="46.38269258855002" lon="12.986855808143433"><ele>475.75</ele><time>2026-04-12T13:38:26Z</time></trkpt><trkpt lat="46.38269317252252" lon="12.98664656280314"><ele>475.5</ele><time>2026-04-12T13:38:27Z</time></trkpt><trkpt lat="46.38271322475145" lon="12.986444587964149"><ele>475.25</ele><time>2026-04-12T13:38:28Z</time></trkpt><trkpt lat="46.38275220370262" lon="12.986231169942487"><ele>475.0</ele><time>2026-04-12T13:38:29Z</time></trkpt><trkpt lat="46.38279060326552" lon="12.985998987659775"><ele>474.6666666666667</ele><time>2026-04-12T13:38:30Z</time></trkpt><trkpt lat="46.382826395750264" lon="12.98576086672627"><ele>474.33333333333337</ele><time>2026-04-12T13:38:31Z</time></trkpt><trkpt lat="46.38286419163558" lon="12.985538150071461"><ele>474.0</ele><time>2026-04-12T13:38:32Z</time></trkpt><trkpt lat="46.382907364050055" lon="12.985329925290209"><ele>474.0</ele><time>2026-04-12T13:38:33Z</time></trkpt><trkpt lat="46.38296728189931" lon="12.9851351314837"><ele>474.0</ele><time>2026-04-12T13:38:34Z</time></trkpt><trkpt lat="46.383054257425364" lon="12.984959251321833"><ele>474.0</ele><time>2026-04-12T13:38:35Z</time></trkpt><trkpt lat="46.383145346360585" lon="12.984791840398906"><ele>474.0</ele><time>2026-04-12T13:38:36Z</time></trkpt><trkpt lat="46.383227747303785" lon="12.98462920614738"><ele>479.0</ele><time>2026-04-12T13:38:37Z</time></trkpt><trkpt lat="46.383293317146276" lon="12.984449201305054"><ele>484.0</ele><time>2026-04-12T13:38:38Z</time></trkpt><trkpt lat="46.38333645927941" lon="12.984234989680026"><ele>489.0</ele><time>2026-04-12T13:38:39Z</time></trkpt><trkpt lat="46.383360655959656" lon="12.983997917167699"><ele>489.0</ele><time>2026-04-12T13:38:40Z</time></trkpt><trkpt lat="46.38338300891133" lon="12.983743646764948"><ele>489.0</ele><time>2026-04-12T13:38:41Z</time></trkpt><trkpt lat="46.383411479361" lon="12.983479395502844"><ele>489.0</ele><time>2026-04-12T13:38:42Z</time></trkpt><trkpt lat="46.383438614731524" lon="12.983216756334931"><ele>490.0</ele><time>2026-04-12T13:38:43Z</time></trkpt><trkpt lat="46.38346376052334" lon="12.982948714092274"><ele>491.0</ele><time>2026-04-12T13:38:44Z</time></trkpt><trkpt lat="46.38349138732707" lon="12.982678963119929"><ele>492.0</ele><time>2026-04-12T13:38:45Z</time></trkpt><trkpt lat="46.38352220272485" lon="12.982407884469602"><ele>495.0</ele><time>2026-04-12T13:38:46Z</time></trkpt><trkpt lat="46.38355082343163" lon="12.98213546013445"><ele>498.0</ele><time>2026-04-12T13:38:47Z</time></trkpt><trkpt lat="46.38357835155264" lon="12.981870395050558"><ele>501.0</ele><time>2026-04-12T13:38:48Z</time></trkpt><trkpt lat="46.383603733168066" lon="12.981616197392082"><ele>502.33333333333337</ele><time>2026-04-12T13:38:48.999Z</time></trkpt><trkpt lat="46.38363250290265" lon="12.981369326959454"><ele>503.6666666666667</ele><time>2026-04-12T13:38:49.999Z</time></trkpt><trkpt lat="46.383667904856" lon="12.981128461015901"><ele>505.0</ele><time>2026-04-12T13:38:50.999Z</time></trkpt><trkpt lat="46.38371060938229" lon="12.98088862841941"><ele>506.0</ele><time>2026-04-12T13:38:51.999Z</time></trkpt><trkpt lat="46.383752326292544" lon="12.980654134232916"><ele>507.0</ele><time>2026-04-12T13:38:52.999Z</time></trkpt><trkpt lat="46.3837946800621" lon="12.980415783243057"><ele>508.0</ele><time>2026-04-12T13:38:53.999Z</time></trkpt><trkpt lat="46.383838438471436" lon="12.980176763492903"><ele>511.0</ele><time>2026-04-12T13:38:54.999Z</time></trkpt><trkpt lat="46.38388201329029" lon="12.979937852873297"><ele>514.0</ele><time>2026-04-12T13:38:55.999Z</time></trkpt><trkpt lat="46.38392527816583" lon="12.979696344126003"><ele>517.0</ele><time>2026-04-12T13:38:56.999Z</time></trkpt><trkpt lat="46.38396825505205" lon="12.979468936009791"><ele>517.0</ele><time>2026-04-12T13:38:57.999Z</time></trkpt><trkpt lat="46.38399662683318" lon="12.979289881539875"><ele>517.0</ele><time>2026-04-12T13:38:58.999Z</time></trkpt><trkpt lat="46.384007336459526" lon="12.97913765749695"><ele>517.0</ele><time>2026-04-12T13:38:59.999Z</time></trkpt><trkpt lat="46.38399215129923" lon="12.978997920793512"><ele>517.0</ele><time>2026-04-12T13:39:00.999Z</time></trkpt><trkpt lat="46.38395123439665" lon="12.978874049173156"><ele>517.0</ele><time>2026-04-12T13:39:01.999Z</time></trkpt><trkpt lat="46.38388479671585" lon="12.978762538027073"><ele>518.5</ele><time>2026-04-12T13:39:02.999Z</time></trkpt><trkpt lat="46.38379980481526" lon="12.978659559013751"><ele>520.0</ele><time>2026-04-12T13:39:03.999Z</time></trkpt><trkpt lat="46.383700682224664" lon="12.978553455833506"><ele>521.5</ele><time>2026-04-12T13:39:04.999Z</time></trkpt><trkpt lat="46.38359782728696" lon="12.978447281599852"><ele>523.0</ele><time>2026-04-12T13:39:05.999Z</time></trkpt><trkpt lat="46.38349471335382" lon="12.978337896898427"><ele>523.0</ele><time>2026-04-12T13:39:06.999Z</time></trkpt><trkpt lat="46.383391674030854" lon="12.978228218098867"><ele>523.0</ele><time>2026-04-12T13:39:07.999Z</time></trkpt><trkpt lat="46.38330104801784" lon="12.978142938168432"><ele>523.0</ele><time>2026-04-12T13:39:08.999Z</time></trkpt><trkpt lat="46.383224557958776" lon="12.978061565944895"><ele>523.0</ele><time>2026-04-12T13:39:09.999Z</time></trkpt><trkpt lat="46.383165186374846" lon="12.977964747560641"><ele>523.0</ele><time>2026-04-12T13:39:10.999Z</time></trkpt><trkpt lat="46.383126245560746" lon="12.97784191584381"><ele>523.0</ele><time>2026-04-12T13:39:11.999Z</time></trkpt><trkpt lat="46.38311098765456" lon="12.97770350321512"><ele>523.0</ele><time>2026-04-12T13:39:12.999Z</time></trkpt><trkpt lat="46.383118406308746" lon="12.977558465208649"><ele>523.0</ele><time>2026-04-12T13:39:13.999Z</time></trkpt><trkpt lat="46.3831474946913" lon="12.977406279351378"><ele>523.0</ele><time>2026-04-12T13:39:14.999Z</time></trkpt><trkpt lat="46.38319526996572" lon="12.977243722812918"><ele>523.0</ele><time>2026-04-12T13:39:15.999Z</time></trkpt><trkpt lat="46.38323854375655" lon="12.97705492448443"><ele>523.0</ele><time>2026-04-12T13:39:16.999Z</time></trkpt><trkpt lat="46.38329254559349" lon="12.976833828772566"><ele>523.0</ele><time>2026-04-12T13:39:17.999Z</time></trkpt><trkpt lat="46.38334307597162" lon="12.976625274577502"><ele>523.0</ele><time>2026-04-12T13:39:18.999Z</time></trkpt><trkpt lat="46.38339221074135" lon="12.976422097821528"><ele>523.6666666666667</ele><time>2026-04-12T13:39:19.999Z</time></trkpt><trkpt lat="46.38344179387623" lon="12.976211635707664"><ele>524.3333333333334</ele><time>2026-04-12T13:39:20.999Z</time></trkpt><trkpt lat="46.38349561710235" lon="12.975985305045192"><ele>525.0</ele><time>2026-04-12T13:39:21.999Z</time></trkpt><trkpt lat="46.38355195010376" lon="12.975747443681618"><ele>525.0</ele><time>2026-04-12T13:39:22.999Z</time></trkpt><trkpt lat="46.38360404124683" lon="12.975519638506174"><ele>525.0</ele><time>2026-04-12T13:39:23.999Z</time></trkpt><trkpt lat="46.383648457152205" lon="12.975317454133318"><ele>525.0</ele><time>2026-04-12T13:39:24.999Z</time></trkpt><trkpt lat="46.38367738493337" lon="12.97513554778516"><ele>525.0</ele><time>2026-04-12T13:39:25.999Z</time></trkpt><trkpt lat="46.38368925554676" lon="12.9749444845298"><ele>525.0</ele><time>2026-04-12T13:39:26.999Z</time></trkpt><trkpt lat="46.38368051557095" lon="12.974754948267917"><ele>525.0</ele><time>2026-04-12T13:39:27.999Z</time></trkpt><trkpt lat="46.38365821704484" lon="12.974571556516112"><ele>525.0</ele><time>2026-04-12T13:39:28.999Z</time></trkpt><trkpt lat="46.383618924625246" lon="12.97438485101715"><ele>525.0</ele><time>2026-04-12T13:39:29.999Z</time></trkpt><trkpt lat="46.383555739563235" lon="12.9741955298021"><ele>525.75</ele><time>2026-04-12T13:39:30.999Z</time></trkpt><trkpt lat="46.38346831721361" lon="12.974019531632035"><ele>526.5</ele><time>2026-04-12T13:39:31.999Z</time></trkpt><trkpt lat="46.383367057523905" lon="12.973862885157402"><ele>527.25</ele><time>2026-04-12T13:39:32.999Z</time></trkpt><trkpt lat="46.383255379459634" lon="12.973726254641974"><ele>528.0</ele><time>2026-04-12T13:39:33.999Z</time></trkpt><trkpt lat="46.38313122877252" lon="12.97362138949306"><ele>527.0</ele><time>2026-04-12T13:39:34.999Z</time></trkpt><trkpt lat="46.38299780184695" lon="12.973542090335183"><ele>526.0</ele><time>2026-04-12T13:39:35.999Z</time></trkpt><trkpt lat="46.38286416808101" lon="12.973463863079887"><ele>525.0</ele><time>2026-04-12T13:39:36.999Z</time></trkpt><trkpt lat="46.38273693681683" lon="12.973380623117805"><ele>524.0</ele><time>2026-04-12T13:39:37.999Z</time></trkpt><trkpt lat="46.38261480084608" lon="12.973301249148545"><ele>524.0</ele><time>2026-04-12T13:39:38.999Z</time></trkpt><trkpt lat="46.38249552245235" lon="12.973223864661662"><ele>524.0</ele><time>2026-04-12T13:39:39.999Z</time></trkpt><trkpt lat="46.38237681503107" lon="12.973143580099386"><ele>524.0</ele><time>2026-04-12T13:39:40.999Z</time></trkpt><trkpt lat="46.382258141820415" lon="12.973061420427706"><ele>524.0</ele><time>2026-04-12T13:39:41.999Z</time></trkpt><trkpt lat="46.38214059255017" lon="12.972959303800682"><ele>524.0</ele><time>2026-04-12T13:39:42.999Z</time></trkpt><trkpt lat="46.382029708099275" lon="12.972832801790055"><ele>524.0</ele><time>2026-04-12T13:39:43.999Z</time></trkpt><trkpt lat="46.381920860091974" lon="12.972678019277849"><ele>524.0</ele><time>2026-04-12T13:39:44.999Z</time></trkpt><trkpt lat="46.38181889217841" lon="12.972500306261235"><ele>524.0</ele><time>2026-04-12T13:39:45.999Z</time></trkpt><trkpt lat="46.38173147440612" lon="12.972306965265608"><ele>524.0</ele><time>2026-04-12T13:39:46.999Z</time></trkpt><trkpt lat="46.38165506656222" lon="12.972142926060942"><ele>524.0</ele><time>2026-04-12T13:39:47.999Z</time></trkpt><trkpt lat="46.38158520187692" lon="12.972002402268044"><ele>524.0</ele><time>2026-04-12T13:39:48.999Z</time></trkpt><trkpt lat="46.38152866105415" lon="12.97186843868647"><ele>524.0</ele><time>2026-04-12T13:39:50Z</time></trkpt><trkpt lat="46.381504485708895" lon="12.971726464027967"><ele>524.0</ele><time>2026-04-12T13:39:51Z</time></trkpt><trkpt lat="46.381518536663656" lon="12.971574950214027"><ele>524.0</ele><time>2026-04-12T13:39:52Z</time></trkpt><trkpt lat="46.38156641879137" lon="12.971428407436255"><ele>524.0</ele><time>2026-04-12T13:39:53Z</time></trkpt><trkpt lat="46.38164116768922" lon="12.971292588216228"><ele>524.0</ele><time>2026-04-12T13:39:54Z</time></trkpt><trkpt lat="46.38171216686393" lon="12.971145295434969"><ele>525.0</ele><time>2026-04-12T13:39:55Z</time></trkpt><trkpt lat="46.381770493848556" lon="12.9709772986134"><ele>526.0</ele><time>2026-04-12T13:39:56Z</time></trkpt><trkpt lat="46.381806432858355" lon="12.970785869075575"><ele>527.0</ele><time>2026-04-12T13:39:57Z</time></trkpt><trkpt lat="46.38181504496875" lon="12.97057760307667"><ele>528.0</ele><time>2026-04-12T13:39:58Z</time></trkpt><trkpt lat="46.381811967134205" lon="12.970354681035232"><ele>525.25</ele><time>2026-04-12T13:39:59Z</time></trkpt><trkpt lat="46.38179916463776" lon="12.970134288908087"><ele>522.5</ele><time>2026-04-12T13:40:00Z</time></trkpt><trkpt lat="46.38179344191454" lon="12.969944866391813"><ele>519.75</ele><time>2026-04-12T13:40:01Z</time></trkpt><trkpt lat="46.381801820521495" lon="12.969762728431093"><ele>517.0</ele><time>2026-04-12T13:40:02Z</time></trkpt><trkpt lat="46.38182896188646" lon="12.969578829840618"><ele>516.25</ele><time>2026-04-12T13:40:03Z</time></trkpt><trkpt lat="46.38187577057453" lon="12.96940820852486"><ele>515.5</ele><time>2026-04-12T13:40:04Z</time></trkpt><trkpt lat="46.38192175211059" lon="12.96925340142112"><ele>514.75</ele><time>2026-04-12T13:40:05Z</time></trkpt><trkpt lat="46.381980027593244" lon="12.969110410209161"><ele>514.0</ele><time>2026-04-12T13:40:06Z</time></trkpt><trkpt lat="46.38207071692411" lon="12.96899209176658"><ele>520.5</ele><time>2026-04-12T13:40:07Z</time></trkpt><trkpt lat="46.38220101707429" lon="12.968941707324172"><ele>527.0</ele><time>2026-04-12T13:40:08Z</time></trkpt><trkpt lat="46.38233683711358" lon="12.968872430576956"><ele>533.5</ele><time>2026-04-12T13:40:09Z</time></trkpt><trkpt lat="46.382458406479" lon="12.968831633932673"><ele>540.0</ele><time>2026-04-12T13:40:10Z</time></trkpt><trkpt lat="46.382571067280914" lon="12.968775131896408"><ele>540.0</ele><time>2026-04-12T13:40:11Z</time></trkpt><trkpt lat="46.38267712603424" lon="12.968697531942182"><ele>540.0</ele><time>2026-04-12T13:40:12Z</time></trkpt><trkpt lat="46.3827727931411" lon="12.968585529881832"><ele>540.0</ele><time>2026-04-12T13:40:13Z</time></trkpt><trkpt lat="46.38285121493954" lon="12.968446384739822"><ele>540.0</ele><time>2026-04-12T13:40:14Z</time></trkpt><trkpt lat="46.38291865950428" lon="12.968280914889322"><ele>540.6666666666666</ele><time>2026-04-12T13:40:15Z</time></trkpt><trkpt lat="46.3829934414291" lon="12.968100064237246"><ele>541.3333333333333</ele><time>2026-04-12T13:40:16Z</time></trkpt><trkpt lat="46.38309103915401" lon="12.967921555780347"><ele>542.0</ele><time>2026-04-12T13:40:17Z</time></trkpt><trkpt lat="46.38320428791785" lon="12.967735028414921"><ele>542.0</ele><time>2026-04-12T13:40:18Z</time></trkpt><trkpt lat="46.38331928279035" lon="12.967537040190305"><ele>542.0</ele><time>2026-04-12T13:40:19Z</time></trkpt><trkpt lat="46.383429802612845" lon="12.967362519140668"><ele>542.0</ele><time>2026-04-12T13:40:20Z</time></trkpt><trkpt lat="46.38353179289505" lon="12.967204472064974"><ele>535.75</ele><time>2026-04-12T13:40:21Z</time></trkpt><trkpt lat="46.383630571531" lon="12.967063911744807"><ele>529.5</ele><time>2026-04-12T13:40:22Z</time></trkpt><trkpt lat="46.38372691154647" lon="12.966935494884806"><ele>523.25</ele><time>2026-04-12T13:40:23Z</time></trkpt><trkpt lat="46.38380076331641" lon="12.966791433629242"><ele>517.0</ele><time>2026-04-12T13:40:24Z</time></trkpt><trkpt lat="46.3838386380958" lon="12.966611141350466"><ele>520.25</ele><time>2026-04-12T13:40:25Z</time></trkpt><trkpt lat="46.38385312706211" lon="12.966423285902266"><ele>523.5</ele><time>2026-04-12T13:40:26Z</time></trkpt><trkpt lat="46.383874965129635" lon="12.96625538013794"><ele>526.75</ele><time>2026-04-12T13:40:27Z</time></trkpt><trkpt lat="46.38392675132977" lon="12.966089093180992"><ele>530.0</ele><time>2026-04-12T13:40:28Z</time></trkpt><trkpt lat="46.384014967542704" lon="12.965930627308596"><ele>525.5</ele><time>2026-04-12T13:40:29Z</time></trkpt><trkpt lat="46.384104123461654" lon="12.965761252598327"><ele>521.0</ele><time>2026-04-12T13:40:30Z</time></trkpt><trkpt lat="46.384189504324304" lon="12.96558322411755"><ele>516.5</ele><time>2026-04-12T13:40:31Z</time></trkpt><trkpt lat="46.38426641188139" lon="12.965427985642764"><ele>512.0</ele><time>2026-04-12T13:40:32Z</time></trkpt><trkpt lat="46.38433504922119" lon="12.965283547642155"><ele>512.0</ele><time>2026-04-12T13:40:33Z</time></trkpt><trkpt lat="46.384396363835585" lon="12.965143172969158"><ele>512.0</ele><time>2026-04-12T13:40:34Z</time></trkpt><trkpt lat="46.38444844276145" lon="12.965000530915143"><ele>512.0</ele><time>2026-04-12T13:40:35Z</time></trkpt><trkpt lat="46.384488216887235" lon="12.964866242256232"><ele>512.0</ele><time>2026-04-12T13:40:36Z</time></trkpt><trkpt lat="46.38452580500618" lon="12.964742603268014"><ele>512.0</ele><time>2026-04-12T13:40:37Z</time></trkpt><trkpt lat="46.38455630102974" lon="12.964628148079603"><ele>509.40000000000003</ele><time>2026-04-12T13:40:38Z</time></trkpt><trkpt lat="46.384561036080605" lon="12.964511478406342"><ele>506.80000000000007</ele><time>2026-04-12T13:40:39Z</time></trkpt><trkpt lat="46.384531436861" lon="12.964390868412053"><ele>504.2</ele><time>2026-04-12T13:40:40Z</time></trkpt><trkpt lat="46.38446016890305" lon="12.964288588248557"><ele>501.6</ele><time>2026-04-12T13:40:41Z</time></trkpt><trkpt lat="46.38436728764726" lon="12.964199258997063"><ele>499.0</ele><time>2026-04-12T13:40:42Z</time></trkpt><trkpt lat="46.384268026130485" lon="12.964125763910344"><ele>499.00000000000006</ele><time>2026-04-12T13:40:43Z</time></trkpt><trkpt lat="46.38418250158362" lon="12.964067780855414"><ele>499.0</ele><time>2026-04-12T13:40:44Z</time></trkpt><trkpt lat="46.38410628444147" lon="12.96401730755138"><ele>499.0</ele><time>2026-04-12T13:40:45Z</time></trkpt><trkpt lat="46.38403499879908" lon="12.96399587357192"><ele>499.0</ele><time>2026-04-12T13:40:46Z</time></trkpt><trkpt lat="46.38396527947832" lon="12.964019792810955"><ele>499.00000000000006</ele><time>2026-04-12T13:40:47Z</time></trkpt><trkpt lat="46.38389959312449" lon="12.964097721283277"><ele>499.0</ele><time>2026-04-12T13:40:48Z</time></trkpt><trkpt lat="46.38381719370952" lon="12.964197574705533"><ele>502.75</ele><time>2026-04-12T13:40:49Z</time></trkpt><trkpt lat="46.38373999601274" lon="12.96433866106979"><ele>506.5</ele><time>2026-04-12T13:40:50Z</time></trkpt><trkpt lat="46.38365499372815" lon="12.964495417539444"><ele>510.25</ele><time>2026-04-12T13:40:51Z</time></trkpt><trkpt lat="46.383554949072824" lon="12.96466701495703"><ele>514.0</ele><time>2026-04-12T13:40:52Z</time></trkpt><trkpt lat="46.38344007857726" lon="12.964843161049258"><ele>514.0</ele><time>2026-04-12T13:40:53Z</time></trkpt><trkpt lat="46.38330969770332" lon="12.965017730297964"><ele>514.0</ele><time>2026-04-12T13:40:54Z</time></trkpt><trkpt lat="46.383163931420945" lon="12.965175618269788"><ele>514.0</ele><time>2026-04-12T13:40:55Z</time></trkpt><trkpt lat="46.38300543294311" lon="12.965316920396013"><ele>513.6666666666667</ele><time>2026-04-12T13:40:56Z</time></trkpt><trkpt lat="46.38284848076099" lon="12.965455483521515"><ele>513.3333333333334</ele><time>2026-04-12T13:40:56.999Z</time></trkpt><trkpt lat="46.382720042871604" lon="12.965567407647749"><ele>513.0</ele><time>2026-04-12T13:40:57.999Z</time></trkpt><trkpt lat="46.38261526494061" lon="12.965649446929671"><ele>513.0</ele><time>2026-04-12T13:40:58.999Z</time></trkpt><trkpt lat="46.382520302326824" lon="12.965708848474028"><ele>513.0</ele><time>2026-04-12T13:40:59.999Z</time></trkpt><trkpt lat="46.382412748224354" lon="12.965754925187959"><ele>513.0</ele><time>2026-04-12T13:41:00.999Z</time></trkpt><trkpt lat="46.3822959161664" lon="12.965767270741994"><ele>513.0</ele><time>2026-04-12T13:41:01.999Z</time></trkpt><trkpt lat="46.38217656178052" lon="12.96571388312312"><ele>512.5</ele><time>2026-04-12T13:41:02.999Z</time></trkpt><trkpt lat="46.38206540663127" lon="12.965635166231747"><ele>512.0</ele><time>2026-04-12T13:41:03.999Z</time></trkpt><trkpt lat="46.38196662462936" lon="12.96552342636494"><ele>511.5</ele><time>2026-04-12T13:41:04.999Z</time></trkpt><trkpt lat="46.38188289108621" lon="12.965382029774995"><ele>511.0</ele><time>2026-04-12T13:41:05.999Z</time></trkpt><trkpt lat="46.38182309458172" lon="12.965204475294614"><ele>516.25</ele><time>2026-04-12T13:41:06.999Z</time></trkpt><trkpt lat="46.38178419138655" lon="12.965008183787905"><ele>521.5</ele><time>2026-04-12T13:41:07.999Z</time></trkpt><trkpt lat="46.38174599293827" lon="12.964819711238997"><ele>526.75</ele><time>2026-04-12T13:41:08.999Z</time></trkpt><trkpt lat="46.38170702503021" lon="12.964676711044664"><ele>532.0</ele><time>2026-04-12T13:41:09.999Z</time></trkpt><trkpt lat="46.38165758397646" lon="12.964562415465585"><ele>532.0</ele><time>2026-04-12T13:41:10.999Z</time></trkpt><trkpt lat="46.38158384559761" lon="12.964479554440022"><ele>532.0</ele><time>2026-04-12T13:41:11.999Z</time></trkpt><trkpt lat="46.38147742894275" lon="12.96439805455362"><ele>532.0</ele><time>2026-04-12T13:41:12.999Z</time></trkpt><trkpt lat="46.38132783122911" lon="12.964415859431194"><ele>532.0</ele><time>2026-04-12T13:41:13.999Z</time></trkpt><trkpt lat="46.38116887634331" lon="12.96444292383307"><ele>532.0</ele><time>2026-04-12T13:41:14.999Z</time></trkpt><trkpt lat="46.381018867739925" lon="12.964471395121986"><ele>532.0</ele><time>2026-04-12T13:41:15.999Z</time></trkpt><trkpt lat="46.380877988940995" lon="12.964487788019122"><ele>532.0</ele><time>2026-04-12T13:41:16.999Z</time></trkpt><trkpt lat="46.38074320975833" lon="12.964486142372172"><ele>532.0</ele><time>2026-04-12T13:41:17.999Z</time></trkpt><trkpt lat="46.38059810070286" lon="12.964459601245885"><ele>537.3333333333334</ele><time>2026-04-12T13:41:18.999Z</time></trkpt><trkpt lat="46.38044278343482" lon="12.964417665385762"><ele>542.6666666666666</ele><time>2026-04-12T13:41:19.999Z</time></trkpt><trkpt lat="46.3802814205257" lon="12.964348420173513"><ele>548.0</ele><time>2026-04-12T13:41:20.999Z</time></trkpt><trkpt lat="46.38010915711162" lon="12.96426682717676"><ele>550.6666666666666</ele><time>2026-04-12T13:41:21.999Z</time></trkpt><trkpt lat="46.37991486266125" lon="12.964179951506232"><ele>553.3333333333334</ele><time>2026-04-12T13:41:22.999Z</time></trkpt><trkpt lat="46.37971291505405" lon="12.964089653926722"><ele>556.0</ele><time>2026-04-12T13:41:23.999Z</time></trkpt><trkpt lat="46.379502682642055" lon="12.963996028982411"><ele>556.6666666666667</ele><time>2026-04-12T13:41:24.999Z</time></trkpt><trkpt lat="46.37931459506727" lon="12.963913948409543"><ele>557.3333333333334</ele><time>2026-04-12T13:41:25.999Z</time></trkpt><trkpt lat="46.37915724048625" lon="12.963846312904357"><ele>558.0</ele><time>2026-04-12T13:41:26.999Z</time></trkpt><trkpt lat="46.37903298515561" lon="12.96379229786853"><ele>558.0</ele><time>2026-04-12T13:41:27.999Z</time></trkpt><trkpt lat="46.37893322522432" lon="12.963749684100689"><ele>558.0</ele><time>2026-04-12T13:41:28.999Z</time></trkpt><trkpt lat="46.37884633301595" lon="12.963733287636572"><ele>558.0</ele><time>2026-04-12T13:41:29.999Z</time></trkpt><trkpt lat="46.37876264348641" lon="12.96366556629514"><ele>558.0</ele><time>2026-04-12T13:41:30.999Z</time></trkpt><trkpt lat="46.37869615219426" lon="12.963552365960348"><ele>558.0</ele><time>2026-04-12T13:41:31.999Z</time></trkpt><trkpt lat="46.37866153313101" lon="12.963399232761455"><ele>557.4</ele><time>2026-04-12T13:41:32.999Z</time></trkpt><trkpt lat="46.378665550905" lon="12.963229421745613"><ele>556.8</ele><time>2026-04-12T13:41:33.999Z</time></trkpt><trkpt lat="46.378703452648864" lon="12.963079424725983"><ele>556.2</ele><time>2026-04-12T13:41:34.999Z</time></trkpt><trkpt lat="46.37877440600604" lon="12.962960524669242"><ele>555.6</ele><time>2026-04-12T13:41:35.999Z</time></trkpt><trkpt lat="46.37887210391568" lon="12.962879276862314"><ele>555.0</ele><time>2026-04-12T13:41:36.999Z</time></trkpt><trkpt lat="46.378988908013035" lon="12.962850085051615"><ele>558.5</ele><time>2026-04-12T13:41:37.999Z</time></trkpt><trkpt lat="46.37911380494741" lon="12.962825086714428"><ele>562.0</ele><time>2026-04-12T13:41:38.999Z</time></trkpt><trkpt lat="46.379236835906404" lon="12.962767984712372"><ele>565.5</ele><time>2026-04-12T13:41:39.999Z</time></trkpt><trkpt lat="46.37936502827607" lon="12.96270260469044"><ele>569.0</ele><time>2026-04-12T13:41:40.999Z</time></trkpt><trkpt lat="46.37947646413242" lon="12.962619225360584"><ele>571.75</ele><time>2026-04-12T13:41:41.999Z</time></trkpt><trkpt lat="46.3795822100804" lon="12.962500218151366"><ele>574.5</ele><time>2026-04-12T13:41:42.999Z</time></trkpt><trkpt lat="46.379682436483385" lon="12.962356344912145"><ele>577.25</ele><time>2026-04-12T13:41:43.999Z</time></trkpt><trkpt lat="46.379775210173364" lon="12.962193161528864"><ele>580.0</ele><time>2026-04-12T13:41:44.999Z</time></trkpt><trkpt lat="46.379857775660675" lon="12.962016579496758"><ele>580.0</ele><time>2026-04-12T13:41:45.999Z</time></trkpt><trkpt lat="46.37994018144339" lon="12.96183522362769"><ele>580.0</ele><time>2026-04-12T13:41:46.999Z</time></trkpt><trkpt lat="46.380027968116735" lon="12.96164998633042"><ele>580.0</ele><time>2026-04-12T13:41:47.999Z</time></trkpt><trkpt lat="46.38012415502493" lon="12.961459514382508"><ele>583.0</ele><time>2026-04-12T13:41:48.999Z</time></trkpt><trkpt lat="46.380222933888284" lon="12.961256022155276"><ele>586.0</ele><time>2026-04-12T13:41:49.999Z</time></trkpt><trkpt lat="46.380323860274366" lon="12.961042876311625"><ele>589.0</ele><time>2026-04-12T13:41:50.999Z</time></trkpt><trkpt lat="46.380418738480586" lon="12.960866486643022"><ele>589.3333333333334</ele><time>2026-04-12T13:41:51.999Z</time></trkpt><trkpt lat="46.380523252537" lon="12.960717034173577"><ele>589.6666666666666</ele><time>2026-04-12T13:41:52.999Z</time></trkpt><trkpt lat="46.380648928580875" lon="12.960591779046052"><ele>590.0</ele><time>2026-04-12T13:41:53.999Z</time></trkpt><trkpt lat="46.380779121983764" lon="12.960481739518354"><ele>590.0</ele><time>2026-04-12T13:41:54.999Z</time></trkpt><trkpt lat="46.380889411602226" lon="12.960347304135329"><ele>590.0</ele><time>2026-04-12T13:41:56Z</time></trkpt><trkpt lat="46.3809785854416" lon="12.96016972258019"><ele>590.0</ele><time>2026-04-12T13:41:57Z</time></trkpt><trkpt lat="46.38105322238929" lon="12.959983295545857"><ele>590.0</ele><time>2026-04-12T13:41:58Z</time></trkpt><trkpt lat="46.38113151348499" lon="12.959820352910858"><ele>589.25</ele><time>2026-04-12T13:41:59Z</time></trkpt><trkpt lat="46.38122844207978" lon="12.959681747562266"><ele>588.5</ele><time>2026-04-12T13:42:00Z</time></trkpt><trkpt lat="46.381344051047904" lon="12.959575777966347"><ele>587.75</ele><time>2026-04-12T13:42:01Z</time></trkpt><trkpt lat="46.381461166110824" lon="12.959489569642493"><ele>587.0</ele><time>2026-04-12T13:42:02Z</time></trkpt><trkpt lat="46.38156408086361" lon="12.959421159244561"><ele>587.0</ele><time>2026-04-12T13:42:03Z</time></trkpt><trkpt lat="46.381651480041484" lon="12.9593652988238"><ele>587.0</ele><time>2026-04-12T13:42:04Z</time></trkpt><trkpt lat="46.38172616255565" lon="12.959312435235054"><ele>587.0</ele><time>2026-04-12T13:42:05Z</time></trkpt><trkpt lat="46.38178197083893" lon="12.95924898053231"><ele>587.0</ele><time>2026-04-12T13:42:06Z</time></trkpt><trkpt lat="46.38181795173711" lon="12.959153486876966"><ele>587.0</ele><time>2026-04-12T13:42:07Z</time></trkpt><trkpt lat="46.38180499645394" lon="12.959042193933767"><ele>587.0</ele><time>2026-04-12T13:42:08Z</time></trkpt><trkpt lat="46.38174627712326" lon="12.958962142240003"><ele>587.0</ele><time>2026-04-12T13:42:09Z</time></trkpt><trkpt lat="46.38166489954089" lon="12.958957178104855"><ele>587.0</ele><time>2026-04-12T13:42:10Z</time></trkpt><trkpt lat="46.381585834185955" lon="12.959027259815135"><ele>587.0</ele><time>2026-04-12T13:42:11Z</time></trkpt><trkpt lat="46.38150853723536" lon="12.959136440485867"><ele>587.0</ele><time>2026-04-12T13:42:12Z</time></trkpt><trkpt lat="46.3814217771257" lon="12.959250529212841"><ele>587.0</ele><time>2026-04-12T13:42:13Z</time></trkpt><trkpt lat="46.38131927425143" lon="12.959343143047418"><ele>591.25</ele><time>2026-04-12T13:42:14Z</time></trkpt><trkpt lat="46.38121125628385" lon="12.95942117697387"><ele>595.5</ele><time>2026-04-12T13:42:15Z</time></trkpt><trkpt lat="46.38110104954384" lon="12.95948552053098"><ele>599.75</ele><time>2026-04-12T13:42:16Z</time></trkpt><trkpt lat="46.380991035317756" lon="12.959558957165065"><ele>604.0</ele><time>2026-04-12T13:42:17Z</time></trkpt><trkpt lat="46.38087939358019" lon="12.959636063066318"><ele>604.0</ele><time>2026-04-12T13:42:18Z</time></trkpt><trkpt lat="46.38076242679492" lon="12.95970868117253"><ele>604.0</ele><time>2026-04-12T13:42:19Z</time></trkpt><trkpt lat="46.38064106244247" lon="12.95977537188085"><ele>604.0</ele><time>2026-04-12T13:42:20Z</time></trkpt><trkpt lat="46.380514190995164" lon="12.959828140310252"><ele>604.0</ele><time>2026-04-12T13:42:21Z</time></trkpt><trkpt lat="46.38038426203735" lon="12.95988920214157"><ele>603.5</ele><time>2026-04-12T13:42:22Z</time></trkpt><trkpt lat="46.380252486410086" lon="12.959948491766598"><ele>603.0</ele><time>2026-04-12T13:42:23Z</time></trkpt><trkpt lat="46.38011016548848" lon="12.96000806981619"><ele>602.5</ele><time>2026-04-12T13:42:24Z</time></trkpt><trkpt lat="46.379957432240765" lon="12.960049526255224"><ele>602.0</ele><time>2026-04-12T13:42:25Z</time></trkpt><trkpt lat="46.37980102398752" lon="12.960113366925347"><ele>607.6666666666666</ele><time>2026-04-12T13:42:26Z</time></trkpt><trkpt lat="46.37965267521575" lon="12.960213139316554"><ele>613.3333333333334</ele><time>2026-04-12T13:42:27Z</time></trkpt><trkpt lat="46.379505970636274" lon="12.96027133201738"><ele>619.0</ele><time>2026-04-12T13:42:28Z</time></trkpt><trkpt lat="46.3793602531028" lon="12.960358019672277"><ele>619.0</ele><time>2026-04-12T13:42:29Z</time></trkpt><trkpt lat="46.37921056826547" lon="12.960448249772147"><ele>619.0</ele><time>2026-04-12T13:42:30Z</time></trkpt><trkpt lat="46.379054131100006" lon="12.960545116433806"><ele>619.0</ele><time>2026-04-12T13:42:31Z</time></trkpt><trkpt lat="46.378883806784174" lon="12.960651267402305"><ele>616.25</ele><time>2026-04-12T13:42:32Z</time></trkpt><trkpt lat="46.37874208036735" lon="12.960739415548675"><ele>613.5</ele><time>2026-04-12T13:42:33Z</time></trkpt><trkpt lat="46.37862216886618" lon="12.960814253239358"><ele>610.75</ele><time>2026-04-12T13:42:34Z</time></trkpt><trkpt lat="46.378517730137915" lon="12.96087889699723"><ele>608.0</ele><time>2026-04-12T13:42:35Z</time></trkpt><trkpt lat="46.37840204463563" lon="12.960956954446603"><ele>608.0</ele><time>2026-04-12T13:42:36Z</time></trkpt><trkpt lat="46.37826454212409" lon="12.960961331231344"><ele>608.0</ele><time>2026-04-12T13:42:37Z</time></trkpt><trkpt lat="46.37812445580234" lon="12.960916120528745"><ele>608.0</ele><time>2026-04-12T13:42:38Z</time></trkpt><trkpt lat="46.377975542720776" lon="12.960897043460646"><ele>608.0</ele><time>2026-04-12T13:42:39Z</time></trkpt><trkpt lat="46.37781883510712" lon="12.960879174372758"><ele>610.3333333333333</ele><time>2026-04-12T13:42:40Z</time></trkpt><trkpt lat="46.377655406726106" lon="12.960916195801518"><ele>612.6666666666666</ele><time>2026-04-12T13:42:41Z</time></trkpt><trkpt lat="46.37748738626813" lon="12.960960071289474"><ele>615.0</ele><time>2026-04-12T13:42:42Z</time></trkpt><trkpt lat="46.377348083362506" lon="12.960990073220094"><ele>615.0</ele><time>2026-04-12T13:42:43Z</time></trkpt><trkpt lat="46.377234276779575" lon="12.961006768511066"><ele>615.0</ele><time>2026-04-12T13:42:44Z</time></trkpt><trkpt lat="46.37711927194693" lon="12.96104605834721"><ele>615.0</ele><time>2026-04-12T13:42:45Z</time></trkpt><trkpt lat="46.37700310206061" lon="12.961098451983098"><ele>615.0</ele><time>2026-04-12T13:42:46Z</time></trkpt><trkpt lat="46.37689146523435" lon="12.96114467933678"><ele>619.2</ele><time>2026-04-12T13:42:47Z</time></trkpt><trkpt lat="46.3767837354288" lon="12.961177213552032"><ele>623.4</ele><time>2026-04-12T13:42:48Z</time></trkpt><trkpt lat="46.3766665531419" lon="12.96120014927577"><ele>627.6</ele><time>2026-04-12T13:42:49Z</time></trkpt><trkpt lat="46.37656256589253" lon="12.961215025967812"><ele>631.8</ele><time>2026-04-12T13:42:50Z</time></trkpt><trkpt lat="46.376465706769295" lon="12.961222894636265"><ele>636.0</ele><time>2026-04-12T13:42:51Z</time></trkpt><trkpt lat="46.37636082669821" lon="12.961212865405194"><ele>640.6</ele><time>2026-04-12T13:42:52Z</time></trkpt><trkpt lat="46.37625652016962" lon="12.961173530512434"><ele>645.2</ele><time>2026-04-12T13:42:53Z</time></trkpt><trkpt lat="46.37615689593072" lon="12.96112538487924"><ele>649.8000000000001</ele><time>2026-04-12T13:42:54Z</time></trkpt><trkpt lat="46.37605269371052" lon="12.961105322861819"><ele>654.4000000000001</ele><time>2026-04-12T13:42:55Z</time></trkpt><trkpt lat="46.37594399519641" lon="12.9611204374161"><ele>659.0</ele><time>2026-04-12T13:42:56Z</time></trkpt><trkpt lat="46.37583706339556" lon="12.961187752669927"><ele>659.0</ele><time>2026-04-12T13:42:57Z</time></trkpt><trkpt lat="46.375742631369086" lon="12.961313178660392"><ele>659.0</ele><time>2026-04-12T13:42:58Z</time></trkpt><trkpt lat="46.37568844550113" lon="12.961493526248036"><ele>659.0</ele><time>2026-04-12T13:42:59Z</time></trkpt><trkpt lat="46.375684758832236" lon="12.961672978995898"><ele>659.0</ele><time>2026-04-12T13:43:00Z</time></trkpt><trkpt lat="46.37571826112049" lon="12.961824710869866"><ele>660.0</ele><time>2026-04-12T13:43:00.999Z</time></trkpt><trkpt lat="46.37573445160368" lon="12.961954981408391"><ele>661.0</ele><time>2026-04-12T13:43:01.999Z</time></trkpt><trkpt lat="46.37571326663363" lon="12.962084455928197"><ele>662.0</ele><time>2026-04-12T13:43:03.999Z</time></trkpt><trkpt lat="46.37560938135231" lon="12.962141374675182"><ele>663.0</ele><time>2026-04-12T13:43:05.999Z</time></trkpt><trkpt lat="46.37552129324946" lon="12.96217561192381"><ele>664.0</ele><time>2026-04-12T13:43:06.999Z</time></trkpt><trkpt lat="46.37541337872758" lon="12.962217903197612"><ele>664.0</ele><time>2026-04-12T13:43:07.999Z</time></trkpt><trkpt lat="46.375292576497756" lon="12.962268104602353"><ele>664.0</ele><time>2026-04-12T13:43:08.999Z</time></trkpt><trkpt lat="46.37515759211361" lon="12.96232419969184"><ele>664.0</ele><time>2026-04-12T13:43:09.999Z</time></trkpt><trkpt lat="46.37501640926256" lon="12.962382870627037"><ele>664.0</ele><time>2026-04-12T13:43:10.999Z</time></trkpt><trkpt lat="46.374892116167594" lon="12.962432428202685"><ele>664.0</ele><time>2026-04-12T13:43:11.999Z</time></trkpt><trkpt lat="46.37477911281028" lon="12.962465923823245"><ele>664.0</ele><time>2026-04-12T13:43:12.999Z</time></trkpt><trkpt lat="46.37467558526796" lon="12.962470824300297"><ele>664.0</ele><time>2026-04-12T13:43:13.999Z</time></trkpt><trkpt lat="46.37455880169911" lon="12.96245912627772"><ele>664.0</ele><time>2026-04-12T13:43:14.999Z</time></trkpt><trkpt lat="46.37446245334359" lon="12.96235121620698"><ele>667.0</ele><time>2026-04-12T13:43:15.999Z</time></trkpt><trkpt lat="46.374337835113984" lon="12.962307377045725"><ele>670.0</ele><time>2026-04-12T13:43:16.999Z</time></trkpt><trkpt lat="46.3741898050828" lon="12.96230531994011"><ele>673.0</ele><time>2026-04-12T13:43:17.999Z</time></trkpt><trkpt lat="46.374055025581605" lon="12.9623194964515"><ele>676.0</ele><time>2026-04-12T13:43:18.999Z</time></trkpt><trkpt lat="46.373949613710984" lon="12.962327651901479"><ele>676.0</ele><time>2026-04-12T13:43:19.999Z</time></trkpt><trkpt lat="46.373862095330004" lon="12.962334422996149"><ele>676.0</ele><time>2026-04-12T13:43:20.999Z</time></trkpt><trkpt lat="46.37377669271023" lon="12.962351523099509"><ele>676.0</ele><time>2026-04-12T13:43:21.999Z</time></trkpt><trkpt lat="46.37369401419783" lon="12.96242775551253"><ele>676.0</ele><time>2026-04-12T13:43:22.999Z</time></trkpt><trkpt lat="46.373651995823806" lon="12.962591422100157"><ele>676.0</ele><time>2026-04-12T13:43:23.999Z</time></trkpt><trkpt lat="46.37367276549845" lon="12.962769733790253"><ele>680.3333333333334</ele><time>2026-04-12T13:43:24.999Z</time></trkpt><trkpt lat="46.37378487716851" lon="12.962875390727707"><ele>684.6666666666667</ele><time>2026-04-12T13:43:25.999Z</time></trkpt><trkpt lat="46.37381466683655" lon="12.962982117112249"><ele>689.0</ele><time>2026-04-12T13:43:26.999Z</time></trkpt><trkpt lat="46.37381385340618" lon="12.963074336202189"><ele>693.3333333333334</ele><time>2026-04-12T13:43:27.999Z</time></trkpt><trkpt lat="46.37380703696451" lon="12.963177749599469"><ele>697.6666666666666</ele><time>2026-04-12T13:43:28.999Z</time></trkpt><trkpt lat="46.373765888810524" lon="12.963261007442515"><ele>702.0</ele><time>2026-04-12T13:43:29.999Z</time></trkpt><trkpt lat="46.373699932223886" lon="12.963369034242682"><ele>702.0</ele><time>2026-04-12T13:43:30.999Z</time></trkpt><trkpt lat="46.373619251389904" lon="12.963490676019996"><ele>702.0</ele><time>2026-04-12T13:43:31.999Z</time></trkpt><trkpt lat="46.37353629916425" lon="12.963611998570718"><ele>702.0</ele><time>2026-04-12T13:43:32.999Z</time></trkpt><trkpt lat="46.373475779367794" lon="12.96372805186346"><ele>702.0</ele><time>2026-04-12T13:43:33.999Z</time></trkpt><trkpt lat="46.37344794566282" lon="12.963877778438507"><ele>702.0</ele><time>2026-04-12T13:43:34.999Z</time></trkpt><trkpt lat="46.37347581007916" lon="12.964022054356871"><ele>702.0</ele><time>2026-04-12T13:43:35.999Z</time></trkpt><trkpt lat="46.37353319310079" lon="12.964128369203294"><ele>702.0</ele><time>2026-04-12T13:43:36.999Z</time></trkpt><trkpt lat="46.37359944800091" lon="12.964207841311675"><ele>702.0</ele><time>2026-04-12T13:43:37.999Z</time></trkpt><trkpt lat="46.373643016170334" lon="12.964288736321162"><ele>702.0</ele><time>2026-04-12T13:43:38.999Z</time></trkpt><trkpt lat="46.3736387049554" lon="12.964461351457714"><ele>702.0</ele><time>2026-04-12T13:43:40.999Z</time></trkpt><trkpt lat="46.37359980260619" lon="12.964546066195688"><ele>702.0</ele><time>2026-04-12T13:43:41.999Z</time></trkpt><trkpt lat="46.3735425604569" lon="12.964634894071619"><ele>698.75</ele><time>2026-04-12T13:43:42.999Z</time></trkpt><trkpt lat="46.373459436541786" lon="12.964715792439552"><ele>695.5</ele><time>2026-04-12T13:43:43.999Z</time></trkpt><trkpt lat="46.37335511823495" lon="12.964792884174583"><ele>692.25</ele><time>2026-04-12T13:43:44.999Z</time></trkpt><trkpt lat="46.373234533250596" lon="12.964870129951956"><ele>689.0</ele><time>2026-04-12T13:43:45.999Z</time></trkpt><trkpt lat="46.37310216187186" lon="12.964948869269962"><ele>690.75</ele><time>2026-04-12T13:43:46.999Z</time></trkpt><trkpt lat="46.37298109648933" lon="12.965029935859112"><ele>692.5</ele><time>2026-04-12T13:43:47.999Z</time></trkpt><trkpt lat="46.37286896616291" lon="12.965116612134668"><ele>694.25</ele><time>2026-04-12T13:43:48.999Z</time></trkpt><trkpt lat="46.37276070308492" lon="12.965214387609388"><ele>696.0</ele><time>2026-04-12T13:43:49.999Z</time></trkpt><trkpt lat="46.37265524471532" lon="12.965332416524115"><ele>696.0</ele><time>2026-04-12T13:43:50.999Z</time></trkpt><trkpt lat="46.372554034917236" lon="12.965452746078673"><ele>696.0</ele><time>2026-04-12T13:43:51.999Z</time></trkpt><trkpt lat="46.37245387016913" lon="12.965571833181903"><ele>696.0</ele><time>2026-04-12T13:43:52.999Z</time></trkpt><trkpt lat="46.37235861219" lon="12.96568141305544"><ele>696.0</ele><time>2026-04-12T13:43:53.999Z</time></trkpt><trkpt lat="46.37225399457099" lon="12.965776324317714"><ele>694.5</ele><time>2026-04-12T13:43:54.999Z</time></trkpt><trkpt lat="46.37214174263166" lon="12.96586511239351"><ele>693.0</ele><time>2026-04-12T13:43:55.999Z</time></trkpt><trkpt lat="46.37201599262583" lon="12.96590974809041"><ele>691.5</ele><time>2026-04-12T13:43:56.999Z</time></trkpt><trkpt lat="46.37187368654773" lon="12.965923389440643"><ele>690.0</ele><time>2026-04-12T13:43:57.999Z</time></trkpt><trkpt lat="46.37172409729707" lon="12.965930702367686"><ele>690.0</ele><time>2026-04-12T13:43:58.999Z</time></trkpt><trkpt lat="46.37156365107746" lon="12.965945584532758"><ele>690.0</ele><time>2026-04-12T13:43:59.999Z</time></trkpt><trkpt lat="46.371388697580535" lon="12.9659570527889"><ele>690.0</ele><time>2026-04-12T13:44:00.999Z</time></trkpt><trkpt lat="46.371208419317824" lon="12.965966982682673"><ele>692.3333333333334</ele><time>2026-04-12T13:44:02Z</time></trkpt><trkpt lat="46.37104424342535" lon="12.965974982113904"><ele>694.6666666666667</ele><time>2026-04-12T13:44:03Z</time></trkpt><trkpt lat="46.370895094670544" lon="12.965987560114913"><ele>697.0</ele><time>2026-04-12T13:44:04Z</time></trkpt><trkpt lat="46.370756277005434" lon="12.965980144653205"><ele>697.0</ele><time>2026-04-12T13:44:05Z</time></trkpt><trkpt lat="46.37062068265205" lon="12.965928035583204"><ele>697.0</ele><time>2026-04-12T13:44:06Z</time></trkpt><trkpt lat="46.37048388103804" lon="12.965832304621378"><ele>697.0</ele><time>2026-04-12T13:44:07Z</time></trkpt><trkpt lat="46.37035223778018" lon="12.965729452232493"><ele>697.0</ele><time>2026-04-12T13:44:08Z</time></trkpt><trkpt lat="46.370213916282076" lon="12.96563659498722"><ele>705.0</ele><time>2026-04-12T13:44:09Z</time></trkpt><trkpt lat="46.37006672172035" lon="12.965570277026961"><ele>713.0</ele><time>2026-04-12T13:44:10Z</time></trkpt><trkpt lat="46.36991281945204" lon="12.96552547475811"><ele>721.0</ele><time>2026-04-12T13:44:11Z</time></trkpt><trkpt lat="46.369752895732816" lon="12.96547706177549"><ele>720.0</ele><time>2026-04-12T13:44:12Z</time></trkpt><trkpt lat="46.369591652273165" lon="12.965437062418445"><ele>719.0</ele><time>2026-04-12T13:44:13Z</time></trkpt><trkpt lat="46.36942829444525" lon="12.965377871220884"><ele>718.0</ele><time>2026-04-12T13:44:14Z</time></trkpt><trkpt lat="46.36924576977541" lon="12.965369786717009"><ele>718.0</ele><time>2026-04-12T13:44:15Z</time></trkpt><trkpt lat="46.369046427345985" lon="12.965369560194954"><ele>718.0</ele><time>2026-04-12T13:44:16Z</time></trkpt><trkpt lat="46.36883745150136" lon="12.965387678092531"><ele>718.0</ele><time>2026-04-12T13:44:17Z</time></trkpt><trkpt lat="46.36862518154986" lon="12.965378868266678"><ele>720.0</ele><time>2026-04-12T13:44:18Z</time></trkpt><trkpt lat="46.36842427269703" lon="12.965338791261624"><ele>722.0</ele><time>2026-04-12T13:44:19Z</time></trkpt><trkpt lat="46.36823098997033" lon="12.965326356262384"><ele>724.0</ele><time>2026-04-12T13:44:20Z</time></trkpt><trkpt lat="46.36803503195898" lon="12.965325788773422"><ele>725.3333333333334</ele><time>2026-04-12T13:44:21Z</time></trkpt><trkpt lat="46.367842630044244" lon="12.965341546998694"><ele>726.6666666666666</ele><time>2026-04-12T13:44:22Z</time></trkpt><trkpt lat="46.36765128333451" lon="12.965346660243586"><ele>728.0</ele><time>2026-04-12T13:44:23Z</time></trkpt><trkpt lat="46.36745306557077" lon="12.965340741319405"><ele>728.0</ele><time>2026-04-12T13:44:24Z</time></trkpt><trkpt lat="46.3672486749657" lon="12.965331072685107"><ele>728.0</ele><time>2026-04-12T13:44:25Z</time></trkpt><trkpt lat="46.36704720949793" lon="12.965317881635517"><ele>728.0</ele><time>2026-04-12T13:44:26Z</time></trkpt><trkpt lat="46.36685337474186" lon="12.965318417013432"><ele>731.3333333333333</ele><time>2026-04-12T13:44:27Z</time></trkpt><trkpt lat="46.36666861578925" lon="12.965244042531452"><ele>734.6666666666666</ele><time>2026-04-12T13:44:28Z</time></trkpt><trkpt lat="46.366483546788174" lon="12.965178557335259"><ele>738.0</ele><time>2026-04-12T13:44:29Z</time></trkpt><trkpt lat="46.366297002905405" lon="12.965134059340416"><ele>739.25</ele><time>2026-04-12T13:44:30Z</time></trkpt><trkpt lat="46.366126474072594" lon="12.965122741927884"><ele>740.5</ele><time>2026-04-12T13:44:31Z</time></trkpt><trkpt lat="46.36598125772453" lon="12.965121262213653"><ele>741.75</ele><time>2026-04-12T13:44:32Z</time></trkpt><trkpt lat="46.365854132431" lon="12.965130538526825"><ele>743.0</ele><time>2026-04-12T13:44:33Z</time></trkpt><trkpt lat="46.365738150069426" lon="12.965149421966881"><ele>743.0</ele><time>2026-04-12T13:44:34Z</time></trkpt><trkpt lat="46.36562481740919" lon="12.965167214555729"><ele>743.0</ele><time>2026-04-12T13:44:35Z</time></trkpt><trkpt lat="46.36552939966192" lon="12.96518063787231"><ele>743.0</ele><time>2026-04-12T13:44:36Z</time></trkpt><trkpt lat="46.365438615206806" lon="12.965180453224997"><ele>743.0</ele><time>2026-04-12T13:44:37Z</time></trkpt><trkpt lat="46.36535080216031" lon="12.965142534395433"><ele>743.0</ele><time>2026-04-12T13:44:38Z</time></trkpt><trkpt lat="46.36526773863431" lon="12.965073258667564"><ele>744.75</ele><time>2026-04-12T13:44:39Z</time></trkpt><trkpt lat="46.365213591735625" lon="12.964934548451096"><ele>746.5</ele><time>2026-04-12T13:44:40Z</time></trkpt><trkpt lat="46.36518049478718" lon="12.964766859672448"><ele>748.25</ele><time>2026-04-12T13:44:41Z</time></trkpt><trkpt lat="46.365182933073186" lon="12.96458044837328"><ele>750.0</ele><time>2026-04-12T13:44:42Z</time></trkpt><trkpt lat="46.365220185504974" lon="12.96439502190593"><ele>752.0</ele><time>2026-04-12T13:44:43Z</time></trkpt><trkpt lat="46.36528142135143" lon="12.96418709319442"><ele>754.0</ele><time>2026-04-12T13:44:44Z</time></trkpt><trkpt lat="46.36534914646381" lon="12.96396111480563"><ele>756.0</ele><time>2026-04-12T13:44:45Z</time></trkpt><trkpt lat="46.36541632828999" lon="12.963706393645845"><ele>756.0</ele><time>2026-04-12T13:44:46Z</time></trkpt><trkpt lat="46.36549052075763" lon="12.96343213930279"><ele>756.0</ele><time>2026-04-12T13:44:47Z</time></trkpt><trkpt lat="46.36555855649669" lon="12.963185045422046"><ele>756.0</ele><time>2026-04-12T13:44:48Z</time></trkpt><trkpt lat="46.36562073108118" lon="12.962964238074548"><ele>764.5</ele><time>2026-04-12T13:44:49Z</time></trkpt><trkpt lat="46.36568012066637" lon="12.962752812308954"><ele>773.0</ele><time>2026-04-12T13:44:50Z</time></trkpt><trkpt lat="46.36573081774721" lon="12.962573175440545"><ele>781.5</ele><time>2026-04-12T13:44:51Z</time></trkpt><trkpt lat="46.365776810623274" lon="12.962410623686477"><ele>790.0</ele><time>2026-04-12T13:44:52Z</time></trkpt><trkpt lat="46.36582698463388" lon="12.962255750128197"><ele>790.0</ele><time>2026-04-12T13:44:53Z</time></trkpt><trkpt lat="46.365892566643325" lon="12.962105304820502"><ele>790.0</ele><time>2026-04-12T13:44:54Z</time></trkpt><trkpt lat="46.36598820057124" lon="12.961976100754798"><ele>790.0</ele><time>2026-04-12T13:44:55Z</time></trkpt><trkpt lat="46.36610696445169" lon="12.961864633944664"><ele>790.0</ele><time>2026-04-12T13:44:56Z</time></trkpt><trkpt lat="46.366225983149604" lon="12.961725517374818"><ele>787.5</ele><time>2026-04-12T13:44:57Z</time></trkpt><trkpt lat="46.36631906339734" lon="12.961561608341084"><ele>785.0</ele><time>2026-04-12T13:44:58Z</time></trkpt><trkpt lat="46.3663767177826" lon="12.96140905590539"><ele>782.5</ele><time>2026-04-12T13:44:59Z</time></trkpt><trkpt lat="46.3664264176263" lon="12.961278570598743"><ele>780.0</ele><time>2026-04-12T13:45:00Z</time></trkpt><trkpt lat="46.36649930450966" lon="12.96118110202718"><ele>785.5</ele><time>2026-04-12T13:45:01Z</time></trkpt><trkpt lat="46.36659839886188" lon="12.961130102252097"><ele>791.0</ele><time>2026-04-12T13:45:02Z</time></trkpt><trkpt lat="46.36671995478953" lon="12.961133032877754"><ele>796.5</ele><time>2026-04-12T13:45:02.999Z</time></trkpt><trkpt lat="46.36685747920172" lon="12.961169303276572"><ele>802.0</ele><time>2026-04-12T13:45:03.999Z</time></trkpt><trkpt lat="46.367003064624924" lon="12.961176865270522"><ele>802.0</ele><time>2026-04-12T13:45:04.999Z</time></trkpt><trkpt lat="46.36711555059814" lon="12.96116209046476"><ele>802.0</ele><time>2026-04-12T13:45:05.999Z</time></trkpt><trkpt lat="46.36721660370713" lon="12.96114789231961"><ele>802.0</ele><time>2026-04-12T13:45:06.999Z</time></trkpt><trkpt lat="46.36729825929745" lon="12.961125635391998"><ele>802.0</ele><time>2026-04-12T13:45:07.999Z</time></trkpt><trkpt lat="46.36738115876559" lon="12.960990035471283"><ele>802.0</ele><time>2026-04-12T13:45:09.999Z</time></trkpt><trkpt lat="46.367378390016874" lon="12.960878642262527"><ele>801.1666666666666</ele><time>2026-04-12T13:45:10.999Z</time></trkpt><trkpt lat="46.367336981411576" lon="12.960772521237669"><ele>800.3333333333333</ele><time>2026-04-12T13:45:11.999Z</time></trkpt><trkpt lat="46.36726257118991" lon="12.960698341943456"><ele>799.5</ele><time>2026-04-12T13:45:12.999Z</time></trkpt><trkpt lat="46.36717124414851" lon="12.960668247120443"><ele>798.6666666666667</ele><time>2026-04-12T13:45:13.999Z</time></trkpt><trkpt lat="46.36708837081741" lon="12.960636385502903"><ele>797.8333333333334</ele><time>2026-04-12T13:45:14.999Z</time></trkpt><trkpt lat="46.36702574045141" lon="12.960584141021172"><ele>797.0</ele><time>2026-04-12T13:45:15.999Z</time></trkpt><trkpt lat="46.366981395464045" lon="12.960515372423492"><ele>797.0</ele><time>2026-04-12T13:45:16.999Z</time></trkpt><trkpt lat="46.3669687566715" lon="12.96041631944989"><ele>797.0</ele><time>2026-04-12T13:45:17.999Z</time></trkpt><trkpt lat="46.36699836373978" lon="12.960298820900467"><ele>797.0</ele><time>2026-04-12T13:45:18.999Z</time></trkpt><trkpt lat="46.36705106256057" lon="12.960155598801645"><ele>797.0</ele><time>2026-04-12T13:45:19.999Z</time></trkpt><trkpt lat="46.36709825208569" lon="12.959985771856676"><ele>797.0</ele><time>2026-04-12T13:45:20.999Z</time></trkpt><trkpt lat="46.3671350205241" lon="12.959784900567772"><ele>796.75</ele><time>2026-04-12T13:45:21.999Z</time></trkpt><trkpt lat="46.36714903695372" lon="12.959589338585946"><ele>796.5</ele><time>2026-04-12T13:45:22.999Z</time></trkpt><trkpt lat="46.36714249235543" lon="12.959403940110148"><ele>796.25</ele><time>2026-04-12T13:45:23.999Z</time></trkpt><trkpt lat="46.367116660101665" lon="12.959221423783854"><ele>796.0</ele><time>2026-04-12T13:45:24.999Z</time></trkpt><trkpt lat="46.367075285457354" lon="12.959037622225443"><ele>798.5</ele><time>2026-04-12T13:45:25.999Z</time></trkpt><trkpt lat="46.36702707262878" lon="12.958841271467275"><ele>801.0</ele><time>2026-04-12T13:45:26.999Z</time></trkpt><trkpt lat="46.366979964985354" lon="12.958632687841954"><ele>803.5</ele><time>2026-04-12T13:45:27.999Z</time></trkpt><trkpt lat="46.366935913298086" lon="12.958418593368542"><ele>806.0</ele><time>2026-04-12T13:45:28.999Z</time></trkpt><trkpt lat="46.366882801333304" lon="12.958208815935823"><ele>808.75</ele><time>2026-04-12T13:45:29.999Z</time></trkpt><trkpt lat="46.36681560758782" lon="12.958013280305781"><ele>811.5</ele><time>2026-04-12T13:45:30.999Z</time></trkpt><trkpt lat="46.366732814471206" lon="12.957846635891158"><ele>814.25</ele><time>2026-04-12T13:45:31.999Z</time></trkpt><trkpt lat="46.36664434602712" lon="12.95769471494592"><ele>817.0</ele><time>2026-04-12T13:45:32.999Z</time></trkpt><trkpt lat="46.36655495515234" lon="12.957545003148175"><ele>819.5</ele><time>2026-04-12T13:45:33.999Z</time></trkpt><trkpt lat="46.366470647390166" lon="12.95740308963934"><ele>822.0</ele><time>2026-04-12T13:45:34.999Z</time></trkpt><trkpt lat="46.366378046799674" lon="12.957284242097964"><ele>824.5</ele><time>2026-04-12T13:45:35.999Z</time></trkpt><trkpt lat="46.36627123388841" lon="12.9571979764993"><ele>827.0</ele><time>2026-04-12T13:45:36.999Z</time></trkpt><trkpt lat="46.36614419035815" lon="12.957130498847631"><ele>827.0</ele><time>2026-04-12T13:45:37.999Z</time></trkpt><trkpt lat="46.3660082830272" lon="12.957056528132146"><ele>827.0</ele><time>2026-04-12T13:45:38.999Z</time></trkpt><trkpt lat="46.36586605957574" lon="12.956965498162852"><ele>827.0</ele><time>2026-04-12T13:45:39.999Z</time></trkpt><trkpt lat="46.36572190392078" lon="12.95688179235604"><ele>827.0</ele><time>2026-04-12T13:45:40.999Z</time></trkpt><trkpt lat="46.36558162209646" lon="12.956800763732316"><ele>827.0</ele><time>2026-04-12T13:45:41.999Z</time></trkpt><trkpt lat="46.365451868332016" lon="12.956720636702507"><ele>827.0</ele><time>2026-04-12T13:45:42.999Z</time></trkpt><trkpt lat="46.365336779943746" lon="12.956633917347153"><ele>827.0</ele><time>2026-04-12T13:45:43.999Z</time></trkpt><trkpt lat="46.36522934589467" lon="12.956535695923996"><ele>829.75</ele><time>2026-04-12T13:45:44.999Z</time></trkpt><trkpt lat="46.36512680348078" lon="12.956426178070984"><ele>832.5</ele><time>2026-04-12T13:45:45.999Z</time></trkpt><trkpt lat="46.36502624029953" lon="12.956301015776877"><ele>835.25</ele><time>2026-04-12T13:45:46.999Z</time></trkpt><trkpt lat="46.3649329963091" lon="12.956154635765568"><ele>838.0</ele><time>2026-04-12T13:45:47.999Z</time></trkpt><trkpt lat="46.36483532356989" lon="12.956003313256437"><ele>839.5</ele><time>2026-04-12T13:45:48.999Z</time></trkpt><trkpt lat="46.364726539996745" lon="12.955857580933747"><ele>841.0</ele><time>2026-04-12T13:45:49.999Z</time></trkpt><trkpt lat="46.364614151834544" lon="12.955738613667759"><ele>842.5</ele><time>2026-04-12T13:45:50.999Z</time></trkpt><trkpt lat="46.36451451399881" lon="12.95566105276223"><ele>844.0</ele><time>2026-04-12T13:45:51.999Z</time></trkpt><trkpt lat="46.36442036565005" lon="12.955600738872239"><ele>844.3333333333333</ele><time>2026-04-12T13:45:52.999Z</time></trkpt><trkpt lat="46.364342595973255" lon="12.955536687331483"><ele>844.6666666666666</ele><time>2026-04-12T13:45:53.999Z</time></trkpt><trkpt lat="46.36428118274388" lon="12.95546322005729"><ele>845.0</ele><time>2026-04-12T13:45:54.999Z</time></trkpt><trkpt lat="46.36424866552267" lon="12.95536248011291"><ele>845.3333333333333</ele><time>2026-04-12T13:45:55.999Z</time></trkpt><trkpt lat="46.36426636286328" lon="12.95525527866871"><ele>845.6666666666666</ele><time>2026-04-12T13:45:56.999Z</time></trkpt><trkpt lat="46.36432352036163" lon="12.955176774900647"><ele>846.0</ele><time>2026-04-12T13:45:57.999Z</time></trkpt><trkpt lat="46.36441143949724" lon="12.955150248290545"><ele>846.0</ele><time>2026-04-12T13:45:58.999Z</time></trkpt><trkpt lat="46.36450119665588" lon="12.955233751613763"><ele>846.0</ele><time>2026-04-12T13:45:59.999Z</time></trkpt><trkpt lat="46.36461375362153" lon="12.955289739883192"><ele>846.0</ele><time>2026-04-12T13:46:00.999Z</time></trkpt><trkpt lat="46.3647320471691" lon="12.955366646390987"><ele>846.0</ele><time>2026-04-12T13:46:01.999Z</time></trkpt><trkpt lat="46.36487462503126" lon="12.955445937806461"><ele>845.3333333333333</ele><time>2026-04-12T13:46:02.999Z</time></trkpt><trkpt lat="46.365030112265224" lon="12.955543924793846"><ele>844.6666666666666</ele><time>2026-04-12T13:46:03.999Z</time></trkpt><trkpt lat="46.36519580342009" lon="12.955648561250891"><ele>844.0</ele><time>2026-04-12T13:46:04.999Z</time></trkpt><trkpt lat="46.36537358976032" lon="12.9557570963749"><ele>843.0</ele><time>2026-04-12T13:46:05.999Z</time></trkpt><trkpt lat="46.36555474491564" lon="12.955853429665776"><ele>842.0</ele><time>2026-04-12T13:46:06.999Z</time></trkpt><trkpt lat="46.36573699219602" lon="12.95592278551528"><ele>841.0</ele><time>2026-04-12T13:46:08Z</time></trkpt><trkpt lat="46.36592262822062" lon="12.955961377644837"><ele>841.0</ele><time>2026-04-12T13:46:09Z</time></trkpt><trkpt lat="46.366109683017555" lon="12.955984582181653"><ele>841.0</ele><time>2026-04-12T13:46:10Z</time></trkpt><trkpt lat="46.36628612878796" lon="12.95601825273482"><ele>841.0</ele><time>2026-04-12T13:46:11Z</time></trkpt><trkpt lat="46.366436104940966" lon="12.956055396659737"><ele>842.75</ele><time>2026-04-12T13:46:12Z</time></trkpt><trkpt lat="46.36657651736569" lon="12.956112550182501"><ele>844.5</ele><time>2026-04-12T13:46:13Z</time></trkpt><trkpt lat="46.3666992356175" lon="12.956226089044575"><ele>846.25</ele><time>2026-04-12T13:46:14Z</time></trkpt><trkpt lat="46.366822429966305" lon="12.956338308477138"><ele>848.0</ele><time>2026-04-12T13:46:15Z</time></trkpt><trkpt lat="46.36693631360721" lon="12.956466033378994"><ele>848.0</ele><time>2026-04-12T13:46:16Z</time></trkpt><trkpt lat="46.36703281100505" lon="12.9565772164559"><ele>848.0</ele><time>2026-04-12T13:46:17Z</time></trkpt><trkpt lat="46.36711505958467" lon="12.95667166698584"><ele>848.0</ele><time>2026-04-12T13:46:18Z</time></trkpt><trkpt lat="46.36720548287126" lon="12.956707455158734"><ele>848.0</ele><time>2026-04-12T13:46:19Z</time></trkpt><trkpt lat="46.36728191873807" lon="12.95673577473936"><ele>848.0</ele><time>2026-04-12T13:46:20Z</time></trkpt><trkpt lat="46.367362219477975" lon="12.956711117314699"><ele>852.2</ele><time>2026-04-12T13:46:21Z</time></trkpt><trkpt lat="46.367422758762324" lon="12.95662156350408"><ele>856.4</ele><time>2026-04-12T13:46:22Z</time></trkpt><trkpt lat="46.367439773247334" lon="12.956489250964083"><ele>860.6000000000001</ele><time>2026-04-12T13:46:23Z</time></trkpt><trkpt lat="46.36740380093407" lon="12.956356611952412"><ele>864.8000000000001</ele><time>2026-04-12T13:46:24Z</time></trkpt><trkpt lat="46.367322078961486" lon="12.95625871619234"><ele>869.0</ele><time>2026-04-12T13:46:25Z</time></trkpt><trkpt lat="46.36720767475888" lon="12.956194167744338"><ele>867.5</ele><time>2026-04-12T13:46:26Z</time></trkpt><trkpt lat="46.36709223771927" lon="12.95610101027028"><ele>866.0</ele><time>2026-04-12T13:46:27Z</time></trkpt><trkpt lat="46.36697906683601" lon="12.956000721416661"><ele>864.5</ele><time>2026-04-12T13:46:28Z</time></trkpt><trkpt lat="46.366860873513566" lon="12.955890128640291"><ele>863.0</ele><time>2026-04-12T13:46:29Z</time></trkpt><trkpt lat="46.36673759879256" lon="12.955762507796875"><ele>863.0</ele><time>2026-04-12T13:46:30Z</time></trkpt><trkpt lat="46.36661321499796" lon="12.955614712119482"><ele>863.0</ele><time>2026-04-12T13:46:31Z</time></trkpt><trkpt lat="46.36648272786215" lon="12.955456983547691"><ele>863.0</ele><time>2026-04-12T13:46:32Z</time></trkpt><trkpt lat="46.36634702273891" lon="12.955295271855755"><ele>862.0</ele><time>2026-04-12T13:46:33Z</time></trkpt><trkpt lat="46.36620594534627" lon="12.95513025764851"><ele>861.0</ele><time>2026-04-12T13:46:34Z</time></trkpt><trkpt lat="46.366066575446055" lon="12.954960514239907"><ele>860.0</ele><time>2026-04-12T13:46:35Z</time></trkpt><trkpt lat="46.36592940348908" lon="12.95479763211094"><ele>858.6666666666667</ele><time>2026-04-12T13:46:36Z</time></trkpt><trkpt lat="46.36579102466663" lon="12.9546339881192"><ele>857.3333333333333</ele><time>2026-04-12T13:46:37Z</time></trkpt><trkpt lat="46.36565214751196" lon="12.95447091598401"><ele>856.0</ele><time>2026-04-12T13:46:38Z</time></trkpt><trkpt lat="46.3655127259573" lon="12.954308458942025"><ele>860.6666666666666</ele><time>2026-04-12T13:46:39Z</time></trkpt><trkpt lat="46.365376050802446" lon="12.954145585719955"><ele>865.3333333333333</ele><time>2026-04-12T13:46:40Z</time></trkpt><trkpt lat="46.36523889940268" lon="12.95398496356181"><ele>870.0</ele><time>2026-04-12T13:46:41Z</time></trkpt><trkpt lat="46.365097966022326" lon="12.953797448379474"><ele>870.0</ele><time>2026-04-12T13:46:42Z</time></trkpt><trkpt lat="46.36496311685533" lon="12.953609447883565"><ele>870.0</ele><time>2026-04-12T13:46:43Z</time></trkpt><trkpt lat="46.36484001939884" lon="12.953432515910746"><ele>870.0</ele><time>2026-04-12T13:46:44Z</time></trkpt><trkpt lat="46.36472043614129" lon="12.953258840935064"><ele>873.3333333333333</ele><time>2026-04-12T13:46:45Z</time></trkpt><trkpt lat="46.364598422143665" lon="12.953103553568777"><ele>876.6666666666666</ele><time>2026-04-12T13:46:46Z</time></trkpt><trkpt lat="46.364475021919226" lon="12.952969862448613"><ele>880.0</ele><time>2026-04-12T13:46:47Z</time></trkpt><trkpt lat="46.36433920333928" lon="12.952851596659835"><ele>880.0</ele><time>2026-04-12T13:46:48Z</time></trkpt><trkpt lat="46.36419647927152" lon="12.952737807813987"><ele>880.0</ele><time>2026-04-12T13:46:49Z</time></trkpt><trkpt lat="46.36406068825182" lon="12.952609751519793"><ele>880.0</ele><time>2026-04-12T13:46:50Z</time></trkpt><trkpt lat="46.36393593312539" lon="12.952462352313676"><ele>879.3333333333333</ele><time>2026-04-12T13:46:51Z</time></trkpt><trkpt lat="46.36382593568685" lon="12.952291000976759"><ele>878.6666666666667</ele><time>2026-04-12T13:46:52Z</time></trkpt><trkpt lat="46.363724442752904" lon="12.952117204574867"><ele>878.0</ele><time>2026-04-12T13:46:53Z</time></trkpt><trkpt lat="46.36362327991915" lon="12.95195505455671"><ele>878.0</ele><time>2026-04-12T13:46:54Z</time></trkpt><trkpt lat="46.363535234907815" lon="12.951815870098622"><ele>878.0</ele><time>2026-04-12T13:46:55Z</time></trkpt><trkpt lat="46.363457920452724" lon="12.95168928634648"><ele>878.0</ele><time>2026-04-12T13:46:56Z</time></trkpt><trkpt lat="46.363401008800366" lon="12.951570357817092"><ele>878.0</ele><time>2026-04-12T13:46:57Z</time></trkpt><trkpt lat="46.36337023845677" lon="12.951422635945606"><ele>881.25</ele><time>2026-04-12T13:46:58Z</time></trkpt><trkpt lat="46.363373490088584" lon="12.951253975948577"><ele>884.5</ele><time>2026-04-12T13:46:59Z</time></trkpt><trkpt lat="46.36340324190994" lon="12.951081817121775"><ele>887.75</ele><time>2026-04-12T13:47:00Z</time></trkpt><trkpt lat="46.36342779225914" lon="12.95089727504844"><ele>891.0</ele><time>2026-04-12T13:47:01Z</time></trkpt><trkpt lat="46.36341995374432" lon="12.950688704264222"><ele>895.0</ele><time>2026-04-12T13:47:02Z</time></trkpt><trkpt lat="46.363388438494965" lon="12.950471199804515"><ele>899.0</ele><time>2026-04-12T13:47:03Z</time></trkpt><trkpt lat="46.363320633978546" lon="12.95023712765186"><ele>903.0</ele><time>2026-04-12T13:47:04Z</time></trkpt><trkpt lat="46.363232840899734" lon="12.949952853226705"><ele>906.5</ele><time>2026-04-12T13:47:04.999Z</time></trkpt><trkpt lat="46.36313982453258" lon="12.949637903443723"><ele>910.0</ele><time>2026-04-12T13:47:05.999Z</time></trkpt><trkpt lat="46.36304565460106" lon="12.94932450333218"><ele>910.0</ele><time>2026-04-12T13:47:06.999Z</time></trkpt><trkpt lat="46.36295213546014" lon="12.94900914162615"><ele>910.0</ele><time>2026-04-12T13:47:07.999Z</time></trkpt><trkpt lat="46.36286540998386" lon="12.9487000885368"><ele>910.0</ele><time>2026-04-12T13:47:08.999Z</time></trkpt><trkpt lat="46.362784761841276" lon="12.94842465665918"><ele>910.0</ele><time>2026-04-12T13:47:09.999Z</time></trkpt><trkpt lat="46.362707046248254" lon="12.948167214310818"><ele>910.0</ele><time>2026-04-12T13:47:10.999Z</time></trkpt><trkpt lat="46.362626488526736" lon="12.947915567051348"><ele>912.3333333333333</ele><time>2026-04-12T13:47:11.999Z</time></trkpt><trkpt lat="46.36252187281659" lon="12.947672593336442"><ele>914.6666666666667</ele><time>2026-04-12T13:47:12.999Z</time></trkpt><trkpt lat="46.36239009172569" lon="12.947438926319558"><ele>917.0</ele><time>2026-04-12T13:47:13.999Z</time></trkpt><trkpt lat="46.36224570574633" lon="12.947219693121017"><ele>918.3333333333334</ele><time>2026-04-12T13:47:14.999Z</time></trkpt><trkpt lat="46.36208667215695" lon="12.947025204688378"><ele>919.6666666666667</ele><time>2026-04-12T13:47:15.999Z</time></trkpt><trkpt lat="46.36192399840972" lon="12.946857558202806"><ele>921.0</ele><time>2026-04-12T13:47:16.999Z</time></trkpt><trkpt lat="46.36176981243643" lon="12.946689001813704"><ele>924.3333333333333</ele><time>2026-04-12T13:47:17.999Z</time></trkpt><trkpt lat="46.36163387650672" lon="12.94650247944006"><ele>927.6666666666666</ele><time>2026-04-12T13:47:18.999Z</time></trkpt><trkpt lat="46.361512072743466" lon="12.946300949869945"><ele>931.0</ele><time>2026-04-12T13:47:19.999Z</time></trkpt><trkpt lat="46.361394604576944" lon="12.94608404230483"><ele>931.6666666666666</ele><time>2026-04-12T13:47:20.999Z</time></trkpt><trkpt lat="46.361273735819516" lon="12.945854251671973"><ele>932.3333333333333</ele><time>2026-04-12T13:47:21.999Z</time></trkpt><trkpt lat="46.36114901842872" lon="12.945618781867717"><ele>933.0</ele><time>2026-04-12T13:47:22.999Z</time></trkpt><trkpt lat="46.36102854931334" lon="12.94538565866766"><ele>933.0</ele><time>2026-04-12T13:47:23.999Z</time></trkpt><trkpt lat="46.36091641736591" lon="12.945148820752934"><ele>933.0</ele><time>2026-04-12T13:47:24.999Z</time></trkpt><trkpt lat="46.360814717096055" lon="12.944918211578765"><ele>933.0</ele><time>2026-04-12T13:47:25.999Z</time></trkpt><trkpt lat="46.36071629615279" lon="12.944695862880987"><ele>934.3333333333333</ele><time>2026-04-12T13:47:26.999Z</time></trkpt><trkpt lat="46.36061928125298" lon="12.944477638259785"><ele>935.6666666666666</ele><time>2026-04-12T13:47:27.999Z</time></trkpt><trkpt lat="46.36053214235626" lon="12.944263361765728"><ele>937.0</ele><time>2026-04-12T13:47:28.999Z</time></trkpt><trkpt lat="46.36046484042017" lon="12.944062855817364"><ele>937.6666666666666</ele><time>2026-04-12T13:47:29.999Z</time></trkpt><trkpt lat="46.36042315087462" lon="12.943830475689703"><ele>938.3333333333333</ele><time>2026-04-12T13:47:30.999Z</time></trkpt><trkpt lat="46.360410387257076" lon="12.9435817599404"><ele>939.0</ele><time>2026-04-12T13:47:31.999Z</time></trkpt><trkpt lat="46.36039776533856" lon="12.943350202148608"><ele>939.3333333333333</ele><time>2026-04-12T13:47:32.999Z</time></trkpt><trkpt lat="46.36034969858546" lon="12.943132353500598"><ele>939.6666666666666</ele><time>2026-04-12T13:47:33.999Z</time></trkpt><trkpt lat="46.360273212370174" lon="12.942932679143592"><ele>940.0</ele><time>2026-04-12T13:47:34.999Z</time></trkpt><trkpt lat="46.36019118668828" lon="12.942773266304602"><ele>940.0</ele><time>2026-04-12T13:47:35.999Z</time></trkpt><trkpt lat="46.36010568760395" lon="12.942617168710447"><ele>940.0</ele><time>2026-04-12T13:47:36.999Z</time></trkpt><trkpt lat="46.3600152771284" lon="12.942455137007794"><ele>940.0</ele><time>2026-04-12T13:47:37.999Z</time></trkpt><trkpt lat="46.359924011120896" lon="12.942288929215524"><ele>940.0</ele><time>2026-04-12T13:47:38.999Z</time></trkpt><trkpt lat="46.35983294894948" lon="12.942121311892448"><ele>941.4</ele><time>2026-04-12T13:47:39.999Z</time></trkpt><trkpt lat="46.35974827356787" lon="12.941963365600854"><ele>942.8</ele><time>2026-04-12T13:47:40.999Z</time></trkpt><trkpt lat="46.35967500143335" lon="12.941830001889965"><ele>944.2</ele><time>2026-04-12T13:47:41.999Z</time></trkpt><trkpt lat="46.35961574387311" lon="12.941708461164511"><ele>945.6</ele><time>2026-04-12T13:47:42.999Z</time></trkpt><trkpt lat="46.35957195303513" lon="12.9416082810236"><ele>947.0</ele><time>2026-04-12T13:47:43.999Z</time></trkpt><trkpt lat="46.35953771564903" lon="12.94152593874801"><ele>948.3333333333334</ele><time>2026-04-12T13:47:44.999Z</time></trkpt><trkpt lat="46.359481885414546" lon="12.94141214228372"><ele>949.6666666666667</ele><time>2026-04-12T13:47:46.999Z</time></trkpt><trkpt lat="46.3594200503373" lon="12.941371588683284"><ele>951.0</ele><time>2026-04-12T13:47:48.999Z</time></trkpt><trkpt lat="46.35934686247249" lon="12.94136417828651"><ele>952.3333333333333</ele><time>2026-04-12T13:47:52.999Z</time></trkpt><trkpt lat="46.35926510738623" lon="12.941292629485975"><ele>953.6666666666666</ele><time>2026-04-12T13:47:59.999Z</time></trkpt><trkpt lat="46.359243393330985" lon="12.94120123588114"><ele>955.0</ele><time>2026-04-12T13:48:01.999Z</time></trkpt><trkpt lat="46.35925720672701" lon="12.941098732620445"><ele>955.0</ele><time>2026-04-12T13:48:05.999Z</time></trkpt><trkpt lat="46.35923188023055" lon="12.941183197582268"><ele>955.0</ele><time>2026-04-12T13:54:01.999Z</time></trkpt></trkseg><trkseg><trkpt lat="46.35926144293671" lon="12.941151209558631"><ele>954.9999999999999</ele><time>2026-04-12T14:29:28Z</time></trkpt><trkpt lat="46.35924835924431" lon="12.941058662373935"><ele>955.0</ele><time>2026-04-12T14:30:15Z</time></trkpt><trkpt lat="46.35926674751979" lon="12.941152063579306"><ele>955.0</ele><time>2026-04-12T14:32:56.999Z</time></trkpt><trkpt lat="46.359313602965436" lon="12.941223639102263"><ele>955.0</ele><time>2026-04-12T14:33:01.999Z</time></trkpt><trkpt lat="46.35935426452847" lon="12.9413126147042"><ele>954.9999999999999</ele><time>2026-04-12T14:33:22Z</time></trkpt><trkpt lat="46.35943679413003" lon="12.941455638222234"><ele>955.0</ele><time>2026-04-12T14:33:24Z</time></trkpt><trkpt lat="46.35950157293998" lon="12.941578309350025"><ele>953.25</ele><time>2026-04-12T14:33:25Z</time></trkpt><trkpt lat="46.35956878520629" lon="12.941732596429087"><ele>951.5</ele><time>2026-04-12T14:33:26Z</time></trkpt><trkpt lat="46.3596459356126" lon="12.94188940826564"><ele>949.75</ele><time>2026-04-12T14:33:27Z</time></trkpt><trkpt lat="46.35971031428021" lon="12.942029856990102"><ele>948.0</ele><time>2026-04-12T14:33:28Z</time></trkpt><trkpt lat="46.35976991919785" lon="12.942143467326686"><ele>947.8</ele><time>2026-04-12T14:33:29Z</time></trkpt><trkpt lat="46.35982830304429" lon="12.942241614642674"><ele>947.5999999999999</ele><time>2026-04-12T14:33:30Z</time></trkpt><trkpt lat="46.35989145790438" lon="12.942350787824584"><ele>947.4000000000001</ele><time>2026-04-12T14:33:31Z</time></trkpt><trkpt lat="46.35996136020162" lon="12.942479255665477"><ele>947.2</ele><time>2026-04-12T14:33:32Z</time></trkpt><trkpt lat="46.36004166552732" lon="12.942626495159944"><ele>947.0</ele><time>2026-04-12T14:33:33Z</time></trkpt><trkpt lat="46.360129871441124" lon="12.94278317252144"><ele>945.25</ele><time>2026-04-12T14:33:34Z</time></trkpt><trkpt lat="46.36020861030882" lon="12.942933489739817"><ele>943.5</ele><time>2026-04-12T14:33:35Z</time></trkpt><trkpt lat="46.36027407818038" lon="12.943091584125492"><ele>941.75</ele><time>2026-04-12T14:33:36Z</time></trkpt><trkpt lat="46.3603275581058" lon="12.94326119599881"><ele>940.0</ele><time>2026-04-12T14:33:37Z</time></trkpt><trkpt lat="46.36035825046362" lon="12.94344520709967"><ele>939.75</ele><time>2026-04-12T14:33:38Z</time></trkpt><trkpt lat="46.36036409939862" lon="12.943628137609085"><ele>939.5</ele><time>2026-04-12T14:33:39Z</time></trkpt><trkpt lat="46.360361542369574" lon="12.943804276328894"><ele>939.25</ele><time>2026-04-12T14:33:40Z</time></trkpt><trkpt lat="46.36037436327278" lon="12.943969902279344"><ele>939.0</ele><time>2026-04-12T14:33:41Z</time></trkpt><trkpt lat="46.36041851904565" lon="12.9441388679955"><ele>939.3333333333333</ele><time>2026-04-12T14:33:42Z</time></trkpt><trkpt lat="46.36049301792583" lon="12.944314805472883"><ele>939.6666666666666</ele><time>2026-04-12T14:33:43Z</time></trkpt><trkpt lat="46.36058421865791" lon="12.944503458616579"><ele>940.0</ele><time>2026-04-12T14:33:44Z</time></trkpt><trkpt lat="46.36068209604047" lon="12.944706388650618"><ele>939.0</ele><time>2026-04-12T14:33:45Z</time></trkpt><trkpt lat="46.360778197067" lon="12.94492661383046"><ele>938.0</ele><time>2026-04-12T14:33:46Z</time></trkpt><trkpt lat="46.36087246472148" lon="12.945149702559654"><ele>937.0</ele><time>2026-04-12T14:33:47Z</time></trkpt><trkpt lat="46.36097510944742" lon="12.945370419912937"><ele>935.6666666666666</ele><time>2026-04-12T14:33:48Z</time></trkpt><trkpt lat="46.36108379354472" lon="12.945595462179593"><ele>934.3333333333333</ele><time>2026-04-12T14:33:49Z</time></trkpt><trkpt lat="46.36119321457715" lon="12.94581649402917"><ele>933.0</ele><time>2026-04-12T14:33:50Z</time></trkpt><trkpt lat="46.36130179127274" lon="12.946016958406075"><ele>932.3333333333333</ele><time>2026-04-12T14:33:51Z</time></trkpt><trkpt lat="46.361409408691195" lon="12.94621466677021"><ele>931.6666666666666</ele><time>2026-04-12T14:33:52Z</time></trkpt><trkpt lat="46.361516318721556" lon="12.946408262784782"><ele>931.0</ele><time>2026-04-12T14:33:53Z</time></trkpt><trkpt lat="46.361629877610554" lon="12.946591858606533"><ele>927.6666666666666</ele><time>2026-04-12T14:33:54Z</time></trkpt><trkpt lat="46.36175440688628" lon="12.946749265402497"><ele>924.3333333333333</ele><time>2026-04-12T14:33:55Z</time></trkpt><trkpt lat="46.36189554411022" lon="12.946896912522742"><ele>921.0</ele><time>2026-04-12T14:33:56Z</time></trkpt><trkpt lat="46.36204016129724" lon="12.947037453206349"><ele>921.0</ele><time>2026-04-12T14:33:57Z</time></trkpt><trkpt lat="46.362180479768284" lon="12.947194113774342"><ele>921.0</ele><time>2026-04-12T14:33:58Z</time></trkpt><trkpt lat="46.36230641630131" lon="12.947366896079934"><ele>921.0</ele><time>2026-04-12T14:33:59Z</time></trkpt><trkpt lat="46.3624193488166" lon="12.947550451529205"><ele>919.6666666666667</ele><time>2026-04-12T14:34:00Z</time></trkpt><trkpt lat="46.362516233569735" lon="12.947743558065312"><ele>918.3333333333334</ele><time>2026-04-12T14:34:01Z</time></trkpt><trkpt lat="46.36259758652694" lon="12.94794882374212"><ele>917.0</ele><time>2026-04-12T14:34:02Z</time></trkpt><trkpt lat="46.36267574542988" lon="12.948175371757236"><ele>914.6666666666667</ele><time>2026-04-12T14:34:03Z</time></trkpt><trkpt lat="46.362752308144294" lon="12.948420300328083"><ele>912.3333333333333</ele><time>2026-04-12T14:34:04Z</time></trkpt><trkpt lat="46.36283423872882" lon="12.948696234813035"><ele>910.0</ele><time>2026-04-12T14:34:05Z</time></trkpt><trkpt lat="46.36291983210095" lon="12.9489977611148"><ele>910.0</ele><time>2026-04-12T14:34:06Z</time></trkpt><trkpt lat="46.36298002143412" lon="12.949319511188346"><ele>910.0</ele><time>2026-04-12T14:34:07Z</time></trkpt><trkpt lat="46.36306404271773" lon="12.949598645349461"><ele>910.0</ele><time>2026-04-12T14:34:08Z</time></trkpt><trkpt lat="46.363141730295794" lon="12.949857320514141"><ele>907.6666666666666</ele><time>2026-04-12T14:34:09Z</time></trkpt><trkpt lat="46.363215436436604" lon="12.950101305581557"><ele>905.3333333333333</ele><time>2026-04-12T14:34:10Z</time></trkpt><trkpt lat="46.36328493965219" lon="12.950328155369425"><ele>903.0</ele><time>2026-04-12T14:34:11Z</time></trkpt><trkpt lat="46.36333596570672" lon="12.950530765299202"><ele>903.0</ele><time>2026-04-12T14:34:12Z</time></trkpt><trkpt lat="46.363359753589826" lon="12.950717406230448"><ele>903.0</ele><time>2026-04-12T14:34:13Z</time></trkpt><trkpt lat="46.3633631213141" lon="12.95091829451877"><ele>903.0</ele><time>2026-04-12T14:34:14Z</time></trkpt><trkpt lat="46.36333229745097" lon="12.951094278350563"><ele>903.0</ele><time>2026-04-12T14:34:15Z</time></trkpt><trkpt lat="46.36330796505322" lon="12.951266530626448"><ele>900.0</ele><time>2026-04-12T14:34:16Z</time></trkpt><trkpt lat="46.36329962787884" lon="12.951429749171819"><ele>897.0</ele><time>2026-04-12T14:34:17Z</time></trkpt><trkpt lat="46.36333780683346" lon="12.951590074617219"><ele>894.0</ele><time>2026-04-12T14:34:18Z</time></trkpt><trkpt lat="46.36341499587492" lon="12.951713556662797"><ele>891.0</ele><time>2026-04-12T14:34:19Z</time></trkpt><trkpt lat="46.363488538592364" lon="12.951846680314212"><ele>886.6666666666667</ele><time>2026-04-12T14:34:20Z</time></trkpt><trkpt lat="46.363574512937596" lon="12.951994100607372"><ele>882.3333333333334</ele><time>2026-04-12T14:34:21Z</time></trkpt><trkpt lat="46.36367505573681" lon="12.95216479992039"><ele>878.0</ele><time>2026-04-12T14:34:22Z</time></trkpt><trkpt lat="46.36378877879218" lon="12.952351938466393"><ele>878.6666666666667</ele><time>2026-04-12T14:34:23Z</time></trkpt><trkpt lat="46.36391068016735" lon="12.95253586748895"><ele>879.3333333333333</ele><time>2026-04-12T14:34:24Z</time></trkpt><trkpt lat="46.36406430067761" lon="12.952681012828343"><ele>880.0</ele><time>2026-04-12T14:34:25Z</time></trkpt><trkpt lat="46.36422047131853" lon="12.95281616812417"><ele>880.0</ele><time>2026-04-12T14:34:26Z</time></trkpt><trkpt lat="46.364371746505526" lon="12.952945676090472"><ele>880.0</ele><time>2026-04-12T14:34:27Z</time></trkpt><trkpt lat="46.36449726567232" lon="12.953078687674976"><ele>880.0</ele><time>2026-04-12T14:34:28Z</time></trkpt><trkpt lat="46.36461459793521" lon="12.953235734966231"><ele>876.6666666666666</ele><time>2026-04-12T14:34:29Z</time></trkpt><trkpt lat="46.36473376867952" lon="12.953400870448903"><ele>873.3333333333333</ele><time>2026-04-12T14:34:30Z</time></trkpt><trkpt lat="46.36485983812926" lon="12.953578429804981"><ele>870.0</ele><time>2026-04-12T14:34:31Z</time></trkpt><trkpt lat="46.364996213946895" lon="12.953770504907391"><ele>870.0</ele><time>2026-04-12T14:34:32Z</time></trkpt><trkpt lat="46.365150206611126" lon="12.95397722010462"><ele>870.0</ele><time>2026-04-12T14:34:32.999Z</time></trkpt><trkpt lat="46.36531851733566" lon="12.954193395550657"><ele>870.0</ele><time>2026-04-12T14:34:33.999Z</time></trkpt><trkpt lat="46.36548765864253" lon="12.954389691797166"><ele>871.6666666666667</ele><time>2026-04-12T14:34:34.999Z</time></trkpt><trkpt lat="46.36564875924267" lon="12.954574309384993"><ele>873.3333333333334</ele><time>2026-04-12T14:34:35.999Z</time></trkpt><trkpt lat="46.36580254050877" lon="12.954756117170673"><ele>875.0</ele><time>2026-04-12T14:34:36.999Z</time></trkpt><trkpt lat="46.365954036499396" lon="12.95493532497657"><ele>871.0</ele><time>2026-04-12T14:34:37.999Z</time></trkpt><trkpt lat="46.36610392817926" lon="12.955112949290863"><ele>867.0</ele><time>2026-04-12T14:34:38.999Z</time></trkpt><trkpt lat="46.366249126260115" lon="12.9552866159291"><ele>863.0</ele><time>2026-04-12T14:34:39.999Z</time></trkpt><trkpt lat="46.36638611641018" lon="12.95545046533855"><ele>863.0</ele><time>2026-04-12T14:34:40.999Z</time></trkpt><trkpt lat="46.36651700409183" lon="12.955607015774577"><ele>863.0</ele><time>2026-04-12T14:34:41.999Z</time></trkpt><trkpt lat="46.366650934949384" lon="12.955764505944103"><ele>863.0</ele><time>2026-04-12T14:34:42.999Z</time></trkpt><trkpt lat="46.36678143494219" lon="12.955903275226206"><ele>864.5</ele><time>2026-04-12T14:34:43.999Z</time></trkpt><trkpt lat="46.36690334086402" lon="12.956017931573914"><ele>866.0</ele><time>2026-04-12T14:34:44.999Z</time></trkpt><trkpt lat="46.36702228086226" lon="12.956114810379589"><ele>867.5</ele><time>2026-04-12T14:34:45.999Z</time></trkpt><trkpt lat="46.36713859189658" lon="12.956210892176818"><ele>869.0</ele><time>2026-04-12T14:34:46.999Z</time></trkpt><trkpt lat="46.36724094406972" lon="12.95630327632359"><ele>869.0000000000001</ele><time>2026-04-12T14:34:47.999Z</time></trkpt><trkpt lat="46.36731808949227" lon="12.956379738662163"><ele>869.0</ele><time>2026-04-12T14:34:48.999Z</time></trkpt><trkpt lat="46.367371481590986" lon="12.956451119595247"><ele>869.0</ele><time>2026-04-12T14:34:49.999Z</time></trkpt><trkpt lat="46.367357574626716" lon="12.956612820444267"><ele>869.0</ele><time>2026-04-12T14:34:51.999Z</time></trkpt><trkpt lat="46.3672962373312" lon="12.95666909730605"><ele>869.0000000000001</ele><time>2026-04-12T14:34:52.999Z</time></trkpt><trkpt lat="46.36722720693496" lon="12.956719916593899"><ele>869.0</ele><time>2026-04-12T14:34:53.999Z</time></trkpt><trkpt lat="46.36713251139164" lon="12.95665767492772"><ele>863.75</ele><time>2026-04-12T14:34:54.999Z</time></trkpt><trkpt lat="46.36705459582301" lon="12.95652702709611"><ele>858.5</ele><time>2026-04-12T14:34:55.999Z</time></trkpt><trkpt lat="46.366958403088525" lon="12.956399882019703"><ele>853.25</ele><time>2026-04-12T14:34:56.999Z</time></trkpt><trkpt lat="46.36684280238782" lon="12.956271324230963"><ele>848.0</ele><time>2026-04-12T14:34:57.999Z</time></trkpt><trkpt lat="46.36670551747689" lon="12.95615201639171"><ele>848.0</ele><time>2026-04-12T14:34:58.999Z</time></trkpt><trkpt lat="46.36656670146644" lon="12.956058749276538"><ele>848.0</ele><time>2026-04-12T14:34:59.999Z</time></trkpt><trkpt lat="46.36642271529749" lon="12.956000507843935"><ele>848.0</ele><time>2026-04-12T14:35:00.999Z</time></trkpt><trkpt lat="46.36627401714848" lon="12.955969126178886"><ele>845.6666666666667</ele><time>2026-04-12T14:35:01.999Z</time></trkpt><trkpt lat="46.3661203080061" lon="12.955954502942935"><ele>843.3333333333333</ele><time>2026-04-12T14:35:02.999Z</time></trkpt><trkpt lat="46.3659643073016" lon="12.95593318035777"><ele>841.0</ele><time>2026-04-12T14:35:03.999Z</time></trkpt><trkpt lat="46.36580796535801" lon="12.955895893010203"><ele>841.75</ele><time>2026-04-12T14:35:04.999Z</time></trkpt><trkpt lat="46.365660269275196" lon="12.955857141957203"><ele>842.5</ele><time>2026-04-12T14:35:05.999Z</time></trkpt><trkpt lat="46.36552472961009" lon="12.95580145031115"><ele>843.25</ele><time>2026-04-12T14:35:06.999Z</time></trkpt><trkpt lat="46.365391350105455" lon="12.955729906210241"><ele>844.0</ele><time>2026-04-12T14:35:07.999Z</time></trkpt><trkpt lat="46.36525748060306" lon="12.955647987848323"><ele>844.0</ele><time>2026-04-12T14:35:08.999Z</time></trkpt><trkpt lat="46.365121849944465" lon="12.955563287017718"><ele>844.0</ele><time>2026-04-12T14:35:09.999Z</time></trkpt><trkpt lat="46.36498382959673" lon="12.955476745803328"><ele>844.0</ele><time>2026-04-12T14:35:10.999Z</time></trkpt><trkpt lat="46.364853186195795" lon="12.955389760777795"><ele>844.0</ele><time>2026-04-12T14:35:11.999Z</time></trkpt><trkpt lat="46.36472919253248" lon="12.955314647616305"><ele>844.4000000000001</ele><time>2026-04-12T14:35:12.999Z</time></trkpt><trkpt lat="46.364622543810576" lon="12.955249835074934"><ele>844.8</ele><time>2026-04-12T14:35:13.999Z</time></trkpt><trkpt lat="46.364524674931594" lon="12.955190131012072"><ele>845.2</ele><time>2026-04-12T14:35:14.999Z</time></trkpt><trkpt lat="46.364444501335115" lon="12.95513829271762"><ele>845.5999999999999</ele><time>2026-04-12T14:35:15.999Z</time></trkpt><trkpt lat="46.36437592446674" lon="12.955100029969914"><ele>846.0</ele><time>2026-04-12T14:35:17Z</time></trkpt><trkpt lat="46.3643054061689" lon="12.95510300691858"><ele>846.0</ele><time>2026-04-12T14:35:18Z</time></trkpt><trkpt lat="46.364239606586786" lon="12.955162878650606"><ele>846.0</ele><time>2026-04-12T14:35:19Z</time></trkpt><trkpt lat="46.364179007326236" lon="12.955248140664425"><ele>846.0</ele><time>2026-04-12T14:35:20Z</time></trkpt><trkpt lat="46.36416053492461" lon="12.955390586336545"><ele>846.0</ele><time>2026-04-12T14:35:21Z</time></trkpt><trkpt lat="46.364219653947444" lon="12.955534837891923"><ele>846.0</ele><time>2026-04-12T14:35:22Z</time></trkpt><trkpt lat="46.3643188199546" lon="12.955606547600475"><ele>846.0</ele><time>2026-04-12T14:35:23Z</time></trkpt><trkpt lat="46.36443155380943" lon="12.955660424605586"><ele>846.0</ele><time>2026-04-12T14:35:24Z</time></trkpt><trkpt lat="46.36454353918437" lon="12.955768750681234"><ele>846.0</ele><time>2026-04-12T14:35:25Z</time></trkpt><trkpt lat="46.36466691958984" lon="12.955902332420168"><ele>846.0</ele><time>2026-04-12T14:35:26Z</time></trkpt><trkpt lat="46.36476978775449" lon="12.956044000307653"><ele>843.3333333333333</ele><time>2026-04-12T14:35:27Z</time></trkpt><trkpt lat="46.36486871380812" lon="12.956199343129382"><ele>840.6666666666666</ele><time>2026-04-12T14:35:28Z</time></trkpt><trkpt lat="46.36497949484742" lon="12.956366724860441"><ele>838.0</ele><time>2026-04-12T14:35:29Z</time></trkpt><trkpt lat="46.3651044440596" lon="12.956515565048601"><ele>838.0</ele><time>2026-04-12T14:35:30Z</time></trkpt><trkpt lat="46.36524416136752" lon="12.956655063549588"><ele>838.0</ele><time>2026-04-12T14:35:31Z</time></trkpt><trkpt lat="46.36539627240238" lon="12.95676927635838"><ele>838.0</ele><time>2026-04-12T14:35:32Z</time></trkpt><trkpt lat="46.365552346602946" lon="12.956870169303238"><ele>834.3333333333333</ele><time>2026-04-12T14:35:33Z</time></trkpt><trkpt lat="46.365709171543664" lon="12.956963935807575"><ele>830.6666666666667</ele><time>2026-04-12T14:35:34Z</time></trkpt><trkpt lat="46.36586516640073" lon="12.957048384752882"><ele>827.0</ele><time>2026-04-12T14:35:35Z</time></trkpt><trkpt lat="46.366014050666024" lon="12.957126751629673"><ele>827.0</ele><time>2026-04-12T14:35:36Z</time></trkpt><trkpt lat="46.36615603692132" lon="12.95717956172383"><ele>827.0</ele><time>2026-04-12T14:35:37Z</time></trkpt><trkpt lat="46.36628204861292" lon="12.957259113509798"><ele>827.0</ele><time>2026-04-12T14:35:38Z</time></trkpt><trkpt lat="46.366384698276384" lon="12.95738853314805"><ele>827.0</ele><time>2026-04-12T14:35:39Z</time></trkpt><trkpt lat="46.366475710420055" lon="12.957550487818867"><ele>824.5</ele><time>2026-04-12T14:35:40Z</time></trkpt><trkpt lat="46.36657270881252" lon="12.957715974995644"><ele>822.0</ele><time>2026-04-12T14:35:41Z</time></trkpt><trkpt lat="46.36666924190405" lon="12.957878838830531"><ele>819.5</ele><time>2026-04-12T14:35:42Z</time></trkpt><trkpt lat="46.366757491956285" lon="12.958055413219002"><ele>817.0</ele><time>2026-04-12T14:35:43Z</time></trkpt><trkpt lat="46.36682263709311" lon="12.958261831208107"><ele>813.3333333333333</ele><time>2026-04-12T14:35:44Z</time></trkpt><trkpt lat="46.366877849256845" lon="12.958494659808414"><ele>809.6666666666667</ele><time>2026-04-12T14:35:45Z</time></trkpt><trkpt lat="46.36693210621295" lon="12.95873127574783"><ele>806.0</ele><time>2026-04-12T14:35:46Z</time></trkpt><trkpt lat="46.366984192219476" lon="12.958954464932338"><ele>806.0</ele><time>2026-04-12T14:35:47Z</time></trkpt><trkpt lat="46.367028362157654" lon="12.959158280365127"><ele>806.0</ele><time>2026-04-12T14:35:48Z</time></trkpt><trkpt lat="46.36706315549051" lon="12.959349847460075"><ele>806.0</ele><time>2026-04-12T14:35:49Z</time></trkpt><trkpt lat="46.36707841724209" lon="12.959530642469964"><ele>806.0</ele><time>2026-04-12T14:35:50Z</time></trkpt><trkpt lat="46.36706828298064" lon="12.959732885124701"><ele>804.1999999999999</ele><time>2026-04-12T14:35:51Z</time></trkpt><trkpt lat="46.36703650924028" lon="12.959916527279702"><ele>802.4</ele><time>2026-04-12T14:35:52Z</time></trkpt><trkpt lat="46.366993314654636" lon="12.960070142906998"><ele>800.6</ele><time>2026-04-12T14:35:53Z</time></trkpt><trkpt lat="46.36695061973778" lon="12.96021095688624"><ele>798.8</ele><time>2026-04-12T14:35:54Z</time></trkpt><trkpt lat="46.36691752277081" lon="12.96034407613802"><ele>797.0</ele><time>2026-04-12T14:35:55Z</time></trkpt><trkpt lat="46.36690344653823" lon="12.960475710010915"><ele>797.0</ele><time>2026-04-12T14:35:56Z</time></trkpt><trkpt lat="46.36692478936526" lon="12.960608180617411"><ele>797.0</ele><time>2026-04-12T14:35:57Z</time></trkpt><trkpt lat="46.36703101777979" lon="12.960691630849368"><ele>797.0</ele><time>2026-04-12T14:35:58Z</time></trkpt><trkpt lat="46.36713738876475" lon="12.960697649089141"><ele>797.0</ele><time>2026-04-12T14:35:59Z</time></trkpt><trkpt lat="46.36721083726732" lon="12.960757092825293"><ele>797.0</ele><time>2026-04-12T14:36:00Z</time></trkpt><trkpt lat="46.36726311795993" lon="12.960808914774125"><ele>798.0</ele><time>2026-04-12T14:36:01Z</time></trkpt><trkpt lat="46.36732370380205" lon="12.960945726456112"><ele>799.0</ele><time>2026-04-12T14:36:03Z</time></trkpt><trkpt lat="46.367261535649256" lon="12.961103846893936"><ele>800.0</ele><time>2026-04-12T14:36:05Z</time></trkpt><trkpt lat="46.367164622271495" lon="12.961117528183006"><ele>801.0</ele><time>2026-04-12T14:36:06Z</time></trkpt><trkpt lat="46.36706512460317" lon="12.961123513520237"><ele>802.0</ele><time>2026-04-12T14:36:07Z</time></trkpt><trkpt lat="46.36700004891721" lon="12.961132757913221"><ele>802.0</ele><time>2026-04-12T14:36:08Z</time></trkpt><trkpt lat="46.36686027025127" lon="12.961140403610514"><ele>802.0</ele><time>2026-04-12T14:36:09Z</time></trkpt><trkpt lat="46.36674777993055" lon="12.961112397987401"><ele>802.0</ele><time>2026-04-12T14:36:10Z</time></trkpt><trkpt lat="46.36663654145221" lon="12.96111872843666"><ele>802.0</ele><time>2026-04-12T14:36:11Z</time></trkpt><trkpt lat="46.36653751317648" lon="12.961101864368493"><ele>802.0</ele><time>2026-04-12T14:36:12Z</time></trkpt><trkpt lat="46.36644678638769" lon="12.961125794956082"><ele>802.0</ele><time>2026-04-12T14:36:13Z</time></trkpt><trkpt lat="46.36637303668965" lon="12.961240456283111"><ele>802.0</ele><time>2026-04-12T14:36:14Z</time></trkpt><trkpt lat="46.36629319152988" lon="12.96132505625449"><ele>802.0</ele><time>2026-04-12T14:36:15Z</time></trkpt><trkpt lat="46.36625178669032" lon="12.961516906660389"><ele>802.0</ele><time>2026-04-12T14:36:16Z</time></trkpt><trkpt lat="46.36616257201063" lon="12.961689299443236"><ele>799.0</ele><time>2026-04-12T14:36:17Z</time></trkpt><trkpt lat="46.36605955708666" lon="12.961822909929852"><ele>796.0</ele><time>2026-04-12T14:36:18Z</time></trkpt><trkpt lat="46.365956434346266" lon="12.96191458370169"><ele>793.0</ele><time>2026-04-12T14:36:19Z</time></trkpt><trkpt lat="46.36586399330154" lon="12.96200080076251"><ele>790.0</ele><time>2026-04-12T14:36:20Z</time></trkpt><trkpt lat="46.36578952436333" lon="12.962109560845818"><ele>790.0</ele><time>2026-04-12T14:36:21Z</time></trkpt><trkpt lat="46.36572852529854" lon="12.962267733299916"><ele>790.0</ele><time>2026-04-12T14:36:22Z</time></trkpt><trkpt lat="46.36568475840513" lon="12.962459238485113"><ele>790.0</ele><time>2026-04-12T14:36:23Z</time></trkpt><trkpt lat="46.365630201271955" lon="12.962687978503578"><ele>790.0</ele><time>2026-04-12T14:36:24Z</time></trkpt><trkpt lat="46.36556243733853" lon="12.962921135759142"><ele>778.6666666666666</ele><time>2026-04-12T14:36:25Z</time></trkpt><trkpt lat="46.36550068635148" lon="12.963133935937186"><ele>767.3333333333333</ele><time>2026-04-12T14:36:26Z</time></trkpt><trkpt lat="46.36544010164881" lon="12.963333378779707"><ele>756.0</ele><time>2026-04-12T14:36:27Z</time></trkpt><trkpt lat="46.36537575030227" lon="12.963552541815304"><ele>756.0</ele><time>2026-04-12T14:36:28Z</time></trkpt><trkpt lat="46.36531247880379" lon="12.963764899157743"><ele>756.0</ele><time>2026-04-12T14:36:29Z</time></trkpt><trkpt lat="46.36525647694562" lon="12.963951626595362"><ele>756.0</ele><time>2026-04-12T14:36:30Z</time></trkpt><trkpt lat="46.36520618371118" lon="12.964126633132308"><ele>756.0</ele><time>2026-04-12T14:36:31Z</time></trkpt><trkpt lat="46.36516135716589" lon="12.964291337098041"><ele>754.8</ele><time>2026-04-12T14:36:32Z</time></trkpt><trkpt lat="46.36511812443003" lon="12.964443357534133"><ele>753.5999999999999</ele><time>2026-04-12T14:36:33Z</time></trkpt><trkpt lat="46.365085892435815" lon="12.964586124461224"><ele>752.4</ele><time>2026-04-12T14:36:34Z</time></trkpt><trkpt lat="46.36508382140845" lon="12.964737139718656"><ele>751.2</ele><time>2026-04-12T14:36:35Z</time></trkpt><trkpt lat="46.365106898692694" lon="12.964895954319832"><ele>750.0</ele><time>2026-04-12T14:36:36Z</time></trkpt><trkpt lat="46.365158372241055" lon="12.965051122859876"><ele>748.25</ele><time>2026-04-12T14:36:36.999Z</time></trkpt><trkpt lat="46.365247858302396" lon="12.96519474868552"><ele>746.5</ele><time>2026-04-12T14:36:37.999Z</time></trkpt><trkpt lat="46.36536549639057" lon="12.96528456044185"><ele>744.75</ele><time>2026-04-12T14:36:38.999Z</time></trkpt><trkpt lat="46.36550131692754" lon="12.96531861601619"><ele>743.0</ele><time>2026-04-12T14:36:39.999Z</time></trkpt><trkpt lat="46.36563221469841" lon="12.965293958734701"><ele>743.0</ele><time>2026-04-12T14:36:40.999Z</time></trkpt><trkpt lat="46.36578331347688" lon="12.965235965516401"><ele>743.0</ele><time>2026-04-12T14:36:41.999Z</time></trkpt><trkpt lat="46.365975833611486" lon="12.965169501289424"><ele>743.0</ele><time>2026-04-12T14:36:42.999Z</time></trkpt><trkpt lat="46.366141377548736" lon="12.965149882179505"><ele>743.0</ele><time>2026-04-12T14:36:43.999Z</time></trkpt><trkpt lat="46.36631362896503" lon="12.965170509714033"><ele>743.0</ele><time>2026-04-12T14:36:44.999Z</time></trkpt><trkpt lat="46.36649216597805" lon="12.965208726992893"><ele>743.0</ele><time>2026-04-12T14:36:45.999Z</time></trkpt><trkpt lat="46.366669658970636" lon="12.965295633355835"><ele>741.3333333333333</ele><time>2026-04-12T14:36:46.999Z</time></trkpt><trkpt lat="46.366829099831854" lon="12.965343725502395"><ele>739.6666666666666</ele><time>2026-04-12T14:36:47.999Z</time></trkpt><trkpt lat="46.36699663435311" lon="12.965380490553239"><ele>738.0</ele><time>2026-04-12T14:36:48.999Z</time></trkpt><trkpt lat="46.36717651805463" lon="12.965387943732967"><ele>734.6666666666666</ele><time>2026-04-12T14:36:49.999Z</time></trkpt><trkpt lat="46.367377094451676" lon="12.965381571499938"><ele>731.3333333333333</ele><time>2026-04-12T14:36:50.999Z</time></trkpt><trkpt lat="46.36757663089546" lon="12.965399506322175"><ele>728.0</ele><time>2026-04-12T14:36:51.999Z</time></trkpt><trkpt lat="46.367774936166484" lon="12.965393272619963"><ele>728.0</ele><time>2026-04-12T14:36:52.999Z</time></trkpt><trkpt lat="46.367975516423336" lon="12.965373365321888"><ele>728.0</ele><time>2026-04-12T14:36:53.999Z</time></trkpt><trkpt lat="46.368180165649136" lon="12.965367387337583"><ele>728.0</ele><time>2026-04-12T14:36:54.999Z</time></trkpt><trkpt lat="46.368382372555914" lon="12.965372412674286"><ele>726.6666666666666</ele><time>2026-04-12T14:36:55.999Z</time></trkpt><trkpt lat="46.36859017349315" lon="12.965400322473231"><ele>725.3333333333334</ele><time>2026-04-12T14:36:56.999Z</time></trkpt><trkpt lat="46.368792439379" lon="12.96541325286716"><ele>724.0</ele><time>2026-04-12T14:36:57.999Z</time></trkpt><trkpt lat="46.36899265336566" lon="12.965413079670057"><ele>722.0</ele><time>2026-04-12T14:36:58.999Z</time></trkpt><trkpt lat="46.36919800841521" lon="12.965413676141592"><ele>720.0</ele><time>2026-04-12T14:36:59.999Z</time></trkpt><trkpt lat="46.369391048837294" lon="12.965411689257497"><ele>718.0</ele><time>2026-04-12T14:37:00.999Z</time></trkpt><trkpt lat="46.3695773877554" lon="12.965436625848419"><ele>719.0</ele><time>2026-04-12T14:37:01.999Z</time></trkpt><trkpt lat="46.36974073312954" lon="12.965506037889433"><ele>720.0</ele><time>2026-04-12T14:37:02.999Z</time></trkpt><trkpt lat="46.36989834857135" lon="12.96553219242704"><ele>721.0</ele><time>2026-04-12T14:37:03.999Z</time></trkpt><trkpt lat="46.37004296072179" lon="12.965578238398274"><ele>721.0</ele><time>2026-04-12T14:37:04.999Z</time></trkpt><trkpt lat="46.370176383229726" lon="12.965663160261698"><ele>721.0</ele><time>2026-04-12T14:37:05.999Z</time></trkpt><trkpt lat="46.370300578382896" lon="12.96574846025712"><ele>721.0</ele><time>2026-04-12T14:37:06.999Z</time></trkpt><trkpt lat="46.37041235890618" lon="12.965833554999241"><ele>721.0</ele><time>2026-04-12T14:37:07.999Z</time></trkpt><trkpt lat="46.37052786237664" lon="12.96589583102131"><ele>715.0</ele><time>2026-04-12T14:37:08.999Z</time></trkpt><trkpt lat="46.37063474483211" lon="12.965966575300486"><ele>709.0</ele><time>2026-04-12T14:37:09.999Z</time></trkpt><trkpt lat="46.37076164451524" lon="12.966012207405939"><ele>703.0</ele><time>2026-04-12T14:37:10.999Z</time></trkpt><trkpt lat="46.37090048054536" lon="12.966017216644644"><ele>697.0</ele><time>2026-04-12T14:37:11.999Z</time></trkpt><trkpt lat="46.37105056115457" lon="12.965999509903726"><ele>697.0</ele><time>2026-04-12T14:37:12.999Z</time></trkpt><trkpt lat="46.371209449121814" lon="12.96598830770218"><ele>697.0</ele><time>2026-04-12T14:37:13.999Z</time></trkpt><trkpt lat="46.37138127894428" lon="12.965988719496476"><ele>697.0</ele><time>2026-04-12T14:37:14.999Z</time></trkpt><trkpt lat="46.371561695739175" lon="12.965978353101091"><ele>694.6666666666667</ele><time>2026-04-12T14:37:15.999Z</time></trkpt><trkpt lat="46.37173235979989" lon="12.965969682571272"><ele>692.3333333333334</ele><time>2026-04-12T14:37:16.999Z</time></trkpt><trkpt lat="46.37188193466281" lon="12.965961685952001"><ele>690.0</ele><time>2026-04-12T14:37:17.999Z</time></trkpt><trkpt lat="46.372013580248876" lon="12.965947809825252"><ele>690.0</ele><time>2026-04-12T14:37:18.999Z</time></trkpt><trkpt lat="46.3721429016531" lon="12.965916650419455"><ele>690.0</ele><time>2026-04-12T14:37:19.999Z</time></trkpt><trkpt lat="46.37227273851344" lon="12.965846373326467"><ele>690.0</ele><time>2026-04-12T14:37:20.999Z</time></trkpt><trkpt lat="46.37238987749543" lon="12.965736959480552"><ele>690.0</ele><time>2026-04-12T14:37:21.999Z</time></trkpt><trkpt lat="46.37250091434042" lon="12.965601985943819"><ele>692.0</ele><time>2026-04-12T14:37:23Z</time></trkpt><trkpt lat="46.372617045037465" lon="12.965457331684693"><ele>694.0</ele><time>2026-04-12T14:37:24Z</time></trkpt><trkpt lat="46.37274095106308" lon="12.965310362704583"><ele>696.0</ele><time>2026-04-12T14:37:25Z</time></trkpt><trkpt lat="46.37287375696769" lon="12.965172476090805"><ele>696.0</ele><time>2026-04-12T14:37:26Z</time></trkpt><trkpt lat="46.37301672277069" lon="12.965057326991293"><ele>696.0</ele><time>2026-04-12T14:37:27Z</time></trkpt><trkpt lat="46.37315923336824" lon="12.9649728616084"><ele>696.0</ele><time>2026-04-12T14:37:28Z</time></trkpt><trkpt lat="46.37329100594276" lon="12.964913173937534"><ele>694.5999999999999</ele><time>2026-04-12T14:37:29Z</time></trkpt><trkpt lat="46.37339758872489" lon="12.964846790302968"><ele>693.2</ele><time>2026-04-12T14:37:30Z</time></trkpt><trkpt lat="46.373494614512154" lon="12.964781285162294"><ele>691.8</ele><time>2026-04-12T14:37:31Z</time></trkpt><trkpt lat="46.3735775993371" lon="12.964704949724673"><ele>690.4000000000001</ele><time>2026-04-12T14:37:32Z</time></trkpt><trkpt lat="46.373643459673595" lon="12.964609775705295"><ele>689.0</ele><time>2026-04-12T14:37:33Z</time></trkpt><trkpt lat="46.37369181368592" lon="12.964494186529349"><ele>689.0</ele><time>2026-04-12T14:37:34Z</time></trkpt><trkpt lat="46.37371406501636" lon="12.964383116099778"><ele>689.0</ele><time>2026-04-12T14:37:35Z</time></trkpt><trkpt lat="46.37368383336388" lon="12.964260252862088"><ele>689.0</ele><time>2026-04-12T14:37:36Z</time></trkpt><trkpt lat="46.37362742389053" lon="12.964146638525392"><ele>689.0</ele><time>2026-04-12T14:37:37Z</time></trkpt><trkpt lat="46.37355553499011" lon="12.964061302181578"><ele>689.0</ele><time>2026-04-12T14:37:38Z</time></trkpt><trkpt lat="46.37349220633086" lon="12.96397704314559"><ele>689.0</ele><time>2026-04-12T14:37:39Z</time></trkpt><trkpt lat="46.37347416135826" lon="12.963859101472352"><ele>691.6</ele><time>2026-04-12T14:37:40Z</time></trkpt><trkpt lat="46.37350866444097" lon="12.963720547085524"><ele>694.2</ele><time>2026-04-12T14:37:41Z</time></trkpt><trkpt lat="46.37358036952895" lon="12.96360893764169"><ele>696.8000000000001</ele><time>2026-04-12T14:37:42Z</time></trkpt><trkpt lat="46.37366502517577" lon="12.963513348276726"><ele>699.4000000000001</ele><time>2026-04-12T14:37:43Z</time></trkpt><trkpt lat="46.373742229826405" lon="12.963414651873622"><ele>702.0</ele><time>2026-04-12T14:37:44Z</time></trkpt><trkpt lat="46.37380241443974" lon="12.963310824365108"><ele>703.8</ele><time>2026-04-12T14:37:45Z</time></trkpt><trkpt lat="46.373846946615046" lon="12.963210465350944"><ele>705.6</ele><time>2026-04-12T14:37:46Z</time></trkpt><trkpt lat="46.37386904343018" lon="12.963082324714918"><ele>707.4</ele><time>2026-04-12T14:37:47Z</time></trkpt><trkpt lat="46.37384826782604" lon="12.962943283048144"><ele>709.1999999999999</ele><time>2026-04-12T14:37:48Z</time></trkpt><trkpt lat="46.373806579430465" lon="12.962828652858931"><ele>711.0</ele><time>2026-04-12T14:37:49Z</time></trkpt><trkpt lat="46.37373958080515" lon="12.962743398026586"><ele>711.0</ele><time>2026-04-12T14:37:50Z</time></trkpt><trkpt lat="46.373686106950174" lon="12.962648367855179"><ele>711.0</ele><time>2026-04-12T14:37:51Z</time></trkpt><trkpt lat="46.37367009593339" lon="12.9625344834258"><ele>711.0</ele><time>2026-04-12T14:37:52Z</time></trkpt><trkpt lat="46.37372685765565" lon="12.962430545122494"><ele>711.0</ele><time>2026-04-12T14:37:53Z</time></trkpt><trkpt lat="46.37379437485317" lon="12.962343055805908"><ele>711.0</ele><time>2026-04-12T14:37:54Z</time></trkpt><trkpt lat="46.37389514339779" lon="12.962356159230259"><ele>711.0</ele><time>2026-04-12T14:37:55Z</time></trkpt><trkpt lat="46.373973297284735" lon="12.962373974936519"><ele>702.25</ele><time>2026-04-12T14:37:56Z</time></trkpt><trkpt lat="46.37409094964002" lon="12.962350395793052"><ele>693.5</ele><time>2026-04-12T14:37:57Z</time></trkpt><trkpt lat="46.374266492961375" lon="12.96236791029204"><ele>684.75</ele><time>2026-04-12T14:37:58Z</time></trkpt><trkpt lat="46.37441470147462" lon="12.96234827011489"><ele>676.0</ele><time>2026-04-12T14:37:59Z</time></trkpt><trkpt lat="46.37453486373041" lon="12.962486951751602"><ele>676.0</ele><time>2026-04-12T14:38:00Z</time></trkpt><trkpt lat="46.37464098752914" lon="12.962513647898982"><ele>676.0</ele><time>2026-04-12T14:38:01Z</time></trkpt><trkpt lat="46.3747677142838" lon="12.962517315419284"><ele>676.0</ele><time>2026-04-12T14:38:02Z</time></trkpt><trkpt lat="46.374885793544564" lon="12.96255839833605"><ele>676.0</ele><time>2026-04-12T14:38:03Z</time></trkpt><trkpt lat="46.37500346814952" lon="12.962546248455713"><ele>673.0</ele><time>2026-04-12T14:38:04Z</time></trkpt><trkpt lat="46.3751117813363" lon="12.962480832812567"><ele>670.0</ele><time>2026-04-12T14:38:05Z</time></trkpt><trkpt lat="46.37525152941039" lon="12.962422758111254"><ele>667.0</ele><time>2026-04-12T14:38:06Z</time></trkpt><trkpt lat="46.37536797155057" lon="12.96237436859784"><ele>664.0</ele><time>2026-04-12T14:38:07Z</time></trkpt><trkpt lat="46.37548671909464" lon="12.962325226775876"><ele>658.6</ele><time>2026-04-12T14:38:08Z</time></trkpt><trkpt lat="46.37559038961118" lon="12.962286289916728"><ele>653.2</ele><time>2026-04-12T14:38:09Z</time></trkpt><trkpt lat="46.37567367947144" lon="12.962275330443314"><ele>647.8000000000001</ele><time>2026-04-12T14:38:10Z</time></trkpt><trkpt lat="46.37572580813094" lon="12.962179990031194"><ele>642.4000000000001</ele><time>2026-04-12T14:38:11Z</time></trkpt><trkpt lat="46.37576857983928" lon="12.962084614921345"><ele>637.0</ele><time>2026-04-12T14:38:12Z</time></trkpt><trkpt lat="46.375761977257746" lon="12.961942289658746"><ele>637.0</ele><time>2026-04-12T14:38:13Z</time></trkpt><trkpt lat="46.375728676657765" lon="12.961772353649184"><ele>637.0</ele><time>2026-04-12T14:38:14Z</time></trkpt><trkpt lat="46.37571669273428" lon="12.961599441180686"><ele>637.0</ele><time>2026-04-12T14:38:15Z</time></trkpt><trkpt lat="46.375718041210305" lon="12.961442690286956"><ele>637.0</ele><time>2026-04-12T14:38:16Z</time></trkpt><trkpt lat="46.37577506627137" lon="12.961325197677773"><ele>637.0</ele><time>2026-04-12T14:38:17Z</time></trkpt><trkpt lat="46.375835316698385" lon="12.961217834041038"><ele>641.4000000000001</ele><time>2026-04-12T14:38:18Z</time></trkpt><trkpt lat="46.37591744857322" lon="12.961171206963773"><ele>645.8000000000001</ele><time>2026-04-12T14:38:19Z</time></trkpt><trkpt lat="46.375998547773186" lon="12.961155123951613"><ele>650.2</ele><time>2026-04-12T14:38:20Z</time></trkpt><trkpt lat="46.37610885139728" lon="12.96114059731193"><ele>654.6</ele><time>2026-04-12T14:38:21Z</time></trkpt><trkpt lat="46.376206602161474" lon="12.961188007467728"><ele>659.0</ele><time>2026-04-12T14:38:22Z</time></trkpt><trkpt lat="46.37631834099775" lon="12.961249207017206"><ele>653.25</ele><time>2026-04-12T14:38:23Z</time></trkpt><trkpt lat="46.376394088444364" lon="12.961268203794255"><ele>647.5</ele><time>2026-04-12T14:38:24Z</time></trkpt><trkpt lat="46.376548131066635" lon="12.961265027589198"><ele>641.75</ele><time>2026-04-12T14:38:25Z</time></trkpt><trkpt lat="46.37668499233757" lon="12.96124537422404"><ele>636.0</ele><time>2026-04-12T14:38:26Z</time></trkpt><trkpt lat="46.3768479059672" lon="12.961207795051733"><ele>636.0</ele><time>2026-04-12T14:38:27Z</time></trkpt><trkpt lat="46.37698069102055" lon="12.961158934686267"><ele>636.0</ele><time>2026-04-12T14:38:28Z</time></trkpt><trkpt lat="46.377130107811986" lon="12.961068360560116"><ele>636.0</ele><time>2026-04-12T14:38:29Z</time></trkpt><trkpt lat="46.37730235460333" lon="12.961027455293502"><ele>629.0</ele><time>2026-04-12T14:38:30Z</time></trkpt><trkpt lat="46.3774920371337" lon="12.961017514413676"><ele>622.0</ele><time>2026-04-12T14:38:31Z</time></trkpt><trkpt lat="46.37765920318084" lon="12.960989654244287"><ele>615.0</ele><time>2026-04-12T14:38:32Z</time></trkpt><trkpt lat="46.377897108346026" lon="12.960929365696453"><ele>613.25</ele><time>2026-04-12T14:38:33Z</time></trkpt><trkpt lat="46.37803518443588" lon="12.960947555439473"><ele>611.5</ele><time>2026-04-12T14:38:34Z</time></trkpt><trkpt lat="46.37817242010614" lon="12.960959466072772"><ele>609.75</ele><time>2026-04-12T14:38:35Z</time></trkpt><trkpt lat="46.37826019904063" lon="12.961010220063665"><ele>608.0</ele><time>2026-04-12T14:38:36Z</time></trkpt><trkpt lat="46.3783742740036" lon="12.96103177909842"><ele>608.0</ele><time>2026-04-12T14:38:37Z</time></trkpt><trkpt lat="46.378477475648246" lon="12.96099586278513"><ele>608.0</ele><time>2026-04-12T14:38:38Z</time></trkpt><trkpt lat="46.378599054494686" lon="12.960910720460948"><ele>608.0</ele><time>2026-04-12T14:38:39Z</time></trkpt><trkpt lat="46.37873981011533" lon="12.960804403271045"><ele>608.0</ele><time>2026-04-12T14:38:40Z</time></trkpt><trkpt lat="46.37892338001866" lon="12.960686080682843"><ele>611.6666666666666</ele><time>2026-04-12T14:38:40.999Z</time></trkpt><trkpt lat="46.37911840722366" lon="12.960582837996435"><ele>615.3333333333334</ele><time>2026-04-12T14:38:41.999Z</time></trkpt><trkpt lat="46.37930290997225" lon="12.96045720102748"><ele>619.0</ele><time>2026-04-12T14:38:42.999Z</time></trkpt><trkpt lat="46.379495717542184" lon="12.96033128468276"><ele>619.0</ele><time>2026-04-12T14:38:43.999Z</time></trkpt><trkpt lat="46.37967333669482" lon="12.960220291510806"><ele>619.0</ele><time>2026-04-12T14:38:44.999Z</time></trkpt><trkpt lat="46.37984412568751" lon="12.960145010943334"><ele>619.0</ele><time>2026-04-12T14:38:45.999Z</time></trkpt><trkpt lat="46.38000764317618" lon="12.96008010284557"><ele>619.5</ele><time>2026-04-12T14:38:46.999Z</time></trkpt><trkpt lat="46.38016850533285" lon="12.960018706741717"><ele>620.0</ele><time>2026-04-12T14:38:47.999Z</time></trkpt><trkpt lat="46.38030548357093" lon="12.95996458087137"><ele>620.5</ele><time>2026-04-12T14:38:48.999Z</time></trkpt><trkpt lat="46.38042820400447" lon="12.959911462710982"><ele>621.0</ele><time>2026-04-12T14:38:49.999Z</time></trkpt><trkpt lat="46.38055430802254" lon="12.959839666282837"><ele>615.3333333333334</ele><time>2026-04-12T14:38:50.999Z</time></trkpt><trkpt lat="46.38069681350214" lon="12.959763837619725"><ele>609.6666666666667</ele><time>2026-04-12T14:38:51.999Z</time></trkpt><trkpt lat="46.380847339005044" lon="12.959672541747594"><ele>604.0</ele><time>2026-04-12T14:38:52.999Z</time></trkpt><trkpt lat="46.38099015526064" lon="12.959575556435151"><ele>604.0</ele><time>2026-04-12T14:38:53.999Z</time></trkpt><trkpt lat="46.38113913781155" lon="12.959482822710296"><ele>604.0</ele><time>2026-04-12T14:38:54.999Z</time></trkpt><trkpt lat="46.38126645911326" lon="12.959399422478967"><ele>604.0</ele><time>2026-04-12T14:38:55.999Z</time></trkpt><trkpt lat="46.38137485755358" lon="12.959313737631579"><ele>604.0</ele><time>2026-04-12T14:38:56.999Z</time></trkpt><trkpt lat="46.38145703973169" lon="12.959225056016571"><ele>604.2</ele><time>2026-04-12T14:38:57.999Z</time></trkpt><trkpt lat="46.38152880829623" lon="12.959132648114913"><ele>604.4</ele><time>2026-04-12T14:38:58.999Z</time></trkpt><trkpt lat="46.38158928475917" lon="12.959055741625829"><ele>604.6</ele><time>2026-04-12T14:38:59.999Z</time></trkpt><trkpt lat="46.381649439337004" lon="12.959020133242106"><ele>604.8</ele><time>2026-04-12T14:39:00.999Z</time></trkpt><trkpt lat="46.38173306584293" lon="12.95909356068111"><ele>605.0</ele><time>2026-04-12T14:39:02.999Z</time></trkpt><trkpt lat="46.381698026937265" lon="12.959310033540708"><ele>604.75</ele><time>2026-04-12T14:39:04.999Z</time></trkpt><trkpt lat="46.38160061997759" lon="12.959349412117824"><ele>604.5</ele><time>2026-04-12T14:39:05.999Z</time></trkpt><trkpt lat="46.38143849961353" lon="12.959451296452267"><ele>604.25</ele><time>2026-04-12T14:39:06.999Z</time></trkpt><trkpt lat="46.381309565703674" lon="12.959557194310122"><ele>604.0</ele><time>2026-04-12T14:39:07.999Z</time></trkpt><trkpt lat="46.38118646606164" lon="12.959644455228222"><ele>604.0</ele><time>2026-04-12T14:39:08.999Z</time></trkpt><trkpt lat="46.381095205863005" lon="12.959797045712369"><ele>604.0</ele><time>2026-04-12T14:39:09.999Z</time></trkpt><trkpt lat="46.38101114677787" lon="12.95996031561202"><ele>604.0</ele><time>2026-04-12T14:39:10.999Z</time></trkpt><trkpt lat="46.38094248959429" lon="12.960134886869065"><ele>604.0</ele><time>2026-04-12T14:39:11.999Z</time></trkpt><trkpt lat="46.380855518208115" lon="12.960270793252883"><ele>603.5</ele><time>2026-04-12T14:39:12.999Z</time></trkpt><trkpt lat="46.380766827546786" lon="12.960407433714952"><ele>603.0</ele><time>2026-04-12T14:39:13.999Z</time></trkpt><trkpt lat="46.38066046227163" lon="12.960500642872137"><ele>602.5</ele><time>2026-04-12T14:39:14.999Z</time></trkpt><trkpt lat="46.38054852972181" lon="12.960630064720542"><ele>602.0</ele><time>2026-04-12T14:39:15.999Z</time></trkpt><trkpt lat="46.38042072462458" lon="12.960745698470248"><ele>597.6666666666666</ele><time>2026-04-12T14:39:16.999Z</time></trkpt><trkpt lat="46.38032468542385" lon="12.960901979931322"><ele>593.3333333333334</ele><time>2026-04-12T14:39:17.999Z</time></trkpt><trkpt lat="46.38022879848667" lon="12.961097798877127"><ele>589.0</ele><time>2026-04-12T14:39:18.999Z</time></trkpt><trkpt lat="46.380140536790265" lon="12.961286133018733"><ele>589.0</ele><time>2026-04-12T14:39:19.999Z</time></trkpt><trkpt lat="46.38005816183408" lon="12.96146022376489"><ele>589.0</ele><time>2026-04-12T14:39:20.999Z</time></trkpt><trkpt lat="46.37997122146154" lon="12.961642718563365"><ele>589.0</ele><time>2026-04-12T14:39:21.999Z</time></trkpt><trkpt lat="46.37988377358821" lon="12.961825265939963"><ele>587.75</ele><time>2026-04-12T14:39:22.999Z</time></trkpt><trkpt lat="46.37978730362543" lon="12.962025178766272"><ele>586.5</ele><time>2026-04-12T14:39:23.999Z</time></trkpt><trkpt lat="46.37970853672274" lon="12.962185476740077"><ele>585.25</ele><time>2026-04-12T14:39:24.999Z</time></trkpt><trkpt lat="46.379629232645016" lon="12.962331604929286"><ele>584.0</ele><time>2026-04-12T14:39:25.999Z</time></trkpt><trkpt lat="46.37953256350812" lon="12.962467624996583"><ele>580.25</ele><time>2026-04-12T14:39:26.999Z</time></trkpt><trkpt lat="46.37941675999586" lon="12.962582724301308"><ele>576.5</ele><time>2026-04-12T14:39:27.999Z</time></trkpt><trkpt lat="46.37928868589852" lon="12.962670463897949"><ele>572.75</ele><time>2026-04-12T14:39:29Z</time></trkpt><trkpt lat="46.37915646114376" lon="12.96272671928664"><ele>569.0</ele><time>2026-04-12T14:39:30Z</time></trkpt><trkpt lat="46.37902285530478" lon="12.962770242459314"><ele>569.0</ele><time>2026-04-12T14:39:31Z</time></trkpt><trkpt lat="46.3789113797471" lon="12.962814057953333"><ele>569.0</ele><time>2026-04-12T14:39:32Z</time></trkpt><trkpt lat="46.3788083721602" lon="12.962857357535334"><ele>569.0</ele><time>2026-04-12T14:39:33Z</time></trkpt><trkpt lat="46.378725316947815" lon="12.96291643827387"><ele>569.0</ele><time>2026-04-12T14:39:34Z</time></trkpt><trkpt lat="46.37865108089577" lon="12.963006381796772"><ele>569.0</ele><time>2026-04-12T14:39:35Z</time></trkpt><trkpt lat="46.378623508882306" lon="12.963193156413976"><ele>566.8</ele><time>2026-04-12T14:39:36Z</time></trkpt><trkpt lat="46.3786109517787" lon="12.96335120631756"><ele>564.5999999999999</ele><time>2026-04-12T14:39:37Z</time></trkpt><trkpt lat="46.378632518175934" lon="12.963512704425838"><ele>562.4</ele><time>2026-04-12T14:39:38Z</time></trkpt><trkpt lat="46.37868798863793" lon="12.963655534013833"><ele>560.1999999999999</ele><time>2026-04-12T14:39:39Z</time></trkpt><trkpt lat="46.37877701382007" lon="12.963755032021455"><ele>558.0</ele><time>2026-04-12T14:39:40Z</time></trkpt><trkpt lat="46.37890394291539" lon="12.963803877666408"><ele>558.0</ele><time>2026-04-12T14:39:41Z</time></trkpt><trkpt lat="46.37905546139912" lon="12.963850151719317"><ele>558.0</ele><time>2026-04-12T14:39:42Z</time></trkpt><trkpt lat="46.37921750126699" lon="12.96391155033173"><ele>558.0</ele><time>2026-04-12T14:39:43Z</time></trkpt><trkpt lat="46.37937876272306" lon="12.963981376427705"><ele>558.0</ele><time>2026-04-12T14:39:44Z</time></trkpt><trkpt lat="46.3795224999479" lon="12.96404286553099"><ele>558.0</ele><time>2026-04-12T14:39:45Z</time></trkpt><trkpt lat="46.379660583402135" lon="12.964110728371185"><ele>558.0</ele><time>2026-04-12T14:39:46Z</time></trkpt><trkpt lat="46.37981236439643" lon="12.964174799167466"><ele>554.6666666666666</ele><time>2026-04-12T14:39:47Z</time></trkpt><trkpt lat="46.37997237412488" lon="12.964245713535451"><ele>551.3333333333333</ele><time>2026-04-12T14:39:48Z</time></trkpt><trkpt lat="46.38013640355994" lon="12.964320915127155"><ele>548.0</ele><time>2026-04-12T14:39:49Z</time></trkpt><trkpt lat="46.380303146296676" lon="12.964400573827294"><ele>548.0</ele><time>2026-04-12T14:39:50Z</time></trkpt><trkpt lat="46.38045727617862" lon="12.964465505907127"><ele>548.0</ele><time>2026-04-12T14:39:51Z</time></trkpt><trkpt lat="46.380607513441845" lon="12.964514700117475"><ele>548.0</ele><time>2026-04-12T14:39:52Z</time></trkpt><trkpt lat="46.380754723397864" lon="12.964549516853248"><ele>544.0</ele><time>2026-04-12T14:39:53Z</time></trkpt><trkpt lat="46.38090122044663" lon="12.964551834612173"><ele>540.0</ele><time>2026-04-12T14:39:54Z</time></trkpt><trkpt lat="46.38105204080402" lon="12.964533053474815"><ele>536.0</ele><time>2026-04-12T14:39:55Z</time></trkpt><trkpt lat="46.381186827846804" lon="12.964507587943379"><ele>532.0</ele><time>2026-04-12T14:39:56Z</time></trkpt><trkpt lat="46.38131189433226" lon="12.96448896733076"><ele>532.0</ele><time>2026-04-12T14:39:57Z</time></trkpt><trkpt lat="46.381424356698865" lon="12.964467586299566"><ele>532.0</ele><time>2026-04-12T14:39:58Z</time></trkpt><trkpt lat="46.38151557712362" lon="12.96445796469953"><ele>532.0</ele><time>2026-04-12T14:39:59Z</time></trkpt><trkpt lat="46.38160075058668" lon="12.964483935406767"><ele>532.0</ele><time>2026-04-12T14:40:00Z</time></trkpt><trkpt lat="46.38169116174199" lon="12.96454048270428"><ele>532.0</ele><time>2026-04-12T14:40:01Z</time></trkpt><trkpt lat="46.38167797872163" lon="12.96476914122294"><ele>532.0</ele><time>2026-04-12T14:40:02Z</time></trkpt><trkpt lat="46.38171714568908" lon="12.964929994719395"><ele>532.0</ele><time>2026-04-12T14:40:03Z</time></trkpt><trkpt lat="46.38175490994353" lon="12.965118619697844"><ele>532.0</ele><time>2026-04-12T14:40:04Z</time></trkpt><trkpt lat="46.381803564603416" lon="12.965299272481692"><ele>532.0</ele><time>2026-04-12T14:40:05Z</time></trkpt><trkpt lat="46.381867691484224" lon="12.965449239952003"><ele>527.25</ele><time>2026-04-12T14:40:06Z</time></trkpt><trkpt lat="46.38192747022459" lon="12.965583567103282"><ele>522.5</ele><time>2026-04-12T14:40:07Z</time></trkpt><trkpt lat="46.38201741775292" lon="12.96570401874633"><ele>517.75</ele><time>2026-04-12T14:40:08Z</time></trkpt><trkpt lat="46.38212254431688" lon="12.965788981540404"><ele>513.0</ele><time>2026-04-12T14:40:09Z</time></trkpt><trkpt lat="46.38223298150091" lon="12.965827861564199"><ele>513.0</ele><time>2026-04-12T14:40:10Z</time></trkpt><trkpt lat="46.38233917241624" lon="12.965823610413164"><ele>513.0</ele><time>2026-04-12T14:40:11Z</time></trkpt><trkpt lat="46.3824262856361" lon="12.965813176850064"><ele>513.0</ele><time>2026-04-12T14:40:12Z</time></trkpt><trkpt lat="46.38255460871495" lon="12.965758619218505"><ele>513.0</ele><time>2026-04-12T14:40:13Z</time></trkpt><trkpt lat="46.382684964304545" lon="12.965675806385024"><ele>513.0</ele><time>2026-04-12T14:40:14Z</time></trkpt><trkpt lat="46.38279715746172" lon="12.96556931025229"><ele>513.0</ele><time>2026-04-12T14:40:15Z</time></trkpt><trkpt lat="46.38293837807526" lon="12.965420065936595"><ele>513.0</ele><time>2026-04-12T14:40:16Z</time></trkpt><trkpt lat="46.383072613654996" lon="12.965291284815274"><ele>513.3333333333334</ele><time>2026-04-12T14:40:17Z</time></trkpt><trkpt lat="46.38323130344163" lon="12.965166479998917"><ele>513.6666666666667</ele><time>2026-04-12T14:40:18Z</time></trkpt><trkpt lat="46.38336227555343" lon="12.964989475705725"><ele>514.0</ele><time>2026-04-12T14:40:19Z</time></trkpt><trkpt lat="46.383486116873684" lon="12.964822935143019"><ele>514.0</ele><time>2026-04-12T14:40:20Z</time></trkpt><trkpt lat="46.383585630134085" lon="12.964698232062847"><ele>514.0</ele><time>2026-04-12T14:40:21Z</time></trkpt><trkpt lat="46.38367677000479" lon="12.964542134427672"><ele>514.0</ele><time>2026-04-12T14:40:22Z</time></trkpt><trkpt lat="46.38375376501487" lon="12.964393018943905"><ele>514.0</ele><time>2026-04-12T14:40:23Z</time></trkpt><trkpt lat="46.38381855789411" lon="12.964280382946447"><ele>511.0</ele><time>2026-04-12T14:40:24Z</time></trkpt><trkpt lat="46.38388097462594" lon="12.96416446078033"><ele>508.0</ele><time>2026-04-12T14:40:25Z</time></trkpt><trkpt lat="46.38394354344681" lon="12.964065045032331"><ele>505.0</ele><time>2026-04-12T14:40:26Z</time></trkpt><trkpt lat="46.38402100533698" lon="12.964009711247607"><ele>502.0</ele><time>2026-04-12T14:40:27Z</time></trkpt><trkpt lat="46.38411153344457" lon="12.964102907571675"><ele>499.0</ele><time>2026-04-12T14:40:28Z</time></trkpt><trkpt lat="46.384207340290665" lon="12.964171323271323"><ele>498.79999999999995</ele><time>2026-04-12T14:40:29Z</time></trkpt><trkpt lat="46.3843101862938" lon="12.96423973066668"><ele>498.59999999999997</ele><time>2026-04-12T14:40:30Z</time></trkpt><trkpt lat="46.38439684416052" lon="12.96430809109268"><ele>498.4</ele><time>2026-04-12T14:40:31Z</time></trkpt><trkpt lat="46.38447181687718" lon="12.964385336249487"><ele>498.2</ele><time>2026-04-12T14:40:32Z</time></trkpt><trkpt lat="46.38450778763755" lon="12.964498355815113"><ele>498.0</ele><time>2026-04-12T14:40:33Z</time></trkpt><trkpt lat="46.38453108865697" lon="12.964628955400551"><ele>498.0</ele><time>2026-04-12T14:40:34Z</time></trkpt><trkpt lat="46.384462741864596" lon="12.964783776710012"><ele>498.0</ele><time>2026-04-12T14:40:35Z</time></trkpt><trkpt lat="46.38441245696636" lon="12.964974539529829"><ele>498.0</ele><time>2026-04-12T14:40:36Z</time></trkpt><trkpt lat="46.38434882340666" lon="12.965170190315014"><ele>498.0</ele><time>2026-04-12T14:40:37Z</time></trkpt><trkpt lat="46.38427608986499" lon="12.965371903667549"><ele>501.5</ele><time>2026-04-12T14:40:38Z</time></trkpt><trkpt lat="46.38418624409534" lon="12.96553730774181"><ele>505.0</ele><time>2026-04-12T14:40:39Z</time></trkpt><trkpt lat="46.38410106915192" lon="12.965691290657748"><ele>508.5</ele><time>2026-04-12T14:40:40Z</time></trkpt><trkpt lat="46.38401906576229" lon="12.965840269709894"><ele>512.0</ele><time>2026-04-12T14:40:41Z</time></trkpt><trkpt lat="46.38394339963749" lon="12.965984661809037"><ele>508.5</ele><time>2026-04-12T14:40:42Z</time></trkpt><trkpt lat="46.38387781994167" lon="12.966139847521081"><ele>505.0</ele><time>2026-04-12T14:40:43Z</time></trkpt><trkpt lat="46.38382955301467" lon="12.966305126364485"><ele>501.5</ele><time>2026-04-12T14:40:43.999Z</time></trkpt><trkpt lat="46.383802893987514" lon="12.96648020837603"><ele>498.0</ele><time>2026-04-12T14:40:44.999Z</time></trkpt><trkpt lat="46.38379305268586" lon="12.966651800328728"><ele>502.75</ele><time>2026-04-12T14:40:45.999Z</time></trkpt><trkpt lat="46.38374995737221" lon="12.966804775958316"><ele>507.5</ele><time>2026-04-12T14:40:46.999Z</time></trkpt><trkpt lat="46.38369931542566" lon="12.966954688131603"><ele>512.25</ele><time>2026-04-12T14:40:47.999Z</time></trkpt><trkpt lat="46.383585407606695" lon="12.967062053217987"><ele>517.0</ele><time>2026-04-12T14:40:48.999Z</time></trkpt><trkpt lat="46.383488575063986" lon="12.967205146107803"><ele>517.0</ele><time>2026-04-12T14:40:49.999Z</time></trkpt><trkpt lat="46.38338796079451" lon="12.967361281059388"><ele>517.0</ele><time>2026-04-12T14:40:50.999Z</time></trkpt><trkpt lat="46.383291478545864" lon="12.967528798651356"><ele>517.0</ele><time>2026-04-12T14:40:51.999Z</time></trkpt><trkpt lat="46.383190501047615" lon="12.967688499148029"><ele>517.0</ele><time>2026-04-12T14:40:52.999Z</time></trkpt><trkpt lat="46.3830952277143" lon="12.967844729326856"><ele>515.75</ele><time>2026-04-12T14:40:53.999Z</time></trkpt><trkpt lat="46.38300529165" lon="12.967996422396128"><ele>514.5</ele><time>2026-04-12T14:40:54.999Z</time></trkpt><trkpt lat="46.38292279630303" lon="12.968146344701928"><ele>513.25</ele><time>2026-04-12T14:40:55.999Z</time></trkpt><trkpt lat="46.38285932690826" lon="12.96830151201609"><ele>512.0</ele><time>2026-04-12T14:40:56.999Z</time></trkpt><trkpt lat="46.382801540467675" lon="12.968456298478536"><ele>519.0</ele><time>2026-04-12T14:40:57.999Z</time></trkpt><trkpt lat="46.38273037562691" lon="12.968583122607681"><ele>526.0</ele><time>2026-04-12T14:40:58.999Z</time></trkpt><trkpt lat="46.38263742476949" lon="12.968679216001355"><ele>533.0</ele><time>2026-04-12T14:40:59.999Z</time></trkpt><trkpt lat="46.382531625252376" lon="12.96876660180222"><ele>540.0</ele><time>2026-04-12T14:41:00.999Z</time></trkpt><trkpt lat="46.38241148711002" lon="12.96882270110873"><ele>540.0</ele><time>2026-04-12T14:41:01.999Z</time></trkpt><trkpt lat="46.38228524813198" lon="12.96885382196862"><ele>540.0</ele><time>2026-04-12T14:41:02.999Z</time></trkpt><trkpt lat="46.382163864336775" lon="12.968896531480766"><ele>540.0</ele><time>2026-04-12T14:41:03.999Z</time></trkpt><trkpt lat="46.38206051552253" lon="12.968950983974755"><ele>540.0</ele><time>2026-04-12T14:41:04.999Z</time></trkpt><trkpt lat="46.381973618063746" lon="12.969034489760151"><ele>533.5</ele><time>2026-04-12T14:41:05.999Z</time></trkpt><trkpt lat="46.38189845806262" lon="12.969163072318457"><ele>527.0</ele><time>2026-04-12T14:41:06.999Z</time></trkpt><trkpt lat="46.381841835043254" lon="12.969342068575067"><ele>520.5</ele><time>2026-04-12T14:41:07.999Z</time></trkpt><trkpt lat="46.38179428677081" lon="12.969533684336344"><ele>514.0</ele><time>2026-04-12T14:41:08.999Z</time></trkpt><trkpt lat="46.38176169626248" lon="12.969712001492331"><ele>514.0</ele><time>2026-04-12T14:41:09.999Z</time></trkpt><trkpt lat="46.3817452480168" lon="12.969893935502265"><ele>514.0</ele><time>2026-04-12T14:41:10.999Z</time></trkpt><trkpt lat="46.38175928824928" lon="12.970103793417977"><ele>514.0</ele><time>2026-04-12T14:41:11.999Z</time></trkpt><trkpt lat="46.38175727152407" lon="12.970321312740845"><ele>514.0</ele><time>2026-04-12T14:41:12.999Z</time></trkpt><trkpt lat="46.38176145850353" lon="12.970518994817853"><ele>514.75</ele><time>2026-04-12T14:41:13.999Z</time></trkpt><trkpt lat="46.381773474307224" lon="12.970707525274054"><ele>515.5</ele><time>2026-04-12T14:41:14.999Z</time></trkpt><trkpt lat="46.38173576571476" lon="12.970883137778317"><ele>516.25</ele><time>2026-04-12T14:41:15.999Z</time></trkpt><trkpt lat="46.38168988827767" lon="12.971050049576782"><ele>517.0</ele><time>2026-04-12T14:41:16.999Z</time></trkpt><trkpt lat="46.381618398892215" lon="12.971201474663705"><ele>518.4</ele><time>2026-04-12T14:41:17.999Z</time></trkpt><trkpt lat="46.38156185759058" lon="12.971355925877017"><ele>519.8000000000001</ele><time>2026-04-12T14:41:18.999Z</time></trkpt><trkpt lat="46.38150571281789" lon="12.971468351953266"><ele>521.2</ele><time>2026-04-12T14:41:19.999Z</time></trkpt><trkpt lat="46.38146539300182" lon="12.971585109857278"><ele>522.6</ele><time>2026-04-12T14:41:20.999Z</time></trkpt><trkpt lat="46.381448946419326" lon="12.971722702322895"><ele>524.0</ele><time>2026-04-12T14:41:21.999Z</time></trkpt><trkpt lat="46.38146925727601" lon="12.971862176852813"><ele>524.0</ele><time>2026-04-12T14:41:22.999Z</time></trkpt><trkpt lat="46.381521163874616" lon="12.972001018825067"><ele>524.0</ele><time>2026-04-12T14:41:23.999Z</time></trkpt><trkpt lat="46.38160307249499" lon="12.972146379930638"><ele>524.0</ele><time>2026-04-12T14:41:24.999Z</time></trkpt><trkpt lat="46.381691630955665" lon="12.972314705159482"><ele>524.0</ele><time>2026-04-12T14:41:25.999Z</time></trkpt><trkpt lat="46.38177886288267" lon="12.972499734563065"><ele>520.75</ele><time>2026-04-12T14:41:26.999Z</time></trkpt><trkpt lat="46.38186117212289" lon="12.972677784780577"><ele>517.5</ele><time>2026-04-12T14:41:27.999Z</time></trkpt><trkpt lat="46.38195499314544" lon="12.972817027053766"><ele>514.25</ele><time>2026-04-12T14:41:28.999Z</time></trkpt><trkpt lat="46.38204967744715" lon="12.972933625617976"><ele>511.0</ele><time>2026-04-12T14:41:29.999Z</time></trkpt><trkpt lat="46.38214783789414" lon="12.973037586238517"><ele>514.25</ele><time>2026-04-12T14:41:30.999Z</time></trkpt><trkpt lat="46.38225398029683" lon="12.97312672221163"><ele>517.5</ele><time>2026-04-12T14:41:31.999Z</time></trkpt><trkpt lat="46.3823691050535" lon="12.97319920517106"><ele>520.75</ele><time>2026-04-12T14:41:32.999Z</time></trkpt><trkpt lat="46.38248554659626" lon="12.973267605947019"><ele>524.0</ele><time>2026-04-12T14:41:33.999Z</time></trkpt><trkpt lat="46.38260305094379" lon="12.973340716198217"><ele>525.0</ele><time>2026-04-12T14:41:35Z</time></trkpt><trkpt lat="46.38273046056481" lon="12.973419772698064"><ele>526.0</ele><time>2026-04-12T14:41:36Z</time></trkpt><trkpt lat="46.38286317036192" lon="12.97350580842424"><ele>527.0</ele><time>2026-04-12T14:41:37Z</time></trkpt><trkpt lat="46.38300206625542" lon="12.973590928399368"><ele>528.0</ele><time>2026-04-12T14:41:38Z</time></trkpt><trkpt lat="46.38312734314094" lon="12.973695852578002"><ele>528.0</ele><time>2026-04-12T14:41:39Z</time></trkpt><trkpt lat="46.3832325873624" lon="12.97379889231704"><ele>528.0</ele><time>2026-04-12T14:41:40Z</time></trkpt><trkpt lat="46.383334411033005" lon="12.973911960528444"><ele>528.0</ele><time>2026-04-12T14:41:41Z</time></trkpt><trkpt lat="46.383415392135795" lon="12.974052385087782"><ele>528.0</ele><time>2026-04-12T14:41:42Z</time></trkpt><trkpt lat="46.383494653334544" lon="12.974206293258673"><ele>527.25</ele><time>2026-04-12T14:41:43Z</time></trkpt><trkpt lat="46.383555099663205" lon="12.9743799253442"><ele>526.5</ele><time>2026-04-12T14:41:44Z</time></trkpt><trkpt lat="46.38359881731633" lon="12.9745580759663"><ele>525.75</ele><time>2026-04-12T14:41:45Z</time></trkpt><trkpt lat="46.38362435458656" lon="12.974749610106228"><ele>525.0</ele><time>2026-04-12T14:41:46Z</time></trkpt><trkpt lat="46.38363214077827" lon="12.97494578326"><ele>525.0</ele><time>2026-04-12T14:41:47Z</time></trkpt><trkpt lat="46.38362113210375" lon="12.975139178575203"><ele>525.0</ele><time>2026-04-12T14:41:48Z</time></trkpt><trkpt lat="46.38359077054006" lon="12.975330073471893"><ele>525.0</ele><time>2026-04-12T14:41:49Z</time></trkpt><trkpt lat="46.38354950094271" lon="12.975523125893027"><ele>525.0</ele><time>2026-04-12T14:41:50Z</time></trkpt><trkpt lat="46.38350433281487" lon="12.975706431105028"><ele>525.0</ele><time>2026-04-12T14:41:51Z</time></trkpt><trkpt lat="46.38346531870941" lon="12.975869567892932"><ele>525.0</ele><time>2026-04-12T14:41:52Z</time></trkpt><trkpt lat="46.38342995088104" lon="12.976019881091508"><ele>525.0</ele><time>2026-04-12T14:41:53Z</time></trkpt><trkpt lat="46.38339511035103" lon="12.976167953261193"><ele>525.0</ele><time>2026-04-12T14:41:54Z</time></trkpt><trkpt lat="46.38336181105172" lon="12.976307099096129"><ele>525.0</ele><time>2026-04-12T14:41:55Z</time></trkpt><trkpt lat="46.38332841669531" lon="12.976446659384347"><ele>525.0</ele><time>2026-04-12T14:41:56Z</time></trkpt><trkpt lat="46.38329243641742" lon="12.976597026629042"><ele>525.0</ele><time>2026-04-12T14:41:57Z</time></trkpt><trkpt lat="46.383255004340015" lon="12.976750401265498"><ele>525.0</ele><time>2026-04-12T14:41:58Z</time></trkpt><trkpt lat="46.383217860511905" lon="12.976902058619638"><ele>525.0</ele><time>2026-04-12T14:41:59Z</time></trkpt><trkpt lat="46.383182422393425" lon="12.97704423206109"><ele>525.0</ele><time>2026-04-12T14:42:00Z</time></trkpt><trkpt lat="46.38314680741898" lon="12.977187115034512"><ele>524.6</ele><time>2026-04-12T14:42:01Z</time></trkpt><trkpt lat="46.38311020804748" lon="12.977330617043414"><ele>524.2</ele><time>2026-04-12T14:42:02Z</time></trkpt><trkpt lat="46.38307494713629" lon="12.977475703874216"><ele>523.8</ele><time>2026-04-12T14:42:03Z</time></trkpt><trkpt lat="46.38304279971522" lon="12.977617879206731"><ele>523.4</ele><time>2026-04-12T14:42:04Z</time></trkpt><trkpt lat="46.38304502304761" lon="12.977774177389533"><ele>523.0</ele><time>2026-04-12T14:42:05Z</time></trkpt><trkpt lat="46.383086606345096" lon="12.977917468806357"><ele>523.0</ele><time>2026-04-12T14:42:06Z</time></trkpt><trkpt lat="46.38314595371265" lon="12.978041184259814"><ele>523.0</ele><time>2026-04-12T14:42:07Z</time></trkpt><trkpt lat="46.38322746002451" lon="12.978144297538321"><ele>523.0</ele><time>2026-04-12T14:42:08Z</time></trkpt><trkpt lat="46.383332869159574" lon="12.97823913145949"><ele>523.0</ele><time>2026-04-12T14:42:09Z</time></trkpt><trkpt lat="46.383444122562416" lon="12.978370177205958"><ele>523.0</ele><time>2026-04-12T14:42:10Z</time></trkpt><trkpt lat="46.38357353227711" lon="12.978504630416351"><ele>523.0</ele><time>2026-04-12T14:42:11Z</time></trkpt><trkpt lat="46.38369613564389" lon="12.978633215503478"><ele>523.0</ele><time>2026-04-12T14:42:12Z</time></trkpt><trkpt lat="46.383799115554375" lon="12.978752491329532"><ele>523.0</ele><time>2026-04-12T14:42:13Z</time></trkpt><trkpt lat="46.38387781533865" lon="12.978862141516665"><ele>522.4</ele><time>2026-04-12T14:42:14Z</time></trkpt><trkpt lat="46.38393466078038" lon="12.978986879537658"><ele>521.8</ele><time>2026-04-12T14:42:15Z</time></trkpt><trkpt lat="46.38397712131262" lon="12.979125803744486"><ele>521.2</ele><time>2026-04-12T14:42:16Z</time></trkpt><trkpt lat="46.383941307979654" lon="12.979284471233736"><ele>520.6</ele><time>2026-04-12T14:42:17Z</time></trkpt><trkpt lat="46.38390883943709" lon="12.979455742275862"><ele>520.0</ele><time>2026-04-12T14:42:18Z</time></trkpt><trkpt lat="46.383874255224846" lon="12.979656440488403"><ele>518.3333333333334</ele><time>2026-04-12T14:42:19Z</time></trkpt><trkpt lat="46.38383514362735" lon="12.979877380742412"><ele>516.6666666666666</ele><time>2026-04-12T14:42:20Z</time></trkpt><trkpt lat="46.383792659991016" lon="12.980122134076476"><ele>515.0</ele><time>2026-04-12T14:42:21Z</time></trkpt><trkpt lat="46.38374832953916" lon="12.980377525044554"><ele>512.6666666666666</ele><time>2026-04-12T14:42:22Z</time></trkpt><trkpt lat="46.38373543261574" lon="12.980650369362603"><ele>510.33333333333337</ele><time>2026-04-12T14:42:23Z</time></trkpt><trkpt lat="46.38368862571015" lon="12.980914023997281"><ele>508.0</ele><time>2026-04-12T14:42:24Z</time></trkpt><trkpt lat="46.38364644486036" lon="12.981165205813445"><ele>507.0</ele><time>2026-04-12T14:42:25Z</time></trkpt><trkpt lat="46.38361239886659" lon="12.981396568545799"><ele>506.0</ele><time>2026-04-12T14:42:26Z</time></trkpt><trkpt lat="46.383548579909785" lon="12.981631877241197"><ele>505.0</ele><time>2026-04-12T14:42:27Z</time></trkpt><trkpt lat="46.38352625170172" lon="12.981868504114116"><ele>504.0</ele><time>2026-04-12T14:42:28Z</time></trkpt><trkpt lat="46.38350459453277" lon="12.982088920508414"><ele>503.0</ele><time>2026-04-12T14:42:29Z</time></trkpt><trkpt lat="46.38348286956852" lon="12.982301550079509"><ele>502.0</ele><time>2026-04-12T14:42:30Z</time></trkpt><trkpt lat="46.383461300252165" lon="12.982512656303594"><ele>501.0</ele><time>2026-04-12T14:42:31Z</time></trkpt><trkpt lat="46.38343959547473" lon="12.98272508825716"><ele>498.75</ele><time>2026-04-12T14:42:32Z</time></trkpt><trkpt lat="46.383418144763226" lon="12.982935033640567"><ele>496.5</ele><time>2026-04-12T14:42:33Z</time></trkpt><trkpt lat="46.38339718576462" lon="12.983140166481036"><ele>494.25</ele><time>2026-04-12T14:42:34Z</time></trkpt><trkpt lat="46.38337571435001" lon="12.983350314432949"><ele>492.0</ele><time>2026-04-12T14:42:35Z</time></trkpt><trkpt lat="46.383354617588935" lon="12.983556517871701"><ele>491.5</ele><time>2026-04-12T14:42:36Z</time></trkpt><trkpt lat="46.38333394041267" lon="12.983758453202483"><ele>491.0</ele><time>2026-04-12T14:42:37Z</time></trkpt><trkpt lat="46.38331422735261" lon="12.98394901280946"><ele>490.5</ele><time>2026-04-12T14:42:38Z</time></trkpt><trkpt lat="46.383294807570515" lon="12.984136735870326"><ele>490.0</ele><time>2026-04-12T14:42:39Z</time></trkpt><trkpt lat="46.38327159354861" lon="12.984321424783493"><ele>490.0</ele><time>2026-04-12T14:42:40Z</time></trkpt><trkpt lat="46.383230530490565" lon="12.98449550797664"><ele>490.0</ele><time>2026-04-12T14:42:41Z</time></trkpt><trkpt lat="46.38316662901602" lon="12.984655063184652"><ele>490.0</ele><time>2026-04-12T14:42:42Z</time></trkpt><trkpt lat="46.38308693594138" lon="12.984808701650653"><ele>490.0</ele><time>2026-04-12T14:42:43Z</time></trkpt><trkpt lat="46.383004412599334" lon="12.984957630727608"><ele>486.0</ele><time>2026-04-12T14:42:44Z</time></trkpt><trkpt lat="46.38292497325345" lon="12.985122195931222"><ele>482.0</ele><time>2026-04-12T14:42:45Z</time></trkpt><trkpt lat="46.38286066225036" lon="12.985316046163652"><ele>478.0</ele><time>2026-04-12T14:42:45.999Z</time></trkpt><trkpt lat="46.38281333502023" lon="12.985530286848538"><ele>474.0</ele><time>2026-04-12T14:42:46.999Z</time></trkpt><trkpt lat="46.382773799930256" lon="12.985760376875024"><ele>474.33333333333337</ele><time>2026-04-12T14:42:47.999Z</time></trkpt><trkpt lat="46.38273278207469" lon="12.985996375256272"><ele>474.6666666666667</ele><time>2026-04-12T14:42:48.999Z</time></trkpt><trkpt lat="46.38269221816873" lon="12.986230054035088"><ele>475.0</ele><time>2026-04-12T14:42:49.999Z</time></trkpt><trkpt lat="46.38265589500928" lon="12.986450619161966"><ele>475.0</ele><time>2026-04-12T14:42:50.999Z</time></trkpt><trkpt lat="46.38263841646655" lon="12.986676703219308"><ele>475.0</ele><time>2026-04-12T14:42:51.999Z</time></trkpt><trkpt lat="46.382638972655364" lon="12.98689839990353"><ele>475.0</ele><time>2026-04-12T14:42:52.999Z</time></trkpt><trkpt lat="46.382656278775634" lon="12.987126599212173"><ele>475.33333333333337</ele><time>2026-04-12T14:42:53.999Z</time></trkpt><trkpt lat="46.38268002189032" lon="12.987357232784861"><ele>475.66666666666663</ele><time>2026-04-12T14:42:54.999Z</time></trkpt><trkpt lat="46.38270340006764" lon="12.987585185462686"><ele>476.0</ele><time>2026-04-12T14:42:55.999Z</time></trkpt><trkpt lat="46.382727031384846" lon="12.987815606293257"><ele>475.3333333333333</ele><time>2026-04-12T14:42:56.999Z</time></trkpt><trkpt lat="46.38274849172741" lon="12.988040394803464"><ele>474.66666666666663</ele><time>2026-04-12T14:42:57.999Z</time></trkpt><trkpt lat="46.3827676025762" lon="12.988250226571662"><ele>474.0</ele><time>2026-04-12T14:42:58.999Z</time></trkpt><trkpt lat="46.38278387724812" lon="12.988462029870588"><ele>473.5</ele><time>2026-04-12T14:42:59.999Z</time></trkpt><trkpt lat="46.382785781434684" lon="12.988669578977023"><ele>473.0</ele><time>2026-04-12T14:43:00.999Z</time></trkpt><trkpt lat="46.382773758190325" lon="12.98887222914252"><ele>472.5</ele><time>2026-04-12T14:43:01.999Z</time></trkpt><trkpt lat="46.382749566030505" lon="12.989063456721679"><ele>472.0</ele><time>2026-04-12T14:43:02.999Z</time></trkpt><trkpt lat="46.3827139620876" lon="12.989245889632372"><ele>471.0</ele><time>2026-04-12T14:43:03.999Z</time></trkpt><trkpt lat="46.382672140261725" lon="12.989425552526441"><ele>470.0</ele><time>2026-04-12T14:43:04.999Z</time></trkpt><trkpt lat="46.382628878352385" lon="12.989590193852894"><ele>469.0</ele><time>2026-04-12T14:43:05.999Z</time></trkpt><trkpt lat="46.38258898554802" lon="12.989752894370028"><ele>468.0</ele><time>2026-04-12T14:43:06.999Z</time></trkpt><trkpt lat="46.382564049058175" lon="12.989917388314947"><ele>466.25</ele><time>2026-04-12T14:43:07.999Z</time></trkpt><trkpt lat="46.382562241346115" lon="12.990088609500962"><ele>464.5</ele><time>2026-04-12T14:43:08.999Z</time></trkpt><trkpt lat="46.38258709864714" lon="12.990260824245048"><ele>462.75</ele><time>2026-04-12T14:43:09.999Z</time></trkpt><trkpt lat="46.382635114471924" lon="12.990434825136301"><ele>461.0</ele><time>2026-04-12T14:43:10.999Z</time></trkpt><trkpt lat="46.38269443480859" lon="12.990604830188774"><ele>461.0</ele><time>2026-04-12T14:43:11.999Z</time></trkpt><trkpt lat="46.382751693873836" lon="12.990775969365641"><ele>461.0</ele><time>2026-04-12T14:43:12.999Z</time></trkpt><trkpt lat="46.382808219826494" lon="12.990944915633595"><ele>461.0</ele><time>2026-04-12T14:43:13.999Z</time></trkpt><trkpt lat="46.382869659994334" lon="12.991107260721314"><ele>461.0</ele><time>2026-04-12T14:43:14.999Z</time></trkpt><trkpt lat="46.382933054451556" lon="12.991258151352113"><ele>459.75</ele><time>2026-04-12T14:43:15.999Z</time></trkpt><trkpt lat="46.38301036048062" lon="12.99139979236056"><ele>458.5</ele><time>2026-04-12T14:43:16.999Z</time></trkpt><trkpt lat="46.38310906582291" lon="12.99150978894997"><ele>457.25</ele><time>2026-04-12T14:43:17.999Z</time></trkpt><trkpt lat="46.38320617429118" lon="12.991624257361238"><ele>456.0</ele><time>2026-04-12T14:43:18.999Z</time></trkpt><trkpt lat="46.383309410169055" lon="12.991729508086154"><ele>454.75</ele><time>2026-04-12T14:43:19.999Z</time></trkpt><trkpt lat="46.38342035016536" lon="12.991830928652654"><ele>453.5</ele><time>2026-04-12T14:43:20.999Z</time></trkpt><trkpt lat="46.38352640819018" lon="12.991934605863747"><ele>452.25</ele><time>2026-04-12T14:43:21.999Z</time></trkpt><trkpt lat="46.38362767495286" lon="12.99203111464281"><ele>451.0</ele><time>2026-04-12T14:43:22.999Z</time></trkpt><trkpt lat="46.38372644566887" lon="12.992097817799769"><ele>451.0</ele><time>2026-04-12T14:43:23.999Z</time></trkpt><trkpt lat="46.38383014816138" lon="12.992139846920237"><ele>451.0</ele><time>2026-04-12T14:43:24.999Z</time></trkpt><trkpt lat="46.38394027394271" lon="12.992162798540281"><ele>451.0</ele><time>2026-04-12T14:43:25.999Z</time></trkpt><trkpt lat="46.38406077043277" lon="12.992163148703632"><ele>451.0</ele><time>2026-04-12T14:43:26.999Z</time></trkpt><trkpt lat="46.38418833925321" lon="12.992136822085325"><ele>450.0</ele><time>2026-04-12T14:43:27.999Z</time></trkpt><trkpt lat="46.38432249967995" lon="12.992104640797866"><ele>449.0</ele><time>2026-04-12T14:43:28.999Z</time></trkpt><trkpt lat="46.38445851646261" lon="12.99207465655254"><ele>448.0</ele><time>2026-04-12T14:43:29.999Z</time></trkpt><trkpt lat="46.38458794832834" lon="12.9920477746731"><ele>447.0</ele><time>2026-04-12T14:43:30.999Z</time></trkpt><trkpt lat="46.38471602505909" lon="12.992034431699363"><ele>446.5</ele><time>2026-04-12T14:43:31.999Z</time></trkpt><trkpt lat="46.384843379179166" lon="12.992055485362602"><ele>446.0</ele><time>2026-04-12T14:43:32.999Z</time></trkpt><trkpt lat="46.38496319949243" lon="12.99213219840594"><ele>445.5</ele><time>2026-04-12T14:43:33.999Z</time></trkpt><trkpt lat="46.385079123980645" lon="12.992252706543056"><ele>445.0</ele><time>2026-04-12T14:43:34.999Z</time></trkpt><trkpt lat="46.38519716821054" lon="12.992388865927895"><ele>445.0</ele><time>2026-04-12T14:43:35.999Z</time></trkpt><trkpt lat="46.38532445559443" lon="12.992520522450949"><ele>445.0</ele><time>2026-04-12T14:43:36.999Z</time></trkpt><trkpt lat="46.38546219355092" lon="12.992634276165024"><ele>445.0</ele><time>2026-04-12T14:43:37.999Z</time></trkpt><trkpt lat="46.38561025495926" lon="12.992724717093653"><ele>445.0</ele><time>2026-04-12T14:43:38.999Z</time></trkpt><trkpt lat="46.38576448295663" lon="12.992794647114934"><ele>445.0</ele><time>2026-04-12T14:43:39.999Z</time></trkpt><trkpt lat="46.38592743864649" lon="12.992851495542071"><ele>445.0</ele><time>2026-04-12T14:43:41Z</time></trkpt><trkpt lat="46.38608882184234" lon="12.99291924167317"><ele>445.0</ele><time>2026-04-12T14:43:42Z</time></trkpt><trkpt lat="46.386250451869486" lon="12.992988159760914"><ele>445.0</ele><time>2026-04-12T14:43:43Z</time></trkpt><trkpt lat="46.38641097073881" lon="12.99304617561167"><ele>445.0</ele><time>2026-04-12T14:43:44Z</time></trkpt><trkpt lat="46.386559376227574" lon="12.993093031085762"><ele>440.0</ele><time>2026-04-12T14:43:45Z</time></trkpt><trkpt lat="46.3867013156863" lon="12.993116405456181"><ele>435.0</ele><time>2026-04-12T14:43:46Z</time></trkpt><trkpt lat="46.386852266724645" lon="12.993102219308792"><ele>430.0</ele><time>2026-04-12T14:43:47Z</time></trkpt><trkpt lat="46.38701088628314" lon="12.993075410426606"><ele>430.0</ele><time>2026-04-12T14:43:48Z</time></trkpt><trkpt lat="46.38716012972312" lon="12.99306859463145"><ele>430.0</ele><time>2026-04-12T14:43:49Z</time></trkpt><trkpt lat="46.387299677409025" lon="12.993073733719854"><ele>430.0</ele><time>2026-04-12T14:43:50Z</time></trkpt><trkpt lat="46.387430316284146" lon="12.993089885235575"><ele>430.0</ele><time>2026-04-12T14:43:51Z</time></trkpt><trkpt lat="46.387556353022326" lon="12.993109941713469"><ele>427.0</ele><time>2026-04-12T14:43:52Z</time></trkpt><trkpt lat="46.387677658180806" lon="12.993130656604942"><ele>424.0</ele><time>2026-04-12T14:43:53Z</time></trkpt><trkpt lat="46.38779183529834" lon="12.993144093924588"><ele>421.0</ele><time>2026-04-12T14:43:54Z</time></trkpt><trkpt lat="46.387900981564776" lon="12.993134190868956"><ele>418.0</ele><time>2026-04-12T14:43:55Z</time></trkpt><trkpt lat="46.38800312461066" lon="12.993077341025836"><ele>416.4</ele><time>2026-04-12T14:43:56Z</time></trkpt><trkpt lat="46.388097734660235" lon="12.992991637684373"><ele>414.79999999999995</ele><time>2026-04-12T14:43:57Z</time></trkpt><trkpt lat="46.38817925195943" lon="12.99289357882648"><ele>413.2</ele><time>2026-04-12T14:43:58Z</time></trkpt><trkpt lat="46.38824333818771" lon="12.992810702719861"><ele>411.6</ele><time>2026-04-12T14:43:59Z</time></trkpt><trkpt lat="46.38830580319763" lon="12.992742996419802"><ele>410.0</ele><time>2026-04-12T14:44:00Z</time></trkpt><trkpt lat="46.38838127589263" lon="12.992703001264525"><ele>410.0</ele><time>2026-04-12T14:44:01Z</time></trkpt><trkpt lat="46.38846587634502" lon="12.992715794078405"><ele>410.0</ele><time>2026-04-12T14:44:02Z</time></trkpt><trkpt lat="46.38850961680075" lon="12.992830211939747"><ele>410.0</ele><time>2026-04-12T14:44:03Z</time></trkpt><trkpt lat="46.388555870672135" lon="12.992934369776787"><ele>410.0</ele><time>2026-04-12T14:44:04Z</time></trkpt><trkpt lat="46.38861243571436" lon="12.9930691355373"><ele>410.0</ele><time>2026-04-12T14:44:05Z</time></trkpt><trkpt lat="46.3886887894772" lon="12.993238562938426"><ele>408.75</ele><time>2026-04-12T14:44:06Z</time></trkpt><trkpt lat="46.38876400263865" lon="12.99340724374347"><ele>407.5</ele><time>2026-04-12T14:44:07Z</time></trkpt><trkpt lat="46.38883211709933" lon="12.993560122739423"><ele>406.25</ele><time>2026-04-12T14:44:08Z</time></trkpt><trkpt lat="46.38889112469225" lon="12.99369256203033"><ele>405.0</ele><time>2026-04-12T14:44:09Z</time></trkpt><trkpt lat="46.388952064381265" lon="12.993829337656589"><ele>404.75</ele><time>2026-04-12T14:44:10Z</time></trkpt><trkpt lat="46.38901958942373" lon="12.993978893983856"><ele>404.5</ele><time>2026-04-12T14:44:11Z</time></trkpt><trkpt lat="46.38908670180999" lon="12.994124834367504"><ele>404.25</ele><time>2026-04-12T14:44:12Z</time></trkpt><trkpt lat="46.38914753475665" lon="12.994263671738713"><ele>404.0</ele><time>2026-04-12T14:44:13Z</time></trkpt><trkpt lat="46.389199835747974" lon="12.994400276137329"><ele>404.0</ele><time>2026-04-12T14:44:14Z</time></trkpt><trkpt lat="46.38922943832379" lon="12.994534787703218"><ele>404.0</ele><time>2026-04-12T14:44:15Z</time></trkpt><trkpt lat="46.38922241776144" lon="12.994671163325258"><ele>404.0</ele><time>2026-04-12T14:44:16Z</time></trkpt><trkpt lat="46.38920451727619" lon="12.99483622281848"><ele>404.0</ele><time>2026-04-12T14:44:17Z</time></trkpt><trkpt lat="46.389172244525135" lon="12.994998671036228"><ele>404.0</ele><time>2026-04-12T14:44:18Z</time></trkpt><trkpt lat="46.389131395309654" lon="12.995161598761788"><ele>404.75</ele><time>2026-04-12T14:44:19Z</time></trkpt><trkpt lat="46.3890777775891" lon="12.995321765597225"><ele>405.5</ele><time>2026-04-12T14:44:20Z</time></trkpt><trkpt lat="46.38900538832486" lon="12.99546360509826"><ele>406.25</ele><time>2026-04-12T14:44:21Z</time></trkpt><trkpt lat="46.38892468407232" lon="12.99560343405626"><ele>407.0</ele><time>2026-04-12T14:44:22Z</time></trkpt><trkpt lat="46.388811773150124" lon="12.995708971484337"><ele>407.0</ele><time>2026-04-12T14:44:23Z</time></trkpt><trkpt lat="46.38868783446254" lon="12.995798332447587"><ele>407.0</ele><time>2026-04-12T14:44:24Z</time></trkpt><trkpt lat="46.388559925837676" lon="12.995877631165005"><ele>407.0</ele><time>2026-04-12T14:44:25Z</time></trkpt><trkpt lat="46.38842242498604" lon="12.995961682884333"><ele>407.0</ele><time>2026-04-12T14:44:26Z</time></trkpt><trkpt lat="46.38826431061557" lon="12.99604313671172"><ele>410.66666666666663</ele><time>2026-04-12T14:44:27Z</time></trkpt><trkpt lat="46.38809121143042" lon="12.996110860947065"><ele>414.33333333333337</ele><time>2026-04-12T14:44:28Z</time></trkpt><trkpt lat="46.387915322819524" lon="12.996161186029514"><ele>418.0</ele><time>2026-04-12T14:44:29Z</time></trkpt><trkpt lat="46.38775698112856" lon="12.996220993094232"><ele>418.0</ele><time>2026-04-12T14:44:30Z</time></trkpt><trkpt lat="46.387616318049155" lon="12.996283578499773"><ele>418.0</ele><time>2026-04-12T14:44:31Z</time></trkpt><trkpt lat="46.38748889495907" lon="12.996400512572084"><ele>418.0</ele><time>2026-04-12T14:44:32Z</time></trkpt><trkpt lat="46.38736858756399" lon="12.996581183958513"><ele>415.6666666666667</ele><time>2026-04-12T14:44:33Z</time></trkpt><trkpt lat="46.387266629016175" lon="12.996805786463835"><ele>413.33333333333337</ele><time>2026-04-12T14:44:34Z</time></trkpt><trkpt lat="46.38717352432262" lon="12.99705713984355"><ele>411.0</ele><time>2026-04-12T14:44:35Z</time></trkpt><trkpt lat="46.387090108906825" lon="12.997334658939925"><ele>409.66666666666663</ele><time>2026-04-12T14:44:36Z</time></trkpt><trkpt lat="46.387037152986515" lon="12.997607248538344"><ele>408.3333333333333</ele><time>2026-04-12T14:44:37Z</time></trkpt><trkpt lat="46.387000507294815" lon="12.997872853061137"><ele>407.0</ele><time>2026-04-12T14:44:38Z</time></trkpt><trkpt lat="46.38696675630477" lon="12.998130185279145"><ele>407.25</ele><time>2026-04-12T14:44:39Z</time></trkpt><trkpt lat="46.38693405268078" lon="12.998364855872861"><ele>407.5</ele><time>2026-04-12T14:44:40Z</time></trkpt><trkpt lat="46.38689545144507" lon="12.99856463649678"><ele>407.75</ele><time>2026-04-12T14:44:41Z</time></trkpt><trkpt lat="46.38683895009637" lon="12.998742048924132"><ele>408.0</ele><time>2026-04-12T14:44:42Z</time></trkpt><trkpt lat="46.38675817705301" lon="12.998903739208224"><ele>408.0</ele><time>2026-04-12T14:44:43Z</time></trkpt><trkpt lat="46.386664629684645" lon="12.999058906485695"><ele>408.0</ele><time>2026-04-12T14:44:44Z</time></trkpt><trkpt lat="46.38657781323008" lon="12.999229600951212"><ele>408.0</ele><time>2026-04-12T14:44:45Z</time></trkpt><trkpt lat="46.386517672406875" lon="12.999456847600973"><ele>408.66666666666663</ele><time>2026-04-12T14:44:46Z</time></trkpt><trkpt lat="46.386468566394434" lon="12.999703218499036"><ele>409.3333333333333</ele><time>2026-04-12T14:44:47Z</time></trkpt><trkpt lat="46.38642039645823" lon="12.999963362570671"><ele>410.0</ele><time>2026-04-12T14:44:48Z</time></trkpt><trkpt lat="46.38637254850682" lon="13.000221767911322"><ele>413.66666666666663</ele><time>2026-04-12T14:44:49Z</time></trkpt><trkpt lat="46.38632775666553" lon="13.00046511757486"><ele>417.33333333333337</ele><time>2026-04-12T14:44:50Z</time></trkpt><trkpt lat="46.38629071774092" lon="13.00068653917881"><ele>421.0</ele><time>2026-04-12T14:44:51Z</time></trkpt><trkpt lat="46.38626343864186" lon="13.000903678140428"><ele>421.0</ele><time>2026-04-12T14:44:51.999Z</time></trkpt><trkpt lat="46.38625798241398" lon="13.001136420410306"><ele>421.0</ele><time>2026-04-12T14:44:52.999Z</time></trkpt><trkpt lat="46.386275313921075" lon="13.00136527729018"><ele>421.0</ele><time>2026-04-12T14:44:53.999Z</time></trkpt><trkpt lat="46.38631174936005" lon="13.001593222988514"><ele>417.0</ele><time>2026-04-12T14:44:54.999Z</time></trkpt><trkpt lat="46.38637929773743" lon="13.001812759162588"><ele>413.0</ele><time>2026-04-12T14:44:55.999Z</time></trkpt><trkpt lat="46.38644597526839" lon="13.002018644450539"><ele>409.0</ele><time>2026-04-12T14:44:56.999Z</time></trkpt><trkpt lat="46.3865011038232" lon="13.002226957780994"><ele>409.0</ele><time>2026-04-12T14:44:57.999Z</time></trkpt><trkpt lat="46.386546341229234" lon="13.002440098942209"><ele>409.0</ele><time>2026-04-12T14:44:58.999Z</time></trkpt><trkpt lat="46.38658449202245" lon="13.002651843242292"><ele>409.0</ele><time>2026-04-12T14:44:59.999Z</time></trkpt><trkpt lat="46.38660381593475" lon="13.002843562861008"><ele>409.0</ele><time>2026-04-12T14:45:00.999Z</time></trkpt><trkpt lat="46.38662211504317" lon="13.003026739121218"><ele>408.0</ele><time>2026-04-12T14:45:01.999Z</time></trkpt><trkpt lat="46.386646317314636" lon="13.00319938200354"><ele>407.0</ele><time>2026-04-12T14:45:02.999Z</time></trkpt><trkpt lat="46.386694611680056" lon="13.003376638094542"><ele>406.0</ele><time>2026-04-12T14:45:03.999Z</time></trkpt><trkpt lat="46.38677306959358" lon="13.003543082080936"><ele>405.0</ele><time>2026-04-12T14:45:04.999Z</time></trkpt><trkpt lat="46.3868523156728" lon="13.003697436249622"><ele>404.2</ele><time>2026-04-12T14:45:05.999Z</time></trkpt><trkpt lat="46.3869232310447" lon="13.003833658726492"><ele>403.4</ele><time>2026-04-12T14:45:06.999Z</time></trkpt><trkpt lat="46.386977662166444" lon="13.003947811461886"><ele>402.6</ele><time>2026-04-12T14:45:07.999Z</time></trkpt><trkpt lat="46.38703029255069" lon="13.004040885762944"><ele>401.8</ele><time>2026-04-12T14:45:08.999Z</time></trkpt><trkpt lat="46.38710397374186" lon="13.004094513980402"><ele>401.0</ele><time>2026-04-12T14:45:09.999Z</time></trkpt><trkpt lat="46.38717772103879" lon="13.004121992751605"><ele>404.75</ele><time>2026-04-12T14:45:10.999Z</time></trkpt><trkpt lat="46.387268823225384" lon="13.004094352340802"><ele>408.5</ele><time>2026-04-12T14:45:11.999Z</time></trkpt><trkpt lat="46.3873710765041" lon="13.004021218171076"><ele>412.25</ele><time>2026-04-12T14:45:12.999Z</time></trkpt><trkpt lat="46.387487546860875" lon="13.003908490040594"><ele>416.0</ele><time>2026-04-12T14:45:13.999Z</time></trkpt><trkpt lat="46.387608827912636" lon="13.00382434680946"><ele>416.0</ele><time>2026-04-12T14:45:14.999Z</time></trkpt><trkpt lat="46.38772889464465" lon="13.003773201773674"><ele>416.0</ele><time>2026-04-12T14:45:15.999Z</time></trkpt><trkpt lat="46.3878511700196" lon="13.003768676458096"><ele>416.0</ele><time>2026-04-12T14:45:16.999Z</time></trkpt><trkpt lat="46.387981360462575" lon="13.003784844280911"><ele>416.0</ele><time>2026-04-12T14:45:17.999Z</time></trkpt><trkpt lat="46.38812297299673" lon="13.003799888806137"><ele>413.0</ele><time>2026-04-12T14:45:18.999Z</time></trkpt><trkpt lat="46.388257880569604" lon="13.003841038372933"><ele>410.0</ele><time>2026-04-12T14:45:19.999Z</time></trkpt><trkpt lat="46.38837225631932" lon="13.00389813588348"><ele>407.0</ele><time>2026-04-12T14:45:20.999Z</time></trkpt><trkpt lat="46.38847635979538" lon="13.003973903745138"><ele>404.0</ele><time>2026-04-12T14:45:21.999Z</time></trkpt><trkpt lat="46.388570871390826" lon="13.004075147952289"><ele>396.75</ele><time>2026-04-12T14:45:22.999Z</time></trkpt><trkpt lat="46.3886596242868" lon="13.004199286632328"><ele>389.5</ele><time>2026-04-12T14:45:23.999Z</time></trkpt><trkpt lat="46.38874540197197" lon="13.004346933941822"><ele>382.25</ele><time>2026-04-12T14:45:24.999Z</time></trkpt><trkpt lat="46.38883331070833" lon="13.004500056260815"><ele>375.0</ele><time>2026-04-12T14:45:25.999Z</time></trkpt><trkpt lat="46.388911841165694" lon="13.004636842923851"><ele>374.3333333333333</ele><time>2026-04-12T14:45:26.999Z</time></trkpt><trkpt lat="46.388988817961874" lon="13.004767580777132"><ele>373.6666666666667</ele><time>2026-04-12T14:45:27.999Z</time></trkpt><trkpt lat="46.3890521387905" lon="13.004879949786876"><ele>373.0</ele><time>2026-04-12T14:45:28.999Z</time></trkpt><trkpt lat="46.389095921074734" lon="13.004975463113967"><ele>372.33333333333337</ele><time>2026-04-12T14:45:29.999Z</time></trkpt><trkpt lat="46.389109236542104" lon="13.005064710738463"><ele>371.6666666666667</ele><time>2026-04-12T14:45:30.999Z</time></trkpt><trkpt lat="46.38909422030138" lon="13.00515826851293"><ele>371.0</ele><time>2026-04-12T14:45:31.999Z</time></trkpt><trkpt lat="46.38901289958111" lon="13.00521819984921"><ele>372.0</ele><time>2026-04-12T14:45:32.999Z</time></trkpt><trkpt lat="46.38892571597169" lon="13.005191402684783"><ele>373.0</ele><time>2026-04-12T14:45:33.999Z</time></trkpt><trkpt lat="46.38885369864443" lon="13.00507838583555"><ele>374.0</ele><time>2026-04-12T14:45:34.999Z</time></trkpt><trkpt lat="46.388772837122396" lon="13.004913610660937"><ele>375.0</ele><time>2026-04-12T14:45:35.999Z</time></trkpt><trkpt lat="46.388679778357314" lon="13.0047689150737"><ele>375.0</ele><time>2026-04-12T14:45:36.999Z</time></trkpt><trkpt lat="46.38858314534067" lon="13.004657775615152"><ele>375.0</ele><time>2026-04-12T14:45:37.999Z</time></trkpt><trkpt lat="46.388467305166046" lon="13.004587188454051"><ele>375.0</ele><time>2026-04-12T14:45:38.999Z</time></trkpt><trkpt lat="46.388323655701974" lon="13.004576037806517"><ele>375.0</ele><time>2026-04-12T14:45:39.999Z</time></trkpt><trkpt lat="46.388183116420265" lon="13.004585266820039"><ele>375.0</ele><time>2026-04-12T14:45:40.999Z</time></trkpt><trkpt lat="46.38805421741257" lon="13.004589064751709"><ele>375.0</ele><time>2026-04-12T14:45:41.999Z</time></trkpt><trkpt lat="46.38793274089859" lon="13.00458538239594"><ele>375.0</ele><time>2026-04-12T14:45:42.999Z</time></trkpt><trkpt lat="46.38782251708498" lon="13.004585697041128"><ele>375.0</ele><time>2026-04-12T14:45:43.999Z</time></trkpt><trkpt lat="46.38772617941897" lon="13.00459845795444"><ele>376.6</ele><time>2026-04-12T14:45:44.999Z</time></trkpt><trkpt lat="46.38764331168139" lon="13.004634338437823"><ele>378.2</ele><time>2026-04-12T14:45:45.999Z</time></trkpt><trkpt lat="46.387578242533294" lon="13.004723308035466"><ele>379.79999999999995</ele><time>2026-04-12T14:45:47Z</time></trkpt><trkpt lat="46.38752350795403" lon="13.004836885544723"><ele>381.4</ele><time>2026-04-12T14:45:48Z</time></trkpt><trkpt lat="46.38753227395533" lon="13.00499279263312"><ele>383.0</ele><time>2026-04-12T14:45:49Z</time></trkpt><trkpt lat="46.38759480836996" lon="13.005136471802906"><ele>377.25</ele><time>2026-04-12T14:45:50Z</time></trkpt><trkpt lat="46.387676825937625" lon="13.005265031124328"><ele>371.5</ele><time>2026-04-12T14:45:51Z</time></trkpt><trkpt lat="46.38777193374931" lon="13.00538748812266"><ele>365.75</ele><time>2026-04-12T14:45:52Z</time></trkpt><trkpt lat="46.38789044341469" lon="13.005501634768832"><ele>360.0</ele><time>2026-04-12T14:45:53Z</time></trkpt><trkpt lat="46.388023522200925" lon="13.005601242090895"><ele>359.75</ele><time>2026-04-12T14:45:54Z</time></trkpt><trkpt lat="46.38815421957173" lon="13.005679181928631"><ele>359.5</ele><time>2026-04-12T14:45:55Z</time></trkpt><trkpt lat="46.38826732731271" lon="13.005777444030073"><ele>359.25</ele><time>2026-04-12T14:45:56Z</time></trkpt><trkpt lat="46.38836982844084" lon="13.005851269765698"><ele>359.0</ele><time>2026-04-12T14:45:57Z</time></trkpt><trkpt lat="46.38845521900778" lon="13.005957142290319"><ele>355.5</ele><time>2026-04-12T14:45:58Z</time></trkpt><trkpt lat="46.388518393658195" lon="13.006091724938235"><ele>352.0</ele><time>2026-04-12T14:45:59Z</time></trkpt><trkpt lat="46.388543284395745" lon="13.006256957490422"><ele>348.5</ele><time>2026-04-12T14:46:00Z</time></trkpt><trkpt lat="46.38855960650043" lon="13.006439967715943"><ele>345.0</ele><time>2026-04-12T14:46:01Z</time></trkpt><trkpt lat="46.38857873173967" lon="13.006652918362505"><ele>342.3333333333333</ele><time>2026-04-12T14:46:02Z</time></trkpt><trkpt lat="46.38860033470678" lon="13.006893456732097"><ele>339.66666666666663</ele><time>2026-04-12T14:46:03Z</time></trkpt><trkpt lat="46.38862385159257" lon="13.00714167287984"><ele>337.0</ele><time>2026-04-12T14:46:04Z</time></trkpt><trkpt lat="46.388643934197546" lon="13.007353700715308"><ele>335.25</ele><time>2026-04-12T14:46:05Z</time></trkpt><trkpt lat="46.388655957713034" lon="13.007544519136216"><ele>333.5</ele><time>2026-04-12T14:46:06Z</time></trkpt><trkpt lat="46.388655058277024" lon="13.007725549874745"><ele>331.75</ele><time>2026-04-12T14:46:07Z</time></trkpt><trkpt lat="46.388638432337494" lon="13.00791063769358"><ele>330.0</ele><time>2026-04-12T14:46:08Z</time></trkpt><trkpt lat="46.388616280939715" lon="13.0080988629428"><ele>330.0</ele><time>2026-04-12T14:46:09Z</time></trkpt><trkpt lat="46.3886021183488" lon="13.008273447751028"><ele>330.0</ele><time>2026-04-12T14:46:10Z</time></trkpt><trkpt lat="46.38859825463867" lon="13.008445562942946"><ele>330.0</ele><time>2026-04-12T14:46:11Z</time></trkpt><trkpt lat="46.38864365718564" lon="13.008645767327163"><ele>330.0</ele><time>2026-04-12T14:46:12Z</time></trkpt><trkpt lat="46.38870101663158" lon="13.008851225925545"><ele>329.25</ele><time>2026-04-12T14:46:13Z</time></trkpt><trkpt lat="46.388734186208886" lon="13.009044151023993"><ele>328.5</ele><time>2026-04-12T14:46:14Z</time></trkpt><trkpt lat="46.388743770756086" lon="13.009252800263257"><ele>327.75</ele><time>2026-04-12T14:46:15Z</time></trkpt><trkpt lat="46.38873553564763" lon="13.009471332155908"><ele>327.0</ele><time>2026-04-12T14:46:16Z</time></trkpt><trkpt lat="46.38871999019117" lon="13.009672856368374"><ele>324.5</ele><time>2026-04-12T14:46:17Z</time></trkpt><trkpt lat="46.38869930179842" lon="13.009848894956725"><ele>322.0</ele><time>2026-04-12T14:46:18Z</time></trkpt><trkpt lat="46.388672884952406" lon="13.010026727132956"><ele>319.5</ele><time>2026-04-12T14:46:19Z</time></trkpt><trkpt lat="46.388658539701055" lon="13.010189929751993"><ele>317.0</ele><time>2026-04-12T14:46:20Z</time></trkpt><trkpt lat="46.38864826745634" lon="13.010332442063984"><ele>316.1666666666667</ele><time>2026-04-12T14:46:21Z</time></trkpt><trkpt lat="46.388637950705494" lon="13.010452596928245"><ele>315.33333333333337</ele><time>2026-04-12T14:46:22Z</time></trkpt><trkpt lat="46.38862314355263" lon="13.010552569459724"><ele>314.5</ele><time>2026-04-12T14:46:23Z</time></trkpt><trkpt lat="46.38860476021083" lon="13.010649063576814"><ele>313.6666666666667</ele><time>2026-04-12T14:46:24Z</time></trkpt><trkpt lat="46.38852864471765" lon="13.01069801762764"><ele>312.8333333333333</ele><time>2026-04-12T14:46:25Z</time></trkpt><trkpt lat="46.38843112402556" lon="13.01073742284725"><ele>312.0</ele><time>2026-04-12T14:46:26Z</time></trkpt><trkpt lat="46.38834474860751" lon="13.010815944769"><ele>311.2</ele><time>2026-04-12T14:46:27Z</time></trkpt><trkpt lat="46.38829268662779" lon="13.010933945597387"><ele>310.4</ele><time>2026-04-12T14:46:28Z</time></trkpt><trkpt lat="46.388252519858455" lon="13.011065657949677"><ele>309.6</ele><time>2026-04-12T14:46:29Z</time></trkpt><trkpt lat="46.388173015151374" lon="13.011184130742048"><ele>308.8</ele><time>2026-04-12T14:46:30Z</time></trkpt><trkpt lat="46.388058846187704" lon="13.01127841960621"><ele>308.0</ele><time>2026-04-12T14:46:31Z</time></trkpt><trkpt lat="46.387922348354444" lon="13.011341648826196"><ele>308.0</ele><time>2026-04-12T14:46:32Z</time></trkpt><trkpt lat="46.38776942976721" lon="13.011393922073509"><ele>308.0</ele><time>2026-04-12T14:46:33Z</time></trkpt><trkpt lat="46.38760022472453" lon="13.011443531767139"><ele>308.0</ele><time>2026-04-12T14:46:34Z</time></trkpt><trkpt lat="46.38743265063227" lon="13.011489277208579"><ele>308.0</ele><time>2026-04-12T14:46:35Z</time></trkpt><trkpt lat="46.38726625227764" lon="13.011538670574488"><ele>308.0</ele><time>2026-04-12T14:46:36Z</time></trkpt><trkpt lat="46.38710809267395" lon="13.011581818532713"><ele>308.0</ele><time>2026-04-12T14:46:37Z</time></trkpt><trkpt lat="46.386957135184396" lon="13.011616598791854"><ele>310.75</ele><time>2026-04-12T14:46:38Z</time></trkpt><trkpt lat="46.386813037096395" lon="13.011640314111823"><ele>313.5</ele><time>2026-04-12T14:46:39Z</time></trkpt><trkpt lat="46.38667190677676" lon="13.011633561985256"><ele>316.25</ele><time>2026-04-12T14:46:40Z</time></trkpt><trkpt lat="46.386532490547594" lon="13.011594003483312"><ele>319.0</ele><time>2026-04-12T14:46:41Z</time></trkpt><trkpt lat="46.38638613327043" lon="13.011542181068512"><ele>315.3333333333333</ele><time>2026-04-12T14:46:42Z</time></trkpt><trkpt lat="46.38623432569874" lon="13.011490941779593"><ele>311.6666666666667</ele><time>2026-04-12T14:46:43Z</time></trkpt><trkpt lat="46.386073029944264" lon="13.011444275750788"><ele>308.0</ele><time>2026-04-12T14:46:44Z</time></trkpt><trkpt lat="46.38591235947771" lon="13.011395706063503"><ele>308.0</ele><time>2026-04-12T14:46:45Z</time></trkpt><trkpt lat="46.38576472993145" lon="13.011349025080577"><ele>308.0</ele><time>2026-04-12T14:46:46Z</time></trkpt><trkpt lat="46.38562211437353" lon="13.01131958324937"><ele>308.0</ele><time>2026-04-12T14:46:47Z</time></trkpt><trkpt lat="46.38548487739343" lon="13.011326950263545"><ele>308.0</ele><time>2026-04-12T14:46:48Z</time></trkpt><trkpt lat="46.38534258124615" lon="13.011377607274378"><ele>308.6666666666667</ele><time>2026-04-12T14:46:49Z</time></trkpt><trkpt lat="46.385201369926214" lon="13.01146063952964"><ele>309.3333333333333</ele><time>2026-04-12T14:46:50Z</time></trkpt><trkpt lat="46.385061583012295" lon="13.011569241185512"><ele>310.0</ele><time>2026-04-12T14:46:51Z</time></trkpt><trkpt lat="46.38496315057545" lon="13.011754242527907"><ele>308.75</ele><time>2026-04-12T14:46:52Z</time></trkpt><trkpt lat="46.38485763853335" lon="13.011914861531492"><ele>307.5</ele><time>2026-04-12T14:46:53Z</time></trkpt><trkpt lat="46.384774049551574" lon="13.012078190554883"><ele>306.25</ele><time>2026-04-12T14:46:53.999Z</time></trkpt><trkpt lat="46.38469559783959" lon="13.012234498870862"><ele>305.0</ele><time>2026-04-12T14:46:54.999Z</time></trkpt><trkpt lat="46.38461488491264" lon="13.012398151207977"><ele>313.0</ele><time>2026-04-12T14:46:55.999Z</time></trkpt><trkpt lat="46.38453129283372" lon="13.012577590129903"><ele>321.0</ele><time>2026-04-12T14:46:56.999Z</time></trkpt><trkpt lat="46.38444751477523" lon="13.012767411500198"><ele>329.0</ele><time>2026-04-12T14:46:57.999Z</time></trkpt><trkpt lat="46.38437103497896" lon="13.01295929237841"><ele>329.0</ele><time>2026-04-12T14:46:58.999Z</time></trkpt><trkpt lat="46.384305755564306" lon="13.013176874230336"><ele>329.0</ele><time>2026-04-12T14:46:59.999Z</time></trkpt><trkpt lat="46.38428300898728" lon="13.013421061333464"><ele>329.0</ele><time>2026-04-12T14:47:00.999Z</time></trkpt><trkpt lat="46.38427487463141" lon="13.01366980832996"><ele>327.6666666666667</ele><time>2026-04-12T14:47:01.999Z</time></trkpt><trkpt lat="46.38426446264404" lon="13.013916581626486"><ele>326.3333333333333</ele><time>2026-04-12T14:47:02.999Z</time></trkpt><trkpt lat="46.384244483848214" lon="13.01417526196191"><ele>325.0</ele><time>2026-04-12T14:47:03.999Z</time></trkpt><trkpt lat="46.38420841579826" lon="13.014448312321717"><ele>323.3333333333333</ele><time>2026-04-12T14:47:04.999Z</time></trkpt><trkpt lat="46.38415518785028" lon="13.014723158711194"><ele>321.6666666666667</ele><time>2026-04-12T14:47:05.999Z</time></trkpt><trkpt lat="46.38408651845397" lon="13.0149787794356"><ele>320.0</ele><time>2026-04-12T14:47:06.999Z</time></trkpt><trkpt lat="46.38400436814158" lon="13.015228189624452"><ele>320.33333333333337</ele><time>2026-04-12T14:47:07.999Z</time></trkpt><trkpt lat="46.3839047076041" lon="13.015471997589582"><ele>320.6666666666667</ele><time>2026-04-12T14:47:08.999Z</time></trkpt><trkpt lat="46.38378880724055" lon="13.015707062988117"><ele>321.0</ele><time>2026-04-12T14:47:09.999Z</time></trkpt><trkpt lat="46.38365604731486" lon="13.015937771519784"><ele>321.0</ele><time>2026-04-12T14:47:10.999Z</time></trkpt><trkpt lat="46.38351316354743" lon="13.01616125130943"><ele>321.0</ele><time>2026-04-12T14:47:11.999Z</time></trkpt><trkpt lat="46.383373592061744" lon="13.016359594706945"><ele>321.0</ele><time>2026-04-12T14:47:12.999Z</time></trkpt><trkpt lat="46.383229881255154" lon="13.01652714438316"><ele>316.0</ele><time>2026-04-12T14:47:13.999Z</time></trkpt><trkpt lat="46.38308337083899" lon="13.016683806875994"><ele>311.0</ele><time>2026-04-12T14:47:14.999Z</time></trkpt><trkpt lat="46.382919238527116" lon="13.01680170481551"><ele>306.0</ele><time>2026-04-12T14:47:15.999Z</time></trkpt><trkpt lat="46.38274627048978" lon="13.016911683806676"><ele>306.0</ele><time>2026-04-12T14:47:16.999Z</time></trkpt><trkpt lat="46.3825702520633" lon="13.017043006881716"><ele>306.0</ele><time>2026-04-12T14:47:17.999Z</time></trkpt><trkpt lat="46.38240003268068" lon="13.01719915067248"><ele>306.0</ele><time>2026-04-12T14:47:18.999Z</time></trkpt><trkpt lat="46.38223328869304" lon="13.017380504278247"><ele>305.6666666666667</ele><time>2026-04-12T14:47:19.999Z</time></trkpt><trkpt lat="46.3820629724329" lon="13.01756584509632"><ele>305.33333333333337</ele><time>2026-04-12T14:47:20.999Z</time></trkpt><trkpt lat="46.381886281636724" lon="13.01775036090585"><ele>305.0</ele><time>2026-04-12T14:47:21.999Z</time></trkpt><trkpt lat="46.38170995395458" lon="13.017934477212366"><ele>305.0</ele><time>2026-04-12T14:47:22.999Z</time></trkpt><trkpt lat="46.38155152916321" lon="13.018104333489054"><ele>305.0</ele><time>2026-04-12T14:47:23.999Z</time></trkpt><trkpt lat="46.38140597111051" lon="13.018256117419092"><ele>305.0</ele><time>2026-04-12T14:47:24.999Z</time></trkpt><trkpt lat="46.3812684432442" lon="13.01840047141309"><ele>308.25</ele><time>2026-04-12T14:47:25.999Z</time></trkpt><trkpt lat="46.381161332058895" lon="13.018544098023925"><ele>311.5</ele><time>2026-04-12T14:47:26.999Z</time></trkpt><trkpt lat="46.3810695756454" lon="13.018709480051719"><ele>314.75</ele><time>2026-04-12T14:47:27.999Z</time></trkpt><trkpt lat="46.381009318190365" lon="13.018889951849578"><ele>318.0</ele><time>2026-04-12T14:47:28.999Z</time></trkpt><trkpt lat="46.38095908240209" lon="13.019088781757464"><ele>319.25</ele><time>2026-04-12T14:47:29.999Z</time></trkpt><trkpt lat="46.38089585384989" lon="13.019292948878931"><ele>320.5</ele><time>2026-04-12T14:47:30.999Z</time></trkpt><trkpt lat="46.38084337223345" lon="13.019466319458413"><ele>321.75</ele><time>2026-04-12T14:47:31.999Z</time></trkpt><trkpt lat="46.38079812207165" lon="13.019619466996907"><ele>323.0</ele><time>2026-04-12T14:47:32.999Z</time></trkpt><trkpt lat="46.380760259318876" lon="13.019783230078767"><ele>323.0</ele><time>2026-04-12T14:47:33.999Z</time></trkpt><trkpt lat="46.3807593195959" lon="13.019941883820039"><ele>323.0</ele><time>2026-04-12T14:47:34.999Z</time></trkpt><trkpt lat="46.3807836898613" lon="13.020094716005792"><ele>323.0</ele><time>2026-04-12T14:47:35.999Z</time></trkpt><trkpt lat="46.380834897421764" lon="13.020237959138772"><ele>323.0</ele><time>2026-04-12T14:47:36.999Z</time></trkpt><trkpt lat="46.38090786507799" lon="13.020369999754429"><ele>323.0</ele><time>2026-04-12T14:47:37.999Z</time></trkpt><trkpt lat="46.381000930217446" lon="13.020478525989759"><ele>323.0</ele><time>2026-04-12T14:47:38.999Z</time></trkpt><trkpt lat="46.381094924435864" lon="13.020583653960983"><ele>323.0</ele><time>2026-04-12T14:47:39.999Z</time></trkpt><trkpt lat="46.38118600577317" lon="13.020692285331414"><ele>323.0</ele><time>2026-04-12T14:47:40.999Z</time></trkpt><trkpt lat="46.381266084411884" lon="13.020795249468428"><ele>323.0</ele><time>2026-04-12T14:47:41.999Z</time></trkpt><trkpt lat="46.38132741286328" lon="13.020915680198836"><ele>323.0</ele><time>2026-04-12T14:47:42.999Z</time></trkpt><trkpt lat="46.38136225984025" lon="13.021056750559811"><ele>325.5</ele><time>2026-04-12T14:47:43.999Z</time></trkpt><trkpt lat="46.38136633505826" lon="13.021208017067222"><ele>328.0</ele><time>2026-04-12T14:47:44.999Z</time></trkpt><trkpt lat="46.38132907628097" lon="13.021362430251719"><ele>330.5</ele><time>2026-04-12T14:47:45.999Z</time></trkpt><trkpt lat="46.38126093448963" lon="13.021509466638104"><ele>333.0</ele><time>2026-04-12T14:47:46.999Z</time></trkpt><trkpt lat="46.38117033644651" lon="13.021650665280674"><ele>333.6666666666667</ele><time>2026-04-12T14:47:47.999Z</time></trkpt><trkpt lat="46.38107375928498" lon="13.02180302926961"><ele>334.33333333333337</ele><time>2026-04-12T14:47:48.999Z</time></trkpt><trkpt lat="46.380968677853915" lon="13.021965978142369"><ele>335.0</ele><time>2026-04-12T14:47:49.999Z</time></trkpt><trkpt lat="46.380855779687735" lon="13.022147300141503"><ele>335.0</ele><time>2026-04-12T14:47:50.999Z</time></trkpt><trkpt lat="46.38073769882795" lon="13.022307895584637"><ele>335.0</ele><time>2026-04-12T14:47:52Z</time></trkpt><trkpt lat="46.38060871179017" lon="13.02243114280392"><ele>335.0</ele><time>2026-04-12T14:47:53Z</time></trkpt><trkpt lat="46.38047565563034" lon="13.022549262531596"><ele>337.0</ele><time>2026-04-12T14:47:54Z</time></trkpt><trkpt lat="46.38035048155118" lon="13.022667108581583"><ele>339.0</ele><time>2026-04-12T14:47:55Z</time></trkpt><trkpt lat="46.38023964467148" lon="13.02278915599583"><ele>341.0</ele><time>2026-04-12T14:47:56Z</time></trkpt><trkpt lat="46.380147518451615" lon="13.022938300942396"><ele>343.0</ele><time>2026-04-12T14:47:57Z</time></trkpt><trkpt lat="46.380077856102936" lon="13.023130225603845"><ele>338.3333333333333</ele><time>2026-04-12T14:47:58Z</time></trkpt><trkpt lat="46.38001859318328" lon="13.023343414038594"><ele>333.6666666666667</ele><time>2026-04-12T14:47:59Z</time></trkpt><trkpt lat="46.37993954340983" lon="13.023566803152832"><ele>329.0</ele><time>2026-04-12T14:48:00Z</time></trkpt><trkpt lat="46.37987024514331" lon="13.023813632309608"><ele>329.0</ele><time>2026-04-12T14:48:01Z</time></trkpt><trkpt lat="46.37981281998205" lon="13.024073431792827"><ele>329.0</ele><time>2026-04-12T14:48:02Z</time></trkpt><trkpt lat="46.37974164027877" lon="13.02432115408158"><ele>329.0</ele><time>2026-04-12T14:48:03Z</time></trkpt><trkpt lat="46.379681581253365" lon="13.024548468371796"><ele>326.75</ele><time>2026-04-12T14:48:04Z</time></trkpt><trkpt lat="46.37963153431076" lon="13.024747697071378"><ele>324.5</ele><time>2026-04-12T14:48:05Z</time></trkpt><trkpt lat="46.379597758795796" lon="13.024951403280498"><ele>322.25</ele><time>2026-04-12T14:48:06Z</time></trkpt><trkpt lat="46.37958283386462" lon="13.025159454122639"><ele>320.0</ele><time>2026-04-12T14:48:07Z</time></trkpt><trkpt lat="46.37958271992979" lon="13.02536688431326"><ele>320.0</ele><time>2026-04-12T14:48:08Z</time></trkpt><trkpt lat="46.37960017143404" lon="13.0255605396857"><ele>320.0</ele><time>2026-04-12T14:48:09Z</time></trkpt><trkpt lat="46.37961669116693" lon="13.025734827278328"><ele>320.0</ele><time>2026-04-12T14:48:10Z</time></trkpt><trkpt lat="46.37962093143239" lon="13.025899001429819"><ele>320.0</ele><time>2026-04-12T14:48:11Z</time></trkpt><trkpt lat="46.37959454201828" lon="13.0260546755564"><ele>316.75</ele><time>2026-04-12T14:48:12Z</time></trkpt><trkpt lat="46.37953634076656" lon="13.026194201402046"><ele>313.5</ele><time>2026-04-12T14:48:13Z</time></trkpt><trkpt lat="46.37941917731138" lon="13.026276989179943"><ele>310.25</ele><time>2026-04-12T14:48:14Z</time></trkpt><trkpt lat="46.379302379434634" lon="13.02637695320158"><ele>307.0</ele><time>2026-04-12T14:48:15Z</time></trkpt><trkpt lat="46.3792043755463" lon="13.026484578766828"><ele>307.0</ele><time>2026-04-12T14:48:16Z</time></trkpt><trkpt lat="46.37910738570821" lon="13.026634790185112"><ele>307.0</ele><time>2026-04-12T14:48:17Z</time></trkpt><trkpt lat="46.37897515375609" lon="13.026813349940333"><ele>307.0</ele><time>2026-04-12T14:48:18Z</time></trkpt><trkpt lat="46.37887091878999" lon="13.026978564372241"><ele>305.5</ele><time>2026-04-12T14:48:19Z</time></trkpt><trkpt lat="46.37878736831128" lon="13.027116324297712"><ele>304.0</ele><time>2026-04-12T14:48:20Z</time></trkpt><trkpt lat="46.378720480731054" lon="13.027278249342023"><ele>302.5</ele><time>2026-04-12T14:48:21Z</time></trkpt><trkpt lat="46.37865295830699" lon="13.027437213544884"><ele>301.0</ele><time>2026-04-12T14:48:22Z</time></trkpt><trkpt lat="46.37860733036124" lon="13.027623922949473"><ele>299.3333333333333</ele><time>2026-04-12T14:48:23Z</time></trkpt><trkpt lat="46.37858075978769" lon="13.02785720633893"><ele>297.6666666666667</ele><time>2026-04-12T14:48:24Z</time></trkpt><trkpt lat="46.37854366917129" lon="13.028079135718546"><ele>296.0</ele><time>2026-04-12T14:48:25Z</time></trkpt><trkpt lat="46.37850148331966" lon="13.028297368493575"><ele>296.25</ele><time>2026-04-12T14:48:26Z</time></trkpt><trkpt lat="46.378450138759746" lon="13.028481798457026"><ele>296.5</ele><time>2026-04-12T14:48:27Z</time></trkpt><trkpt lat="46.378398204654395" lon="13.028623962943495"><ele>296.75</ele><time>2026-04-12T14:48:28Z</time></trkpt><trkpt lat="46.378307225132545" lon="13.028778124321544"><ele>297.0</ele><time>2026-04-12T14:48:29Z</time></trkpt><trkpt lat="46.37819720807514" lon="13.028897361861226"><ele>297.0</ele><time>2026-04-12T14:48:30Z</time></trkpt><trkpt lat="46.37804564999474" lon="13.028989767385632"><ele>297.0</ele><time>2026-04-12T14:48:31Z</time></trkpt><trkpt lat="46.37789872637592" lon="13.029085142468997"><ele>297.0</ele><time>2026-04-12T14:48:32Z</time></trkpt><trkpt lat="46.37773500392944" lon="13.029192843458823"><ele>297.0</ele><time>2026-04-12T14:48:33Z</time></trkpt><trkpt lat="46.37757282102839" lon="13.02932506894177"><ele>297.0</ele><time>2026-04-12T14:48:34Z</time></trkpt><trkpt lat="46.37741608807333" lon="13.029422077632443"><ele>297.0</ele><time>2026-04-12T14:48:35Z</time></trkpt><trkpt lat="46.37725098830342" lon="13.029508993867006"><ele>294.3333333333333</ele><time>2026-04-12T14:48:36Z</time></trkpt><trkpt lat="46.377088224299115" lon="13.029590553491149"><ele>291.66666666666663</ele><time>2026-04-12T14:48:37Z</time></trkpt><trkpt lat="46.37693770901789" lon="13.029657309809531"><ele>289.0</ele><time>2026-04-12T14:48:38Z</time></trkpt><trkpt lat="46.37677695353417" lon="13.02969959662124"><ele>289.0</ele><time>2026-04-12T14:48:39Z</time></trkpt><trkpt lat="46.37660947340316" lon="13.029713501016378"><ele>289.0</ele><time>2026-04-12T14:48:40Z</time></trkpt><trkpt lat="46.37642877411607" lon="13.029725472380935"><ele>289.0</ele><time>2026-04-12T14:48:41Z</time></trkpt><trkpt lat="46.37623997695906" lon="13.029735426395854"><ele>290.66666666666663</ele><time>2026-04-12T14:48:42Z</time></trkpt><trkpt lat="46.37604102450211" lon="13.029760924530061"><ele>292.3333333333333</ele><time>2026-04-12T14:48:43Z</time></trkpt><trkpt lat="46.375825777334576" lon="13.029765606399838"><ele>294.0</ele><time>2026-04-12T14:48:44Z</time></trkpt><trkpt lat="46.37559914603497" lon="13.029772985898445"><ele>294.5</ele><time>2026-04-12T14:48:45Z</time></trkpt><trkpt lat="46.37536024296438" lon="13.029788827024687"><ele>295.0</ele><time>2026-04-12T14:48:46Z</time></trkpt><trkpt lat="46.37513164186486" lon="13.029812721757567"><ele>295.0</ele><time>2026-04-12T14:48:47Z</time></trkpt><trkpt lat="46.37490924318529" lon="13.02984109756493"><ele>295.0</ele><time>2026-04-12T14:48:48Z</time></trkpt><trkpt lat="46.37469637398539" lon="13.029869578011679"><ele>295.0</ele><time>2026-04-12T14:48:49Z</time></trkpt><trkpt lat="46.37448782931293" lon="13.029893956665449"><ele>294.0</ele><time>2026-04-12T14:48:50Z</time></trkpt><trkpt lat="46.37429285556866" lon="13.029921209796184"><ele>293.0</ele><time>2026-04-12T14:48:51Z</time></trkpt><trkpt lat="46.37409969870029" lon="13.029948690689173"><ele>292.0</ele><time>2026-04-12T14:48:52Z</time></trkpt><trkpt lat="46.37391444287888" lon="13.029973910638745"><ele>291.66666666666663</ele><time>2026-04-12T14:48:53Z</time></trkpt><trkpt lat="46.37374144411401" lon="13.030005034741787"><ele>291.3333333333333</ele><time>2026-04-12T14:48:54Z</time></trkpt><trkpt lat="46.37357377528773" lon="13.030049623766525"><ele>291.0</ele><time>2026-04-12T14:48:55Z</time></trkpt><trkpt lat="46.37341038274772" lon="13.03011761164232"><ele>291.0</ele><time>2026-04-12T14:48:56Z</time></trkpt><trkpt lat="46.373237635032524" lon="13.030206835772123"><ele>291.0</ele><time>2026-04-12T14:48:57Z</time></trkpt><trkpt lat="46.37305786492338" lon="13.030306185592696"><ele>291.0</ele><time>2026-04-12T14:48:58Z</time></trkpt><trkpt lat="46.37287462100461" lon="13.03040878106911"><ele>289.3333333333333</ele><time>2026-04-12T14:48:58.999Z</time></trkpt><trkpt lat="46.372684356070735" lon="13.030515046919755"><ele>287.66666666666663</ele><time>2026-04-12T14:48:59.999Z</time></trkpt><trkpt lat="46.37248486672692" lon="13.030619561462194"><ele>286.0</ele><time>2026-04-12T14:49:00.999Z</time></trkpt><trkpt lat="46.372291167450626" lon="13.030732214702867"><ele>285.66666666666663</ele><time>2026-04-12T14:49:01.999Z</time></trkpt><trkpt lat="46.372106041443104" lon="13.030843663155045"><ele>285.3333333333333</ele><time>2026-04-12T14:49:02.999Z</time></trkpt><trkpt lat="46.37193191067912" lon="13.030941465099332"><ele>285.0</ele><time>2026-04-12T14:49:03.999Z</time></trkpt><trkpt lat="46.37176787124404" lon="13.031018771487133"><ele>285.0</ele><time>2026-04-12T14:49:04.999Z</time></trkpt><trkpt lat="46.371594484829785" lon="13.031115917246224"><ele>285.0</ele><time>2026-04-12T14:49:05.999Z</time></trkpt><trkpt lat="46.37141766514695" lon="13.031214904569495"><ele>285.0</ele><time>2026-04-12T14:49:06.999Z</time></trkpt><trkpt lat="46.371242014322306" lon="13.031313159454365"><ele>285.0</ele><time>2026-04-12T14:49:07.999Z</time></trkpt><trkpt lat="46.3710764895683" lon="13.031405750054441"><ele>285.0</ele><time>2026-04-12T14:49:08.999Z</time></trkpt><trkpt lat="46.37093489248352" lon="13.031509520385326"><ele>285.0</ele><time>2026-04-12T14:49:09.999Z</time></trkpt><trkpt lat="46.37078826323924" lon="13.031588162392994"><ele>286.3333333333333</ele><time>2026-04-12T14:49:10.999Z</time></trkpt><trkpt lat="46.370646620242525" lon="13.031665939050221"><ele>287.66666666666663</ele><time>2026-04-12T14:49:11.999Z</time></trkpt><trkpt lat="46.37049733971485" lon="13.031735346216811"><ele>289.0</ele><time>2026-04-12T14:49:12.999Z</time></trkpt><trkpt lat="46.37036593044675" lon="13.03187273145659"><ele>289.0</ele><time>2026-04-12T14:49:13.999Z</time></trkpt><trkpt lat="46.370233317839485" lon="13.032021605391442"><ele>289.0</ele><time>2026-04-12T14:49:14.999Z</time></trkpt><trkpt lat="46.37011394086984" lon="13.032200064070864"><ele>289.0</ele><time>2026-04-12T14:49:15.999Z</time></trkpt><trkpt lat="46.370010901458514" lon="13.03233910820203"><ele>289.0</ele><time>2026-04-12T14:49:16.999Z</time></trkpt><trkpt lat="46.3699151723728" lon="13.032468304492658"><ele>289.0</ele><time>2026-04-12T14:49:17.999Z</time></trkpt><trkpt lat="46.36979697161454" lon="13.03255590029484"><ele>289.0</ele><time>2026-04-12T14:49:18.999Z</time></trkpt><trkpt lat="46.3696579410964" lon="13.032598741963897"><ele>289.0</ele><time>2026-04-12T14:49:19.999Z</time></trkpt><trkpt lat="46.36951931670557" lon="13.032671235374703"><ele>288.66666666666663</ele><time>2026-04-12T14:49:20.999Z</time></trkpt><trkpt lat="46.36936631023164" lon="13.032723739749771"><ele>288.3333333333333</ele><time>2026-04-12T14:49:21.999Z</time></trkpt><trkpt lat="46.36921382028552" lon="13.032784417870714"><ele>288.0</ele><time>2026-04-12T14:49:22.999Z</time></trkpt><trkpt lat="46.369047247648986" lon="13.032820054371102"><ele>288.0</ele><time>2026-04-12T14:49:23.999Z</time></trkpt><trkpt lat="46.36888261160198" lon="13.032879391271901"><ele>288.0</ele><time>2026-04-12T14:49:24.999Z</time></trkpt><trkpt lat="46.368715705292296" lon="13.032939867987757"><ele>288.0</ele><time>2026-04-12T14:49:25.999Z</time></trkpt><trkpt lat="46.368552440366976" lon="13.032998739590285"><ele>286.6666666666667</ele><time>2026-04-12T14:49:26.999Z</time></trkpt><trkpt lat="46.36838910815078" lon="13.033057635562797"><ele>285.33333333333337</ele><time>2026-04-12T14:49:27.999Z</time></trkpt><trkpt lat="46.368217452973795" lon="13.033127281449383"><ele>284.0</ele><time>2026-04-12T14:49:28.999Z</time></trkpt><trkpt lat="46.36803613278094" lon="13.033199788668794"><ele>284.33333333333337</ele><time>2026-04-12T14:49:29.999Z</time></trkpt><trkpt lat="46.367848485517555" lon="13.03328430702741"><ele>284.6666666666667</ele><time>2026-04-12T14:49:30.999Z</time></trkpt><trkpt lat="46.36765267433417" lon="13.03338469364099"><ele>285.0</ele><time>2026-04-12T14:49:31.999Z</time></trkpt><trkpt lat="46.36745146136177" lon="13.033501742581635"><ele>285.3333333333333</ele><time>2026-04-12T14:49:32.999Z</time></trkpt><trkpt lat="46.36725874867107" lon="13.033629577644405"><ele>285.66666666666663</ele><time>2026-04-12T14:49:33.999Z</time></trkpt><trkpt lat="46.367077645824814" lon="13.033774124620084"><ele>286.0</ele><time>2026-04-12T14:49:34.999Z</time></trkpt><trkpt lat="46.3669222221806" lon="13.033915567705565"><ele>285.3333333333333</ele><time>2026-04-12T14:49:35.999Z</time></trkpt><trkpt lat="46.36677610994328" lon="13.034035002287014"><ele>284.6666666666667</ele><time>2026-04-12T14:49:36.999Z</time></trkpt><trkpt lat="46.3666505923694" lon="13.034186831586437"><ele>284.0</ele><time>2026-04-12T14:49:37.999Z</time></trkpt><trkpt lat="46.366531294798854" lon="13.034342440518722"><ele>284.0</ele><time>2026-04-12T14:49:38.999Z</time></trkpt><trkpt lat="46.366408124238895" lon="13.034520542256777"><ele>284.0</ele><time>2026-04-12T14:49:39.999Z</time></trkpt><trkpt lat="46.366279952053134" lon="13.034721438681956"><ele>284.0</ele><time>2026-04-12T14:49:40.999Z</time></trkpt><trkpt lat="46.36614969767721" lon="13.034941456934542"><ele>285.33333333333337</ele><time>2026-04-12T14:49:41.999Z</time></trkpt><trkpt lat="46.36601304058883" lon="13.035177195703595"><ele>286.6666666666667</ele><time>2026-04-12T14:49:42.999Z</time></trkpt><trkpt lat="46.36588931058672" lon="13.03545441084894"><ele>288.0</ele><time>2026-04-12T14:49:43.999Z</time></trkpt><trkpt lat="46.3657660502314" lon="13.03575459016658"><ele>288.5</ele><time>2026-04-12T14:49:44.999Z</time></trkpt><trkpt lat="46.365653440245346" lon="13.036077403197531"><ele>289.0</ele><time>2026-04-12T14:49:45.999Z</time></trkpt><trkpt lat="46.365549914933716" lon="13.036427319522506"><ele>288.5</ele><time>2026-04-12T14:49:46.999Z</time></trkpt><trkpt lat="46.365448646061026" lon="13.036782235926776"><ele>288.0</ele><time>2026-04-12T14:49:47.999Z</time></trkpt><trkpt lat="46.365348818782195" lon="13.037140519082959"><ele>287.5</ele><time>2026-04-12T14:49:48.999Z</time></trkpt><trkpt lat="46.365249752077744" lon="13.03749275624418"><ele>287.0</ele><time>2026-04-12T14:49:49.999Z</time></trkpt><trkpt lat="46.36515418554754" lon="13.037832548361477"><ele>287.0</ele><time>2026-04-12T14:49:50.999Z</time></trkpt><trkpt lat="46.36505940756558" lon="13.038169536709185"><ele>287.0</ele><time>2026-04-12T14:49:51.999Z</time></trkpt><trkpt lat="46.36496571759726" lon="13.038503032383762"><ele>286.5</ele><time>2026-04-12T14:49:52.999Z</time></trkpt><trkpt lat="46.364873556918" lon="13.038831859326281"><ele>286.0</ele><time>2026-04-12T14:49:53.999Z</time></trkpt><trkpt lat="46.364781291178225" lon="13.039161586481029"><ele>292.5</ele><time>2026-04-12T14:49:54.999Z</time></trkpt><trkpt lat="46.36468950345822" lon="13.03949077001238"><ele>299.0</ele><time>2026-04-12T14:49:55.999Z</time></trkpt><trkpt lat="46.364600350390155" lon="13.03981050479613"><ele>298.6666666666667</ele><time>2026-04-12T14:49:56.999Z</time></trkpt><trkpt lat="46.36452005058857" lon="13.040098488581183"><ele>298.3333333333333</ele><time>2026-04-12T14:49:58Z</time></trkpt><trkpt lat="46.36444767746718" lon="13.040358044463753"><ele>298.0</ele><time>2026-04-12T14:49:59Z</time></trkpt><trkpt lat="46.364374307275014" lon="13.040606694130286"><ele>295.66666666666663</ele><time>2026-04-12T14:50:00Z</time></trkpt><trkpt lat="46.36428713046172" lon="13.040862599276199"><ele>293.3333333333333</ele><time>2026-04-12T14:50:01Z</time></trkpt><trkpt lat="46.36418885879086" lon="13.041117116191915"><ele>291.0</ele><time>2026-04-12T14:50:02Z</time></trkpt><trkpt lat="46.3640830386145" lon="13.041388789169932"><ele>290.0</ele><time>2026-04-12T14:50:03Z</time></trkpt><trkpt lat="46.36397290142385" lon="13.041672502708611"><ele>289.0</ele><time>2026-04-12T14:50:04Z</time></trkpt><trkpt lat="46.36386241511248" lon="13.041958568441752"><ele>296.0</ele><time>2026-04-12T14:50:05Z</time></trkpt><trkpt lat="46.36375187678549" lon="13.042243254668287"><ele>303.0</ele><time>2026-04-12T14:50:06Z</time></trkpt><trkpt lat="46.36364097246148" lon="13.042518874947937"><ele>310.0</ele><time>2026-04-12T14:50:07Z</time></trkpt><trkpt lat="46.36353642510186" lon="13.042771104988589"><ele>310.0</ele><time>2026-04-12T14:50:08Z</time></trkpt><trkpt lat="46.36343688897525" lon="13.042995851022681"><ele>310.0</ele><time>2026-04-12T14:50:09Z</time></trkpt><trkpt lat="46.36332379639037" lon="13.043223754771004"><ele>310.0</ele><time>2026-04-12T14:50:10Z</time></trkpt><trkpt lat="46.3631893684671" lon="13.04344076744196"><ele>311.3333333333333</ele><time>2026-04-12T14:50:11Z</time></trkpt><trkpt lat="46.363037522496064" lon="13.043658433580697"><ele>312.6666666666667</ele><time>2026-04-12T14:50:12Z</time></trkpt><trkpt lat="46.36288119906548" lon="13.043876065218047"><ele>314.0</ele><time>2026-04-12T14:50:13Z</time></trkpt><trkpt lat="46.36272451542989" lon="13.04408625078593"><ele>310.33333333333337</ele><time>2026-04-12T14:50:14Z</time></trkpt><trkpt lat="46.3625682159365" lon="13.04429521409808"><ele>306.6666666666667</ele><time>2026-04-12T14:50:15Z</time></trkpt><trkpt lat="46.362419233922914" lon="13.044494263264246"><ele>303.0</ele><time>2026-04-12T14:50:16Z</time></trkpt><trkpt lat="46.36228255153577" lon="13.044673968471953"><ele>305.6666666666667</ele><time>2026-04-12T14:50:17Z</time></trkpt><trkpt lat="46.36215923901723" lon="13.044825265670966"><ele>308.33333333333337</ele><time>2026-04-12T14:50:18Z</time></trkpt><trkpt lat="46.36202983287267" lon="13.044953237576026"><ele>311.0</ele><time>2026-04-12T14:50:19Z</time></trkpt><trkpt lat="46.361883990669455" lon="13.04507025894375"><ele>311.0</ele><time>2026-04-12T14:50:20Z</time></trkpt><trkpt lat="46.36172122353351" lon="13.045164829328748"><ele>311.0</ele><time>2026-04-12T14:50:21Z</time></trkpt><trkpt lat="46.36154759338294" lon="13.045252013340649"><ele>311.0</ele><time>2026-04-12T14:50:22Z</time></trkpt><trkpt lat="46.361375767858654" lon="13.045334790246027"><ele>309.0</ele><time>2026-04-12T14:50:23Z</time></trkpt><trkpt lat="46.36121668477668" lon="13.045413460891206"><ele>307.0</ele><time>2026-04-12T14:50:24Z</time></trkpt><trkpt lat="46.361088515066456" lon="13.045474274960473"><ele>305.0</ele><time>2026-04-12T14:50:25Z</time></trkpt><trkpt lat="46.36097147145937" lon="13.04553297064832"><ele>303.0</ele><time>2026-04-12T14:50:26Z</time></trkpt><trkpt lat="46.360869522443366" lon="13.04561731904238"><ele>303.0</ele><time>2026-04-12T14:50:27Z</time></trkpt><trkpt lat="46.36078526511143" lon="13.045698446867412"><ele>303.0</ele><time>2026-04-12T14:50:28Z</time></trkpt><trkpt lat="46.36072511843568" lon="13.045827833411739"><ele>303.0</ele><time>2026-04-12T14:50:29Z</time></trkpt><trkpt lat="46.36069547860836" lon="13.04600648408793"><ele>303.0</ele><time>2026-04-12T14:50:30Z</time></trkpt><trkpt lat="46.36067847616487" lon="13.046215546352245"><ele>303.0</ele><time>2026-04-12T14:50:31Z</time></trkpt><trkpt lat="46.36063219908661" lon="13.046443919247098"><ele>303.0</ele><time>2026-04-12T14:50:32Z</time></trkpt><trkpt lat="46.360591294233004" lon="13.04671127778889"><ele>303.0</ele><time>2026-04-12T14:50:33Z</time></trkpt><trkpt lat="46.360554055800336" lon="13.046993908915328"><ele>295.6666666666667</ele><time>2026-04-12T14:50:34Z</time></trkpt><trkpt lat="46.360483066248726" lon="13.047270159216172"><ele>288.33333333333337</ele><time>2026-04-12T14:50:35Z</time></trkpt><trkpt lat="46.36040264473497" lon="13.047556461759338"><ele>281.0</ele><time>2026-04-12T14:50:36Z</time></trkpt><trkpt lat="46.36033129394321" lon="13.047840501868466"><ele>281.0</ele><time>2026-04-12T14:50:37Z</time></trkpt><trkpt lat="46.36027612878905" lon="13.048128273247679"><ele>281.0</ele><time>2026-04-12T14:50:38Z</time></trkpt><trkpt lat="46.36024562745533" lon="13.04842635229937"><ele>281.0</ele><time>2026-04-12T14:50:39Z</time></trkpt><trkpt lat="46.36019352573219" lon="13.048723532755758"><ele>283.0</ele><time>2026-04-12T14:50:40Z</time></trkpt><trkpt lat="46.360139769608466" lon="13.049035413548616"><ele>285.0</ele><time>2026-04-12T14:50:41Z</time></trkpt><trkpt lat="46.36008437709498" lon="13.049350362183947"><ele>287.0</ele><time>2026-04-12T14:50:42Z</time></trkpt><trkpt lat="46.36002976260324" lon="13.049660406505474"><ele>290.0</ele><time>2026-04-12T14:50:43Z</time></trkpt><trkpt lat="46.35997532238036" lon="13.049962061924278"><ele>293.0</ele><time>2026-04-12T14:50:44Z</time></trkpt><trkpt lat="46.35992723955359" lon="13.050228490726262"><ele>296.0</ele><time>2026-04-12T14:50:45Z</time></trkpt><trkpt lat="46.35988500257789" lon="13.050462495633678"><ele>296.0</ele><time>2026-04-12T14:50:46Z</time></trkpt><trkpt lat="46.35984647573132" lon="13.050675326750085"><ele>296.0</ele><time>2026-04-12T14:50:47Z</time></trkpt><trkpt lat="46.359803213018104" lon="13.050891595078278"><ele>296.0</ele><time>2026-04-12T14:50:48Z</time></trkpt><trkpt lat="46.35974194898575" lon="13.051100542569165"><ele>290.33333333333337</ele><time>2026-04-12T14:50:49Z</time></trkpt><trkpt lat="46.35965557601691" lon="13.051308711902905"><ele>284.6666666666667</ele><time>2026-04-12T14:50:50Z</time></trkpt><trkpt lat="46.35954809836313" lon="13.051524469255403"><ele>279.0</ele><time>2026-04-12T14:50:51Z</time></trkpt><trkpt lat="46.35943946722296" lon="13.0517404275541"><ele>279.0</ele><time>2026-04-12T14:50:52Z</time></trkpt><trkpt lat="46.35932850662569" lon="13.051954748620329"><ele>279.0</ele><time>2026-04-12T14:50:53Z</time></trkpt><trkpt lat="46.359209279748484" lon="13.052170515734153"><ele>279.0</ele><time>2026-04-12T14:50:54Z</time></trkpt><trkpt lat="46.35908510791451" lon="13.052378660596167"><ele>278.6666666666667</ele><time>2026-04-12T14:50:55Z</time></trkpt><trkpt lat="46.358956441673875" lon="13.052571027927879"><ele>278.33333333333337</ele><time>2026-04-12T14:50:56Z</time></trkpt><trkpt lat="46.35881775306145" lon="13.05275610612557"><ele>278.0</ele><time>2026-04-12T14:50:57Z</time></trkpt><trkpt lat="46.3586657401051" lon="13.052934715437006"><ele>278.0</ele><time>2026-04-12T14:50:58Z</time></trkpt><trkpt lat="46.358509441427586" lon="13.053123416480927"><ele>278.0</ele><time>2026-04-12T14:50:59Z</time></trkpt><trkpt lat="46.3583472231111" lon="13.053305307676222"><ele>278.0</ele><time>2026-04-12T14:51:00Z</time></trkpt><trkpt lat="46.35817671401634" lon="13.053473615852761"><ele>283.6666666666667</ele><time>2026-04-12T14:51:00.999Z</time></trkpt><trkpt lat="46.35799856861699" lon="13.053629261690391"><ele>289.3333333333333</ele><time>2026-04-12T14:51:01.999Z</time></trkpt><trkpt lat="46.357822094910325" lon="13.05377194532892"><ele>295.0</ele><time>2026-04-12T14:51:02.999Z</time></trkpt><trkpt lat="46.357660075077696" lon="13.053906990506883"><ele>295.0</ele><time>2026-04-12T14:51:03.999Z</time></trkpt><trkpt lat="46.3575381324832" lon="13.0540625138966"><ele>295.0</ele><time>2026-04-12T14:51:04.999Z</time></trkpt><trkpt lat="46.35742166758769" lon="13.05418235736878"><ele>295.0</ele><time>2026-04-12T14:51:05.999Z</time></trkpt><trkpt lat="46.35734982363343" lon="13.054360162753241"><ele>295.0</ele><time>2026-04-12T14:51:06.999Z</time></trkpt><trkpt lat="46.35729263734421" lon="13.054539180218775"><ele>295.25</ele><time>2026-04-12T14:51:07.999Z</time></trkpt><trkpt lat="46.35726706374905" lon="13.054730612963587"><ele>295.5</ele><time>2026-04-12T14:51:08.999Z</time></trkpt><trkpt lat="46.35724283714102" lon="13.054896568797425"><ele>295.75</ele><time>2026-04-12T14:51:09.999Z</time></trkpt><trkpt lat="46.35724694496804" lon="13.055066521710879"><ele>296.0</ele><time>2026-04-12T14:51:10.999Z</time></trkpt><trkpt lat="46.357261039131785" lon="13.055245713158426"><ele>296.0</ele><time>2026-04-12T14:51:11.999Z</time></trkpt><trkpt lat="46.35727803905903" lon="13.055431074936111"><ele>296.0</ele><time>2026-04-12T14:51:12.999Z</time></trkpt><trkpt lat="46.35729596229477" lon="13.055635466680757"><ele>296.0</ele><time>2026-04-12T14:51:13.999Z</time></trkpt><trkpt lat="46.35730375782697" lon="13.055852982055061"><ele>296.0</ele><time>2026-04-12T14:51:14.999Z</time></trkpt><trkpt lat="46.35731027438347" lon="13.056077189377458"><ele>298.33333333333337</ele><time>2026-04-12T14:51:15.999Z</time></trkpt><trkpt lat="46.35726532596819" lon="13.05629833309007"><ele>300.6666666666667</ele><time>2026-04-12T14:51:16.999Z</time></trkpt><trkpt lat="46.357216511018976" lon="13.056513268648278"><ele>303.0</ele><time>2026-04-12T14:51:17.999Z</time></trkpt><trkpt lat="46.35716491707474" lon="13.05671747522558"><ele>310.75</ele><time>2026-04-12T14:51:18.999Z</time></trkpt><trkpt lat="46.3571305555939" lon="13.056922906671772"><ele>318.5</ele><time>2026-04-12T14:51:19.999Z</time></trkpt><trkpt lat="46.35707774620773" lon="13.057102899689124"><ele>326.25</ele><time>2026-04-12T14:51:20.999Z</time></trkpt><trkpt lat="46.3570355035646" lon="13.057278783855917"><ele>334.0</ele><time>2026-04-12T14:51:21.999Z</time></trkpt><trkpt lat="46.356997528311496" lon="13.057465498116006"><ele>334.0</ele><time>2026-04-12T14:51:22.999Z</time></trkpt><trkpt lat="46.356964158127795" lon="13.057661733279936"><ele>334.0</ele><time>2026-04-12T14:51:23.999Z</time></trkpt><trkpt lat="46.35692393468832" lon="13.057874893674615"><ele>334.0</ele><time>2026-04-12T14:51:24.999Z</time></trkpt><trkpt lat="46.35687855698118" lon="13.058101076491969"><ele>332.66666666666663</ele><time>2026-04-12T14:51:25.999Z</time></trkpt><trkpt lat="46.35683033931805" lon="13.058344723000278"><ele>331.3333333333333</ele><time>2026-04-12T14:51:26.999Z</time></trkpt><trkpt lat="46.35676533614452" lon="13.05859854481362"><ele>330.0</ele><time>2026-04-12T14:51:27.999Z</time></trkpt><trkpt lat="46.35673043944736" lon="13.058862350948058"><ele>326.6666666666667</ele><time>2026-04-12T14:51:28.999Z</time></trkpt><trkpt lat="46.356672723003555" lon="13.05911946106746"><ele>323.33333333333337</ele><time>2026-04-12T14:51:29.999Z</time></trkpt><trkpt lat="46.35660183886653" lon="13.059380103522475"><ele>320.0</ele><time>2026-04-12T14:51:30.999Z</time></trkpt><trkpt lat="46.356524442016564" lon="13.059637006074347"><ele>320.0</ele><time>2026-04-12T14:51:31.999Z</time></trkpt><trkpt lat="46.3564375740566" lon="13.059890885335022"><ele>320.0</ele><time>2026-04-12T14:51:32.999Z</time></trkpt><trkpt lat="46.356349404147366" lon="13.060143151111374"><ele>320.0</ele><time>2026-04-12T14:51:33.999Z</time></trkpt><trkpt lat="46.35627875353864" lon="13.060412968960295"><ele>314.6666666666667</ele><time>2026-04-12T14:51:34.999Z</time></trkpt><trkpt lat="46.35621769308582" lon="13.060698455316647"><ele>309.3333333333333</ele><time>2026-04-12T14:51:35.999Z</time></trkpt><trkpt lat="46.356160693754475" lon="13.060994631051077"><ele>304.0</ele><time>2026-04-12T14:51:36.999Z</time></trkpt><trkpt lat="46.35610529272871" lon="13.061287646586921"><ele>299.0</ele><time>2026-04-12T14:51:37.999Z</time></trkpt><trkpt lat="46.35605030237118" lon="13.06157857903803"><ele>294.0</ele><time>2026-04-12T14:51:38.999Z</time></trkpt><trkpt lat="46.35599776136277" lon="13.061858379323423"><ele>289.0</ele><time>2026-04-12T14:51:39.999Z</time></trkpt><trkpt lat="46.35595264283682" lon="13.062097170389004"><ele>288.5</ele><time>2026-04-12T14:51:40.999Z</time></trkpt><trkpt lat="46.355911487600025" lon="13.062314076368358"><ele>288.0</ele><time>2026-04-12T14:51:41.999Z</time></trkpt><trkpt lat="46.3558823666263" lon="13.062517856308562"><ele>287.5</ele><time>2026-04-12T14:51:42.999Z</time></trkpt><trkpt lat="46.35586228125617" lon="13.06271444063844"><ele>287.0</ele><time>2026-04-12T14:51:43.999Z</time></trkpt><trkpt lat="46.35585356599299" lon="13.06290029295365"><ele>287.0</ele><time>2026-04-12T14:51:44.999Z</time></trkpt><trkpt lat="46.35584694565609" lon="13.063074281045914"><ele>287.0</ele><time>2026-04-12T14:51:45.999Z</time></trkpt><trkpt lat="46.35583685120358" lon="13.063230802859069"><ele>287.0</ele><time>2026-04-12T14:51:46.999Z</time></trkpt><trkpt lat="46.355813261836694" lon="13.063370608152985"><ele>287.0</ele><time>2026-04-12T14:51:47.999Z</time></trkpt><trkpt lat="46.355769616938105" lon="13.063493869721677"><ele>287.0</ele><time>2026-04-12T14:51:48.999Z</time></trkpt><trkpt lat="46.35569133051956" lon="13.063577623447712"><ele>287.0</ele><time>2026-04-12T14:51:49.999Z</time></trkpt><trkpt lat="46.355597310462315" lon="13.063624925128307"><ele>287.0</ele><time>2026-04-12T14:51:50.999Z</time></trkpt><trkpt lat="46.35549787926455" lon="13.06360270300145"><ele>287.0</ele><time>2026-04-12T14:51:51.999Z</time></trkpt><trkpt lat="46.35541011802412" lon="13.063551117694661"><ele>287.0</ele><time>2026-04-12T14:51:52.999Z</time></trkpt><trkpt lat="46.35534486393248" lon="13.063411738720157"><ele>287.0</ele><time>2026-04-12T14:51:53.999Z</time></trkpt><trkpt lat="46.3552905842988" lon="13.063257613607574"><ele>283.8</ele><time>2026-04-12T14:51:54.999Z</time></trkpt><trkpt lat="46.35523776062593" lon="13.063123284247984"><ele>280.6</ele><time>2026-04-12T14:51:55.999Z</time></trkpt><trkpt lat="46.3551717346528" lon="13.06301625747735"><ele>277.40000000000003</ele><time>2026-04-12T14:51:56.999Z</time></trkpt><trkpt lat="46.35509133379195" lon="13.062936769644505"><ele>274.2</ele><time>2026-04-12T14:51:57.999Z</time></trkpt><trkpt lat="46.35498643123515" lon="13.062889108472689"><ele>271.0</ele><time>2026-04-12T14:51:58.999Z</time></trkpt><trkpt lat="46.354870983484915" lon="13.062876960174398"><ele>271.0</ele><time>2026-04-12T14:51:59.999Z</time></trkpt><trkpt lat="46.354740098343015" lon="13.062881199440017"><ele>271.0</ele><time>2026-04-12T14:52:00.999Z</time></trkpt><trkpt lat="46.35460011404273" lon="13.062880036751249"><ele>271.0</ele><time>2026-04-12T14:52:01.999Z</time></trkpt><trkpt lat="46.3544464547554" lon="13.062877464184641"><ele>271.0</ele><time>2026-04-12T14:52:02.999Z</time></trkpt><trkpt lat="46.35428452294448" lon="13.062882083154838"><ele>270.66666666666663</ele><time>2026-04-12T14:52:04Z</time></trkpt><trkpt lat="46.35412353270171" lon="13.062900098626523"><ele>270.3333333333333</ele><time>2026-04-12T14:52:05Z</time></trkpt><trkpt lat="46.353962320804264" lon="13.062949207000184"><ele>270.0</ele><time>2026-04-12T14:52:06Z</time></trkpt><trkpt lat="46.35379381367949" lon="13.062997262539497"><ele>270.0</ele><time>2026-04-12T14:52:07Z</time></trkpt><trkpt lat="46.35363334469688" lon="13.063090514089703"><ele>270.0</ele><time>2026-04-12T14:52:08Z</time></trkpt><trkpt lat="46.353483312391674" lon="13.063208084811526"><ele>270.0</ele><time>2026-04-12T14:52:09Z</time></trkpt><trkpt lat="46.35335687182438" lon="13.06337441144157"><ele>270.0</ele><time>2026-04-12T14:52:10Z</time></trkpt><trkpt lat="46.35322240481151" lon="13.063522268378884"><ele>270.0</ele><time>2026-04-12T14:52:11Z</time></trkpt><trkpt lat="46.353087419209466" lon="13.063673960365191"><ele>270.0</ele><time>2026-04-12T14:52:12Z</time></trkpt><trkpt lat="46.35295176979312" lon="13.063840363877887"><ele>270.0</ele><time>2026-04-12T14:52:13Z</time></trkpt><trkpt lat="46.352803141141415" lon="13.063998661979701"><ele>270.0</ele><time>2026-04-12T14:52:14Z</time></trkpt><trkpt lat="46.35268040744309" lon="13.064210620046746"><ele>270.0</ele><time>2026-04-12T14:52:15Z</time></trkpt><trkpt lat="46.35256694784433" lon="13.064434252814104"><ele>269.6666666666667</ele><time>2026-04-12T14:52:16Z</time></trkpt><trkpt lat="46.35245686634395" lon="13.064656620296704"><ele>269.33333333333337</ele><time>2026-04-12T14:52:17Z</time></trkpt><trkpt lat="46.352348725342885" lon="13.064874973121182"><ele>269.0</ele><time>2026-04-12T14:52:18Z</time></trkpt><trkpt lat="46.35224596656284" lon="13.065071003719353"><ele>267.0</ele><time>2026-04-12T14:52:19Z</time></trkpt><trkpt lat="46.352156770814155" lon="13.06526853689008"><ele>265.0</ele><time>2026-04-12T14:52:20Z</time></trkpt><trkpt lat="46.35203728271048" lon="13.065417140344781"><ele>263.0</ele><time>2026-04-12T14:52:21Z</time></trkpt><trkpt lat="46.351899427789775" lon="13.065526785869505"><ele>263.0</ele><time>2026-04-12T14:52:22Z</time></trkpt><trkpt lat="46.351749043875124" lon="13.065605960032174"><ele>263.0</ele><time>2026-04-12T14:52:23Z</time></trkpt><trkpt lat="46.35158289919196" lon="13.065673854028958"><ele>263.0</ele><time>2026-04-12T14:52:24Z</time></trkpt><trkpt lat="46.351430071304435" lon="13.065787652418857"><ele>264.0</ele><time>2026-04-12T14:52:25Z</time></trkpt><trkpt lat="46.351278646665726" lon="13.065914665722792"><ele>265.0</ele><time>2026-04-12T14:52:26Z</time></trkpt><trkpt lat="46.35113557728395" lon="13.066056513968443"><ele>266.0</ele><time>2026-04-12T14:52:27Z</time></trkpt><trkpt lat="46.35101625982919" lon="13.06624179425588"><ele>266.0</ele><time>2026-04-12T14:52:28Z</time></trkpt><trkpt lat="46.35088045977995" lon="13.066384310952069"><ele>266.0</ele><time>2026-04-12T14:52:29Z</time></trkpt><trkpt lat="46.35076209437825" lon="13.066534893785974"><ele>266.0</ele><time>2026-04-12T14:52:30Z</time></trkpt><trkpt lat="46.35065597231191" lon="13.066695211466854"><ele>262.75</ele><time>2026-04-12T14:52:31Z</time></trkpt><trkpt lat="46.3505676086204" lon="13.066860687362139"><ele>259.5</ele><time>2026-04-12T14:52:32Z</time></trkpt><trkpt lat="46.35049546547039" lon="13.06702097404846"><ele>256.25</ele><time>2026-04-12T14:52:33Z</time></trkpt><trkpt lat="46.3504261301174" lon="13.067172900712274"><ele>253.0</ele><time>2026-04-12T14:52:34Z</time></trkpt><trkpt lat="46.35034135601186" lon="13.067329949416173"><ele>251.33333333333331</ele><time>2026-04-12T14:52:35Z</time></trkpt><trkpt lat="46.35021962861173" lon="13.067440481159707"><ele>249.66666666666669</ele><time>2026-04-12T14:52:36Z</time></trkpt><trkpt lat="46.350072008733996" lon="13.067517469699204"><ele>248.0</ele><time>2026-04-12T14:52:37Z</time></trkpt><trkpt lat="46.349923590679374" lon="13.06754878599833"><ele>246.5</ele><time>2026-04-12T14:52:38Z</time></trkpt><trkpt lat="46.3497819979788" lon="13.067598234599934"><ele>245.0</ele><time>2026-04-12T14:52:39Z</time></trkpt><trkpt lat="46.34965469701927" lon="13.067644282849058"><ele>243.5</ele><time>2026-04-12T14:52:40Z</time></trkpt><trkpt lat="46.34953681228888" lon="13.067707874981734"><ele>242.0</ele><time>2026-04-12T14:52:41Z</time></trkpt><trkpt lat="46.349419888753076" lon="13.067719581998373"><ele>239.33333333333334</ele><time>2026-04-12T14:52:42Z</time></trkpt><trkpt lat="46.34931726708636" lon="13.067750890372151"><ele>236.66666666666669</ele><time>2026-04-12T14:52:43Z</time></trkpt><trkpt lat="46.3492226347338" lon="13.067778403590397"><ele>234.0</ele><time>2026-04-12T14:52:44Z</time></trkpt><trkpt lat="46.34914415006105" lon="13.0678231577625"><ele>231.33333333333331</ele><time>2026-04-12T14:52:45Z</time></trkpt><trkpt lat="46.34907688376249" lon="13.067814361804379"><ele>228.66666666666666</ele><time>2026-04-12T14:52:46Z</time></trkpt><trkpt lat="46.34901236277167" lon="13.067839117513554"><ele>226.0</ele><time>2026-04-12T14:52:47Z</time></trkpt><trkpt lat="46.34895277896538" lon="13.06778888218641"><ele>225.99999999999997</ele><time>2026-04-12T14:52:48Z</time></trkpt><trkpt lat="46.34892399629359" lon="13.067695119621941"><ele>226.0</ele><time>2026-04-12T14:52:49Z</time></trkpt><trkpt lat="46.34893507459305" lon="13.067592354863217"><ele>226.0</ele><time>2026-04-12T14:52:50Z</time></trkpt><trkpt lat="46.34899427196732" lon="13.067499382377434"><ele>226.0</ele><time>2026-04-12T14:52:51Z</time></trkpt><trkpt lat="46.349068196318" lon="13.067427299537748"><ele>225.99999999999997</ele><time>2026-04-12T14:52:52Z</time></trkpt><trkpt lat="46.34912824606682" lon="13.067347408977977"><ele>226.0</ele><time>2026-04-12T14:52:53Z</time></trkpt><trkpt lat="46.34914083655488" lon="13.067097107210955"><ele>226.16666666666666</ele><time>2026-04-12T14:52:55Z</time></trkpt><trkpt lat="46.34911321495661" lon="13.066954263338356"><ele>226.33333333333331</ele><time>2026-04-12T14:52:56Z</time></trkpt><trkpt lat="46.349061716942856" lon="13.066862614351068"><ele>226.5</ele><time>2026-04-12T14:52:57Z</time></trkpt><trkpt lat="46.34901123887964" lon="13.066768806529515"><ele>226.66666666666669</ele><time>2026-04-12T14:52:58Z</time></trkpt><trkpt lat="46.34896416329647" lon="13.06667936111728"><ele>226.83333333333334</ele><time>2026-04-12T14:52:59Z</time></trkpt><trkpt lat="46.34892248893976" lon="13.066575943867486"><ele>227.0</ele><time>2026-04-12T14:53:00Z</time></trkpt><trkpt lat="46.348869327324934" lon="13.066472373003378"><ele>227.0</ele><time>2026-04-12T14:53:01Z</time></trkpt><trkpt lat="46.348817188150534" lon="13.066355417188097"><ele>227.0</ele><time>2026-04-12T14:53:02Z</time></trkpt><trkpt lat="46.34875136749547" lon="13.06625327997307"><ele>227.0</ele><time>2026-04-12T14:53:03Z</time></trkpt><trkpt lat="46.34867051758809" lon="13.066156777554495"><ele>227.0</ele><time>2026-04-12T14:53:03.999Z</time></trkpt><trkpt lat="46.34857205018" lon="13.066082483359319"><ele>227.0</ele><time>2026-04-12T14:53:04.999Z</time></trkpt><trkpt lat="46.34846267950248" lon="13.066033884012365"><ele>227.0</ele><time>2026-04-12T14:53:05.999Z</time></trkpt><trkpt lat="46.34834469689405" lon="13.066028345130396"><ele>227.0</ele><time>2026-04-12T14:53:06.999Z</time></trkpt><trkpt lat="46.34822136240237" lon="13.06605289569743"><ele>227.0</ele><time>2026-04-12T14:53:07.999Z</time></trkpt><trkpt lat="46.34810155500628" lon="13.06610030935516"><ele>227.0</ele><time>2026-04-12T14:53:08.999Z</time></trkpt><trkpt lat="46.34800810984847" lon="13.066182303498483"><ele>221.66666666666669</ele><time>2026-04-12T14:53:09.999Z</time></trkpt><trkpt lat="46.34791715797588" lon="13.066291023819053"><ele>216.33333333333331</ele><time>2026-04-12T14:53:10.999Z</time></trkpt><trkpt lat="46.34780725024103" lon="13.066420932082869"><ele>211.0</ele><time>2026-04-12T14:53:11.999Z</time></trkpt><trkpt lat="46.34764220927396" lon="13.066603355149697"><ele>208.0</ele><time>2026-04-12T14:53:12.999Z</time></trkpt><trkpt lat="46.34749429182535" lon="13.066751607626468"><ele>205.0</ele><time>2026-04-12T14:53:13.999Z</time></trkpt><trkpt lat="46.347350124301975" lon="13.066891858569706"><ele>202.0</ele><time>2026-04-12T14:53:14.999Z</time></trkpt><trkpt lat="46.34722248060478" lon="13.067011765921276"><ele>201.8</ele><time>2026-04-12T14:53:15.999Z</time></trkpt><trkpt lat="46.34713643704887" lon="13.067115639288394"><ele>201.6</ele><time>2026-04-12T14:53:16.999Z</time></trkpt><trkpt lat="46.347048533564596" lon="13.067173903687"><ele>201.4</ele><time>2026-04-12T14:53:17.999Z</time></trkpt><trkpt lat="46.34697097041138" lon="13.067285351742457"><ele>201.20000000000002</ele><time>2026-04-12T14:53:18.999Z</time></trkpt><trkpt lat="46.34690239428865" lon="13.067432646879594"><ele>201.0</ele><time>2026-04-12T14:53:19.999Z</time></trkpt><trkpt lat="46.3468649574601" lon="13.067653479492822"><ele>201.25</ele><time>2026-04-12T14:53:20.999Z</time></trkpt><trkpt lat="46.34681813597701" lon="13.067874683493654"><ele>201.5</ele><time>2026-04-12T14:53:21.999Z</time></trkpt><trkpt lat="46.34677609003517" lon="13.068071702794521"><ele>201.75</ele><time>2026-04-12T14:53:22.999Z</time></trkpt><trkpt lat="46.34674314227934" lon="13.068247253311156"><ele>202.0</ele><time>2026-04-12T14:53:23.999Z</time></trkpt><trkpt lat="46.34671489911467" lon="13.068414102610639"><ele>202.0</ele><time>2026-04-12T14:53:24.999Z</time></trkpt><trkpt lat="46.34668151151961" lon="13.0685868406362"><ele>202.0</ele><time>2026-04-12T14:53:25.999Z</time></trkpt><trkpt lat="46.346625803439274" lon="13.068748609229981"><ele>202.0</ele><time>2026-04-12T14:53:26.999Z</time></trkpt><trkpt lat="46.34657559434584" lon="13.06892853021351"><ele>202.0</ele><time>2026-04-12T14:53:27.999Z</time></trkpt><trkpt lat="46.34651768221726" lon="13.06910356101632"><ele>202.75</ele><time>2026-04-12T14:53:28.999Z</time></trkpt><trkpt lat="46.34645834496996" lon="13.069269617789125"><ele>203.5</ele><time>2026-04-12T14:53:29.999Z</time></trkpt><trkpt lat="46.34639338067724" lon="13.069439211708834"><ele>204.25</ele><time>2026-04-12T14:53:30.999Z</time></trkpt><trkpt lat="46.346323901625624" lon="13.0696129538798"><ele>205.0</ele><time>2026-04-12T14:53:31.999Z</time></trkpt><trkpt lat="46.34624789811441" lon="13.069793356860774"><ele>204.0</ele><time>2026-04-12T14:53:32.999Z</time></trkpt><trkpt lat="46.34615678598827" lon="13.069987788262784"><ele>203.0</ele><time>2026-04-12T14:53:33.999Z</time></trkpt><trkpt lat="46.34605534660241" lon="13.070192484099707"><ele>202.0</ele><time>2026-04-12T14:53:34.999Z</time></trkpt><trkpt lat="46.345949083916494" lon="13.070407335830472"><ele>202.0</ele><time>2026-04-12T14:53:35.999Z</time></trkpt><trkpt lat="46.345836336422664" lon="13.070634579307413"><ele>202.0</ele><time>2026-04-12T14:53:36.999Z</time></trkpt><trkpt lat="46.34571813339111" lon="13.070873181091152"><ele>202.0</ele><time>2026-04-12T14:53:37.999Z</time></trkpt><trkpt lat="46.345595248154815" lon="13.071121234627576"><ele>202.33333333333331</ele><time>2026-04-12T14:53:38.999Z</time></trkpt><trkpt lat="46.34547468599595" lon="13.071364960248596"><ele>202.66666666666669</ele><time>2026-04-12T14:53:39.999Z</time></trkpt><trkpt lat="46.34536473018815" lon="13.071587399219407"><ele>203.0</ele><time>2026-04-12T14:53:40.999Z</time></trkpt><trkpt lat="46.345256253918535" lon="13.07180684514019"><ele>203.0</ele><time>2026-04-12T14:53:41.999Z</time></trkpt><trkpt lat="46.345151070669736" lon="13.072017395622973"><ele>203.0</ele><time>2026-04-12T14:53:42.999Z</time></trkpt><trkpt lat="46.34505380739476" lon="13.07221459896851"><ele>203.0</ele><time>2026-04-12T14:53:43.999Z</time></trkpt><trkpt lat="46.34496456915075" lon="13.07240906635063"><ele>203.0</ele><time>2026-04-12T14:53:44.999Z</time></trkpt><trkpt lat="46.344887624763125" lon="13.072618503908762"><ele>203.0</ele><time>2026-04-12T14:53:45.999Z</time></trkpt><trkpt lat="46.344821701329465" lon="13.072841319675083"><ele>203.0</ele><time>2026-04-12T14:53:46.999Z</time></trkpt><trkpt lat="46.34476257493899" lon="13.07306584882867"><ele>201.5</ele><time>2026-04-12T14:53:47.999Z</time></trkpt><trkpt lat="46.344707314408716" lon="13.073264274886018"><ele>200.0</ele><time>2026-04-12T14:53:48.999Z</time></trkpt><trkpt lat="46.34464589669038" lon="13.073449406161561"><ele>198.5</ele><time>2026-04-12T14:53:49.999Z</time></trkpt><trkpt lat="46.344565070660124" lon="13.073616844012376"><ele>197.0</ele><time>2026-04-12T14:53:50.999Z</time></trkpt><trkpt lat="46.34444870242387" lon="13.07377281600213"><ele>197.0</ele><time>2026-04-12T14:53:51.999Z</time></trkpt><trkpt lat="46.34431028663486" lon="13.07392009920386"><ele>197.0</ele><time>2026-04-12T14:53:52.999Z</time></trkpt><trkpt lat="46.34416984056763" lon="13.074055184364028"><ele>197.0</ele><time>2026-04-12T14:53:53.999Z</time></trkpt><trkpt lat="46.34402601883969" lon="13.074191430517606"><ele>196.33333333333334</ele><time>2026-04-12T14:53:54.999Z</time></trkpt><trkpt lat="46.343872752293315" lon="13.074330617403186"><ele>195.66666666666669</ele><time>2026-04-12T14:53:55.999Z</time></trkpt><trkpt lat="46.34370891198742" lon="13.074465647185315"><ele>195.0</ele><time>2026-04-12T14:53:56.999Z</time></trkpt><trkpt lat="46.343536277160126" lon="13.074598203417784"><ele>195.0</ele><time>2026-04-12T14:53:57.999Z</time></trkpt><trkpt lat="46.34336757392642" lon="13.074710672961594"><ele>195.0</ele><time>2026-04-12T14:53:58.999Z</time></trkpt><trkpt lat="46.343205591591826" lon="13.074800306829262"><ele>195.0</ele><time>2026-04-12T14:53:59.999Z</time></trkpt><trkpt lat="46.343053100629454" lon="13.074881309190124"><ele>196.33333333333331</ele><time>2026-04-12T14:54:00.999Z</time></trkpt><trkpt lat="46.342898251708235" lon="13.074958784681783"><ele>197.66666666666666</ele><time>2026-04-12T14:54:01.999Z</time></trkpt><trkpt lat="46.342740945842785" lon="13.075034975694338"><ele>199.0</ele><time>2026-04-12T14:54:02.999Z</time></trkpt><trkpt lat="46.3425807428578" lon="13.075112569781496"><ele>199.0</ele><time>2026-04-12T14:54:03.999Z</time></trkpt><trkpt lat="46.34241670622371" lon="13.07519202070788"><ele>199.0</ele><time>2026-04-12T14:54:04.999Z</time></trkpt><trkpt lat="46.342255354169325" lon="13.075270364106848"><ele>199.0</ele><time>2026-04-12T14:54:05.999Z</time></trkpt><trkpt lat="46.34209199940848" lon="13.075351412965126"><ele>197.66666666666666</ele><time>2026-04-12T14:54:06.999Z</time></trkpt><trkpt lat="46.341932620541904" lon="13.07543030071189"><ele>196.33333333333331</ele><time>2026-04-12T14:54:07.999Z</time></trkpt><trkpt lat="46.341776754145265" lon="13.075506292305624"><ele>195.0</ele><time>2026-04-12T14:54:08.999Z</time></trkpt><trkpt lat="46.34161975550258" lon="13.075580284813114"><ele>195.0</ele><time>2026-04-12T14:54:10Z</time></trkpt><trkpt lat="46.3414608606164" lon="13.075647251117497"><ele>195.0</ele><time>2026-04-12T14:54:11Z</time></trkpt><trkpt lat="46.34130000248963" lon="13.075706631479528"><ele>195.0</ele><time>2026-04-12T14:54:12Z</time></trkpt><trkpt lat="46.3411356281197" lon="13.075756939940675"><ele>196.33333333333331</ele><time>2026-04-12T14:54:13Z</time></trkpt><trkpt lat="46.340969776100415" lon="13.07580238250833"><ele>197.66666666666666</ele><time>2026-04-12T14:54:14Z</time></trkpt><trkpt lat="46.34080763900006" lon="13.07584598532548"><ele>199.0</ele><time>2026-04-12T14:54:15Z</time></trkpt><trkpt lat="46.340653139089994" lon="13.075888557630833"><ele>197.66666666666666</ele><time>2026-04-12T14:54:16Z</time></trkpt><trkpt lat="46.34050354989583" lon="13.075953158706977"><ele>196.33333333333331</ele><time>2026-04-12T14:54:17Z</time></trkpt><trkpt lat="46.34036623188469" lon="13.076060165744043"><ele>195.0</ele><time>2026-04-12T14:54:18Z</time></trkpt><trkpt lat="46.34024928677644" lon="13.076221569573999"><ele>195.0</ele><time>2026-04-12T14:54:19Z</time></trkpt><trkpt lat="46.340140372032835" lon="13.076408559718796"><ele>195.0</ele><time>2026-04-12T14:54:20Z</time></trkpt><trkpt lat="46.340029853942426" lon="13.076625934899372"><ele>195.0</ele><time>2026-04-12T14:54:21Z</time></trkpt><trkpt lat="46.33992496021412" lon="13.076859069279857"><ele>193.33333333333334</ele><time>2026-04-12T14:54:22Z</time></trkpt><trkpt lat="46.339823574948205" lon="13.077072666608439"><ele>191.66666666666669</ele><time>2026-04-12T14:54:23Z</time></trkpt><trkpt lat="46.339711862708555" lon="13.077268172987317"><ele>190.0</ele><time>2026-04-12T14:54:24Z</time></trkpt><trkpt lat="46.3395835858831" lon="13.077431486393728"><ele>193.0</ele><time>2026-04-12T14:54:25Z</time></trkpt><trkpt lat="46.33943639552164" lon="13.077564762131743"><ele>196.0</ele><time>2026-04-12T14:54:26Z</time></trkpt><trkpt lat="46.339267766904946" lon="13.077671503381655"><ele>199.0</ele><time>2026-04-12T14:54:27Z</time></trkpt><trkpt lat="46.339075888910216" lon="13.077758839238486"><ele>197.0</ele><time>2026-04-12T14:54:28Z</time></trkpt><trkpt lat="46.338882743107064" lon="13.07784597145602"><ele>195.0</ele><time>2026-04-12T14:54:29Z</time></trkpt><trkpt lat="46.3386606155856" lon="13.077946177903327"><ele>193.0</ele><time>2026-04-12T14:54:30Z</time></trkpt><trkpt lat="46.338424930401146" lon="13.078052500615703"><ele>193.0</ele><time>2026-04-12T14:54:31Z</time></trkpt><trkpt lat="46.33816325012117" lon="13.078169885963892"><ele>193.0</ele><time>2026-04-12T14:54:32Z</time></trkpt><trkpt lat="46.33788917979054" lon="13.07829380049794"><ele>197.0</ele><time>2026-04-12T14:54:33Z</time></trkpt><trkpt lat="46.337639180708344" lon="13.078413837129924"><ele>201.0</ele><time>2026-04-12T14:54:34Z</time></trkpt><trkpt lat="46.33740102056229" lon="13.078489150228807"><ele>198.33333333333331</ele><time>2026-04-12T14:54:35Z</time></trkpt><trkpt lat="46.33718476839532" lon="13.078577978803171"><ele>195.66666666666666</ele><time>2026-04-12T14:54:36Z</time></trkpt><trkpt lat="46.33698978046051" lon="13.07871530649925"><ele>193.0</ele><time>2026-04-12T14:54:37Z</time></trkpt><trkpt lat="46.33678614038869" lon="13.078790625425729"><ele>193.0</ele><time>2026-04-12T14:54:38Z</time></trkpt><trkpt lat="46.33658076087481" lon="13.078885368447567"><ele>193.0</ele><time>2026-04-12T14:54:39Z</time></trkpt><trkpt lat="46.33637436887435" lon="13.078984444060843"><ele>193.0</ele><time>2026-04-12T14:54:40Z</time></trkpt><trkpt lat="46.33616222604219" lon="13.079095665774101"><ele>197.66666666666666</ele><time>2026-04-12T14:54:41Z</time></trkpt><trkpt lat="46.335953930116936" lon="13.079216645735608"><ele>202.33333333333331</ele><time>2026-04-12T14:54:42Z</time></trkpt><trkpt lat="46.33575074017223" lon="13.079352309345062"><ele>207.0</ele><time>2026-04-12T14:54:43Z</time></trkpt><trkpt lat="46.335569391918206" lon="13.079478452447438"><ele>208.0</ele><time>2026-04-12T14:54:44Z</time></trkpt><trkpt lat="46.33539498179635" lon="13.07958514520627"><ele>209.0</ele><time>2026-04-12T14:54:45Z</time></trkpt><trkpt lat="46.335225973922945" lon="13.079672479538743"><ele>210.0</ele><time>2026-04-12T14:54:46Z</time></trkpt><trkpt lat="46.33505783543936" lon="13.079749752027997"><ele>210.0</ele><time>2026-04-12T14:54:47Z</time></trkpt><trkpt lat="46.33488440685665" lon="13.079826529166466"><ele>210.0</ele><time>2026-04-12T14:54:48Z</time></trkpt><trkpt lat="46.33471149443336" lon="13.079903361062906"><ele>210.0</ele><time>2026-04-12T14:54:49Z</time></trkpt><trkpt lat="46.334543922890866" lon="13.079981186123396"><ele>212.33333333333331</ele><time>2026-04-12T14:54:50Z</time></trkpt><trkpt lat="46.334379427092024" lon="13.080059805574075"><ele>214.66666666666666</ele><time>2026-04-12T14:54:51Z</time></trkpt><trkpt lat="46.33421273196492" lon="13.080145788427732"><ele>217.0</ele><time>2026-04-12T14:54:52Z</time></trkpt><trkpt lat="46.334050956610255" lon="13.080237493977988"><ele>217.0</ele><time>2026-04-12T14:54:53Z</time></trkpt><trkpt lat="46.33389171508657" lon="13.08032821532156"><ele>217.0</ele><time>2026-04-12T14:54:54Z</time></trkpt><trkpt lat="46.33373194302596" lon="13.080426728713144"><ele>217.0</ele><time>2026-04-12T14:54:55Z</time></trkpt><trkpt lat="46.3335734586157" lon="13.080542170242428"><ele>220.0</ele><time>2026-04-12T14:54:56Z</time></trkpt><trkpt lat="46.33341929766078" lon="13.080670413798227"><ele>223.0</ele><time>2026-04-12T14:54:57Z</time></trkpt><trkpt lat="46.33326483454954" lon="13.080804084454698"><ele>226.0</ele><time>2026-04-12T14:54:58Z</time></trkpt><trkpt lat="46.333109890430734" lon="13.080940449849075"><ele>223.33333333333331</ele><time>2026-04-12T14:54:59Z</time></trkpt><trkpt lat="46.3329523674659" lon="13.081080525873723"><ele>220.66666666666669</ele><time>2026-04-12T14:55:00Z</time></trkpt><trkpt lat="46.33280093954388" lon="13.081214737597293"><ele>218.0</ele><time>2026-04-12T14:55:01Z</time></trkpt><trkpt lat="46.33265035554731" lon="13.081346277170224"><ele>218.0</ele><time>2026-04-12T14:55:02Z</time></trkpt><trkpt lat="46.33250684250745" lon="13.08147163999855"><ele>218.0</ele><time>2026-04-12T14:55:03Z</time></trkpt><trkpt lat="46.332365336726774" lon="13.081595249342307"><ele>218.0</ele><time>2026-04-12T14:55:04Z</time></trkpt><trkpt lat="46.332222825694956" lon="13.081722162459027"><ele>224.33333333333334</ele><time>2026-04-12T14:55:05Z</time></trkpt><trkpt lat="46.33208208312163" lon="13.081848290282611"><ele>230.66666666666669</ele><time>2026-04-12T14:55:06Z</time></trkpt><trkpt lat="46.331943137086924" lon="13.081972808102817"><ele>237.0</ele><time>2026-04-12T14:55:07Z</time></trkpt><trkpt lat="46.3317979472777" lon="13.082102921460624"><ele>237.0</ele><time>2026-04-12T14:55:08Z</time></trkpt><trkpt lat="46.33164200339157" lon="13.082241193305162"><ele>237.0</ele><time>2026-04-12T14:55:09.066Z</time></trkpt><trkpt lat="46.33150235897268" lon="13.0823644121548"><ele>237.0</ele><time>2026-04-12T14:55:10.06Z</time></trkpt><trkpt lat="46.33136820876394" lon="13.082482782494946"><ele>256.0</ele><time>2026-04-12T14:55:11.057Z</time></trkpt><trkpt lat="46.33123346185694" lon="13.082601679799625"><ele>275.0</ele><time>2026-04-12T14:55:12.05Z</time></trkpt><trkpt lat="46.331094548897156" lon="13.082726083231961"><ele>294.0</ele><time>2026-04-12T14:55:13.04Z</time></trkpt><trkpt lat="46.3296275998428" lon="13.08345698408749"><ele>307.0</ele><time>2026-04-12T14:55:16.542Z</time></trkpt><trkpt lat="46.32917813079705" lon="13.083440126285403"><ele>278.0</ele><time>2026-04-12T14:55:17.542Z</time></trkpt><trkpt lat="46.32873575314372" lon="13.083321865861029"><ele>265.0</ele><time>2026-04-12T14:55:18.544Z</time></trkpt><trkpt lat="46.32831052883204" lon="13.083110933624907"><ele>252.0</ele><time>2026-04-12T14:55:19.545Z</time></trkpt><trkpt lat="46.32764945690104" lon="13.08244364785963"><ele>247.66666666666669</ele><time>2026-04-12T14:55:32.999Z</time></trkpt><trkpt lat="46.32742243033263" lon="13.08239927076227"><ele>243.33333333333334</ele><time>2026-04-12T14:55:33.999Z</time></trkpt><trkpt lat="46.32737968767429" lon="13.082127452736698"><ele>239.0</ele><time>2026-04-12T14:55:34.999Z</time></trkpt><trkpt lat="46.32725871070443" lon="13.081929646329726"><ele>242.0</ele><time>2026-04-12T14:55:35.999Z</time></trkpt><trkpt lat="46.327162151358635" lon="13.08176663031732"><ele>245.0</ele><time>2026-04-12T14:55:36.999Z</time></trkpt><trkpt lat="46.32706956491488" lon="13.081567397381997"><ele>248.0</ele><time>2026-04-12T14:55:37.999Z</time></trkpt><trkpt lat="46.32698760481431" lon="13.08138440779131"><ele>248.0</ele><time>2026-04-12T14:55:38.999Z</time></trkpt><trkpt lat="46.3269162875441" lon="13.08120414181281"><ele>248.0</ele><time>2026-04-12T14:55:39.999Z</time></trkpt><trkpt lat="46.32685208853184" lon="13.081040382275326"><ele>248.0</ele><time>2026-04-12T14:55:40.999Z</time></trkpt><trkpt lat="46.32678862896586" lon="13.080873300198109"><ele>248.0</ele><time>2026-04-12T14:55:41.999Z</time></trkpt><trkpt lat="46.326703955971475" lon="13.080747251802128"><ele>248.5</ele><time>2026-04-12T14:55:42.999Z</time></trkpt><trkpt lat="46.32666784558644" lon="13.080581919090536"><ele>249.0</ele><time>2026-04-12T14:55:43.999Z</time></trkpt><trkpt lat="46.32666406578657" lon="13.08040109874968"><ele>249.5</ele><time>2026-04-12T14:55:44.999Z</time></trkpt><trkpt lat="46.32670603123646" lon="13.080215675871676"><ele>250.0</ele><time>2026-04-12T14:55:45.999Z</time></trkpt><trkpt lat="46.3268035388053" lon="13.08006710103604"><ele>248.25</ele><time>2026-04-12T14:55:46.999Z</time></trkpt><trkpt lat="46.32687316061387" lon="13.07990799935127"><ele>246.5</ele><time>2026-04-12T14:55:47.999Z</time></trkpt><trkpt lat="46.32689957044321" lon="13.079731519317132"><ele>244.75</ele><time>2026-04-12T14:55:48.999Z</time></trkpt><trkpt lat="46.3268800178234" lon="13.079545883842584"><ele>243.0</ele><time>2026-04-12T14:55:49.999Z</time></trkpt><trkpt lat="46.32682318013579" lon="13.07939266438887"><ele>243.0</ele><time>2026-04-12T14:55:50.999Z</time></trkpt><trkpt lat="46.326724349666115" lon="13.079226773220975"><ele>243.0</ele><time>2026-04-12T14:55:51.999Z</time></trkpt><trkpt lat="46.32663870758778" lon="13.079059957777998"><ele>243.0</ele><time>2026-04-12T14:55:52.999Z</time></trkpt><trkpt lat="46.32655543342229" lon="13.078913892686403"><ele>243.0</ele><time>2026-04-12T14:55:53.999Z</time></trkpt><trkpt lat="46.32646040353878" lon="13.078779336531705"><ele>244.33333333333331</ele><time>2026-04-12T14:55:54.999Z</time></trkpt><trkpt lat="46.32634629174532" lon="13.07867911804688"><ele>245.66666666666666</ele><time>2026-04-12T14:55:55.999Z</time></trkpt><trkpt lat="46.32619808641579" lon="13.078574420055094"><ele>247.0</ele><time>2026-04-12T14:55:56.999Z</time></trkpt><trkpt lat="46.32606010861363" lon="13.07846532511108"><ele>247.0</ele><time>2026-04-12T14:55:57.999Z</time></trkpt><trkpt lat="46.32591437076164" lon="13.07832433370575"><ele>247.0</ele><time>2026-04-12T14:55:58.999Z</time></trkpt><trkpt lat="46.32577799451373" lon="13.078157720912055"><ele>247.0</ele><time>2026-04-12T14:55:59.999Z</time></trkpt><trkpt lat="46.32562819298293" lon="13.077982713854908"><ele>244.33333333333331</ele><time>2026-04-12T14:56:00.999Z</time></trkpt><trkpt lat="46.32548547647071" lon="13.077802656703124"><ele>241.66666666666669</ele><time>2026-04-12T14:56:01.999Z</time></trkpt><trkpt lat="46.32533019159222" lon="13.077613564081979"><ele>239.0</ele><time>2026-04-12T14:56:02.999Z</time></trkpt><trkpt lat="46.32518332252968" lon="13.077429000894737"><ele>230.0</ele><time>2026-04-12T14:56:03.999Z</time></trkpt><trkpt lat="46.3250368481673" lon="13.077241305783149"><ele>221.0</ele><time>2026-04-12T14:56:04.999Z</time></trkpt><trkpt lat="46.32489216065625" lon="13.077057437928522"><ele>212.0</ele><time>2026-04-12T14:56:05.999Z</time></trkpt><trkpt lat="46.324743466130194" lon="13.076862259123207"><ele>211.33333333333334</ele><time>2026-04-12T14:56:06.999Z</time></trkpt><trkpt lat="46.32460530550588" lon="13.076672521993288"><ele>210.66666666666669</ele><time>2026-04-12T14:56:07.999Z</time></trkpt><trkpt lat="46.32446810690488" lon="13.076508514038538"><ele>210.0</ele><time>2026-04-12T14:56:08.999Z</time></trkpt><trkpt lat="46.32432363843867" lon="13.076334785373188"><ele>210.0</ele><time>2026-04-12T14:56:09.999Z</time></trkpt><trkpt lat="46.32419479272865" lon="13.076206054579334"><ele>210.0</ele><time>2026-04-12T14:56:10.999Z</time></trkpt><trkpt lat="46.32403284351435" lon="13.076042194210293"><ele>210.0</ele><time>2026-04-12T14:56:11.999Z</time></trkpt><trkpt lat="46.32387851632088" lon="13.07588187206783"><ele>210.0</ele><time>2026-04-12T14:56:12.999Z</time></trkpt><trkpt lat="46.323733845150485" lon="13.075717659004223"><ele>210.0</ele><time>2026-04-12T14:56:13.999Z</time></trkpt><trkpt lat="46.3236121101129" lon="13.075505506492348"><ele>210.0</ele><time>2026-04-12T14:56:14.999Z</time></trkpt><trkpt lat="46.32348302291837" lon="13.075286208308995"><ele>210.0</ele><time>2026-04-12T14:56:16Z</time></trkpt><trkpt lat="46.32335880089445" lon="13.07506318253465"><ele>210.0</ele><time>2026-04-12T14:56:17Z</time></trkpt><trkpt lat="46.32323894660371" lon="13.074847849191299"><ele>210.0</ele><time>2026-04-12T14:56:18Z</time></trkpt><trkpt lat="46.32310117719418" lon="13.074634269552151"><ele>205.5</ele><time>2026-04-12T14:56:19Z</time></trkpt><trkpt lat="46.32295091106888" lon="13.074352877734515"><ele>201.0</ele><time>2026-04-12T14:56:20Z</time></trkpt><trkpt lat="46.32280983547411" lon="13.074103538460804"><ele>201.0</ele><time>2026-04-12T14:56:21Z</time></trkpt><trkpt lat="46.32266866758579" lon="13.073847625949284"><ele>201.0</ele><time>2026-04-12T14:56:22Z</time></trkpt><trkpt lat="46.3225258074602" lon="13.073584741015399"><ele>201.0</ele><time>2026-04-12T14:56:23Z</time></trkpt><trkpt lat="46.322388656280985" lon="13.073333452393527"><ele>201.0</ele><time>2026-04-12T14:56:24Z</time></trkpt><trkpt lat="46.32226382169734" lon="13.073105684506213"><ele>201.0</ele><time>2026-04-12T14:56:25Z</time></trkpt><trkpt lat="46.32214971963255" lon="13.07290532573234"><ele>201.33333333333331</ele><time>2026-04-12T14:56:26Z</time></trkpt><trkpt lat="46.32204437043032" lon="13.072729128418564"><ele>201.66666666666666</ele><time>2026-04-12T14:56:27Z</time></trkpt><trkpt lat="46.32194382999742" lon="13.072565449057134"><ele>202.0</ele><time>2026-04-12T14:56:28Z</time></trkpt><trkpt lat="46.32184452634144" lon="13.072401901060566"><ele>202.0</ele><time>2026-04-12T14:56:29Z</time></trkpt><trkpt lat="46.32175349316245" lon="13.072247318136705"><ele>202.0</ele><time>2026-04-12T14:56:30Z</time></trkpt><trkpt lat="46.32166146583536" lon="13.072095616949643"><ele>202.0</ele><time>2026-04-12T14:56:31Z</time></trkpt><trkpt lat="46.32156653764781" lon="13.071940868989177"><ele>202.0</ele><time>2026-04-12T14:56:32Z</time></trkpt><trkpt lat="46.32147073820659" lon="13.071787265305481"><ele>201.5</ele><time>2026-04-12T14:56:33Z</time></trkpt><trkpt lat="46.32137603869329" lon="13.07163597682004"><ele>201.0</ele><time>2026-04-12T14:56:34Z</time></trkpt><trkpt lat="46.32128629868069" lon="13.071483527891417"><ele>200.5</ele><time>2026-04-12T14:56:35Z</time></trkpt><trkpt lat="46.32119501353977" lon="13.071336015133284"><ele>200.0</ele><time>2026-04-12T14:56:36Z</time></trkpt><trkpt lat="46.321100532104445" lon="13.071190728058358"><ele>200.0</ele><time>2026-04-12T14:56:37Z</time></trkpt><trkpt lat="46.32100423716906" lon="13.071054627761267"><ele>200.0</ele><time>2026-04-12T14:56:38Z</time></trkpt><trkpt lat="46.32090453584306" lon="13.070922679925642"><ele>200.0</ele><time>2026-04-12T14:56:39Z</time></trkpt><trkpt lat="46.32080358801993" lon="13.070795783904291"><ele>200.0</ele><time>2026-04-12T14:56:40Z</time></trkpt><trkpt lat="46.32070099167851" lon="13.070672308387193"><ele>200.5</ele><time>2026-04-12T14:56:41Z</time></trkpt><trkpt lat="46.3205951610243" lon="13.070552698331245"><ele>201.0</ele><time>2026-04-12T14:56:42Z</time></trkpt><trkpt lat="46.32049388393344" lon="13.070442940905753"><ele>201.5</ele><time>2026-04-12T14:56:43Z</time></trkpt><trkpt lat="46.32040244814079" lon="13.070333407252747"><ele>202.0</ele><time>2026-04-12T14:56:44Z</time></trkpt><trkpt lat="46.32031821827304" lon="13.070230051615855"><ele>202.0</ele><time>2026-04-12T14:56:45Z</time></trkpt><trkpt lat="46.32023434846013" lon="13.070117213164078"><ele>202.0</ele><time>2026-04-12T14:56:46Z</time></trkpt><trkpt lat="46.32015220198708" lon="13.069999491909272"><ele>202.0</ele><time>2026-04-12T14:56:47Z</time></trkpt><trkpt lat="46.320063174234065" lon="13.069886542941555"><ele>202.0</ele><time>2026-04-12T14:56:48Z</time></trkpt><trkpt lat="46.31996913070828" lon="13.06977824370764"><ele>202.25</ele><time>2026-04-12T14:56:49Z</time></trkpt><trkpt lat="46.319874687325175" lon="13.069670239410756"><ele>202.5</ele><time>2026-04-12T14:56:50Z</time></trkpt><trkpt lat="46.31976982040535" lon="13.069570097836932"><ele>202.75</ele><time>2026-04-12T14:56:51Z</time></trkpt><trkpt lat="46.319658849291834" lon="13.069474973270781"><ele>203.0</ele><time>2026-04-12T14:56:52Z</time></trkpt><trkpt lat="46.319547031140424" lon="13.06934954184489"><ele>203.0</ele><time>2026-04-12T14:56:53Z</time></trkpt><trkpt lat="46.319427489968724" lon="13.069244869333946"><ele>203.0</ele><time>2026-04-12T14:56:54Z</time></trkpt><trkpt lat="46.31929298354446" lon="13.069124456398116"><ele>203.0</ele><time>2026-04-12T14:56:55Z</time></trkpt><trkpt lat="46.31915349065258" lon="13.069024195459749"><ele>202.33333333333334</ele><time>2026-04-12T14:56:56Z</time></trkpt><trkpt lat="46.31902387759562" lon="13.068910782337536"><ele>201.66666666666669</ele><time>2026-04-12T14:56:57Z</time></trkpt><trkpt lat="46.31889087966427" lon="13.068780441744725"><ele>201.0</ele><time>2026-04-12T14:56:58Z</time></trkpt><trkpt lat="46.31874575773796" lon="13.068646723362608"><ele>200.66666666666669</ele><time>2026-04-12T14:56:59Z</time></trkpt><trkpt lat="46.31859182633541" lon="13.068497704317986"><ele>200.33333333333334</ele><time>2026-04-12T14:57:00Z</time></trkpt><trkpt lat="46.31843205139519" lon="13.068331592084938"><ele>200.0</ele><time>2026-04-12T14:57:01Z</time></trkpt><trkpt lat="46.3182719704181" lon="13.068165711514625"><ele>200.0</ele><time>2026-04-12T14:57:02Z</time></trkpt><trkpt lat="46.31812387243774" lon="13.068004584871158"><ele>200.0</ele><time>2026-04-12T14:57:03Z</time></trkpt><trkpt lat="46.317985605688" lon="13.067844606966469"><ele>200.0</ele><time>2026-04-12T14:57:04Z</time></trkpt><trkpt lat="46.31785393208406" lon="13.067676795164157"><ele>198.66666666666669</ele><time>2026-04-12T14:57:05Z</time></trkpt><trkpt lat="46.31772466518758" lon="13.067504973739918"><ele>197.33333333333331</ele><time>2026-04-12T14:57:06Z</time></trkpt><trkpt lat="46.31759397626698" lon="13.067330330900976"><ele>196.0</ele><time>2026-04-12T14:57:07Z</time></trkpt><trkpt lat="46.31746232607176" lon="13.067152059761451"><ele>196.0</ele><time>2026-04-12T14:57:08Z</time></trkpt><trkpt lat="46.31733372493598" lon="13.066976304822756"><ele>196.0</ele><time>2026-04-12T14:57:09Z</time></trkpt><trkpt lat="46.317208262964996" lon="13.06680266331231"><ele>196.0</ele><time>2026-04-12T14:57:09.999Z</time></trkpt><trkpt lat="46.31707726078811" lon="13.066623640723575"><ele>197.66666666666666</ele><time>2026-04-12T14:57:10.999Z</time></trkpt><trkpt lat="46.31693934111761" lon="13.066437019737814"><ele>199.33333333333331</ele><time>2026-04-12T14:57:11.999Z</time></trkpt><trkpt lat="46.31680462661168" lon="13.066249525851617"><ele>201.0</ele><time>2026-04-12T14:57:12.999Z</time></trkpt><trkpt lat="46.31667631540579" lon="13.066064133658902"><ele>201.0</ele><time>2026-04-12T14:57:13.999Z</time></trkpt><trkpt lat="46.31654681557385" lon="13.06588299351206"><ele>201.0</ele><time>2026-04-12T14:57:14.999Z</time></trkpt><trkpt lat="46.316414026411934" lon="13.065705204431357"><ele>201.0</ele><time>2026-04-12T14:57:15.999Z</time></trkpt><trkpt lat="46.31627951913448" lon="13.065531701057324"><ele>200.66666666666669</ele><time>2026-04-12T14:57:16.999Z</time></trkpt><trkpt lat="46.316158303896636" lon="13.065339122918402"><ele>200.33333333333334</ele><time>2026-04-12T14:57:17.999Z</time></trkpt><trkpt lat="46.31602477136291" lon="13.065152333364827"><ele>200.0</ele><time>2026-04-12T14:57:18.999Z</time></trkpt><trkpt lat="46.31589222804274" lon="13.064948070181991"><ele>199.66666666666669</ele><time>2026-04-12T14:57:19.999Z</time></trkpt><trkpt lat="46.31577350502162" lon="13.0647288112889"><ele>199.33333333333331</ele><time>2026-04-12T14:57:20.999Z</time></trkpt><trkpt lat="46.31565231414401" lon="13.06451077946902"><ele>199.0</ele><time>2026-04-12T14:57:21.999Z</time></trkpt><trkpt lat="46.31555740345988" lon="13.064247274219351"><ele>199.66666666666666</ele><time>2026-04-12T14:57:22.999Z</time></trkpt><trkpt lat="46.31546268578812" lon="13.063965652843876"><ele>200.33333333333331</ele><time>2026-04-12T14:57:23.999Z</time></trkpt><trkpt lat="46.315375648744066" lon="13.063682914075201"><ele>201.0</ele><time>2026-04-12T14:57:24.999Z</time></trkpt><trkpt lat="46.315290045455725" lon="13.063414654718231"><ele>200.33333333333331</ele><time>2026-04-12T14:57:25.999Z</time></trkpt><trkpt lat="46.31518990657211" lon="13.063159271410113"><ele>199.66666666666666</ele><time>2026-04-12T14:57:26.999Z</time></trkpt><trkpt lat="46.31508325107789" lon="13.06292357164982"><ele>199.0</ele><time>2026-04-12T14:57:27.999Z</time></trkpt><trkpt lat="46.314973549939715" lon="13.062716995585967"><ele>199.0</ele><time>2026-04-12T14:57:28.999Z</time></trkpt><trkpt lat="46.31487379695816" lon="13.062557807482273"><ele>199.0</ele><time>2026-04-12T14:57:29.999Z</time></trkpt><trkpt lat="46.31478010822254" lon="13.062423154617887"><ele>199.0</ele><time>2026-04-12T14:57:30.999Z</time></trkpt><trkpt lat="46.31468036963459" lon="13.06229045786802"><ele>199.0</ele><time>2026-04-12T14:57:31.999Z</time></trkpt><trkpt lat="46.314581393304216" lon="13.062161529988977"><ele>198.5</ele><time>2026-04-12T14:57:32.999Z</time></trkpt><trkpt lat="46.31447921335985" lon="13.062033971835348"><ele>198.0</ele><time>2026-04-12T14:57:33.999Z</time></trkpt><trkpt lat="46.314374982028696" lon="13.061898491345124"><ele>197.5</ele><time>2026-04-12T14:57:34.999Z</time></trkpt><trkpt lat="46.31425831088254" lon="13.061756192443454"><ele>197.0</ele><time>2026-04-12T14:57:35.999Z</time></trkpt><trkpt lat="46.31414459007961" lon="13.06161453844405"><ele>197.0</ele><time>2026-04-12T14:57:36.999Z</time></trkpt><trkpt lat="46.314029256349464" lon="13.061468395753273"><ele>197.0</ele><time>2026-04-12T14:57:37.999Z</time></trkpt><trkpt lat="46.31392658912056" lon="13.061304053559114"><ele>197.0</ele><time>2026-04-12T14:57:38.999Z</time></trkpt><trkpt lat="46.31380219470518" lon="13.061170077385421"><ele>197.66666666666669</ele><time>2026-04-12T14:57:39.999Z</time></trkpt><trkpt lat="46.313682747371764" lon="13.061013928422732"><ele>198.33333333333331</ele><time>2026-04-12T14:57:40.999Z</time></trkpt><trkpt lat="46.31355140229116" lon="13.06084817693462"><ele>199.0</ele><time>2026-04-12T14:57:41.999Z</time></trkpt><trkpt lat="46.313410304138024" lon="13.06066668203431"><ele>199.0</ele><time>2026-04-12T14:57:42.999Z</time></trkpt><trkpt lat="46.31326128448532" lon="13.060472932960373"><ele>199.0</ele><time>2026-04-12T14:57:43.999Z</time></trkpt><trkpt lat="46.313105550035914" lon="13.060269794706606"><ele>199.0</ele><time>2026-04-12T14:57:44.999Z</time></trkpt><trkpt lat="46.3129433203062" lon="13.060060726667718"><ele>199.0</ele><time>2026-04-12T14:57:45.999Z</time></trkpt><trkpt lat="46.31277839729769" lon="13.059851021682121"><ele>199.0</ele><time>2026-04-12T14:57:46.999Z</time></trkpt><trkpt lat="46.3126151067364" lon="13.059646763443562"><ele>199.0</ele><time>2026-04-12T14:57:47.999Z</time></trkpt><trkpt lat="46.31246723262852" lon="13.059429556415104"><ele>199.0</ele><time>2026-04-12T14:57:48.999Z</time></trkpt><trkpt lat="46.31231370792994" lon="13.059230980837023"><ele>199.0</ele><time>2026-04-12T14:57:49.999Z</time></trkpt><trkpt lat="46.31215290126859" lon="13.05902536168785"><ele>199.0</ele><time>2026-04-12T14:57:50.999Z</time></trkpt><trkpt lat="46.31199267545603" lon="13.058836302592116"><ele>198.0</ele><time>2026-04-12T14:57:51.999Z</time></trkpt><trkpt lat="46.311852489311725" lon="13.05865328833989"><ele>197.0</ele><time>2026-04-12T14:57:52.999Z</time></trkpt><trkpt lat="46.31171453697647" lon="13.058473668759893"><ele>196.0</ele><time>2026-04-12T14:57:53.999Z</time></trkpt><trkpt lat="46.311582565494234" lon="13.05830136935217"><ele>196.66666666666666</ele><time>2026-04-12T14:57:54.999Z</time></trkpt><trkpt lat="46.31146357236819" lon="13.05814892168163"><ele>197.33333333333331</ele><time>2026-04-12T14:57:55.999Z</time></trkpt><trkpt lat="46.31135765788124" lon="13.058004050282172"><ele>198.0</ele><time>2026-04-12T14:57:56.999Z</time></trkpt><trkpt lat="46.311251123088844" lon="13.05786097161972"><ele>198.0</ele><time>2026-04-12T14:57:57.999Z</time></trkpt><trkpt lat="46.31113756813393" lon="13.05771390647762"><ele>198.0</ele><time>2026-04-12T14:57:58.999Z</time></trkpt><trkpt lat="46.31101710104058" lon="13.057557657055403"><ele>198.0</ele><time>2026-04-12T14:57:59.999Z</time></trkpt><trkpt lat="46.3108986222944" lon="13.057397734757654"><ele>198.0</ele><time>2026-04-12T14:58:00.999Z</time></trkpt><trkpt lat="46.310783480506295" lon="13.057241915203818"><ele>198.0</ele><time>2026-04-12T14:58:01.999Z</time></trkpt><trkpt lat="46.31067172188558" lon="13.05709351357542"><ele>198.0</ele><time>2026-04-12T14:58:02.999Z</time></trkpt><trkpt lat="46.31056829959847" lon="13.056952363036423"><ele>198.0</ele><time>2026-04-12T14:58:03.999Z</time></trkpt><trkpt lat="46.310466507344486" lon="13.05681539820587"><ele>198.0</ele><time>2026-04-12T14:58:04.999Z</time></trkpt><trkpt lat="46.31037293336734" lon="13.056691888572745"><ele>198.0</ele><time>2026-04-12T14:58:05.999Z</time></trkpt><trkpt lat="46.31026773510751" lon="13.056580351156198"><ele>198.0</ele><time>2026-04-12T14:58:06.999Z</time></trkpt><trkpt lat="46.310146895098775" lon="13.056497573097143"><ele>198.25</ele><time>2026-04-12T14:58:07.999Z</time></trkpt><trkpt lat="46.31002147363698" lon="13.056466632055297"><ele>198.5</ele><time>2026-04-12T14:58:08.999Z</time></trkpt><trkpt lat="46.309902988466355" lon="13.056473533270829"><ele>198.75</ele><time>2026-04-12T14:58:09.999Z</time></trkpt><trkpt lat="46.30979068239873" lon="13.056517394503224"><ele>199.0</ele><time>2026-04-12T14:58:10.999Z</time></trkpt><trkpt lat="46.309680651692005" lon="13.056593969050386"><ele>198.33333333333331</ele><time>2026-04-12T14:58:11.999Z</time></trkpt><trkpt lat="46.30956480557968" lon="13.05670650577519"><ele>197.66666666666669</ele><time>2026-04-12T14:58:12.999Z</time></trkpt><trkpt lat="46.30943404261801" lon="13.056834079434259"><ele>197.0</ele><time>2026-04-12T14:58:13.999Z</time></trkpt><trkpt lat="46.30928167008696" lon="13.056978749817594"><ele>197.0</ele><time>2026-04-12T14:58:14.999Z</time></trkpt><trkpt lat="46.30909557708802" lon="13.05715894534507"><ele>197.0</ele><time>2026-04-12T14:58:15.999Z</time></trkpt><trkpt lat="46.30886970616069" lon="13.057369151398182"><ele>198.0</ele><time>2026-04-12T14:58:16.999Z</time></trkpt><trkpt lat="46.308626037453166" lon="13.057580880882027"><ele>199.0</ele><time>2026-04-12T14:58:17.999Z</time></trkpt><trkpt lat="46.30840452651102" lon="13.057782837028016"><ele>199.0</ele><time>2026-04-12T14:58:18.999Z</time></trkpt><trkpt lat="46.308191276638865" lon="13.057977444473726"><ele>199.0</ele><time>2026-04-12T14:58:19.999Z</time></trkpt><trkpt lat="46.307980011929935" lon="13.058170141020415"><ele>198.5</ele><time>2026-04-12T14:58:21Z</time></trkpt><trkpt lat="46.307768963220965" lon="13.058362397948036"><ele>198.0</ele><time>2026-04-12T14:58:22Z</time></trkpt><trkpt lat="46.307558097152246" lon="13.058555192501162"><ele>198.0</ele><time>2026-04-12T14:58:23Z</time></trkpt><trkpt lat="46.3073459538856" lon="13.058749154803847"><ele>198.0</ele><time>2026-04-12T14:58:24Z</time></trkpt><trkpt lat="46.30712456330792" lon="13.058951693986923"><ele>198.0</ele><time>2026-04-12T14:58:25Z</time></trkpt><trkpt lat="46.30692779388647" lon="13.05913197627198"><ele>198.0</ele><time>2026-04-12T14:58:26Z</time></trkpt><trkpt lat="46.306758978828064" lon="13.059310456442647"><ele>198.0</ele><time>2026-04-12T14:58:27Z</time></trkpt><trkpt lat="46.30658265837515" lon="13.059464260059453"><ele>197.0</ele><time>2026-04-12T14:58:28Z</time></trkpt><trkpt lat="46.30640747771079" lon="13.059621156497245"><ele>196.0</ele><time>2026-04-12T14:58:29Z</time></trkpt><trkpt lat="46.30622731328312" lon="13.059756411971499"><ele>195.0</ele><time>2026-04-12T14:58:30Z</time></trkpt><trkpt lat="46.30602986041179" lon="13.059872090379619"><ele>195.66666666666669</ele><time>2026-04-12T14:58:31Z</time></trkpt><trkpt lat="46.3058227907959" lon="13.059966049866548"><ele>196.33333333333334</ele><time>2026-04-12T14:58:32Z</time></trkpt><trkpt lat="46.30560328928129" lon="13.06004145291073"><ele>197.0</ele><time>2026-04-12T14:58:33Z</time></trkpt><trkpt lat="46.30537503457627" lon="13.060117463855946"><ele>197.0</ele><time>2026-04-12T14:58:34Z</time></trkpt><trkpt lat="46.305146855425335" lon="13.06019422393204"><ele>197.0</ele><time>2026-04-12T14:58:35Z</time></trkpt><trkpt lat="46.30492080568961" lon="13.060269892320319"><ele>196.66666666666669</ele><time>2026-04-12T14:58:36Z</time></trkpt><trkpt lat="46.30470365278712" lon="13.060343374013867"><ele>196.33333333333331</ele><time>2026-04-12T14:58:37Z</time></trkpt><trkpt lat="46.30448963547715" lon="13.06041730338074"><ele>196.0</ele><time>2026-04-12T14:58:38Z</time></trkpt><trkpt lat="46.3042767007893" lon="13.060489748875145"><ele>196.0</ele><time>2026-04-12T14:58:39Z</time></trkpt><trkpt lat="46.30406497158815" lon="13.06055981252374"><ele>196.0</ele><time>2026-04-12T14:58:40Z</time></trkpt><trkpt lat="46.30385713020361" lon="13.060627705165768"><ele>196.0</ele><time>2026-04-12T14:58:41Z</time></trkpt><trkpt lat="46.30365032126301" lon="13.060695505819082"><ele>196.0</ele><time>2026-04-12T14:58:42Z</time></trkpt><trkpt lat="46.3034426640074" lon="13.06076347475051"><ele>196.0</ele><time>2026-04-12T14:58:43Z</time></trkpt><trkpt lat="46.30323307713499" lon="13.060835363127147"><ele>196.0</ele><time>2026-04-12T14:58:44Z</time></trkpt><trkpt lat="46.30302227736653" lon="13.060909160849437"><ele>194.66666666666666</ele><time>2026-04-12T14:58:45Z</time></trkpt><trkpt lat="46.30280635056798" lon="13.060984797542186"><ele>193.33333333333331</ele><time>2026-04-12T14:58:46Z</time></trkpt><trkpt lat="46.302585812972985" lon="13.061061429314313"><ele>192.0</ele><time>2026-04-12T14:58:47Z</time></trkpt><trkpt lat="46.30236077270974" lon="13.061137283379596"><ele>193.0</ele><time>2026-04-12T14:58:48Z</time></trkpt><trkpt lat="46.302139036909665" lon="13.061210432191084"><ele>194.0</ele><time>2026-04-12T14:58:49Z</time></trkpt><trkpt lat="46.301922304220824" lon="13.061285354613625"><ele>194.0</ele><time>2026-04-12T14:58:50Z</time></trkpt><trkpt lat="46.301712506072604" lon="13.061356539318332"><ele>194.0</ele><time>2026-04-12T14:58:51Z</time></trkpt><trkpt lat="46.301519832097284" lon="13.061420052173245"><ele>194.0</ele><time>2026-04-12T14:58:52Z</time></trkpt><trkpt lat="46.301333468444156" lon="13.06148076391431"><ele>194.33333333333334</ele><time>2026-04-12T14:58:53Z</time></trkpt><trkpt lat="46.30114305183242" lon="13.061545195919942"><ele>194.66666666666669</ele><time>2026-04-12T14:58:54Z</time></trkpt><trkpt lat="46.300952906134455" lon="13.061611429673889"><ele>195.0</ele><time>2026-04-12T14:58:55Z</time></trkpt><trkpt lat="46.300763617041206" lon="13.061676707786868"><ele>194.66666666666669</ele><time>2026-04-12T14:58:56Z</time></trkpt><trkpt lat="46.30057928988231" lon="13.061740823852691"><ele>194.33333333333334</ele><time>2026-04-12T14:58:57Z</time></trkpt><trkpt lat="46.30039546972503" lon="13.061803900313416"><ele>194.0</ele><time>2026-04-12T14:58:58Z</time></trkpt><trkpt lat="46.3002126990975" lon="13.061865065242117"><ele>194.0</ele><time>2026-04-12T14:58:59Z</time></trkpt><trkpt lat="46.30002996854577" lon="13.061927507113937"><ele>194.0</ele><time>2026-04-12T14:59:00Z</time></trkpt><trkpt lat="46.29984642812797" lon="13.061989056843524"><ele>194.0</ele><time>2026-04-12T14:59:01Z</time></trkpt><trkpt lat="46.29966031166955" lon="13.062049639964119"><ele>193.66666666666669</ele><time>2026-04-12T14:59:02Z</time></trkpt><trkpt lat="46.29947062947044" lon="13.062112749050177"><ele>193.33333333333331</ele><time>2026-04-12T14:59:03Z</time></trkpt><trkpt lat="46.29928082222013" lon="13.062173769112258"><ele>193.0</ele><time>2026-04-12T14:59:04Z</time></trkpt><trkpt lat="46.2990947319724" lon="13.06222746571536"><ele>192.66666666666666</ele><time>2026-04-12T14:59:05Z</time></trkpt><trkpt lat="46.29890515424519" lon="13.062281657829656"><ele>192.33333333333331</ele><time>2026-04-12T14:59:06Z</time></trkpt><trkpt lat="46.2987145455766" lon="13.06233140464189"><ele>192.0</ele><time>2026-04-12T14:59:07Z</time></trkpt><trkpt lat="46.29852240661282" lon="13.062378432713135"><ele>192.0</ele><time>2026-04-12T14:59:08Z</time></trkpt><trkpt lat="46.298328964364615" lon="13.062422697629286"><ele>192.0</ele><time>2026-04-12T14:59:09Z</time></trkpt><trkpt lat="46.29813514987418" lon="13.062463696108455"><ele>192.0</ele><time>2026-04-12T14:59:10Z</time></trkpt><trkpt lat="46.29794133104063" lon="13.06250538083351"><ele>192.0</ele><time>2026-04-12T14:59:11Z</time></trkpt><trkpt lat="46.29775409066211" lon="13.062548820151603"><ele>192.0</ele><time>2026-04-12T14:59:12Z</time></trkpt><trkpt lat="46.29756704630422" lon="13.062588468395663"><ele>192.0</ele><time>2026-04-12T14:59:13Z</time></trkpt><trkpt lat="46.29737792449583" lon="13.062628316342058"><ele>192.33333333333331</ele><time>2026-04-12T14:59:14Z</time></trkpt><trkpt lat="46.297184889242764" lon="13.062670337023347"><ele>192.66666666666666</ele><time>2026-04-12T14:59:15Z</time></trkpt><trkpt lat="46.296986184602716" lon="13.06271482014756"><ele>193.0</ele><time>2026-04-12T14:59:15.999Z</time></trkpt><trkpt lat="46.2967766701502" lon="13.06275775623531"><ele>193.0</ele><time>2026-04-12T14:59:16.999Z</time></trkpt><trkpt lat="46.296565323897056" lon="13.062801178601175"><ele>193.0</ele><time>2026-04-12T14:59:17.999Z</time></trkpt><trkpt lat="46.296356882040016" lon="13.062844108413099"><ele>193.0</ele><time>2026-04-12T14:59:18.999Z</time></trkpt><trkpt lat="46.296146359490756" lon="13.062884595205489"><ele>191.66666666666666</ele><time>2026-04-12T14:59:19.999Z</time></trkpt><trkpt lat="46.29593927098468" lon="13.06292747280357"><ele>190.33333333333331</ele><time>2026-04-12T14:59:20.999Z</time></trkpt><trkpt lat="46.295736111289614" lon="13.062970079839177"><ele>189.0</ele><time>2026-04-12T14:59:21.999Z</time></trkpt><trkpt lat="46.295535110068926" lon="13.063013421589961"><ele>188.33333333333334</ele><time>2026-04-12T14:59:22.999Z</time></trkpt><trkpt lat="46.295340297697145" lon="13.063055119711457"><ele>187.66666666666669</ele><time>2026-04-12T14:59:23.999Z</time></trkpt><trkpt lat="46.29515260641068" lon="13.0630969862413"><ele>187.0</ele><time>2026-04-12T14:59:24.999Z</time></trkpt><trkpt lat="46.294972051314666" lon="13.063138606896386"><ele>187.0</ele><time>2026-04-12T14:59:25.999Z</time></trkpt><trkpt lat="46.294803105778854" lon="13.063177802388081"><ele>187.0</ele><time>2026-04-12T14:59:26.999Z</time></trkpt><trkpt lat="46.294644079860454" lon="13.06321504199596"><ele>187.0</ele><time>2026-04-12T14:59:27.999Z</time></trkpt><trkpt lat="46.29448889348374" lon="13.063250656492487"><ele>188.0</ele><time>2026-04-12T14:59:28.999Z</time></trkpt><trkpt lat="46.294343826330575" lon="13.063286600728299"><ele>189.0</ele><time>2026-04-12T14:59:29.999Z</time></trkpt><trkpt lat="46.294197593129375" lon="13.063332877341725"><ele>190.0</ele><time>2026-04-12T14:59:30.999Z</time></trkpt><trkpt lat="46.29405125917185" lon="13.063394045371016"><ele>191.0</ele><time>2026-04-12T14:59:31.999Z</time></trkpt><trkpt lat="46.29390254093433" lon="13.063465988673768"><ele>191.0</ele><time>2026-04-12T14:59:32.999Z</time></trkpt><trkpt lat="46.29375292878798" lon="13.063547951251358"><ele>191.0</ele><time>2026-04-12T14:59:33.999Z</time></trkpt><trkpt lat="46.293600580233715" lon="13.06363495240849"><ele>191.0</ele><time>2026-04-12T14:59:34.999Z</time></trkpt><trkpt lat="46.29344201385052" lon="13.063720266468948"><ele>191.0</ele><time>2026-04-12T14:59:35.999Z</time></trkpt><trkpt lat="46.29328198473766" lon="13.063805934685947"><ele>191.0</ele><time>2026-04-12T14:59:36.999Z</time></trkpt><trkpt lat="46.29312047013131" lon="13.063892866371969"><ele>191.0</ele><time>2026-04-12T14:59:37.999Z</time></trkpt><trkpt lat="46.29295629837709" lon="13.063973268763885"><ele>191.0</ele><time>2026-04-12T14:59:38.999Z</time></trkpt><trkpt lat="46.29278995493967" lon="13.064044178885817"><ele>191.0</ele><time>2026-04-12T14:59:39.999Z</time></trkpt><trkpt lat="46.29261895391398" lon="13.064107162891093"><ele>191.0</ele><time>2026-04-12T14:59:40.999Z</time></trkpt><trkpt lat="46.29244296485214" lon="13.064161163062607"><ele>191.0</ele><time>2026-04-12T14:59:41.999Z</time></trkpt><trkpt lat="46.292268438420514" lon="13.064213452196412"><ele>191.0</ele><time>2026-04-12T14:59:42.999Z</time></trkpt><trkpt lat="46.29209713490698" lon="13.064265752784634"><ele>191.0</ele><time>2026-04-12T14:59:43.999Z</time></trkpt><trkpt lat="46.29192950353636" lon="13.064316316162909"><ele>190.0</ele><time>2026-04-12T14:59:44.999Z</time></trkpt><trkpt lat="46.29176410495906" lon="13.064366553438777"><ele>189.0</ele><time>2026-04-12T14:59:45.999Z</time></trkpt><trkpt lat="46.29161266899218" lon="13.064410596864903"><ele>188.0</ele><time>2026-04-12T14:59:46.999Z</time></trkpt><trkpt lat="46.29147220246111" lon="13.064452696792815"><ele>187.75</ele><time>2026-04-12T14:59:47.999Z</time></trkpt><trkpt lat="46.29133315805383" lon="13.064490287811052"><ele>187.5</ele><time>2026-04-12T14:59:48.999Z</time></trkpt><trkpt lat="46.29119231120037" lon="13.064518966747249"><ele>187.25</ele><time>2026-04-12T14:59:49.999Z</time></trkpt><trkpt lat="46.291051962228394" lon="13.064536135787476"><ele>187.0</ele><time>2026-04-12T14:59:50.999Z</time></trkpt><trkpt lat="46.29090342096827" lon="13.064531920600759"><ele>187.0</ele><time>2026-04-12T14:59:51.999Z</time></trkpt><trkpt lat="46.290750462430495" lon="13.064507782509496"><ele>187.0</ele><time>2026-04-12T14:59:52.999Z</time></trkpt><trkpt lat="46.29059905951295" lon="13.064476172672315"><ele>187.0</ele><time>2026-04-12T14:59:53.999Z</time></trkpt><trkpt lat="46.290453669500266" lon="13.06444284898753"><ele>187.25</ele><time>2026-04-12T14:59:54.999Z</time></trkpt><trkpt lat="46.29030955280478" lon="13.064410917662668"><ele>187.5</ele><time>2026-04-12T14:59:55.999Z</time></trkpt><trkpt lat="46.29016529670845" lon="13.064379794383994"><ele>187.75</ele><time>2026-04-12T14:59:56.999Z</time></trkpt><trkpt lat="46.29002457326834" lon="13.06434737984883"><ele>188.0</ele><time>2026-04-12T14:59:57.999Z</time></trkpt><trkpt lat="46.289888916206294" lon="13.064315575807507"><ele>188.25</ele><time>2026-04-12T14:59:58.999Z</time></trkpt><trkpt lat="46.28975500389897" lon="13.06428309816508"><ele>188.5</ele><time>2026-04-12T14:59:59.999Z</time></trkpt><trkpt lat="46.28961528927393" lon="13.064247694102203"><ele>188.75</ele><time>2026-04-12T15:00:00.999Z</time></trkpt><trkpt lat="46.28946692232929" lon="13.064210911422197"><ele>189.0</ele><time>2026-04-12T15:00:01.999Z</time></trkpt><trkpt lat="46.28931484564028" lon="13.064175519959015"><ele>189.0</ele><time>2026-04-12T15:00:02.999Z</time></trkpt><trkpt lat="46.28915968788003" lon="13.06414048674572"><ele>189.0</ele><time>2026-04-12T15:00:03.999Z</time></trkpt><trkpt lat="46.28900300118231" lon="13.064106026358221"><ele>189.0</ele><time>2026-04-12T15:00:04.999Z</time></trkpt><trkpt lat="46.28884511128206" lon="13.06407380812427"><ele>188.66666666666666</ele><time>2026-04-12T15:00:05.999Z</time></trkpt><trkpt lat="46.28868738502497" lon="13.064023745132856"><ele>188.33333333333331</ele><time>2026-04-12T15:00:06.999Z</time></trkpt><trkpt lat="46.28852714430877" lon="13.064012673630216"><ele>188.0</ele><time>2026-04-12T15:00:07.999Z</time></trkpt><trkpt lat="46.28836533766672" lon="13.06401514810937"><ele>188.0</ele><time>2026-04-12T15:00:08.999Z</time></trkpt><trkpt lat="46.288205390836346" lon="13.06404422917844"><ele>188.0</ele><time>2026-04-12T15:00:09.999Z</time></trkpt><trkpt lat="46.288052234044216" lon="13.064054683167006"><ele>188.0</ele><time>2026-04-12T15:00:10.999Z</time></trkpt><trkpt lat="46.2879089672628" lon="13.06406422686096"><ele>187.25</ele><time>2026-04-12T15:00:11.999Z</time></trkpt><trkpt lat="46.28777042395458" lon="13.064068534230504"><ele>186.5</ele><time>2026-04-12T15:00:12.999Z</time></trkpt><trkpt lat="46.28763389419259" lon="13.0640652183318"><ele>185.75</ele><time>2026-04-12T15:00:13.999Z</time></trkpt><trkpt lat="46.28749898255209" lon="13.064041766663545"><ele>185.0</ele><time>2026-04-12T15:00:14.999Z</time></trkpt><trkpt lat="46.2873626039282" lon="13.064001598541612"><ele>185.5</ele><time>2026-04-12T15:00:15.999Z</time></trkpt><trkpt lat="46.2872277073696" lon="13.063946646834466"><ele>186.0</ele><time>2026-04-12T15:00:16.999Z</time></trkpt><trkpt lat="46.28709755528712" lon="13.063879467406641"><ele>186.5</ele><time>2026-04-12T15:00:17.999Z</time></trkpt><trkpt lat="46.286963489005814" lon="13.063800806063972"><ele>187.0</ele><time>2026-04-12T15:00:18.999Z</time></trkpt><trkpt lat="46.286834881807884" lon="13.063723445047641"><ele>187.0</ele><time>2026-04-12T15:00:19.999Z</time></trkpt><trkpt lat="46.2867143436301" lon="13.063649833217974"><ele>187.0</ele><time>2026-04-12T15:00:20.999Z</time></trkpt><trkpt lat="46.28660160589114" lon="13.063583810960173"><ele>187.0</ele><time>2026-04-12T15:00:21.999Z</time></trkpt><trkpt lat="46.286490091210005" lon="13.063529442846233"><ele>187.0</ele><time>2026-04-12T15:00:22.999Z</time></trkpt><trkpt lat="46.28637594496782" lon="13.063491181565183"><ele>187.5</ele><time>2026-04-12T15:00:23.999Z</time></trkpt><trkpt lat="46.28625919383318" lon="13.063474515453315"><ele>188.0</ele><time>2026-04-12T15:00:24.999Z</time></trkpt><trkpt lat="46.286139578920995" lon="13.06347728977444"><ele>188.5</ele><time>2026-04-12T15:00:25.999Z</time></trkpt><trkpt lat="46.286016862138915" lon="13.06349669253933"><ele>189.0</ele><time>2026-04-12T15:00:27Z</time></trkpt><trkpt lat="46.28589225847946" lon="13.063526364862723"><ele>189.0</ele><time>2026-04-12T15:00:28Z</time></trkpt><trkpt lat="46.28576759557111" lon="13.063574428336302"><ele>189.0</ele><time>2026-04-12T15:00:29Z</time></trkpt><trkpt lat="46.28564990802475" lon="13.063638229114687"><ele>189.0</ele><time>2026-04-12T15:00:30Z</time></trkpt><trkpt lat="46.285541153000935" lon="13.063721326650073"><ele>189.0</ele><time>2026-04-12T15:00:31Z</time></trkpt><trkpt lat="46.28544099601936" lon="13.063816180214953"><ele>188.75</ele><time>2026-04-12T15:00:32Z</time></trkpt><trkpt lat="46.28534354936336" lon="13.063916808961183"><ele>188.5</ele><time>2026-04-12T15:00:33Z</time></trkpt><trkpt lat="46.285244187820695" lon="13.064014583737087"><ele>188.25</ele><time>2026-04-12T15:00:34Z</time></trkpt><trkpt lat="46.285144959164356" lon="13.064114259570282"><ele>188.0</ele><time>2026-04-12T15:00:35Z</time></trkpt><trkpt lat="46.285049365558066" lon="13.064222402459658"><ele>187.75</ele><time>2026-04-12T15:00:36Z</time></trkpt><trkpt lat="46.28495642668702" lon="13.064348096859309"><ele>187.5</ele><time>2026-04-12T15:00:37Z</time></trkpt><trkpt lat="46.284864756738095" lon="13.064492958619253"><ele>187.25</ele><time>2026-04-12T15:00:38Z</time></trkpt><trkpt lat="46.284774236192376" lon="13.06466112752574"><ele>187.0</ele><time>2026-04-12T15:00:39Z</time></trkpt><trkpt lat="46.28468579181885" lon="13.064849507448304"><ele>188.66666666666669</ele><time>2026-04-12T15:00:40Z</time></trkpt><trkpt lat="46.28460415548585" lon="13.065057985800172"><ele>190.33333333333334</ele><time>2026-04-12T15:00:41Z</time></trkpt><trkpt lat="46.28452181887523" lon="13.06527527123461"><ele>192.0</ele><time>2026-04-12T15:00:42Z</time></trkpt><trkpt lat="46.28443670177133" lon="13.06549735082998"><ele>192.0</ele><time>2026-04-12T15:00:43Z</time></trkpt><trkpt lat="46.28435316498797" lon="13.065721002869376"><ele>192.0</ele><time>2026-04-12T15:00:44Z</time></trkpt><trkpt lat="46.28427750119873" lon="13.065939527190244"><ele>192.0</ele><time>2026-04-12T15:00:45Z</time></trkpt><trkpt lat="46.284195081095056" lon="13.066150440213475"><ele>192.0</ele><time>2026-04-12T15:00:46Z</time></trkpt><trkpt lat="46.28411625585991" lon="13.066353753715491"><ele>192.0</ele><time>2026-04-12T15:00:47Z</time></trkpt><trkpt lat="46.28403475744028" lon="13.06655117193354"><ele>192.0</ele><time>2026-04-12T15:00:48Z</time></trkpt><trkpt lat="46.28394942343086" lon="13.066746672624467"><ele>191.33333333333334</ele><time>2026-04-12T15:00:49Z</time></trkpt><trkpt lat="46.2838632115785" lon="13.066939318134814"><ele>190.66666666666669</ele><time>2026-04-12T15:00:50Z</time></trkpt><trkpt lat="46.2837790744979" lon="13.06712444491129"><ele>190.0</ele><time>2026-04-12T15:00:51Z</time></trkpt><trkpt lat="46.283698324987675" lon="13.067303100503734"><ele>190.75</ele><time>2026-04-12T15:00:52Z</time></trkpt><trkpt lat="46.28362463091344" lon="13.06747522365628"><ele>191.5</ele><time>2026-04-12T15:00:53Z</time></trkpt><trkpt lat="46.28355928343759" lon="13.067633352482567"><ele>192.25</ele><time>2026-04-12T15:00:54Z</time></trkpt><trkpt lat="46.28350306820093" lon="13.067780566253084"><ele>193.0</ele><time>2026-04-12T15:00:55Z</time></trkpt><trkpt lat="46.28345133566682" lon="13.067925042930124"><ele>193.0</ele><time>2026-04-12T15:00:56Z</time></trkpt><trkpt lat="46.283403209018104" lon="13.068070813127454"><ele>193.0</ele><time>2026-04-12T15:00:57Z</time></trkpt><trkpt lat="46.283357776245275" lon="13.068216724015013"><ele>193.0</ele><time>2026-04-12T15:00:58Z</time></trkpt><trkpt lat="46.28330243148413" lon="13.068352406764392"><ele>193.0</ele><time>2026-04-12T15:00:59Z</time></trkpt><trkpt lat="46.28328474685184" lon="13.068511220298465"><ele>193.0</ele><time>2026-04-12T15:01:00Z</time></trkpt><trkpt lat="46.28325553946139" lon="13.06865606526872"><ele>193.16666666666666</ele><time>2026-04-12T15:01:01Z</time></trkpt><trkpt lat="46.28323142672639" lon="13.068790258204482"><ele>193.33333333333331</ele><time>2026-04-12T15:01:02Z</time></trkpt><trkpt lat="46.28320835154647" lon="13.06891285730967"><ele>193.5</ele><time>2026-04-12T15:01:03Z</time></trkpt><trkpt lat="46.28318472650493" lon="13.069026974517133"><ele>193.66666666666669</ele><time>2026-04-12T15:01:04Z</time></trkpt><trkpt lat="46.28315961775211" lon="13.069138318300007"><ele>193.83333333333334</ele><time>2026-04-12T15:01:05Z</time></trkpt><trkpt lat="46.28312946956007" lon="13.069249522012116"><ele>194.0</ele><time>2026-04-12T15:01:06Z</time></trkpt><trkpt lat="46.28308971986161" lon="13.069361001732688"><ele>194.0</ele><time>2026-04-12T15:01:07Z</time></trkpt><trkpt lat="46.283039015020954" lon="13.069466339613742"><ele>194.0</ele><time>2026-04-12T15:01:08Z</time></trkpt><trkpt lat="46.282994696210416" lon="13.069577801911729"><ele>194.0</ele><time>2026-04-12T15:01:09Z</time></trkpt><trkpt lat="46.28299473040202" lon="13.06971166083009"><ele>194.0</ele><time>2026-04-12T15:01:10Z</time></trkpt><trkpt lat="46.283009250685595" lon="13.06985453666269"><ele>194.0</ele><time>2026-04-12T15:01:11Z</time></trkpt><trkpt lat="46.28300633611521" lon="13.070009668772302"><ele>193.25</ele><time>2026-04-12T15:01:12Z</time></trkpt><trkpt lat="46.282992011703435" lon="13.070185007962765"><ele>192.5</ele><time>2026-04-12T15:01:13Z</time></trkpt><trkpt lat="46.282972507471605" lon="13.070353436907576"><ele>191.75</ele><time>2026-04-12T15:01:14Z</time></trkpt><trkpt lat="46.28295300879225" lon="13.070508534847358"><ele>191.0</ele><time>2026-04-12T15:01:15Z</time></trkpt><trkpt lat="46.282932655087" lon="13.070664980556925"><ele>191.60000000000002</ele><time>2026-04-12T15:01:16Z</time></trkpt><trkpt lat="46.28291274999125" lon="13.070821538458878"><ele>192.2</ele><time>2026-04-12T15:01:17Z</time></trkpt><trkpt lat="46.28289101202742" lon="13.070979075244146"><ele>192.8</ele><time>2026-04-12T15:01:17.999Z</time></trkpt><trkpt lat="46.282868931850174" lon="13.071138486157356"><ele>193.39999999999998</ele><time>2026-04-12T15:01:18.999Z</time></trkpt><trkpt lat="46.28284716433138" lon="13.071302066247043"><ele>194.0</ele><time>2026-04-12T15:01:19.999Z</time></trkpt><trkpt lat="46.28282345946346" lon="13.071469011821394"><ele>194.5</ele><time>2026-04-12T15:01:20.999Z</time></trkpt><trkpt lat="46.28280090700361" lon="13.071638636392711"><ele>195.0</ele><time>2026-04-12T15:01:21.999Z</time></trkpt><trkpt lat="46.28278158036572" lon="13.071810731936104"><ele>195.5</ele><time>2026-04-12T15:01:22.999Z</time></trkpt><trkpt lat="46.282746633041654" lon="13.071982977762069"><ele>196.0</ele><time>2026-04-12T15:01:23.999Z</time></trkpt><trkpt lat="46.282745690589095" lon="13.072168177256538"><ele>196.0</ele><time>2026-04-12T15:01:24.999Z</time></trkpt><trkpt lat="46.28272996741584" lon="13.072366238992382"><ele>196.0</ele><time>2026-04-12T15:01:25.999Z</time></trkpt><trkpt lat="46.28269805984663" lon="13.07257993096555"><ele>196.0</ele><time>2026-04-12T15:01:26.999Z</time></trkpt><trkpt lat="46.28268108754675" lon="13.072806300561787"><ele>196.0</ele><time>2026-04-12T15:01:27.999Z</time></trkpt><trkpt lat="46.282664725922174" lon="13.073024525172979"><ele>195.8</ele><time>2026-04-12T15:01:28.999Z</time></trkpt><trkpt lat="46.28265023215321" lon="13.073217837139621"><ele>195.60000000000002</ele><time>2026-04-12T15:01:29.999Z</time></trkpt><trkpt lat="46.28263763410024" lon="13.073385865069552"><ele>195.4</ele><time>2026-04-12T15:01:30.999Z</time></trkpt><trkpt lat="46.2826280179431" lon="13.073533357133504"><ele>195.2</ele><time>2026-04-12T15:01:31.999Z</time></trkpt><trkpt lat="46.28261962948116" lon="13.073663848916162"><ele>195.0</ele><time>2026-04-12T15:01:32.999Z</time></trkpt><trkpt lat="46.282611208428925" lon="13.073804261764659"><ele>195.4</ele><time>2026-04-12T15:01:33.999Z</time></trkpt><trkpt lat="46.2826040736536" lon="13.073948579354662"><ele>195.8</ele><time>2026-04-12T15:01:34.999Z</time></trkpt><trkpt lat="46.28260057606076" lon="13.07407858239091"><ele>196.2</ele><time>2026-04-12T15:01:35.999Z</time></trkpt><trkpt lat="46.28260065733838" lon="13.074211117246879"><ele>196.6</ele><time>2026-04-12T15:01:36.999Z</time></trkpt><trkpt lat="46.28259600503962" lon="13.07434749431065"><ele>197.0</ele><time>2026-04-12T15:01:37.999Z</time></trkpt><trkpt lat="46.28258781276911" lon="13.074493306686282"><ele>196.6</ele><time>2026-04-12T15:01:38.999Z</time></trkpt><trkpt lat="46.282590796144326" lon="13.074645209132429"><ele>196.2</ele><time>2026-04-12T15:01:39.999Z</time></trkpt><trkpt lat="46.282569659780506" lon="13.074794153808057"><ele>195.8</ele><time>2026-04-12T15:01:40.999Z</time></trkpt><trkpt lat="46.28252806485957" lon="13.074933473211562"><ele>195.4</ele><time>2026-04-12T15:01:41.999Z</time></trkpt><trkpt lat="46.28248241290779" lon="13.075069725874565"><ele>195.0</ele><time>2026-04-12T15:01:42.999Z</time></trkpt><trkpt lat="46.28243025607472" lon="13.075199305956668"><ele>195.0</ele><time>2026-04-12T15:01:43.999Z</time></trkpt><trkpt lat="46.28236773746234" lon="13.075312675076367"><ele>195.0</ele><time>2026-04-12T15:01:44.999Z</time></trkpt><trkpt lat="46.282304281961956" lon="13.075424776745573"><ele>195.0</ele><time>2026-04-12T15:01:45.999Z</time></trkpt><trkpt lat="46.282230231242266" lon="13.07552168651313"><ele>195.0</ele><time>2026-04-12T15:01:46.999Z</time></trkpt><trkpt lat="46.282170322523214" lon="13.07563457281642"><ele>195.0</ele><time>2026-04-12T15:01:47.999Z</time></trkpt><trkpt lat="46.28212282865882" lon="13.075766557710844"><ele>194.4</ele><time>2026-04-12T15:01:48.999Z</time></trkpt><trkpt lat="46.28207962414588" lon="13.07588732269596"><ele>193.8</ele><time>2026-04-12T15:01:49.999Z</time></trkpt><trkpt lat="46.282045373504005" lon="13.076012987264216"><ele>193.2</ele><time>2026-04-12T15:01:50.999Z</time></trkpt><trkpt lat="46.28201213571232" lon="13.076141361075207"><ele>192.6</ele><time>2026-04-12T15:01:51.999Z</time></trkpt><trkpt lat="46.28198095596229" lon="13.076267932784685"><ele>192.0</ele><time>2026-04-12T15:01:52.999Z</time></trkpt><trkpt lat="46.281950959583156" lon="13.076395789326632"><ele>192.0</ele><time>2026-04-12T15:01:53.999Z</time></trkpt><trkpt lat="46.28192452429848" lon="13.076530004228188"><ele>192.0</ele><time>2026-04-12T15:01:54.999Z</time></trkpt><trkpt lat="46.28189791762751" lon="13.076667361532117"><ele>192.0</ele><time>2026-04-12T15:01:55.999Z</time></trkpt><trkpt lat="46.28187069465959" lon="13.076808901059715"><ele>192.0</ele><time>2026-04-12T15:01:56.999Z</time></trkpt><trkpt lat="46.28184363782377" lon="13.076955130859902"><ele>192.0</ele><time>2026-04-12T15:01:57.999Z</time></trkpt><trkpt lat="46.28183183529531" lon="13.077110253647303"><ele>192.25</ele><time>2026-04-12T15:01:58.999Z</time></trkpt><trkpt lat="46.28180471529029" lon="13.07726581021569"><ele>192.5</ele><time>2026-04-12T15:01:59.999Z</time></trkpt><trkpt lat="46.28177765137686" lon="13.07742570886797"><ele>192.75</ele><time>2026-04-12T15:02:00.999Z</time></trkpt><trkpt lat="46.28174986406506" lon="13.077590343771988"><ele>193.0</ele><time>2026-04-12T15:02:01.999Z</time></trkpt><trkpt lat="46.281723392273435" lon="13.077760814161932"><ele>193.25</ele><time>2026-04-12T15:02:02.999Z</time></trkpt><trkpt lat="46.28167867111888" lon="13.0779299243361"><ele>193.5</ele><time>2026-04-12T15:02:03.999Z</time></trkpt><trkpt lat="46.28164779973385" lon="13.078105885236354"><ele>193.75</ele><time>2026-04-12T15:02:04.999Z</time></trkpt><trkpt lat="46.2816163013667" lon="13.07828571467822"><ele>194.0</ele><time>2026-04-12T15:02:05.999Z</time></trkpt><trkpt lat="46.281587959633" lon="13.078474285437368"><ele>194.0</ele><time>2026-04-12T15:02:06.999Z</time></trkpt><trkpt lat="46.28156701302571" lon="13.078672610585803"><ele>194.0</ele><time>2026-04-12T15:02:07.999Z</time></trkpt><trkpt lat="46.28152943897521" lon="13.078851572223275"><ele>194.0</ele><time>2026-04-12T15:02:08.999Z</time></trkpt><trkpt lat="46.281478891973336" lon="13.079011897229792"><ele>194.0</ele><time>2026-04-12T15:02:09.999Z</time></trkpt><trkpt lat="46.28143937041333" lon="13.079173424946624"><ele>192.5</ele><time>2026-04-12T15:02:10.999Z</time></trkpt><trkpt lat="46.28141465898419" lon="13.079340363560844"><ele>191.0</ele><time>2026-04-12T15:02:11.999Z</time></trkpt><trkpt lat="46.28135848750702" lon="13.079490195634042"><ele>189.5</ele><time>2026-04-12T15:02:12.999Z</time></trkpt><trkpt lat="46.28131712940493" lon="13.07964863496779"><ele>188.0</ele><time>2026-04-12T15:02:13.999Z</time></trkpt><trkpt lat="46.28127777416492" lon="13.079808848358951"><ele>188.5</ele><time>2026-04-12T15:02:14.999Z</time></trkpt><trkpt lat="46.281243289272936" lon="13.079970552220967"><ele>189.0</ele><time>2026-04-12T15:02:15.999Z</time></trkpt><trkpt lat="46.28121871916055" lon="13.080135310171856"><ele>189.5</ele><time>2026-04-12T15:02:16.999Z</time></trkpt><trkpt lat="46.28120154949881" lon="13.08030028944831"><ele>190.0</ele><time>2026-04-12T15:02:17.999Z</time></trkpt><trkpt lat="46.28120878063495" lon="13.080459831810717"><ele>190.0</ele><time>2026-04-12T15:02:18.999Z</time></trkpt><trkpt lat="46.281200607716634" lon="13.080601231220754"><ele>190.0</ele><time>2026-04-12T15:02:19.999Z</time></trkpt><trkpt lat="46.28119522416931" lon="13.08073393506448"><ele>190.0</ele><time>2026-04-12T15:02:20.999Z</time></trkpt><trkpt lat="46.28118918990687" lon="13.080861532312722"><ele>190.0</ele><time>2026-04-12T15:02:21.999Z</time></trkpt><trkpt lat="46.28116326605226" lon="13.080985348227703"><ele>190.0</ele><time>2026-04-12T15:02:22.999Z</time></trkpt><trkpt lat="46.281158605739364" lon="13.081104076726472"><ele>190.83333333333334</ele><time>2026-04-12T15:02:23.999Z</time></trkpt><trkpt lat="46.28115480085747" lon="13.08120101186071"><ele>191.66666666666669</ele><time>2026-04-12T15:02:24.999Z</time></trkpt><trkpt lat="46.28114710306295" lon="13.081373059976746"><ele>192.5</ele><time>2026-04-12T15:02:26.999Z</time></trkpt><trkpt lat="46.28114187281476" lon="13.081470229462067"><ele>193.33333333333334</ele><time>2026-04-12T15:02:27.999Z</time></trkpt><trkpt lat="46.28113631515728" lon="13.081571168721918"><ele>194.16666666666666</ele><time>2026-04-12T15:02:28.999Z</time></trkpt><trkpt lat="46.28110618549132" lon="13.081671178676475"><ele>195.0</ele><time>2026-04-12T15:02:29.999Z</time></trkpt><trkpt lat="46.28107649793217" lon="13.081760393251457"><ele>195.8</ele><time>2026-04-12T15:02:30.999Z</time></trkpt><trkpt lat="46.28109561075728" lon="13.081944831992084"><ele>196.6</ele><time>2026-04-12T15:02:33Z</time></trkpt><trkpt lat="46.28115742349972" lon="13.082026622452766"><ele>197.39999999999998</ele><time>2026-04-12T15:02:34Z</time></trkpt><trkpt lat="46.28123152729688" lon="13.082139528459168"><ele>198.2</ele><time>2026-04-12T15:02:35Z</time></trkpt><trkpt lat="46.28129267587728" lon="13.082283440498259"><ele>199.0</ele><time>2026-04-12T15:02:36Z</time></trkpt><trkpt lat="46.281339910159566" lon="13.08241637387907"><ele>198.75</ele><time>2026-04-12T15:02:37Z</time></trkpt><trkpt lat="46.281366041133765" lon="13.082593408052672"><ele>198.5</ele><time>2026-04-12T15:02:38Z</time></trkpt><trkpt lat="46.281406186950605" lon="13.08277508019823"><ele>198.25</ele><time>2026-04-12T15:02:39Z</time></trkpt><trkpt lat="46.28144574460024" lon="13.082957396630615"><ele>198.0</ele><time>2026-04-12T15:02:40Z</time></trkpt><trkpt lat="46.28148870926128" lon="13.083155321741561"><ele>202.25</ele><time>2026-04-12T15:02:41Z</time></trkpt><trkpt lat="46.281530854697294" lon="13.083349347565813"><ele>206.5</ele><time>2026-04-12T15:02:42Z</time></trkpt><trkpt lat="46.281575191839394" lon="13.08355346335784"><ele>210.75</ele><time>2026-04-12T15:02:43Z</time></trkpt><trkpt lat="46.2816137373967" lon="13.083744924878916"><ele>215.0</ele><time>2026-04-12T15:02:44Z</time></trkpt><trkpt lat="46.281646134492206" lon="13.08393015921348"><ele>213.5</ele><time>2026-04-12T15:02:45Z</time></trkpt><trkpt lat="46.28167315630102" lon="13.084113059399069"><ele>212.0</ele><time>2026-04-12T15:02:46Z</time></trkpt><trkpt lat="46.28169045676842" lon="13.084299111403702"><ele>210.5</ele><time>2026-04-12T15:02:47Z</time></trkpt><trkpt lat="46.28170420223165" lon="13.084492834712417"><ele>209.0</ele><time>2026-04-12T15:02:48Z</time></trkpt><trkpt lat="46.28171923711219" lon="13.084684712307688"><ele>209.0</ele><time>2026-04-12T15:02:49Z</time></trkpt><trkpt lat="46.28173392901873" lon="13.084877219894743"><ele>209.0</ele><time>2026-04-12T15:02:50Z</time></trkpt><trkpt lat="46.28174943817344" lon="13.085074313201716"><ele>209.0</ele><time>2026-04-12T15:02:51Z</time></trkpt><trkpt lat="46.28176581390436" lon="13.085275358382958"><ele>209.0</ele><time>2026-04-12T15:02:52Z</time></trkpt><trkpt lat="46.281783657368536" lon="13.085478051789105"><ele>207.75</ele><time>2026-04-12T15:02:53Z</time></trkpt><trkpt lat="46.281801780747585" lon="13.085684999712175"><ele>206.5</ele><time>2026-04-12T15:02:54Z</time></trkpt><trkpt lat="46.28182044938992" lon="13.085898173903056"><ele>205.25</ele><time>2026-04-12T15:02:55Z</time></trkpt><trkpt lat="46.281839018751285" lon="13.08611021433482"><ele>204.0</ele><time>2026-04-12T15:02:56Z</time></trkpt><trkpt lat="46.28187113208445" lon="13.086312248666767"><ele>202.25</ele><time>2026-04-12T15:02:57Z</time></trkpt><trkpt lat="46.281888224808164" lon="13.086516024160444"><ele>200.5</ele><time>2026-04-12T15:02:58Z</time></trkpt><trkpt lat="46.28190687409022" lon="13.086720872271092"><ele>198.75</ele><time>2026-04-12T15:02:59Z</time></trkpt><trkpt lat="46.28193243058158" lon="13.086938155054026"><ele>197.0</ele><time>2026-04-12T15:03:00Z</time></trkpt><trkpt lat="46.28196871918823" lon="13.087168730388619"><ele>196.66666666666669</ele><time>2026-04-12T15:03:01Z</time></trkpt><trkpt lat="46.282019684034275" lon="13.087401183164383"><ele>196.33333333333331</ele><time>2026-04-12T15:03:02Z</time></trkpt><trkpt lat="46.282086153430406" lon="13.087641772221561"><ele>196.0</ele><time>2026-04-12T15:03:03Z</time></trkpt><trkpt lat="46.28215835422654" lon="13.087876389518534"><ele>196.0</ele><time>2026-04-12T15:03:04Z</time></trkpt><trkpt lat="46.28222340662201" lon="13.088100074138458"><ele>196.0</ele><time>2026-04-12T15:03:05Z</time></trkpt><trkpt lat="46.2822865455077" lon="13.088322342915486"><ele>196.0</ele><time>2026-04-12T15:03:06Z</time></trkpt><trkpt lat="46.28235003079632" lon="13.088536017781358"><ele>196.0</ele><time>2026-04-12T15:03:07Z</time></trkpt><trkpt lat="46.28241258818323" lon="13.088744714408591"><ele>196.0</ele><time>2026-04-12T15:03:08Z</time></trkpt><trkpt lat="46.28246829414098" lon="13.088933403372314"><ele>196.0</ele><time>2026-04-12T15:03:09Z</time></trkpt><trkpt lat="46.28250604500985" lon="13.089128954568622"><ele>196.0</ele><time>2026-04-12T15:03:10Z</time></trkpt><trkpt lat="46.28256040509401" lon="13.089315203801247"><ele>196.5</ele><time>2026-04-12T15:03:11Z</time></trkpt><trkpt lat="46.282613579887304" lon="13.089497393729665"><ele>197.0</ele><time>2026-04-12T15:03:12Z</time></trkpt><trkpt lat="46.28267018650694" lon="13.089677321539666"><ele>197.5</ele><time>2026-04-12T15:03:13Z</time></trkpt><trkpt lat="46.28273131360231" lon="13.089859356687523"><ele>198.0</ele><time>2026-04-12T15:03:14Z</time></trkpt><trkpt lat="46.28279480343177" lon="13.09004136285057"><ele>198.0</ele><time>2026-04-12T15:03:15Z</time></trkpt><trkpt lat="46.282865653293776" lon="13.090220517126985"><ele>198.0</ele><time>2026-04-12T15:03:16Z</time></trkpt><trkpt lat="46.282943959960626" lon="13.090379982560668"><ele>198.0</ele><time>2026-04-12T15:03:17Z</time></trkpt><trkpt lat="46.283005662225406" lon="13.09053449732343"><ele>198.0</ele><time>2026-04-12T15:03:18Z</time></trkpt><trkpt lat="46.28306810437692" lon="13.090683327172858"><ele>198.2</ele><time>2026-04-12T15:03:19Z</time></trkpt><trkpt lat="46.28313299050608" lon="13.090826733263015"><ele>198.4</ele><time>2026-04-12T15:03:20Z</time></trkpt><trkpt lat="46.28318962296116" lon="13.090975668635924"><ele>198.6</ele><time>2026-04-12T15:03:21Z</time></trkpt><trkpt lat="46.283263874036045" lon="13.091094452692424"><ele>198.79999999999998</ele><time>2026-04-12T15:03:22Z</time></trkpt><trkpt lat="46.28333159872065" lon="13.091188806320588"><ele>199.0</ele><time>2026-04-12T15:03:23Z</time></trkpt><trkpt lat="46.283395532956945" lon="13.09127499479386"><ele>199.0</ele><time>2026-04-12T15:03:23.999Z</time></trkpt><trkpt lat="46.283459521663886" lon="13.09134768851763"><ele>199.0</ele><time>2026-04-12T15:03:24.999Z</time></trkpt><trkpt lat="46.283525405024974" lon="13.091395182259319"><ele>199.0</ele><time>2026-04-12T15:03:25.999Z</time></trkpt><trkpt lat="46.28360526213929" lon="13.091487633622283"><ele>199.0</ele><time>2026-04-12T15:03:27.999Z</time></trkpt><trkpt lat="46.28366916741864" lon="13.091586743856443"><ele>199.0</ele><time>2026-04-12T15:03:31.999Z</time></trkpt><trkpt lat="46.28370326724815" lon="13.091766293798448"><ele>199.2</ele><time>2026-04-12T15:03:33.999Z</time></trkpt><trkpt lat="46.28371080756098" lon="13.09186203424081"><ele>199.39999999999998</ele><time>2026-04-12T15:03:34.999Z</time></trkpt><trkpt lat="46.283645487791645" lon="13.091939432555975"><ele>199.6</ele><time>2026-04-12T15:03:35.999Z</time></trkpt><trkpt lat="46.28359265940179" lon="13.092021056886507"><ele>199.8</ele><time>2026-04-12T15:03:36.999Z</time></trkpt><trkpt lat="46.28352121815293" lon="13.092131612914036"><ele>200.0</ele><time>2026-04-12T15:03:37.999Z</time></trkpt><trkpt lat="46.283427234651946" lon="13.092276585475814"><ele>199.33333333333334</ele><time>2026-04-12T15:03:38.999Z</time></trkpt><trkpt lat="46.2833139411404" lon="13.092451091404323"><ele>198.66666666666669</ele><time>2026-04-12T15:03:39.999Z</time></trkpt><trkpt lat="46.28318219364173" lon="13.092654022363787"><ele>198.0</ele><time>2026-04-12T15:03:40.999Z</time></trkpt><trkpt lat="46.28304784285865" lon="13.092860962374314"><ele>197.33333333333331</ele><time>2026-04-12T15:03:41.999Z</time></trkpt><trkpt lat="46.28291994833314" lon="13.093058055003354"><ele>196.66666666666666</ele><time>2026-04-12T15:03:42.999Z</time></trkpt><trkpt lat="46.282800381042904" lon="13.093243238452997"><ele>196.0</ele><time>2026-04-12T15:03:43.999Z</time></trkpt><trkpt lat="46.2826920613859" lon="13.093411001741519"><ele>196.0</ele><time>2026-04-12T15:03:44.999Z</time></trkpt><trkpt lat="46.28258823835376" lon="13.09357180094882"><ele>196.0</ele><time>2026-04-12T15:03:45.999Z</time></trkpt><trkpt lat="46.28248460707135" lon="13.093732303094868"><ele>196.0</ele><time>2026-04-12T15:03:46.999Z</time></trkpt><trkpt lat="46.282387765982975" lon="13.093882288602545"><ele>196.0</ele><time>2026-04-12T15:03:47.999Z</time></trkpt><trkpt lat="46.282295282817984" lon="13.09402552492928"><ele>196.25</ele><time>2026-04-12T15:03:48.999Z</time></trkpt><trkpt lat="46.282205739194644" lon="13.094164208072952"><ele>196.5</ele><time>2026-04-12T15:03:49.999Z</time></trkpt><trkpt lat="46.28211485670937" lon="13.094304965184842"><ele>196.75</ele><time>2026-04-12T15:03:50.999Z</time></trkpt><trkpt lat="46.28202380567548" lon="13.094445982297412"><ele>197.0</ele><time>2026-04-12T15:03:51.999Z</time></trkpt><trkpt lat="46.28193498384734" lon="13.094583967851296"><ele>197.0</ele><time>2026-04-12T15:03:52.999Z</time></trkpt><trkpt lat="46.28184753606892" lon="13.094719831729666"><ele>197.0</ele><time>2026-04-12T15:03:53.999Z</time></trkpt><trkpt lat="46.28176295834129" lon="13.094849556248521"><ele>197.0</ele><time>2026-04-12T15:03:54.999Z</time></trkpt><trkpt lat="46.2816850277255" lon="13.094968786487012"><ele>197.0</ele><time>2026-04-12T15:03:55.999Z</time></trkpt><trkpt lat="46.281610062776956" lon="13.095083479421453"><ele>197.2</ele><time>2026-04-12T15:03:56.999Z</time></trkpt><trkpt lat="46.28153920412651" lon="13.095192897654202"><ele>197.39999999999998</ele><time>2026-04-12T15:03:57.999Z</time></trkpt><trkpt lat="46.28147661537178" lon="13.095290498123056"><ele>197.60000000000002</ele><time>2026-04-12T15:03:58.999Z</time></trkpt><trkpt lat="46.281420748442684" lon="13.095374577212008"><ele>197.8</ele><time>2026-04-12T15:03:59.999Z</time></trkpt><trkpt lat="46.28136624339269" lon="13.095462703398649"><ele>198.0</ele><time>2026-04-12T15:04:00.999Z</time></trkpt><trkpt lat="46.281321899803565" lon="13.095584913604458"><ele>198.0</ele><time>2026-04-12T15:04:01.999Z</time></trkpt><trkpt lat="46.28123442606449" lon="13.095673354052762"><ele>198.0</ele><time>2026-04-12T15:04:02.999Z</time></trkpt><trkpt lat="46.28116391679715" lon="13.095825601473512"><ele>198.0</ele><time>2026-04-12T15:04:03.999Z</time></trkpt><trkpt lat="46.28106446274712" lon="13.095974170111734"><ele>198.0</ele><time>2026-04-12T15:04:04.999Z</time></trkpt><trkpt lat="46.28095958972606" lon="13.096142831116357"><ele>198.0</ele><time>2026-04-12T15:04:05.999Z</time></trkpt><trkpt lat="46.28083157924611" lon="13.096288456806965"><ele>198.0</ele><time>2026-04-12T15:04:06.999Z</time></trkpt><trkpt lat="46.280713167703276" lon="13.096470544708467"><ele>198.0</ele><time>2026-04-12T15:04:07.999Z</time></trkpt><trkpt lat="46.28058140295725" lon="13.096673971956905"><ele>198.0</ele><time>2026-04-12T15:04:08.999Z</time></trkpt><trkpt lat="46.28043543320856" lon="13.096901853536915"><ele>198.0</ele><time>2026-04-12T15:04:09.999Z</time></trkpt><trkpt lat="46.28027114570116" lon="13.097157728105788"><ele>198.5</ele><time>2026-04-12T15:04:10.999Z</time></trkpt><trkpt lat="46.280090057332025" lon="13.097438974017166"><ele>199.0</ele><time>2026-04-12T15:04:11.999Z</time></trkpt><trkpt lat="46.2799124207345" lon="13.097714859132507"><ele>197.5</ele><time>2026-04-12T15:04:12.999Z</time></trkpt><trkpt lat="46.27974062053477" lon="13.09798133664764"><ele>196.0</ele><time>2026-04-12T15:04:13.999Z</time></trkpt><trkpt lat="46.27957808139653" lon="13.098233662103874"><ele>196.0</ele><time>2026-04-12T15:04:14.999Z</time></trkpt><trkpt lat="46.2794236898963" lon="13.09847156054227"><ele>196.0</ele><time>2026-04-12T15:04:15.999Z</time></trkpt><trkpt lat="46.27927869565406" lon="13.098695043711873"><ele>196.0</ele><time>2026-04-12T15:04:16.999Z</time></trkpt><trkpt lat="46.27914286943729" lon="13.098904394515761"><ele>196.0</ele><time>2026-04-12T15:04:17.999Z</time></trkpt><trkpt lat="46.27900974397625" lon="13.099109582617956"><ele>196.0</ele><time>2026-04-12T15:04:18.999Z</time></trkpt><trkpt lat="46.27887823090605" lon="13.09930707726994"><ele>196.0</ele><time>2026-04-12T15:04:19.999Z</time></trkpt><trkpt lat="46.278750553775446" lon="13.099514399071214"><ele>196.0</ele><time>2026-04-12T15:04:20.999Z</time></trkpt><trkpt lat="46.27859356887381" lon="13.099701930464793"><ele>196.0</ele><time>2026-04-12T15:04:21.999Z</time></trkpt><trkpt lat="46.27841198175125" lon="13.099852114602552"><ele>196.0</ele><time>2026-04-12T15:04:22.999Z</time></trkpt><trkpt lat="46.2782312459287" lon="13.100004701704647"><ele>196.0</ele><time>2026-04-12T15:04:23.999Z</time></trkpt><trkpt lat="46.27804724900433" lon="13.100138403359106"><ele>196.0</ele><time>2026-04-12T15:04:24.999Z</time></trkpt><trkpt lat="46.2778582656301" lon="13.100246849001943"><ele>196.0</ele><time>2026-04-12T15:04:25.999Z</time></trkpt><trkpt lat="46.277667753093404" lon="13.100335121610481"><ele>196.0</ele><time>2026-04-12T15:04:26.999Z</time></trkpt><trkpt lat="46.2774751088714" lon="13.100397864564574"><ele>196.0</ele><time>2026-04-12T15:04:27.999Z</time></trkpt><trkpt lat="46.277286145101954" lon="13.10044121007356"><ele>196.0</ele><time>2026-04-12T15:04:28.999Z</time></trkpt><trkpt lat="46.277104733007306" lon="13.100463632015344"><ele>196.25</ele><time>2026-04-12T15:04:29.999Z</time></trkpt><trkpt lat="46.27695653391412" lon="13.10047419746666"><ele>196.5</ele><time>2026-04-12T15:04:30.999Z</time></trkpt><trkpt lat="46.276811300904036" lon="13.100470731448784"><ele>196.75</ele><time>2026-04-12T15:04:31.999Z</time></trkpt><trkpt lat="46.27666925186468" lon="13.100457877895844"><ele>197.0</ele><time>2026-04-12T15:04:32.999Z</time></trkpt><trkpt lat="46.27653300127193" lon="13.100435137372925"><ele>196.33333333333334</ele><time>2026-04-12T15:04:33.999Z</time></trkpt><trkpt lat="46.276385005538074" lon="13.100402213838674"><ele>195.66666666666669</ele><time>2026-04-12T15:04:34.999Z</time></trkpt><trkpt lat="46.27619086208392" lon="13.100341706541425"><ele>195.0</ele><time>2026-04-12T15:04:35.999Z</time></trkpt><trkpt lat="46.27599117311006" lon="13.100244782160951"><ele>195.0</ele><time>2026-04-12T15:04:36.999Z</time></trkpt><trkpt lat="46.27582713288648" lon="13.100150235536185"><ele>195.0</ele><time>2026-04-12T15:04:37.999Z</time></trkpt><trkpt lat="46.27567224460393" lon="13.100046337377101"><ele>195.0</ele><time>2026-04-12T15:04:39Z</time></trkpt><trkpt lat="46.2755146746284" lon="13.099919087047969"><ele>194.33333333333331</ele><time>2026-04-12T15:04:40Z</time></trkpt><trkpt lat="46.275374728778814" lon="13.09977882103609"><ele>193.66666666666666</ele><time>2026-04-12T15:04:41Z</time></trkpt><trkpt lat="46.27524016691579" lon="13.099639387889924"><ele>193.0</ele><time>2026-04-12T15:04:42Z</time></trkpt><trkpt lat="46.27509843997126" lon="13.099488265319156"><ele>193.0</ele><time>2026-04-12T15:04:43Z</time></trkpt><trkpt lat="46.27495362600947" lon="13.099332755837214"><ele>193.0</ele><time>2026-04-12T15:04:44Z</time></trkpt><trkpt lat="46.2748040954586" lon="13.099172181548584"><ele>193.0</ele><time>2026-04-12T15:04:45Z</time></trkpt><trkpt lat="46.27465187421343" lon="13.099008717435773"><ele>192.66666666666666</ele><time>2026-04-12T15:04:46Z</time></trkpt><trkpt lat="46.274497153348726" lon="13.098843995115034"><ele>192.33333333333331</ele><time>2026-04-12T15:04:47Z</time></trkpt><trkpt lat="46.27434733229609" lon="13.098684979257847"><ele>192.0</ele><time>2026-04-12T15:04:48Z</time></trkpt><trkpt lat="46.27420549558806" lon="13.098533190083634"><ele>192.0</ele><time>2026-04-12T15:04:49Z</time></trkpt><trkpt lat="46.27406851677677" lon="13.09838798026225"><ele>192.0</ele><time>2026-04-12T15:04:50Z</time></trkpt><trkpt lat="46.273932317352376" lon="13.09824542528254"><ele>192.0</ele><time>2026-04-12T15:04:51Z</time></trkpt><trkpt lat="46.27379905601948" lon="13.098101120711986"><ele>192.0</ele><time>2026-04-12T15:04:52Z</time></trkpt><trkpt lat="46.27366987374339" lon="13.097962296503002"><ele>192.0</ele><time>2026-04-12T15:04:53Z</time></trkpt><trkpt lat="46.27354212607623" lon="13.097824676194644"><ele>192.0</ele><time>2026-04-12T15:04:54Z</time></trkpt><trkpt lat="46.27341199265966" lon="13.097684485769838"><ele>192.0</ele><time>2026-04-12T15:04:55Z</time></trkpt><trkpt lat="46.27327961457642" lon="13.097542437122213"><ele>192.0</ele><time>2026-04-12T15:04:56Z</time></trkpt><trkpt lat="46.273146582369996" lon="13.09740089713924"><ele>192.0</ele><time>2026-04-12T15:04:57Z</time></trkpt><trkpt lat="46.273012358146495" lon="13.097258088903784"><ele>191.66666666666666</ele><time>2026-04-12T15:04:58Z</time></trkpt><trkpt lat="46.27287795649022" lon="13.097115091889604"><ele>191.33333333333331</ele><time>2026-04-12T15:04:59Z</time></trkpt><trkpt lat="46.27274069660733" lon="13.096969053857835"><ele>191.0</ele><time>2026-04-12T15:05:00Z</time></trkpt><trkpt lat="46.27260216632144" lon="13.096821664171438"><ele>191.0</ele><time>2026-04-12T15:05:01Z</time></trkpt><trkpt lat="46.27246513627368" lon="13.096675870491207"><ele>191.0</ele><time>2026-04-12T15:05:02Z</time></trkpt><trkpt lat="46.272323480950966" lon="13.09652493092046"><ele>191.0</ele><time>2026-04-12T15:05:03Z</time></trkpt><trkpt lat="46.27218100391027" lon="13.09637313152782"><ele>191.66666666666666</ele><time>2026-04-12T15:05:04Z</time></trkpt><trkpt lat="46.272037999508484" lon="13.096220770860615"><ele>192.33333333333331</ele><time>2026-04-12T15:05:05Z</time></trkpt><trkpt lat="46.271893666326505" lon="13.096066994472762"><ele>193.0</ele><time>2026-04-12T15:05:06Z</time></trkpt><trkpt lat="46.27174928665321" lon="13.095913438339537"><ele>193.0</ele><time>2026-04-12T15:05:07Z</time></trkpt><trkpt lat="46.271605259192356" lon="13.09576038338648"><ele>193.0</ele><time>2026-04-12T15:05:08Z</time></trkpt><trkpt lat="46.27146154633791" lon="13.095607405860253"><ele>193.0</ele><time>2026-04-12T15:05:09Z</time></trkpt><trkpt lat="46.271317685830496" lon="13.095454057561554"><ele>192.66666666666666</ele><time>2026-04-12T15:05:10Z</time></trkpt><trkpt lat="46.27117358776538" lon="13.095300542205146"><ele>192.33333333333331</ele><time>2026-04-12T15:05:11Z</time></trkpt><trkpt lat="46.27102992550102" lon="13.095147467161995"><ele>192.0</ele><time>2026-04-12T15:05:12Z</time></trkpt><trkpt lat="46.27088581882593" lon="13.094993744883466"><ele>191.66666666666666</ele><time>2026-04-12T15:05:13Z</time></trkpt><trkpt lat="46.270741702462026" lon="13.094839367152513"><ele>191.33333333333331</ele><time>2026-04-12T15:05:14Z</time></trkpt><trkpt lat="46.270596753278866" lon="13.094683568736283"><ele>191.0</ele><time>2026-04-12T15:05:15Z</time></trkpt><trkpt lat="46.2704507234151" lon="13.094526608747996"><ele>190.66666666666666</ele><time>2026-04-12T15:05:16Z</time></trkpt><trkpt lat="46.27028499561129" lon="13.094402872293017"><ele>190.33333333333334</ele><time>2026-04-12T15:05:17Z</time></trkpt><trkpt lat="46.27013510256045" lon="13.094244515981574"><ele>190.0</ele><time>2026-04-12T15:05:18Z</time></trkpt><trkpt lat="46.26998687953522" lon="13.094081786768035"><ele>189.66666666666669</ele><time>2026-04-12T15:05:19Z</time></trkpt><trkpt lat="46.269838347396956" lon="13.093921153163471"><ele>189.33333333333334</ele><time>2026-04-12T15:05:20Z</time></trkpt><trkpt lat="46.269699086904104" lon="13.093723098058904"><ele>189.0</ele><time>2026-04-12T15:05:21Z</time></trkpt><trkpt lat="46.269544633736004" lon="13.093542145787097"><ele>189.0</ele><time>2026-04-12T15:05:22Z</time></trkpt><trkpt lat="46.26938625175674" lon="13.093351195039379"><ele>189.0</ele><time>2026-04-12T15:05:23Z</time></trkpt><trkpt lat="46.269228923057945" lon="13.093161514159311"><ele>189.0</ele><time>2026-04-12T15:05:23.999Z</time></trkpt><trkpt lat="46.26907986372672" lon="13.092981803111847"><ele>189.0</ele><time>2026-04-12T15:05:24.999Z</time></trkpt><trkpt lat="46.26894078732206" lon="13.092812903419421"><ele>189.0</ele><time>2026-04-12T15:05:25.999Z</time></trkpt><trkpt lat="46.26880874338362" lon="13.092652227795803"><ele>189.0</ele><time>2026-04-12T15:05:26.999Z</time></trkpt><trkpt lat="46.268678322904" lon="13.09249358102097"><ele>188.66666666666666</ele><time>2026-04-12T15:05:27.999Z</time></trkpt><trkpt lat="46.268551547291615" lon="13.09234076202248"><ele>188.33333333333331</ele><time>2026-04-12T15:05:28.999Z</time></trkpt><trkpt lat="46.268426155619395" lon="13.092189611221409"><ele>188.0</ele><time>2026-04-12T15:05:29.999Z</time></trkpt><trkpt lat="46.268302646111216" lon="13.092039396409817"><ele>188.0</ele><time>2026-04-12T15:05:30.999Z</time></trkpt><trkpt lat="46.268178388541465" lon="13.091888075795918"><ele>188.0</ele><time>2026-04-12T15:05:31.999Z</time></trkpt><trkpt lat="46.26805530876514" lon="13.09173818950776"><ele>188.0</ele><time>2026-04-12T15:05:32.999Z</time></trkpt><trkpt lat="46.267931528245164" lon="13.09158744984689"><ele>188.33333333333331</ele><time>2026-04-12T15:05:33.999Z</time></trkpt><trkpt lat="46.26781082311366" lon="13.091440455396832"><ele>188.66666666666666</ele><time>2026-04-12T15:05:34.999Z</time></trkpt><trkpt lat="46.26769066189939" lon="13.091294350218039"><ele>189.0</ele><time>2026-04-12T15:05:35.999Z</time></trkpt><trkpt lat="46.267568408277235" lon="13.09114595865284"><ele>189.0</ele><time>2026-04-12T15:05:36.999Z</time></trkpt><trkpt lat="46.26744542513079" lon="13.090996681190934"><ele>189.0</ele><time>2026-04-12T15:05:37.999Z</time></trkpt><trkpt lat="46.26731336987711" lon="13.090835338139911"><ele>189.0</ele><time>2026-04-12T15:05:38.999Z</time></trkpt><trkpt lat="46.267180078048966" lon="13.090672715918387"><ele>189.33333333333334</ele><time>2026-04-12T15:05:39.999Z</time></trkpt><trkpt lat="46.26706022559305" lon="13.090530630653609"><ele>189.66666666666669</ele><time>2026-04-12T15:05:40.999Z</time></trkpt><trkpt lat="46.266937125208926" lon="13.090389134158785"><ele>190.0</ele><time>2026-04-12T15:05:41.999Z</time></trkpt><trkpt lat="46.26680769363477" lon="13.09024375807123"><ele>190.0</ele><time>2026-04-12T15:05:42.999Z</time></trkpt><trkpt lat="46.26666400545359" lon="13.090104684321277"><ele>190.0</ele><time>2026-04-12T15:05:43.999Z</time></trkpt><trkpt lat="46.26651306752595" lon="13.089974899454173"><ele>190.0</ele><time>2026-04-12T15:05:44.999Z</time></trkpt><trkpt lat="46.266360229285304" lon="13.089858785619988"><ele>188.33333333333334</ele><time>2026-04-12T15:05:45.999Z</time></trkpt><trkpt lat="46.26620329982818" lon="13.089759332974534"><ele>186.66666666666666</ele><time>2026-04-12T15:05:46.999Z</time></trkpt><trkpt lat="46.26604283907513" lon="13.089684630042138"><ele>185.0</ele><time>2026-04-12T15:05:47.999Z</time></trkpt><trkpt lat="46.26587750223576" lon="13.08962092526272"><ele>185.0</ele><time>2026-04-12T15:05:48.999Z</time></trkpt><trkpt lat="46.26571111723461" lon="13.089562874241029"><ele>185.0</ele><time>2026-04-12T15:05:49.999Z</time></trkpt><trkpt lat="46.265541603082845" lon="13.089508310689116"><ele>185.0</ele><time>2026-04-12T15:05:50.999Z</time></trkpt><trkpt lat="46.265371236892726" lon="13.089455889549072"><ele>185.33333333333331</ele><time>2026-04-12T15:05:51.999Z</time></trkpt><trkpt lat="46.26520210494704" lon="13.089404854535289"><ele>185.66666666666666</ele><time>2026-04-12T15:05:52.999Z</time></trkpt><trkpt lat="46.26503448780761" lon="13.089354276616081"><ele>186.0</ele><time>2026-04-12T15:05:53.999Z</time></trkpt><trkpt lat="46.26487025147969" lon="13.089304360234557"><ele>185.66666666666666</ele><time>2026-04-12T15:05:54.999Z</time></trkpt><trkpt lat="46.264714726091405" lon="13.089256280656715"><ele>185.33333333333331</ele><time>2026-04-12T15:05:55.999Z</time></trkpt><trkpt lat="46.26456296194834" lon="13.089209361819616"><ele>185.0</ele><time>2026-04-12T15:05:56.999Z</time></trkpt><trkpt lat="46.264410639986046" lon="13.089162547489058"><ele>185.0</ele><time>2026-04-12T15:05:57.999Z</time></trkpt><trkpt lat="46.2642546058597" lon="13.089115539661643"><ele>185.0</ele><time>2026-04-12T15:05:58.999Z</time></trkpt><trkpt lat="46.264092688081455" lon="13.089066759289132"><ele>185.0</ele><time>2026-04-12T15:05:59.999Z</time></trkpt><trkpt lat="46.26392590243637" lon="13.08901632731081"><ele>185.66666666666666</ele><time>2026-04-12T15:06:00.999Z</time></trkpt><trkpt lat="46.263756430419186" lon="13.08896423373623"><ele>186.33333333333334</ele><time>2026-04-12T15:06:01.999Z</time></trkpt><trkpt lat="46.26358345994831" lon="13.088911209107057"><ele>187.0</ele><time>2026-04-12T15:06:02.999Z</time></trkpt><trkpt lat="46.263409893532966" lon="13.088859181775923"><ele>187.0</ele><time>2026-04-12T15:06:03.999Z</time></trkpt><trkpt lat="46.263237073937916" lon="13.088806565814659"><ele>187.0</ele><time>2026-04-12T15:06:04.999Z</time></trkpt><trkpt lat="46.2630671509682" lon="13.088753485600758"><ele>187.0</ele><time>2026-04-12T15:06:05.999Z</time></trkpt><trkpt lat="46.26290523295525" lon="13.08870290594263"><ele>188.0</ele><time>2026-04-12T15:06:06.999Z</time></trkpt><trkpt lat="46.26274724253358" lon="13.088653553212145"><ele>189.0</ele><time>2026-04-12T15:06:07.999Z</time></trkpt><trkpt lat="46.2625914632269" lon="13.088604891161728"><ele>190.0</ele><time>2026-04-12T15:06:08.999Z</time></trkpt><trkpt lat="46.26243326828641" lon="13.088555496314392"><ele>189.33333333333334</ele><time>2026-04-12T15:06:09.999Z</time></trkpt><trkpt lat="46.2622701002888" lon="13.08850622022203"><ele>188.66666666666666</ele><time>2026-04-12T15:06:10.999Z</time></trkpt><trkpt lat="46.262102711396274" lon="13.088455486273316"><ele>188.0</ele><time>2026-04-12T15:06:11.999Z</time></trkpt><trkpt lat="46.26193062283429" lon="13.088402086607609"><ele>188.0</ele><time>2026-04-12T15:06:12.999Z</time></trkpt><trkpt lat="46.26175579411641" lon="13.088347836455522"><ele>188.0</ele><time>2026-04-12T15:06:13.999Z</time></trkpt><trkpt lat="46.26158233469991" lon="13.088292907344348"><ele>188.0</ele><time>2026-04-12T15:06:14.999Z</time></trkpt><trkpt lat="46.26140980743825" lon="13.088241114905143"><ele>188.33333333333331</ele><time>2026-04-12T15:06:15.999Z</time></trkpt><trkpt lat="46.26123800449591" lon="13.088186200097109"><ele>188.66666666666666</ele><time>2026-04-12T15:06:16.999Z</time></trkpt><trkpt lat="46.261068718067946" lon="13.088132004774481"><ele>189.0</ele><time>2026-04-12T15:06:17.999Z</time></trkpt><trkpt lat="46.26090427019407" lon="13.08808249669163"><ele>189.0</ele><time>2026-04-12T15:06:18.999Z</time></trkpt><trkpt lat="46.26075633273576" lon="13.0880382467744"><ele>189.0</ele><time>2026-04-12T15:06:19.999Z</time></trkpt><trkpt lat="46.26061707167679" lon="13.08799471500304"><ele>189.0</ele><time>2026-04-12T15:06:20.999Z</time></trkpt><trkpt lat="46.260475937330064" lon="13.087948928743655"><ele>189.0</ele><time>2026-04-12T15:06:21.999Z</time></trkpt><trkpt lat="46.26033531778369" lon="13.087907430158742"><ele>188.5</ele><time>2026-04-12T15:06:22.999Z</time></trkpt><trkpt lat="46.26020265261347" lon="13.0878675730724"><ele>188.0</ele><time>2026-04-12T15:06:23.999Z</time></trkpt><trkpt lat="46.2600731381877" lon="13.087850927043572"><ele>187.5</ele><time>2026-04-12T15:06:24.999Z</time></trkpt><trkpt lat="46.25994568040807" lon="13.08780868572039"><ele>187.0</ele><time>2026-04-12T15:06:25.999Z</time></trkpt><trkpt lat="46.25981807106704" lon="13.087763521936939"><ele>186.75</ele><time>2026-04-12T15:06:26.999Z</time></trkpt><trkpt lat="46.25969036000354" lon="13.087711345108026"><ele>186.5</ele><time>2026-04-12T15:06:27.999Z</time></trkpt><trkpt lat="46.25955742494922" lon="13.087642886298609"><ele>186.25</ele><time>2026-04-12T15:06:28.999Z</time></trkpt><trkpt lat="46.25942951273256" lon="13.087537467780024"><ele>186.0</ele><time>2026-04-12T15:06:29.999Z</time></trkpt><trkpt lat="46.25928651609584" lon="13.087458690800874"><ele>185.66666666666666</ele><time>2026-04-12T15:06:30.999Z</time></trkpt><trkpt lat="46.25915085923328" lon="13.087338057405294"><ele>185.33333333333331</ele><time>2026-04-12T15:06:31.999Z</time></trkpt><trkpt lat="46.25901895693135" lon="13.087204212992308"><ele>185.0</ele><time>2026-04-12T15:06:32.999Z</time></trkpt><trkpt lat="46.25889257323805" lon="13.08706449837603"><ele>185.5</ele><time>2026-04-12T15:06:33.999Z</time></trkpt><trkpt lat="46.258794532334036" lon="13.086920404750144"><ele>186.0</ele><time>2026-04-12T15:06:34.999Z</time></trkpt><trkpt lat="46.258697053742615" lon="13.086805670185749"><ele>186.5</ele><time>2026-04-12T15:06:35.999Z</time></trkpt><trkpt lat="46.25860760813561" lon="13.086701985312706"><ele>187.0</ele><time>2026-04-12T15:06:36.999Z</time></trkpt><trkpt lat="46.25852511310779" lon="13.086606356889112"><ele>186.8</ele><time>2026-04-12T15:06:37.999Z</time></trkpt><trkpt lat="46.258446539442986" lon="13.086513572376212"><ele>186.6</ele><time>2026-04-12T15:06:38.999Z</time></trkpt><trkpt lat="46.258360595146485" lon="13.086443078867966"><ele>186.4</ele><time>2026-04-12T15:06:39.999Z</time></trkpt><trkpt lat="46.258301171254075" lon="13.086342635987663"><ele>186.20000000000002</ele><time>2026-04-12T15:06:40.999Z</time></trkpt><trkpt lat="46.25823037319257" lon="13.086259385507047"><ele>186.0</ele><time>2026-04-12T15:06:41.999Z</time></trkpt><trkpt lat="46.25816015242417" lon="13.086176813888233"><ele>186.0</ele><time>2026-04-12T15:06:42.999Z</time></trkpt><trkpt lat="46.25809242603154" lon="13.086097528411697"><ele>186.0</ele><time>2026-04-12T15:06:43.999Z</time></trkpt><trkpt lat="46.25803121717256" lon="13.086026112841296"><ele>186.0</ele><time>2026-04-12T15:06:45Z</time></trkpt><trkpt lat="46.25796497902118" lon="13.085982451091086"><ele>186.0</ele><time>2026-04-12T15:06:46Z</time></trkpt><trkpt lat="46.257914775501646" lon="13.085925449513821"><ele>186.0</ele><time>2026-04-12T15:06:47Z</time></trkpt><trkpt lat="46.257832617010585" lon="13.085827812512395"><ele>186.0</ele><time>2026-04-12T15:06:49Z</time></trkpt><trkpt lat="46.257755381988424" lon="13.085740516732496"><ele>185.66666666666666</ele><time>2026-04-12T15:06:51Z</time></trkpt><trkpt lat="46.257705109512614" lon="13.085680872243474"><ele>185.33333333333334</ele><time>2026-04-12T15:06:53Z</time></trkpt><trkpt lat="46.25764809376371" lon="13.085581934612193"><ele>185.0</ele><time>2026-04-12T15:06:57Z</time></trkpt><trkpt lat="46.25761287443803" lon="13.085411096179445"><ele>184.66666666666669</ele><time>2026-04-12T15:06:59Z</time></trkpt><trkpt lat="46.25757369360292" lon="13.085336230352839"><ele>184.33333333333334</ele><time>2026-04-12T15:07:00Z</time></trkpt><trkpt lat="46.2574779066196" lon="13.085271718980668"><ele>184.0</ele><time>2026-04-12T15:07:02Z</time></trkpt><trkpt lat="46.25736635991894" lon="13.085300536994872"><ele>184.2</ele><time>2026-04-12T15:07:04Z</time></trkpt><trkpt lat="46.25724729223225" lon="13.085289763504232"><ele>184.39999999999998</ele><time>2026-04-12T15:07:06Z</time></trkpt><trkpt lat="46.25719727810567" lon="13.085206691593676"><ele>184.6</ele><time>2026-04-12T15:07:07Z</time></trkpt><trkpt lat="46.25712762892412" lon="13.08513958877242"><ele>184.8</ele><time>2026-04-12T15:07:08Z</time></trkpt><trkpt lat="46.257076618804476" lon="13.085034058452102"><ele>185.0</ele><time>2026-04-12T15:07:09Z</time></trkpt><trkpt lat="46.25701796848841" lon="13.084918063588225"><ele>185.2</ele><time>2026-04-12T15:07:10Z</time></trkpt><trkpt lat="46.256956854085345" lon="13.084803858017112"><ele>185.4</ele><time>2026-04-12T15:07:11Z</time></trkpt><trkpt lat="46.25689667788466" lon="13.084690714746404"><ele>185.60000000000002</ele><time>2026-04-12T15:07:12Z</time></trkpt><trkpt lat="46.256838786677086" lon="13.084571668175723"><ele>185.8</ele><time>2026-04-12T15:07:13Z</time></trkpt><trkpt lat="46.25677872207581" lon="13.084456242702078"><ele>186.0</ele><time>2026-04-12T15:07:14Z</time></trkpt><trkpt lat="46.25671735687034" lon="13.084334298758588"><ele>186.0</ele><time>2026-04-12T15:07:15Z</time></trkpt><trkpt lat="46.25664670264576" lon="13.08420196240915"><ele>186.0</ele><time>2026-04-12T15:07:16Z</time></trkpt><trkpt lat="46.256571484103574" lon="13.084053618020288"><ele>186.0</ele><time>2026-04-12T15:07:17Z</time></trkpt><trkpt lat="46.25649635417104" lon="13.08390949634974"><ele>186.0</ele><time>2026-04-12T15:07:18Z</time></trkpt><trkpt lat="46.25642485282027" lon="13.083778820820763"><ele>186.0</ele><time>2026-04-12T15:07:19Z</time></trkpt><trkpt lat="46.256362361969785" lon="13.08365791999706"><ele>186.0</ele><time>2026-04-12T15:07:20Z</time></trkpt><trkpt lat="46.25630570271162" lon="13.083551968548964"><ele>186.0</ele><time>2026-04-12T15:07:21Z</time></trkpt><trkpt lat="46.256254207824064" lon="13.083454472552964"><ele>186.0</ele><time>2026-04-12T15:07:22Z</time></trkpt><trkpt lat="46.25620850760318" lon="13.08336374685911"><ele>186.0</ele><time>2026-04-12T15:07:23Z</time></trkpt><trkpt lat="46.25616575325895" lon="13.08328388360773"><ele>186.0</ele><time>2026-04-12T15:07:24Z</time></trkpt><trkpt lat="46.2561272890104" lon="13.083210409828283"><ele>185.60000000000002</ele><time>2026-04-12T15:07:25Z</time></trkpt><trkpt lat="46.25605196171282" lon="13.083090831542101"><ele>185.2</ele><time>2026-04-12T15:07:27Z</time></trkpt><trkpt lat="46.25600010729954" lon="13.082987211450575"><ele>184.8</ele><time>2026-04-12T15:07:29Z</time></trkpt><trkpt lat="46.25595332372043" lon="13.08292350329765"><ele>184.39999999999998</ele><time>2026-04-12T15:07:30.999Z</time></trkpt><trkpt lat="46.25587446506212" lon="13.08286476987926"><ele>184.0</ele><time>2026-04-12T15:07:47.999Z</time></trkpt><trkpt lat="46.255792484373266" lon="13.082752533081033"><ele>184.0</ele><time>2026-04-12T15:07:49.999Z</time></trkpt><trkpt lat="46.25567743730096" lon="13.082935591390294"><ele>184.0</ele><time>2026-04-12T15:07:51.999Z</time></trkpt><trkpt lat="46.25560864994824" lon="13.08307507976723"><ele>184.0</ele><time>2026-04-12T15:07:53.999Z</time></trkpt><trkpt lat="46.255564057191" lon="13.083165642599337"><ele>184.0</ele><time>2026-04-12T15:07:54.999Z</time></trkpt><trkpt lat="46.25551440490209" lon="13.08326648068527"><ele>184.2</ele><time>2026-04-12T15:07:55.999Z</time></trkpt><trkpt lat="46.255472457195594" lon="13.083390431052619"><ele>184.39999999999998</ele><time>2026-04-12T15:07:56.999Z</time></trkpt><trkpt lat="46.255404065064816" lon="13.083487946997026"><ele>184.6</ele><time>2026-04-12T15:07:57.999Z</time></trkpt><trkpt lat="46.25536470408423" lon="13.083599535633445"><ele>184.8</ele><time>2026-04-12T15:07:58.999Z</time></trkpt><trkpt lat="46.25530679706547" lon="13.083705092055748"><ele>185.0</ele><time>2026-04-12T15:07:59.999Z</time></trkpt><trkpt lat="46.25524218253365" lon="13.08379001409866"><ele>185.0</ele><time>2026-04-12T15:08:00.999Z</time></trkpt><trkpt lat="46.25519472703959" lon="13.08389538327649"><ele>185.0</ele><time>2026-04-12T15:08:01.999Z</time></trkpt><trkpt lat="46.25517268690513" lon="13.084032150437777"><ele>185.0</ele><time>2026-04-12T15:08:02.999Z</time></trkpt><trkpt lat="46.25514601429456" lon="13.084168702879671"><ele>185.0</ele><time>2026-04-12T15:08:03.999Z</time></trkpt><trkpt lat="46.25510580675549" lon="13.0843061627593"><ele>185.0</ele><time>2026-04-12T15:08:04.999Z</time></trkpt><trkpt lat="46.25507997250553" lon="13.084457437883591"><ele>184.8</ele><time>2026-04-12T15:08:05.999Z</time></trkpt><trkpt lat="46.25505406304031" lon="13.08460978961666"><ele>184.6</ele><time>2026-04-12T15:08:06.999Z</time></trkpt><trkpt lat="46.25503058828884" lon="13.084748702773158"><ele>184.39999999999998</ele><time>2026-04-12T15:08:07.999Z</time></trkpt><trkpt lat="46.25500789482009" lon="13.084885339903968"><ele>184.2</ele><time>2026-04-12T15:08:08.999Z</time></trkpt><trkpt lat="46.25498480105004" lon="13.08502158996311"><ele>184.0</ele><time>2026-04-12T15:08:09.999Z</time></trkpt><trkpt lat="46.25496118152986" lon="13.085159058680004"><ele>183.83333333333334</ele><time>2026-04-12T15:08:10.999Z</time></trkpt><trkpt lat="46.25493782192666" lon="13.085289969974042"><ele>183.66666666666669</ele><time>2026-04-12T15:08:11.999Z</time></trkpt><trkpt lat="46.25491650970241" lon="13.085407690838132"><ele>183.5</ele><time>2026-04-12T15:08:12.999Z</time></trkpt><trkpt lat="46.25489495420077" lon="13.085523903974858"><ele>183.33333333333334</ele><time>2026-04-12T15:08:13.999Z</time></trkpt><trkpt lat="46.25487638205998" lon="13.085624032465994"><ele>183.16666666666666</ele><time>2026-04-12T15:08:14.999Z</time></trkpt><trkpt lat="46.25485844417142" lon="13.085720742118108"><ele>183.0</ele><time>2026-04-12T15:08:15.999Z</time></trkpt><trkpt lat="46.25484028755026" lon="13.085818630589618"><ele>183.0</ele><time>2026-04-12T15:08:16.999Z</time></trkpt><trkpt lat="46.25483992573617" lon="13.085912422854335"><ele>183.0</ele><time>2026-04-12T15:08:17.999Z</time></trkpt><trkpt lat="46.25477744624663" lon="13.086064547920254"><ele>183.0</ele><time>2026-04-12T15:08:19.999Z</time></trkpt><trkpt lat="46.254672698874735" lon="13.086055439835706"><ele>183.0</ele><time>2026-04-12T15:08:20.999Z</time></trkpt><trkpt lat="46.254571142826926" lon="13.086076885025538"><ele>183.0</ele><time>2026-04-12T15:08:21.999Z</time></trkpt><trkpt lat="46.254458235611686" lon="13.086102766513328"><ele>183.0</ele><time>2026-04-12T15:08:22.999Z</time></trkpt><trkpt lat="46.25432917308804" lon="13.086134703480235"><ele>183.0</ele><time>2026-04-12T15:08:23.999Z</time></trkpt><trkpt lat="46.25419885152365" lon="13.086168312954532"><ele>183.0</ele><time>2026-04-12T15:08:24.999Z</time></trkpt><trkpt lat="46.25407176043977" lon="13.086201089273104"><ele>183.0</ele><time>2026-04-12T15:08:25.999Z</time></trkpt><trkpt lat="46.25394380817954" lon="13.086233927259991"><ele>182.25</ele><time>2026-04-12T15:08:26.999Z</time></trkpt><trkpt lat="46.25382132594496" lon="13.086265089571905"><ele>181.5</ele><time>2026-04-12T15:08:27.999Z</time></trkpt><trkpt lat="46.25370367313312" lon="13.086294276328292"><ele>180.75</ele><time>2026-04-12T15:08:28.999Z</time></trkpt><trkpt lat="46.253582958322326" lon="13.08632314992389"><ele>180.0</ele><time>2026-04-12T15:08:29.999Z</time></trkpt><trkpt lat="46.253466690614864" lon="13.086350959802566"><ele>180.0</ele><time>2026-04-12T15:08:30.999Z</time></trkpt><trkpt lat="46.25334711572266" lon="13.086379560729101"><ele>180.0</ele><time>2026-04-12T15:08:31.999Z</time></trkpt><trkpt lat="46.253225122262364" lon="13.086410797462378"><ele>180.0</ele><time>2026-04-12T15:08:32.999Z</time></trkpt><trkpt lat="46.25311827206153" lon="13.086441924717962"><ele>180.0</ele><time>2026-04-12T15:08:33.999Z</time></trkpt><trkpt lat="46.253027107051764" lon="13.086470670119951"><ele>180.0</ele><time>2026-04-12T15:08:34.999Z</time></trkpt><trkpt lat="46.252942226533655" lon="13.086497927311672"><ele>180.33333333333334</ele><time>2026-04-12T15:08:35.999Z</time></trkpt><trkpt lat="46.252861334250404" lon="13.086525509896328"><ele>180.66666666666666</ele><time>2026-04-12T15:08:36.999Z</time></trkpt><trkpt lat="46.252781235848914" lon="13.086553305964433"><ele>181.0</ele><time>2026-04-12T15:08:37.999Z</time></trkpt><trkpt lat="46.25268854069546" lon="13.08658709067709"><ele>181.33333333333331</ele><time>2026-04-12T15:08:38.999Z</time></trkpt><trkpt lat="46.25260791677692" lon="13.086616475730088"><ele>181.66666666666666</ele><time>2026-04-12T15:08:39.999Z</time></trkpt><trkpt lat="46.25252451987933" lon="13.086646871444152"><ele>182.0</ele><time>2026-04-12T15:08:40.999Z</time></trkpt><trkpt lat="46.252446843751386" lon="13.086675182112636"><ele>182.0</ele><time>2026-04-12T15:08:41.999Z</time></trkpt><trkpt lat="46.25236960467668" lon="13.086703333519507"><ele>182.0</ele><time>2026-04-12T15:08:42.999Z</time></trkpt><trkpt lat="46.252302350055494" lon="13.086727845888335"><ele>182.0</ele><time>2026-04-12T15:08:43.999Z</time></trkpt><trkpt lat="46.252235431929485" lon="13.086752235713073"><ele>182.0</ele><time>2026-04-12T15:08:44.999Z</time></trkpt><trkpt lat="46.25216656543529" lon="13.086777336327472"><ele>182.0</ele><time>2026-04-12T15:08:45.999Z</time></trkpt><trkpt lat="46.252090974055406" lon="13.086804944131154"><ele>182.0</ele><time>2026-04-12T15:08:46.999Z</time></trkpt><trkpt lat="46.25200995811916" lon="13.086834502327639"><ele>181.8</ele><time>2026-04-12T15:08:47.999Z</time></trkpt><trkpt lat="46.25193586155937" lon="13.086861535997704"><ele>181.6</ele><time>2026-04-12T15:08:48.999Z</time></trkpt><trkpt lat="46.251835052502045" lon="13.086897737824842"><ele>181.4</ele><time>2026-04-12T15:08:49.999Z</time></trkpt><trkpt lat="46.251734418689836" lon="13.086933788230196"><ele>181.20000000000002</ele><time>2026-04-12T15:08:51Z</time></trkpt><trkpt lat="46.25163628987982" lon="13.08696894123156"><ele>181.0</ele><time>2026-04-12T15:08:52Z</time></trkpt><trkpt lat="46.25152668720712" lon="13.087008204546732"><ele>180.60000000000002</ele><time>2026-04-12T15:08:53Z</time></trkpt><trkpt lat="46.251416273784116" lon="13.087047758324044"><ele>180.2</ele><time>2026-04-12T15:08:54Z</time></trkpt><trkpt lat="46.25130661365926" lon="13.087087042250886"><ele>179.8</ele><time>2026-04-12T15:08:55Z</time></trkpt><trkpt lat="46.25120868341784" lon="13.087122124104564"><ele>179.39999999999998</ele><time>2026-04-12T15:08:56Z</time></trkpt><trkpt lat="46.25111952482416" lon="13.08715429915605"><ele>179.0</ele><time>2026-04-12T15:08:57Z</time></trkpt><trkpt lat="46.25102559162427" lon="13.08718826811877"><ele>179.0</ele><time>2026-04-12T15:08:58Z</time></trkpt><trkpt lat="46.250930840217364" lon="13.08722253297683"><ele>179.0</ele><time>2026-04-12T15:08:59Z</time></trkpt><trkpt lat="46.250839518788986" lon="13.08725556115615"><ele>179.0</ele><time>2026-04-12T15:09:00Z</time></trkpt><trkpt lat="46.250759272731635" lon="13.087285079164765"><ele>179.0</ele><time>2026-04-12T15:09:01Z</time></trkpt><trkpt lat="46.250673172634784" lon="13.087316750697918"><ele>179.0</ele><time>2026-04-12T15:09:02Z</time></trkpt><trkpt lat="46.25058168966599" lon="13.087353721817495"><ele>179.0</ele><time>2026-04-12T15:09:03Z</time></trkpt><trkpt lat="46.25048870974815" lon="13.087392498210715"><ele>179.0</ele><time>2026-04-12T15:09:04Z</time></trkpt><trkpt lat="46.25038768445531" lon="13.087429639902933"><ele>179.0</ele><time>2026-04-12T15:09:05Z</time></trkpt><trkpt lat="46.2502828425082" lon="13.087465382980609"><ele>179.0</ele><time>2026-04-12T15:09:06Z</time></trkpt><trkpt lat="46.250171655023266" lon="13.087504005956632"><ele>179.0</ele><time>2026-04-12T15:09:07Z</time></trkpt><trkpt lat="46.25005468242023" lon="13.087546037713762"><ele>179.0</ele><time>2026-04-12T15:09:08Z</time></trkpt><trkpt lat="46.249935713943515" lon="13.087588786721524"><ele>179.0</ele><time>2026-04-12T15:09:09Z</time></trkpt><trkpt lat="46.249809362729245" lon="13.087634188498134"><ele>179.0</ele><time>2026-04-12T15:09:10Z</time></trkpt><trkpt lat="46.24967908442947" lon="13.087681001454007"><ele>179.0</ele><time>2026-04-12T15:09:11Z</time></trkpt><trkpt lat="46.249533640068734" lon="13.08773364585586"><ele>178.25</ele><time>2026-04-12T15:09:12Z</time></trkpt><trkpt lat="46.24938645685984" lon="13.08778775559464"><ele>177.5</ele><time>2026-04-12T15:09:13Z</time></trkpt><trkpt lat="46.249246350846185" lon="13.087839263518477"><ele>176.75</ele><time>2026-04-12T15:09:14Z</time></trkpt><trkpt lat="46.24910131849992" lon="13.087892582474627"><ele>176.0</ele><time>2026-04-12T15:09:15Z</time></trkpt><trkpt lat="46.248952936853954" lon="13.087942881204613"><ele>176.0</ele><time>2026-04-12T15:09:16Z</time></trkpt><trkpt lat="46.24880188833939" lon="13.087993758758866"><ele>176.0</ele><time>2026-04-12T15:09:17Z</time></trkpt><trkpt lat="46.24864478929836" lon="13.088046674363397"><ele>176.0</ele><time>2026-04-12T15:09:18Z</time></trkpt><trkpt lat="46.24848479741792" lon="13.088101048280025"><ele>176.0</ele><time>2026-04-12T15:09:19Z</time></trkpt><trkpt lat="46.24834357140834" lon="13.088151394167973"><ele>176.0</ele><time>2026-04-12T15:09:20Z</time></trkpt><trkpt lat="46.248208275577674" lon="13.088199113414941"><ele>176.0</ele><time>2026-04-12T15:09:21Z</time></trkpt><trkpt lat="46.248071331840535" lon="13.088247215468831"><ele>176.0</ele><time>2026-04-12T15:09:22Z</time></trkpt><trkpt lat="46.24793548490286" lon="13.088294932248388"><ele>176.5</ele><time>2026-04-12T15:09:23Z</time></trkpt><trkpt lat="46.24779582744643" lon="13.088343987494703"><ele>177.0</ele><time>2026-04-12T15:09:24Z</time></trkpt><trkpt lat="46.247657308326765" lon="13.08839264287197"><ele>177.5</ele><time>2026-04-12T15:09:25Z</time></trkpt><trkpt lat="46.24752449322163" lon="13.088439294720619"><ele>178.0</ele><time>2026-04-12T15:09:26Z</time></trkpt><trkpt lat="46.24739483250942" lon="13.088485530384133"><ele>177.75</ele><time>2026-04-12T15:09:27Z</time></trkpt><trkpt lat="46.24726797140324" lon="13.088532307833555"><ele>177.5</ele><time>2026-04-12T15:09:28Z</time></trkpt><trkpt lat="46.24714712120138" lon="13.088580435102676"><ele>177.25</ele><time>2026-04-12T15:09:29Z</time></trkpt><trkpt lat="46.247021494946985" lon="13.088644808628926"><ele>177.0</ele><time>2026-04-12T15:09:30Z</time></trkpt><trkpt lat="46.2469013929253" lon="13.088734801529315"><ele>177.0</ele><time>2026-04-12T15:09:31Z</time></trkpt><trkpt lat="46.2467879844826" lon="13.088858338692066"><ele>177.0</ele><time>2026-04-12T15:09:31.999Z</time></trkpt><trkpt lat="46.246679174298464" lon="13.088997929964739"><ele>177.0</ele><time>2026-04-12T15:09:32.999Z</time></trkpt><trkpt lat="46.24655786358739" lon="13.089159395162508"><ele>176.66666666666666</ele><time>2026-04-12T15:09:33.999Z</time></trkpt><trkpt lat="46.24643330046135" lon="13.089329880668789"><ele>176.33333333333331</ele><time>2026-04-12T15:09:34.999Z</time></trkpt><trkpt lat="46.24631222531609" lon="13.089495592267541"><ele>176.0</ele><time>2026-04-12T15:09:35.999Z</time></trkpt><trkpt lat="46.246191793824266" lon="13.089657346814601"><ele>176.0</ele><time>2026-04-12T15:09:36.999Z</time></trkpt><trkpt lat="46.24607286961422" lon="13.089816449517862"><ele>176.0</ele><time>2026-04-12T15:09:37.999Z</time></trkpt><trkpt lat="46.245954931703984" lon="13.089974232705341"><ele>176.0</ele><time>2026-04-12T15:09:38.999Z</time></trkpt><trkpt lat="46.24583863359813" lon="13.090133350139906"><ele>176.0</ele><time>2026-04-12T15:09:39.999Z</time></trkpt><trkpt lat="46.24572413529268" lon="13.09029034001869"><ele>176.0</ele><time>2026-04-12T15:09:40.999Z</time></trkpt><trkpt lat="46.245609615496704" lon="13.090445312327985"><ele>176.0</ele><time>2026-04-12T15:09:41.999Z</time></trkpt><trkpt lat="46.245494472746635" lon="13.090599565794369"><ele>176.0</ele><time>2026-04-12T15:09:42.999Z</time></trkpt><trkpt lat="46.245380559104824" lon="13.090752171182103"><ele>176.0</ele><time>2026-04-12T15:09:43.999Z</time></trkpt><trkpt lat="46.245266189403594" lon="13.090905387495157"><ele>176.0</ele><time>2026-04-12T15:09:44.999Z</time></trkpt><trkpt lat="46.24515309071901" lon="13.09105690112289"><ele>176.0</ele><time>2026-04-12T15:09:45.999Z</time></trkpt><trkpt lat="46.24504145133264" lon="13.09120758798973"><ele>176.0</ele><time>2026-04-12T15:09:46.999Z</time></trkpt><trkpt lat="46.24493442933576" lon="13.091363803485935"><ele>176.0</ele><time>2026-04-12T15:09:47.999Z</time></trkpt><trkpt lat="46.24483155241868" lon="13.091521670736778"><ele>176.0</ele><time>2026-04-12T15:09:48.999Z</time></trkpt><trkpt lat="46.24473249812957" lon="13.091680641404782"><ele>176.0</ele><time>2026-04-12T15:09:49.999Z</time></trkpt><trkpt lat="46.244647092491796" lon="13.091851721578319"><ele>176.0</ele><time>2026-04-12T15:09:50.999Z</time></trkpt><trkpt lat="46.24455261530437" lon="13.092010496477277"><ele>176.0</ele><time>2026-04-12T15:09:51.999Z</time></trkpt><trkpt lat="46.24445827972821" lon="13.09217359148843"><ele>176.0</ele><time>2026-04-12T15:09:52.999Z</time></trkpt><trkpt lat="46.244365426133704" lon="13.09232805403537"><ele>176.0</ele><time>2026-04-12T15:09:53.999Z</time></trkpt><trkpt lat="46.24427613659875" lon="13.092477655942373"><ele>176.0</ele><time>2026-04-12T15:09:54.999Z</time></trkpt><trkpt lat="46.24418278320932" lon="13.092622006674532"><ele>176.0</ele><time>2026-04-12T15:09:55.999Z</time></trkpt><trkpt lat="46.24410005440137" lon="13.09278255007604"><ele>176.0</ele><time>2026-04-12T15:09:56.999Z</time></trkpt><trkpt lat="46.24401066195501" lon="13.09293478664761"><ele>176.0</ele><time>2026-04-12T15:09:57.999Z</time></trkpt><trkpt lat="46.24392024101489" lon="13.09308789739512"><ele>176.0</ele><time>2026-04-12T15:09:58.999Z</time></trkpt><trkpt lat="46.24382822297217" lon="13.093242485997514"><ele>176.0</ele><time>2026-04-12T15:09:59.999Z</time></trkpt><trkpt lat="46.243743397856306" lon="13.093385445733979"><ele>176.20000000000002</ele><time>2026-04-12T15:10:00.999Z</time></trkpt><trkpt lat="46.24367466454991" lon="13.093507484959096"><ele>176.4</ele><time>2026-04-12T15:10:01.999Z</time></trkpt><trkpt lat="46.243614342574254" lon="13.093610205658795"><ele>176.6</ele><time>2026-04-12T15:10:02.999Z</time></trkpt><trkpt lat="46.24355258676338" lon="13.093708984183959"><ele>176.8</ele><time>2026-04-12T15:10:03.999Z</time></trkpt><trkpt lat="46.2434939600325" lon="13.093806914384025"><ele>177.0</ele><time>2026-04-12T15:10:04.999Z</time></trkpt><trkpt lat="46.24344139277045" lon="13.093895452391628"><ele>177.0</ele><time>2026-04-12T15:10:05.999Z</time></trkpt><trkpt lat="46.243396008399664" lon="13.093969639111048"><ele>177.0</ele><time>2026-04-12T15:10:06.999Z</time></trkpt><trkpt lat="46.24333165027512" lon="13.094074749221853"><ele>177.0</ele><time>2026-04-12T15:10:08.999Z</time></trkpt><trkpt lat="46.24328406194238" lon="13.094153065382683"><ele>177.0</ele><time>2026-04-12T15:10:10.999Z</time></trkpt><trkpt lat="46.24323680647872" lon="13.094224969338786"><ele>177.0</ele><time>2026-04-12T15:10:13.999Z</time></trkpt><trkpt lat="46.24314638267191" lon="13.094305697050084"><ele>177.0</ele><time>2026-04-12T15:10:25.999Z</time></trkpt><trkpt lat="46.243072817517564" lon="13.094303526499846"><ele>176.6</ele><time>2026-04-12T15:10:26.999Z</time></trkpt><trkpt lat="46.24298607044815" lon="13.094298313133994"><ele>176.2</ele><time>2026-04-12T15:10:27.999Z</time></trkpt><trkpt lat="46.24288077314619" lon="13.094286352407288"><ele>175.8</ele><time>2026-04-12T15:10:28.999Z</time></trkpt><trkpt lat="46.2427700555353" lon="13.094266028076081"><ele>175.4</ele><time>2026-04-12T15:10:29.999Z</time></trkpt><trkpt lat="46.24266864807201" lon="13.094222019799858"><ele>175.0</ele><time>2026-04-12T15:10:30.999Z</time></trkpt><trkpt lat="46.24256287259642" lon="13.09422319502871"><ele>175.0</ele><time>2026-04-12T15:10:31.999Z</time></trkpt><trkpt lat="46.24245793185263" lon="13.094176965334977"><ele>175.0</ele><time>2026-04-12T15:10:32.999Z</time></trkpt><trkpt lat="46.24234336578052" lon="13.094153121747723"><ele>175.0</ele><time>2026-04-12T15:10:33.999Z</time></trkpt><trkpt lat="46.242224981494324" lon="13.094128665311212"><ele>175.0</ele><time>2026-04-12T15:10:34.999Z</time></trkpt><trkpt lat="46.242102387125136" lon="13.094103339130486"><ele>175.5</ele><time>2026-04-12T15:10:35.999Z</time></trkpt><trkpt lat="46.24197375807885" lon="13.094078225831765"><ele>176.0</ele><time>2026-04-12T15:10:36.999Z</time></trkpt><trkpt lat="46.24183964530078" lon="13.09405287553753"><ele>176.5</ele><time>2026-04-12T15:10:37.999Z</time></trkpt><trkpt lat="46.241699325072304" lon="13.09402635190049"><ele>177.0</ele><time>2026-04-12T15:10:38.999Z</time></trkpt><trkpt lat="46.24155924123569" lon="13.093999872923112"><ele>176.0</ele><time>2026-04-12T15:10:39.999Z</time></trkpt><trkpt lat="46.24141193988868" lon="13.0939720296765"><ele>175.0</ele><time>2026-04-12T15:10:40.999Z</time></trkpt><trkpt lat="46.24126123244928" lon="13.093943542629459"><ele>174.0</ele><time>2026-04-12T15:10:41.999Z</time></trkpt><trkpt lat="46.241103765098096" lon="13.093912384754097"><ele>174.0</ele><time>2026-04-12T15:10:42.999Z</time></trkpt><trkpt lat="46.240944698435314" lon="13.09387978264445"><ele>174.0</ele><time>2026-04-12T15:10:43.999Z</time></trkpt><trkpt lat="46.24079281195779" lon="13.093845848204566"><ele>174.0</ele><time>2026-04-12T15:10:44.999Z</time></trkpt><trkpt lat="46.240644319113926" lon="13.093812657820846"><ele>173.0</ele><time>2026-04-12T15:10:45.999Z</time></trkpt><trkpt lat="46.24049516324116" lon="13.093777139757702"><ele>172.0</ele><time>2026-04-12T15:10:46.999Z</time></trkpt><trkpt lat="46.240346634773864" lon="13.093741768994452"><ele>171.0</ele><time>2026-04-12T15:10:47.999Z</time></trkpt><trkpt lat="46.240191962526275" lon="13.093703256487178"><ele>171.0</ele><time>2026-04-12T15:10:48.999Z</time></trkpt><trkpt lat="46.240034070270426" lon="13.093663922455509"><ele>171.0</ele><time>2026-04-12T15:10:49.999Z</time></trkpt><trkpt lat="46.23987557870187" lon="13.093624439114505"><ele>171.0</ele><time>2026-04-12T15:10:50.999Z</time></trkpt><trkpt lat="46.23970744648726" lon="13.093582554144149"><ele>172.33333333333334</ele><time>2026-04-12T15:10:51.999Z</time></trkpt><trkpt lat="46.23952819164149" lon="13.093537898229119"><ele>173.66666666666669</ele><time>2026-04-12T15:10:52.999Z</time></trkpt><trkpt lat="46.239333490881755" lon="13.09348906440374"><ele>175.0</ele><time>2026-04-12T15:10:53.999Z</time></trkpt><trkpt lat="46.23911398982095" lon="13.09343341092327"><ele>173.5</ele><time>2026-04-12T15:10:54.999Z</time></trkpt><trkpt lat="46.23889015448312" lon="13.093376658530934"><ele>172.0</ele><time>2026-04-12T15:10:55.999Z</time></trkpt><trkpt lat="46.23866380234388" lon="13.093318371194684"><ele>172.0</ele><time>2026-04-12T15:10:57Z</time></trkpt><trkpt lat="46.238431637790406" lon="13.09325760960911"><ele>172.0</ele><time>2026-04-12T15:10:58Z</time></trkpt><trkpt lat="46.238197682282006" lon="13.09319637927997"><ele>172.0</ele><time>2026-04-12T15:10:59Z</time></trkpt><trkpt lat="46.23796564394694" lon="13.09313565073103"><ele>172.0</ele><time>2026-04-12T15:11:00Z</time></trkpt><trkpt lat="46.237733080294284" lon="13.093074784680422"><ele>172.0</ele><time>2026-04-12T15:11:01Z</time></trkpt><trkpt lat="46.237499536576095" lon="13.093014067500446"><ele>172.0</ele><time>2026-04-12T15:11:02Z</time></trkpt><trkpt lat="46.23725140421744" lon="13.092950691082715"><ele>171.5</ele><time>2026-04-12T15:11:03Z</time></trkpt><trkpt lat="46.23693283168952" lon="13.09286932325881"><ele>171.0</ele><time>2026-04-12T15:11:04Z</time></trkpt><trkpt lat="46.236563324594435" lon="13.092774946036014"><ele>170.0</ele><time>2026-04-12T15:11:05Z</time></trkpt><trkpt lat="46.23617403404972" lon="13.092669716513994"><ele>169.0</ele><time>2026-04-12T15:11:06Z</time></trkpt><trkpt lat="46.235836365845444" lon="13.092578336336782"><ele>169.0</ele><time>2026-04-12T15:11:07Z</time></trkpt><trkpt lat="46.23554617888029" lon="13.092501907564246"><ele>169.0</ele><time>2026-04-12T15:11:08Z</time></trkpt><trkpt lat="46.235296253182355" lon="13.092438388239119"><ele>169.0</ele><time>2026-04-12T15:11:09Z</time></trkpt><trkpt lat="46.235063540814586" lon="13.092379243686867"><ele>169.0</ele><time>2026-04-12T15:11:10Z</time></trkpt><trkpt lat="46.23485032959533" lon="13.092325055420295"><ele>169.0</ele><time>2026-04-12T15:11:11Z</time></trkpt><trkpt lat="46.234644297042486" lon="13.092272691654415"><ele>169.0</ele><time>2026-04-12T15:11:12Z</time></trkpt><trkpt lat="46.234443274539025" lon="13.092221601159814"><ele>169.0</ele><time>2026-04-12T15:11:13Z</time></trkpt><trkpt lat="46.23425505243336" lon="13.092173763990004"><ele>169.0</ele><time>2026-04-12T15:11:14Z</time></trkpt><trkpt lat="46.234056281240754" lon="13.09213728884484"><ele>169.0</ele><time>2026-04-12T15:11:15Z</time></trkpt><trkpt lat="46.23385796608791" lon="13.09207855155916"><ele>169.0</ele><time>2026-04-12T15:11:16Z</time></trkpt><trkpt lat="46.233684289683126" lon="13.092033295597412"><ele>170.66666666666669</ele><time>2026-04-12T15:11:17Z</time></trkpt><trkpt lat="46.23351696143056" lon="13.09199046237215"><ele>172.33333333333334</ele><time>2026-04-12T15:11:18Z</time></trkpt><trkpt lat="46.23334561838611" lon="13.09194957382491"><ele>174.0</ele><time>2026-04-12T15:11:19Z</time></trkpt><trkpt lat="46.233174049561775" lon="13.091905386443717"><ele>173.33333333333334</ele><time>2026-04-12T15:11:20Z</time></trkpt><trkpt lat="46.233003409021606" lon="13.09186234095147"><ele>172.66666666666669</ele><time>2026-04-12T15:11:21Z</time></trkpt><trkpt lat="46.23282690671686" lon="13.091819863918273"><ele>172.0</ele><time>2026-04-12T15:11:22Z</time></trkpt><trkpt lat="46.2326500554535" lon="13.091775081262822"><ele>172.0</ele><time>2026-04-12T15:11:23Z</time></trkpt><trkpt lat="46.23247572208936" lon="13.091727718322879"><ele>172.0</ele><time>2026-04-12T15:11:24Z</time></trkpt><trkpt lat="46.232301117176625" lon="13.091681097606426"><ele>172.0</ele><time>2026-04-12T15:11:25Z</time></trkpt><trkpt lat="46.23212875677013" lon="13.091637421407272"><ele>170.66666666666669</ele><time>2026-04-12T15:11:26Z</time></trkpt><trkpt lat="46.231960271292174" lon="13.091594971171913"><ele>169.33333333333334</ele><time>2026-04-12T15:11:27Z</time></trkpt><trkpt lat="46.23179589385439" lon="13.09155166687148"><ele>168.0</ele><time>2026-04-12T15:11:28Z</time></trkpt><trkpt lat="46.231630808343546" lon="13.091510260686686"><ele>167.66666666666666</ele><time>2026-04-12T15:11:29Z</time></trkpt><trkpt lat="46.23146681630971" lon="13.091468764069445"><ele>167.33333333333331</ele><time>2026-04-12T15:11:30Z</time></trkpt><trkpt lat="46.23130980492292" lon="13.091426565541052"><ele>167.0</ele><time>2026-04-12T15:11:31Z</time></trkpt><trkpt lat="46.23116027940447" lon="13.091386599516397"><ele>167.0</ele><time>2026-04-12T15:11:32Z</time></trkpt><trkpt lat="46.23100840602308" lon="13.09134983983162"><ele>167.0</ele><time>2026-04-12T15:11:33Z</time></trkpt><trkpt lat="46.230854178514136" lon="13.091312618085587"><ele>167.0</ele><time>2026-04-12T15:11:34Z</time></trkpt><trkpt lat="46.230697911935906" lon="13.091272790925919"><ele>167.33333333333331</ele><time>2026-04-12T15:11:35Z</time></trkpt><trkpt lat="46.23053927147411" lon="13.091233500919245"><ele>167.66666666666666</ele><time>2026-04-12T15:11:36Z</time></trkpt><trkpt lat="46.23037914955801" lon="13.091192901210361"><ele>168.0</ele><time>2026-04-12T15:11:36.999Z</time></trkpt><trkpt lat="46.2302151353482" lon="13.091148606014654"><ele>168.0</ele><time>2026-04-12T15:11:37.999Z</time></trkpt><trkpt lat="46.230047307547764" lon="13.09110471013498"><ele>168.0</ele><time>2026-04-12T15:11:38.999Z</time></trkpt><trkpt lat="46.229884846458674" lon="13.091060166768147"><ele>168.0</ele><time>2026-04-12T15:11:39.999Z</time></trkpt><trkpt lat="46.229723565122256" lon="13.091012587543123"><ele>168.0</ele><time>2026-04-12T15:11:40.999Z</time></trkpt><trkpt lat="46.229555625823444" lon="13.090961166221685"><ele>168.0</ele><time>2026-04-12T15:11:41.999Z</time></trkpt><trkpt lat="46.22938154111702" lon="13.09090305036994"><ele>168.0</ele><time>2026-04-12T15:11:42.999Z</time></trkpt><trkpt lat="46.229204035998286" lon="13.090835426897883"><ele>168.0</ele><time>2026-04-12T15:11:43.999Z</time></trkpt><trkpt lat="46.22903149176748" lon="13.090766208546443"><ele>168.0</ele><time>2026-04-12T15:11:44.999Z</time></trkpt><trkpt lat="46.22887096633261" lon="13.090699263879443"><ele>168.0</ele><time>2026-04-12T15:11:45.999Z</time></trkpt><trkpt lat="46.22871221049482" lon="13.090633784445998"><ele>168.33333333333334</ele><time>2026-04-12T15:11:46.999Z</time></trkpt><trkpt lat="46.22855528295468" lon="13.0905709825957"><ele>168.66666666666669</ele><time>2026-04-12T15:11:47.999Z</time></trkpt><trkpt lat="46.22839585310426" lon="13.09050770808209"><ele>169.0</ele><time>2026-04-12T15:11:48.999Z</time></trkpt><trkpt lat="46.228238155211066" lon="13.090446853079383"><ele>168.25</ele><time>2026-04-12T15:11:49.999Z</time></trkpt><trkpt lat="46.22808394808707" lon="13.090386543941445"><ele>167.5</ele><time>2026-04-12T15:11:50.999Z</time></trkpt><trkpt lat="46.22794012420043" lon="13.090328417721917"><ele>166.75</ele><time>2026-04-12T15:11:51.999Z</time></trkpt><trkpt lat="46.227809654879145" lon="13.090277958430672"><ele>166.0</ele><time>2026-04-12T15:11:52.999Z</time></trkpt><trkpt lat="46.22768695665071" lon="13.090233599132837"><ele>166.0</ele><time>2026-04-12T15:11:53.999Z</time></trkpt><trkpt lat="46.22756237983344" lon="13.090188780352431"><ele>166.0</ele><time>2026-04-12T15:11:54.999Z</time></trkpt><trkpt lat="46.22744949480885" lon="13.090146272944999"><ele>166.0</ele><time>2026-04-12T15:11:55.999Z</time></trkpt><trkpt lat="46.22735111834574" lon="13.090110655411431"><ele>166.0</ele><time>2026-04-12T15:11:56.999Z</time></trkpt><trkpt lat="46.22726624318863" lon="13.090083933226778"><ele>166.0</ele><time>2026-04-12T15:11:57.999Z</time></trkpt><trkpt lat="46.22717415836203" lon="13.090062104633002"><ele>165.83333333333334</ele><time>2026-04-12T15:11:58.999Z</time></trkpt><trkpt lat="46.22709121470229" lon="13.090041482318304"><ele>165.66666666666669</ele><time>2026-04-12T15:11:59.999Z</time></trkpt><trkpt lat="46.227009108907005" lon="13.090018176558527"><ele>165.5</ele><time>2026-04-12T15:12:00.999Z</time></trkpt><trkpt lat="46.22692969245785" lon="13.089992998045746"><ele>165.33333333333334</ele><time>2026-04-12T15:12:01.999Z</time></trkpt><trkpt lat="46.226857854992" lon="13.089969998897814"><ele>165.16666666666666</ele><time>2026-04-12T15:12:02.999Z</time></trkpt><trkpt lat="46.226793994305154" lon="13.08995371728067"><ele>165.0</ele><time>2026-04-12T15:12:03.999Z</time></trkpt><trkpt lat="46.22668318416263" lon="13.090007808349355"><ele>165.00000000000003</ele><time>2026-04-12T15:12:05.999Z</time></trkpt><trkpt lat="46.226642989648695" lon="13.09008764938721"><ele>165.0</ele><time>2026-04-12T15:12:06.999Z</time></trkpt><trkpt lat="46.22662912283217" lon="13.090191370630718"><ele>165.0</ele><time>2026-04-12T15:12:07.999Z</time></trkpt><trkpt lat="46.22662589811968" lon="13.090293350638905"><ele>165.0</ele><time>2026-04-12T15:12:08.999Z</time></trkpt><trkpt lat="46.22661439878117" lon="13.09039725311898"><ele>165.0</ele><time>2026-04-12T15:12:09.999Z</time></trkpt><trkpt lat="46.22660062568991" lon="13.09050108681097"><ele>165.00000000000003</ele><time>2026-04-12T15:12:10.999Z</time></trkpt><trkpt lat="46.22658327316933" lon="13.09060439009382"><ele>165.0</ele><time>2026-04-12T15:12:11.999Z</time></trkpt><trkpt lat="46.226577699649695" lon="13.090702525580992"><ele>165.8</ele><time>2026-04-12T15:12:12.999Z</time></trkpt><trkpt lat="46.22658164422045" lon="13.090804637189672"><ele>166.6</ele><time>2026-04-12T15:12:13.999Z</time></trkpt><trkpt lat="46.22659045959202" lon="13.090928927603814"><ele>167.39999999999998</ele><time>2026-04-12T15:12:14.999Z</time></trkpt><trkpt lat="46.22659568485026" lon="13.091082011546648"><ele>168.2</ele><time>2026-04-12T15:12:15.999Z</time></trkpt><trkpt lat="46.2266065860315" lon="13.091237847956066"><ele>169.0</ele><time>2026-04-12T15:12:16.999Z</time></trkpt><trkpt lat="46.226628050942644" lon="13.091386613295063"><ele>169.0</ele><time>2026-04-12T15:12:17.999Z</time></trkpt><trkpt lat="46.2266368457549" lon="13.091530426877613"><ele>169.0</ele><time>2026-04-12T15:12:18.999Z</time></trkpt><trkpt lat="46.22662830286402" lon="13.091679946315871"><ele>169.0</ele><time>2026-04-12T15:12:19.999Z</time></trkpt><trkpt lat="46.22662901077538" lon="13.091827995800582"><ele>169.0</ele><time>2026-04-12T15:12:20.999Z</time></trkpt><trkpt lat="46.226636138964174" lon="13.091968116309351"><ele>169.0</ele><time>2026-04-12T15:12:21.999Z</time></trkpt><trkpt lat="46.22664683431524" lon="13.092107699234667"><ele>169.0</ele><time>2026-04-12T15:12:22.999Z</time></trkpt><trkpt lat="46.226673844639" lon="13.092252635964485"><ele>169.0</ele><time>2026-04-12T15:12:23.999Z</time></trkpt><trkpt lat="46.22671604870642" lon="13.092406044331733"><ele>169.0</ele><time>2026-04-12T15:12:24.999Z</time></trkpt><trkpt lat="46.22677669554208" lon="13.092559160890206"><ele>169.0</ele><time>2026-04-12T15:12:25.999Z</time></trkpt><trkpt lat="46.22685304838301" lon="13.092703935703655"><ele>169.25</ele><time>2026-04-12T15:12:26.999Z</time></trkpt><trkpt lat="46.22694424718248" lon="13.09283410342376"><ele>169.5</ele><time>2026-04-12T15:12:27.999Z</time></trkpt><trkpt lat="46.227047342430915" lon="13.092943902511875"><ele>169.75</ele><time>2026-04-12T15:12:28.999Z</time></trkpt><trkpt lat="46.22716464087684" lon="13.093043777640723"><ele>170.0</ele><time>2026-04-12T15:12:29.999Z</time></trkpt><trkpt lat="46.22729012472571" lon="13.093143585494602"><ele>169.75</ele><time>2026-04-12T15:12:30.999Z</time></trkpt><trkpt lat="46.22741628721073" lon="13.093247161292366"><ele>169.5</ele><time>2026-04-12T15:12:31.999Z</time></trkpt><trkpt lat="46.22754026812233" lon="13.093350268325775"><ele>169.25</ele><time>2026-04-12T15:12:32.999Z</time></trkpt><trkpt lat="46.227655481014224" lon="13.093454603998406"><ele>169.0</ele><time>2026-04-12T15:12:33.999Z</time></trkpt><trkpt lat="46.22775061216257" lon="13.09356415195065"><ele>169.0</ele><time>2026-04-12T15:12:34.999Z</time></trkpt><trkpt lat="46.22782967123335" lon="13.093697927127629"><ele>169.0</ele><time>2026-04-12T15:12:35.999Z</time></trkpt><trkpt lat="46.227887954123716" lon="13.093854259536823"><ele>169.0</ele><time>2026-04-12T15:12:36.999Z</time></trkpt><trkpt lat="46.22792189437521" lon="13.094018467452463"><ele>169.0</ele><time>2026-04-12T15:12:37.999Z</time></trkpt><trkpt lat="46.22791191165886" lon="13.094186362043867"><ele>168.75</ele><time>2026-04-12T15:12:38.999Z</time></trkpt><trkpt lat="46.22790060433076" lon="13.094350053180184"><ele>168.5</ele><time>2026-04-12T15:12:39.999Z</time></trkpt><trkpt lat="46.22788197973466" lon="13.09451662957973"><ele>168.25</ele><time>2026-04-12T15:12:40.999Z</time></trkpt><trkpt lat="46.22787519666105" lon="13.09469598937554"><ele>168.0</ele><time>2026-04-12T15:12:41.999Z</time></trkpt><trkpt lat="46.227843804448334" lon="13.0948762771181"><ele>167.5</ele><time>2026-04-12T15:12:42.999Z</time></trkpt><trkpt lat="46.22781984015733" lon="13.095051927629672"><ele>167.0</ele><time>2026-04-12T15:12:43.999Z</time></trkpt><trkpt lat="46.227808474453866" lon="13.09521092333939"><ele>166.5</ele><time>2026-04-12T15:12:44.999Z</time></trkpt><trkpt lat="46.22779538541273" lon="13.095369629860079"><ele>166.0</ele><time>2026-04-12T15:12:45.999Z</time></trkpt><trkpt lat="46.22784171716435" lon="13.0955393785914"><ele>166.0</ele><time>2026-04-12T15:12:46.999Z</time></trkpt><trkpt lat="46.227889244475215" lon="13.095704207753599"><ele>166.0</ele><time>2026-04-12T15:12:47.999Z</time></trkpt><trkpt lat="46.227957203936825" lon="13.09587107138086"><ele>166.0</ele><time>2026-04-12T15:12:48.999Z</time></trkpt><trkpt lat="46.228021703496566" lon="13.096069004713184"><ele>166.0</ele><time>2026-04-12T15:12:49.999Z</time></trkpt><trkpt lat="46.22810483312858" lon="13.096278059206712"><ele>166.0</ele><time>2026-04-12T15:12:50.999Z</time></trkpt><trkpt lat="46.228202954663175" lon="13.096478203743516"><ele>166.0</ele><time>2026-04-12T15:12:51.999Z</time></trkpt><trkpt lat="46.22827635539406" lon="13.09666666048134"><ele>166.0</ele><time>2026-04-12T15:12:52.999Z</time></trkpt><trkpt lat="46.2283416447667" lon="13.096841310462123"><ele>166.0</ele><time>2026-04-12T15:12:53.999Z</time></trkpt><trkpt lat="46.22839493008507" lon="13.097009489266593"><ele>166.0</ele><time>2026-04-12T15:12:54.999Z</time></trkpt><trkpt lat="46.228454932174195" lon="13.09716088001457"><ele>166.0</ele><time>2026-04-12T15:12:55.999Z</time></trkpt><trkpt lat="46.22851169420327" lon="13.097304095809816"><ele>166.0</ele><time>2026-04-12T15:12:56.999Z</time></trkpt><trkpt lat="46.22856718333996" lon="13.09744409996373"><ele>166.20000000000002</ele><time>2026-04-12T15:12:57.999Z</time></trkpt><trkpt lat="46.22862065263765" lon="13.097580422550923"><ele>166.4</ele><time>2026-04-12T15:12:58.999Z</time></trkpt><trkpt lat="46.22867239787165" lon="13.097712751788288"><ele>166.6</ele><time>2026-04-12T15:12:59.999Z</time></trkpt><trkpt lat="46.22871376005873" lon="13.097845007120581"><ele>166.8</ele><time>2026-04-12T15:13:00.999Z</time></trkpt><trkpt lat="46.22874696445334" lon="13.097979041955497"><ele>167.0</ele><time>2026-04-12T15:13:02Z</time></trkpt><trkpt lat="46.22877924125788" lon="13.098119922585012"><ele>167.0</ele><time>2026-04-12T15:13:03Z</time></trkpt><trkpt lat="46.2288114125099" lon="13.098262179838443"><ele>167.0</ele><time>2026-04-12T15:13:04Z</time></trkpt><trkpt lat="46.228841834550636" lon="13.098401238085245"><ele>167.0</ele><time>2026-04-12T15:13:05Z</time></trkpt><trkpt lat="46.228871863480016" lon="13.098539796017967"><ele>167.0</ele><time>2026-04-12T15:13:06Z</time></trkpt><trkpt lat="46.22890357458916" lon="13.098680421346234"><ele>167.0</ele><time>2026-04-12T15:13:07Z</time></trkpt><trkpt lat="46.22893644075673" lon="13.098820424872047"><ele>167.0</ele><time>2026-04-12T15:13:08Z</time></trkpt><trkpt lat="46.22897269056655" lon="13.098957388775567"><ele>167.0</ele><time>2026-04-12T15:13:09Z</time></trkpt><trkpt lat="46.22900728380465" lon="13.09908111355615"><ele>167.0</ele><time>2026-04-12T15:13:10Z</time></trkpt><trkpt lat="46.22904417402898" lon="13.099203074968479"><ele>167.0</ele><time>2026-04-12T15:13:11Z</time></trkpt><trkpt lat="46.22907604523076" lon="13.099308034263228"><ele>167.0</ele><time>2026-04-12T15:13:12Z</time></trkpt><trkpt lat="46.2291069341521" lon="13.099407168069806"><ele>167.0</ele><time>2026-04-12T15:13:13Z</time></trkpt><trkpt lat="46.229135865494925" lon="13.099498287855438"><ele>167.0</ele><time>2026-04-12T15:13:14Z</time></trkpt><trkpt lat="46.229183174926774" lon="13.099638361724987"><ele>167.0</ele><time>2026-04-12T15:13:16Z</time></trkpt><trkpt lat="46.2291850061043" lon="13.099737673290562"><ele>167.0</ele><time>2026-04-12T15:13:18Z</time></trkpt><trkpt lat="46.22907837433086" lon="13.09976444600436"><ele>167.0</ele><time>2026-04-12T15:13:20Z</time></trkpt><trkpt lat="46.229017165466786" lon="13.099810554848911"><ele>167.0</ele><time>2026-04-12T15:13:21Z</time></trkpt><trkpt lat="46.22893059758092" lon="13.09984273321926"><ele>167.0</ele><time>2026-04-12T15:13:22Z</time></trkpt><trkpt lat="46.22882379341374" lon="13.099860260547235"><ele>167.0</ele><time>2026-04-12T15:13:23Z</time></trkpt><trkpt lat="46.228698507287156" lon="13.09990738490638"><ele>167.0</ele><time>2026-04-12T15:13:24Z</time></trkpt><trkpt lat="46.22857378739992" lon="13.099956216412075"><ele>167.0</ele><time>2026-04-12T15:13:25Z</time></trkpt><trkpt lat="46.22844170335971" lon="13.100021430660009"><ele>167.0</ele><time>2026-04-12T15:13:26Z</time></trkpt><trkpt lat="46.228296013511034" lon="13.100036902077562"><ele>166.75</ele><time>2026-04-12T15:13:27Z</time></trkpt><trkpt lat="46.22815264070883" lon="13.100026562434259"><ele>166.5</ele><time>2026-04-12T15:13:28Z</time></trkpt><trkpt lat="46.22801662601688" lon="13.09998896028828"><ele>166.25</ele><time>2026-04-12T15:13:29Z</time></trkpt><trkpt lat="46.22788004633195" lon="13.09994415986244"><ele>166.0</ele><time>2026-04-12T15:13:30Z</time></trkpt><trkpt lat="46.2277366701829" lon="13.099912954691897"><ele>166.0</ele><time>2026-04-12T15:13:31Z</time></trkpt><trkpt lat="46.22759324896943" lon="13.099895671380958"><ele>166.0</ele><time>2026-04-12T15:13:32Z</time></trkpt><trkpt lat="46.227452315757084" lon="13.099890699327071"><ele>166.0</ele><time>2026-04-12T15:13:33Z</time></trkpt><trkpt lat="46.22731150464448" lon="13.09990387908485"><ele>166.0</ele><time>2026-04-12T15:13:34Z</time></trkpt><trkpt lat="46.22716921786091" lon="13.099945355619708"><ele>166.66666666666669</ele><time>2026-04-12T15:13:35Z</time></trkpt><trkpt lat="46.227027777810605" lon="13.099971341385553"><ele>167.33333333333334</ele><time>2026-04-12T15:13:36Z</time></trkpt><trkpt lat="46.22688037238495" lon="13.100030351081118"><ele>168.0</ele><time>2026-04-12T15:13:37Z</time></trkpt><trkpt lat="46.226725264275586" lon="13.100095379706326"><ele>168.0</ele><time>2026-04-12T15:13:37.999Z</time></trkpt><trkpt lat="46.22659280275543" lon="13.100151031257246"><ele>168.0</ele><time>2026-04-12T15:13:38.999Z</time></trkpt><trkpt lat="46.22647452866882" lon="13.1002040915818"><ele>168.0</ele><time>2026-04-12T15:13:39.999Z</time></trkpt><trkpt lat="46.226360475159616" lon="13.10028675790416"><ele>168.0</ele><time>2026-04-12T15:13:40.999Z</time></trkpt><trkpt lat="46.22623712159478" lon="13.100305175665232"><ele>168.25</ele><time>2026-04-12T15:13:41.999Z</time></trkpt><trkpt lat="46.22611169928856" lon="13.100291751681736"><ele>168.5</ele><time>2026-04-12T15:13:42.999Z</time></trkpt><trkpt lat="46.225980784982" lon="13.100231134809812"><ele>168.75</ele><time>2026-04-12T15:13:43.999Z</time></trkpt><trkpt lat="46.22582838967061" lon="13.10020626132232"><ele>169.0</ele><time>2026-04-12T15:13:44.999Z</time></trkpt><trkpt lat="46.22566368299604" lon="13.100206083927908"><ele>168.0</ele><time>2026-04-12T15:13:45.999Z</time></trkpt><trkpt lat="46.225491907067486" lon="13.100225582375087"><ele>167.0</ele><time>2026-04-12T15:13:46.999Z</time></trkpt><trkpt lat="46.225317657672775" lon="13.100252970257541"><ele>166.0</ele><time>2026-04-12T15:13:47.999Z</time></trkpt><trkpt lat="46.22515210286808" lon="13.100275552631542"><ele>166.0</ele><time>2026-04-12T15:13:48.999Z</time></trkpt><trkpt lat="46.22498711574078" lon="13.100294761111295"><ele>166.0</ele><time>2026-04-12T15:13:49.999Z</time></trkpt><trkpt lat="46.22482857878121" lon="13.100339136381212"><ele>166.0</ele><time>2026-04-12T15:13:50.999Z</time></trkpt><trkpt lat="46.22466945193926" lon="13.100338999862643"><ele>166.33333333333334</ele><time>2026-04-12T15:13:51.999Z</time></trkpt><trkpt lat="46.22451422747809" lon="13.100372292378875"><ele>166.66666666666666</ele><time>2026-04-12T15:13:52.999Z</time></trkpt><trkpt lat="46.22436462831245" lon="13.100421811132897"><ele>167.0</ele><time>2026-04-12T15:13:53.999Z</time></trkpt><trkpt lat="46.22421713572758" lon="13.100483440632205"><ele>167.0</ele><time>2026-04-12T15:13:54.999Z</time></trkpt><trkpt lat="46.22406985560693" lon="13.100554244098484"><ele>167.0</ele><time>2026-04-12T15:13:55.999Z</time></trkpt><trkpt lat="46.22391963166313" lon="13.100640296637026"><ele>167.0</ele><time>2026-04-12T15:13:56.999Z</time></trkpt><trkpt lat="46.22377154967164" lon="13.1007494059124"><ele>167.33333333333331</ele><time>2026-04-12T15:13:57.999Z</time></trkpt><trkpt lat="46.22362663967388" lon="13.10087590525246"><ele>167.66666666666666</ele><time>2026-04-12T15:13:58.999Z</time></trkpt><trkpt lat="46.22348089604824" lon="13.101001233361922"><ele>168.0</ele><time>2026-04-12T15:13:59.999Z</time></trkpt><trkpt lat="46.22333641182636" lon="13.101121985917343"><ele>168.0</ele><time>2026-04-12T15:14:00.999Z</time></trkpt><trkpt lat="46.22318581170641" lon="13.101235208207775"><ele>168.0</ele><time>2026-04-12T15:14:01.999Z</time></trkpt><trkpt lat="46.22303031450261" lon="13.101332338202289"><ele>168.0</ele><time>2026-04-12T15:14:02.999Z</time></trkpt><trkpt lat="46.222877875131864" lon="13.101425439141883"><ele>167.66666666666666</ele><time>2026-04-12T15:14:03.999Z</time></trkpt><trkpt lat="46.22272923626234" lon="13.10152472161629"><ele>167.33333333333331</ele><time>2026-04-12T15:14:04.999Z</time></trkpt><trkpt lat="46.22258586762042" lon="13.101624726626165"><ele>167.0</ele><time>2026-04-12T15:14:05.999Z</time></trkpt><trkpt lat="46.2224498079741" lon="13.101724650879092"><ele>167.0</ele><time>2026-04-12T15:14:06.999Z</time></trkpt><trkpt lat="46.22232060251203" lon="13.101831660169175"><ele>167.0</ele><time>2026-04-12T15:14:07.999Z</time></trkpt><trkpt lat="46.22219897492729" lon="13.10194447188356"><ele>167.0</ele><time>2026-04-12T15:14:08.999Z</time></trkpt><trkpt lat="46.22207853771642" lon="13.102061169555808"><ele>167.0</ele><time>2026-04-12T15:14:09.999Z</time></trkpt><trkpt lat="46.221964567667555" lon="13.102194418820332"><ele>167.0</ele><time>2026-04-12T15:14:10.999Z</time></trkpt><trkpt lat="46.22183756649531" lon="13.102292160548602"><ele>167.0</ele><time>2026-04-12T15:14:11.999Z</time></trkpt><trkpt lat="46.22171720980873" lon="13.102382845640024"><ele>167.0</ele><time>2026-04-12T15:14:12.999Z</time></trkpt><trkpt lat="46.221595306530176" lon="13.102470314547165"><ele>167.0</ele><time>2026-04-12T15:14:13.999Z</time></trkpt><trkpt lat="46.221473083217376" lon="13.102563213708217"><ele>166.33333333333331</ele><time>2026-04-12T15:14:14.999Z</time></trkpt><trkpt lat="46.22133881351561" lon="13.102651549915286"><ele>165.66666666666666</ele><time>2026-04-12T15:14:15.999Z</time></trkpt><trkpt lat="46.221227260999" lon="13.102812301218293"><ele>165.0</ele><time>2026-04-12T15:14:16.999Z</time></trkpt><trkpt lat="46.22111440268529" lon="13.10297912258716"><ele>165.0</ele><time>2026-04-12T15:14:17.999Z</time></trkpt><trkpt lat="46.22100028419074" lon="13.103139975787325"><ele>165.0</ele><time>2026-04-12T15:14:18.999Z</time></trkpt><trkpt lat="46.22090124672034" lon="13.103287344861972"><ele>165.0</ele><time>2026-04-12T15:14:19.999Z</time></trkpt><trkpt lat="46.2208184906217" lon="13.103417667986559"><ele>165.0</ele><time>2026-04-12T15:14:20.999Z</time></trkpt><trkpt lat="46.22074069321666" lon="13.103537734004238"><ele>165.25</ele><time>2026-04-12T15:14:21.999Z</time></trkpt><trkpt lat="46.22070069579672" lon="13.1037229676945"><ele>165.5</ele><time>2026-04-12T15:14:22.999Z</time></trkpt><trkpt lat="46.22067511609945" lon="13.103933213230743"><ele>165.75</ele><time>2026-04-12T15:14:23.999Z</time></trkpt><trkpt lat="46.22065008491883" lon="13.104158377478564"><ele>166.0</ele><time>2026-04-12T15:14:24.999Z</time></trkpt><trkpt lat="46.220617505311345" lon="13.10438886310029"><ele>166.33333333333334</ele><time>2026-04-12T15:14:25.999Z</time></trkpt><trkpt lat="46.22058130154754" lon="13.10459296046646"><ele>166.66666666666666</ele><time>2026-04-12T15:14:26.999Z</time></trkpt><trkpt lat="46.22054578999776" lon="13.104807635692389"><ele>167.0</ele><time>2026-04-12T15:14:27.999Z</time></trkpt><trkpt lat="46.220473727919035" lon="13.105008545795284"><ele>166.5</ele><time>2026-04-12T15:14:28.999Z</time></trkpt><trkpt lat="46.220389318441306" lon="13.105187480032972"><ele>166.0</ele><time>2026-04-12T15:14:29.999Z</time></trkpt><trkpt lat="46.22029892575121" lon="13.105336839041785"><ele>165.5</ele><time>2026-04-12T15:14:30.999Z</time></trkpt><trkpt lat="46.22019639325146" lon="13.105431261383268"><ele>165.0</ele><time>2026-04-12T15:14:31.999Z</time></trkpt><trkpt lat="46.22012606272021" lon="13.105547211436994"><ele>165.0</ele><time>2026-04-12T15:14:32.999Z</time></trkpt><trkpt lat="46.22005002808015" lon="13.105615855333735"><ele>165.0</ele><time>2026-04-12T15:14:33.999Z</time></trkpt><trkpt lat="46.2200046362775" lon="13.105711596387193"><ele>165.0</ele><time>2026-04-12T15:14:34.999Z</time></trkpt><trkpt lat="46.21996810546145" lon="13.10581191981477"><ele>165.0</ele><time>2026-04-12T15:14:35.999Z</time></trkpt><trkpt lat="46.219934604529705" lon="13.105907747507592"><ele>165.0</ele><time>2026-04-12T15:14:36.999Z</time></trkpt><trkpt lat="46.21991983160295" lon="13.10599847233115"><ele>165.0</ele><time>2026-04-12T15:14:37.999Z</time></trkpt><trkpt lat="46.21987714674287" lon="13.106113120687121"><ele>165.4</ele><time>2026-04-12T15:14:39.999Z</time></trkpt><trkpt lat="46.219827148699196" lon="13.10619979824116"><ele>165.8</ele><time>2026-04-12T15:14:41.999Z</time></trkpt><trkpt lat="46.21977166712821" lon="13.106260966584994"><ele>166.2</ele><time>2026-04-12T15:14:43.999Z</time></trkpt><trkpt lat="46.219662460349674" lon="13.1061341199521"><ele>166.6</ele><time>2026-04-12T15:14:44.999Z</time></trkpt><trkpt lat="46.219550552061314" lon="13.106071142335617"><ele>167.0</ele><time>2026-04-12T15:14:45.999Z</time></trkpt><trkpt lat="46.219434180608644" lon="13.105958286560867"><ele>167.5</ele><time>2026-04-12T15:14:46.999Z</time></trkpt><trkpt lat="46.219311928052775" lon="13.105862341844109"><ele>168.0</ele><time>2026-04-12T15:14:47.999Z</time></trkpt><trkpt lat="46.219180110761975" lon="13.105761182367159"><ele>168.5</ele><time>2026-04-12T15:14:48.999Z</time></trkpt><trkpt lat="46.21904802805992" lon="13.10566230634419"><ele>169.0</ele><time>2026-04-12T15:14:49.999Z</time></trkpt><trkpt lat="46.21892475249356" lon="13.105569784160634"><ele>169.25</ele><time>2026-04-12T15:14:50.999Z</time></trkpt><trkpt lat="46.218809714891805" lon="13.105481956417703"><ele>169.5</ele><time>2026-04-12T15:14:51.999Z</time></trkpt><trkpt lat="46.2186945843384" lon="13.105394009474711"><ele>169.75</ele><time>2026-04-12T15:14:52.999Z</time></trkpt><trkpt lat="46.21857940873799" lon="13.105306028108096"><ele>170.0</ele><time>2026-04-12T15:14:53.999Z</time></trkpt><trkpt lat="46.2184581359806" lon="13.105215208537132"><ele>170.0</ele><time>2026-04-12T15:14:54.999Z</time></trkpt><trkpt lat="46.21833739938691" lon="13.105125112043414"><ele>170.0</ele><time>2026-04-12T15:14:55.999Z</time></trkpt><trkpt lat="46.218218746191475" lon="13.105036570238314"><ele>170.0</ele><time>2026-04-12T15:14:56.999Z</time></trkpt><trkpt lat="46.21810345716973" lon="13.1049498340294"><ele>170.0</ele><time>2026-04-12T15:14:57.999Z</time></trkpt><trkpt lat="46.21798989985544" lon="13.104863770706428"><ele>168.25</ele><time>2026-04-12T15:14:58.999Z</time></trkpt><trkpt lat="46.21788077921995" lon="13.104781069877346"><ele>166.5</ele><time>2026-04-12T15:14:59.999Z</time></trkpt><trkpt lat="46.21777949053766" lon="13.104703859808373"><ele>164.75</ele><time>2026-04-12T15:15:00.999Z</time></trkpt><trkpt lat="46.21768143931445" lon="13.104629003507378"><ele>163.0</ele><time>2026-04-12T15:15:01.999Z</time></trkpt><trkpt lat="46.21758120216857" lon="13.104552478366209"><ele>163.0</ele><time>2026-04-12T15:15:02.999Z</time></trkpt><trkpt lat="46.21746583024779" lon="13.104464400566364"><ele>163.0</ele><time>2026-04-12T15:15:03.999Z</time></trkpt><trkpt lat="46.217337321475256" lon="13.104367203004093"><ele>163.0</ele><time>2026-04-12T15:15:04.999Z</time></trkpt><trkpt lat="46.21719751757751" lon="13.104263133950843"><ele>163.0</ele><time>2026-04-12T15:15:05.999Z</time></trkpt><trkpt lat="46.21705450418282" lon="13.104156675550533"><ele>163.33333333333334</ele><time>2026-04-12T15:15:06.999Z</time></trkpt><trkpt lat="46.21691096070739" lon="13.10404982271913"><ele>163.66666666666666</ele><time>2026-04-12T15:15:08Z</time></trkpt><trkpt lat="46.216775804988174" lon="13.103947896633393"><ele>164.0</ele><time>2026-04-12T15:15:09Z</time></trkpt><trkpt lat="46.21665383523548" lon="13.10384868864487"><ele>164.0</ele><time>2026-04-12T15:15:10Z</time></trkpt><trkpt lat="46.2165417795801" lon="13.103738025202132"><ele>164.0</ele><time>2026-04-12T15:15:11Z</time></trkpt><trkpt lat="46.21646115579905" lon="13.103655089205308"><ele>164.0</ele><time>2026-04-12T15:15:12Z</time></trkpt><trkpt lat="46.21639901142469" lon="13.103590608362609"><ele>164.0</ele><time>2026-04-12T15:15:13Z</time></trkpt><trkpt lat="46.21633774145107" lon="13.103524726105478"><ele>164.0</ele><time>2026-04-12T15:15:14Z</time></trkpt><trkpt lat="46.216261412869514" lon="13.103440898836094"><ele>164.5</ele><time>2026-04-12T15:15:15Z</time></trkpt><trkpt lat="46.21617418830173" lon="13.103345105584479"><ele>165.0</ele><time>2026-04-12T15:15:16Z</time></trkpt><trkpt lat="46.21606572673887" lon="13.103225988483171"><ele>165.5</ele><time>2026-04-12T15:15:17Z</time></trkpt><trkpt lat="46.21596007524016" lon="13.103109957117113"><ele>166.0</ele><time>2026-04-12T15:15:18Z</time></trkpt><trkpt lat="46.21585264037433" lon="13.102988241867026"><ele>166.0</ele><time>2026-04-12T15:15:19Z</time></trkpt><trkpt lat="46.215744249134985" lon="13.102865666711184"><ele>166.0</ele><time>2026-04-12T15:15:20Z</time></trkpt><trkpt lat="46.21565737446218" lon="13.102767521779032"><ele>166.0</ele><time>2026-04-12T15:15:21Z</time></trkpt><trkpt lat="46.21556971254132" lon="13.102673461874012"><ele>166.0</ele><time>2026-04-12T15:15:22Z</time></trkpt><trkpt lat="46.21547588590712" lon="13.102581800225835"><ele>166.25</ele><time>2026-04-12T15:15:23Z</time></trkpt><trkpt lat="46.21537195848743" lon="13.102495402965546"><ele>166.5</ele><time>2026-04-12T15:15:24Z</time></trkpt><trkpt lat="46.21526619650132" lon="13.102415283167376"><ele>166.75</ele><time>2026-04-12T15:15:25Z</time></trkpt><trkpt lat="46.21516496252792" lon="13.102338224480528"><ele>167.0</ele><time>2026-04-12T15:15:26Z</time></trkpt><trkpt lat="46.21506356765563" lon="13.102259842067484"><ele>167.0</ele><time>2026-04-12T15:15:27Z</time></trkpt><trkpt lat="46.21494792334426" lon="13.102178898337142"><ele>167.0</ele><time>2026-04-12T15:15:28Z</time></trkpt><trkpt lat="46.21483310968895" lon="13.102120615048161"><ele>167.0</ele><time>2026-04-12T15:15:29Z</time></trkpt><trkpt lat="46.21470491438846" lon="13.102062118208115"><ele>167.0</ele><time>2026-04-12T15:15:30Z</time></trkpt><trkpt lat="46.21456902355019" lon="13.102002142753891"><ele>166.66666666666666</ele><time>2026-04-12T15:15:31Z</time></trkpt><trkpt lat="46.21441441095767" lon="13.101933904432332"><ele>166.33333333333334</ele><time>2026-04-12T15:15:32Z</time></trkpt><trkpt lat="46.21426773889468" lon="13.101868276390238"><ele>166.0</ele><time>2026-04-12T15:15:33Z</time></trkpt><trkpt lat="46.214119595984535" lon="13.101801521766948"><ele>167.0</ele><time>2026-04-12T15:15:34Z</time></trkpt><trkpt lat="46.21396614298793" lon="13.101732374362259"><ele>168.0</ele><time>2026-04-12T15:15:35Z</time></trkpt><trkpt lat="46.21380479519761" lon="13.101686207042738"><ele>169.0</ele><time>2026-04-12T15:15:36Z</time></trkpt><trkpt lat="46.213643785841924" lon="13.101591488498597"><ele>168.5</ele><time>2026-04-12T15:15:37Z</time></trkpt><trkpt lat="46.213500287194826" lon="13.101531941209602"><ele>168.0</ele><time>2026-04-12T15:15:38Z</time></trkpt><trkpt lat="46.2133760949543" lon="13.101488982553759"><ele>167.5</ele><time>2026-04-12T15:15:39Z</time></trkpt><trkpt lat="46.213248001660475" lon="13.10146362146621"><ele>167.0</ele><time>2026-04-12T15:15:40Z</time></trkpt><trkpt lat="46.21312102632815" lon="13.101463281053746"><ele>166.5</ele><time>2026-04-12T15:15:41Z</time></trkpt><trkpt lat="46.21298769489492" lon="13.101503259582937"><ele>166.0</ele><time>2026-04-12T15:15:41.999Z</time></trkpt><trkpt lat="46.21284292919332" lon="13.101560962898347"><ele>165.5</ele><time>2026-04-12T15:15:42.999Z</time></trkpt><trkpt lat="46.21271966600655" lon="13.101707634221395"><ele>165.0</ele><time>2026-04-12T15:15:43.999Z</time></trkpt><trkpt lat="46.21261809900271" lon="13.101834104009063"><ele>165.0</ele><time>2026-04-12T15:15:44.999Z</time></trkpt><trkpt lat="46.2125351119483" lon="13.101951377268376"><ele>165.0</ele><time>2026-04-12T15:15:45.999Z</time></trkpt><trkpt lat="46.21246752427257" lon="13.10205743750873"><ele>165.0</ele><time>2026-04-12T15:15:46.999Z</time></trkpt><trkpt lat="46.212402751685836" lon="13.102152147210676"><ele>165.0</ele><time>2026-04-12T15:15:47.999Z</time></trkpt><trkpt lat="46.21233872934097" lon="13.102256083458602"><ele>165.0</ele><time>2026-04-12T15:15:48.999Z</time></trkpt><trkpt lat="46.212274714862275" lon="13.102373934110078"><ele>165.0</ele><time>2026-04-12T15:15:49.999Z</time></trkpt><trkpt lat="46.21219233969472" lon="13.10251581853845"><ele>165.0</ele><time>2026-04-12T15:15:50.999Z</time></trkpt><trkpt lat="46.212080640276525" lon="13.102651120233514"><ele>165.0</ele><time>2026-04-12T15:15:51.999Z</time></trkpt><trkpt lat="46.21197493780303" lon="13.102815161131062"><ele>165.0</ele><time>2026-04-12T15:15:52.999Z</time></trkpt><trkpt lat="46.21186997515888" lon="13.102982747516068"><ele>165.0</ele><time>2026-04-12T15:15:53.999Z</time></trkpt><trkpt lat="46.211760580625096" lon="13.10315853035139"><ele>165.0</ele><time>2026-04-12T15:15:54.999Z</time></trkpt><trkpt lat="46.2116538001809" lon="13.103333096313477"><ele>165.0</ele><time>2026-04-12T15:15:55.999Z</time></trkpt><trkpt lat="46.21155667688836" lon="13.103491256712882"><ele>165.0</ele><time>2026-04-12T15:15:56.999Z</time></trkpt><trkpt lat="46.211459158622056" lon="13.103644852139372"><ele>165.0</ele><time>2026-04-12T15:15:57.999Z</time></trkpt><trkpt lat="46.211366561497506" lon="13.103789930582959"><ele>165.0</ele><time>2026-04-12T15:15:58.999Z</time></trkpt><trkpt lat="46.21127256034017" lon="13.103933419746415"><ele>165.0</ele><time>2026-04-12T15:15:59.999Z</time></trkpt><trkpt lat="46.21117784618765" lon="13.10407370396805"><ele>165.75</ele><time>2026-04-12T15:16:00.999Z</time></trkpt><trkpt lat="46.21107536440758" lon="13.104212070626051"><ele>166.5</ele><time>2026-04-12T15:16:01.999Z</time></trkpt><trkpt lat="46.210978721963336" lon="13.104364060945764"><ele>167.25</ele><time>2026-04-12T15:16:02.999Z</time></trkpt><trkpt lat="46.21086833880985" lon="13.104479755290772"><ele>168.0</ele><time>2026-04-12T15:16:03.999Z</time></trkpt><trkpt lat="46.210753362223" lon="13.104582518020177"><ele>168.0</ele><time>2026-04-12T15:16:04.999Z</time></trkpt><trkpt lat="46.21062118354017" lon="13.104652567180112"><ele>168.0</ele><time>2026-04-12T15:16:05.999Z</time></trkpt><trkpt lat="46.210486836710274" lon="13.104756156235588"><ele>168.0</ele><time>2026-04-12T15:16:06.999Z</time></trkpt><trkpt lat="46.21034742521559" lon="13.104871014051009"><ele>168.33333333333334</ele><time>2026-04-12T15:16:07.999Z</time></trkpt><trkpt lat="46.2102099275872" lon="13.105012271260456"><ele>168.66666666666669</ele><time>2026-04-12T15:16:08.999Z</time></trkpt><trkpt lat="46.21007161112098" lon="13.105165127365861"><ele>169.0</ele><time>2026-04-12T15:16:09.999Z</time></trkpt><trkpt lat="46.20993827826128" lon="13.105316295710985"><ele>168.66666666666669</ele><time>2026-04-12T15:16:10.999Z</time></trkpt><trkpt lat="46.20980642490576" lon="13.105468101156852"><ele>168.33333333333334</ele><time>2026-04-12T15:16:11.999Z</time></trkpt><trkpt lat="46.20968141009794" lon="13.105618283230232"><ele>168.0</ele><time>2026-04-12T15:16:12.999Z</time></trkpt><trkpt lat="46.20957727621203" lon="13.105748064145466"><ele>168.0</ele><time>2026-04-12T15:16:13.999Z</time></trkpt><trkpt lat="46.20948813924319" lon="13.10585874514875"><ele>168.0</ele><time>2026-04-12T15:16:14.999Z</time></trkpt><trkpt lat="46.209410367897554" lon="13.10595455381651"><ele>168.0</ele><time>2026-04-12T15:16:15.999Z</time></trkpt><trkpt lat="46.209341302218775" lon="13.106038710960746"><ele>168.0</ele><time>2026-04-12T15:16:16.999Z</time></trkpt><trkpt lat="46.20928270531263" lon="13.106109624446445"><ele>168.0</ele><time>2026-04-12T15:16:17.999Z</time></trkpt><trkpt lat="46.209226916521764" lon="13.106177139525835"><ele>168.0</ele><time>2026-04-12T15:16:18.999Z</time></trkpt><trkpt lat="46.20916271894337" lon="13.106253720363743"><ele>168.0</ele><time>2026-04-12T15:16:19.999Z</time></trkpt><trkpt lat="46.20908719425273" lon="13.10634257532109"><ele>168.0</ele><time>2026-04-12T15:16:20.999Z</time></trkpt><trkpt lat="46.20899287596242" lon="13.106455058928585"><ele>168.0</ele><time>2026-04-12T15:16:21.999Z</time></trkpt><trkpt lat="46.20888782920692" lon="13.106587526045432"><ele>168.0</ele><time>2026-04-12T15:16:22.999Z</time></trkpt><trkpt lat="46.20878951061141" lon="13.10670702017851"><ele>168.5</ele><time>2026-04-12T15:16:23.999Z</time></trkpt><trkpt lat="46.20870982640921" lon="13.106793709997206"><ele>169.0</ele><time>2026-04-12T15:16:24.999Z</time></trkpt><trkpt lat="46.20863743057916" lon="13.106863974310238"><ele>169.5</ele><time>2026-04-12T15:16:25.999Z</time></trkpt><trkpt lat="46.208570221104594" lon="13.106928287176133"><ele>170.0</ele><time>2026-04-12T15:16:26.999Z</time></trkpt><trkpt lat="46.20850976703248" lon="13.106986135762577"><ele>170.5</ele><time>2026-04-12T15:16:27.999Z</time></trkpt><trkpt lat="46.20845656695975" lon="13.107037043010267"><ele>171.0</ele><time>2026-04-12T15:16:28.999Z</time></trkpt><trkpt lat="46.20837439345886" lon="13.10711567499864"><ele>171.0</ele><time>2026-04-12T15:16:30.999Z</time></trkpt><trkpt lat="46.20832078426383" lon="13.107168032434357"><ele>171.0</ele><time>2026-04-12T15:16:32.999Z</time></trkpt><trkpt lat="46.20825149820309" lon="13.107236358047615"><ele>171.0</ele><time>2026-04-12T15:16:55.999Z</time></trkpt><trkpt lat="46.20815948639636" lon="13.107245247000137"><ele>171.0</ele><time>2026-04-12T15:16:58.999Z</time></trkpt><trkpt lat="46.20808322703296" lon="13.107265119589195"><ele>171.0</ele><time>2026-04-12T15:16:59.999Z</time></trkpt><trkpt lat="46.207975535410164" lon="13.107339628946288"><ele>171.0</ele><time>2026-04-12T15:17:00.999Z</time></trkpt><trkpt lat="46.20797430990825" lon="13.107600890975718"><ele>171.25</ele><time>2026-04-12T15:17:01.999Z</time></trkpt><trkpt lat="46.20791424920237" lon="13.107744482462936"><ele>171.5</ele><time>2026-04-12T15:17:02.999Z</time></trkpt><trkpt lat="46.20786340979615" lon="13.107895662197965"><ele>171.75</ele><time>2026-04-12T15:17:03.999Z</time></trkpt><trkpt lat="46.2078097677529" lon="13.108055103418423"><ele>172.0</ele><time>2026-04-12T15:17:04.999Z</time></trkpt><trkpt lat="46.20775645714723" lon="13.108210833052885"><ele>173.25</ele><time>2026-04-12T15:17:05.999Z</time></trkpt><trkpt lat="46.207703286397496" lon="13.108366154148698"><ele>174.5</ele><time>2026-04-12T15:17:06.999Z</time></trkpt><trkpt lat="46.207647768500074" lon="13.108528331626173"><ele>175.75</ele><time>2026-04-12T15:17:07.999Z</time></trkpt><trkpt lat="46.20758495913742" lon="13.108711508477235"><ele>177.0</ele><time>2026-04-12T15:17:08.999Z</time></trkpt><trkpt lat="46.20751637372123" lon="13.108910116891709"><ele>176.33333333333334</ele><time>2026-04-12T15:17:09.999Z</time></trkpt><trkpt lat="46.20744031159501" lon="13.109130376203417"><ele>175.66666666666669</ele><time>2026-04-12T15:17:10.999Z</time></trkpt><trkpt lat="46.207360213518825" lon="13.10936725693325"><ele>175.0</ele><time>2026-04-12T15:17:11.999Z</time></trkpt><trkpt lat="46.20728413778913" lon="13.109598275172702"><ele>175.0</ele><time>2026-04-12T15:17:12.999Z</time></trkpt><trkpt lat="46.20720807275055" lon="13.10981938154759"><ele>175.0</ele><time>2026-04-12T15:17:14Z</time></trkpt><trkpt lat="46.207126509517025" lon="13.110045398778494"><ele>175.0</ele><time>2026-04-12T15:17:15Z</time></trkpt><trkpt lat="46.20704028109531" lon="13.110274742107224"><ele>175.33333333333334</ele><time>2026-04-12T15:17:16Z</time></trkpt><trkpt lat="46.206946532914436" lon="13.110510025175882"><ele>175.66666666666666</ele><time>2026-04-12T15:17:17Z</time></trkpt><trkpt lat="46.20685329403736" lon="13.110735618345272"><ele>176.0</ele><time>2026-04-12T15:17:18Z</time></trkpt><trkpt lat="46.2067584637394" lon="13.110950591427173"><ele>176.66666666666666</ele><time>2026-04-12T15:17:19Z</time></trkpt><trkpt lat="46.20666144186084" lon="13.111163823809763"><ele>177.33333333333334</ele><time>2026-04-12T15:17:20Z</time></trkpt><trkpt lat="46.20656280416466" lon="13.111370024198497"><ele>178.0</ele><time>2026-04-12T15:17:21Z</time></trkpt><trkpt lat="46.206461845778634" lon="13.11156722613976"><ele>178.33333333333334</ele><time>2026-04-12T15:17:22Z</time></trkpt><trkpt lat="46.20636267148844" lon="13.111757323165763"><ele>178.66666666666666</ele><time>2026-04-12T15:17:23Z</time></trkpt><trkpt lat="46.20626480545415" lon="13.11194353677753"><ele>179.0</ele><time>2026-04-12T15:17:24Z</time></trkpt><trkpt lat="46.20616936492869" lon="13.112124580922739"><ele>179.0</ele><time>2026-04-12T15:17:25Z</time></trkpt><trkpt lat="46.2060754827955" lon="13.112302668881519"><ele>179.0</ele><time>2026-04-12T15:17:26Z</time></trkpt><trkpt lat="46.20597956835138" lon="13.112483702933748"><ele>179.0</ele><time>2026-04-12T15:17:27Z</time></trkpt><trkpt lat="46.20588296871742" lon="13.112667630244056"><ele>179.0</ele><time>2026-04-12T15:17:28Z</time></trkpt><trkpt lat="46.20581396815451" lon="13.112879648034749"><ele>179.0</ele><time>2026-04-12T15:17:29Z</time></trkpt><trkpt lat="46.205717236269905" lon="13.113059223246943"><ele>179.0</ele><time>2026-04-12T15:17:30Z</time></trkpt><trkpt lat="46.20562106838284" lon="13.11323854866485"><ele>178.0</ele><time>2026-04-12T15:17:31Z</time></trkpt><trkpt lat="46.205525811012116" lon="13.113417863647708"><ele>177.0</ele><time>2026-04-12T15:17:32Z</time></trkpt><trkpt lat="46.20543196479292" lon="13.11359979609661"><ele>176.0</ele><time>2026-04-12T15:17:33Z</time></trkpt><trkpt lat="46.205337183631606" lon="13.113782000555448"><ele>176.0</ele><time>2026-04-12T15:17:34Z</time></trkpt><trkpt lat="46.20523983793879" lon="13.113964786065111"><ele>176.0</ele><time>2026-04-12T15:17:35Z</time></trkpt><trkpt lat="46.2051424414091" lon="13.114147339156474"><ele>176.0</ele><time>2026-04-12T15:17:36Z</time></trkpt><trkpt lat="46.20504877727101" lon="13.114331039325327"><ele>176.0</ele><time>2026-04-12T15:17:37Z</time></trkpt><trkpt lat="46.20495425582104" lon="13.11450849888435"><ele>176.0</ele><time>2026-04-12T15:17:38Z</time></trkpt><trkpt lat="46.204859140078085" lon="13.114685565217027"><ele>176.0</ele><time>2026-04-12T15:17:39Z</time></trkpt><trkpt lat="46.204763523540194" lon="13.114860517519556"><ele>176.0</ele><time>2026-04-12T15:17:40Z</time></trkpt><trkpt lat="46.20467644498965" lon="13.11502464988086"><ele>176.0</ele><time>2026-04-12T15:17:41Z</time></trkpt><trkpt lat="46.204579003893954" lon="13.115204808417731"><ele>176.0</ele><time>2026-04-12T15:17:42Z</time></trkpt><trkpt lat="46.204491350892944" lon="13.115369438114667"><ele>176.0</ele><time>2026-04-12T15:17:43Z</time></trkpt><trkpt lat="46.2044037777172" lon="13.11553695837589"><ele>176.0</ele><time>2026-04-12T15:17:44Z</time></trkpt><trkpt lat="46.20431512927051" lon="13.115702871567002"><ele>176.0</ele><time>2026-04-12T15:17:45Z</time></trkpt><trkpt lat="46.20422553568593" lon="13.115875277176771"><ele>176.0</ele><time>2026-04-12T15:17:45.999Z</time></trkpt><trkpt lat="46.20413261069868" lon="13.116051220351897"><ele>176.0</ele><time>2026-04-12T15:17:46.999Z</time></trkpt><trkpt lat="46.2040390356752" lon="13.116227477083322"><ele>176.0</ele><time>2026-04-12T15:17:47.999Z</time></trkpt><trkpt lat="46.203943584954615" lon="13.116404043596257"><ele>176.0</ele><time>2026-04-12T15:17:48.999Z</time></trkpt><trkpt lat="46.20385367629366" lon="13.11657401986213"><ele>176.0</ele><time>2026-04-12T15:17:49.999Z</time></trkpt><trkpt lat="46.20376779448274" lon="13.116733104565082"><ele>176.0</ele><time>2026-04-12T15:17:50.999Z</time></trkpt><trkpt lat="46.203682441230534" lon="13.116893554482992"><ele>175.75</ele><time>2026-04-12T15:17:51.999Z</time></trkpt><trkpt lat="46.20360207464627" lon="13.117044372983012"><ele>175.5</ele><time>2026-04-12T15:17:52.999Z</time></trkpt><trkpt lat="46.20351868286697" lon="13.11719050397634"><ele>175.25</ele><time>2026-04-12T15:17:53.999Z</time></trkpt><trkpt lat="46.2034369015504" lon="13.117338130343414"><ele>175.0</ele><time>2026-04-12T15:17:54.999Z</time></trkpt><trkpt lat="46.20335623095023" lon="13.117489365768403"><ele>175.0</ele><time>2026-04-12T15:17:55.999Z</time></trkpt><trkpt lat="46.20327476818644" lon="13.117642366382892"><ele>175.0</ele><time>2026-04-12T15:17:56.999Z</time></trkpt><trkpt lat="46.20318211945676" lon="13.117785046167214"><ele>175.0</ele><time>2026-04-12T15:17:57.999Z</time></trkpt><trkpt lat="46.20311739746546" lon="13.117961225287816"><ele>175.0</ele><time>2026-04-12T15:17:58.999Z</time></trkpt><trkpt lat="46.20303673039219" lon="13.11811323573967"><ele>175.2</ele><time>2026-04-12T15:17:59.999Z</time></trkpt><trkpt lat="46.202961538738585" lon="13.11825064371161"><ele>175.4</ele><time>2026-04-12T15:18:00.999Z</time></trkpt><trkpt lat="46.20289496110534" lon="13.11837538686788"><ele>175.60000000000002</ele><time>2026-04-12T15:18:01.999Z</time></trkpt><trkpt lat="46.20282699591897" lon="13.118460481275507"><ele>175.8</ele><time>2026-04-12T15:18:02.999Z</time></trkpt><trkpt lat="46.20276011656357" lon="13.118590074195243"><ele>176.0</ele><time>2026-04-12T15:18:04.999Z</time></trkpt><trkpt lat="46.20271883452752" lon="13.118672082426718"><ele>176.0</ele><time>2026-04-12T15:18:07.999Z</time></trkpt><trkpt lat="46.2026826979499" lon="13.11876325131539"><ele>176.0</ele><time>2026-04-12T15:18:19.999Z</time></trkpt><trkpt lat="46.20256368032178" lon="13.118782589132831"><ele>176.0</ele><time>2026-04-12T15:18:21.999Z</time></trkpt><trkpt lat="46.20248867457057" lon="13.118823772358247"><ele>176.0</ele><time>2026-04-12T15:18:22.999Z</time></trkpt><trkpt lat="46.20244008246021" lon="13.118883426440915"><ele>176.0</ele><time>2026-04-12T15:18:23.999Z</time></trkpt><trkpt lat="46.20244960765894" lon="13.11901087125022"><ele>176.0</ele><time>2026-04-12T15:18:24.999Z</time></trkpt><trkpt lat="46.20248692847769" lon="13.119173791649851"><ele>176.0</ele><time>2026-04-12T15:18:26.999Z</time></trkpt><trkpt lat="46.20258853923959" lon="13.119258008476667"><ele>176.0</ele><time>2026-04-12T15:18:28.999Z</time></trkpt><trkpt lat="46.202640957487624" lon="13.11931050869025"><ele>176.0</ele><time>2026-04-12T15:18:29.999Z</time></trkpt><trkpt lat="46.202696697910234" lon="13.119382493763869"><ele>176.0</ele><time>2026-04-12T15:18:30.999Z</time></trkpt><trkpt lat="46.20275357030128" lon="13.119460445237062"><ele>176.0</ele><time>2026-04-12T15:18:31.999Z</time></trkpt><trkpt lat="46.202795505239735" lon="13.119532545849534"><ele>176.0</ele><time>2026-04-12T15:18:32.999Z</time></trkpt><trkpt lat="46.20285696546188" lon="13.119638483102165"><ele>176.0</ele><time>2026-04-12T15:18:34.999Z</time></trkpt><trkpt lat="46.202902363414246" lon="13.119732932661876"><ele>176.0</ele><time>2026-04-12T15:18:37.999Z</time></trkpt><trkpt lat="46.20295970181198" lon="13.119843623206922"><ele>176.0</ele><time>2026-04-12T15:18:41.999Z</time></trkpt><trkpt lat="46.20309420987996" lon="13.119772865416344"><ele>176.0</ele><time>2026-04-12T15:18:47.999Z</time></trkpt><trkpt lat="46.20300822294083" lon="13.119638206334654"><ele>176.0</ele><time>2026-04-12T15:18:49.999Z</time></trkpt><trkpt lat="46.20297110316276" lon="13.119537360823141"><ele>176.0</ele><time>2026-04-12T15:18:52.999Z</time></trkpt></trkseg><trkseg><trkpt lat="46.202994812714664" lon="13.119561343730972"><ele>176.0</ele><time>2026-04-12T16:11:28.999Z</time></trkpt><trkpt lat="46.20303425815984" lon="13.119659735741653"><ele>176.0</ele><time>2026-04-12T16:11:30.999Z</time></trkpt><trkpt lat="46.203062395937366" lon="13.119753482087427"><ele>176.0</ele><time>2026-04-12T16:11:32.999Z</time></trkpt><trkpt lat="46.202980789907656" lon="13.119790894535441"><ele>176.0</ele><time>2026-04-12T16:11:43Z</time></trkpt><trkpt lat="46.202904988604985" lon="13.11972201248507"><ele>176.0</ele><time>2026-04-12T16:11:45Z</time></trkpt><trkpt lat="46.20287151269321" lon="13.119636982409848"><ele>176.0</ele><time>2026-04-12T16:11:46Z</time></trkpt><trkpt lat="46.202825686008005" lon="13.11955336865936"><ele>176.0</ele><time>2026-04-12T16:11:47Z</time></trkpt><trkpt lat="46.20276450597166" lon="13.119423895198945"><ele>176.0</ele><time>2026-04-12T16:11:49Z</time></trkpt><trkpt lat="46.20271922996283" lon="13.119323308443674"><ele>176.0</ele><time>2026-04-12T16:11:51Z</time></trkpt><trkpt lat="46.2026967017067" lon="13.119182841977842"><ele>176.0</ele><time>2026-04-12T16:11:53Z</time></trkpt><trkpt lat="46.20269435676866" lon="13.119087994966392"><ele>176.0</ele><time>2026-04-12T16:11:54Z</time></trkpt><trkpt lat="46.2026872920341" lon="13.118971830333143"><ele>176.0</ele><time>2026-04-12T16:11:55Z</time></trkpt><trkpt lat="46.202651366339936" lon="13.118858196745451"><ele>176.0</ele><time>2026-04-12T16:11:56Z</time></trkpt><trkpt lat="46.202589702746096" lon="13.118803095259464"><ele>176.0</ele><time>2026-04-12T16:11:57Z</time></trkpt><trkpt lat="46.202512460075425" lon="13.118811327661515"><ele>176.0</ele><time>2026-04-12T16:11:58Z</time></trkpt><trkpt lat="46.20244676156894" lon="13.118879985428352"><ele>176.0</ele><time>2026-04-12T16:11:59Z</time></trkpt><trkpt lat="46.2024060146705" lon="13.118992642628067"><ele>176.0</ele><time>2026-04-12T16:12:00Z</time></trkpt><trkpt lat="46.20237047447194" lon="13.119136123665632"><ele>176.0</ele><time>2026-04-12T16:12:01Z</time></trkpt><trkpt lat="46.20230796685927" lon="13.119292805356082"><ele>176.66666666666666</ele><time>2026-04-12T16:12:02Z</time></trkpt><trkpt lat="46.202204879962096" lon="13.119484196719512"><ele>177.33333333333334</ele><time>2026-04-12T16:12:03Z</time></trkpt><trkpt lat="46.20206896942472" lon="13.11968615947525"><ele>178.0</ele><time>2026-04-12T16:12:04Z</time></trkpt><trkpt lat="46.201911559878916" lon="13.119878321127365"><ele>178.0</ele><time>2026-04-12T16:12:05Z</time></trkpt><trkpt lat="46.20175144239285" lon="13.120062779987922"><ele>178.0</ele><time>2026-04-12T16:12:06Z</time></trkpt><trkpt lat="46.20159523643251" lon="13.120235753771796"><ele>178.0</ele><time>2026-04-12T16:12:07Z</time></trkpt><trkpt lat="46.20143338983086" lon="13.1203986336133"><ele>178.0</ele><time>2026-04-12T16:12:08Z</time></trkpt><trkpt lat="46.20127166598702" lon="13.120544361258856"><ele>178.0</ele><time>2026-04-12T16:12:09Z</time></trkpt><trkpt lat="46.201106247637284" lon="13.12064897365329"><ele>178.0</ele><time>2026-04-12T16:12:10Z</time></trkpt><trkpt lat="46.20097584315264" lon="13.120776388602724"><ele>177.66666666666669</ele><time>2026-04-12T16:12:11Z</time></trkpt><trkpt lat="46.20083642248356" lon="13.120879655834926"><ele>177.33333333333334</ele><time>2026-04-12T16:12:12Z</time></trkpt><trkpt lat="46.200681396773334" lon="13.12095623078406"><ele>177.0</ele><time>2026-04-12T16:12:13Z</time></trkpt><trkpt lat="46.20052356117785" lon="13.121053765485804"><ele>176.66666666666666</ele><time>2026-04-12T16:12:14Z</time></trkpt><trkpt lat="46.20035683313948" lon="13.121151958210188"><ele>176.33333333333331</ele><time>2026-04-12T16:12:15Z</time></trkpt><trkpt lat="46.200189471106285" lon="13.121241456263999"><ele>176.0</ele><time>2026-04-12T16:12:16Z</time></trkpt><trkpt lat="46.20002590678665" lon="13.121317287280956"><ele>176.0</ele><time>2026-04-12T16:12:17Z</time></trkpt><trkpt lat="46.19986159721863" lon="13.121384443136735"><ele>176.0</ele><time>2026-04-12T16:12:18Z</time></trkpt><trkpt lat="46.19969951025454" lon="13.121445303505741"><ele>176.0</ele><time>2026-04-12T16:12:19Z</time></trkpt><trkpt lat="46.19954199598065" lon="13.121501265985405"><ele>175.33333333333331</ele><time>2026-04-12T16:12:20Z</time></trkpt><trkpt lat="46.199384649285484" lon="13.121545278519621"><ele>174.66666666666666</ele><time>2026-04-12T16:12:21Z</time></trkpt><trkpt lat="46.19923063282169" lon="13.12158191551494"><ele>174.0</ele><time>2026-04-12T16:12:22Z</time></trkpt><trkpt lat="46.19909058549309" lon="13.121612179904893"><ele>173.75</ele><time>2026-04-12T16:12:23Z</time></trkpt><trkpt lat="46.19895911341639" lon="13.121635410898808"><ele>173.5</ele><time>2026-04-12T16:12:24Z</time></trkpt><trkpt lat="46.19882542105421" lon="13.12165316756219"><ele>173.25</ele><time>2026-04-12T16:12:24.999Z</time></trkpt><trkpt lat="46.198680572551716" lon="13.121663414052504"><ele>173.0</ele><time>2026-04-12T16:12:25.999Z</time></trkpt><trkpt lat="46.19852498051823" lon="13.121670942530402"><ele>173.0</ele><time>2026-04-12T16:12:26.999Z</time></trkpt><trkpt lat="46.19835136519888" lon="13.121674499144001"><ele>173.0</ele><time>2026-04-12T16:12:27.999Z</time></trkpt><trkpt lat="46.19816769470485" lon="13.12169319735809"><ele>173.0</ele><time>2026-04-12T16:12:28.999Z</time></trkpt><trkpt lat="46.19797733680843" lon="13.121668355409582"><ele>173.0</ele><time>2026-04-12T16:12:29.999Z</time></trkpt><trkpt lat="46.197786508114675" lon="13.12163125259016"><ele>173.0</ele><time>2026-04-12T16:12:30.999Z</time></trkpt><trkpt lat="46.197599145621275" lon="13.121591479119148"><ele>173.0</ele><time>2026-04-12T16:12:31.999Z</time></trkpt><trkpt lat="46.19740940368208" lon="13.121549653833497"><ele>174.66666666666666</ele><time>2026-04-12T16:12:32.999Z</time></trkpt><trkpt lat="46.197218823142364" lon="13.121504370009907"><ele>176.33333333333334</ele><time>2026-04-12T16:12:33.999Z</time></trkpt><trkpt lat="46.19703067466036" lon="13.121459473566459"><ele>178.0</ele><time>2026-04-12T16:12:34.999Z</time></trkpt><trkpt lat="46.196843755005354" lon="13.121416635147419"><ele>178.0</ele><time>2026-04-12T16:12:35.999Z</time></trkpt><trkpt lat="46.19665654285632" lon="13.121373977636734"><ele>178.0</ele><time>2026-04-12T16:12:36.999Z</time></trkpt><trkpt lat="46.19646620957115" lon="13.121327954856055"><ele>178.0</ele><time>2026-04-12T16:12:37.999Z</time></trkpt><trkpt lat="46.19627009879031" lon="13.121281923670303"><ele>177.0</ele><time>2026-04-12T16:12:38.999Z</time></trkpt><trkpt lat="46.19606775244873" lon="13.121235177470307"><ele>176.0</ele><time>2026-04-12T16:12:39.999Z</time></trkpt><trkpt lat="46.19585925392596" lon="13.121187207950125"><ele>175.0</ele><time>2026-04-12T16:12:40.999Z</time></trkpt><trkpt lat="46.195650173900106" lon="13.121139801154742"><ele>173.33333333333334</ele><time>2026-04-12T16:12:41.999Z</time></trkpt><trkpt lat="46.19544855134569" lon="13.121097144938371"><ele>171.66666666666666</ele><time>2026-04-12T16:12:42.999Z</time></trkpt><trkpt lat="46.19525152574403" lon="13.121051328994469"><ele>170.0</ele><time>2026-04-12T16:12:43.999Z</time></trkpt><trkpt lat="46.19505264316495" lon="13.121006798801096"><ele>170.0</ele><time>2026-04-12T16:12:44.999Z</time></trkpt><trkpt lat="46.19485834152878" lon="13.120960143475617"><ele>170.0</ele><time>2026-04-12T16:12:45.999Z</time></trkpt><trkpt lat="46.1946602734947" lon="13.12091565979742"><ele>170.0</ele><time>2026-04-12T16:12:46.999Z</time></trkpt><trkpt lat="46.19446116455088" lon="13.120869252545766"><ele>169.0</ele><time>2026-04-12T16:12:47.999Z</time></trkpt><trkpt lat="46.19425705372005" lon="13.12082444761375"><ele>168.0</ele><time>2026-04-12T16:12:48.999Z</time></trkpt><trkpt lat="46.19404753082779" lon="13.120778188859695"><ele>167.0</ele><time>2026-04-12T16:12:49.999Z</time></trkpt><trkpt lat="46.193844154820844" lon="13.120733347596614"><ele>167.33333333333331</ele><time>2026-04-12T16:12:50.999Z</time></trkpt><trkpt lat="46.19363229504819" lon="13.120683158924004"><ele>167.66666666666666</ele><time>2026-04-12T16:12:51.999Z</time></trkpt><trkpt lat="46.193417699132205" lon="13.120633602728983"><ele>168.0</ele><time>2026-04-12T16:12:52.999Z</time></trkpt><trkpt lat="46.1931936700452" lon="13.12058214751002"><ele>167.0</ele><time>2026-04-12T16:12:53.999Z</time></trkpt><trkpt lat="46.19296836553794" lon="13.120527471656628"><ele>166.0</ele><time>2026-04-12T16:12:54.999Z</time></trkpt><trkpt lat="46.19273856227004" lon="13.120474928919899"><ele>166.0</ele><time>2026-04-12T16:12:55.999Z</time></trkpt><trkpt lat="46.19250271009516" lon="13.120420955304255"><ele>166.0</ele><time>2026-04-12T16:12:56.999Z</time></trkpt><trkpt lat="46.19226707151005" lon="13.120364245311361"><ele>165.5</ele><time>2026-04-12T16:12:57.999Z</time></trkpt><trkpt lat="46.19203341401205" lon="13.120314444878437"><ele>165.0</ele><time>2026-04-12T16:12:58.999Z</time></trkpt><trkpt lat="46.191810194171424" lon="13.120270862793637"><ele>165.0</ele><time>2026-04-12T16:12:59.999Z</time></trkpt><trkpt lat="46.191603959692486" lon="13.120241042566201"><ele>165.0</ele><time>2026-04-12T16:13:00.999Z</time></trkpt><trkpt lat="46.19140879054086" lon="13.12021631642005"><ele>165.0</ele><time>2026-04-12T16:13:01.999Z</time></trkpt><trkpt lat="46.19122033967378" lon="13.120199572906397"><ele>165.0</ele><time>2026-04-12T16:13:02.999Z</time></trkpt><trkpt lat="46.1910239496908" lon="13.120193456263449"><ele>165.0</ele><time>2026-04-12T16:13:03.999Z</time></trkpt><trkpt lat="46.19082514107077" lon="13.120194007692916"><ele>165.0</ele><time>2026-04-12T16:13:04.999Z</time></trkpt><trkpt lat="46.19062575580489" lon="13.120201594152412"><ele>165.33333333333334</ele><time>2026-04-12T16:13:05.999Z</time></trkpt><trkpt lat="46.19042619634847" lon="13.12021438978504"><ele>165.66666666666669</ele><time>2026-04-12T16:13:06.999Z</time></trkpt><trkpt lat="46.19022973540003" lon="13.120235746972739"><ele>166.0</ele><time>2026-04-12T16:13:07.999Z</time></trkpt><trkpt lat="46.19003791588548" lon="13.120262041908427"><ele>166.0</ele><time>2026-04-12T16:13:08.999Z</time></trkpt><trkpt lat="46.189849218760294" lon="13.12029868049721"><ele>166.0</ele><time>2026-04-12T16:13:09.999Z</time></trkpt><trkpt lat="46.18966727333049" lon="13.120341766086552"><ele>166.0</ele><time>2026-04-12T16:13:10.999Z</time></trkpt><trkpt lat="46.189491293714426" lon="13.120390819348525"><ele>167.33333333333334</ele><time>2026-04-12T16:13:11.999Z</time></trkpt><trkpt lat="46.18931902943766" lon="13.120445854677003"><ele>168.66666666666666</ele><time>2026-04-12T16:13:12.999Z</time></trkpt><trkpt lat="46.18914728336819" lon="13.120502927350188"><ele>170.0</ele><time>2026-04-12T16:13:13.999Z</time></trkpt><trkpt lat="46.18897376225124" lon="13.120566043219219"><ele>171.0</ele><time>2026-04-12T16:13:14.999Z</time></trkpt><trkpt lat="46.18879607767474" lon="13.120645442836148"><ele>172.0</ele><time>2026-04-12T16:13:15.999Z</time></trkpt><trkpt lat="46.18861305507288" lon="13.120725855699492"><ele>173.0</ele><time>2026-04-12T16:13:16.999Z</time></trkpt><trkpt lat="46.188420744418224" lon="13.12082065992413"><ele>173.0</ele><time>2026-04-12T16:13:17.999Z</time></trkpt><trkpt lat="46.18822682080419" lon="13.120927815032204"><ele>173.0</ele><time>2026-04-12T16:13:18.999Z</time></trkpt><trkpt lat="46.18803483800512" lon="13.121043183051867"><ele>173.0</ele><time>2026-04-12T16:13:19.999Z</time></trkpt><trkpt lat="46.18780421496686" lon="13.121172236073622"><ele>173.0</ele><time>2026-04-12T16:13:20.999Z</time></trkpt><trkpt lat="46.18756169006904" lon="13.12133120691632"><ele>173.0</ele><time>2026-04-12T16:13:21.999Z</time></trkpt><trkpt lat="46.18731271480464" lon="13.121493341512272"><ele>172.0</ele><time>2026-04-12T16:13:22.999Z</time></trkpt><trkpt lat="46.187070011486625" lon="13.121650225569901"><ele>171.0</ele><time>2026-04-12T16:13:23.999Z</time></trkpt><trkpt lat="46.186823640600124" lon="13.121825015857842"><ele>171.0</ele><time>2026-04-12T16:13:24.999Z</time></trkpt><trkpt lat="46.18656627015389" lon="13.121989428793912"><ele>171.0</ele><time>2026-04-12T16:13:25.999Z</time></trkpt><trkpt lat="46.18630539655796" lon="13.122158010536381"><ele>170.0</ele><time>2026-04-12T16:13:26.999Z</time></trkpt><trkpt lat="46.18606609836015" lon="13.122317992734052"><ele>169.0</ele><time>2026-04-12T16:13:27.999Z</time></trkpt><trkpt lat="46.18582940819553" lon="13.122470423097617"><ele>171.0</ele><time>2026-04-12T16:13:28.999Z</time></trkpt><trkpt lat="46.18559295270947" lon="13.122624274294262"><ele>173.0</ele><time>2026-04-12T16:13:29.999Z</time></trkpt><trkpt lat="46.18535365169974" lon="13.122778243000525"><ele>173.0</ele><time>2026-04-12T16:13:30.999Z</time></trkpt><trkpt lat="46.18511932057218" lon="13.12293018831674"><ele>173.0</ele><time>2026-04-12T16:13:31.999Z</time></trkpt><trkpt lat="46.184891898134154" lon="13.123079688115569"><ele>175.0</ele><time>2026-04-12T16:13:32.999Z</time></trkpt><trkpt lat="46.184661843151034" lon="13.12323003167152"><ele>177.0</ele><time>2026-04-12T16:13:33.999Z</time></trkpt><trkpt lat="46.18443646967714" lon="13.123378466905713"><ele>177.0</ele><time>2026-04-12T16:13:34.999Z</time></trkpt><trkpt lat="46.18420777003932" lon="13.123527819910827"><ele>177.0</ele><time>2026-04-12T16:13:35.999Z</time></trkpt><trkpt lat="46.18397367570593" lon="13.123656388926856"><ele>177.0</ele><time>2026-04-12T16:13:36.999Z</time></trkpt><trkpt lat="46.18373820749715" lon="13.123809547601553"><ele>177.0</ele><time>2026-04-12T16:13:37.999Z</time></trkpt><trkpt lat="46.183500780762785" lon="13.123964254817157"><ele>177.0</ele><time>2026-04-12T16:13:38.999Z</time></trkpt><trkpt lat="46.183264889813366" lon="13.124142204037028"><ele>177.0</ele><time>2026-04-12T16:13:39.999Z</time></trkpt><trkpt lat="46.18302100199459" lon="13.124299975696795"><ele>176.5</ele><time>2026-04-12T16:13:40.999Z</time></trkpt><trkpt lat="46.18277981936139" lon="13.124453665139674"><ele>176.0</ele><time>2026-04-12T16:13:41.999Z</time></trkpt><trkpt lat="46.182544648209685" lon="13.124603590401012"><ele>178.5</ele><time>2026-04-12T16:13:42.999Z</time></trkpt><trkpt lat="46.1823105444185" lon="13.124752593121435"><ele>181.0</ele><time>2026-04-12T16:13:43.999Z</time></trkpt><trkpt lat="46.182079921424986" lon="13.124900621284747"><ele>181.0</ele><time>2026-04-12T16:13:44.999Z</time></trkpt><trkpt lat="46.18184752210856" lon="13.125053070316477"><ele>181.0</ele><time>2026-04-12T16:13:46Z</time></trkpt><trkpt lat="46.18161367800329" lon="13.12520813416607"><ele>181.5</ele><time>2026-04-12T16:13:47Z</time></trkpt><trkpt lat="46.181374708386365" lon="13.125360255692822"><ele>182.0</ele><time>2026-04-12T16:13:48Z</time></trkpt><trkpt lat="46.18113914950776" lon="13.125512989459018"><ele>182.0</ele><time>2026-04-12T16:13:49Z</time></trkpt><trkpt lat="46.18091096610557" lon="13.12566181916975"><ele>182.0</ele><time>2026-04-12T16:13:50Z</time></trkpt><trkpt lat="46.18068073588884" lon="13.125810441543932"><ele>182.5</ele><time>2026-04-12T16:13:51Z</time></trkpt><trkpt lat="46.18044546336956" lon="13.125959801994462"><ele>183.0</ele><time>2026-04-12T16:13:52Z</time></trkpt><trkpt lat="46.18021007597318" lon="13.126113589850938"><ele>183.0</ele><time>2026-04-12T16:13:53Z</time></trkpt><trkpt lat="46.179974524785386" lon="13.126268489482518"><ele>183.0</ele><time>2026-04-12T16:13:54Z</time></trkpt><trkpt lat="46.17974245585309" lon="13.126412839794602"><ele>183.5</ele><time>2026-04-12T16:13:55Z</time></trkpt><trkpt lat="46.17951744633925" lon="13.12656114338567"><ele>184.0</ele><time>2026-04-12T16:13:56Z</time></trkpt><trkpt lat="46.1792875817685" lon="13.126688072075872"><ele>184.0</ele><time>2026-04-12T16:13:57Z</time></trkpt><trkpt lat="46.17907021487161" lon="13.126847587546155"><ele>184.0</ele><time>2026-04-12T16:13:58Z</time></trkpt><trkpt lat="46.17887246834315" lon="13.126981179450448"><ele>184.0</ele><time>2026-04-12T16:13:59Z</time></trkpt><trkpt lat="46.17867763735746" lon="13.127106873219068"><ele>184.0</ele><time>2026-04-12T16:14:00Z</time></trkpt><trkpt lat="46.178490059165064" lon="13.127223694654184"><ele>184.0</ele><time>2026-04-12T16:14:01Z</time></trkpt><trkpt lat="46.17831204989816" lon="13.127338384704585"><ele>184.33333333333334</ele><time>2026-04-12T16:14:02Z</time></trkpt><trkpt lat="46.17815368359192" lon="13.127440591390636"><ele>184.66666666666666</ele><time>2026-04-12T16:14:03Z</time></trkpt><trkpt lat="46.177998317888616" lon="13.1275430117423"><ele>185.0</ele><time>2026-04-12T16:14:04Z</time></trkpt><trkpt lat="46.177847000342766" lon="13.12764060276684"><ele>185.0</ele><time>2026-04-12T16:14:05Z</time></trkpt><trkpt lat="46.177705283126585" lon="13.127732738911526"><ele>185.0</ele><time>2026-04-12T16:14:06Z</time></trkpt><trkpt lat="46.177582198097326" lon="13.12781182326283"><ele>185.0</ele><time>2026-04-12T16:14:07Z</time></trkpt><trkpt lat="46.17747678748869" lon="13.127867515968433"><ele>185.0</ele><time>2026-04-12T16:14:08Z</time></trkpt><trkpt lat="46.177370853739646" lon="13.127894511674263"><ele>185.6</ele><time>2026-04-12T16:14:09Z</time></trkpt><trkpt lat="46.177265255293435" lon="13.127886110773032"><ele>186.2</ele><time>2026-04-12T16:14:10Z</time></trkpt><trkpt lat="46.17717784126591" lon="13.127833742666153"><ele>186.8</ele><time>2026-04-12T16:14:11Z</time></trkpt><trkpt lat="46.17709634223227" lon="13.127816979966479"><ele>187.4</ele><time>2026-04-12T16:14:12Z</time></trkpt><trkpt lat="46.177018846358415" lon="13.12786986327848"><ele>188.0</ele><time>2026-04-12T16:14:13Z</time></trkpt><trkpt lat="46.17695532951513" lon="13.127971757233253"><ele>188.0</ele><time>2026-04-12T16:14:14Z</time></trkpt><trkpt lat="46.17689793650508" lon="13.128117849955741"><ele>188.0</ele><time>2026-04-12T16:14:15Z</time></trkpt><trkpt lat="46.17681204772956" lon="13.12825637444373"><ele>188.0</ele><time>2026-04-12T16:14:16Z</time></trkpt><trkpt lat="46.176677988645686" lon="13.128384626654158"><ele>188.0</ele><time>2026-04-12T16:14:17Z</time></trkpt><trkpt lat="46.1765066120106" lon="13.12851251245957"><ele>189.66666666666666</ele><time>2026-04-12T16:14:18Z</time></trkpt><trkpt lat="46.17631759959817" lon="13.128628242004305"><ele>191.33333333333331</ele><time>2026-04-12T16:14:19Z</time></trkpt><trkpt lat="46.176133888794574" lon="13.12874682837758"><ele>193.0</ele><time>2026-04-12T16:14:20Z</time></trkpt><trkpt lat="46.175964286957125" lon="13.128857323057666"><ele>193.0</ele><time>2026-04-12T16:14:21Z</time></trkpt><trkpt lat="46.175795437364975" lon="13.128966240208971"><ele>193.0</ele><time>2026-04-12T16:14:22Z</time></trkpt><trkpt lat="46.17561887028561" lon="13.12908294957466"><ele>193.0</ele><time>2026-04-12T16:14:23Z</time></trkpt><trkpt lat="46.17543393726146" lon="13.129201343549768"><ele>193.33333333333331</ele><time>2026-04-12T16:14:24Z</time></trkpt><trkpt lat="46.17525374074298" lon="13.129319324503063"><ele>193.66666666666669</ele><time>2026-04-12T16:14:25Z</time></trkpt><trkpt lat="46.17507483566833" lon="13.1294341016838"><ele>194.0</ele><time>2026-04-12T16:14:26Z</time></trkpt><trkpt lat="46.17488972419807" lon="13.129552385309044"><ele>192.66666666666669</ele><time>2026-04-12T16:14:27Z</time></trkpt><trkpt lat="46.17469903336489" lon="13.129676616733407"><ele>191.33333333333334</ele><time>2026-04-12T16:14:27.999Z</time></trkpt><trkpt lat="46.17450345402479" lon="13.1298056761209"><ele>190.0</ele><time>2026-04-12T16:14:28.999Z</time></trkpt><trkpt lat="46.1742994904604" lon="13.129937881759755"><ele>189.5</ele><time>2026-04-12T16:14:29.999Z</time></trkpt><trkpt lat="46.17408950150336" lon="13.1300722222457"><ele>189.0</ele><time>2026-04-12T16:14:30.999Z</time></trkpt><trkpt lat="46.173879627135314" lon="13.130208512872152"><ele>189.0</ele><time>2026-04-12T16:14:31.999Z</time></trkpt><trkpt lat="46.173671699927965" lon="13.130344423633964"><ele>189.0</ele><time>2026-04-12T16:14:32.999Z</time></trkpt><trkpt lat="46.173465165593704" lon="13.1304771913282"><ele>189.0</ele><time>2026-04-12T16:14:33.999Z</time></trkpt><trkpt lat="46.17325982543756" lon="13.130612415891752"><ele>189.0</ele><time>2026-04-12T16:14:34.999Z</time></trkpt><trkpt lat="46.173053780946056" lon="13.130745405715102"><ele>187.5</ele><time>2026-04-12T16:14:35.999Z</time></trkpt><trkpt lat="46.172846545734316" lon="13.130878470265543"><ele>186.0</ele><time>2026-04-12T16:14:36.999Z</time></trkpt><trkpt lat="46.17263609957214" lon="13.131013088251224"><ele>186.0</ele><time>2026-04-12T16:14:37.999Z</time></trkpt><trkpt lat="46.1724222775389" lon="13.131149744911104"><ele>186.0</ele><time>2026-04-12T16:14:38.999Z</time></trkpt><trkpt lat="46.17220492031507" lon="13.131288835856425"><ele>184.5</ele><time>2026-04-12T16:14:39.999Z</time></trkpt><trkpt lat="46.17198804657252" lon="13.131432335173011"><ele>183.0</ele><time>2026-04-12T16:14:40.999Z</time></trkpt><trkpt lat="46.17177100388223" lon="13.131575780830465"><ele>183.0</ele><time>2026-04-12T16:14:41.999Z</time></trkpt><trkpt lat="46.17155190367564" lon="13.131718481470836"><ele>183.0</ele><time>2026-04-12T16:14:42.999Z</time></trkpt><trkpt lat="46.171333026894494" lon="13.131861073974173"><ele>184.5</ele><time>2026-04-12T16:14:43.999Z</time></trkpt><trkpt lat="46.171115163146254" lon="13.132002272658077"><ele>186.0</ele><time>2026-04-12T16:14:44.999Z</time></trkpt><trkpt lat="46.17089722760225" lon="13.132140715622334"><ele>186.0</ele><time>2026-04-12T16:14:45.999Z</time></trkpt><trkpt lat="46.17067922486985" lon="13.132283109636337"><ele>186.0</ele><time>2026-04-12T16:14:46.999Z</time></trkpt><trkpt lat="46.17046222022903" lon="13.132424788860677"><ele>187.0</ele><time>2026-04-12T16:14:47.999Z</time></trkpt><trkpt lat="46.17024306096756" lon="13.132563058295752"><ele>188.0</ele><time>2026-04-12T16:14:48.999Z</time></trkpt><trkpt lat="46.17002553546833" lon="13.132696729563094"><ele>188.0</ele><time>2026-04-12T16:14:49.999Z</time></trkpt><trkpt lat="46.16980805342911" lon="13.132826390550987"><ele>188.0</ele><time>2026-04-12T16:14:50.999Z</time></trkpt><trkpt lat="46.16958780534744" lon="13.132952790328797"><ele>188.0</ele><time>2026-04-12T16:14:51.999Z</time></trkpt><trkpt lat="46.169364171332454" lon="13.133067933917298"><ele>188.0</ele><time>2026-04-12T16:14:52.999Z</time></trkpt><trkpt lat="46.169139680573196" lon="13.133169185143592"><ele>193.0</ele><time>2026-04-12T16:14:53.999Z</time></trkpt><trkpt lat="46.16891104679528" lon="13.133262243865309"><ele>198.0</ele><time>2026-04-12T16:14:54.999Z</time></trkpt><trkpt lat="46.16867835086315" lon="13.133347565159522"><ele>198.0</ele><time>2026-04-12T16:14:55.999Z</time></trkpt><trkpt lat="46.16844105868986" lon="13.133426767004863"><ele>198.0</ele><time>2026-04-12T16:14:56.999Z</time></trkpt><trkpt lat="46.16819983962586" lon="13.133490492041112"><ele>200.0</ele><time>2026-04-12T16:14:57.999Z</time></trkpt><trkpt lat="46.167953657074854" lon="13.133544131346778"><ele>202.0</ele><time>2026-04-12T16:14:58.999Z</time></trkpt><trkpt lat="46.16770288521453" lon="13.133588930868777"><ele>202.0</ele><time>2026-04-12T16:14:59.999Z</time></trkpt><trkpt lat="46.16745272892227" lon="13.133620808729264"><ele>202.0</ele><time>2026-04-12T16:15:00.999Z</time></trkpt><trkpt lat="46.16719420333361" lon="13.133644231902014"><ele>201.0</ele><time>2026-04-12T16:15:01.999Z</time></trkpt><trkpt lat="46.16693051898227" lon="13.133622754306192"><ele>200.0</ele><time>2026-04-12T16:15:02.999Z</time></trkpt><trkpt lat="46.166669236221395" lon="13.133621233079777"><ele>195.5</ele><time>2026-04-12T16:15:03.999Z</time></trkpt><trkpt lat="46.166409682375146" lon="13.133612166538065"><ele>191.0</ele><time>2026-04-12T16:15:04.999Z</time></trkpt><trkpt lat="46.16615867213009" lon="13.133603398437845"><ele>191.0</ele><time>2026-04-12T16:15:05.999Z</time></trkpt><trkpt lat="46.165916243414024" lon="13.133594930098443"><ele>191.0</ele><time>2026-04-12T16:15:06.999Z</time></trkpt><trkpt lat="46.1656774216768" lon="13.133587511893905"><ele>190.5</ele><time>2026-04-12T16:15:07.999Z</time></trkpt><trkpt lat="46.16543923974204" lon="13.133580208321362"><ele>190.0</ele><time>2026-04-12T16:15:08.999Z</time></trkpt><trkpt lat="46.16520052836461" lon="13.133573546067105"><ele>190.0</ele><time>2026-04-12T16:15:09.999Z</time></trkpt><trkpt lat="46.16496317600343" lon="13.133566782509664"><ele>190.0</ele><time>2026-04-12T16:15:10.999Z</time></trkpt><trkpt lat="46.16472722265906" lon="13.133581940902737"><ele>189.0</ele><time>2026-04-12T16:15:11.999Z</time></trkpt><trkpt lat="46.164490143068015" lon="13.133573017046267"><ele>188.0</ele><time>2026-04-12T16:15:12.999Z</time></trkpt><trkpt lat="46.16425437406194" lon="13.133564914429122"><ele>189.5</ele><time>2026-04-12T16:15:13.999Z</time></trkpt><trkpt lat="46.164017898034686" lon="13.133558464125459"><ele>191.0</ele><time>2026-04-12T16:15:14.999Z</time></trkpt><trkpt lat="46.16378045614056" lon="13.133552024845564"><ele>191.0</ele><time>2026-04-12T16:15:15.999Z</time></trkpt><trkpt lat="46.16354503067895" lon="13.133521777058737"><ele>191.0</ele><time>2026-04-12T16:15:16.999Z</time></trkpt><trkpt lat="46.16330903847937" lon="13.133513165762055"><ele>191.5</ele><time>2026-04-12T16:15:17.999Z</time></trkpt><trkpt lat="46.163077150500435" lon="13.133505133939535"><ele>192.0</ele><time>2026-04-12T16:15:18.999Z</time></trkpt><trkpt lat="46.16284978385209" lon="13.13352230817501"><ele>192.0</ele><time>2026-04-12T16:15:19.999Z</time></trkpt><trkpt lat="46.162626153140096" lon="13.133513876200846"><ele>192.0</ele><time>2026-04-12T16:15:20.999Z</time></trkpt><trkpt lat="46.16240217820296" lon="13.133506965640004"><ele>192.0</ele><time>2026-04-12T16:15:21.999Z</time></trkpt><trkpt lat="46.162179756845426" lon="13.13350413235458"><ele>192.0</ele><time>2026-04-12T16:15:22.999Z</time></trkpt><trkpt lat="46.16195738536435" lon="13.133510162572401"><ele>192.0</ele><time>2026-04-12T16:15:23.999Z</time></trkpt><trkpt lat="46.16173286046248" lon="13.133528579525438"><ele>192.0</ele><time>2026-04-12T16:15:24.999Z</time></trkpt><trkpt lat="46.161505915556106" lon="13.133526566586761"><ele>194.0</ele><time>2026-04-12T16:15:25.999Z</time></trkpt><trkpt lat="46.16127841813848" lon="13.133558950723154"><ele>196.0</ele><time>2026-04-12T16:15:26.999Z</time></trkpt><trkpt lat="46.16105114483769" lon="13.133623023350404"><ele>196.0</ele><time>2026-04-12T16:15:27.999Z</time></trkpt><trkpt lat="46.160823474691654" lon="13.133671976648788"><ele>196.0</ele><time>2026-04-12T16:15:28.999Z</time></trkpt><trkpt lat="46.16059828177096" lon="13.133727269620039"><ele>196.0</ele><time>2026-04-12T16:15:29.999Z</time></trkpt><trkpt lat="46.16037528923062" lon="13.133791644659206"><ele>196.0</ele><time>2026-04-12T16:15:30.999Z</time></trkpt><trkpt lat="46.16015138521963" lon="13.133865809617248"><ele>196.0</ele><time>2026-04-12T16:15:31.999Z</time></trkpt><trkpt lat="46.159926789789516" lon="13.133952090936049"><ele>196.0</ele><time>2026-04-12T16:15:32.999Z</time></trkpt><trkpt lat="46.15969959166482" lon="13.134043874341547"><ele>193.5</ele><time>2026-04-12T16:15:33.999Z</time></trkpt><trkpt lat="46.15946909059913" lon="13.134147731669216"><ele>191.0</ele><time>2026-04-12T16:15:34.999Z</time></trkpt><trkpt lat="46.15923698382948" lon="13.13426389328304"><ele>188.5</ele><time>2026-04-12T16:15:35.999Z</time></trkpt><trkpt lat="46.15900664680926" lon="13.134387998199925"><ele>186.0</ele><time>2026-04-12T16:15:36.999Z</time></trkpt><trkpt lat="46.158777227208375" lon="13.134520215375492"><ele>186.0</ele><time>2026-04-12T16:15:37.999Z</time></trkpt><trkpt lat="46.15854967907428" lon="13.134660073695022"><ele>186.0</ele><time>2026-04-12T16:15:38.999Z</time></trkpt><trkpt lat="46.15832168215805" lon="13.13480837122009"><ele>184.5</ele><time>2026-04-12T16:15:39.999Z</time></trkpt><trkpt lat="46.15809497270536" lon="13.134970149694793"><ele>183.0</ele><time>2026-04-12T16:15:40.999Z</time></trkpt><trkpt lat="46.157871117915306" lon="13.135146489077966"><ele>183.0</ele><time>2026-04-12T16:15:41.999Z</time></trkpt><trkpt lat="46.15764921037974" lon="13.135333556233299"><ele>183.0</ele><time>2026-04-12T16:15:42.999Z</time></trkpt><trkpt lat="46.15742992593387" lon="13.135524840685786"><ele>182.0</ele><time>2026-04-12T16:15:43.999Z</time></trkpt><trkpt lat="46.15721224839107" lon="13.135727258361753"><ele>181.0</ele><time>2026-04-12T16:15:44.999Z</time></trkpt><trkpt lat="46.156999867389466" lon="13.13593800354847"><ele>181.0</ele><time>2026-04-12T16:15:45.999Z</time></trkpt><trkpt lat="46.15679483655607" lon="13.136157634223945"><ele>181.0</ele><time>2026-04-12T16:15:46.999Z</time></trkpt><trkpt lat="46.15659129612202" lon="13.136388670171653"><ele>181.0</ele><time>2026-04-12T16:15:47.999Z</time></trkpt><trkpt lat="46.1563897271063" lon="13.136628193678048"><ele>181.0</ele><time>2026-04-12T16:15:48.999Z</time></trkpt><trkpt lat="46.15619441968919" lon="13.136876827532808"><ele>181.0</ele><time>2026-04-12T16:15:49.999Z</time></trkpt><trkpt lat="46.156003231538264" lon="13.137130968740289"><ele>181.0</ele><time>2026-04-12T16:15:50.999Z</time></trkpt><trkpt lat="46.15581974600758" lon="13.13739222874047"><ele>181.0</ele><time>2026-04-12T16:15:52Z</time></trkpt><trkpt lat="46.155642342986795" lon="13.137664425986781"><ele>181.0</ele><time>2026-04-12T16:15:53Z</time></trkpt><trkpt lat="46.155469993826685" lon="13.137945164950253"><ele>180.5</ele><time>2026-04-12T16:15:54Z</time></trkpt><trkpt lat="46.15530284761524" lon="13.138231443936476"><ele>180.0</ele><time>2026-04-12T16:15:55Z</time></trkpt><trkpt lat="46.15514096612941" lon="13.138523072794076"><ele>180.0</ele><time>2026-04-12T16:15:56Z</time></trkpt><trkpt lat="46.15498346161798" lon="13.138824541677774"><ele>180.0</ele><time>2026-04-12T16:15:57Z</time></trkpt><trkpt lat="46.15483131852461" lon="13.139127950734489"><ele>180.0</ele><time>2026-04-12T16:15:58Z</time></trkpt><trkpt lat="46.15468549296085" lon="13.139437951921723"><ele>180.0</ele><time>2026-04-12T16:15:59Z</time></trkpt><trkpt lat="46.15454666021196" lon="13.139756861815068"><ele>180.5</ele><time>2026-04-12T16:16:00Z</time></trkpt><trkpt lat="46.15441463962478" lon="13.140082942222449"><ele>181.0</ele><time>2026-04-12T16:16:01Z</time></trkpt><trkpt lat="46.15428734513672" lon="13.140417007497685"><ele>181.0</ele><time>2026-04-12T16:16:02Z</time></trkpt><trkpt lat="46.154166244941095" lon="13.140757160208015"><ele>181.0</ele><time>2026-04-12T16:16:03Z</time></trkpt><trkpt lat="46.154050943833866" lon="13.141102557649498"><ele>184.5</ele><time>2026-04-12T16:16:04Z</time></trkpt><trkpt lat="46.15394384888428" lon="13.14145487610828"><ele>188.0</ele><time>2026-04-12T16:16:05Z</time></trkpt><trkpt lat="46.15384303760972" lon="13.141813863036397"><ele>189.0</ele><time>2026-04-12T16:16:06Z</time></trkpt><trkpt lat="46.15374446017188" lon="13.142177640645622"><ele>190.0</ele><time>2026-04-12T16:16:07Z</time></trkpt><trkpt lat="46.15364458141316" lon="13.142539341599122"><ele>188.0</ele><time>2026-04-12T16:16:08Z</time></trkpt><trkpt lat="46.15354544650417" lon="13.142901646527166"><ele>186.0</ele><time>2026-04-12T16:16:09Z</time></trkpt><trkpt lat="46.15344454998379" lon="13.143265150907286"><ele>185.0</ele><time>2026-04-12T16:16:10Z</time></trkpt><trkpt lat="46.15334438995981" lon="13.143625758320272"><ele>184.0</ele><time>2026-04-12T16:16:11Z</time></trkpt><trkpt lat="46.15324310220267" lon="13.143987369194337"><ele>188.0</ele><time>2026-04-12T16:16:12Z</time></trkpt><trkpt lat="46.15314369010366" lon="13.144346835461429"><ele>192.0</ele><time>2026-04-12T16:16:13Z</time></trkpt><trkpt lat="46.1530456029696" lon="13.144707437772553"><ele>190.0</ele><time>2026-04-12T16:16:14Z</time></trkpt><trkpt lat="46.15294771487083" lon="13.145069393365592"><ele>188.0</ele><time>2026-04-12T16:16:15Z</time></trkpt><trkpt lat="46.15284773191677" lon="13.14543326225069"><ele>186.5</ele><time>2026-04-12T16:16:16Z</time></trkpt><trkpt lat="46.152748658471964" lon="13.145798964254748"><ele>185.0</ele><time>2026-04-12T16:16:17Z</time></trkpt><trkpt lat="46.15264918102747" lon="13.146161732232539"><ele>185.0</ele><time>2026-04-12T16:16:18Z</time></trkpt><trkpt lat="46.1525473897404" lon="13.146527743334122"><ele>185.0</ele><time>2026-04-12T16:16:19Z</time></trkpt><trkpt lat="46.15244506803215" lon="13.146893913637921"><ele>184.5</ele><time>2026-04-12T16:16:20Z</time></trkpt><trkpt lat="46.152344026597426" lon="13.14726084115494"><ele>184.0</ele><time>2026-04-12T16:16:21Z</time></trkpt><trkpt lat="46.152244293899315" lon="13.147626665273439"><ele>184.0</ele><time>2026-04-12T16:16:22Z</time></trkpt><trkpt lat="46.15214467339692" lon="13.14799061279493"><ele>184.0</ele><time>2026-04-12T16:16:23Z</time></trkpt><trkpt lat="46.152044967014994" lon="13.148352622154572"><ele>184.5</ele><time>2026-04-12T16:16:24Z</time></trkpt><trkpt lat="46.15194536714507" lon="13.148710592418041"><ele>185.0</ele><time>2026-04-12T16:16:25Z</time></trkpt><trkpt lat="46.15184746938765" lon="13.149066529353977"><ele>184.0</ele><time>2026-04-12T16:16:26Z</time></trkpt><trkpt lat="46.15174909680082" lon="13.149420664602085"><ele>183.0</ele><time>2026-04-12T16:16:27Z</time></trkpt><trkpt lat="46.15165124405795" lon="13.149771145791023"><ele>182.0</ele><time>2026-04-12T16:16:28Z</time></trkpt><trkpt lat="46.15155350626663" lon="13.150118663287055"><ele>181.0</ele><time>2026-04-12T16:16:29Z</time></trkpt><trkpt lat="46.15145497742558" lon="13.150466946996424"><ele>180.0</ele><time>2026-04-12T16:16:30Z</time></trkpt><trkpt lat="46.151351302078496" lon="13.150812934611386"><ele>179.0</ele><time>2026-04-12T16:16:31Z</time></trkpt><trkpt lat="46.15124108794902" lon="13.151154397477574"><ele>179.0</ele><time>2026-04-12T16:16:31.999Z</time></trkpt><trkpt lat="46.15112266305833" lon="13.151489159572614"><ele>179.0</ele><time>2026-04-12T16:16:32.999Z</time></trkpt><trkpt lat="46.150997663936515" lon="13.151822664362209"><ele>178.5</ele><time>2026-04-12T16:16:33.999Z</time></trkpt><trkpt lat="46.150864120464064" lon="13.15214684526896"><ele>178.0</ele><time>2026-04-12T16:16:34.999Z</time></trkpt><trkpt lat="46.1507203847966" lon="13.152459530133601"><ele>178.5</ele><time>2026-04-12T16:16:35.999Z</time></trkpt><trkpt lat="46.150571960575284" lon="13.152766817434289"><ele>179.0</ele><time>2026-04-12T16:16:36.999Z</time></trkpt><trkpt lat="46.150420195602585" lon="13.153069419799305"><ele>180.0</ele><time>2026-04-12T16:16:37.999Z</time></trkpt><trkpt lat="46.15026586393061" lon="13.15337003061083"><ele>181.0</ele><time>2026-04-12T16:16:38.999Z</time></trkpt><trkpt lat="46.15010637237603" lon="13.153666286798495"><ele>181.0</ele><time>2026-04-12T16:16:39.999Z</time></trkpt><trkpt lat="46.14994093647349" lon="13.153957177695057"><ele>181.0</ele><time>2026-04-12T16:16:40.999Z</time></trkpt><trkpt lat="46.1497684790183" lon="13.154235716177919"><ele>181.5</ele><time>2026-04-12T16:16:41.999Z</time></trkpt><trkpt lat="46.14959109682949" lon="13.154506946364283"><ele>182.0</ele><time>2026-04-12T16:16:42.999Z</time></trkpt><trkpt lat="46.14941085089445" lon="13.154767142890034"><ele>182.5</ele><time>2026-04-12T16:16:43.999Z</time></trkpt><trkpt lat="46.14922414912814" lon="13.155020002429762"><ele>183.0</ele><time>2026-04-12T16:16:44.999Z</time></trkpt><trkpt lat="46.149034077214495" lon="13.155264174019152"><ele>183.0</ele><time>2026-04-12T16:16:45.999Z</time></trkpt><trkpt lat="46.14883934667557" lon="13.155503980717066"><ele>183.0</ele><time>2026-04-12T16:16:46.999Z</time></trkpt><trkpt lat="46.14864271189145" lon="13.155733236641465"><ele>182.5</ele><time>2026-04-12T16:16:47.999Z</time></trkpt><trkpt lat="46.14844006311928" lon="13.155952771542871"><ele>182.0</ele><time>2026-04-12T16:16:48.999Z</time></trkpt><trkpt lat="46.148235301947174" lon="13.156162307139763"><ele>181.5</ele><time>2026-04-12T16:16:49.999Z</time></trkpt><trkpt lat="46.14802906642704" lon="13.156366670583406"><ele>181.0</ele><time>2026-04-12T16:16:50.999Z</time></trkpt><trkpt lat="46.14782129250853" lon="13.156567193351103"><ele>181.0</ele><time>2026-04-12T16:16:51.999Z</time></trkpt><trkpt lat="46.14761476822413" lon="13.156764420940293"><ele>181.0</ele><time>2026-04-12T16:16:52.999Z</time></trkpt><trkpt lat="46.14741007167276" lon="13.156959871907224"><ele>183.0</ele><time>2026-04-12T16:16:53.999Z</time></trkpt><trkpt lat="46.14720694882531" lon="13.15715245714947"><ele>185.0</ele><time>2026-04-12T16:16:54.999Z</time></trkpt><trkpt lat="46.14700520005689" lon="13.15734132114039"><ele>185.5</ele><time>2026-04-12T16:16:55.999Z</time></trkpt><trkpt lat="46.14680466331026" lon="13.157531127297913"><ele>186.0</ele><time>2026-04-12T16:16:56.999Z</time></trkpt><trkpt lat="46.1466042557255" lon="13.157718197066385"><ele>185.5</ele><time>2026-04-12T16:16:57.999Z</time></trkpt><trkpt lat="46.14640422453763" lon="13.157904973514894"><ele>185.0</ele><time>2026-04-12T16:16:58.999Z</time></trkpt><trkpt lat="46.14620537912961" lon="13.158091564078992"><ele>185.0</ele><time>2026-04-12T16:16:59.999Z</time></trkpt><trkpt lat="46.146005801088414" lon="13.158280352402794"><ele>185.0</ele><time>2026-04-12T16:17:00.999Z</time></trkpt><trkpt lat="46.14580499058026" lon="13.158471169722741"><ele>185.5</ele><time>2026-04-12T16:17:01.999Z</time></trkpt><trkpt lat="46.14560399826467" lon="13.158662369394797"><ele>186.0</ele><time>2026-04-12T16:17:02.999Z</time></trkpt><trkpt lat="46.145401886793366" lon="13.158852434909981"><ele>186.0</ele><time>2026-04-12T16:17:03.999Z</time></trkpt><trkpt lat="46.14520018021658" lon="13.15904525351167"><ele>186.0</ele><time>2026-04-12T16:17:04.999Z</time></trkpt><trkpt lat="46.1449978192225" lon="13.159237055362084"><ele>185.0</ele><time>2026-04-12T16:17:05.999Z</time></trkpt><trkpt lat="46.14479469926392" lon="13.159429761741297"><ele>184.0</ele><time>2026-04-12T16:17:06.999Z</time></trkpt><trkpt lat="46.14459220187172" lon="13.159621943194201"><ele>184.0</ele><time>2026-04-12T16:17:07.999Z</time></trkpt><trkpt lat="46.14438684033764" lon="13.159816087360976"><ele>184.0</ele><time>2026-04-12T16:17:08.999Z</time></trkpt><trkpt lat="46.144181124721094" lon="13.160011365666724"><ele>184.0</ele><time>2026-04-12T16:17:09.999Z</time></trkpt><trkpt lat="46.143973225536925" lon="13.160207603296149"><ele>184.0</ele><time>2026-04-12T16:17:10.999Z</time></trkpt><trkpt lat="46.14376559767707" lon="13.160405524383082"><ele>184.0</ele><time>2026-04-12T16:17:11.999Z</time></trkpt><trkpt lat="46.14355582945228" lon="13.160605160315827"><ele>184.0</ele><time>2026-04-12T16:17:12.999Z</time></trkpt><trkpt lat="46.14334795202628" lon="13.160802365779109"><ele>184.0</ele><time>2026-04-12T16:17:13.999Z</time></trkpt><trkpt lat="46.14314004376882" lon="13.160998713881549"><ele>184.0</ele><time>2026-04-12T16:17:14.999Z</time></trkpt><trkpt lat="46.14293157950461" lon="13.161199066400581"><ele>184.0</ele><time>2026-04-12T16:17:15.999Z</time></trkpt><trkpt lat="46.142723171559055" lon="13.161399598444198"><ele>184.0</ele><time>2026-04-12T16:17:16.999Z</time></trkpt><trkpt lat="46.142512013098674" lon="13.161600143324252"><ele>182.5</ele><time>2026-04-12T16:17:17.999Z</time></trkpt><trkpt lat="46.14230268394067" lon="13.161800523903226"><ele>181.0</ele><time>2026-04-12T16:17:18.999Z</time></trkpt><trkpt lat="46.142106767657225" lon="13.161987728474523"><ele>181.0</ele><time>2026-04-12T16:17:19.999Z</time></trkpt><trkpt lat="46.14192086437494" lon="13.162162397302266"><ele>181.0</ele><time>2026-04-12T16:17:20.999Z</time></trkpt><trkpt lat="46.14174114969309" lon="13.162329815983528"><ele>181.0</ele><time>2026-04-12T16:17:21.999Z</time></trkpt><trkpt lat="46.141563441785216" lon="13.162504074224424"><ele>181.0</ele><time>2026-04-12T16:17:22.999Z</time></trkpt><trkpt lat="46.14138360937301" lon="13.16268206482489"><ele>181.0</ele><time>2026-04-12T16:17:23.999Z</time></trkpt><trkpt lat="46.141201356280014" lon="13.162855292202938"><ele>181.0</ele><time>2026-04-12T16:17:24.999Z</time></trkpt><trkpt lat="46.141023138172635" lon="13.163025323384137"><ele>181.0</ele><time>2026-04-12T16:17:25.999Z</time></trkpt><trkpt lat="46.140849748747314" lon="13.163192669304687"><ele>181.0</ele><time>2026-04-12T16:17:26.999Z</time></trkpt><trkpt lat="46.140681280335" lon="13.16335459993953"><ele>181.0</ele><time>2026-04-12T16:17:27.999Z</time></trkpt><trkpt lat="46.14052278123828" lon="13.163509616335617"><ele>180.66666666666669</ele><time>2026-04-12T16:17:28.999Z</time></trkpt><trkpt lat="46.14037532111749" lon="13.163667553993438"><ele>180.33333333333334</ele><time>2026-04-12T16:17:29.999Z</time></trkpt><trkpt lat="46.1402366465141" lon="13.163842467780674"><ele>180.0</ele><time>2026-04-12T16:17:30.999Z</time></trkpt><trkpt lat="46.14011312122901" lon="13.164038004815676"><ele>179.66666666666666</ele><time>2026-04-12T16:17:31.999Z</time></trkpt><trkpt lat="46.140005900060146" lon="13.164250858096795"><ele>179.33333333333331</ele><time>2026-04-12T16:17:32.999Z</time></trkpt><trkpt lat="46.139910170614044" lon="13.164476066268511"><ele>179.0</ele><time>2026-04-12T16:17:33.999Z</time></trkpt><trkpt lat="46.13982120594997" lon="13.164708359576041"><ele>179.66666666666666</ele><time>2026-04-12T16:17:34.999Z</time></trkpt><trkpt lat="46.1397283475207" lon="13.164940363608592"><ele>180.33333333333334</ele><time>2026-04-12T16:17:35.999Z</time></trkpt><trkpt lat="46.13963129559812" lon="13.16517248390283"><ele>181.0</ele><time>2026-04-12T16:17:36.999Z</time></trkpt><trkpt lat="46.139535111428174" lon="13.165386941667316"><ele>181.0</ele><time>2026-04-12T16:17:37.999Z</time></trkpt><trkpt lat="46.13943117744169" lon="13.165582075637477"><ele>181.0</ele><time>2026-04-12T16:17:38.999Z</time></trkpt><trkpt lat="46.1393126934763" lon="13.165763046432119"><ele>181.0</ele><time>2026-04-12T16:17:39.999Z</time></trkpt><trkpt lat="46.139181422905004" lon="13.16592497222396"><ele>182.0</ele><time>2026-04-12T16:17:40.999Z</time></trkpt><trkpt lat="46.13903074192237" lon="13.166044882207949"><ele>183.0</ele><time>2026-04-12T16:17:41.999Z</time></trkpt><trkpt lat="46.138889184646736" lon="13.16616283275069"><ele>184.0</ele><time>2026-04-12T16:17:42.999Z</time></trkpt><trkpt lat="46.138746058833725" lon="13.166279758603542"><ele>184.0</ele><time>2026-04-12T16:17:43.999Z</time></trkpt><trkpt lat="46.13861425183162" lon="13.166414646877616"><ele>184.0</ele><time>2026-04-12T16:17:44.999Z</time></trkpt><trkpt lat="46.1384814090495" lon="13.166531290028257"><ele>184.0</ele><time>2026-04-12T16:17:45.999Z</time></trkpt><trkpt lat="46.13835265343171" lon="13.16665862474984"><ele>184.0</ele><time>2026-04-12T16:17:46.999Z</time></trkpt><trkpt lat="46.13822879256098" lon="13.166803056597917"><ele>184.0</ele><time>2026-04-12T16:17:47.999Z</time></trkpt><trkpt lat="46.13811450086717" lon="13.16695918483256"><ele>184.0</ele><time>2026-04-12T16:17:48.999Z</time></trkpt><trkpt lat="46.13799986093843" lon="13.167126106851715"><ele>185.0</ele><time>2026-04-12T16:17:49.999Z</time></trkpt><trkpt lat="46.137890264440045" lon="13.167288147997434"><ele>186.0</ele><time>2026-04-12T16:17:50.999Z</time></trkpt><trkpt lat="46.13778805401079" lon="13.167444736572223"><ele>187.0</ele><time>2026-04-12T16:17:51.999Z</time></trkpt><trkpt lat="46.1376893211916" lon="13.167602801957093"><ele>187.0</ele><time>2026-04-12T16:17:52.999Z</time></trkpt><trkpt lat="46.13759384100294" lon="13.16776760890932"><ele>187.0</ele><time>2026-04-12T16:17:53.999Z</time></trkpt><trkpt lat="46.137502752208185" lon="13.16795261646092"><ele>187.0</ele><time>2026-04-12T16:17:54.999Z</time></trkpt><trkpt lat="46.137416673913094" lon="13.168155767303578"><ele>188.66666666666669</ele><time>2026-04-12T16:17:55.999Z</time></trkpt><trkpt lat="46.137338325449065" lon="13.168368689477743"><ele>190.33333333333334</ele><time>2026-04-12T16:17:56.999Z</time></trkpt><trkpt lat="46.137267567837426" lon="13.168587832380092"><ele>192.0</ele><time>2026-04-12T16:17:58Z</time></trkpt><trkpt lat="46.13720049528482" lon="13.168797067154715"><ele>192.0</ele><time>2026-04-12T16:17:59Z</time></trkpt><trkpt lat="46.13713374687038" lon="13.169005473397158"><ele>192.0</ele><time>2026-04-12T16:18:00Z</time></trkpt><trkpt lat="46.13706530511186" lon="13.169213446271755"><ele>192.0</ele><time>2026-04-12T16:18:01Z</time></trkpt><trkpt lat="46.13697237742553" lon="13.169398751516592"><ele>190.66666666666666</ele><time>2026-04-12T16:18:02Z</time></trkpt><trkpt lat="46.13687669906703" lon="13.169585276659392"><ele>189.33333333333331</ele><time>2026-04-12T16:18:03Z</time></trkpt><trkpt lat="46.13678154709047" lon="13.169767195762137"><ele>188.0</ele><time>2026-04-12T16:18:04Z</time></trkpt><trkpt lat="46.13666109711635" lon="13.169909460890787"><ele>189.33333333333331</ele><time>2026-04-12T16:18:05Z</time></trkpt><trkpt lat="46.13652549859525" lon="13.170036287463752"><ele>190.66666666666666</ele><time>2026-04-12T16:18:06Z</time></trkpt><trkpt lat="46.1363841418378" lon="13.170153131919973"><ele>192.0</ele><time>2026-04-12T16:18:07Z</time></trkpt><trkpt lat="46.13623628945589" lon="13.170262122455116"><ele>192.0</ele><time>2026-04-12T16:18:08Z</time></trkpt><trkpt lat="46.136090764498434" lon="13.170363128989196"><ele>192.0</ele><time>2026-04-12T16:18:09Z</time></trkpt><trkpt lat="46.13595880939435" lon="13.1704599076204"><ele>192.0</ele><time>2026-04-12T16:18:10Z</time></trkpt><trkpt lat="46.1358320219648" lon="13.170549558267409"><ele>192.0</ele><time>2026-04-12T16:18:11Z</time></trkpt><trkpt lat="46.13570524800847" lon="13.170637172628417"><ele>192.0</ele><time>2026-04-12T16:18:12Z</time></trkpt><trkpt lat="46.13557380240589" lon="13.170729671694968"><ele>192.0</ele><time>2026-04-12T16:18:13Z</time></trkpt><trkpt lat="46.135436058558554" lon="13.17082734318429"><ele>192.0</ele><time>2026-04-12T16:18:14Z</time></trkpt><trkpt lat="46.135291388835775" lon="13.170930987385947"><ele>192.0</ele><time>2026-04-12T16:18:15Z</time></trkpt><trkpt lat="46.135144656401636" lon="13.171038000821483"><ele>192.0</ele><time>2026-04-12T16:18:16Z</time></trkpt><trkpt lat="46.13501117556495" lon="13.171134995310881"><ele>192.0</ele><time>2026-04-12T16:18:17Z</time></trkpt><trkpt lat="46.134884765041484" lon="13.171223037302731"><ele>192.5</ele><time>2026-04-12T16:18:18Z</time></trkpt><trkpt lat="46.134762727936945" lon="13.171307878906012"><ele>193.0</ele><time>2026-04-12T16:18:19Z</time></trkpt><trkpt lat="46.13464349978214" lon="13.171393965857462"><ele>193.5</ele><time>2026-04-12T16:18:20Z</time></trkpt><trkpt lat="46.134524139800234" lon="13.171483374182742"><ele>194.0</ele><time>2026-04-12T16:18:21Z</time></trkpt><trkpt lat="46.13440574550424" lon="13.17157952334139"><ele>194.0</ele><time>2026-04-12T16:18:22Z</time></trkpt><trkpt lat="46.134292494849646" lon="13.171679716277465"><ele>194.0</ele><time>2026-04-12T16:18:23Z</time></trkpt><trkpt lat="46.13418409946653" lon="13.171785638582222"><ele>194.0</ele><time>2026-04-12T16:18:24Z</time></trkpt><trkpt lat="46.134080839056416" lon="13.171898160943075"><ele>194.0</ele><time>2026-04-12T16:18:25Z</time></trkpt><trkpt lat="46.13398177962887" lon="13.17201890363598"><ele>194.25</ele><time>2026-04-12T16:18:26Z</time></trkpt><trkpt lat="46.13388291298364" lon="13.17214893269561"><ele>194.5</ele><time>2026-04-12T16:18:27Z</time></trkpt><trkpt lat="46.13378484924136" lon="13.17228584179613"><ele>194.75</ele><time>2026-04-12T16:18:28Z</time></trkpt><trkpt lat="46.13369655235335" lon="13.172423446842306"><ele>195.0</ele><time>2026-04-12T16:18:29Z</time></trkpt><trkpt lat="46.133613289681506" lon="13.172562132715594"><ele>195.0</ele><time>2026-04-12T16:18:30Z</time></trkpt><trkpt lat="46.13353674136159" lon="13.172702517081017"><ele>195.0</ele><time>2026-04-12T16:18:31Z</time></trkpt><trkpt lat="46.133464682431324" lon="13.172842984134917"><ele>195.0</ele><time>2026-04-12T16:18:32Z</time></trkpt><trkpt lat="46.13339160651245" lon="13.172981982694274"><ele>195.0</ele><time>2026-04-12T16:18:33Z</time></trkpt><trkpt lat="46.13331357268689" lon="13.173119358083474"><ele>195.75</ele><time>2026-04-12T16:18:34Z</time></trkpt><trkpt lat="46.133231643177986" lon="13.173263194431645"><ele>196.5</ele><time>2026-04-12T16:18:34.999Z</time></trkpt><trkpt lat="46.13315100232778" lon="13.173415572279987"><ele>197.25</ele><time>2026-04-12T16:18:35.999Z</time></trkpt><trkpt lat="46.13307360685107" lon="13.173579009718832"><ele>198.0</ele><time>2026-04-12T16:18:36.999Z</time></trkpt><trkpt lat="46.13300272299421" lon="13.173737494243234"><ele>198.0</ele><time>2026-04-12T16:18:37.999Z</time></trkpt><trkpt lat="46.13293260793244" lon="13.173886153476564"><ele>198.0</ele><time>2026-04-12T16:18:38.999Z</time></trkpt><trkpt lat="46.13286937724361" lon="13.174020920122683"><ele>198.0</ele><time>2026-04-12T16:18:39.999Z</time></trkpt><trkpt lat="46.13280874464207" lon="13.174146373249721"><ele>198.0</ele><time>2026-04-12T16:18:40.999Z</time></trkpt><trkpt lat="46.132746875044816" lon="13.174265571147542"><ele>198.0</ele><time>2026-04-12T16:18:41.999Z</time></trkpt><trkpt lat="46.13268816722148" lon="13.17436859719307"><ele>198.4</ele><time>2026-04-12T16:18:42.999Z</time></trkpt><trkpt lat="46.132615315353576" lon="13.174465356988977"><ele>198.8</ele><time>2026-04-12T16:18:43.999Z</time></trkpt><trkpt lat="46.13252657569304" lon="13.17455226220216"><ele>199.2</ele><time>2026-04-12T16:18:44.999Z</time></trkpt><trkpt lat="46.13242330634108" lon="13.174626444635493"><ele>199.6</ele><time>2026-04-12T16:18:45.999Z</time></trkpt><trkpt lat="46.13230946424506" lon="13.174678738734697"><ele>200.0</ele><time>2026-04-12T16:18:46.999Z</time></trkpt><trkpt lat="46.132189889141415" lon="13.174721418261168"><ele>200.0</ele><time>2026-04-12T16:18:47.999Z</time></trkpt><trkpt lat="46.132068721167016" lon="13.174761313961595"><ele>200.0</ele><time>2026-04-12T16:18:48.999Z</time></trkpt><trkpt lat="46.13194800457194" lon="13.174794903201047"><ele>200.0</ele><time>2026-04-12T16:18:49.999Z</time></trkpt><trkpt lat="46.1318253364909" lon="13.174831570217133"><ele>200.0</ele><time>2026-04-12T16:18:50.999Z</time></trkpt><trkpt lat="46.13169489958047" lon="13.17483752400551"><ele>200.25</ele><time>2026-04-12T16:18:51.999Z</time></trkpt><trkpt lat="46.13155824849299" lon="13.174862498530322"><ele>200.5</ele><time>2026-04-12T16:18:52.999Z</time></trkpt><trkpt lat="46.13141868020282" lon="13.174882552268524"><ele>200.75</ele><time>2026-04-12T16:18:53.999Z</time></trkpt><trkpt lat="46.13128072554941" lon="13.174894272998518"><ele>201.0</ele><time>2026-04-12T16:18:54.999Z</time></trkpt><trkpt lat="46.13114357681982" lon="13.174898404846372"><ele>200.5</ele><time>2026-04-12T16:18:55.999Z</time></trkpt><trkpt lat="46.13100630369556" lon="13.174901461073558"><ele>200.0</ele><time>2026-04-12T16:18:56.999Z</time></trkpt><trkpt lat="46.130867527929524" lon="13.174904550753178"><ele>199.5</ele><time>2026-04-12T16:18:57.999Z</time></trkpt><trkpt lat="46.130728274538214" lon="13.174907357966383"><ele>199.0</ele><time>2026-04-12T16:18:58.999Z</time></trkpt><trkpt lat="46.130581664734706" lon="13.17491802850008"><ele>198.0</ele><time>2026-04-12T16:18:59.999Z</time></trkpt><trkpt lat="46.13043055001676" lon="13.17494257381986"><ele>197.0</ele><time>2026-04-12T16:19:00.999Z</time></trkpt><trkpt lat="46.130277249036915" lon="13.174986572215989"><ele>196.0</ele><time>2026-04-12T16:19:01.999Z</time></trkpt><trkpt lat="46.13011719255712" lon="13.175051848424701"><ele>196.0</ele><time>2026-04-12T16:19:02.999Z</time></trkpt><trkpt lat="46.12995683713656" lon="13.175130040202557"><ele>196.0</ele><time>2026-04-12T16:19:03.999Z</time></trkpt><trkpt lat="46.129795120231165" lon="13.17522278074119"><ele>196.0</ele><time>2026-04-12T16:19:04.999Z</time></trkpt><trkpt lat="46.12963805676764" lon="13.175329232816797"><ele>195.66666666666666</ele><time>2026-04-12T16:19:05.999Z</time></trkpt><trkpt lat="46.12948370730029" lon="13.175447970597086"><ele>195.33333333333331</ele><time>2026-04-12T16:19:06.999Z</time></trkpt><trkpt lat="46.12934946735678" lon="13.17561094939909"><ele>195.0</ele><time>2026-04-12T16:19:07.999Z</time></trkpt><trkpt lat="46.12921169151946" lon="13.175761033699253"><ele>195.0</ele><time>2026-04-12T16:19:08.999Z</time></trkpt><trkpt lat="46.1290820190994" lon="13.175925355350417"><ele>195.0</ele><time>2026-04-12T16:19:09.999Z</time></trkpt><trkpt lat="46.12895763081255" lon="13.176103205089216"><ele>195.0</ele><time>2026-04-12T16:19:10.999Z</time></trkpt><trkpt lat="46.128840789914726" lon="13.17629453414612"><ele>194.66666666666669</ele><time>2026-04-12T16:19:11.999Z</time></trkpt><trkpt lat="46.12873244913244" lon="13.176495854925243"><ele>194.33333333333334</ele><time>2026-04-12T16:19:12.999Z</time></trkpt><trkpt lat="46.1286355736113" lon="13.176705943671214"><ele>194.0</ele><time>2026-04-12T16:19:13.999Z</time></trkpt><trkpt lat="46.12854435977329" lon="13.176920305525371"><ele>193.0</ele><time>2026-04-12T16:19:14.999Z</time></trkpt><trkpt lat="46.12845806430209" lon="13.177133337224797"><ele>192.0</ele><time>2026-04-12T16:19:15.999Z</time></trkpt><trkpt lat="46.128372894645544" lon="13.177341971881702"><ele>191.0</ele><time>2026-04-12T16:19:16.999Z</time></trkpt><trkpt lat="46.12828713053749" lon="13.177551236494658"><ele>189.66666666666666</ele><time>2026-04-12T16:19:17.999Z</time></trkpt><trkpt lat="46.12819882651728" lon="13.177764689324034"><ele>188.33333333333334</ele><time>2026-04-12T16:19:18.999Z</time></trkpt><trkpt lat="46.128108902530116" lon="13.177985079518951"><ele>187.0</ele><time>2026-04-12T16:19:19.999Z</time></trkpt><trkpt lat="46.12801812715892" lon="13.178207473360924"><ele>186.0</ele><time>2026-04-12T16:19:20.999Z</time></trkpt><trkpt lat="46.12792929611517" lon="13.178425328613733"><ele>185.0</ele><time>2026-04-12T16:19:21.999Z</time></trkpt><trkpt lat="46.12784850131365" lon="13.178625653290945"><ele>184.0</ele><time>2026-04-12T16:19:22.999Z</time></trkpt><trkpt lat="46.127769775712785" lon="13.17881416824044"><ele>184.0</ele><time>2026-04-12T16:19:23.999Z</time></trkpt><trkpt lat="46.127692208353224" lon="13.178997225387008"><ele>184.0</ele><time>2026-04-12T16:19:24.999Z</time></trkpt><trkpt lat="46.12762355238624" lon="13.179165804780672"><ele>184.0</ele><time>2026-04-12T16:19:25.999Z</time></trkpt><trkpt lat="46.127562463301025" lon="13.179316657902106"><ele>184.0</ele><time>2026-04-12T16:19:26.999Z</time></trkpt><trkpt lat="46.12750264797028" lon="13.179460395783476"><ele>183.0</ele><time>2026-04-12T16:19:27.999Z</time></trkpt><trkpt lat="46.1274430853615" lon="13.179608373419564"><ele>182.0</ele><time>2026-04-12T16:19:28.999Z</time></trkpt><trkpt lat="46.12738061531541" lon="13.179755728183713"><ele>181.0</ele><time>2026-04-12T16:19:29.999Z</time></trkpt><trkpt lat="46.12731535913811" lon="13.17989784120644"><ele>180.0</ele><time>2026-04-12T16:19:30.999Z</time></trkpt><trkpt lat="46.12724947342958" lon="13.180040534238486"><ele>178.5</ele><time>2026-04-12T16:19:31.999Z</time></trkpt><trkpt lat="46.12718520499174" lon="13.180186757056529"><ele>177.0</ele><time>2026-04-12T16:19:32.999Z</time></trkpt><trkpt lat="46.12712047628444" lon="13.180340090550347"><ele>175.5</ele><time>2026-04-12T16:19:33.999Z</time></trkpt><trkpt lat="46.127054892035666" lon="13.18050271304344"><ele>174.0</ele><time>2026-04-12T16:19:34.999Z</time></trkpt><trkpt lat="46.12698920468077" lon="13.180681210844812"><ele>173.33333333333334</ele><time>2026-04-12T16:19:35.999Z</time></trkpt><trkpt lat="46.126921687924174" lon="13.180867699175206"><ele>172.66666666666669</ele><time>2026-04-12T16:19:36.999Z</time></trkpt><trkpt lat="46.12684764802685" lon="13.181058247672897"><ele>172.0</ele><time>2026-04-12T16:19:37.999Z</time></trkpt><trkpt lat="46.12676495595171" lon="13.181257436570647"><ele>172.0</ele><time>2026-04-12T16:19:38.999Z</time></trkpt><trkpt lat="46.12668094206915" lon="13.181463325418433"><ele>172.0</ele><time>2026-04-12T16:19:39.999Z</time></trkpt><trkpt lat="46.12659263823983" lon="13.181679320602687"><ele>172.0</ele><time>2026-04-12T16:19:40.999Z</time></trkpt><trkpt lat="46.12650414569836" lon="13.181892073425637"><ele>171.33333333333334</ele><time>2026-04-12T16:19:41.999Z</time></trkpt><trkpt lat="46.12641892461975" lon="13.182101217843877"><ele>170.66666666666666</ele><time>2026-04-12T16:19:42.999Z</time></trkpt><trkpt lat="46.12633644471786" lon="13.182306951136818"><ele>170.0</ele><time>2026-04-12T16:19:43.999Z</time></trkpt><trkpt lat="46.12625660790318" lon="13.182505188197082"><ele>169.0</ele><time>2026-04-12T16:19:44.999Z</time></trkpt><trkpt lat="46.126179233003114" lon="13.182693060903198"><ele>168.0</ele><time>2026-04-12T16:19:45.999Z</time></trkpt><trkpt lat="46.126103528926365" lon="13.182873288976499"><ele>167.0</ele><time>2026-04-12T16:19:46.999Z</time></trkpt><trkpt lat="46.12602903033269" lon="13.183052968799927"><ele>166.0</ele><time>2026-04-12T16:19:47.999Z</time></trkpt><trkpt lat="46.12595359715868" lon="13.183233771745563"><ele>166.0</ele><time>2026-04-12T16:19:48.999Z</time></trkpt><trkpt lat="46.125877780223384" lon="13.183416790856281"><ele>166.0</ele><time>2026-04-12T16:19:49.999Z</time></trkpt><trkpt lat="46.125800895556864" lon="13.183606062531425"><ele>166.0</ele><time>2026-04-12T16:19:50.999Z</time></trkpt><trkpt lat="46.12572343894996" lon="13.183796683479992"><ele>166.0</ele><time>2026-04-12T16:19:51.999Z</time></trkpt><trkpt lat="46.125643970491026" lon="13.183990455768829"><ele>166.0</ele><time>2026-04-12T16:19:52.999Z</time></trkpt><trkpt lat="46.12556618284059" lon="13.184178920308575"><ele>166.0</ele><time>2026-04-12T16:19:53.999Z</time></trkpt><trkpt lat="46.12549316535341" lon="13.184363612795678"><ele>165.25</ele><time>2026-04-12T16:19:54.999Z</time></trkpt><trkpt lat="46.12542446335485" lon="13.184540473019847"><ele>164.5</ele><time>2026-04-12T16:19:55.999Z</time></trkpt><trkpt lat="46.12536217080613" lon="13.18471833658074"><ele>163.75</ele><time>2026-04-12T16:19:56.999Z</time></trkpt><trkpt lat="46.125306534122764" lon="13.184901367312213"><ele>163.0</ele><time>2026-04-12T16:19:57.999Z</time></trkpt><trkpt lat="46.125256647826454" lon="13.185083583904534"><ele>163.0</ele><time>2026-04-12T16:19:58.999Z</time></trkpt><trkpt lat="46.12520676468141" lon="13.185261657280181"><ele>163.0</ele><time>2026-04-12T16:19:59.999Z</time></trkpt><trkpt lat="46.12516017458269" lon="13.185425717536065"><ele>163.0</ele><time>2026-04-12T16:20:00.999Z</time></trkpt><trkpt lat="46.12511502165448" lon="13.185572506201156"><ele>163.0</ele><time>2026-04-12T16:20:01.999Z</time></trkpt><trkpt lat="46.1250714027413" lon="13.185702265953694"><ele>163.2</ele><time>2026-04-12T16:20:02.999Z</time></trkpt><trkpt lat="46.12502426886179" lon="13.185822305158085"><ele>163.4</ele><time>2026-04-12T16:20:04Z</time></trkpt><trkpt lat="46.124972270219736" lon="13.185934187032856"><ele>163.6</ele><time>2026-04-12T16:20:05Z</time></trkpt><trkpt lat="46.12490900412555" lon="13.186040481011672"><ele>163.79999999999998</ele><time>2026-04-12T16:20:06Z</time></trkpt><trkpt lat="46.124843136915416" lon="13.186140710669054"><ele>164.0</ele><time>2026-04-12T16:20:07Z</time></trkpt><trkpt lat="46.12478087115136" lon="13.186230690431662"><ele>164.16666666666666</ele><time>2026-04-12T16:20:08Z</time></trkpt><trkpt lat="46.12472229184556" lon="13.186311112388134"><ele>164.33333333333331</ele><time>2026-04-12T16:20:09Z</time></trkpt><trkpt lat="46.124666267078325" lon="13.186392656319766"><ele>164.5</ele><time>2026-04-12T16:20:10Z</time></trkpt><trkpt lat="46.12461431805065" lon="13.18646687264327"><ele>164.66666666666666</ele><time>2026-04-12T16:20:11Z</time></trkpt><trkpt lat="46.12456745500746" lon="13.186533081711968"><ele>164.83333333333334</ele><time>2026-04-12T16:20:12Z</time></trkpt><trkpt lat="46.124487784133905" lon="13.186611659934941"><ele>165.0</ele><time>2026-04-12T16:20:14Z</time></trkpt><trkpt lat="46.12444611268273" lon="13.186714846198155"><ele>165.16666666666666</ele><time>2026-04-12T16:20:21Z</time></trkpt><trkpt lat="46.12435642451531" lon="13.18678772800311"><ele>165.33333333333334</ele><time>2026-04-12T16:20:23Z</time></trkpt><trkpt lat="46.12428719401086" lon="13.186805407145902"><ele>165.5</ele><time>2026-04-12T16:20:24Z</time></trkpt><trkpt lat="46.124172173207086" lon="13.186822733556307"><ele>165.66666666666669</ele><time>2026-04-12T16:20:26Z</time></trkpt><trkpt lat="46.124128770775464" lon="13.18690015572802"><ele>165.83333333333334</ele><time>2026-04-12T16:20:27Z</time></trkpt><trkpt lat="46.12410833509599" lon="13.186996088613288"><ele>166.0</ele><time>2026-04-12T16:20:28Z</time></trkpt><trkpt lat="46.12406087861734" lon="13.187071758853374"><ele>165.60000000000002</ele><time>2026-04-12T16:20:29Z</time></trkpt><trkpt lat="46.12399426855468" lon="13.187141113369798"><ele>165.2</ele><time>2026-04-12T16:20:30Z</time></trkpt><trkpt lat="46.12391083549759" lon="13.187217083029147"><ele>164.8</ele><time>2026-04-12T16:20:31Z</time></trkpt><trkpt lat="46.12380634267069" lon="13.187284353365001"><ele>164.39999999999998</ele><time>2026-04-12T16:20:32Z</time></trkpt><trkpt lat="46.12368541779672" lon="13.187346667669258"><ele>164.0</ele><time>2026-04-12T16:20:33Z</time></trkpt><trkpt lat="46.12356199999292" lon="13.187404775806488"><ele>164.0</ele><time>2026-04-12T16:20:34Z</time></trkpt><trkpt lat="46.123444851799974" lon="13.187463787548698"><ele>164.0</ele><time>2026-04-12T16:20:35Z</time></trkpt><trkpt lat="46.1233320376382" lon="13.187496427578596"><ele>164.0</ele><time>2026-04-12T16:20:36Z</time></trkpt><trkpt lat="46.123227628874446" lon="13.187584720890419"><ele>164.0</ele><time>2026-04-12T16:20:37Z</time></trkpt><trkpt lat="46.12311654411516" lon="13.187691331427608"><ele>163.75</ele><time>2026-04-12T16:20:37.999Z</time></trkpt><trkpt lat="46.123009202775975" lon="13.18780675802769"><ele>163.5</ele><time>2026-04-12T16:20:38.999Z</time></trkpt><trkpt lat="46.12290418879037" lon="13.187930609160137"><ele>163.25</ele><time>2026-04-12T16:20:39.999Z</time></trkpt><trkpt lat="46.122802038821426" lon="13.188052289953974"><ele>163.0</ele><time>2026-04-12T16:20:40.999Z</time></trkpt><trkpt lat="46.1227031475082" lon="13.188171476121685"><ele>162.75</ele><time>2026-04-12T16:20:41.999Z</time></trkpt><trkpt lat="46.122606338968815" lon="13.188288152099526"><ele>162.5</ele><time>2026-04-12T16:20:42.999Z</time></trkpt><trkpt lat="46.12252289843104" lon="13.188418633901014"><ele>162.25</ele><time>2026-04-12T16:20:43.999Z</time></trkpt><trkpt lat="46.12241893232" lon="13.18851267153921"><ele>162.0</ele><time>2026-04-12T16:20:44.999Z</time></trkpt><trkpt lat="46.122325282379464" lon="13.188624528736616"><ele>161.5</ele><time>2026-04-12T16:20:45.999Z</time></trkpt><trkpt lat="46.12223254293696" lon="13.188735298430666"><ele>161.0</ele><time>2026-04-12T16:20:46.999Z</time></trkpt><trkpt lat="46.122141105671844" lon="13.1888480612828"><ele>160.5</ele><time>2026-04-12T16:20:47.999Z</time></trkpt><trkpt lat="46.12206106237187" lon="13.188978289917351"><ele>160.0</ele><time>2026-04-12T16:20:48.999Z</time></trkpt><trkpt lat="46.12197378051085" lon="13.189084595697135"><ele>160.0</ele><time>2026-04-12T16:20:49.999Z</time></trkpt><trkpt lat="46.12189562249518" lon="13.189182331244632"><ele>160.0</ele><time>2026-04-12T16:20:50.999Z</time></trkpt><trkpt lat="46.121833772088365" lon="13.189259793768803"><ele>160.0</ele><time>2026-04-12T16:20:51.999Z</time></trkpt><trkpt lat="46.12176171744605" lon="13.18934997906206"><ele>160.0</ele><time>2026-04-12T16:20:53.999Z</time></trkpt><trkpt lat="46.121704845974044" lon="13.189424009480613"><ele>160.0</ele><time>2026-04-12T16:20:59.999Z</time></trkpt><trkpt lat="46.121649697521036" lon="13.189468083520252"><ele>160.0</ele><time>2026-04-12T16:21:01.999Z</time></trkpt><trkpt lat="46.12154576684774" lon="13.189508835734157"><ele>159.5</ele><time>2026-04-12T16:21:03.999Z</time></trkpt><trkpt lat="46.12148059490605" lon="13.189558023972165"><ele>159.0</ele><time>2026-04-12T16:21:04.999Z</time></trkpt><trkpt lat="46.12141746232311" lon="13.189641935064817"><ele>158.5</ele><time>2026-04-12T16:21:05.999Z</time></trkpt><trkpt lat="46.12133230673538" lon="13.189798254731622"><ele>158.0</ele><time>2026-04-12T16:21:06.999Z</time></trkpt><trkpt lat="46.12121789571676" lon="13.189966884526136"><ele>158.0</ele><time>2026-04-12T16:21:07.999Z</time></trkpt><trkpt lat="46.12109032559989" lon="13.190134852213996"><ele>158.0</ele><time>2026-04-12T16:21:08.999Z</time></trkpt><trkpt lat="46.12094548149013" lon="13.190332670331552"><ele>158.0</ele><time>2026-04-12T16:21:09.999Z</time></trkpt><trkpt lat="46.120797391047866" lon="13.190475369640092"><ele>158.0</ele><time>2026-04-12T16:21:10.999Z</time></trkpt><trkpt lat="46.1206669859686" lon="13.19063409525619"><ele>158.0</ele><time>2026-04-12T16:21:11.999Z</time></trkpt><trkpt lat="46.120530346538516" lon="13.190799606442836"><ele>158.0</ele><time>2026-04-12T16:21:12.999Z</time></trkpt><trkpt lat="46.12038174252124" lon="13.190978421924765"><ele>157.66666666666666</ele><time>2026-04-12T16:21:13.999Z</time></trkpt><trkpt lat="46.12022703741643" lon="13.191163388721261"><ele>157.33333333333334</ele><time>2026-04-12T16:21:14.999Z</time></trkpt><trkpt lat="46.12007708617254" lon="13.191339501454376"><ele>157.0</ele><time>2026-04-12T16:21:15.999Z</time></trkpt><trkpt lat="46.11993042400763" lon="13.191500522130083"><ele>157.66666666666669</ele><time>2026-04-12T16:21:16.999Z</time></trkpt><trkpt lat="46.119779807405635" lon="13.191641505554713"><ele>158.33333333333334</ele><time>2026-04-12T16:21:17.999Z</time></trkpt><trkpt lat="46.11962180607199" lon="13.191774906117193"><ele>159.0</ele><time>2026-04-12T16:21:18.999Z</time></trkpt><trkpt lat="46.119450603229176" lon="13.191899368111743"><ele>159.0</ele><time>2026-04-12T16:21:19.999Z</time></trkpt><trkpt lat="46.11926885431506" lon="13.192029457355204"><ele>159.0</ele><time>2026-04-12T16:21:20.999Z</time></trkpt><trkpt lat="46.11907932543947" lon="13.192165115210836"><ele>159.0</ele><time>2026-04-12T16:21:21.999Z</time></trkpt><trkpt lat="46.11888730852455" lon="13.192302835413075"><ele>154.66666666666666</ele><time>2026-04-12T16:21:22.999Z</time></trkpt><trkpt lat="46.11868954246989" lon="13.192444542563912"><ele>150.33333333333331</ele><time>2026-04-12T16:21:23.999Z</time></trkpt><trkpt lat="46.11849713938482" lon="13.192582230359914"><ele>146.0</ele><time>2026-04-12T16:21:24.999Z</time></trkpt><trkpt lat="46.11831394786469" lon="13.192713571978857"><ele>147.66666666666666</ele><time>2026-04-12T16:21:25.999Z</time></trkpt><trkpt lat="46.118140948307044" lon="13.19283761001775"><ele>149.33333333333334</ele><time>2026-04-12T16:21:26.999Z</time></trkpt><trkpt lat="46.117973167113774" lon="13.192957906567374"><ele>151.0</ele><time>2026-04-12T16:21:27.999Z</time></trkpt><trkpt lat="46.11780366781564" lon="13.193079434970512"><ele>149.66666666666669</ele><time>2026-04-12T16:21:28.999Z</time></trkpt><trkpt lat="46.11762952673808" lon="13.193204291462207"><ele>148.33333333333334</ele><time>2026-04-12T16:21:29.999Z</time></trkpt><trkpt lat="46.1174507102962" lon="13.193332500114686"><ele>147.0</ele><time>2026-04-12T16:21:30.999Z</time></trkpt><trkpt lat="46.11727015241171" lon="13.193461632414577"><ele>147.0</ele><time>2026-04-12T16:21:31.999Z</time></trkpt><trkpt lat="46.11709271421959" lon="13.193588515371227"><ele>147.0</ele><time>2026-04-12T16:21:32.999Z</time></trkpt><trkpt lat="46.11691976438737" lon="13.193712188731443"><ele>147.0</ele><time>2026-04-12T16:21:33.999Z</time></trkpt><trkpt lat="46.11675239389716" lon="13.193838372198215"><ele>147.0</ele><time>2026-04-12T16:21:34.999Z</time></trkpt><trkpt lat="46.11658328517518" lon="13.193966985249682"><ele>147.0</ele><time>2026-04-12T16:21:35.999Z</time></trkpt><trkpt lat="46.116408468930324" lon="13.194114250511898"><ele>147.0</ele><time>2026-04-12T16:21:36.999Z</time></trkpt><trkpt lat="46.116234218062935" lon="13.19428052939088"><ele>145.0</ele><time>2026-04-12T16:21:37.999Z</time></trkpt><trkpt lat="46.11605858598695" lon="13.19445330294041"><ele>143.0</ele><time>2026-04-12T16:21:38.999Z</time></trkpt><trkpt lat="46.115878046244674" lon="13.194633408128446"><ele>141.0</ele><time>2026-04-12T16:21:39.999Z</time></trkpt><trkpt lat="46.11569591242613" lon="13.194818355397002"><ele>135.66666666666666</ele><time>2026-04-12T16:21:40.999Z</time></trkpt><trkpt lat="46.11551856117119" lon="13.19499864563881"><ele>130.33333333333331</ele><time>2026-04-12T16:21:41.999Z</time></trkpt><trkpt lat="46.11535576976234" lon="13.195164435098595"><ele>125.0</ele><time>2026-04-12T16:21:42.999Z</time></trkpt><trkpt lat="46.11520803471682" lon="13.195315313062075"><ele>125.0</ele><time>2026-04-12T16:21:43.999Z</time></trkpt><trkpt lat="46.115089169441866" lon="13.195437300863865"><ele>125.0</ele><time>2026-04-12T16:21:44.999Z</time></trkpt><trkpt lat="46.11498636067293" lon="13.195542810353889"><ele>125.0</ele><time>2026-04-12T16:21:45.999Z</time></trkpt><trkpt lat="46.114896733640656" lon="13.19563479184262"><ele>125.0</ele><time>2026-04-12T16:21:46.999Z</time></trkpt><trkpt lat="46.114811119647825" lon="13.195722654854208"><ele>125.0</ele><time>2026-04-12T16:21:47.999Z</time></trkpt><trkpt lat="46.11472209237866" lon="13.195813605991766"><ele>125.0</ele><time>2026-04-12T16:21:48.999Z</time></trkpt><trkpt lat="46.11463315038981" lon="13.195904222495349"><ele>125.0</ele><time>2026-04-12T16:21:49.999Z</time></trkpt><trkpt lat="46.1145442502256" lon="13.195995141185954"><ele>125.0</ele><time>2026-04-12T16:21:50.999Z</time></trkpt><trkpt lat="46.114456427446" lon="13.196084958028376"><ele>125.0</ele><time>2026-04-12T16:21:51.999Z</time></trkpt><trkpt lat="46.11436889908556" lon="13.196174473767776"><ele>125.0</ele><time>2026-04-12T16:21:52.999Z</time></trkpt><trkpt lat="46.11428179504814" lon="13.19626342681488"><ele>125.0</ele><time>2026-04-12T16:21:53.999Z</time></trkpt><trkpt lat="46.11420248809638" lon="13.196343374894266"><ele>125.0</ele><time>2026-04-12T16:21:54.999Z</time></trkpt><trkpt lat="46.11412436591714" lon="13.196423090694912"><ele>125.0</ele><time>2026-04-12T16:21:55.999Z</time></trkpt><trkpt lat="46.11404844779924" lon="13.196500727642583"><ele>125.0</ele><time>2026-04-12T16:21:56.999Z</time></trkpt><trkpt lat="46.11397356478729" lon="13.196577142888861"><ele>126.0</ele><time>2026-04-12T16:21:57.999Z</time></trkpt><trkpt lat="46.11389928029787" lon="13.19665299871735"><ele>127.0</ele><time>2026-04-12T16:21:58.999Z</time></trkpt><trkpt lat="46.113824526147496" lon="13.196729491337479"><ele>128.0</ele><time>2026-04-12T16:21:59.999Z</time></trkpt><trkpt lat="46.11374723099602" lon="13.196807921778815"><ele>129.0</ele><time>2026-04-12T16:22:00.999Z</time></trkpt><trkpt lat="46.11367742414273" lon="13.196908914814049"><ele>130.0</ele><time>2026-04-12T16:22:01.999Z</time></trkpt><trkpt lat="46.11359451533054" lon="13.19699530919924"><ele>130.0</ele><time>2026-04-12T16:22:02.999Z</time></trkpt><trkpt lat="46.113507463089974" lon="13.197085814082232"><ele>130.0</ele><time>2026-04-12T16:22:03.999Z</time></trkpt><trkpt lat="46.11341569849005" lon="13.197179611835624"><ele>130.0</ele><time>2026-04-12T16:22:04.999Z</time></trkpt><trkpt lat="46.11331720129485" lon="13.197273448137436"><ele>130.0</ele><time>2026-04-12T16:22:05.999Z</time></trkpt><trkpt lat="46.113226742945244" lon="13.197352789426812"><ele>130.0</ele><time>2026-04-12T16:22:06.999Z</time></trkpt><trkpt lat="46.11313365243793" lon="13.197395771275463"><ele>129.8</ele><time>2026-04-12T16:22:07.999Z</time></trkpt><trkpt lat="46.113056745806354" lon="13.197444736578989"><ele>129.6</ele><time>2026-04-12T16:22:08.999Z</time></trkpt><trkpt lat="46.1129942133229" lon="13.197482614676883"><ele>129.4</ele><time>2026-04-12T16:22:10Z</time></trkpt><trkpt lat="46.11293061420943" lon="13.19754176549527"><ele>129.2</ele><time>2026-04-12T16:22:12Z</time></trkpt><trkpt lat="46.1129951025884" lon="13.197772880174805"><ele>129.0</ele><time>2026-04-12T16:22:13Z</time></trkpt><trkpt lat="46.11299528850704" lon="13.197876106520937"><ele>129.0</ele><time>2026-04-12T16:22:15Z</time></trkpt><trkpt lat="46.113056402100604" lon="13.197903921963865"><ele>129.0</ele><time>2026-04-12T16:22:18Z</time></trkpt><trkpt lat="46.113102161752714" lon="13.197785922033862"><ele>129.0</ele><time>2026-04-12T16:23:28.999Z</time></trkpt><trkpt lat="46.1130613854908" lon="13.197647309787857"><ele>129.0</ele><time>2026-04-12T16:23:30.999Z</time></trkpt><trkpt lat="46.112963642305374" lon="13.197568943107552"><ele>129.0</ele><time>2026-04-12T16:23:32.999Z</time></trkpt><trkpt lat="46.112861800011444" lon="13.197567135048983"><ele>129.0</ele><time>2026-04-12T16:23:33.999Z</time></trkpt><trkpt lat="46.11273492129766" lon="13.197586009309514"><ele>129.0</ele><time>2026-04-12T16:23:34.999Z</time></trkpt><trkpt lat="46.11258333447866" lon="13.19762729539697"><ele>129.0</ele><time>2026-04-12T16:23:35.999Z</time></trkpt><trkpt lat="46.11241686011192" lon="13.197669080562015"><ele>129.33333333333334</ele><time>2026-04-12T16:23:36.999Z</time></trkpt><trkpt lat="46.11224518510931" lon="13.197696360222352"><ele>129.66666666666669</ele><time>2026-04-12T16:23:37.999Z</time></trkpt><trkpt lat="46.11207545658673" lon="13.19770126323198"><ele>130.0</ele><time>2026-04-12T16:23:38.999Z</time></trkpt><trkpt lat="46.111900627368016" lon="13.197680448527954"><ele>130.0</ele><time>2026-04-12T16:23:39.999Z</time></trkpt><trkpt lat="46.111719121455046" lon="13.197635105948049"><ele>130.0</ele><time>2026-04-12T16:23:40.999Z</time></trkpt><trkpt lat="46.11153289044164" lon="13.19757327842455"><ele>130.0</ele><time>2026-04-12T16:23:41.999Z</time></trkpt><trkpt lat="46.11134051545094" lon="13.197506755855294"><ele>130.0</ele><time>2026-04-12T16:23:42.999Z</time></trkpt><trkpt lat="46.11114263575678" lon="13.197429386730272"><ele>130.0</ele><time>2026-04-12T16:23:43.999Z</time></trkpt><trkpt lat="46.11094372476475" lon="13.197355672493407"><ele>130.0</ele><time>2026-04-12T16:23:44.999Z</time></trkpt><trkpt lat="46.110748470052734" lon="13.197288958718637"><ele>129.33333333333334</ele><time>2026-04-12T16:23:45.999Z</time></trkpt><trkpt lat="46.11054735659059" lon="13.19721451994453"><ele>128.66666666666666</ele><time>2026-04-12T16:23:46.999Z</time></trkpt><trkpt lat="46.11033631108595" lon="13.19713745327007"><ele>128.0</ele><time>2026-04-12T16:23:47.999Z</time></trkpt><trkpt lat="46.1101254080667" lon="13.19706415202707"><ele>128.0</ele><time>2026-04-12T16:23:48.999Z</time></trkpt><trkpt lat="46.10992741315071" lon="13.196995077971495"><ele>128.0</ele><time>2026-04-12T16:23:49.999Z</time></trkpt><trkpt lat="46.10973715322052" lon="13.196923181043598"><ele>128.0</ele><time>2026-04-12T16:23:50.999Z</time></trkpt><trkpt lat="46.1095452911908" lon="13.19685452946545"><ele>128.33333333333331</ele><time>2026-04-12T16:23:51.999Z</time></trkpt><trkpt lat="46.10934552302637" lon="13.19678623243019"><ele>128.66666666666666</ele><time>2026-04-12T16:23:52.999Z</time></trkpt><trkpt lat="46.10914181531978" lon="13.196731885046654"><ele>129.0</ele><time>2026-04-12T16:23:53.999Z</time></trkpt><trkpt lat="46.10893313903736" lon="13.19670211931154"><ele>129.33333333333334</ele><time>2026-04-12T16:23:54.999Z</time></trkpt><trkpt lat="46.10872479409597" lon="13.196699344802267"><ele>129.66666666666669</ele><time>2026-04-12T16:23:55.999Z</time></trkpt><trkpt lat="46.10851685151188" lon="13.19672118945162"><ele>130.0</ele><time>2026-04-12T16:23:56.999Z</time></trkpt><trkpt lat="46.10831281038273" lon="13.196774612525509"><ele>129.33333333333334</ele><time>2026-04-12T16:23:57.999Z</time></trkpt><trkpt lat="46.10811262170586" lon="13.196856164819936"><ele>128.66666666666666</ele><time>2026-04-12T16:23:58.999Z</time></trkpt><trkpt lat="46.10791805346618" lon="13.196963482063166"><ele>128.0</ele><time>2026-04-12T16:23:59.999Z</time></trkpt><trkpt lat="46.10773178926579" lon="13.197092762094456"><ele>128.0</ele><time>2026-04-12T16:24:00.999Z</time></trkpt><trkpt lat="46.10755532401483" lon="13.197247919213002"><ele>128.0</ele><time>2026-04-12T16:24:01.999Z</time></trkpt><trkpt lat="46.107384208473334" lon="13.197423770710266"><ele>128.0</ele><time>2026-04-12T16:24:02.999Z</time></trkpt><trkpt lat="46.10722144793049" lon="13.19762492749436"><ele>128.0</ele><time>2026-04-12T16:24:03.999Z</time></trkpt><trkpt lat="46.10706361665615" lon="13.197833924730336"><ele>128.0</ele><time>2026-04-12T16:24:04.999Z</time></trkpt><trkpt lat="46.10690928418706" lon="13.198028339302718"><ele>128.0</ele><time>2026-04-12T16:24:05.999Z</time></trkpt><trkpt lat="46.106767944426096" lon="13.198202027001724"><ele>128.0</ele><time>2026-04-12T16:24:06.999Z</time></trkpt><trkpt lat="46.106635493760876" lon="13.198359752606597"><ele>128.0</ele><time>2026-04-12T16:24:07.999Z</time></trkpt><trkpt lat="46.106503966425656" lon="13.198508530687658"><ele>128.0</ele><time>2026-04-12T16:24:08.999Z</time></trkpt><trkpt lat="46.10637737789897" lon="13.198655824792839"><ele>128.0</ele><time>2026-04-12T16:24:09.999Z</time></trkpt><trkpt lat="46.10625463885354" lon="13.198795889810695"><ele>128.0</ele><time>2026-04-12T16:24:10.999Z</time></trkpt><trkpt lat="46.1061237753086" lon="13.198917857035115"><ele>128.0</ele><time>2026-04-12T16:24:11.999Z</time></trkpt><trkpt lat="46.10597754663649" lon="13.199009874480625"><ele>128.0</ele><time>2026-04-12T16:24:12.999Z</time></trkpt><trkpt lat="46.10581919641704" lon="13.199078270087476"><ele>128.0</ele><time>2026-04-12T16:24:13.999Z</time></trkpt><trkpt lat="46.10565070544127" lon="13.199125659424052"><ele>128.0</ele><time>2026-04-12T16:24:14.999Z</time></trkpt><trkpt lat="46.10547047132628" lon="13.199133502710197"><ele>128.0</ele><time>2026-04-12T16:24:16Z</time></trkpt><trkpt lat="46.10528024117333" lon="13.19910191067561"><ele>128.0</ele><time>2026-04-12T16:24:17Z</time></trkpt><trkpt lat="46.10509444161907" lon="13.199083006513636"><ele>128.0</ele><time>2026-04-12T16:24:18Z</time></trkpt><trkpt lat="46.10491006227871" lon="13.199073404106642"><ele>127.66666666666666</ele><time>2026-04-12T16:24:19Z</time></trkpt><trkpt lat="46.10472585605548" lon="13.199058609518623"><ele>127.33333333333334</ele><time>2026-04-12T16:24:20Z</time></trkpt><trkpt lat="46.10454239410969" lon="13.199041620634045"><ele>127.0</ele><time>2026-04-12T16:24:21Z</time></trkpt><trkpt lat="46.10435923723705" lon="13.199025493927126"><ele>127.0</ele><time>2026-04-12T16:24:22Z</time></trkpt><trkpt lat="46.104169985251595" lon="13.199007974015109"><ele>127.0</ele><time>2026-04-12T16:24:23Z</time></trkpt><trkpt lat="46.10397763919864" lon="13.198992007889514"><ele>127.0</ele><time>2026-04-12T16:24:24Z</time></trkpt><trkpt lat="46.10379249281791" lon="13.198975679389699"><ele>125.66666666666667</ele><time>2026-04-12T16:24:25Z</time></trkpt><trkpt lat="46.10362579730303" lon="13.198960461401892"><ele>124.33333333333334</ele><time>2026-04-12T16:24:26Z</time></trkpt><trkpt lat="46.103481321197904" lon="13.198963730413583"><ele>123.0</ele><time>2026-04-12T16:24:27Z</time></trkpt><trkpt lat="46.10333529683437" lon="13.1989996134394"><ele>122.66666666666666</ele><time>2026-04-12T16:24:28Z</time></trkpt><trkpt lat="46.10319307219702" lon="13.199092377664897"><ele>122.33333333333333</ele><time>2026-04-12T16:24:29Z</time></trkpt><trkpt lat="46.10306791174342" lon="13.199225060710548"><ele>122.0</ele><time>2026-04-12T16:24:30Z</time></trkpt><trkpt lat="46.10296653703727" lon="13.199391291540172"><ele>122.0</ele><time>2026-04-12T16:24:31Z</time></trkpt><trkpt lat="46.10290530691223" lon="13.199563176825718"><ele>122.0</ele><time>2026-04-12T16:24:32Z</time></trkpt><trkpt lat="46.10285155227273" lon="13.199725307043852"><ele>122.0</ele><time>2026-04-12T16:24:33Z</time></trkpt><trkpt lat="46.102778788225635" lon="13.199879996403011"><ele>122.0</ele><time>2026-04-12T16:24:34Z</time></trkpt><trkpt lat="46.10267431978851" lon="13.200015921046283"><ele>122.25</ele><time>2026-04-12T16:24:35Z</time></trkpt><trkpt lat="46.10254637723536" lon="13.20012937076715"><ele>122.5</ele><time>2026-04-12T16:24:36Z</time></trkpt><trkpt lat="46.1024135683104" lon="13.200191048972194"><ele>122.75</ele><time>2026-04-12T16:24:37Z</time></trkpt><trkpt lat="46.10227608723314" lon="13.200207269955943"><ele>123.0</ele><time>2026-04-12T16:24:38Z</time></trkpt><trkpt lat="46.102138998444765" lon="13.200181492291687"><ele>123.0</ele><time>2026-04-12T16:24:39Z</time></trkpt><trkpt lat="46.102002696326515" lon="13.20012218514298"><ele>123.0</ele><time>2026-04-12T16:24:40Z</time></trkpt><trkpt lat="46.101849287685106" lon="13.200047695831165"><ele>123.0</ele><time>2026-04-12T16:24:41Z</time></trkpt><trkpt lat="46.10165999088586" lon="13.199970558901082"><ele>123.66666666666666</ele><time>2026-04-12T16:24:42Z</time></trkpt><trkpt lat="46.1014488724408" lon="13.199889436446933"><ele>124.33333333333333</ele><time>2026-04-12T16:24:43Z</time></trkpt><trkpt lat="46.10124251691165" lon="13.199793334288803"><ele>125.0</ele><time>2026-04-12T16:24:43.999Z</time></trkpt><trkpt lat="46.10104729330078" lon="13.199697523024097"><ele>125.0</ele><time>2026-04-12T16:24:44.999Z</time></trkpt><trkpt lat="46.10084876549638" lon="13.19960709234325"><ele>125.0</ele><time>2026-04-12T16:24:45.999Z</time></trkpt><trkpt lat="46.1006392650596" lon="13.199514032302407"><ele>125.0</ele><time>2026-04-12T16:24:46.999Z</time></trkpt><trkpt lat="46.100420405233145" lon="13.199412257484061"><ele>124.0</ele><time>2026-04-12T16:24:47.999Z</time></trkpt><trkpt lat="46.1001944055637" lon="13.19930799484393"><ele>123.0</ele><time>2026-04-12T16:24:48.999Z</time></trkpt><trkpt lat="46.099953367875514" lon="13.199202507968673"><ele>122.5</ele><time>2026-04-12T16:24:49.999Z</time></trkpt><trkpt lat="46.099688128991836" lon="13.19909430614566"><ele>122.0</ele><time>2026-04-12T16:24:50.999Z</time></trkpt><trkpt lat="46.099407887548594" lon="13.19898092231613"><ele>122.0</ele><time>2026-04-12T16:24:51.999Z</time></trkpt><trkpt lat="46.099125864802645" lon="13.198851627395412"><ele>122.0</ele><time>2026-04-12T16:24:52.999Z</time></trkpt><trkpt lat="46.09884347793022" lon="13.198709825360092"><ele>122.5</ele><time>2026-04-12T16:24:53.999Z</time></trkpt><trkpt lat="46.09855848826359" lon="13.198568679748153"><ele>123.0</ele><time>2026-04-12T16:24:54.999Z</time></trkpt><trkpt lat="46.09827298596653" lon="13.198425423535998"><ele>123.0</ele><time>2026-04-12T16:24:55.999Z</time></trkpt><trkpt lat="46.09798752973976" lon="13.198286435304158"><ele>123.0</ele><time>2026-04-12T16:24:56.999Z</time></trkpt><trkpt lat="46.09770160937274" lon="13.198153327356222"><ele>123.0</ele><time>2026-04-12T16:24:57.999Z</time></trkpt><trkpt lat="46.097419117718474" lon="13.19801881219437"><ele>123.0</ele><time>2026-04-12T16:24:58.999Z</time></trkpt><trkpt lat="46.09714187605672" lon="13.197889297560236"><ele>121.5</ele><time>2026-04-12T16:24:59.999Z</time></trkpt><trkpt lat="46.09686352392779" lon="13.19776282322465"><ele>120.0</ele><time>2026-04-12T16:25:00.999Z</time></trkpt><trkpt lat="46.09658665832626" lon="13.197634584483517"><ele>121.0</ele><time>2026-04-12T16:25:01.999Z</time></trkpt><trkpt lat="46.0963111271573" lon="13.197502639679202"><ele>122.0</ele><time>2026-04-12T16:25:02.999Z</time></trkpt><trkpt lat="46.0960330162487" lon="13.197370491897141"><ele>121.5</ele><time>2026-04-12T16:25:03.999Z</time></trkpt><trkpt lat="46.09575327364475" lon="13.197237106419367"><ele>121.0</ele><time>2026-04-12T16:25:04.999Z</time></trkpt><trkpt lat="46.09547245502784" lon="13.197104593051655"><ele>121.0</ele><time>2026-04-12T16:25:05.999Z</time></trkpt><trkpt lat="46.095189611181546" lon="13.196969709472048"><ele>121.0</ele><time>2026-04-12T16:25:06.999Z</time></trkpt><trkpt lat="46.09490523688155" lon="13.196831610871508"><ele>121.0</ele><time>2026-04-12T16:25:07.999Z</time></trkpt><trkpt lat="46.0946179808384" lon="13.196693370048559"><ele>121.0</ele><time>2026-04-12T16:25:08.999Z</time></trkpt><trkpt lat="46.09433445537693" lon="13.19655317070575"><ele>120.0</ele><time>2026-04-12T16:25:09.999Z</time></trkpt><trkpt lat="46.09404977793523" lon="13.19641078081697"><ele>119.0</ele><time>2026-04-12T16:25:10.999Z</time></trkpt><trkpt lat="46.09376782067254" lon="13.196261777063128"><ele>119.0</ele><time>2026-04-12T16:25:11.999Z</time></trkpt><trkpt lat="46.09348664147314" lon="13.196122156057905"><ele>119.0</ele><time>2026-04-12T16:25:12.999Z</time></trkpt><trkpt lat="46.09320687347265" lon="13.195992090542726"><ele>120.0</ele><time>2026-04-12T16:25:13.999Z</time></trkpt><trkpt lat="46.09294079734057" lon="13.195867245484063"><ele>121.0</ele><time>2026-04-12T16:25:14.999Z</time></trkpt><trkpt lat="46.092678472138694" lon="13.19574084759303"><ele>120.0</ele><time>2026-04-12T16:25:15.999Z</time></trkpt><trkpt lat="46.09242242706643" lon="13.195619532006026"><ele>119.0</ele><time>2026-04-12T16:25:16.999Z</time></trkpt><trkpt lat="46.09217179132877" lon="13.195500786742146"><ele>119.0</ele><time>2026-04-12T16:25:17.999Z</time></trkpt><trkpt lat="46.0919199727225" lon="13.195380397478193"><ele>119.0</ele><time>2026-04-12T16:25:18.999Z</time></trkpt><trkpt lat="46.091671586647344" lon="13.195261982809924"><ele>119.0</ele><time>2026-04-12T16:25:19.999Z</time></trkpt><trkpt lat="46.09142134164384" lon="13.195142817713938"><ele>119.0</ele><time>2026-04-12T16:25:20.999Z</time></trkpt><trkpt lat="46.0911709645182" lon="13.195025040426664"><ele>119.0</ele><time>2026-04-12T16:25:21.999Z</time></trkpt><trkpt lat="46.0909243686781" lon="13.194906513265696"><ele>119.0</ele><time>2026-04-12T16:25:22.999Z</time></trkpt><trkpt lat="46.090681737515325" lon="13.194790081595102"><ele>119.5</ele><time>2026-04-12T16:25:23.999Z</time></trkpt><trkpt lat="46.09044778124511" lon="13.194678366987262"><ele>120.0</ele><time>2026-04-12T16:25:24.999Z</time></trkpt><trkpt lat="46.09022843871982" lon="13.19457576274762"><ele>120.0</ele><time>2026-04-12T16:25:25.999Z</time></trkpt><trkpt lat="46.09001781324645" lon="13.194473767138472"><ele>120.0</ele><time>2026-04-12T16:25:26.999Z</time></trkpt><trkpt lat="46.08980270355395" lon="13.194372313511124"><ele>120.0</ele><time>2026-04-12T16:25:27.999Z</time></trkpt><trkpt lat="46.08958300503801" lon="13.194269813048981"><ele>119.5</ele><time>2026-04-12T16:25:28.999Z</time></trkpt><trkpt lat="46.08936065830442" lon="13.194163411394381"><ele>119.0</ele><time>2026-04-12T16:25:29.999Z</time></trkpt><trkpt lat="46.08913939810259" lon="13.194055432172725"><ele>118.5</ele><time>2026-04-12T16:25:30.999Z</time></trkpt><trkpt lat="46.088917868720564" lon="13.193947274626371"><ele>118.0</ele><time>2026-04-12T16:25:31.999Z</time></trkpt><trkpt lat="46.088693678550015" lon="13.193838152918751"><ele>118.0</ele><time>2026-04-12T16:25:32.999Z</time></trkpt><trkpt lat="46.08846904294247" lon="13.193730409442118"><ele>118.0</ele><time>2026-04-12T16:25:33.999Z</time></trkpt><trkpt lat="46.08824650446648" lon="13.193624935338537"><ele>118.0</ele><time>2026-04-12T16:25:34.999Z</time></trkpt><trkpt lat="46.088022660889386" lon="13.193517348290165"><ele>118.0</ele><time>2026-04-12T16:25:35.999Z</time></trkpt><trkpt lat="46.087794411421775" lon="13.193409669756868"><ele>118.0</ele><time>2026-04-12T16:25:36.999Z</time></trkpt><trkpt lat="46.08756156093524" lon="13.193300620292971"><ele>118.0</ele><time>2026-04-12T16:25:37.999Z</time></trkpt><trkpt lat="46.08732780093379" lon="13.193189624901802"><ele>117.0</ele><time>2026-04-12T16:25:38.999Z</time></trkpt><trkpt lat="46.08709270522571" lon="13.1930758454159"><ele>116.0</ele><time>2026-04-12T16:25:39.999Z</time></trkpt><trkpt lat="46.0868542192721" lon="13.192961815481071"><ele>116.0</ele><time>2026-04-12T16:25:40.999Z</time></trkpt><trkpt lat="46.086612612209855" lon="13.192845923964022"><ele>116.0</ele><time>2026-04-12T16:25:41.999Z</time></trkpt><trkpt lat="46.08636777796806" lon="13.19272843978979"><ele>114.5</ele><time>2026-04-12T16:25:42.999Z</time></trkpt><trkpt lat="46.08612106699875" lon="13.19260997644895"><ele>113.0</ele><time>2026-04-12T16:25:43.999Z</time></trkpt><trkpt lat="46.08587294703675" lon="13.192491237473615"><ele>113.5</ele><time>2026-04-12T16:25:44.999Z</time></trkpt><trkpt lat="46.08562339066751" lon="13.192372845091917"><ele>114.0</ele><time>2026-04-12T16:25:45.999Z</time></trkpt><trkpt lat="46.08537644931283" lon="13.192255480494453"><ele>115.0</ele><time>2026-04-12T16:25:46.999Z</time></trkpt><trkpt lat="46.08513184828236" lon="13.192138737557562"><ele>116.0</ele><time>2026-04-12T16:25:47.999Z</time></trkpt><trkpt lat="46.08488998771964" lon="13.192018789535469"><ele>116.5</ele><time>2026-04-12T16:25:48.999Z</time></trkpt><trkpt lat="46.084648907341865" lon="13.191903101721007"><ele>117.0</ele><time>2026-04-12T16:25:49.999Z</time></trkpt><trkpt lat="46.08440987660119" lon="13.19179024528656"><ele>117.0</ele><time>2026-04-12T16:25:50.999Z</time></trkpt><trkpt lat="46.08416734267165" lon="13.19167938102413"><ele>117.0</ele><time>2026-04-12T16:25:51.999Z</time></trkpt><trkpt lat="46.083919228590474" lon="13.19157729300406"><ele>117.0</ele><time>2026-04-12T16:25:52.999Z</time></trkpt><trkpt lat="46.08366959388984" lon="13.191478863061903"><ele>117.0</ele><time>2026-04-12T16:25:53.999Z</time></trkpt><trkpt lat="46.08341401749504" lon="13.191383070272341"><ele>116.5</ele><time>2026-04-12T16:25:54.999Z</time></trkpt><trkpt lat="46.08315588626" lon="13.19130047122151"><ele>116.0</ele><time>2026-04-12T16:25:55.999Z</time></trkpt><trkpt lat="46.082897366184525" lon="13.191233332799872"><ele>116.0</ele><time>2026-04-12T16:25:56.999Z</time></trkpt><trkpt lat="46.08264002604057" lon="13.19117945782438"><ele>116.0</ele><time>2026-04-12T16:25:57.999Z</time></trkpt><trkpt lat="46.08238281623423" lon="13.191138612114898"><ele>115.0</ele><time>2026-04-12T16:25:58.999Z</time></trkpt><trkpt lat="46.082127063631816" lon="13.191106692860874"><ele>114.0</ele><time>2026-04-12T16:25:59.999Z</time></trkpt><trkpt lat="46.08186666433076" lon="13.191085844235289"><ele>114.0</ele><time>2026-04-12T16:26:00.999Z</time></trkpt><trkpt lat="46.081600241151726" lon="13.191069846863984"><ele>114.0</ele><time>2026-04-12T16:26:01.999Z</time></trkpt><trkpt lat="46.08133675226057" lon="13.191061426416077"><ele>112.5</ele><time>2026-04-12T16:26:02.999Z</time></trkpt><trkpt lat="46.08107343132717" lon="13.191075090404256"><ele>111.0</ele><time>2026-04-12T16:26:03.999Z</time></trkpt><trkpt lat="46.08081511629329" lon="13.191102281773812"><ele>108.0</ele><time>2026-04-12T16:26:04.999Z</time></trkpt><trkpt lat="46.08056758099891" lon="13.19113759661298"><ele>105.0</ele><time>2026-04-12T16:26:05.999Z</time></trkpt><trkpt lat="46.08033757954073" lon="13.191189110987215"><ele>105.0</ele><time>2026-04-12T16:26:06.999Z</time></trkpt><trkpt lat="46.0801150519061" lon="13.19125681834049"><ele>105.0</ele><time>2026-04-12T16:26:07.999Z</time></trkpt><trkpt lat="46.07990264081228" lon="13.191336521291245"><ele>105.0</ele><time>2026-04-12T16:26:08.999Z</time></trkpt><trkpt lat="46.07968486954666" lon="13.191428237328147"><ele>105.33333333333334</ele><time>2026-04-12T16:26:09.999Z</time></trkpt><trkpt lat="46.07947071849678" lon="13.191529083836443"><ele>105.66666666666667</ele><time>2026-04-12T16:26:10.999Z</time></trkpt><trkpt lat="46.079261499567025" lon="13.191644467219879"><ele>106.0</ele><time>2026-04-12T16:26:11.999Z</time></trkpt><trkpt lat="46.07905346968888" lon="13.191776847078705"><ele>108.0</ele><time>2026-04-12T16:26:12.999Z</time></trkpt><trkpt lat="46.07883867903881" lon="13.191926904598521"><ele>110.0</ele><time>2026-04-12T16:26:13.999Z</time></trkpt><trkpt lat="46.0786206132022" lon="13.19209217052193"><ele>110.0</ele><time>2026-04-12T16:26:14.999Z</time></trkpt><trkpt lat="46.078402274661876" lon="13.19227541726705"><ele>110.0</ele><time>2026-04-12T16:26:15.999Z</time></trkpt><trkpt lat="46.078185441724955" lon="13.19247464876425"><ele>109.5</ele><time>2026-04-12T16:26:16.999Z</time></trkpt><trkpt lat="46.077971544409564" lon="13.192688752306083"><ele>109.0</ele><time>2026-04-12T16:26:17.999Z</time></trkpt><trkpt lat="46.0777566156067" lon="13.192909745321229"><ele>109.0</ele><time>2026-04-12T16:26:18.999Z</time></trkpt><trkpt lat="46.07754441210711" lon="13.193120324184413"><ele>109.0</ele><time>2026-04-12T16:26:19.999Z</time></trkpt><trkpt lat="46.0773269160534" lon="13.193330537233287"><ele>110.0</ele><time>2026-04-12T16:26:20.999Z</time></trkpt><trkpt lat="46.07710859510239" lon="13.193541548513378"><ele>111.0</ele><time>2026-04-12T16:26:22Z</time></trkpt><trkpt lat="46.07689000239761" lon="13.193754589106005"><ele>111.0</ele><time>2026-04-12T16:26:23Z</time></trkpt><trkpt lat="46.07667152870634" lon="13.193965386678054"><ele>111.0</ele><time>2026-04-12T16:26:24Z</time></trkpt><trkpt lat="46.0764541891046" lon="13.194178075874301"><ele>112.5</ele><time>2026-04-12T16:26:25Z</time></trkpt><trkpt lat="46.07623607448467" lon="13.194389424493883"><ele>114.0</ele><time>2026-04-12T16:26:26Z</time></trkpt><trkpt lat="46.07601549745757" lon="13.194602533453834"><ele>114.0</ele><time>2026-04-12T16:26:27Z</time></trkpt><trkpt lat="46.07579466573251" lon="13.194820600072452"><ele>114.0</ele><time>2026-04-12T16:26:28Z</time></trkpt><trkpt lat="46.075576770781424" lon="13.19503376521614"><ele>113.0</ele><time>2026-04-12T16:26:29Z</time></trkpt><trkpt lat="46.0753608790313" lon="13.19523900524691"><ele>112.0</ele><time>2026-04-12T16:26:30Z</time></trkpt><trkpt lat="46.07514288975658" lon="13.195432326877732"><ele>111.5</ele><time>2026-04-12T16:26:31Z</time></trkpt><trkpt lat="46.07492011166904" lon="13.195610120993285"><ele>111.0</ele><time>2026-04-12T16:26:32Z</time></trkpt><trkpt lat="46.07468531845582" lon="13.195768558386963"><ele>110.5</ele><time>2026-04-12T16:26:33Z</time></trkpt><trkpt lat="46.07444342325675" lon="13.19591608863717"><ele>110.0</ele><time>2026-04-12T16:26:34Z</time></trkpt><trkpt lat="46.07419159339215" lon="13.196057818191916"><ele>110.5</ele><time>2026-04-12T16:26:35Z</time></trkpt><trkpt lat="46.07393922232321" lon="13.196187339864682"><ele>111.0</ele><time>2026-04-12T16:26:36Z</time></trkpt><trkpt lat="46.07367989201695" lon="13.196309262938161"><ele>111.0</ele><time>2026-04-12T16:26:37Z</time></trkpt><trkpt lat="46.07341209016781" lon="13.19641465964672"><ele>111.0</ele><time>2026-04-12T16:26:38Z</time></trkpt><trkpt lat="46.0731414982267" lon="13.196504824906363"><ele>111.5</ele><time>2026-04-12T16:26:39Z</time></trkpt><trkpt lat="46.072867729728586" lon="13.196580087509687"><ele>112.0</ele><time>2026-04-12T16:26:40Z</time></trkpt><trkpt lat="46.07259438952527" lon="13.196642400969917"><ele>110.5</ele><time>2026-04-12T16:26:41Z</time></trkpt><trkpt lat="46.0723258846683" lon="13.196692496163966"><ele>109.0</ele><time>2026-04-12T16:26:42Z</time></trkpt><trkpt lat="46.07206312226438" lon="13.196734472235809"><ele>109.0</ele><time>2026-04-12T16:26:43Z</time></trkpt><trkpt lat="46.07180390893923" lon="13.196773399804975"><ele>109.0</ele><time>2026-04-12T16:26:44Z</time></trkpt><trkpt lat="46.07154519479677" lon="13.196806855068191"><ele>108.0</ele><time>2026-04-12T16:26:45Z</time></trkpt><trkpt lat="46.07128409239951" lon="13.196839774882505"><ele>107.0</ele><time>2026-04-12T16:26:46Z</time></trkpt><trkpt lat="46.07102234553104" lon="13.196875068468053"><ele>107.0</ele><time>2026-04-12T16:26:47Z</time></trkpt><trkpt lat="46.07076010313934" lon="13.196907986891913"><ele>107.0</ele><time>2026-04-12T16:26:47.999Z</time></trkpt><trkpt lat="46.07049816202704" lon="13.196942322675396"><ele>107.0</ele><time>2026-04-12T16:26:48.999Z</time></trkpt><trkpt lat="46.070236917805666" lon="13.196976914284189"><ele>107.0</ele><time>2026-04-12T16:26:49.999Z</time></trkpt><trkpt lat="46.06997715823943" lon="13.197011714093383"><ele>108.0</ele><time>2026-04-12T16:26:50.999Z</time></trkpt><trkpt lat="46.06971452101737" lon="13.19704537331868"><ele>109.0</ele><time>2026-04-12T16:26:51.999Z</time></trkpt><trkpt lat="46.069450787635674" lon="13.19707923045123"><ele>109.0</ele><time>2026-04-12T16:26:52.999Z</time></trkpt><trkpt lat="46.069183289176465" lon="13.19711747261752"><ele>109.0</ele><time>2026-04-12T16:26:53.999Z</time></trkpt><trkpt lat="46.06891868256367" lon="13.197153194881851"><ele>108.5</ele><time>2026-04-12T16:26:54.999Z</time></trkpt><trkpt lat="46.068653348232665" lon="13.197188255039144"><ele>108.0</ele><time>2026-04-12T16:26:55.999Z</time></trkpt><trkpt lat="46.06838955707071" lon="13.197220777696058"><ele>108.0</ele><time>2026-04-12T16:26:56.999Z</time></trkpt><trkpt lat="46.0681260257284" lon="13.197254682440496"><ele>108.0</ele><time>2026-04-12T16:26:57.999Z</time></trkpt><trkpt lat="46.067860327801384" lon="13.19728784785465"><ele>108.0</ele><time>2026-04-12T16:26:58.999Z</time></trkpt><trkpt lat="46.06759611523071" lon="13.197322929556481"><ele>108.0</ele><time>2026-04-12T16:26:59.999Z</time></trkpt><trkpt lat="46.06733149460552" lon="13.197357352307778"><ele>107.5</ele><time>2026-04-12T16:27:00.999Z</time></trkpt><trkpt lat="46.06706399370498" lon="13.197391246202029"><ele>107.0</ele><time>2026-04-12T16:27:01.999Z</time></trkpt><trkpt lat="46.0667938502478" lon="13.197425190421463"><ele>106.0</ele><time>2026-04-12T16:27:02.999Z</time></trkpt><trkpt lat="46.06652727128906" lon="13.197461913250224"><ele>105.0</ele><time>2026-04-12T16:27:03.999Z</time></trkpt><trkpt lat="46.066264005825815" lon="13.197497077515509"><ele>105.0</ele><time>2026-04-12T16:27:04.999Z</time></trkpt><trkpt lat="46.06600141130074" lon="13.197530624460907"><ele>105.0</ele><time>2026-04-12T16:27:05.999Z</time></trkpt><trkpt lat="46.06573829349813" lon="13.197566136238908"><ele>105.5</ele><time>2026-04-12T16:27:06.999Z</time></trkpt><trkpt lat="46.06547326898897" lon="13.19759964653644"><ele>106.0</ele><time>2026-04-12T16:27:07.999Z</time></trkpt><trkpt lat="46.065206546725754" lon="13.19763380620257"><ele>105.0</ele><time>2026-04-12T16:27:08.999Z</time></trkpt><trkpt lat="46.06494315960295" lon="13.19766660697556"><ele>104.0</ele><time>2026-04-12T16:27:09.999Z</time></trkpt><trkpt lat="46.06468128044984" lon="13.197701853831196"><ele>104.0</ele><time>2026-04-12T16:27:10.999Z</time></trkpt><trkpt lat="46.064417332842595" lon="13.197736617563196"><ele>104.0</ele><time>2026-04-12T16:27:11.999Z</time></trkpt><trkpt lat="46.06415360695832" lon="13.197772525028505"><ele>104.5</ele><time>2026-04-12T16:27:12.999Z</time></trkpt><trkpt lat="46.06388586606923" lon="13.197809059510025"><ele>105.0</ele><time>2026-04-12T16:27:13.999Z</time></trkpt><trkpt lat="46.06361988082885" lon="13.197847148912231"><ele>105.0</ele><time>2026-04-12T16:27:14.999Z</time></trkpt><trkpt lat="46.06335391510025" lon="13.19787897579303"><ele>105.0</ele><time>2026-04-12T16:27:15.999Z</time></trkpt><trkpt lat="46.063090950749285" lon="13.197910378397793"><ele>104.0</ele><time>2026-04-12T16:27:16.999Z</time></trkpt><trkpt lat="46.062828773661735" lon="13.197939576321584"><ele>103.0</ele><time>2026-04-12T16:27:17.999Z</time></trkpt><trkpt lat="46.06256670787367" lon="13.197964310351486"><ele>101.0</ele><time>2026-04-12T16:27:18.999Z</time></trkpt><trkpt lat="46.062309308992695" lon="13.197991513595344"><ele>99.0</ele><time>2026-04-12T16:27:19.999Z</time></trkpt><trkpt lat="46.062049090977865" lon="13.198027332035766"><ele>99.0</ele><time>2026-04-12T16:27:20.999Z</time></trkpt><trkpt lat="46.0617889457862" lon="13.198060929276595"><ele>99.0</ele><time>2026-04-12T16:27:21.999Z</time></trkpt><trkpt lat="46.06152750272352" lon="13.198092659052303"><ele>101.5</ele><time>2026-04-12T16:27:22.999Z</time></trkpt><trkpt lat="46.06126724257562" lon="13.198127377969413"><ele>104.0</ele><time>2026-04-12T16:27:23.999Z</time></trkpt><trkpt lat="46.06100707952586" lon="13.198160997580091"><ele>105.0</ele><time>2026-04-12T16:27:24.999Z</time></trkpt><trkpt lat="46.060746198355474" lon="13.19819615788428"><ele>106.0</ele><time>2026-04-12T16:27:25.999Z</time></trkpt><trkpt lat="46.06048595008239" lon="13.198234811183363"><ele>106.0</ele><time>2026-04-12T16:27:26.999Z</time></trkpt><trkpt lat="46.06022612215721" lon="13.198282443896929"><ele>106.0</ele><time>2026-04-12T16:27:27.999Z</time></trkpt><trkpt lat="46.059964940221484" lon="13.198338463776457"><ele>106.0</ele><time>2026-04-12T16:27:28.999Z</time></trkpt><trkpt lat="46.059705447414885" lon="13.198408996391718"><ele>106.0</ele><time>2026-04-12T16:27:29.999Z</time></trkpt><trkpt lat="46.05944700568112" lon="13.198487754408562"><ele>106.0</ele><time>2026-04-12T16:27:30.999Z</time></trkpt><trkpt lat="46.05919090338572" lon="13.198580125861351"><ele>106.0</ele><time>2026-04-12T16:27:31.999Z</time></trkpt><trkpt lat="46.05894034131425" lon="13.198679812906368"><ele>105.0</ele><time>2026-04-12T16:27:32.999Z</time></trkpt><trkpt lat="46.058695050576816" lon="13.198777833998024"><ele>104.0</ele><time>2026-04-12T16:27:33.999Z</time></trkpt><trkpt lat="46.058453190698515" lon="13.198875421470447"><ele>104.0</ele><time>2026-04-12T16:27:34.999Z</time></trkpt><trkpt lat="46.05821334799953" lon="13.198979501655918"><ele>104.0</ele><time>2026-04-12T16:27:35.999Z</time></trkpt><trkpt lat="46.057978874458826" lon="13.199089076319925"><ele>104.0</ele><time>2026-04-12T16:27:36.999Z</time></trkpt><trkpt lat="46.0577437273021" lon="13.199205314991946"><ele>104.0</ele><time>2026-04-12T16:27:37.999Z</time></trkpt><trkpt lat="46.057505303425295" lon="13.199329973076313"><ele>103.5</ele><time>2026-04-12T16:27:38.999Z</time></trkpt><trkpt lat="46.05726589620425" lon="13.199464124307076"><ele>103.0</ele><time>2026-04-12T16:27:39.999Z</time></trkpt><trkpt lat="46.05702422358984" lon="13.19961265033074"><ele>103.0</ele><time>2026-04-12T16:27:40.999Z</time></trkpt><trkpt lat="46.056781434675436" lon="13.19977486195432"><ele>103.0</ele><time>2026-04-12T16:27:41.999Z</time></trkpt><trkpt lat="46.05653729863191" lon="13.199941563341845"><ele>104.0</ele><time>2026-04-12T16:27:42.999Z</time></trkpt><trkpt lat="46.056288567423614" lon="13.2001141147207"><ele>105.0</ele><time>2026-04-12T16:27:43.999Z</time></trkpt><trkpt lat="46.05604078364489" lon="13.200293433511039"><ele>105.0</ele><time>2026-04-12T16:27:44.999Z</time></trkpt><trkpt lat="46.05579485598818" lon="13.200470491943877"><ele>105.0</ele><time>2026-04-12T16:27:45.999Z</time></trkpt><trkpt lat="46.055544828691424" lon="13.200649728963379"><ele>102.5</ele><time>2026-04-12T16:27:46.999Z</time></trkpt><trkpt lat="46.0552947135498" lon="13.20083065356854"><ele>100.0</ele><time>2026-04-12T16:27:47.999Z</time></trkpt><trkpt lat="46.055044314897685" lon="13.201012299814103"><ele>99.5</ele><time>2026-04-12T16:27:48.999Z</time></trkpt><trkpt lat="46.0547925673506" lon="13.201196947592711"><ele>99.0</ele><time>2026-04-12T16:27:49.999Z</time></trkpt><trkpt lat="46.054543608895294" lon="13.201383429361435"><ele>99.5</ele><time>2026-04-12T16:27:50.999Z</time></trkpt><trkpt lat="46.05429610097753" lon="13.201566483237977"><ele>100.0</ele><time>2026-04-12T16:27:51.999Z</time></trkpt><trkpt lat="46.05404396524204" lon="13.201748487256113"><ele>101.0</ele><time>2026-04-12T16:27:52.999Z</time></trkpt><trkpt lat="46.053788873773726" lon="13.201928107940299"><ele>102.0</ele><time>2026-04-12T16:27:53.999Z</time></trkpt><trkpt lat="46.05353138670694" lon="13.202104924423164"><ele>101.0</ele><time>2026-04-12T16:27:54.999Z</time></trkpt><trkpt lat="46.053276526512334" lon="13.20228420457283"><ele>100.0</ele><time>2026-04-12T16:27:55.999Z</time></trkpt><trkpt lat="46.05302636467047" lon="13.20246371794705"><ele>100.0</ele><time>2026-04-12T16:27:56.999Z</time></trkpt><trkpt lat="46.052778667757224" lon="13.202642037784077"><ele>100.0</ele><time>2026-04-12T16:27:57.999Z</time></trkpt><trkpt lat="46.05253095311419" lon="13.202822203587822"><ele>99.5</ele><time>2026-04-12T16:27:58.999Z</time></trkpt><trkpt lat="46.05228611358209" lon="13.20299998090741"><ele>99.0</ele><time>2026-04-12T16:27:59.999Z</time></trkpt><trkpt lat="46.05204221950538" lon="13.203178400950103"><ele>97.5</ele><time>2026-04-12T16:28:00.999Z</time></trkpt><trkpt lat="46.05179890134513" lon="13.203355568662582"><ele>96.0</ele><time>2026-04-12T16:28:01.999Z</time></trkpt><trkpt lat="46.0515524007212" lon="13.203533936948755"><ele>94.5</ele><time>2026-04-12T16:28:02.999Z</time></trkpt><trkpt lat="46.05130586134795" lon="13.203711068838496"><ele>93.0</ele><time>2026-04-12T16:28:03.999Z</time></trkpt><trkpt lat="46.05106003109096" lon="13.203886784440495"><ele>93.5</ele><time>2026-04-12T16:28:04.999Z</time></trkpt><trkpt lat="46.05081444430019" lon="13.204066999206878"><ele>94.0</ele><time>2026-04-12T16:28:05.999Z</time></trkpt><trkpt lat="46.0505696510323" lon="13.20424465979817"><ele>94.5</ele><time>2026-04-12T16:28:06.999Z</time></trkpt><trkpt lat="46.0503260003732" lon="13.204425086907316"><ele>95.0</ele><time>2026-04-12T16:28:07.999Z</time></trkpt><trkpt lat="46.050079375903096" lon="13.204605630097731"><ele>94.5</ele><time>2026-04-12T16:28:08.999Z</time></trkpt><trkpt lat="46.04982760460349" lon="13.204788854991412"><ele>94.0</ele><time>2026-04-12T16:28:09.999Z</time></trkpt><trkpt lat="46.049578872391024" lon="13.204974147560518"><ele>93.5</ele><time>2026-04-12T16:28:10.999Z</time></trkpt><trkpt lat="46.0493334375911" lon="13.205160607495497"><ele>93.0</ele><time>2026-04-12T16:28:11.999Z</time></trkpt><trkpt lat="46.04908951381339" lon="13.205351910005067"><ele>93.0</ele><time>2026-04-12T16:28:12.999Z</time></trkpt><trkpt lat="46.04884618341154" lon="13.205546207960733"><ele>93.0</ele><time>2026-04-12T16:28:13.999Z</time></trkpt><trkpt lat="46.0486068737974" lon="13.205748754123972"><ele>91.5</ele><time>2026-04-12T16:28:14.999Z</time></trkpt><trkpt lat="46.0483733247907" lon="13.205964546564529"><ele>90.0</ele><time>2026-04-12T16:28:15.999Z</time></trkpt><trkpt lat="46.048142746779796" lon="13.206191394502042"><ele>91.0</ele><time>2026-04-12T16:28:16.999Z</time></trkpt><trkpt lat="46.047916180222046" lon="13.206426851686205"><ele>92.0</ele><time>2026-04-12T16:28:17.999Z</time></trkpt><trkpt lat="46.04769773777935" lon="13.206672118119672"><ele>92.0</ele><time>2026-04-12T16:28:18.999Z</time></trkpt><trkpt lat="46.0474852571082" lon="13.206927381664306"><ele>92.0</ele><time>2026-04-12T16:28:19.999Z</time></trkpt><trkpt lat="46.04727511890449" lon="13.207188539315208"><ele>93.5</ele><time>2026-04-12T16:28:20.999Z</time></trkpt><trkpt lat="46.047065006160864" lon="13.207457994983631"><ele>95.0</ele><time>2026-04-12T16:28:21.999Z</time></trkpt><trkpt lat="46.0468577588587" lon="13.207738398394548"><ele>95.0</ele><time>2026-04-12T16:28:22.999Z</time></trkpt><trkpt lat="46.046652037017076" lon="13.208029869469065"><ele>95.0</ele><time>2026-04-12T16:28:23.999Z</time></trkpt><trkpt lat="46.04644147304488" lon="13.208323013689784"><ele>95.5</ele><time>2026-04-12T16:28:24.999Z</time></trkpt><trkpt lat="46.046230931502414" lon="13.208605155744666"><ele>96.0</ele><time>2026-04-12T16:28:25.999Z</time></trkpt><trkpt lat="46.046016226850625" lon="13.208877631015255"><ele>96.5</ele><time>2026-04-12T16:28:27Z</time></trkpt><trkpt lat="46.045791029907825" lon="13.209129376522997"><ele>97.0</ele><time>2026-04-12T16:28:28Z</time></trkpt><trkpt lat="46.04555566571652" lon="13.20936161772532"><ele>97.0</ele><time>2026-04-12T16:28:29Z</time></trkpt><trkpt lat="46.04531935713604" lon="13.209581713089355"><ele>97.0</ele><time>2026-04-12T16:28:30Z</time></trkpt><trkpt lat="46.045080227388866" lon="13.209783004388951"><ele>95.0</ele><time>2026-04-12T16:28:31Z</time></trkpt><trkpt lat="46.04483838209693" lon="13.209969894310351"><ele>93.0</ele><time>2026-04-12T16:28:32Z</time></trkpt><trkpt lat="46.04459623881936" lon="13.210143142374237"><ele>93.0</ele><time>2026-04-12T16:28:33Z</time></trkpt><trkpt lat="46.04435071297918" lon="13.210308939099516"><ele>93.0</ele><time>2026-04-12T16:28:34Z</time></trkpt><trkpt lat="46.04410200276766" lon="13.210457476178735"><ele>90.5</ele><time>2026-04-12T16:28:35Z</time></trkpt><trkpt lat="46.043849704353875" lon="13.210594355684178"><ele>88.0</ele><time>2026-04-12T16:28:36Z</time></trkpt><trkpt lat="46.04359485625814" lon="13.210721148137663"><ele>88.0</ele><time>2026-04-12T16:28:37Z</time></trkpt><trkpt lat="46.04333904002503" lon="13.210833331171019"><ele>88.0</ele><time>2026-04-12T16:28:38Z</time></trkpt><trkpt lat="46.04308074628539" lon="13.210928023628817"><ele>89.0</ele><time>2026-04-12T16:28:39Z</time></trkpt><trkpt lat="46.04281944757526" lon="13.210989758825692"><ele>90.0</ele><time>2026-04-12T16:28:40Z</time></trkpt><trkpt lat="46.042555281520634" lon="13.21101996045915"><ele>90.5</ele><time>2026-04-12T16:28:41Z</time></trkpt><trkpt lat="46.04229776739924" lon="13.211015233317198"><ele>91.0</ele><time>2026-04-12T16:28:42Z</time></trkpt><trkpt lat="46.04205563603535" lon="13.210979711855733"><ele>91.0</ele><time>2026-04-12T16:28:43Z</time></trkpt><trkpt lat="46.04182635685903" lon="13.210918489335889"><ele>91.0</ele><time>2026-04-12T16:28:44Z</time></trkpt><trkpt lat="46.04159702128015" lon="13.210847176035717"><ele>90.5</ele><time>2026-04-12T16:28:45Z</time></trkpt><trkpt lat="46.0413686679692" lon="13.210774741399236"><ele>90.0</ele><time>2026-04-12T16:28:46Z</time></trkpt><trkpt lat="46.04113739436099" lon="13.210706719877814"><ele>89.5</ele><time>2026-04-12T16:28:47Z</time></trkpt><trkpt lat="46.04090174924584" lon="13.210655368269883"><ele>89.0</ele><time>2026-04-12T16:28:48Z</time></trkpt><trkpt lat="46.04067185734714" lon="13.210638284731587"><ele>88.0</ele><time>2026-04-12T16:28:49Z</time></trkpt><trkpt lat="46.04044606389179" lon="13.210646081709632"><ele>87.0</ele><time>2026-04-12T16:28:49.999Z</time></trkpt><trkpt lat="46.04022314859326" lon="13.210683619726547"><ele>86.66666666666667</ele><time>2026-04-12T16:28:50.999Z</time></trkpt><trkpt lat="46.04000721162185" lon="13.210764500594916"><ele>86.33333333333334</ele><time>2026-04-12T16:28:51.999Z</time></trkpt><trkpt lat="46.03980584514024" lon="13.210890354234"><ele>86.0</ele><time>2026-04-12T16:28:52.999Z</time></trkpt><trkpt lat="46.039622580096314" lon="13.211056511879084"><ele>86.0</ele><time>2026-04-12T16:28:53.999Z</time></trkpt><trkpt lat="46.03946143323974" lon="13.21125945187783"><ele>86.0</ele><time>2026-04-12T16:28:54.999Z</time></trkpt><trkpt lat="46.03930781204831" lon="13.211476832545832"><ele>86.0</ele><time>2026-04-12T16:28:55.999Z</time></trkpt><trkpt lat="46.03915554274653" lon="13.211698961058167"><ele>86.0</ele><time>2026-04-12T16:28:56.999Z</time></trkpt><trkpt lat="46.03900406987045" lon="13.211937774585333"><ele>86.0</ele><time>2026-04-12T16:28:57.999Z</time></trkpt><trkpt lat="46.03885291530861" lon="13.212183382145488"><ele>88.0</ele><time>2026-04-12T16:28:58.999Z</time></trkpt><trkpt lat="46.038696243641" lon="13.212425314304927"><ele>90.0</ele><time>2026-04-12T16:28:59.999Z</time></trkpt><trkpt lat="46.038536388993855" lon="13.212672341796988"><ele>90.0</ele><time>2026-04-12T16:29:00.999Z</time></trkpt><trkpt lat="46.03837251353493" lon="13.212903664937603"><ele>90.0</ele><time>2026-04-12T16:29:01.999Z</time></trkpt><trkpt lat="46.03819321742061" lon="13.213113604930685"><ele>89.0</ele><time>2026-04-12T16:29:02.999Z</time></trkpt><trkpt lat="46.037994593898624" lon="13.2132902699035"><ele>88.0</ele><time>2026-04-12T16:29:03.999Z</time></trkpt><trkpt lat="46.037783281740985" lon="13.21342154203742"><ele>88.0</ele><time>2026-04-12T16:29:04.999Z</time></trkpt><trkpt lat="46.037556518866154" lon="13.213492853100842"><ele>88.0</ele><time>2026-04-12T16:29:05.999Z</time></trkpt><trkpt lat="46.03732475144129" lon="13.213537604115453"><ele>87.5</ele><time>2026-04-12T16:29:06.999Z</time></trkpt><trkpt lat="46.037088351030235" lon="13.213547630896098"><ele>87.0</ele><time>2026-04-12T16:29:07.999Z</time></trkpt><trkpt lat="46.03684616652575" lon="13.213523471764637"><ele>88.0</ele><time>2026-04-12T16:29:08.999Z</time></trkpt><trkpt lat="46.03659862098787" lon="13.213462473741606"><ele>89.0</ele><time>2026-04-12T16:29:09.999Z</time></trkpt><trkpt lat="46.036347350500506" lon="13.213367217017835"><ele>89.0</ele><time>2026-04-12T16:29:10.999Z</time></trkpt><trkpt lat="46.03608910214061" lon="13.213255724804421"><ele>89.0</ele><time>2026-04-12T16:29:11.999Z</time></trkpt><trkpt lat="46.03582767695497" lon="13.21313873220513"><ele>87.5</ele><time>2026-04-12T16:29:12.999Z</time></trkpt><trkpt lat="46.03555865122718" lon="13.213015112922774"><ele>86.0</ele><time>2026-04-12T16:29:13.999Z</time></trkpt><trkpt lat="46.03528097597956" lon="13.212909431899188"><ele>86.0</ele><time>2026-04-12T16:29:14.999Z</time></trkpt><trkpt lat="46.03499853474094" lon="13.212824517319337"><ele>86.0</ele><time>2026-04-12T16:29:15.999Z</time></trkpt><trkpt lat="46.03470979958001" lon="13.212777129514286"><ele>86.0</ele><time>2026-04-12T16:29:16.999Z</time></trkpt><trkpt lat="46.03441485930476" lon="13.212764190690818"><ele>86.0</ele><time>2026-04-12T16:29:17.999Z</time></trkpt><trkpt lat="46.03411658866551" lon="13.21278804151776"><ele>86.5</ele><time>2026-04-12T16:29:18.999Z</time></trkpt><trkpt lat="46.03381383202447" lon="13.212813827048393"><ele>87.0</ele><time>2026-04-12T16:29:19.999Z</time></trkpt><trkpt lat="46.03351181584525" lon="13.212836806553025"><ele>86.5</ele><time>2026-04-12T16:29:20.999Z</time></trkpt><trkpt lat="46.03321136409116" lon="13.212856414625206"><ele>86.0</ele><time>2026-04-12T16:29:21.999Z</time></trkpt><trkpt lat="46.03291740791974" lon="13.212874977063365"><ele>86.0</ele><time>2026-04-12T16:29:22.999Z</time></trkpt><trkpt lat="46.03262182599967" lon="13.21289287362769"><ele>86.0</ele><time>2026-04-12T16:29:23.999Z</time></trkpt><trkpt lat="46.03232457468631" lon="13.212913148619847"><ele>86.0</ele><time>2026-04-12T16:29:24.999Z</time></trkpt><trkpt lat="46.0320274551006" lon="13.212935617146808"><ele>86.0</ele><time>2026-04-12T16:29:25.999Z</time></trkpt><trkpt lat="46.03173321432325" lon="13.21295656762367"><ele>85.5</ele><time>2026-04-12T16:29:26.999Z</time></trkpt><trkpt lat="46.03143822973756" lon="13.212977218989783"><ele>85.0</ele><time>2026-04-12T16:29:27.999Z</time></trkpt><trkpt lat="46.03113983352667" lon="13.212992547349241"><ele>85.0</ele><time>2026-04-12T16:29:28.999Z</time></trkpt><trkpt lat="46.030837334712956" lon="13.213007182113097"><ele>85.0</ele><time>2026-04-12T16:29:29.999Z</time></trkpt><trkpt lat="46.03053069084197" lon="13.213020575866492"><ele>84.5</ele><time>2026-04-12T16:29:30.999Z</time></trkpt><trkpt lat="46.03021975334069" lon="13.213034020168298"><ele>84.0</ele><time>2026-04-12T16:29:31.999Z</time></trkpt><trkpt lat="46.02990990202109" lon="13.213044966504928"><ele>82.5</ele><time>2026-04-12T16:29:32.999Z</time></trkpt><trkpt lat="46.02960506953955" lon="13.213058388199322"><ele>81.0</ele><time>2026-04-12T16:29:33.999Z</time></trkpt><trkpt lat="46.02930563383372" lon="13.21306649234689"><ele>82.0</ele><time>2026-04-12T16:29:34.999Z</time></trkpt><trkpt lat="46.02900988070864" lon="13.213069903289394"><ele>83.0</ele><time>2026-04-12T16:29:35.999Z</time></trkpt><trkpt lat="46.02871515637787" lon="13.213065559835377"><ele>83.0</ele><time>2026-04-12T16:29:36.999Z</time></trkpt><trkpt lat="46.02842571772909" lon="13.21304240873929"><ele>83.0</ele><time>2026-04-12T16:29:37.999Z</time></trkpt><trkpt lat="46.028136891785394" lon="13.213008914559257"><ele>81.5</ele><time>2026-04-12T16:29:38.999Z</time></trkpt><trkpt lat="46.02784688835953" lon="13.212971526489811"><ele>80.0</ele><time>2026-04-12T16:29:39.999Z</time></trkpt><trkpt lat="46.02755326339957" lon="13.212927798344861"><ele>78.5</ele><time>2026-04-12T16:29:40.999Z</time></trkpt><trkpt lat="46.0272624066334" lon="13.212873378826629"><ele>77.0</ele><time>2026-04-12T16:29:41.999Z</time></trkpt><trkpt lat="46.02697235574656" lon="13.212820963217904"><ele>77.0</ele><time>2026-04-12T16:29:42.999Z</time></trkpt><trkpt lat="46.02668438860845" lon="13.212769192066675"><ele>77.0</ele><time>2026-04-12T16:29:43.999Z</time></trkpt><trkpt lat="46.02640150038011" lon="13.212717530608941"><ele>77.5</ele><time>2026-04-12T16:29:44.999Z</time></trkpt><trkpt lat="46.02612283646637" lon="13.212671990971009"><ele>78.0</ele><time>2026-04-12T16:29:45.999Z</time></trkpt><trkpt lat="46.02585114458355" lon="13.212634647465514"><ele>78.0</ele><time>2026-04-12T16:29:46.999Z</time></trkpt><trkpt lat="46.025582797137965" lon="13.212605608547124"><ele>78.0</ele><time>2026-04-12T16:29:47.999Z</time></trkpt><trkpt lat="46.025319065069525" lon="13.212588103461211"><ele>78.0</ele><time>2026-04-12T16:29:48.999Z</time></trkpt><trkpt lat="46.025055227387774" lon="13.212577629485377"><ele>78.0</ele><time>2026-04-12T16:29:49.999Z</time></trkpt><trkpt lat="46.0247886466192" lon="13.212580692528451"><ele>78.5</ele><time>2026-04-12T16:29:50.999Z</time></trkpt><trkpt lat="46.02451971900032" lon="13.212598845836379"><ele>79.0</ele><time>2026-04-12T16:29:51.999Z</time></trkpt><trkpt lat="46.0242498189846" lon="13.212636758188426"><ele>79.0</ele><time>2026-04-12T16:29:52.999Z</time></trkpt><trkpt lat="46.023974695659284" lon="13.212704632982641"><ele>79.0</ele><time>2026-04-12T16:29:53.999Z</time></trkpt><trkpt lat="46.02369304590879" lon="13.2127911510978"><ele>79.0</ele><time>2026-04-12T16:29:54.999Z</time></trkpt><trkpt lat="46.023410573817834" lon="13.212904481393208"><ele>79.0</ele><time>2026-04-12T16:29:55.999Z</time></trkpt><trkpt lat="46.023131596974174" lon="13.213058166181598"><ele>79.5</ele><time>2026-04-12T16:29:56.999Z</time></trkpt><trkpt lat="46.022854693726295" lon="13.213250111378258"><ele>80.0</ele><time>2026-04-12T16:29:57.999Z</time></trkpt><trkpt lat="46.02257685054195" lon="13.21347027446877"><ele>80.5</ele><time>2026-04-12T16:29:58.999Z</time></trkpt><trkpt lat="46.022297666806615" lon="13.213697284633962"><ele>81.0</ele><time>2026-04-12T16:29:59.999Z</time></trkpt><trkpt lat="46.02202425097058" lon="13.21393682079197"><ele>81.5</ele><time>2026-04-12T16:30:00.999Z</time></trkpt><trkpt lat="46.02175276206126" lon="13.21417529111835"><ele>82.0</ele><time>2026-04-12T16:30:01.999Z</time></trkpt><trkpt lat="46.02147297676055" lon="13.214410741549907"><ele>81.0</ele><time>2026-04-12T16:30:02.999Z</time></trkpt><trkpt lat="46.02119213841014" lon="13.214645150915173"><ele>80.0</ele><time>2026-04-12T16:30:03.999Z</time></trkpt><trkpt lat="46.02091473669328" lon="13.214885078186038"><ele>79.5</ele><time>2026-04-12T16:30:04.999Z</time></trkpt><trkpt lat="46.02064004601011" lon="13.215120342808694"><ele>79.0</ele><time>2026-04-12T16:30:05.999Z</time></trkpt><trkpt lat="46.020375805983704" lon="13.21534400888073"><ele>79.0</ele><time>2026-04-12T16:30:06.999Z</time></trkpt><trkpt lat="46.020121546165115" lon="13.215558164971512"><ele>79.0</ele><time>2026-04-12T16:30:07.999Z</time></trkpt><trkpt lat="46.01987631636735" lon="13.215765903211487"><ele>79.0</ele><time>2026-04-12T16:30:08.999Z</time></trkpt><trkpt lat="46.0196386457502" lon="13.215971188891492"><ele>79.0</ele><time>2026-04-12T16:30:09.999Z</time></trkpt><trkpt lat="46.01940784374783" lon="13.216177779174211"><ele>79.0</ele><time>2026-04-12T16:30:10.999Z</time></trkpt><trkpt lat="46.01918083563332" lon="13.216393540372465"><ele>79.0</ele><time>2026-04-12T16:30:11.999Z</time></trkpt><trkpt lat="46.01896027630046" lon="13.216614453234826"><ele>80.0</ele><time>2026-04-12T16:30:12.999Z</time></trkpt><trkpt lat="46.01874541552725" lon="13.216846309593107"><ele>81.0</ele><time>2026-04-12T16:30:13.999Z</time></trkpt><trkpt lat="46.01853864746288" lon="13.217093813434545"><ele>81.5</ele><time>2026-04-12T16:30:14.999Z</time></trkpt><trkpt lat="46.018345980777966" lon="13.217354597105558"><ele>82.0</ele><time>2026-04-12T16:30:15.999Z</time></trkpt><trkpt lat="46.018168205952804" lon="13.217622373038445"><ele>82.0</ele><time>2026-04-12T16:30:16.999Z</time></trkpt><trkpt lat="46.01800198355727" lon="13.217906461857787"><ele>82.0</ele><time>2026-04-12T16:30:17.999Z</time></trkpt><trkpt lat="46.01785812959496" lon="13.218206892317273"><ele>82.0</ele><time>2026-04-12T16:30:18.999Z</time></trkpt><trkpt lat="46.01772494232438" lon="13.21851393741055"><ele>82.0</ele><time>2026-04-12T16:30:19.999Z</time></trkpt><trkpt lat="46.017597331198836" lon="13.218825899076048"><ele>81.0</ele><time>2026-04-12T16:30:20.999Z</time></trkpt><trkpt lat="46.01747868904572" lon="13.219151043386171"><ele>80.0</ele><time>2026-04-12T16:30:21.999Z</time></trkpt><trkpt lat="46.01737217778541" lon="13.219495961551305"><ele>79.0</ele><time>2026-04-12T16:30:22.999Z</time></trkpt><trkpt lat="46.017276431981564" lon="13.21985357011175"><ele>78.0</ele><time>2026-04-12T16:30:23.999Z</time></trkpt><trkpt lat="46.01718792858996" lon="13.220217561464027"><ele>78.0</ele><time>2026-04-12T16:30:24.999Z</time></trkpt><trkpt lat="46.01710507911791" lon="13.220580993560706"><ele>78.0</ele><time>2026-04-12T16:30:25.999Z</time></trkpt><trkpt lat="46.017026470934674" lon="13.220940416817472"><ele>78.0</ele><time>2026-04-12T16:30:26.999Z</time></trkpt><trkpt lat="46.016944099766036" lon="13.221301320436819"><ele>78.0</ele><time>2026-04-12T16:30:27.999Z</time></trkpt><trkpt lat="46.01685614180026" lon="13.221668062269387"><ele>78.0</ele><time>2026-04-12T16:30:28.999Z</time></trkpt><trkpt lat="46.01676270350199" lon="13.222035232607281"><ele>78.0</ele><time>2026-04-12T16:30:29.999Z</time></trkpt><trkpt lat="46.01667363511036" lon="13.222392610862306"><ele>79.0</ele><time>2026-04-12T16:30:30.999Z</time></trkpt><trkpt lat="46.01658588484337" lon="13.22272669957215"><ele>80.0</ele><time>2026-04-12T16:30:31.999Z</time></trkpt><trkpt lat="46.01649319320223" lon="13.223031051265725"><ele>80.33333333333334</ele><time>2026-04-12T16:30:33Z</time></trkpt><trkpt lat="46.01639993965192" lon="13.223318007340207"><ele>80.66666666666667</ele><time>2026-04-12T16:30:34Z</time></trkpt><trkpt lat="46.01630225129608" lon="13.223570931535425"><ele>81.0</ele><time>2026-04-12T16:30:35Z</time></trkpt><trkpt lat="46.01619989525688" lon="13.223802883943645"><ele>80.66666666666667</ele><time>2026-04-12T16:30:36Z</time></trkpt><trkpt lat="46.01609730048872" lon="13.22402045487933"><ele>80.33333333333334</ele><time>2026-04-12T16:30:37Z</time></trkpt><trkpt lat="46.01599003518339" lon="13.224218296218389"><ele>80.0</ele><time>2026-04-12T16:30:38Z</time></trkpt><trkpt lat="46.015884614498304" lon="13.224397643307313"><ele>80.0</ele><time>2026-04-12T16:30:39Z</time></trkpt><trkpt lat="46.01578423875125" lon="13.224559567289957"><ele>80.0</ele><time>2026-04-12T16:30:40Z</time></trkpt><trkpt lat="46.01570499458897" lon="13.224684868325193"><ele>80.0</ele><time>2026-04-12T16:30:41Z</time></trkpt><trkpt lat="46.015622955584114" lon="13.22480283952101"><ele>80.0</ele><time>2026-04-12T16:30:42Z</time></trkpt><trkpt lat="46.015504312784685" lon="13.224957473121878"><ele>80.0</ele><time>2026-04-12T16:30:43Z</time></trkpt><trkpt lat="46.015347382159796" lon="13.22512101127492"><ele>80.0</ele><time>2026-04-12T16:30:44Z</time></trkpt><trkpt lat="46.01517357161381" lon="13.225289024225894"><ele>80.0</ele><time>2026-04-12T16:30:45Z</time></trkpt><trkpt lat="46.015013663172304" lon="13.22541673277743"><ele>79.33333333333334</ele><time>2026-04-12T16:30:46Z</time></trkpt><trkpt lat="46.01488878234564" lon="13.225553104490139"><ele>78.66666666666667</ele><time>2026-04-12T16:30:47Z</time></trkpt><trkpt lat="46.01472934083149" lon="13.225572725941854"><ele>78.0</ele><time>2026-04-12T16:30:48Z</time></trkpt><trkpt lat="46.014591067557895" lon="13.225586636128869"><ele>78.0</ele><time>2026-04-12T16:30:49Z</time></trkpt><trkpt lat="46.01444550822423" lon="13.225545325792911"><ele>78.0</ele><time>2026-04-12T16:30:50Z</time></trkpt><trkpt lat="46.01430754120204" lon="13.225475464161377"><ele>78.0</ele><time>2026-04-12T16:30:51Z</time></trkpt><trkpt lat="46.01419583561519" lon="13.225344600717307"><ele>78.0</ele><time>2026-04-12T16:30:52Z</time></trkpt><trkpt lat="46.01410705805808" lon="13.225177231645706"><ele>77.66666666666667</ele><time>2026-04-12T16:30:52.999Z</time></trkpt><trkpt lat="46.01404957683531" lon="13.224974770382447"><ele>77.33333333333334</ele><time>2026-04-12T16:30:53.999Z</time></trkpt><trkpt lat="46.0140258458405" lon="13.224757872118136"><ele>77.0</ele><time>2026-04-12T16:30:54.999Z</time></trkpt><trkpt lat="46.01404221555636" lon="13.224533996263625"><ele>77.0</ele><time>2026-04-12T16:30:55.999Z</time></trkpt><trkpt lat="46.014101895021305" lon="13.224328149510656"><ele>77.0</ele><time>2026-04-12T16:30:56.999Z</time></trkpt><trkpt lat="46.01419586280372" lon="13.224150313056303"><ele>77.0</ele><time>2026-04-12T16:30:57.999Z</time></trkpt><trkpt lat="46.01431876315512" lon="13.224013713783727"><ele>77.66666666666667</ele><time>2026-04-12T16:30:58.999Z</time></trkpt><trkpt lat="46.01445879119074" lon="13.223924585557068"><ele>78.33333333333333</ele><time>2026-04-12T16:30:59.999Z</time></trkpt><trkpt lat="46.01461207870892" lon="13.223897389381575"><ele>79.0</ele><time>2026-04-12T16:31:00.999Z</time></trkpt><trkpt lat="46.01476497772603" lon="13.223932139592671"><ele>78.66666666666666</ele><time>2026-04-12T16:31:01.999Z</time></trkpt><trkpt lat="46.014909450604556" lon="13.224018756175235"><ele>78.33333333333333</ele><time>2026-04-12T16:31:02.999Z</time></trkpt><trkpt lat="46.0150397516462" lon="13.224168059126429"><ele>78.0</ele><time>2026-04-12T16:31:03.999Z</time></trkpt><trkpt lat="46.015168901316464" lon="13.224337634367709"><ele>78.66666666666667</ele><time>2026-04-12T16:31:04.999Z</time></trkpt><trkpt lat="46.01529426195893" lon="13.224530437045159"><ele>79.33333333333334</ele><time>2026-04-12T16:31:05.999Z</time></trkpt><trkpt lat="46.01541637913729" lon="13.224751351725702"><ele>80.0</ele><time>2026-04-12T16:31:06.999Z</time></trkpt><trkpt lat="46.01553386126923" lon="13.224999149592996"><ele>80.0</ele><time>2026-04-12T16:31:07.999Z</time></trkpt><trkpt lat="46.01564464956932" lon="13.225271280405986"><ele>80.0</ele><time>2026-04-12T16:31:08.999Z</time></trkpt><trkpt lat="46.015758871750556" lon="13.225539427058372"><ele>80.0</ele><time>2026-04-12T16:31:09.999Z</time></trkpt><trkpt lat="46.015869885131934" lon="13.225789270444059"><ele>80.33333333333334</ele><time>2026-04-12T16:31:10.999Z</time></trkpt><trkpt lat="46.01597160424356" lon="13.226020368909092"><ele>80.66666666666667</ele><time>2026-04-12T16:31:11.999Z</time></trkpt><trkpt lat="46.01606542282123" lon="13.226241234711035"><ele>81.0</ele><time>2026-04-12T16:31:12.999Z</time></trkpt><trkpt lat="46.016156755478384" lon="13.226461589413999"><ele>81.0</ele><time>2026-04-12T16:31:13.999Z</time></trkpt><trkpt lat="46.016250564549836" lon="13.226679290020355"><ele>81.0</ele><time>2026-04-12T16:31:14.999Z</time></trkpt><trkpt lat="46.01634346657708" lon="13.226894492700534"><ele>81.0</ele><time>2026-04-12T16:31:15.999Z</time></trkpt><trkpt lat="46.0164321405806" lon="13.22710789647392"><ele>81.0</ele><time>2026-04-12T16:31:16.999Z</time></trkpt><trkpt lat="46.016519053555236" lon="13.227318534107738"><ele>81.0</ele><time>2026-04-12T16:31:17.999Z</time></trkpt><trkpt lat="46.01660519626714" lon="13.22752777620614"><ele>81.0</ele><time>2026-04-12T16:31:18.999Z</time></trkpt><trkpt lat="46.01669162429895" lon="13.227738533674755"><ele>81.0</ele><time>2026-04-12T16:31:19.999Z</time></trkpt><trkpt lat="46.01677789639836" lon="13.227957684843103"><ele>81.0</ele><time>2026-04-12T16:31:20.999Z</time></trkpt><trkpt lat="46.01686509120949" lon="13.228191964571163"><ele>81.0</ele><time>2026-04-12T16:31:21.999Z</time></trkpt><trkpt lat="46.01695298515361" lon="13.228435022124781"><ele>80.33333333333333</ele><time>2026-04-12T16:31:22.999Z</time></trkpt><trkpt lat="46.01704082924332" lon="13.228682919037976"><ele>79.66666666666666</ele><time>2026-04-12T16:31:23.999Z</time></trkpt><trkpt lat="46.01711721562787" lon="13.22891126144605"><ele>79.0</ele><time>2026-04-12T16:31:24.999Z</time></trkpt><trkpt lat="46.01718642836793" lon="13.229133557441912"><ele>78.66666666666666</ele><time>2026-04-12T16:31:25.999Z</time></trkpt><trkpt lat="46.01725580183811" lon="13.229373508702084"><ele>78.33333333333333</ele><time>2026-04-12T16:31:26.999Z</time></trkpt><trkpt lat="46.01732517794007" lon="13.229623226563369"><ele>78.0</ele><time>2026-04-12T16:31:27.999Z</time></trkpt><trkpt lat="46.01738571301106" lon="13.229876514540209"><ele>78.0</ele><time>2026-04-12T16:31:28.999Z</time></trkpt><trkpt lat="46.01744015091736" lon="13.230131075915027"><ele>78.0</ele><time>2026-04-12T16:31:29.999Z</time></trkpt><trkpt lat="46.01748956172147" lon="13.230391897278711"><ele>78.0</ele><time>2026-04-12T16:31:30.999Z</time></trkpt><trkpt lat="46.01753738118134" lon="13.23066813476973"><ele>78.0</ele><time>2026-04-12T16:31:31.999Z</time></trkpt><trkpt lat="46.017582038047756" lon="13.230942693654818"><ele>78.0</ele><time>2026-04-12T16:31:32.999Z</time></trkpt><trkpt lat="46.017624932355105" lon="13.23122282858212"><ele>78.0</ele><time>2026-04-12T16:31:33.999Z</time></trkpt><trkpt lat="46.01766417572724" lon="13.231515005808253"><ele>78.0</ele><time>2026-04-12T16:31:34.999Z</time></trkpt><trkpt lat="46.01770038815002" lon="13.231816590942326"><ele>78.0</ele><time>2026-04-12T16:31:35.999Z</time></trkpt><trkpt lat="46.017736018848396" lon="13.23214160931161"><ele>78.0</ele><time>2026-04-12T16:31:36.999Z</time></trkpt><trkpt lat="46.01777259022405" lon="13.232504863337017"><ele>78.0</ele><time>2026-04-12T16:31:37.999Z</time></trkpt><trkpt lat="46.01779816258567" lon="13.2328980572304"><ele>78.0</ele><time>2026-04-12T16:31:38.999Z</time></trkpt><trkpt lat="46.017808729091534" lon="13.233307554102552"><ele>78.0</ele><time>2026-04-12T16:31:39.999Z</time></trkpt><trkpt lat="46.01780245367119" lon="13.233718474436289"><ele>78.0</ele><time>2026-04-12T16:31:40.999Z</time></trkpt><trkpt lat="46.0177826422754" lon="13.234123456524811"><ele>78.0</ele><time>2026-04-12T16:31:41.999Z</time></trkpt><trkpt lat="46.01775635244621" lon="13.234503713848913"><ele>78.0</ele><time>2026-04-12T16:31:42.999Z</time></trkpt><trkpt lat="46.01772206459366" lon="13.234872738685231"><ele>78.0</ele><time>2026-04-12T16:31:43.999Z</time></trkpt><trkpt lat="46.01768345275991" lon="13.235245561640546"><ele>78.0</ele><time>2026-04-12T16:31:44.999Z</time></trkpt><trkpt lat="46.01763898564747" lon="13.235628018271255"><ele>78.5</ele><time>2026-04-12T16:31:45.999Z</time></trkpt><trkpt lat="46.017582792045175" lon="13.236010534776435"><ele>79.0</ele><time>2026-04-12T16:31:46.999Z</time></trkpt><trkpt lat="46.017515751262586" lon="13.236383968424292"><ele>78.0</ele><time>2026-04-12T16:31:47.999Z</time></trkpt><trkpt lat="46.01744600473622" lon="13.236746959021284"><ele>77.0</ele><time>2026-04-12T16:31:48.999Z</time></trkpt><trkpt lat="46.01737734941754" lon="13.237104919585915"><ele>77.0</ele><time>2026-04-12T16:31:49.999Z</time></trkpt><trkpt lat="46.017309005313514" lon="13.237467945979354"><ele>77.0</ele><time>2026-04-12T16:31:50.999Z</time></trkpt><trkpt lat="46.01724020076797" lon="13.237837977883508"><ele>77.0</ele><time>2026-04-12T16:31:51.999Z</time></trkpt><trkpt lat="46.01717244879157" lon="13.238200046616267"><ele>77.0</ele><time>2026-04-12T16:31:52.999Z</time></trkpt><trkpt lat="46.017106887829975" lon="13.238560772248233"><ele>77.0</ele><time>2026-04-12T16:31:53.999Z</time></trkpt><trkpt lat="46.017040668999876" lon="13.23891916394374"><ele>77.0</ele><time>2026-04-12T16:31:54.999Z</time></trkpt><trkpt lat="46.01697550170055" lon="13.239277747834276"><ele>76.5</ele><time>2026-04-12T16:31:55.999Z</time></trkpt><trkpt lat="46.01691027025725" lon="13.239630207932993"><ele>76.0</ele><time>2026-04-12T16:31:56.999Z</time></trkpt><trkpt lat="46.01684680633393" lon="13.239981137071698"><ele>76.0</ele><time>2026-04-12T16:31:57.999Z</time></trkpt><trkpt lat="46.01678105579581" lon="13.240330789755166"><ele>76.0</ele><time>2026-04-12T16:31:58.999Z</time></trkpt><trkpt lat="46.01671210086934" lon="13.240688793794305"><ele>77.0</ele><time>2026-04-12T16:31:59.999Z</time></trkpt><trkpt lat="46.01664289717118" lon="13.241054286576786"><ele>78.0</ele><time>2026-04-12T16:32:00.999Z</time></trkpt><trkpt lat="46.0165703269606" lon="13.241425294878406"><ele>78.0</ele><time>2026-04-12T16:32:01.999Z</time></trkpt><trkpt lat="46.016498323204836" lon="13.241801064956288"><ele>78.0</ele><time>2026-04-12T16:32:02.999Z</time></trkpt><trkpt lat="46.01643176221038" lon="13.24217395994413"><ele>79.0</ele><time>2026-04-12T16:32:03.999Z</time></trkpt><trkpt lat="46.016366607566" lon="13.242543982236736"><ele>80.0</ele><time>2026-04-12T16:32:04.999Z</time></trkpt><trkpt lat="46.016298811917366" lon="13.242911300502813"><ele>78.5</ele><time>2026-04-12T16:32:05.999Z</time></trkpt><trkpt lat="46.016230884205996" lon="13.243274603098277"><ele>77.0</ele><time>2026-04-12T16:32:06.999Z</time></trkpt><trkpt lat="46.016164939350986" lon="13.243634251406178"><ele>77.5</ele><time>2026-04-12T16:32:07.999Z</time></trkpt><trkpt lat="46.016098097935775" lon="13.243997424782071"><ele>78.0</ele><time>2026-04-12T16:32:08.999Z</time></trkpt><trkpt lat="46.0160310618698" lon="13.244366830447538"><ele>78.0</ele><time>2026-04-12T16:32:09.999Z</time></trkpt><trkpt lat="46.01596388807122" lon="13.244733068203075"><ele>78.0</ele><time>2026-04-12T16:32:10.999Z</time></trkpt><trkpt lat="46.01590129973513" lon="13.245100390106945"><ele>79.0</ele><time>2026-04-12T16:32:11.999Z</time></trkpt><trkpt lat="46.015841994386484" lon="13.245464023861189"><ele>80.0</ele><time>2026-04-12T16:32:12.999Z</time></trkpt><trkpt lat="46.015782124369935" lon="13.245826202983695"><ele>80.0</ele><time>2026-04-12T16:32:13.999Z</time></trkpt><trkpt lat="46.01572506492366" lon="13.246193561550841"><ele>80.0</ele><time>2026-04-12T16:32:14.999Z</time></trkpt><trkpt lat="46.0156683126389" lon="13.246562170792286"><ele>78.5</ele><time>2026-04-12T16:32:15.999Z</time></trkpt><trkpt lat="46.015615308893125" lon="13.246931040632651"><ele>77.0</ele><time>2026-04-12T16:32:16.999Z</time></trkpt><trkpt lat="46.01556554037041" lon="13.24729763950704"><ele>75.0</ele><time>2026-04-12T16:32:17.999Z</time></trkpt><trkpt lat="46.01552162196912" lon="13.247664338951896"><ele>73.0</ele><time>2026-04-12T16:32:18.999Z</time></trkpt><trkpt lat="46.015482300387916" lon="13.248030852393223"><ele>74.0</ele><time>2026-04-12T16:32:19.999Z</time></trkpt><trkpt lat="46.01544667366439" lon="13.248398850837546"><ele>75.0</ele><time>2026-04-12T16:32:20.999Z</time></trkpt><trkpt lat="46.01542037175661" lon="13.248766352261901"><ele>75.5</ele><time>2026-04-12T16:32:21.999Z</time></trkpt><trkpt lat="46.015400185228756" lon="13.249134066382744"><ele>76.0</ele><time>2026-04-12T16:32:22.999Z</time></trkpt><trkpt lat="46.015384693767096" lon="13.24950299233367"><ele>76.5</ele><time>2026-04-12T16:32:23.999Z</time></trkpt><trkpt lat="46.015370760564046" lon="13.249870755280403"><ele>77.0</ele><time>2026-04-12T16:32:24.999Z</time></trkpt><trkpt lat="46.01536012394379" lon="13.250240232618424"><ele>77.0</ele><time>2026-04-12T16:32:25.999Z</time></trkpt><trkpt lat="46.01535627616005" lon="13.250612972002768"><ele>77.0</ele><time>2026-04-12T16:32:26.999Z</time></trkpt><trkpt lat="46.01535801063556" lon="13.25098987203209"><ele>76.0</ele><time>2026-04-12T16:32:27.999Z</time></trkpt><trkpt lat="46.015359923853914" lon="13.251365998757269"><ele>75.0</ele><time>2026-04-12T16:32:28.999Z</time></trkpt><trkpt lat="46.01538121958213" lon="13.251741157459387"><ele>75.0</ele><time>2026-04-12T16:32:29.999Z</time></trkpt><trkpt lat="46.01540399780516" lon="13.252113411870969"><ele>75.0</ele><time>2026-04-12T16:32:30.999Z</time></trkpt><trkpt lat="46.01543069485555" lon="13.25248808669508"><ele>75.5</ele><time>2026-04-12T16:32:31.999Z</time></trkpt><trkpt lat="46.015461973518406" lon="13.252863042561742"><ele>76.0</ele><time>2026-04-12T16:32:32.999Z</time></trkpt><trkpt lat="46.01550175281979" lon="13.25323807331058"><ele>76.5</ele><time>2026-04-12T16:32:33.999Z</time></trkpt><trkpt lat="46.01554645603388" lon="13.25361157234417"><ele>77.0</ele><time>2026-04-12T16:32:34.999Z</time></trkpt><trkpt lat="46.015600352032955" lon="13.253987131528904"><ele>76.0</ele><time>2026-04-12T16:32:35.999Z</time></trkpt><trkpt lat="46.01565712525451" lon="13.254360511400685"><ele>75.0</ele><time>2026-04-12T16:32:36.999Z</time></trkpt><trkpt lat="46.01572006071653" lon="13.254733614457717"><ele>75.5</ele><time>2026-04-12T16:32:37.998Z</time></trkpt><trkpt lat="46.01579037854015" lon="13.255102188743152"><ele>76.0</ele><time>2026-04-12T16:32:39Z</time></trkpt><trkpt lat="46.01586790741908" lon="13.255469105366693"><ele>75.0</ele><time>2026-04-12T16:32:40Z</time></trkpt><trkpt lat="46.01594959390099" lon="13.255830133881448"><ele>74.0</ele><time>2026-04-12T16:32:41Z</time></trkpt><trkpt lat="46.01603420198783" lon="13.256185684888164"><ele>75.5</ele><time>2026-04-12T16:32:42Z</time></trkpt><trkpt lat="46.016122335323146" lon="13.256532195929477"><ele>77.0</ele><time>2026-04-12T16:32:43Z</time></trkpt><trkpt lat="46.016210357938455" lon="13.256869707228986"><ele>77.0</ele><time>2026-04-12T16:32:44Z</time></trkpt><trkpt lat="46.01630218231146" lon="13.257199220867477"><ele>77.0</ele><time>2026-04-12T16:32:45Z</time></trkpt><trkpt lat="46.01639824957454" lon="13.257523572310525"><ele>77.5</ele><time>2026-04-12T16:32:46Z</time></trkpt><trkpt lat="46.01649882601689" lon="13.257843556691574"><ele>78.0</ele><time>2026-04-12T16:32:47Z</time></trkpt><trkpt lat="46.01660052704842" lon="13.258161081086602"><ele>78.5</ele><time>2026-04-12T16:32:48Z</time></trkpt><trkpt lat="46.0167050256593" lon="13.258476262921032"><ele>79.0</ele><time>2026-04-12T16:32:49Z</time></trkpt><trkpt lat="46.016812095816874" lon="13.258791479158512"><ele>79.5</ele><time>2026-04-12T16:32:50Z</time></trkpt><trkpt lat="46.01692319589651" lon="13.25910909092141"><ele>80.0</ele><time>2026-04-12T16:32:51Z</time></trkpt><trkpt lat="46.017039029425824" lon="13.259428932787815"><ele>80.0</ele><time>2026-04-12T16:32:52Z</time></trkpt><trkpt lat="46.01715668695072" lon="13.259753165442367"><ele>80.0</ele><time>2026-04-12T16:32:53Z</time></trkpt><trkpt lat="46.017275044241195" lon="13.260079100194721"><ele>79.5</ele><time>2026-04-12T16:32:54Z</time></trkpt><trkpt lat="46.017396336561696" lon="13.260406677638077"><ele>79.0</ele><time>2026-04-12T16:32:55Z</time></trkpt><trkpt lat="46.01751497363561" lon="13.260730624638976"><ele>78.5</ele><time>2026-04-12T16:32:56Z</time></trkpt><trkpt lat="46.01763634361841" lon="13.26105141081025"><ele>78.0</ele><time>2026-04-12T16:32:57Z</time></trkpt><trkpt lat="46.01775687539027" lon="13.261366294759082"><ele>78.0</ele><time>2026-04-12T16:32:57.999Z</time></trkpt><trkpt lat="46.01787615006247" lon="13.261682884718535"><ele>78.0</ele><time>2026-04-12T16:32:58.999Z</time></trkpt><trkpt lat="46.01799346241235" lon="13.261994441934293"><ele>79.0</ele><time>2026-04-12T16:32:59.999Z</time></trkpt><trkpt lat="46.018112497303484" lon="13.26230962331"><ele>80.0</ele><time>2026-04-12T16:33:00.999Z</time></trkpt><trkpt lat="46.01823060486208" lon="13.262626341128184"><ele>80.0</ele><time>2026-04-12T16:33:01.999Z</time></trkpt><trkpt lat="46.018348916734205" lon="13.262939447445953"><ele>80.0</ele><time>2026-04-12T16:33:02.999Z</time></trkpt><trkpt lat="46.01846580054071" lon="13.263245816321122"><ele>80.0</ele><time>2026-04-12T16:33:03.999Z</time></trkpt><trkpt lat="46.01858125537944" lon="13.263549300627384"><ele>80.0</ele><time>2026-04-12T16:33:04.999Z</time></trkpt><trkpt lat="46.018693932529565" lon="13.263855499949923"><ele>80.5</ele><time>2026-04-12T16:33:05.999Z</time></trkpt><trkpt lat="46.01879824767462" lon="13.264162214486737"><ele>81.0</ele><time>2026-04-12T16:33:06.999Z</time></trkpt><trkpt lat="46.01890282553418" lon="13.264465210443815"><ele>81.0</ele><time>2026-04-12T16:33:07.999Z</time></trkpt><trkpt lat="46.01899746016543" lon="13.264761288799162"><ele>81.0</ele><time>2026-04-12T16:33:08.999Z</time></trkpt><trkpt lat="46.019085690783214" lon="13.265056496910939"><ele>81.0</ele><time>2026-04-12T16:33:09.999Z</time></trkpt><trkpt lat="46.01916630316696" lon="13.265347055218156"><ele>80.33333333333333</ele><time>2026-04-12T16:33:10.999Z</time></trkpt><trkpt lat="46.01923636295511" lon="13.265619682985799"><ele>79.66666666666666</ele><time>2026-04-12T16:33:11.999Z</time></trkpt><trkpt lat="46.01930167612225" lon="13.26587121802058"><ele>79.0</ele><time>2026-04-12T16:33:12.999Z</time></trkpt><trkpt lat="46.01936364422009" lon="13.266113311878525"><ele>79.0</ele><time>2026-04-12T16:33:13.999Z</time></trkpt><trkpt lat="46.01941864050167" lon="13.266342065294033"><ele>79.0</ele><time>2026-04-12T16:33:14.999Z</time></trkpt><trkpt lat="46.01946783338571" lon="13.266550039597774"><ele>79.0</ele><time>2026-04-12T16:33:15.999Z</time></trkpt><trkpt lat="46.01950684215965" lon="13.266761457721215"><ele>79.75</ele><time>2026-04-12T16:33:16.999Z</time></trkpt><trkpt lat="46.019506902265086" lon="13.266923443412235"><ele>80.5</ele><time>2026-04-12T16:33:17.999Z</time></trkpt><trkpt lat="46.01949118534808" lon="13.267087026325825"><ele>81.25</ele><time>2026-04-12T16:33:18.999Z</time></trkpt><trkpt lat="46.01945522102443" lon="13.267243290541119"><ele>82.0</ele><time>2026-04-12T16:33:19.999Z</time></trkpt><trkpt lat="46.01939052852279" lon="13.267384931710486"><ele>82.0</ele><time>2026-04-12T16:33:20.999Z</time></trkpt><trkpt lat="46.01931704618437" lon="13.267548730887395"><ele>82.0</ele><time>2026-04-12T16:33:21.999Z</time></trkpt><trkpt lat="46.01922252653628" lon="13.267708287951022"><ele>82.0</ele><time>2026-04-12T16:33:22.999Z</time></trkpt><trkpt lat="46.019138680172745" lon="13.26789780266572"><ele>82.0</ele><time>2026-04-12T16:33:23.999Z</time></trkpt><trkpt lat="46.019071688042374" lon="13.268114271811003"><ele>81.66666666666666</ele><time>2026-04-12T16:33:24.999Z</time></trkpt><trkpt lat="46.019046526792145" lon="13.268338751493152"><ele>81.33333333333333</ele><time>2026-04-12T16:33:25.999Z</time></trkpt><trkpt lat="46.01901287327528" lon="13.268545085927835"><ele>81.0</ele><time>2026-04-12T16:33:26.999Z</time></trkpt><trkpt lat="46.01894336623291" lon="13.268736284479651"><ele>81.0</ele><time>2026-04-12T16:33:27.999Z</time></trkpt><trkpt lat="46.01882916406025" lon="13.268889726251"><ele>81.0</ele><time>2026-04-12T16:33:28.999Z</time></trkpt><trkpt lat="46.01867696743499" lon="13.269000778276933"><ele>81.0</ele><time>2026-04-12T16:33:29.999Z</time></trkpt><trkpt lat="46.01850775684169" lon="13.269069653969817"><ele>81.0</ele><time>2026-04-12T16:33:30.999Z</time></trkpt><trkpt lat="46.01832004306912" lon="13.269105546243125"><ele>81.0</ele><time>2026-04-12T16:33:31.999Z</time></trkpt><trkpt lat="46.01813311348964" lon="13.269160931953934"><ele>81.0</ele><time>2026-04-12T16:33:32.999Z</time></trkpt><trkpt lat="46.01794011955475" lon="13.269218021331199"><ele>80.66666666666667</ele><time>2026-04-12T16:33:33.999Z</time></trkpt><trkpt lat="46.01774234369247" lon="13.269274293578787"><ele>80.33333333333334</ele><time>2026-04-12T16:33:34.999Z</time></trkpt><trkpt lat="46.01754716372695" lon="13.26932994174005"><ele>80.0</ele><time>2026-04-12T16:33:35.999Z</time></trkpt><trkpt lat="46.017352304656136" lon="13.269382965525141"><ele>80.0</ele><time>2026-04-12T16:33:36.999Z</time></trkpt><trkpt lat="46.0171504379936" lon="13.269437655611863"><ele>80.0</ele><time>2026-04-12T16:33:37.999Z</time></trkpt><trkpt lat="46.01694694208932" lon="13.269493997011834"><ele>80.0</ele><time>2026-04-12T16:33:38.999Z</time></trkpt><trkpt lat="46.01674246043011" lon="13.269549783294119"><ele>79.66666666666667</ele><time>2026-04-12T16:33:39.999Z</time></trkpt><trkpt lat="46.016538981635854" lon="13.269607174446307"><ele>79.33333333333333</ele><time>2026-04-12T16:33:40.999Z</time></trkpt><trkpt lat="46.016335636162125" lon="13.269663817331324"><ele>79.0</ele><time>2026-04-12T16:33:41.999Z</time></trkpt><trkpt lat="46.01613263285202" lon="13.26971826983731"><ele>79.0</ele><time>2026-04-12T16:33:42.999Z</time></trkpt><trkpt lat="46.015930864177804" lon="13.269773339575229"><ele>79.0</ele><time>2026-04-12T16:33:43.999Z</time></trkpt><trkpt lat="46.01572839156554" lon="13.269830488132616"><ele>79.0</ele><time>2026-04-12T16:33:44.999Z</time></trkpt><trkpt lat="46.015527885674" lon="13.26988656537326"><ele>79.0</ele><time>2026-04-12T16:33:45.999Z</time></trkpt><trkpt lat="46.015328315091494" lon="13.269942255119812"><ele>79.0</ele><time>2026-04-12T16:33:46.999Z</time></trkpt><trkpt lat="46.015130149627424" lon="13.269995711539913"><ele>79.0</ele><time>2026-04-12T16:33:47.999Z</time></trkpt><trkpt lat="46.01493192841737" lon="13.270047614106383"><ele>78.66666666666666</ele><time>2026-04-12T16:33:48.999Z</time></trkpt><trkpt lat="46.01473612161471" lon="13.270102083473622"><ele>78.33333333333333</ele><time>2026-04-12T16:33:49.999Z</time></trkpt><trkpt lat="46.01453949186053" lon="13.270159085458607"><ele>78.0</ele><time>2026-04-12T16:33:50.999Z</time></trkpt><trkpt lat="46.0143488690104" lon="13.270210980441021"><ele>78.0</ele><time>2026-04-12T16:33:51.999Z</time></trkpt><trkpt lat="46.01417392413059" lon="13.270260912994052"><ele>78.0</ele><time>2026-04-12T16:33:52.999Z</time></trkpt><trkpt lat="46.01400463126554" lon="13.270310073331482"><ele>78.0</ele><time>2026-04-12T16:33:53.999Z</time></trkpt><trkpt lat="46.01384446155029" lon="13.270352318624983"><ele>77.75</ele><time>2026-04-12T16:33:54.999Z</time></trkpt><trkpt lat="46.01369450137221" lon="13.270389742189256"><ele>77.5</ele><time>2026-04-12T16:33:55.999Z</time></trkpt><trkpt lat="46.01355936599836" lon="13.27039902404534"><ele>77.25</ele><time>2026-04-12T16:33:56.999Z</time></trkpt><trkpt lat="46.01341879336323" lon="13.27035956953498"><ele>77.0</ele><time>2026-04-12T16:33:57.999Z</time></trkpt><trkpt lat="46.01328737878287" lon="13.270277565545022"><ele>76.25</ele><time>2026-04-12T16:33:58.999Z</time></trkpt><trkpt lat="46.01316743661543" lon="13.270163808969127"><ele>75.5</ele><time>2026-04-12T16:33:59.999Z</time></trkpt><trkpt lat="46.01304844630311" lon="13.270069720287367"><ele>74.75</ele><time>2026-04-12T16:34:00.999Z</time></trkpt><trkpt lat="46.01292319047456" lon="13.270017644083241"><ele>74.0</ele><time>2026-04-12T16:34:01.999Z</time></trkpt><trkpt lat="46.01279181671998" lon="13.270008044904603"><ele>74.0</ele><time>2026-04-12T16:34:02.999Z</time></trkpt><trkpt lat="46.012659984079896" lon="13.270060922280058"><ele>74.0</ele><time>2026-04-12T16:34:03.999Z</time></trkpt><trkpt lat="46.012544696390094" lon="13.270169376306388"><ele>74.0</ele><time>2026-04-12T16:34:04.999Z</time></trkpt><trkpt lat="46.012452911859604" lon="13.27031795644343"><ele>74.0</ele><time>2026-04-12T16:34:05.999Z</time></trkpt><trkpt lat="46.01240076186721" lon="13.270495640372799"><ele>74.25</ele><time>2026-04-12T16:34:06.999Z</time></trkpt><trkpt lat="46.01239532257957" lon="13.270681842542881"><ele>74.5</ele><time>2026-04-12T16:34:07.999Z</time></trkpt><trkpt lat="46.012426427467396" lon="13.270872816169806"><ele>74.75</ele><time>2026-04-12T16:34:08.999Z</time></trkpt><trkpt lat="46.01249045296" lon="13.271049960907638"><ele>75.0</ele><time>2026-04-12T16:34:09.999Z</time></trkpt><trkpt lat="46.01258798756654" lon="13.271203754324727"><ele>75.0</ele><time>2026-04-12T16:34:10.999Z</time></trkpt><trkpt lat="46.012694782381914" lon="13.27135251060213"><ele>75.0</ele><time>2026-04-12T16:34:11.999Z</time></trkpt><trkpt lat="46.01278420947197" lon="13.271521678442946"><ele>75.0</ele><time>2026-04-12T16:34:12.999Z</time></trkpt><trkpt lat="46.01286483326956" lon="13.271711290612089"><ele>75.33333333333333</ele><time>2026-04-12T16:34:13.999Z</time></trkpt><trkpt lat="46.012871631716784" lon="13.271977574038807"><ele>75.66666666666666</ele><time>2026-04-12T16:34:14.999Z</time></trkpt><trkpt lat="46.012871887822556" lon="13.272242245618443"><ele>76.0</ele><time>2026-04-12T16:34:15.999Z</time></trkpt><trkpt lat="46.01286138107693" lon="13.272510348470052"><ele>76.33333333333333</ele><time>2026-04-12T16:34:16.999Z</time></trkpt><trkpt lat="46.01285006561973" lon="13.272778475586582"><ele>76.66666666666667</ele><time>2026-04-12T16:34:17.999Z</time></trkpt><trkpt lat="46.012838188788294" lon="13.273054697535807"><ele>77.0</ele><time>2026-04-12T16:34:18.999Z</time></trkpt><trkpt lat="46.012825634512275" lon="13.273334758439237"><ele>77.0</ele><time>2026-04-12T16:34:19.999Z</time></trkpt><trkpt lat="46.012814741126824" lon="13.273604221647872"><ele>77.0</ele><time>2026-04-12T16:34:20.999Z</time></trkpt><trkpt lat="46.01278989274643" lon="13.273859196106171"><ele>77.0</ele><time>2026-04-12T16:34:21.999Z</time></trkpt><trkpt lat="46.01273253106599" lon="13.274103106416481"><ele>77.33333333333334</ele><time>2026-04-12T16:34:22.999Z</time></trkpt><trkpt lat="46.01264472050282" lon="13.274344635500182"><ele>77.66666666666667</ele><time>2026-04-12T16:34:23.999Z</time></trkpt><trkpt lat="46.012536584082746" lon="13.274578664368642"><ele>78.0</ele><time>2026-04-12T16:34:24.999Z</time></trkpt><trkpt lat="46.012392873978065" lon="13.274785021847455"><ele>77.33333333333333</ele><time>2026-04-12T16:34:25.999Z</time></trkpt><trkpt lat="46.01222196927092" lon="13.27495334052866"><ele>76.66666666666666</ele><time>2026-04-12T16:34:26.999Z</time></trkpt><trkpt lat="46.012051084889364" lon="13.275113562152704"><ele>76.0</ele><time>2026-04-12T16:34:27.999Z</time></trkpt><trkpt lat="46.011878829394135" lon="13.27527602752474"><ele>76.0</ele><time>2026-04-12T16:34:28.999Z</time></trkpt><trkpt lat="46.011705003282984" lon="13.275441824505618"><ele>76.0</ele><time>2026-04-12T16:34:29.999Z</time></trkpt><trkpt lat="46.01152391147647" lon="13.275611712609592"><ele>76.0</ele><time>2026-04-12T16:34:30.999Z</time></trkpt><trkpt lat="46.01133758162164" lon="13.275785797728084"><ele>76.0</ele><time>2026-04-12T16:34:31.999Z</time></trkpt><trkpt lat="46.01114856573886" lon="13.275963563461977"><ele>76.0</ele><time>2026-04-12T16:34:32.999Z</time></trkpt><trkpt lat="46.010967054069006" lon="13.276138795423124"><ele>76.0</ele><time>2026-04-12T16:34:33.999Z</time></trkpt><trkpt lat="46.01079872224935" lon="13.276310264149062"><ele>75.33333333333333</ele><time>2026-04-12T16:34:34.999Z</time></trkpt><trkpt lat="46.0106441522467" lon="13.276481695718314"><ele>74.66666666666667</ele><time>2026-04-12T16:34:35.999Z</time></trkpt><trkpt lat="46.010498988305926" lon="13.276664679820213"><ele>74.0</ele><time>2026-04-12T16:34:36.999Z</time></trkpt><trkpt lat="46.010353285920424" lon="13.276861128642363"><ele>74.0</ele><time>2026-04-12T16:34:37.999Z</time></trkpt><trkpt lat="46.01019763790411" lon="13.277054024461242"><ele>74.0</ele><time>2026-04-12T16:34:38.999Z</time></trkpt><trkpt lat="46.01002317383467" lon="13.277220472593513"><ele>74.0</ele><time>2026-04-12T16:34:39.999Z</time></trkpt><trkpt lat="46.00984885048138" lon="13.277355028685406"><ele>74.66666666666667</ele><time>2026-04-12T16:34:40.999Z</time></trkpt><trkpt lat="46.00966483251521" lon="13.277481176182189"><ele>75.33333333333333</ele><time>2026-04-12T16:34:41.998Z</time></trkpt><trkpt lat="46.009476458573886" lon="13.277600445680164"><ele>76.0</ele><time>2026-04-12T16:34:42.998Z</time></trkpt><trkpt lat="46.00928605120248" lon="13.277713823498452"><ele>76.66666666666666</ele><time>2026-04-12T16:34:43.998Z</time></trkpt><trkpt lat="46.0091101232428" lon="13.277818833439799"><ele>77.33333333333333</ele><time>2026-04-12T16:34:45Z</time></trkpt><trkpt lat="46.00895388931069" lon="13.277917102173419"><ele>78.0</ele><time>2026-04-12T16:34:46Z</time></trkpt><trkpt lat="46.008806063885075" lon="13.278022379947256"><ele>77.33333333333333</ele><time>2026-04-12T16:34:47Z</time></trkpt><trkpt lat="46.00867029110039" lon="13.278159232163587"><ele>76.66666666666666</ele><time>2026-04-12T16:34:48Z</time></trkpt><trkpt lat="46.00855330165546" lon="13.278342882650525"><ele>76.0</ele><time>2026-04-12T16:34:49Z</time></trkpt><trkpt lat="46.00846199896794" lon="13.278566604604103"><ele>76.0</ele><time>2026-04-12T16:34:50Z</time></trkpt><trkpt lat="46.00840090027686" lon="13.278826522597118"><ele>76.0</ele><time>2026-04-12T16:34:51Z</time></trkpt><trkpt lat="46.00836959808147" lon="13.279115934699854"><ele>76.0</ele><time>2026-04-12T16:34:52Z</time></trkpt><trkpt lat="46.00835698249532" lon="13.279431328961104"><ele>74.5</ele><time>2026-04-12T16:34:53Z</time></trkpt><trkpt lat="46.0083318834681" lon="13.279764972319263"><ele>73.0</ele><time>2026-04-12T16:34:54Z</time></trkpt><trkpt lat="46.008287053002384" lon="13.280099082445497"><ele>73.0</ele><time>2026-04-12T16:34:55Z</time></trkpt><trkpt lat="46.00821495459184" lon="13.280435583539402"><ele>73.0</ele><time>2026-04-12T16:34:56Z</time></trkpt><trkpt lat="46.0081107081292" lon="13.280760104694115"><ele>73.0</ele><time>2026-04-12T16:34:57Z</time></trkpt><trkpt lat="46.007989331914864" lon="13.281079541654606"><ele>73.0</ele><time>2026-04-12T16:34:58Z</time></trkpt><trkpt lat="46.00786198688029" lon="13.281388193077174"><ele>73.5</ele><time>2026-04-12T16:34:59Z</time></trkpt><trkpt lat="46.00772950350835" lon="13.281700723700098"><ele>74.0</ele><time>2026-04-12T16:35:00Z</time></trkpt><trkpt lat="46.00759626755387" lon="13.282016242136876"><ele>72.5</ele><time>2026-04-12T16:35:00.999Z</time></trkpt><trkpt lat="46.007461826012914" lon="13.282338971887881"><ele>71.0</ele><time>2026-04-12T16:35:01.999Z</time></trkpt><trkpt lat="46.00732819670573" lon="13.282661817467396"><ele>71.0</ele><time>2026-04-12T16:35:02.999Z</time></trkpt><trkpt lat="46.0071986668291" lon="13.282971285849927"><ele>71.0</ele><time>2026-04-12T16:35:03.999Z</time></trkpt><trkpt lat="46.007072913291296" lon="13.283271451522438"><ele>71.0</ele><time>2026-04-12T16:35:04.999Z</time></trkpt><trkpt lat="46.006949234414265" lon="13.283568345350194"><ele>71.0</ele><time>2026-04-12T16:35:05.999Z</time></trkpt><trkpt lat="46.006823971943355" lon="13.283866295867703"><ele>70.5</ele><time>2026-04-12T16:35:06.999Z</time></trkpt><trkpt lat="46.006700055738634" lon="13.284155374251318"><ele>70.0</ele><time>2026-04-12T16:35:07.999Z</time></trkpt><trkpt lat="46.00656832684076" lon="13.284425295796064"><ele>70.0</ele><time>2026-04-12T16:35:08.999Z</time></trkpt><trkpt lat="46.00641439395792" lon="13.284671918374743"><ele>70.0</ele><time>2026-04-12T16:35:09.999Z</time></trkpt><trkpt lat="46.0062445613099" lon="13.284902153503927"><ele>69.5</ele><time>2026-04-12T16:35:10.999Z</time></trkpt><trkpt lat="46.00606806927835" lon="13.28513578084524"><ele>69.0</ele><time>2026-04-12T16:35:11.999Z</time></trkpt><trkpt lat="46.005890899795325" lon="13.285370712712458"><ele>69.5</ele><time>2026-04-12T16:35:12.999Z</time></trkpt><trkpt lat="46.00571762964882" lon="13.285605878124622"><ele>70.0</ele><time>2026-04-12T16:35:13.999Z</time></trkpt><trkpt lat="46.005541556494904" lon="13.285847153996382"><ele>70.0</ele><time>2026-04-12T16:35:14.999Z</time></trkpt><trkpt lat="46.005364701078605" lon="13.286086072990136"><ele>70.0</ele><time>2026-04-12T16:35:15.999Z</time></trkpt><trkpt lat="46.00518569860892" lon="13.28632775660259"><ele>70.0</ele><time>2026-04-12T16:35:16.999Z</time></trkpt><trkpt lat="46.0050064476641" lon="13.28657410025295"><ele>70.0</ele><time>2026-04-12T16:35:17.999Z</time></trkpt><trkpt lat="46.00483084747753" lon="13.286831867425581"><ele>69.0</ele><time>2026-04-12T16:35:18.999Z</time></trkpt><trkpt lat="46.004662802834744" lon="13.287097846461311"><ele>68.0</ele><time>2026-04-12T16:35:19.999Z</time></trkpt><trkpt lat="46.00450164708008" lon="13.287373028574653"><ele>68.0</ele><time>2026-04-12T16:35:20.999Z</time></trkpt><trkpt lat="46.00434139374108" lon="13.287644444367855"><ele>68.0</ele><time>2026-04-12T16:35:21.999Z</time></trkpt><trkpt lat="46.00417828485512" lon="13.287916469950074"><ele>68.5</ele><time>2026-04-12T16:35:22.999Z</time></trkpt><trkpt lat="46.00401549600167" lon="13.288187119816534"><ele>69.0</ele><time>2026-04-12T16:35:23.999Z</time></trkpt><trkpt lat="46.003855819351834" lon="13.288452183649511"><ele>69.0</ele><time>2026-04-12T16:35:24.999Z</time></trkpt><trkpt lat="46.003698801143415" lon="13.28871837858256"><ele>69.0</ele><time>2026-04-12T16:35:25.999Z</time></trkpt><trkpt lat="46.00354510690704" lon="13.288980317443029"><ele>68.0</ele><time>2026-04-12T16:35:26.999Z</time></trkpt><trkpt lat="46.00339369449447" lon="13.289236985821827"><ele>67.0</ele><time>2026-04-12T16:35:27.999Z</time></trkpt><trkpt lat="46.0032438098139" lon="13.289486597429521"><ele>67.0</ele><time>2026-04-12T16:35:28.999Z</time></trkpt><trkpt lat="46.00309557485032" lon="13.28973688155411"><ele>67.0</ele><time>2026-04-12T16:35:29.999Z</time></trkpt><trkpt lat="46.00294812251447" lon="13.289989041587267"><ele>67.0</ele><time>2026-04-12T16:35:31Z</time></trkpt><trkpt lat="46.00279885282025" lon="13.290240882463786"><ele>67.0</ele><time>2026-04-12T16:35:32Z</time></trkpt><trkpt lat="46.00263995485654" lon="13.290489249775472"><ele>68.0</ele><time>2026-04-12T16:35:33Z</time></trkpt><trkpt lat="46.00246527510363" lon="13.290727936396173"><ele>69.0</ele><time>2026-04-12T16:35:34Z</time></trkpt><trkpt lat="46.00227271799449" lon="13.290958369958798"><ele>69.0</ele><time>2026-04-12T16:35:35Z</time></trkpt><trkpt lat="46.00207108957468" lon="13.291190689798542"><ele>69.0</ele><time>2026-04-12T16:35:36Z</time></trkpt><trkpt lat="46.00185380708376" lon="13.291411022504212"><ele>68.5</ele><time>2026-04-12T16:35:37Z</time></trkpt><trkpt lat="46.00165618871284" lon="13.291669485340082"><ele>68.0</ele><time>2026-04-12T16:35:38Z</time></trkpt><trkpt lat="46.001456968111945" lon="13.291898224885724"><ele>68.0</ele><time>2026-04-12T16:35:39Z</time></trkpt><trkpt lat="46.001264447187644" lon="13.292088156383489"><ele>68.0</ele><time>2026-04-12T16:35:40Z</time></trkpt><trkpt lat="46.001105265650295" lon="13.29229946675006"><ele>67.66666666666667</ele><time>2026-04-12T16:35:41Z</time></trkpt><trkpt lat="46.00094646980105" lon="13.292476690481767"><ele>67.33333333333333</ele><time>2026-04-12T16:35:42Z</time></trkpt><trkpt lat="46.0007928533692" lon="13.292659302472611"><ele>67.0</ele><time>2026-04-12T16:35:43Z</time></trkpt><trkpt lat="46.00064640935721" lon="13.292859220577913"><ele>67.0</ele><time>2026-04-12T16:35:44Z</time></trkpt><trkpt lat="46.0005152570667" lon="13.293081155078603"><ele>67.0</ele><time>2026-04-12T16:35:45Z</time></trkpt><trkpt lat="46.000399286298375" lon="13.293332517257353"><ele>67.0</ele><time>2026-04-12T16:35:46Z</time></trkpt><trkpt lat="46.00030527840767" lon="13.293613091407712"><ele>67.33333333333333</ele><time>2026-04-12T16:35:47Z</time></trkpt><trkpt lat="46.000229415209354" lon="13.293902844547283"><ele>67.66666666666667</ele><time>2026-04-12T16:35:48Z</time></trkpt><trkpt lat="46.00016606148878" lon="13.294199039008562"><ele>68.0</ele><time>2026-04-12T16:35:49Z</time></trkpt><trkpt lat="46.000107159520375" lon="13.294502257505533"><ele>67.0</ele><time>2026-04-12T16:35:50Z</time></trkpt><trkpt lat="46.00004439376623" lon="13.294804603880037"><ele>66.0</ele><time>2026-04-12T16:35:51Z</time></trkpt><trkpt lat="45.99997581037272" lon="13.295116030340203"><ele>65.0</ele><time>2026-04-12T16:35:52Z</time></trkpt><trkpt lat="45.99990800364488" lon="13.295436693530307"><ele>66.0</ele><time>2026-04-12T16:35:53Z</time></trkpt><trkpt lat="45.999840990295425" lon="13.295769560186084"><ele>67.0</ele><time>2026-04-12T16:35:54Z</time></trkpt><trkpt lat="45.99977033523139" lon="13.296106769330825"><ele>67.0</ele><time>2026-04-12T16:35:55Z</time></trkpt><trkpt lat="45.99970111820902" lon="13.296435550127509"><ele>67.0</ele><time>2026-04-12T16:35:56Z</time></trkpt><trkpt lat="45.99963441858932" lon="13.296756114501083"><ele>67.0</ele><time>2026-04-12T16:35:57Z</time></trkpt><trkpt lat="45.99956589546437" lon="13.29707453007403"><ele>67.0</ele><time>2026-04-12T16:35:58Z</time></trkpt><trkpt lat="45.99949443545511" lon="13.297388674496343"><ele>66.0</ele><time>2026-04-12T16:35:59Z</time></trkpt><trkpt lat="45.99942138992179" lon="13.297700821296194"><ele>65.0</ele><time>2026-04-12T16:36:00Z</time></trkpt><trkpt lat="45.99935065804683" lon="13.29801261639874"><ele>65.33333333333334</ele><time>2026-04-12T16:36:01Z</time></trkpt><trkpt lat="45.999283213076474" lon="13.298318470810374"><ele>65.66666666666667</ele><time>2026-04-12T16:36:02Z</time></trkpt><trkpt lat="45.999221569275136" lon="13.298598925680254"><ele>66.0</ele><time>2026-04-12T16:36:03Z</time></trkpt><trkpt lat="45.999161765977284" lon="13.298860352006923"><ele>66.66666666666667</ele><time>2026-04-12T16:36:04Z</time></trkpt><trkpt lat="45.99910675729641" lon="13.299104666159813"><ele>67.33333333333334</ele><time>2026-04-12T16:36:05Z</time></trkpt><trkpt lat="45.99903818640181" lon="13.299327004512792"><ele>68.0</ele><time>2026-04-12T16:36:06Z</time></trkpt><trkpt lat="45.99898825395565" lon="13.299542716696848"><ele>68.0</ele><time>2026-04-12T16:36:07Z</time></trkpt><trkpt lat="45.99895508990833" lon="13.299750159725741"><ele>68.0</ele><time>2026-04-12T16:36:08Z</time></trkpt><trkpt lat="45.99888472873784" lon="13.299950997534213"><ele>68.0</ele><time>2026-04-12T16:36:09Z</time></trkpt><trkpt lat="45.99879237280325" lon="13.300135806553843"><ele>67.75</ele><time>2026-04-12T16:36:10Z</time></trkpt><trkpt lat="45.99870071925072" lon="13.300304254534092"><ele>67.5</ele><time>2026-04-12T16:36:11Z</time></trkpt><trkpt lat="45.99860615634885" lon="13.300460354035366"><ele>67.25</ele><time>2026-04-12T16:36:12Z</time></trkpt><trkpt lat="45.99853161036755" lon="13.300639109180198"><ele>67.0</ele><time>2026-04-12T16:36:13Z</time></trkpt><trkpt lat="45.99847997361765" lon="13.300857133480667"><ele>67.66666666666666</ele><time>2026-04-12T16:36:14Z</time></trkpt><trkpt lat="45.998434581864146" lon="13.301091697981018"><ele>68.33333333333333</ele><time>2026-04-12T16:36:15Z</time></trkpt><trkpt lat="45.99839686365998" lon="13.30132822736677"><ele>69.0</ele><time>2026-04-12T16:36:16Z</time></trkpt><trkpt lat="45.998361519951246" lon="13.301558668151026"><ele>68.75</ele><time>2026-04-12T16:36:17Z</time></trkpt><trkpt lat="45.998324880651474" lon="13.301765742445808"><ele>68.5</ele><time>2026-04-12T16:36:18Z</time></trkpt><trkpt lat="45.99829023957055" lon="13.301955358863927"><ele>68.25</ele><time>2026-04-12T16:36:19Z</time></trkpt><trkpt lat="45.99825362402913" lon="13.302146797372078"><ele>68.0</ele><time>2026-04-12T16:36:20Z</time></trkpt><trkpt lat="45.99821252294745" lon="13.302334704243217"><ele>67.75</ele><time>2026-04-12T16:36:21Z</time></trkpt><trkpt lat="45.998172725655316" lon="13.302503898307696"><ele>67.5</ele><time>2026-04-12T16:36:22Z</time></trkpt><trkpt lat="45.99813393199193" lon="13.302667650430132"><ele>67.25</ele><time>2026-04-12T16:36:23Z</time></trkpt><trkpt lat="45.998095639945475" lon="13.302827129564744"><ele>67.0</ele><time>2026-04-12T16:36:24Z</time></trkpt><trkpt lat="45.99806248651412" lon="13.302977125298037"><ele>67.2</ele><time>2026-04-12T16:36:25Z</time></trkpt><trkpt lat="45.99802696484388" lon="13.30311531596844"><ele>67.4</ele><time>2026-04-12T16:36:26Z</time></trkpt><trkpt lat="45.997973318838625" lon="13.303228312461606"><ele>67.6</ele><time>2026-04-12T16:36:27Z</time></trkpt><trkpt lat="45.99789881523687" lon="13.303320909000673"><ele>67.8</ele><time>2026-04-12T16:36:28Z</time></trkpt><trkpt lat="45.997787638113635" lon="13.30334520686654"><ele>68.0</ele><time>2026-04-12T16:36:29Z</time></trkpt><trkpt lat="45.99766877269491" lon="13.30333369990126"><ele>68.0</ele><time>2026-04-12T16:36:30Z</time></trkpt><trkpt lat="45.99753647408396" lon="13.303307656719713"><ele>68.0</ele><time>2026-04-12T16:36:31Z</time></trkpt><trkpt lat="45.99739119220521" lon="13.303285733057253"><ele>68.0</ele><time>2026-04-12T16:36:32Z</time></trkpt><trkpt lat="45.99724445300648" lon="13.303239086037916"><ele>68.0</ele><time>2026-04-12T16:36:33Z</time></trkpt><trkpt lat="45.997102266534995" lon="13.303147648780048"><ele>68.25</ele><time>2026-04-12T16:36:34Z</time></trkpt><trkpt lat="45.99697610855025" lon="13.303008159643266"><ele>68.5</ele><time>2026-04-12T16:36:35Z</time></trkpt><trkpt lat="45.996856271303336" lon="13.302885641019412"><ele>68.75</ele><time>2026-04-12T16:36:36Z</time></trkpt><trkpt lat="45.996725137733414" lon="13.302805611322803"><ele>69.0</ele><time>2026-04-12T16:36:37Z</time></trkpt><trkpt lat="45.996590124180464" lon="13.302754023473556"><ele>69.0</ele><time>2026-04-12T16:36:38Z</time></trkpt><trkpt lat="45.99646948251026" lon="13.30271588071091"><ele>69.0</ele><time>2026-04-12T16:36:39Z</time></trkpt><trkpt lat="45.99635868385787" lon="13.30270287579884"><ele>69.0</ele><time>2026-04-12T16:36:40Z</time></trkpt><trkpt lat="45.99625443391976" lon="13.302712018923863"><ele>69.0</ele><time>2026-04-12T16:36:41Z</time></trkpt><trkpt lat="45.99615692975955" lon="13.302717467910247"><ele>69.0</ele><time>2026-04-12T16:36:41.999Z</time></trkpt><trkpt lat="45.99607316817719" lon="13.302706023662239"><ele>69.0</ele><time>2026-04-12T16:36:42.999Z</time></trkpt><trkpt lat="45.99600663578695" lon="13.302702531071008"><ele>69.0</ele><time>2026-04-12T16:36:43.999Z</time></trkpt><trkpt lat="45.9959288636442" lon="13.302841111085126"><ele>69.0</ele><time>2026-04-12T16:36:45.999Z</time></trkpt><trkpt lat="45.995908536992204" lon="13.302956248136098"><ele>69.0</ele><time>2026-04-12T16:36:46.999Z</time></trkpt><trkpt lat="45.99585690854751" lon="13.303085590411715"><ele>69.0</ele><time>2026-04-12T16:36:47.999Z</time></trkpt><trkpt lat="45.99581873562831" lon="13.303244224847548"><ele>68.25</ele><time>2026-04-12T16:36:48.999Z</time></trkpt><trkpt lat="45.99580444732625" lon="13.303422103828883"><ele>67.5</ele><time>2026-04-12T16:36:49.999Z</time></trkpt><trkpt lat="45.995803317692" lon="13.303587283761969"><ele>66.75</ele><time>2026-04-12T16:36:51Z</time></trkpt><trkpt lat="45.99580748432304" lon="13.30374795916325"><ele>66.0</ele><time>2026-04-12T16:36:52Z</time></trkpt><trkpt lat="45.9958129213496" lon="13.303916247303547"><ele>66.0</ele><time>2026-04-12T16:36:53Z</time></trkpt><trkpt lat="45.99581897532404" lon="13.304098156551447"><ele>66.0</ele><time>2026-04-12T16:36:54Z</time></trkpt><trkpt lat="45.99582462514418" lon="13.304291144984232"><ele>66.0</ele><time>2026-04-12T16:36:55Z</time></trkpt><trkpt lat="45.99582378008795" lon="13.304471488439377"><ele>66.0</ele><time>2026-04-12T16:36:56Z</time></trkpt><trkpt lat="45.99582254164867" lon="13.304641866184115"><ele>66.16666666666667</ele><time>2026-04-12T16:36:57Z</time></trkpt><trkpt lat="45.99582559460572" lon="13.304784188832324"><ele>66.33333333333333</ele><time>2026-04-12T16:36:58Z</time></trkpt><trkpt lat="45.99582996431338" lon="13.30491192076433"><ele>66.5</ele><time>2026-04-12T16:36:59Z</time></trkpt><trkpt lat="45.99582598980155" lon="13.305025598144155"><ele>66.66666666666666</ele><time>2026-04-12T16:37:00Z</time></trkpt><trkpt lat="45.995808846060136" lon="13.305125891451532"><ele>66.83333333333333</ele><time>2026-04-12T16:37:01Z</time></trkpt><trkpt lat="45.99576740967499" lon="13.305200902013592"><ele>67.0</ele><time>2026-04-12T16:37:02Z</time></trkpt><trkpt lat="45.99569883902753" lon="13.305245117388004"><ele>67.0</ele><time>2026-04-12T16:37:03Z</time></trkpt><trkpt lat="45.99560910482772" lon="13.305269824979215"><ele>67.0</ele><time>2026-04-12T16:37:04Z</time></trkpt><trkpt lat="45.99551272146707" lon="13.30530417924006"><ele>67.0</ele><time>2026-04-12T16:37:05Z</time></trkpt><trkpt lat="45.995405446723055" lon="13.305340941250249"><ele>67.0</ele><time>2026-04-12T16:37:06Z</time></trkpt><trkpt lat="45.99528562821332" lon="13.305382476998815"><ele>67.0</ele><time>2026-04-12T16:37:07Z</time></trkpt><trkpt lat="45.99516025607648" lon="13.305427978608176"><ele>67.0</ele><time>2026-04-12T16:37:08Z</time></trkpt><trkpt lat="45.9950340268619" lon="13.305498432930532"><ele>67.0</ele><time>2026-04-12T16:37:09Z</time></trkpt><trkpt lat="45.994916442276974" lon="13.30558357643952"><ele>67.0</ele><time>2026-04-12T16:37:10Z</time></trkpt><trkpt lat="45.99480094628197" lon="13.305676241649401"><ele>67.0</ele><time>2026-04-12T16:37:11Z</time></trkpt><trkpt lat="45.99468653022734" lon="13.305782303045001"><ele>67.0</ele><time>2026-04-12T16:37:12Z</time></trkpt><trkpt lat="45.9945686506805" lon="13.305897913974043"><ele>67.0</ele><time>2026-04-12T16:37:13Z</time></trkpt><trkpt lat="45.99445379268847" lon="13.305996355295768"><ele>67.0</ele><time>2026-04-12T16:37:14Z</time></trkpt><trkpt lat="45.99432970028628" lon="13.306087278658188"><ele>67.0</ele><time>2026-04-12T16:37:15Z</time></trkpt><trkpt lat="45.994190215570946" lon="13.306170353200816"><ele>67.0</ele><time>2026-04-12T16:37:16Z</time></trkpt><trkpt lat="45.99405254265527" lon="13.306251462626669"><ele>67.0</ele><time>2026-04-12T16:37:17Z</time></trkpt><trkpt lat="45.99391373753481" lon="13.306324302104423"><ele>67.0</ele><time>2026-04-12T16:37:18Z</time></trkpt><trkpt lat="45.99376928282698" lon="13.306399273607768"><ele>67.0</ele><time>2026-04-12T16:37:19Z</time></trkpt><trkpt lat="45.99363252659867" lon="13.306503917337238"><ele>67.0</ele><time>2026-04-12T16:37:20Z</time></trkpt><trkpt lat="45.99349864212835" lon="13.306616667830742"><ele>67.0</ele><time>2026-04-12T16:37:21Z</time></trkpt><trkpt lat="45.99338192409164" lon="13.306754833701905"><ele>67.0</ele><time>2026-04-12T16:37:22Z</time></trkpt><trkpt lat="45.99326958103718" lon="13.306904935623356"><ele>67.0</ele><time>2026-04-12T16:37:23Z</time></trkpt><trkpt lat="45.99314359199887" lon="13.307034447079443"><ele>67.0</ele><time>2026-04-12T16:37:24Z</time></trkpt><trkpt lat="45.993022181628184" lon="13.307153652914204"><ele>67.0</ele><time>2026-04-12T16:37:25Z</time></trkpt><trkpt lat="45.99288795035463" lon="13.307220278126222"><ele>67.0</ele><time>2026-04-12T16:37:26Z</time></trkpt><trkpt lat="45.99274124862919" lon="13.30722928876926"><ele>67.0</ele><time>2026-04-12T16:37:27Z</time></trkpt><trkpt lat="45.99260046061552" lon="13.307212449746864"><ele>67.0</ele><time>2026-04-12T16:37:28Z</time></trkpt><trkpt lat="45.99245437843286" lon="13.307207744937843"><ele>66.66666666666666</ele><time>2026-04-12T16:37:29Z</time></trkpt><trkpt lat="45.992305274734896" lon="13.30720867880219"><ele>66.33333333333333</ele><time>2026-04-12T16:37:30Z</time></trkpt><trkpt lat="45.99214546677917" lon="13.307212852644307"><ele>66.0</ele><time>2026-04-12T16:37:31Z</time></trkpt><trkpt lat="45.99197479576894" lon="13.307230423727953"><ele>66.0</ele><time>2026-04-12T16:37:32Z</time></trkpt><trkpt lat="45.99179984323163" lon="13.307271620761904"><ele>66.0</ele><time>2026-04-12T16:37:33Z</time></trkpt><trkpt lat="45.99162509309018" lon="13.307344243553713"><ele>66.0</ele><time>2026-04-12T16:37:34Z</time></trkpt><trkpt lat="45.99146681643824" lon="13.307463894761332"><ele>65.33333333333333</ele><time>2026-04-12T16:37:35Z</time></trkpt><trkpt lat="45.99131712724389" lon="13.307604596979283"><ele>64.66666666666666</ele><time>2026-04-12T16:37:36Z</time></trkpt><trkpt lat="45.99117082969376" lon="13.30774896618376"><ele>64.0</ele><time>2026-04-12T16:37:37Z</time></trkpt><trkpt lat="45.991022781133076" lon="13.307892843777662"><ele>64.0</ele><time>2026-04-12T16:37:38Z</time></trkpt><trkpt lat="45.990868648976964" lon="13.308038229134752"><ele>64.0</ele><time>2026-04-12T16:37:39Z</time></trkpt><trkpt lat="45.9907066096551" lon="13.308184012332328"><ele>64.0</ele><time>2026-04-12T16:37:40Z</time></trkpt><trkpt lat="45.99053457814927" lon="13.308322911409125"><ele>63.33333333333333</ele><time>2026-04-12T16:37:41Z</time></trkpt><trkpt lat="45.99035415009527" lon="13.30846530864066"><ele>62.66666666666667</ele><time>2026-04-12T16:37:42Z</time></trkpt><trkpt lat="45.990171257316824" lon="13.308614090975128"><ele>62.0</ele><time>2026-04-12T16:37:43Z</time></trkpt><trkpt lat="45.9899858076606" lon="13.308765717423755"><ele>62.0</ele><time>2026-04-12T16:37:44Z</time></trkpt><trkpt lat="45.98980000383708" lon="13.308924975639952"><ele>62.0</ele><time>2026-04-12T16:37:45Z</time></trkpt><trkpt lat="45.98961784051059" lon="13.309082799261398"><ele>62.0</ele><time>2026-04-12T16:37:46Z</time></trkpt><trkpt lat="45.989420517143564" lon="13.309223600314105"><ele>62.0</ele><time>2026-04-12T16:37:47Z</time></trkpt><trkpt lat="45.9892280314429" lon="13.309387472501495"><ele>62.0</ele><time>2026-04-12T16:37:48Z</time></trkpt><trkpt lat="45.98903899720612" lon="13.309574324418639"><ele>62.0</ele><time>2026-04-12T16:37:49Z</time></trkpt><trkpt lat="45.988841616977055" lon="13.309739559452863"><ele>62.0</ele><time>2026-04-12T16:37:50Z</time></trkpt><trkpt lat="45.98865025418726" lon="13.309903233050834"><ele>61.66666666666667</ele><time>2026-04-12T16:37:51Z</time></trkpt><trkpt lat="45.98846166873898" lon="13.310067227162639"><ele>61.33333333333333</ele><time>2026-04-12T16:37:52Z</time></trkpt><trkpt lat="45.98827661134419" lon="13.31022954045003"><ele>61.0</ele><time>2026-04-12T16:37:53Z</time></trkpt><trkpt lat="45.98809567445517" lon="13.310394724703162"><ele>61.0</ele><time>2026-04-12T16:37:54Z</time></trkpt><trkpt lat="45.9879142208806" lon="13.310561171981279"><ele>61.0</ele><time>2026-04-12T16:37:55Z</time></trkpt><trkpt lat="45.987735579898306" lon="13.310729866126875"><ele>61.0</ele><time>2026-04-12T16:37:56Z</time></trkpt><trkpt lat="45.98756200055131" lon="13.310898398600441"><ele>62.0</ele><time>2026-04-12T16:37:57Z</time></trkpt><trkpt lat="45.98739072353058" lon="13.311064520684104"><ele>63.0</ele><time>2026-04-12T16:37:58Z</time></trkpt><trkpt lat="45.987217942595095" lon="13.311228253507176"><ele>64.0</ele><time>2026-04-12T16:37:59Z</time></trkpt><trkpt lat="45.98704470129974" lon="13.311393004930874"><ele>63.666666666666664</ele><time>2026-04-12T16:38:00Z</time></trkpt><trkpt lat="45.98686794998747" lon="13.311561393839362"><ele>63.33333333333333</ele><time>2026-04-12T16:38:01Z</time></trkpt><trkpt lat="45.9866896614304" lon="13.311728733890133"><ele>63.0</ele><time>2026-04-12T16:38:02Z</time></trkpt><trkpt lat="45.986507875241074" lon="13.311897962976564"><ele>63.0</ele><time>2026-04-12T16:38:03Z</time></trkpt><trkpt lat="45.98632217420318" lon="13.312068664960378"><ele>63.0</ele><time>2026-04-12T16:38:04Z</time></trkpt><trkpt lat="45.98613894038042" lon="13.3122348568627"><ele>63.0</ele><time>2026-04-12T16:38:05Z</time></trkpt><trkpt lat="45.98595888905615" lon="13.312391557543524"><ele>62.66666666666667</ele><time>2026-04-12T16:38:06Z</time></trkpt><trkpt lat="45.98578406750339" lon="13.31252004434251"><ele>62.333333333333336</ele><time>2026-04-12T16:38:07Z</time></trkpt><trkpt lat="45.98560508902505" lon="13.31262227993012"><ele>62.0</ele><time>2026-04-12T16:38:08Z</time></trkpt><trkpt lat="45.98542685492296" lon="13.312713204915184"><ele>62.0</ele><time>2026-04-12T16:38:09Z</time></trkpt><trkpt lat="45.985251404452875" lon="13.31281060807283"><ele>62.0</ele><time>2026-04-12T16:38:10Z</time></trkpt><trkpt lat="45.985078870013226" lon="13.312905837062466"><ele>62.0</ele><time>2026-04-12T16:38:11Z</time></trkpt><trkpt lat="45.98490882930303" lon="13.313006639115681"><ele>61.333333333333336</ele><time>2026-04-12T16:38:12Z</time></trkpt><trkpt lat="45.98474078789399" lon="13.313127547264173"><ele>60.66666666666667</ele><time>2026-04-12T16:38:13Z</time></trkpt><trkpt lat="45.98458002330268" lon="13.313267703620589"><ele>60.0</ele><time>2026-04-12T16:38:14Z</time></trkpt><trkpt lat="45.98442837499262" lon="13.313417636552233"><ele>60.0</ele><time>2026-04-12T16:38:15Z</time></trkpt><trkpt lat="45.98428559266115" lon="13.313586705739773"><ele>60.0</ele><time>2026-04-12T16:38:16Z</time></trkpt><trkpt lat="45.98415327612175" lon="13.313768613694158"><ele>60.0</ele><time>2026-04-12T16:38:17Z</time></trkpt><trkpt lat="45.98403216924915" lon="13.31395741841497"><ele>60.33333333333333</ele><time>2026-04-12T16:38:18Z</time></trkpt><trkpt lat="45.98392021522295" lon="13.314135983146082"><ele>60.666666666666664</ele><time>2026-04-12T16:38:19Z</time></trkpt><trkpt lat="45.983802023957445" lon="13.314300361258455"><ele>61.0</ele><time>2026-04-12T16:38:20Z</time></trkpt><trkpt lat="45.98366373668871" lon="13.314444889116725"><ele>61.0</ele><time>2026-04-12T16:38:21Z</time></trkpt><trkpt lat="45.983515723631214" lon="13.314583132083511"><ele>61.0</ele><time>2026-04-12T16:38:22Z</time></trkpt><trkpt lat="45.98336383806793" lon="13.314718643356304"><ele>61.0</ele><time>2026-04-12T16:38:23Z</time></trkpt><trkpt lat="45.98320929567545" lon="13.314845836973713"><ele>60.33333333333333</ele><time>2026-04-12T16:38:24Z</time></trkpt><trkpt lat="45.98305109102485" lon="13.31497055597694"><ele>59.66666666666667</ele><time>2026-04-12T16:38:25Z</time></trkpt><trkpt lat="45.98289114431035" lon="13.315091775512244"><ele>59.0</ele><time>2026-04-12T16:38:26Z</time></trkpt><trkpt lat="45.98273756192708" lon="13.315206693865166"><ele>59.0</ele><time>2026-04-12T16:38:27Z</time></trkpt><trkpt lat="45.982590920531834" lon="13.315318306789257"><ele>59.0</ele><time>2026-04-12T16:38:28Z</time></trkpt><trkpt lat="45.98244310966253" lon="13.315428197487439"><ele>59.0</ele><time>2026-04-12T16:38:29Z</time></trkpt><trkpt lat="45.98229265606136" lon="13.315540741442282"><ele>59.0</ele><time>2026-04-12T16:38:30Z</time></trkpt><trkpt lat="45.9821411366778" lon="13.315652355902511"><ele>59.0</ele><time>2026-04-12T16:38:31Z</time></trkpt><trkpt lat="45.98198243994961" lon="13.315761108600771"><ele>59.0</ele><time>2026-04-12T16:38:32Z</time></trkpt><trkpt lat="45.98181964927216" lon="13.315869558916264"><ele>59.0</ele><time>2026-04-12T16:38:33Z</time></trkpt><trkpt lat="45.981647994989615" lon="13.315983463611335"><ele>59.0</ele><time>2026-04-12T16:38:34Z</time></trkpt><trkpt lat="45.981449931326964" lon="13.316099347045375"><ele>59.0</ele><time>2026-04-12T16:38:35Z</time></trkpt><trkpt lat="45.98123194304935" lon="13.31624344870059"><ele>59.0</ele><time>2026-04-12T16:38:36Z</time></trkpt><trkpt lat="45.98100561458119" lon="13.31641277416435"><ele>59.0</ele><time>2026-04-12T16:38:37Z</time></trkpt><trkpt lat="45.98079604661299" lon="13.316628930260876"><ele>59.0</ele><time>2026-04-12T16:38:38Z</time></trkpt><trkpt lat="45.980585819871585" lon="13.316809628946467"><ele>59.0</ele><time>2026-04-12T16:38:39Z</time></trkpt><trkpt lat="45.98039632348065" lon="13.316973032582865"><ele>59.0</ele><time>2026-04-12T16:38:40Z</time></trkpt><trkpt lat="45.98021890212614" lon="13.317109287682886"><ele>59.0</ele><time>2026-04-12T16:38:41Z</time></trkpt><trkpt lat="45.98004978232412" lon="13.317235764965387"><ele>59.0</ele><time>2026-04-12T16:38:42Z</time></trkpt><trkpt lat="45.979881483740414" lon="13.317369755845979"><ele>59.0</ele><time>2026-04-12T16:38:43Z</time></trkpt><trkpt lat="45.97970433514548" lon="13.317506897768471"><ele>59.0</ele><time>2026-04-12T16:38:44Z</time></trkpt><trkpt lat="45.97952971985144" lon="13.317633654657362"><ele>59.0</ele><time>2026-04-12T16:38:45Z</time></trkpt><trkpt lat="45.97934673268546" lon="13.317744419051929"><ele>58.333333333333336</ele><time>2026-04-12T16:38:46Z</time></trkpt><trkpt lat="45.97915519267128" lon="13.317834009668312"><ele>57.66666666666667</ele><time>2026-04-12T16:38:47Z</time></trkpt><trkpt lat="45.97896871959652" lon="13.317934687503731"><ele>57.0</ele><time>2026-04-12T16:38:47.999Z</time></trkpt><trkpt lat="45.978792087276624" lon="13.31805961500645"><ele>57.33333333333333</ele><time>2026-04-12T16:38:48.999Z</time></trkpt><trkpt lat="45.97862140495345" lon="13.318211579406018"><ele>57.666666666666664</ele><time>2026-04-12T16:38:49.999Z</time></trkpt><trkpt lat="45.9784521496793" lon="13.318382459616057"><ele>58.0</ele><time>2026-04-12T16:38:50.999Z</time></trkpt><trkpt lat="45.97827799464419" lon="13.318563710330078"><ele>58.33333333333333</ele><time>2026-04-12T16:38:51.999Z</time></trkpt><trkpt lat="45.978102026501865" lon="13.318741916845088"><ele>58.66666666666667</ele><time>2026-04-12T16:38:52.999Z</time></trkpt><trkpt lat="45.97792499079852" lon="13.318915626768149"><ele>59.0</ele><time>2026-04-12T16:38:53.999Z</time></trkpt><trkpt lat="45.97774574621515" lon="13.319082615257601"><ele>59.333333333333336</ele><time>2026-04-12T16:38:54.999Z</time></trkpt><trkpt lat="45.977576101001276" lon="13.319233438471475"><ele>59.66666666666667</ele><time>2026-04-12T16:38:56Z</time></trkpt><trkpt lat="45.97741961300569" lon="13.319367640005671"><ele>60.0</ele><time>2026-04-12T16:38:57Z</time></trkpt><trkpt lat="45.977272198237294" lon="13.319487908081083"><ele>59.33333333333333</ele><time>2026-04-12T16:38:58Z</time></trkpt><trkpt lat="45.977123531643514" lon="13.31960058510782"><ele>58.666666666666664</ele><time>2026-04-12T16:38:59Z</time></trkpt><trkpt lat="45.97697863714911" lon="13.319703096888908"><ele>58.0</ele><time>2026-04-12T16:39:00Z</time></trkpt><trkpt lat="45.97683315994427" lon="13.319803948241383"><ele>57.666666666666664</ele><time>2026-04-12T16:39:01Z</time></trkpt><trkpt lat="45.97668563209342" lon="13.319903055640482"><ele>57.33333333333333</ele><time>2026-04-12T16:39:02Z</time></trkpt><trkpt lat="45.97654279682145" lon="13.320000421653258"><ele>57.0</ele><time>2026-04-12T16:39:03Z</time></trkpt><trkpt lat="45.97639901132044" lon="13.320098800809332"><ele>57.0</ele><time>2026-04-12T16:39:04Z</time></trkpt><trkpt lat="45.97625779384768" lon="13.32019194233091"><ele>57.0</ele><time>2026-04-12T16:39:05Z</time></trkpt><trkpt lat="45.97611722580495" lon="13.320273189268745"><ele>57.0</ele><time>2026-04-12T16:39:06Z</time></trkpt><trkpt lat="45.975982257198716" lon="13.32034543350696"><ele>57.25</ele><time>2026-04-12T16:39:07Z</time></trkpt><trkpt lat="45.97585027664914" lon="13.320413760425911"><ele>57.5</ele><time>2026-04-12T16:39:08Z</time></trkpt><trkpt lat="45.97572085004277" lon="13.320480869609245"><ele>57.75</ele><time>2026-04-12T16:39:09Z</time></trkpt><trkpt lat="45.97558815070122" lon="13.320550573864466"><ele>58.0</ele><time>2026-04-12T16:39:10Z</time></trkpt><trkpt lat="45.975455854701536" lon="13.320620544423491"><ele>58.2</ele><time>2026-04-12T16:39:11Z</time></trkpt><trkpt lat="45.97533227236649" lon="13.32068592625939"><ele>58.4</ele><time>2026-04-12T16:39:12Z</time></trkpt><trkpt lat="45.975223145349695" lon="13.320745702818227"><ele>58.60000000000001</ele><time>2026-04-12T16:39:13Z</time></trkpt><trkpt lat="45.975127887518006" lon="13.320792206283558"><ele>58.800000000000004</ele><time>2026-04-12T16:39:14Z</time></trkpt><trkpt lat="45.97505339406706" lon="13.320822422167112"><ele>59.0</ele><time>2026-04-12T16:39:15Z</time></trkpt><trkpt lat="45.97497719845827" lon="13.320828229062867"><ele>59.00000000000001</ele><time>2026-04-12T16:39:16Z</time></trkpt><trkpt lat="45.97490104849398" lon="13.320794417917913"><ele>59.0</ele><time>2026-04-12T16:39:17Z</time></trkpt><trkpt lat="45.974831735030925" lon="13.3207840573597"><ele>59.0</ele><time>2026-04-12T16:39:18Z</time></trkpt><trkpt lat="45.97477400416451" lon="13.320821750405344"><ele>59.0</ele><time>2026-04-12T16:39:19Z</time></trkpt><trkpt lat="45.97473302546143" lon="13.32090383793694"><ele>59.00000000000001</ele><time>2026-04-12T16:39:20Z</time></trkpt><trkpt lat="45.974704003434496" lon="13.32101168564045"><ele>59.0</ele><time>2026-04-12T16:39:21Z</time></trkpt><trkpt lat="45.97465051695833" lon="13.321125337522265"><ele>59.0</ele><time>2026-04-12T16:39:22Z</time></trkpt><trkpt lat="45.974594838724535" lon="13.32126082505992"><ele>59.0</ele><time>2026-04-12T16:39:23Z</time></trkpt><trkpt lat="45.97455538968046" lon="13.321424188211484"><ele>59.0</ele><time>2026-04-12T16:39:24Z</time></trkpt><trkpt lat="45.974525391433794" lon="13.321577104055564"><ele>59.0</ele><time>2026-04-12T16:39:25Z</time></trkpt><trkpt lat="45.97449739413272" lon="13.321740201299152"><ele>58.75</ele><time>2026-04-12T16:39:26Z</time></trkpt><trkpt lat="45.97446859905963" lon="13.321892369245278"><ele>58.5</ele><time>2026-04-12T16:39:27Z</time></trkpt><trkpt lat="45.97444584115205" lon="13.32204009784363"><ele>58.25</ele><time>2026-04-12T16:39:28Z</time></trkpt><trkpt lat="45.97444061962274" lon="13.322203446757841"><ele>58.0</ele><time>2026-04-12T16:39:29Z</time></trkpt><trkpt lat="45.9744515924869" lon="13.322377075388191"><ele>58.0</ele><time>2026-04-12T16:39:30Z</time></trkpt><trkpt lat="45.97447946025863" lon="13.322549886184738"><ele>58.0</ele><time>2026-04-12T16:39:31Z</time></trkpt><trkpt lat="45.97451803843033" lon="13.322715024918622"><ele>58.0</ele><time>2026-04-12T16:39:32Z</time></trkpt><trkpt lat="45.97456496884924" lon="13.322880641666758"><ele>58.0</ele><time>2026-04-12T16:39:33Z</time></trkpt><trkpt lat="45.97461405784984" lon="13.323045770172358"><ele>58.0</ele><time>2026-04-12T16:39:34Z</time></trkpt><trkpt lat="45.974657775383285" lon="13.323221591890587"><ele>58.0</ele><time>2026-04-12T16:39:35Z</time></trkpt><trkpt lat="45.97471426342286" lon="13.323400172822307"><ele>58.0</ele><time>2026-04-12T16:39:36Z</time></trkpt><trkpt lat="45.97478583359547" lon="13.323582991726514"><ele>58.0</ele><time>2026-04-12T16:39:37Z</time></trkpt><trkpt lat="45.974840750566834" lon="13.32376103498446"><ele>58.0</ele><time>2026-04-12T16:39:38Z</time></trkpt><trkpt lat="45.97489636469423" lon="13.323933932234036"><ele>58.0</ele><time>2026-04-12T16:39:39Z</time></trkpt><trkpt lat="45.974949945410835" lon="13.324105994509589"><ele>58.0</ele><time>2026-04-12T16:39:40Z</time></trkpt><trkpt lat="45.97500388579017" lon="13.324278233821106"><ele>58.0</ele><time>2026-04-12T16:39:41Z</time></trkpt><trkpt lat="45.9750595122463" lon="13.324452019594629"><ele>57.75</ele><time>2026-04-12T16:39:42Z</time></trkpt><trkpt lat="45.97511330954142" lon="13.324624671343363"><ele>57.5</ele><time>2026-04-12T16:39:43Z</time></trkpt><trkpt lat="45.97516453660468" lon="13.324795848944575"><ele>57.25</ele><time>2026-04-12T16:39:44Z</time></trkpt><trkpt lat="45.97520219174132" lon="13.324972651002385"><ele>57.0</ele><time>2026-04-12T16:39:45Z</time></trkpt><trkpt lat="45.97524767917386" lon="13.32513985928792"><ele>57.0</ele><time>2026-04-12T16:39:46Z</time></trkpt><trkpt lat="45.97530458002307" lon="13.32529437488968"><ele>57.0</ele><time>2026-04-12T16:39:47Z</time></trkpt><trkpt lat="45.97534485828035" lon="13.32544997308092"><ele>57.0</ele><time>2026-04-12T16:39:48Z</time></trkpt><trkpt lat="45.97537934442223" lon="13.325603392457795"><ele>57.0</ele><time>2026-04-12T16:39:49Z</time></trkpt><trkpt lat="45.975423352097025" lon="13.32575242172127"><ele>57.0</ele><time>2026-04-12T16:39:50Z</time></trkpt><trkpt lat="45.97546407610075" lon="13.325908899861089"><ele>57.0</ele><time>2026-04-12T16:39:51Z</time></trkpt><trkpt lat="45.97550961921987" lon="13.326070141441354"><ele>57.0</ele><time>2026-04-12T16:39:52Z</time></trkpt><trkpt lat="45.97555224520738" lon="13.326239196065455"><ele>57.0</ele><time>2026-04-12T16:39:53Z</time></trkpt><trkpt lat="45.97560251103787" lon="13.326403778045796"><ele>57.400000000000006</ele><time>2026-04-12T16:39:54Z</time></trkpt><trkpt lat="45.97565463153408" lon="13.32655902583228"><ele>57.800000000000004</ele><time>2026-04-12T16:39:55Z</time></trkpt><trkpt lat="45.97569469388008" lon="13.32670313786859"><ele>58.2</ele><time>2026-04-12T16:39:56Z</time></trkpt><trkpt lat="45.9757377859225" lon="13.326850694278923"><ele>58.6</ele><time>2026-04-12T16:39:57Z</time></trkpt><trkpt lat="45.97577497587399" lon="13.32698768517882"><ele>59.0</ele><time>2026-04-12T16:39:58Z</time></trkpt><trkpt lat="45.97580610099053" lon="13.327114032184657"><ele>59.2</ele><time>2026-04-12T16:39:59Z</time></trkpt><trkpt lat="45.97582931595623" lon="13.3272383010948"><ele>59.400000000000006</ele><time>2026-04-12T16:40:00Z</time></trkpt><trkpt lat="45.97583508213123" lon="13.327368243469468"><ele>59.6</ele><time>2026-04-12T16:40:01Z</time></trkpt><trkpt lat="45.97581289446371" lon="13.327495565807542"><ele>59.8</ele><time>2026-04-12T16:40:02Z</time></trkpt><trkpt lat="45.97576038037571" lon="13.327611671403613"><ele>60.0</ele><time>2026-04-12T16:40:03Z</time></trkpt><trkpt lat="45.975720712906806" lon="13.32774871707763"><ele>60.0</ele><time>2026-04-12T16:40:04Z</time></trkpt><trkpt lat="45.97558063780486" lon="13.327790646815352"><ele>60.0</ele><time>2026-04-12T16:40:05Z</time></trkpt><trkpt lat="45.97545537732246" lon="13.327828592330416"><ele>60.0</ele><time>2026-04-12T16:40:06Z</time></trkpt><trkpt lat="45.975329381252834" lon="13.327860133423734"><ele>60.0</ele><time>2026-04-12T16:40:07Z</time></trkpt><trkpt lat="45.97520694003241" lon="13.327909967469962"><ele>60.0</ele><time>2026-04-12T16:40:08Z</time></trkpt><trkpt lat="45.97508239136482" lon="13.327979071033031"><ele>60.0</ele><time>2026-04-12T16:40:09Z</time></trkpt><trkpt lat="45.97494882017462" lon="13.328061324019282"><ele>60.0</ele><time>2026-04-12T16:40:10Z</time></trkpt><trkpt lat="45.97479971176271" lon="13.328162966606264"><ele>60.0</ele><time>2026-04-12T16:40:11Z</time></trkpt><trkpt lat="45.974647391521806" lon="13.3282643150317"><ele>59.0</ele><time>2026-04-12T16:40:12Z</time></trkpt><trkpt lat="45.97449559401841" lon="13.328360971757837"><ele>58.0</ele><time>2026-04-12T16:40:13Z</time></trkpt><trkpt lat="45.97434223953698" lon="13.328466082785537"><ele>57.0</ele><time>2026-04-12T16:40:14Z</time></trkpt><trkpt lat="45.97419361326965" lon="13.328569066880911"><ele>56.66666666666667</ele><time>2026-04-12T16:40:15Z</time></trkpt><trkpt lat="45.974046150902275" lon="13.328664040403979"><ele>56.333333333333336</ele><time>2026-04-12T16:40:16Z</time></trkpt><trkpt lat="45.97390203735578" lon="13.328756215260077"><ele>56.0</ele><time>2026-04-12T16:40:17Z</time></trkpt><trkpt lat="45.97376381197242" lon="13.328849580763428"><ele>56.0</ele><time>2026-04-12T16:40:18Z</time></trkpt><trkpt lat="45.973630410526845" lon="13.32894064780073"><ele>56.0</ele><time>2026-04-12T16:40:19Z</time></trkpt><trkpt lat="45.97349772018398" lon="13.329032702881268"><ele>56.0</ele><time>2026-04-12T16:40:20Z</time></trkpt><trkpt lat="45.973363976860306" lon="13.32912449859468"><ele>56.0</ele><time>2026-04-12T16:40:21Z</time></trkpt><trkpt lat="45.973227744494544" lon="13.32921738371217"><ele>55.333333333333336</ele><time>2026-04-12T16:40:22Z</time></trkpt><trkpt lat="45.973089642907006" lon="13.329309830355065"><ele>54.66666666666667</ele><time>2026-04-12T16:40:23Z</time></trkpt><trkpt lat="45.9729478925533" lon="13.329404515980523"><ele>54.0</ele><time>2026-04-12T16:40:24Z</time></trkpt><trkpt lat="45.97280337897626" lon="13.32950359161113"><ele>54.0</ele><time>2026-04-12T16:40:25Z</time></trkpt><trkpt lat="45.97265484879025" lon="13.329603304959525"><ele>54.0</ele><time>2026-04-12T16:40:26Z</time></trkpt><trkpt lat="45.97250320225606" lon="13.329701376282186"><ele>54.0</ele><time>2026-04-12T16:40:27Z</time></trkpt><trkpt lat="45.97235305623156" lon="13.329802280874942"><ele>54.66666666666667</ele><time>2026-04-12T16:40:28Z</time></trkpt><trkpt lat="45.97220283902647" lon="13.329909295366605"><ele>55.333333333333336</ele><time>2026-04-12T16:40:29Z</time></trkpt><trkpt lat="45.97205465050954" lon="13.33001072825678"><ele>56.0</ele><time>2026-04-12T16:40:30Z</time></trkpt><trkpt lat="45.971909633697514" lon="13.330106253401949"><ele>56.0</ele><time>2026-04-12T16:40:31Z</time></trkpt><trkpt lat="45.97176784975923" lon="13.33019711309746"><ele>56.0</ele><time>2026-04-12T16:40:32Z</time></trkpt><trkpt lat="45.97162565811555" lon="13.330283059085806"><ele>56.0</ele><time>2026-04-12T16:40:33Z</time></trkpt><trkpt lat="45.97147779027002" lon="13.330357515135246"><ele>55.66666666666667</ele><time>2026-04-12T16:40:34Z</time></trkpt><trkpt lat="45.97131928330202" lon="13.330421164714174"><ele>55.33333333333333</ele><time>2026-04-12T16:40:35Z</time></trkpt><trkpt lat="45.97114899235668" lon="13.330479067678539"><ele>55.0</ele><time>2026-04-12T16:40:36Z</time></trkpt><trkpt lat="45.97097387349384" lon="13.33053389730792"><ele>54.666666666666664</ele><time>2026-04-12T16:40:37Z</time></trkpt><trkpt lat="45.970796141908835" lon="13.330582052333735"><ele>54.33333333333333</ele><time>2026-04-12T16:40:38Z</time></trkpt><trkpt lat="45.97061284533995" lon="13.330628504821593"><ele>54.0</ele><time>2026-04-12T16:40:39Z</time></trkpt><trkpt lat="45.97041681214403" lon="13.33068184013665"><ele>54.0</ele><time>2026-04-12T16:40:40Z</time></trkpt><trkpt lat="45.970199247592596" lon="13.330714800261298"><ele>54.0</ele><time>2026-04-12T16:40:41Z</time></trkpt><trkpt lat="45.96996106030305" lon="13.33077675311951"><ele>53.5</ele><time>2026-04-12T16:40:42Z</time></trkpt><trkpt lat="45.96971115007976" lon="13.330841757036112"><ele>53.0</ele><time>2026-04-12T16:40:43Z</time></trkpt><trkpt lat="45.96946825621556" lon="13.330904934078358"><ele>53.0</ele><time>2026-04-12T16:40:44Z</time></trkpt><trkpt lat="45.969226884182994" lon="13.330967370753143"><ele>53.0</ele><time>2026-04-12T16:40:45Z</time></trkpt><trkpt lat="45.968987637061375" lon="13.331030199955515"><ele>53.0</ele><time>2026-04-12T16:40:46Z</time></trkpt><trkpt lat="45.968751173566005" lon="13.331111449484704"><ele>53.0</ele><time>2026-04-12T16:40:47Z</time></trkpt><trkpt lat="45.9685218973472" lon="13.3311704726797"><ele>53.66666666666667</ele><time>2026-04-12T16:40:48Z</time></trkpt><trkpt lat="45.968302094435174" lon="13.331224293488164"><ele>54.33333333333333</ele><time>2026-04-12T16:40:49Z</time></trkpt><trkpt lat="45.96808818047021" lon="13.331277161412851"><ele>55.0</ele><time>2026-04-12T16:40:50Z</time></trkpt><trkpt lat="45.96788163899223" lon="13.33133026265288"><ele>55.0</ele><time>2026-04-12T16:40:51Z</time></trkpt><trkpt lat="45.96768022088846" lon="13.331381073217763"><ele>55.0</ele><time>2026-04-12T16:40:51.999Z</time></trkpt><trkpt lat="45.96747935374692" lon="13.331430744415465"><ele>55.0</ele><time>2026-04-12T16:40:52.999Z</time></trkpt><trkpt lat="45.967279883775696" lon="13.331481834286862"><ele>54.0</ele><time>2026-04-12T16:40:53.999Z</time></trkpt><trkpt lat="45.967082131343204" lon="13.331534123586883"><ele>53.0</ele><time>2026-04-12T16:40:54.999Z</time></trkpt><trkpt lat="45.96688597807867" lon="13.331585003687216"><ele>52.0</ele><time>2026-04-12T16:40:55.999Z</time></trkpt><trkpt lat="45.966689294887274" lon="13.331636960538159"><ele>51.666666666666664</ele><time>2026-04-12T16:40:56.999Z</time></trkpt><trkpt lat="45.96648860234334" lon="13.33169206913438"><ele>51.33333333333333</ele><time>2026-04-12T16:40:57.999Z</time></trkpt><trkpt lat="45.96628413776309" lon="13.331749830460277"><ele>51.0</ele><time>2026-04-12T16:40:58.999Z</time></trkpt><trkpt lat="45.966081032691186" lon="13.331816349950108"><ele>51.0</ele><time>2026-04-12T16:40:59.999Z</time></trkpt><trkpt lat="45.96588153143912" lon="13.331898355935992"><ele>51.0</ele><time>2026-04-12T16:41:00.999Z</time></trkpt><trkpt lat="45.96568529163927" lon="13.332001410242091"><ele>51.0</ele><time>2026-04-12T16:41:02Z</time></trkpt><trkpt lat="45.965493564765374" lon="13.33211823289903"><ele>51.0</ele><time>2026-04-12T16:41:03Z</time></trkpt><trkpt lat="45.96529108580736" lon="13.332221164232369"><ele>51.0</ele><time>2026-04-12T16:41:04Z</time></trkpt><trkpt lat="45.96508441574598" lon="13.332350593742001"><ele>51.0</ele><time>2026-04-12T16:41:05Z</time></trkpt><trkpt lat="45.96486643074367" lon="13.332487905954617"><ele>51.5</ele><time>2026-04-12T16:41:06Z</time></trkpt><trkpt lat="45.96462684055434" lon="13.332638825601697"><ele>52.0</ele><time>2026-04-12T16:41:07Z</time></trkpt><trkpt lat="45.96437279404481" lon="13.332798851474498"><ele>50.5</ele><time>2026-04-12T16:41:08Z</time></trkpt><trkpt lat="45.964109360038144" lon="13.332964790637156"><ele>49.0</ele><time>2026-04-12T16:41:09Z</time></trkpt><trkpt lat="45.96383559555111" lon="13.333137236907183"><ele>49.0</ele><time>2026-04-12T16:41:10Z</time></trkpt><trkpt lat="45.96355069926398" lon="13.333317077052985"><ele>49.0</ele><time>2026-04-12T16:41:11Z</time></trkpt><trkpt lat="45.96328625251948" lon="13.33350461308797"><ele>49.0</ele><time>2026-04-12T16:41:12Z</time></trkpt><trkpt lat="45.96304696776226" lon="13.333654726847112"><ele>49.0</ele><time>2026-04-12T16:41:13Z</time></trkpt><trkpt lat="45.96283443612442" lon="13.333786165834034"><ele>49.0</ele><time>2026-04-12T16:41:14Z</time></trkpt><trkpt lat="45.96263044462643" lon="13.333916735379464"><ele>49.0</ele><time>2026-04-12T16:41:15Z</time></trkpt><trkpt lat="45.96243109767568" lon="13.334044894997678"><ele>49.0</ele><time>2026-04-12T16:41:16Z</time></trkpt><trkpt lat="45.96223090918389" lon="13.33417454881445"><ele>48.666666666666664</ele><time>2026-04-12T16:41:17Z</time></trkpt><trkpt lat="45.962029839277946" lon="13.334300086788653"><ele>48.33333333333333</ele><time>2026-04-12T16:41:18Z</time></trkpt><trkpt lat="45.961835307973566" lon="13.334417893855779"><ele>48.0</ele><time>2026-04-12T16:41:19Z</time></trkpt><trkpt lat="45.96164619455865" lon="13.334535946098741"><ele>48.0</ele><time>2026-04-12T16:41:20Z</time></trkpt><trkpt lat="45.96145519828716" lon="13.33464508762511"><ele>48.0</ele><time>2026-04-12T16:41:21Z</time></trkpt><trkpt lat="45.9612618860424" lon="13.334733272800563"><ele>48.0</ele><time>2026-04-12T16:41:22Z</time></trkpt><trkpt lat="45.961069427951806" lon="13.334801733986293"><ele>47.666666666666664</ele><time>2026-04-12T16:41:23Z</time></trkpt><trkpt lat="45.960879421180245" lon="13.334852931830259"><ele>47.33333333333333</ele><time>2026-04-12T16:41:24Z</time></trkpt><trkpt lat="45.96068967991637" lon="13.334909092994101"><ele>47.0</ele><time>2026-04-12T16:41:25Z</time></trkpt><trkpt lat="45.960495413344454" lon="13.334971319030629"><ele>46.666666666666664</ele><time>2026-04-12T16:41:26Z</time></trkpt><trkpt lat="45.960295855571864" lon="13.33503164218025"><ele>46.333333333333336</ele><time>2026-04-12T16:41:27Z</time></trkpt><trkpt lat="45.96008945668912" lon="13.33509062022155"><ele>46.0</ele><time>2026-04-12T16:41:28Z</time></trkpt><trkpt lat="45.95988229608905" lon="13.335152347056443"><ele>46.0</ele><time>2026-04-12T16:41:29Z</time></trkpt><trkpt lat="45.959678248731024" lon="13.335213473042923"><ele>46.0</ele><time>2026-04-12T16:41:30Z</time></trkpt><trkpt lat="45.95947766146351" lon="13.33527221504162"><ele>46.0</ele><time>2026-04-12T16:41:31Z</time></trkpt><trkpt lat="45.959279383317856" lon="13.335329392656591"><ele>45.66666666666667</ele><time>2026-04-12T16:41:32Z</time></trkpt><trkpt lat="45.95907697884265" lon="13.33538703449679"><ele>45.333333333333336</ele><time>2026-04-12T16:41:33Z</time></trkpt><trkpt lat="45.95887618928729" lon="13.335446923316784"><ele>45.0</ele><time>2026-04-12T16:41:34Z</time></trkpt><trkpt lat="45.958682067715834" lon="13.335507305156147"><ele>45.0</ele><time>2026-04-12T16:41:35Z</time></trkpt><trkpt lat="45.958490545264134" lon="13.335573035524574"><ele>45.0</ele><time>2026-04-12T16:41:36Z</time></trkpt><trkpt lat="45.95830201980882" lon="13.335651398261053"><ele>45.0</ele><time>2026-04-12T16:41:37Z</time></trkpt><trkpt lat="45.95811919151734" lon="13.3357531623444"><ele>45.666666666666664</ele><time>2026-04-12T16:41:38Z</time></trkpt><trkpt lat="45.95793653271562" lon="13.33586167281235"><ele>46.33333333333333</ele><time>2026-04-12T16:41:39Z</time></trkpt><trkpt lat="45.9577558294832" lon="13.335967841916345"><ele>47.0</ele><time>2026-04-12T16:41:40Z</time></trkpt><trkpt lat="45.9575760458169" lon="13.336074626851397"><ele>47.33333333333333</ele><time>2026-04-12T16:41:41Z</time></trkpt><trkpt lat="45.95739548863316" lon="13.33618764058808"><ele>47.666666666666664</ele><time>2026-04-12T16:41:42Z</time></trkpt><trkpt lat="45.957214721586695" lon="13.336306367191202"><ele>48.0</ele><time>2026-04-12T16:41:43Z</time></trkpt><trkpt lat="45.957033216530014" lon="13.336430900375815"><ele>48.0</ele><time>2026-04-12T16:41:44Z</time></trkpt><trkpt lat="45.95685125312568" lon="13.336566188027232"><ele>48.0</ele><time>2026-04-12T16:41:45Z</time></trkpt><trkpt lat="45.95667111643349" lon="13.33670326407542"><ele>48.0</ele><time>2026-04-12T16:41:46Z</time></trkpt><trkpt lat="45.95649062142438" lon="13.336834683238271"><ele>47.666666666666664</ele><time>2026-04-12T16:41:47Z</time></trkpt><trkpt lat="45.95630524856218" lon="13.336965476539932"><ele>47.33333333333333</ele><time>2026-04-12T16:41:48Z</time></trkpt><trkpt lat="45.95612527503585" lon="13.337091086419559"><ele>47.0</ele><time>2026-04-12T16:41:49Z</time></trkpt><trkpt lat="45.95596539794803" lon="13.33720121683286"><ele>47.0</ele><time>2026-04-12T16:41:50Z</time></trkpt><trkpt lat="45.95581301846303" lon="13.337305328035029"><ele>47.0</ele><time>2026-04-12T16:41:51Z</time></trkpt><trkpt lat="45.95565281916656" lon="13.3374152969631"><ele>47.0</ele><time>2026-04-12T16:41:52Z</time></trkpt><trkpt lat="45.95550224963832" lon="13.337523497294976"><ele>47.0</ele><time>2026-04-12T16:41:53Z</time></trkpt><trkpt lat="45.95535816073138" lon="13.337623740163925"><ele>47.0</ele><time>2026-04-12T16:41:54Z</time></trkpt><trkpt lat="45.955214666452555" lon="13.33772318581918"><ele>47.0</ele><time>2026-04-12T16:41:55Z</time></trkpt><trkpt lat="45.95507216721951" lon="13.337826023137154"><ele>46.666666666666664</ele><time>2026-04-12T16:41:56Z</time></trkpt><trkpt lat="45.95492690291969" lon="13.337925528846938"><ele>46.333333333333336</ele><time>2026-04-12T16:41:57Z</time></trkpt><trkpt lat="45.954779135302" lon="13.338026279505044"><ele>46.0</ele><time>2026-04-12T16:41:58Z</time></trkpt><trkpt lat="45.95462907392059" lon="13.338130530953125"><ele>45.66666666666667</ele><time>2026-04-12T16:41:59Z</time></trkpt><trkpt lat="45.954474592903026" lon="13.338238582638073"><ele>45.333333333333336</ele><time>2026-04-12T16:42:00Z</time></trkpt><trkpt lat="45.95431875048828" lon="13.338346491042987"><ele>45.0</ele><time>2026-04-12T16:42:01Z</time></trkpt><trkpt lat="45.95416231706956" lon="13.338453088647173"><ele>45.666666666666664</ele><time>2026-04-12T16:42:02Z</time></trkpt><trkpt lat="45.9540054666805" lon="13.338561816979572"><ele>46.33333333333333</ele><time>2026-04-12T16:42:03Z</time></trkpt><trkpt lat="45.95384808107092" lon="13.33866859521002"><ele>47.0</ele><time>2026-04-12T16:42:04Z</time></trkpt><trkpt lat="45.9536934938309" lon="13.338774165301944"><ele>47.0</ele><time>2026-04-12T16:42:05Z</time></trkpt><trkpt lat="45.95354203527939" lon="13.338879468535914"><ele>47.0</ele><time>2026-04-12T16:42:06Z</time></trkpt><trkpt lat="45.95339989483137" lon="13.338979510088828"><ele>47.0</ele><time>2026-04-12T16:42:07Z</time></trkpt><trkpt lat="45.953260098501076" lon="13.339078139819739"><ele>47.0</ele><time>2026-04-12T16:42:08Z</time></trkpt><trkpt lat="45.95311889254581" lon="13.339176775465358"><ele>47.0</ele><time>2026-04-12T16:42:09Z</time></trkpt><trkpt lat="45.95297848815859" lon="13.339273982411614"><ele>47.0</ele><time>2026-04-12T16:42:10Z</time></trkpt><trkpt lat="45.952836243765056" lon="13.339374552581818"><ele>47.0</ele><time>2026-04-12T16:42:11Z</time></trkpt><trkpt lat="45.95268534025907" lon="13.339479351219664"><ele>47.0</ele><time>2026-04-12T16:42:12Z</time></trkpt><trkpt lat="45.952530624814" lon="13.339581538880227"><ele>47.0</ele><time>2026-04-12T16:42:13Z</time></trkpt><trkpt lat="45.95237414773168" lon="13.339686321875323"><ele>46.666666666666664</ele><time>2026-04-12T16:42:14Z</time></trkpt><trkpt lat="45.95221739280948" lon="13.33979797001151"><ele>46.333333333333336</ele><time>2026-04-12T16:42:15Z</time></trkpt><trkpt lat="45.95206500780517" lon="13.339905274547487"><ele>46.0</ele><time>2026-04-12T16:42:16Z</time></trkpt><trkpt lat="45.95191437185589" lon="13.34001001636154"><ele>46.0</ele><time>2026-04-12T16:42:17Z</time></trkpt><trkpt lat="45.95176422149106" lon="13.340116359883298"><ele>46.0</ele><time>2026-04-12T16:42:18Z</time></trkpt><trkpt lat="45.95161429354779" lon="13.340221303611342"><ele>46.0</ele><time>2026-04-12T16:42:19Z</time></trkpt><trkpt lat="45.951463998661715" lon="13.340326460379439"><ele>46.0</ele><time>2026-04-12T16:42:20Z</time></trkpt><trkpt lat="45.951314785143374" lon="13.340436704702235"><ele>46.0</ele><time>2026-04-12T16:42:21Z</time></trkpt><trkpt lat="45.951167387272015" lon="13.340552403597373"><ele>46.0</ele><time>2026-04-12T16:42:22Z</time></trkpt><trkpt lat="45.951022612316585" lon="13.340675593404832"><ele>46.0</ele><time>2026-04-12T16:42:23Z</time></trkpt><trkpt lat="45.95087905666572" lon="13.340804220491368"><ele>46.0</ele><time>2026-04-12T16:42:24Z</time></trkpt><trkpt lat="45.950736552013" lon="13.340941045933658"><ele>46.0</ele><time>2026-04-12T16:42:25Z</time></trkpt><trkpt lat="45.95059379393225" lon="13.341081042895528"><ele>46.0</ele><time>2026-04-12T16:42:26Z</time></trkpt><trkpt lat="45.950449188543395" lon="13.341227650709472"><ele>46.0</ele><time>2026-04-12T16:42:27Z</time></trkpt><trkpt lat="45.95030482860852" lon="13.341377622322666"><ele>46.0</ele><time>2026-04-12T16:42:28Z</time></trkpt><trkpt lat="45.950164204676604" lon="13.341522466841104"><ele>45.66666666666667</ele><time>2026-04-12T16:42:29Z</time></trkpt><trkpt lat="45.95002493937389" lon="13.34166686870573"><ele>45.333333333333336</ele><time>2026-04-12T16:42:30Z</time></trkpt><trkpt lat="45.949888362668524" lon="13.341812762399684"><ele>45.0</ele><time>2026-04-12T16:42:31Z</time></trkpt><trkpt lat="45.94975176246405" lon="13.341955446769632"><ele>45.0</ele><time>2026-04-12T16:42:32Z</time></trkpt><trkpt lat="45.94961974213718" lon="13.342100291180254"><ele>45.0</ele><time>2026-04-12T16:42:33Z</time></trkpt><trkpt lat="45.94949085650778" lon="13.342256044971142"><ele>45.0</ele><time>2026-04-12T16:42:34Z</time></trkpt><trkpt lat="45.949367202672015" lon="13.342423087436377"><ele>45.0</ele><time>2026-04-12T16:42:35Z</time></trkpt><trkpt lat="45.94925075082352" lon="13.342609971253374"><ele>45.0</ele><time>2026-04-12T16:42:36Z</time></trkpt><trkpt lat="45.94913598730587" lon="13.342811769821829"><ele>45.0</ele><time>2026-04-12T16:42:37Z</time></trkpt><trkpt lat="45.949020793268524" lon="13.343030711270398"><ele>44.333333333333336</ele><time>2026-04-12T16:42:38Z</time></trkpt><trkpt lat="45.94889864844815" lon="13.343257757945963"><ele>43.66666666666667</ele><time>2026-04-12T16:42:39Z</time></trkpt><trkpt lat="45.948771501941344" lon="13.343499703950485"><ele>43.0</ele><time>2026-04-12T16:42:40Z</time></trkpt><trkpt lat="45.94863675230276" lon="13.343750017645004"><ele>43.333333333333336</ele><time>2026-04-12T16:42:41Z</time></trkpt><trkpt lat="45.948504055593986" lon="13.343998681542056"><ele>43.666666666666664</ele><time>2026-04-12T16:42:42Z</time></trkpt><trkpt lat="45.94837518135818" lon="13.344266546174087"><ele>44.0</ele><time>2026-04-12T16:42:43Z</time></trkpt><trkpt lat="45.9482436302944" lon="13.34452191241473"><ele>43.0</ele><time>2026-04-12T16:42:44Z</time></trkpt><trkpt lat="45.9481064852174" lon="13.34478784598795"><ele>42.0</ele><time>2026-04-12T16:42:45Z</time></trkpt><trkpt lat="45.94797098946669" lon="13.345047683841296"><ele>42.0</ele><time>2026-04-12T16:42:46Z</time></trkpt><trkpt lat="45.947839433149944" lon="13.345299630532667"><ele>42.0</ele><time>2026-04-12T16:42:47Z</time></trkpt><trkpt lat="45.94770569289024" lon="13.34555145734699"><ele>42.0</ele><time>2026-04-12T16:42:48Z</time></trkpt><trkpt lat="45.947564366479696" lon="13.345793853140263"><ele>41.666666666666664</ele><time>2026-04-12T16:42:49Z</time></trkpt><trkpt lat="45.94740300904279" lon="13.346021271439769"><ele>41.33333333333333</ele><time>2026-04-12T16:42:50Z</time></trkpt><trkpt lat="45.94722694815455" lon="13.346210388477294"><ele>41.0</ele><time>2026-04-12T16:42:51Z</time></trkpt><trkpt lat="45.947039009557855" lon="13.34636586954392"><ele>41.33333333333333</ele><time>2026-04-12T16:42:52Z</time></trkpt><trkpt lat="45.946833944744284" lon="13.346458283495329"><ele>41.666666666666664</ele><time>2026-04-12T16:42:52.999Z</time></trkpt><trkpt lat="45.94663034328734" lon="13.346577761982092"><ele>42.0</ele><time>2026-04-12T16:42:53.999Z</time></trkpt><trkpt lat="45.94642108563851" lon="13.34667569600605"><ele>42.0</ele><time>2026-04-12T16:42:54.999Z</time></trkpt><trkpt lat="45.94620825896043" lon="13.3467778430998"><ele>42.0</ele><time>2026-04-12T16:42:55.999Z</time></trkpt><trkpt lat="45.945988196435856" lon="13.346882801686542"><ele>41.5</ele><time>2026-04-12T16:42:56.999Z</time></trkpt><trkpt lat="45.94576583546365" lon="13.346992003868817"><ele>41.0</ele><time>2026-04-12T16:42:57.999Z</time></trkpt><trkpt lat="45.945550066879115" lon="13.347100082261068"><ele>41.0</ele><time>2026-04-12T16:42:58.999Z</time></trkpt><trkpt lat="45.9453332112821" lon="13.347207203805686"><ele>41.0</ele><time>2026-04-12T16:42:59.999Z</time></trkpt><trkpt lat="45.94511620780165" lon="13.347311705096871"><ele>41.5</ele><time>2026-04-12T16:43:00.999Z</time></trkpt><trkpt lat="45.94490155202676" lon="13.34741800086254"><ele>42.0</ele><time>2026-04-12T16:43:01.999Z</time></trkpt><trkpt lat="45.94468132839581" lon="13.347526687103798"><ele>42.0</ele><time>2026-04-12T16:43:02.999Z</time></trkpt><trkpt lat="45.944461178567046" lon="13.347633977341813"><ele>42.0</ele><time>2026-04-12T16:43:03.999Z</time></trkpt><trkpt lat="45.944244460449696" lon="13.347736049689017"><ele>42.0</ele><time>2026-04-12T16:43:04.999Z</time></trkpt><trkpt lat="45.94403109870509" lon="13.347840874592714"><ele>42.0</ele><time>2026-04-12T16:43:05.999Z</time></trkpt><trkpt lat="45.94381904451338" lon="13.347946632527231"><ele>42.0</ele><time>2026-04-12T16:43:06.999Z</time></trkpt><trkpt lat="45.94360739174883" lon="13.3480494904819"><ele>42.0</ele><time>2026-04-12T16:43:08Z</time></trkpt><trkpt lat="45.943396129007816" lon="13.348150776490993"><ele>42.0</ele><time>2026-04-12T16:43:09Z</time></trkpt><trkpt lat="45.9431848900488" lon="13.34825459892216"><ele>41.666666666666664</ele><time>2026-04-12T16:43:10Z</time></trkpt><trkpt lat="45.942977106122406" lon="13.348356799288474"><ele>41.33333333333333</ele><time>2026-04-12T16:43:11Z</time></trkpt><trkpt lat="45.94278506114437" lon="13.348451693421913"><ele>41.0</ele><time>2026-04-12T16:43:12Z</time></trkpt><trkpt lat="45.942604401234924" lon="13.348542501190956"><ele>41.0</ele><time>2026-04-12T16:43:13Z</time></trkpt><trkpt lat="45.94244102792646" lon="13.348635813556388"><ele>41.0</ele><time>2026-04-12T16:43:14Z</time></trkpt><trkpt lat="45.94228229808315" lon="13.348759584623533"><ele>41.0</ele><time>2026-04-12T16:43:15Z</time></trkpt><trkpt lat="45.94213561753639" lon="13.34891668054803"><ele>40.33333333333333</ele><time>2026-04-12T16:43:16Z</time></trkpt><trkpt lat="45.942003143613675" lon="13.349100930225017"><ele>39.666666666666664</ele><time>2026-04-12T16:43:17Z</time></trkpt><trkpt lat="45.94188661869053" lon="13.349306574541817"><ele>39.0</ele><time>2026-04-12T16:43:18Z</time></trkpt><trkpt lat="45.941792129496" lon="13.349537779371865"><ele>39.0</ele><time>2026-04-12T16:43:19Z</time></trkpt><trkpt lat="45.94171577329939" lon="13.349781069026793"><ele>39.0</ele><time>2026-04-12T16:43:20Z</time></trkpt><trkpt lat="45.941660082699826" lon="13.350039353589592"><ele>39.0</ele><time>2026-04-12T16:43:21Z</time></trkpt><trkpt lat="45.941616629083526" lon="13.35031217752895"><ele>39.333333333333336</ele><time>2026-04-12T16:43:22Z</time></trkpt><trkpt lat="45.94157111351642" lon="13.350584529767188"><ele>39.66666666666667</ele><time>2026-04-12T16:43:23Z</time></trkpt><trkpt lat="45.941524019027334" lon="13.350864654312929"><ele>40.0</ele><time>2026-04-12T16:43:24Z</time></trkpt><trkpt lat="45.94147354535398" lon="13.35115413933736"><ele>40.333333333333336</ele><time>2026-04-12T16:43:25Z</time></trkpt><trkpt lat="45.94141903464838" lon="13.351459882194114"><ele>40.666666666666664</ele><time>2026-04-12T16:43:26Z</time></trkpt><trkpt lat="45.94136316175121" lon="13.351778462803448"><ele>41.0</ele><time>2026-04-12T16:43:27Z</time></trkpt><trkpt lat="45.941308080410295" lon="13.352107584045715"><ele>40.5</ele><time>2026-04-12T16:43:28Z</time></trkpt><trkpt lat="45.94125245938017" lon="13.352441756471553"><ele>40.0</ele><time>2026-04-12T16:43:29Z</time></trkpt><trkpt lat="45.94119669116696" lon="13.352779148787324"><ele>39.5</ele><time>2026-04-12T16:43:30Z</time></trkpt><trkpt lat="45.941140079915996" lon="13.353114868794918"><ele>39.0</ele><time>2026-04-12T16:43:31Z</time></trkpt><trkpt lat="45.941081275793486" lon="13.353444000213562"><ele>39.0</ele><time>2026-04-12T16:43:32Z</time></trkpt><trkpt lat="45.9410141944226" lon="13.353765496843979"><ele>39.0</ele><time>2026-04-12T16:43:33Z</time></trkpt><trkpt lat="45.940925509792145" lon="13.354079475471748"><ele>38.5</ele><time>2026-04-12T16:43:34Z</time></trkpt><trkpt lat="45.940811580430754" lon="13.354385349127853"><ele>38.0</ele><time>2026-04-12T16:43:35Z</time></trkpt><trkpt lat="45.94068796149143" lon="13.354687727370138"><ele>38.0</ele><time>2026-04-12T16:43:36Z</time></trkpt><trkpt lat="45.940563392089196" lon="13.354986591316091"><ele>38.0</ele><time>2026-04-12T16:43:37Z</time></trkpt><trkpt lat="45.94044324535312" lon="13.355276820143835"><ele>38.33333333333333</ele><time>2026-04-12T16:43:38Z</time></trkpt><trkpt lat="45.94032779849749" lon="13.355551152261512"><ele>38.666666666666664</ele><time>2026-04-12T16:43:39Z</time></trkpt><trkpt lat="45.94021390287612" lon="13.355797586100541"><ele>39.0</ele><time>2026-04-12T16:43:40Z</time></trkpt><trkpt lat="45.940076478282236" lon="13.35602385813355"><ele>39.0</ele><time>2026-04-12T16:43:41Z</time></trkpt><trkpt lat="45.93991658531229" lon="13.356228096903832"><ele>39.0</ele><time>2026-04-12T16:43:42Z</time></trkpt><trkpt lat="45.939741064169944" lon="13.356402542160769"><ele>39.0</ele><time>2026-04-12T16:43:43Z</time></trkpt><trkpt lat="45.93956556068694" lon="13.356583051630013"><ele>39.0</ele><time>2026-04-12T16:43:44Z</time></trkpt><trkpt lat="45.939395722563" lon="13.356769689215882"><ele>39.0</ele><time>2026-04-12T16:43:45Z</time></trkpt><trkpt lat="45.93922884242757" lon="13.356968588786396"><ele>39.0</ele><time>2026-04-12T16:43:46Z</time></trkpt><trkpt lat="45.93908242259915" lon="13.35718595474796"><ele>38.666666666666664</ele><time>2026-04-12T16:43:47Z</time></trkpt><trkpt lat="45.93895526126703" lon="13.357420509424186"><ele>38.33333333333333</ele><time>2026-04-12T16:43:48Z</time></trkpt><trkpt lat="45.938843832718206" lon="13.357666716390867"><ele>38.0</ele><time>2026-04-12T16:43:49Z</time></trkpt><trkpt lat="45.93874837669443" lon="13.357927076084136"><ele>38.33333333333333</ele><time>2026-04-12T16:43:50Z</time></trkpt><trkpt lat="45.93865958466601" lon="13.358202644426706"><ele>38.666666666666664</ele><time>2026-04-12T16:43:51Z</time></trkpt><trkpt lat="45.93856924936938" lon="13.358488298394283"><ele>39.0</ele><time>2026-04-12T16:43:52Z</time></trkpt><trkpt lat="45.93847415348603" lon="13.35877937307109"><ele>38.5</ele><time>2026-04-12T16:43:53Z</time></trkpt><trkpt lat="45.938375690948924" lon="13.359077841478818"><ele>38.0</ele><time>2026-04-12T16:43:54Z</time></trkpt><trkpt lat="45.93827776451381" lon="13.359381837153242"><ele>38.0</ele><time>2026-04-12T16:43:55Z</time></trkpt><trkpt lat="45.938177139741455" lon="13.359695384855483"><ele>38.0</ele><time>2026-04-12T16:43:56Z</time></trkpt><trkpt lat="45.938072699285904" lon="13.360011876910171"><ele>38.0</ele><time>2026-04-12T16:43:57Z</time></trkpt><trkpt lat="45.937971064845684" lon="13.3603276089222"><ele>38.0</ele><time>2026-04-12T16:43:58Z</time></trkpt><trkpt lat="45.937882599228914" lon="13.36064228859993"><ele>38.0</ele><time>2026-04-12T16:43:59Z</time></trkpt><trkpt lat="45.937806300036684" lon="13.360955366517064"><ele>38.0</ele><time>2026-04-12T16:44:00Z</time></trkpt><trkpt lat="45.93774287495758" lon="13.361270897084495"><ele>38.0</ele><time>2026-04-12T16:44:01Z</time></trkpt><trkpt lat="45.93768365861553" lon="13.361593404792192"><ele>38.0</ele><time>2026-04-12T16:44:02Z</time></trkpt><trkpt lat="45.937621375871586" lon="13.361916453145295"><ele>38.0</ele><time>2026-04-12T16:44:03Z</time></trkpt><trkpt lat="45.93755849215321" lon="13.362237914994397"><ele>38.0</ele><time>2026-04-12T16:44:04Z</time></trkpt><trkpt lat="45.93749650126025" lon="13.362559742830662"><ele>38.0</ele><time>2026-04-12T16:44:05Z</time></trkpt><trkpt lat="45.937438317571136" lon="13.36287188112461"><ele>38.0</ele><time>2026-04-12T16:44:06Z</time></trkpt><trkpt lat="45.93738837886852" lon="13.363151365449587"><ele>38.0</ele><time>2026-04-12T16:44:07Z</time></trkpt><trkpt lat="45.93734092539945" lon="13.363409564215763"><ele>38.0</ele><time>2026-04-12T16:44:08Z</time></trkpt><trkpt lat="45.937290397822096" lon="13.363657420582165"><ele>38.0</ele><time>2026-04-12T16:44:09Z</time></trkpt><trkpt lat="45.93723356115972" lon="13.363891817919692"><ele>38.0</ele><time>2026-04-12T16:44:10Z</time></trkpt><trkpt lat="45.93715164155045" lon="13.36410932382656"><ele>39.0</ele><time>2026-04-12T16:44:11Z</time></trkpt><trkpt lat="45.9370432011867" lon="13.364316836528563"><ele>40.0</ele><time>2026-04-12T16:44:12Z</time></trkpt><trkpt lat="45.93691061707106" lon="13.364493187004616"><ele>41.0</ele><time>2026-04-12T16:44:13Z</time></trkpt><trkpt lat="45.93675524976166" lon="13.364640390139016"><ele>40.0</ele><time>2026-04-12T16:44:14Z</time></trkpt><trkpt lat="45.93657822171815" lon="13.364751261974067"><ele>39.0</ele><time>2026-04-12T16:44:15Z</time></trkpt><trkpt lat="45.93638563706171" lon="13.364821727178473"><ele>38.0</ele><time>2026-04-12T16:44:16Z</time></trkpt><trkpt lat="45.936181271468556" lon="13.364851169545021"><ele>38.0</ele><time>2026-04-12T16:44:17Z</time></trkpt><trkpt lat="45.93597404942918" lon="13.364883831982798"><ele>38.0</ele><time>2026-04-12T16:44:18Z</time></trkpt><trkpt lat="45.9357588754146" lon="13.364924415357434"><ele>38.0</ele><time>2026-04-12T16:44:19Z</time></trkpt><trkpt lat="45.93553600749162" lon="13.364963991743885"><ele>37.0</ele><time>2026-04-12T16:44:20Z</time></trkpt><trkpt lat="45.93530551199398" lon="13.365004337177238"><ele>36.0</ele><time>2026-04-12T16:44:21Z</time></trkpt><trkpt lat="45.935077884819655" lon="13.365048964277838"><ele>36.333333333333336</ele><time>2026-04-12T16:44:22Z</time></trkpt><trkpt lat="45.93485566827151" lon="13.365091503020826"><ele>36.66666666666667</ele><time>2026-04-12T16:44:23Z</time></trkpt><trkpt lat="45.93463450075377" lon="13.365129892719258"><ele>37.0</ele><time>2026-04-12T16:44:24Z</time></trkpt><trkpt lat="45.93441761851561" lon="13.365168263478914"><ele>37.0</ele><time>2026-04-12T16:44:25Z</time></trkpt><trkpt lat="45.93420694114618" lon="13.365209893855242"><ele>37.0</ele><time>2026-04-12T16:44:26Z</time></trkpt><trkpt lat="45.93399789843521" lon="13.36524919637636"><ele>37.0</ele><time>2026-04-12T16:44:27Z</time></trkpt><trkpt lat="45.93378914983843" lon="13.365286475235973"><ele>37.0</ele><time>2026-04-12T16:44:28Z</time></trkpt><trkpt lat="45.93357965351914" lon="13.365322765989674"><ele>37.0</ele><time>2026-04-12T16:44:29Z</time></trkpt><trkpt lat="45.93336861723704" lon="13.365360002229906"><ele>37.0</ele><time>2026-04-12T16:44:30Z</time></trkpt><trkpt lat="45.933155545890834" lon="13.36539728273492"><ele>36.333333333333336</ele><time>2026-04-12T16:44:31Z</time></trkpt><trkpt lat="45.93294219459511" lon="13.365434637786548"><ele>35.666666666666664</ele><time>2026-04-12T16:44:32Z</time></trkpt><trkpt lat="45.93273087560468" lon="13.365470296042915"><ele>35.0</ele><time>2026-04-12T16:44:33Z</time></trkpt><trkpt lat="45.93252231152181" lon="13.365506503106415"><ele>35.666666666666664</ele><time>2026-04-12T16:44:34Z</time></trkpt><trkpt lat="45.93231542291315" lon="13.365549198177137"><ele>36.333333333333336</ele><time>2026-04-12T16:44:35Z</time></trkpt><trkpt lat="45.932108634405566" lon="13.365604440537384"><ele>37.0</ele><time>2026-04-12T16:44:36Z</time></trkpt><trkpt lat="45.93190473742535" lon="13.365677014831359"><ele>36.333333333333336</ele><time>2026-04-12T16:44:37Z</time></trkpt><trkpt lat="45.931705832630094" lon="13.365766099012298"><ele>35.666666666666664</ele><time>2026-04-12T16:44:38Z</time></trkpt><trkpt lat="45.93150349440569" lon="13.36586515969412"><ele>35.0</ele><time>2026-04-12T16:44:39Z</time></trkpt><trkpt lat="45.93129731671867" lon="13.365957755581192"><ele>35.0</ele><time>2026-04-12T16:44:40Z</time></trkpt><trkpt lat="45.93108998643413" lon="13.366045942343266"><ele>35.0</ele><time>2026-04-12T16:44:41Z</time></trkpt><trkpt lat="45.93088498952887" lon="13.366136266393015"><ele>35.0</ele><time>2026-04-12T16:44:42Z</time></trkpt><trkpt lat="45.93068014813934" lon="13.366226874904637"><ele>35.0</ele><time>2026-04-12T16:44:43Z</time></trkpt><trkpt lat="45.930476977579595" lon="13.366317532173893"><ele>35.0</ele><time>2026-04-12T16:44:44Z</time></trkpt><trkpt lat="45.93028861551306" lon="13.366403568355267"><ele>35.0</ele><time>2026-04-12T16:44:45Z</time></trkpt><trkpt lat="45.930099476966376" lon="13.366487944452173"><ele>35.0</ele><time>2026-04-12T16:44:46Z</time></trkpt><trkpt lat="45.929907698925916" lon="13.366569753962459"><ele>35.0</ele><time>2026-04-12T16:44:47Z</time></trkpt><trkpt lat="45.929711896522655" lon="13.366655893633736"><ele>35.0</ele><time>2026-04-12T16:44:48Z</time></trkpt><trkpt lat="45.92951456558301" lon="13.36674500012025"><ele>35.0</ele><time>2026-04-12T16:44:49Z</time></trkpt><trkpt lat="45.929316956810226" lon="13.366832373573988"><ele>35.0</ele><time>2026-04-12T16:44:50Z</time></trkpt><trkpt lat="45.929118412127025" lon="13.366919110685943"><ele>35.0</ele><time>2026-04-12T16:44:51Z</time></trkpt><trkpt lat="45.92891885060451" lon="13.367006563874892"><ele>34.666666666666664</ele><time>2026-04-12T16:44:52Z</time></trkpt><trkpt lat="45.92872039602152" lon="13.367094552329679"><ele>34.333333333333336</ele><time>2026-04-12T16:44:53Z</time></trkpt><trkpt lat="45.92852606758969" lon="13.367183233073268"><ele>34.0</ele><time>2026-04-12T16:44:54Z</time></trkpt><trkpt lat="45.92834623831536" lon="13.367268932113301"><ele>34.0</ele><time>2026-04-12T16:44:55Z</time></trkpt><trkpt lat="45.92817181817187" lon="13.36736080482316"><ele>34.0</ele><time>2026-04-12T16:44:56Z</time></trkpt><trkpt lat="45.92799234567557" lon="13.36744591285061"><ele>34.0</ele><time>2026-04-12T16:44:56.999Z</time></trkpt><trkpt lat="45.92781893383513" lon="13.367571598155148"><ele>34.0</ele><time>2026-04-12T16:44:57.999Z</time></trkpt><trkpt lat="45.92764431632439" lon="13.367709135997139"><ele>34.0</ele><time>2026-04-12T16:44:58.999Z</time></trkpt><trkpt lat="45.92748399894586" lon="13.36788769388782"><ele>34.0</ele><time>2026-04-12T16:44:59.999Z</time></trkpt><trkpt lat="45.92731195532644" lon="13.368043811633433"><ele>34.0</ele><time>2026-04-12T16:45:00.999Z</time></trkpt><trkpt lat="45.927137980168155" lon="13.36820584479192"><ele>34.0</ele><time>2026-04-12T16:45:01.999Z</time></trkpt><trkpt lat="45.9269630080601" lon="13.368365258047158"><ele>34.0</ele><time>2026-04-12T16:45:02.999Z</time></trkpt><trkpt lat="45.92678888314714" lon="13.368527059809823"><ele>34.0</ele><time>2026-04-12T16:45:03.999Z</time></trkpt><trkpt lat="45.926627371850344" lon="13.368675421577164"><ele>34.0</ele><time>2026-04-12T16:45:04.999Z</time></trkpt><trkpt lat="45.92647793649564" lon="13.368815029637743"><ele>34.0</ele><time>2026-04-12T16:45:05.999Z</time></trkpt><trkpt lat="45.92633780587396" lon="13.368944563118001"><ele>34.0</ele><time>2026-04-12T16:45:06.999Z</time></trkpt><trkpt lat="45.92620925190851" lon="13.369062431530649"><ele>34.0</ele><time>2026-04-12T16:45:07.999Z</time></trkpt><trkpt lat="45.92608543213311" lon="13.369176151686046"><ele>34.0</ele><time>2026-04-12T16:45:08.999Z</time></trkpt><trkpt lat="45.92596256888555" lon="13.369285780125555"><ele>34.0</ele><time>2026-04-12T16:45:09.999Z</time></trkpt><trkpt lat="45.925846937473004" lon="13.369371266983002"><ele>34.0</ele><time>2026-04-12T16:45:10.999Z</time></trkpt><trkpt lat="45.92574030605652" lon="13.36944866887579"><ele>34.0</ele><time>2026-04-12T16:45:11.999Z</time></trkpt><trkpt lat="45.925653229767214" lon="13.369511858348458"><ele>34.0</ele><time>2026-04-12T16:45:12.999Z</time></trkpt><trkpt lat="45.925592267596656" lon="13.369558209581065"><ele>34.0</ele><time>2026-04-12T16:45:14Z</time></trkpt><trkpt lat="45.92551728465643" lon="13.36959630799966"><ele>34.0</ele><time>2026-04-12T16:45:16Z</time></trkpt><trkpt lat="45.92545770431901" lon="13.369677041325074"><ele>34.0</ele><time>2026-04-12T16:48:34Z</time></trkpt><trkpt lat="45.92537626255098" lon="13.369759122058563"><ele>34.0</ele><time>2026-04-12T16:48:35Z</time></trkpt><trkpt lat="45.925269387048786" lon="13.369868452136815"><ele>34.0</ele><time>2026-04-12T16:48:36Z</time></trkpt><trkpt lat="45.92513982982242" lon="13.369998345733169"><ele>34.0</ele><time>2026-04-12T16:48:37Z</time></trkpt><trkpt lat="45.924985671778025" lon="13.370142326196376"><ele>33.5</ele><time>2026-04-12T16:48:38Z</time></trkpt><trkpt lat="45.92479971805348" lon="13.370305862040274"><ele>33.0</ele><time>2026-04-12T16:48:39Z</time></trkpt><trkpt lat="45.92458574727865" lon="13.370494396314434"><ele>33.0</ele><time>2026-04-12T16:48:40Z</time></trkpt><trkpt lat="45.924348549010574" lon="13.370706612243733"><ele>33.0</ele><time>2026-04-12T16:48:41Z</time></trkpt><trkpt lat="45.9241074262656" lon="13.370921319770737"><ele>33.0</ele><time>2026-04-12T16:48:42Z</time></trkpt><trkpt lat="45.923871074146824" lon="13.371127597656573"><ele>33.0</ele><time>2026-04-12T16:48:43Z</time></trkpt><trkpt lat="45.92363561477947" lon="13.371335008764206"><ele>33.0</ele><time>2026-04-12T16:48:44Z</time></trkpt><trkpt lat="45.92341494804358" lon="13.37152829977556"><ele>33.0</ele><time>2026-04-12T16:48:45Z</time></trkpt><trkpt lat="45.92321760112734" lon="13.371702193316505"><ele>33.0</ele><time>2026-04-12T16:48:46Z</time></trkpt><trkpt lat="45.92303113611381" lon="13.371866440631871"><ele>33.0</ele><time>2026-04-12T16:48:47Z</time></trkpt><trkpt lat="45.922851300402904" lon="13.372024935962905"><ele>33.0</ele><time>2026-04-12T16:48:48Z</time></trkpt><trkpt lat="45.922677273400865" lon="13.372179387210645"><ele>33.333333333333336</ele><time>2026-04-12T16:48:49Z</time></trkpt><trkpt lat="45.92250703598228" lon="13.3723277982571"><ele>33.66666666666667</ele><time>2026-04-12T16:48:50Z</time></trkpt><trkpt lat="45.92233830132339" lon="13.372474825062408"><ele>34.0</ele><time>2026-04-12T16:48:51Z</time></trkpt><trkpt lat="45.92217631758817" lon="13.37261728721453"><ele>34.0</ele><time>2026-04-12T16:48:52Z</time></trkpt><trkpt lat="45.92203082523856" lon="13.372744771357635"><ele>34.0</ele><time>2026-04-12T16:48:53Z</time></trkpt><trkpt lat="45.921917596877414" lon="13.372837436251656"><ele>34.0</ele><time>2026-04-12T16:48:54Z</time></trkpt><trkpt lat="45.921832480615755" lon="13.372900519803165"><ele>34.0</ele><time>2026-04-12T16:48:55Z</time></trkpt><trkpt lat="45.921743039585934" lon="13.372939900895505"><ele>34.0</ele><time>2026-04-12T16:48:57Z</time></trkpt><trkpt lat="45.921661931191764" lon="13.372967283144195"><ele>34.0</ele><time>2026-04-12T16:48:59Z</time></trkpt><trkpt lat="45.92154076746457" lon="13.372985227511482"><ele>34.0</ele><time>2026-04-12T16:49:01Z</time></trkpt><trkpt lat="45.921467497350626" lon="13.372997863967358"><ele>34.0</ele><time>2026-04-12T16:49:02Z</time></trkpt><trkpt lat="45.921373167987426" lon="13.373106963705563"><ele>34.0</ele><time>2026-04-12T16:49:03Z</time></trkpt><trkpt lat="45.921305490278804" lon="13.37326836828479"><ele>33.333333333333336</ele><time>2026-04-12T16:49:04Z</time></trkpt><trkpt lat="45.92118795104382" lon="13.373438447757398"><ele>32.666666666666664</ele><time>2026-04-12T16:49:05Z</time></trkpt><trkpt lat="45.9210072379915" lon="13.37362812187628"><ele>32.0</ele><time>2026-04-12T16:49:05.999Z</time></trkpt><trkpt lat="45.920786660861395" lon="13.373827158070434"><ele>32.0</ele><time>2026-04-12T16:49:06.999Z</time></trkpt><trkpt lat="45.920529192146425" lon="13.374047204595344"><ele>32.0</ele><time>2026-04-12T16:49:07.999Z</time></trkpt><trkpt lat="45.92026807205209" lon="13.374293372302542"><ele>31.5</ele><time>2026-04-12T16:49:08.999Z</time></trkpt><trkpt lat="45.92000331168167" lon="13.374529031137428"><ele>31.0</ele><time>2026-04-12T16:49:09.999Z</time></trkpt><trkpt lat="45.91976911184906" lon="13.374800340421793"><ele>31.0</ele><time>2026-04-12T16:49:10.999Z</time></trkpt><trkpt lat="45.91953834207554" lon="13.375036892069556"><ele>31.0</ele><time>2026-04-12T16:49:11.999Z</time></trkpt><trkpt lat="45.91932366868785" lon="13.375252616154208"><ele>31.0</ele><time>2026-04-12T16:49:12.999Z</time></trkpt><trkpt lat="45.91911051037222" lon="13.375443589699767"><ele>31.0</ele><time>2026-04-12T16:49:13.999Z</time></trkpt><trkpt lat="45.91889284833281" lon="13.375605634497676"><ele>31.5</ele><time>2026-04-12T16:49:14.999Z</time></trkpt><trkpt lat="45.91866445939399" lon="13.375738994466362"><ele>32.0</ele><time>2026-04-12T16:49:15.999Z</time></trkpt><trkpt lat="45.91842399052445" lon="13.37583078789522"><ele>32.0</ele><time>2026-04-12T16:49:16.999Z</time></trkpt><trkpt lat="45.91816712402504" lon="13.375883087926384"><ele>32.0</ele><time>2026-04-12T16:49:17.999Z</time></trkpt><trkpt lat="45.9179031325198" lon="13.375934520640518"><ele>32.0</ele><time>2026-04-12T16:49:18.999Z</time></trkpt><trkpt lat="45.91764285328908" lon="13.375983480012883"><ele>32.0</ele><time>2026-04-12T16:49:19.999Z</time></trkpt><trkpt lat="45.917399265352365" lon="13.376028371619563"><ele>31.0</ele><time>2026-04-12T16:49:20.999Z</time></trkpt><trkpt lat="45.91716569102643" lon="13.37607600944162"><ele>30.0</ele><time>2026-04-12T16:49:21.999Z</time></trkpt><trkpt lat="45.91694188395612" lon="13.376114229445275"><ele>31.0</ele><time>2026-04-12T16:49:22.999Z</time></trkpt><trkpt lat="45.91672312040719" lon="13.376147339215166"><ele>32.0</ele><time>2026-04-12T16:49:23.999Z</time></trkpt><trkpt lat="45.916503178719594" lon="13.37616167379807"><ele>33.0</ele><time>2026-04-12T16:49:24.999Z</time></trkpt><trkpt lat="45.916274730188206" lon="13.37616476453755"><ele>33.0</ele><time>2026-04-12T16:49:26Z</time></trkpt><trkpt lat="45.91604048067205" lon="13.376168792212553"><ele>33.0</ele><time>2026-04-12T16:49:27Z</time></trkpt><trkpt lat="45.9158053726843" lon="13.376178234402822"><ele>33.5</ele><time>2026-04-12T16:49:28Z</time></trkpt><trkpt lat="45.91557133870943" lon="13.37620027229573"><ele>34.0</ele><time>2026-04-12T16:49:29Z</time></trkpt><trkpt lat="45.915333738529874" lon="13.376235423805044"><ele>34.0</ele><time>2026-04-12T16:49:30Z</time></trkpt><trkpt lat="45.915096128925896" lon="13.376273188777823"><ele>34.0</ele><time>2026-04-12T16:49:31Z</time></trkpt><trkpt lat="45.91487118566019" lon="13.376311723034627"><ele>33.66666666666667</ele><time>2026-04-12T16:49:32Z</time></trkpt><trkpt lat="45.91466216980626" lon="13.376348440918399"><ele>33.333333333333336</ele><time>2026-04-12T16:49:33Z</time></trkpt><trkpt lat="45.914458073701134" lon="13.376388366799688"><ele>33.0</ele><time>2026-04-12T16:49:34Z</time></trkpt><trkpt lat="45.91425907453096" lon="13.37643773127877"><ele>33.0</ele><time>2026-04-12T16:49:35Z</time></trkpt><trkpt lat="45.91406699418871" lon="13.376499671542762"><ele>33.0</ele><time>2026-04-12T16:49:36Z</time></trkpt><trkpt lat="45.91388140963275" lon="13.376576716194332"><ele>33.0</ele><time>2026-04-12T16:49:37Z</time></trkpt><trkpt lat="45.91370024288104" lon="13.37665274433784"><ele>33.0</ele><time>2026-04-12T16:49:38Z</time></trkpt><trkpt lat="45.913524549207345" lon="13.376715579469087"><ele>33.0</ele><time>2026-04-12T16:49:39Z</time></trkpt><trkpt lat="45.91336570360681" lon="13.37676510313922"><ele>33.0</ele><time>2026-04-12T16:49:40Z</time></trkpt><trkpt lat="45.913209095953164" lon="13.37682374987593"><ele>33.0</ele><time>2026-04-12T16:49:41Z</time></trkpt><trkpt lat="45.91305558163165" lon="13.376913544024589"><ele>33.0</ele><time>2026-04-12T16:49:42Z</time></trkpt><trkpt lat="45.91290148128964" lon="13.377036076221442"><ele>33.0</ele><time>2026-04-12T16:49:43Z</time></trkpt><trkpt lat="45.91274346983216" lon="13.37720108509225"><ele>32.5</ele><time>2026-04-12T16:49:44Z</time></trkpt><trkpt lat="45.91256448365637" lon="13.377396260784684"><ele>32.0</ele><time>2026-04-12T16:49:45Z</time></trkpt><trkpt lat="45.912361119313545" lon="13.377593909853292"><ele>32.0</ele><time>2026-04-12T16:49:46Z</time></trkpt><trkpt lat="45.91215436483188" lon="13.37780509990954"><ele>32.0</ele><time>2026-04-12T16:49:47Z</time></trkpt><trkpt lat="45.91195087904271" lon="13.378018457027173"><ele>31.5</ele><time>2026-04-12T16:49:48Z</time></trkpt><trkpt lat="45.91175377687356" lon="13.378216190510388"><ele>31.0</ele><time>2026-04-12T16:49:49Z</time></trkpt><trkpt lat="45.911544907931244" lon="13.378382339367157"><ele>31.0</ele><time>2026-04-12T16:49:50Z</time></trkpt><trkpt lat="45.91132268619078" lon="13.378514283667611"><ele>31.0</ele><time>2026-04-12T16:49:51Z</time></trkpt><trkpt lat="45.911087137710226" lon="13.37860602979965"><ele>30.5</ele><time>2026-04-12T16:49:52Z</time></trkpt><trkpt lat="45.91084020708525" lon="13.378665990020197"><ele>30.0</ele><time>2026-04-12T16:49:53Z</time></trkpt><trkpt lat="45.91058522107189" lon="13.378685652032278"><ele>30.0</ele><time>2026-04-12T16:49:54Z</time></trkpt><trkpt lat="45.91033175760321" lon="13.37866736155934"><ele>30.0</ele><time>2026-04-12T16:49:55Z</time></trkpt><trkpt lat="45.910083632213556" lon="13.378639035722165"><ele>29.0</ele><time>2026-04-12T16:49:56Z</time></trkpt><trkpt lat="45.90984620904587" lon="13.37862482767231"><ele>28.0</ele><time>2026-04-12T16:49:57Z</time></trkpt><trkpt lat="45.90962989919243" lon="13.378626561627613"><ele>28.0</ele><time>2026-04-12T16:49:58Z</time></trkpt><trkpt lat="45.909435589839504" lon="13.37863487129396"><ele>28.0</ele><time>2026-04-12T16:49:59Z</time></trkpt><trkpt lat="45.90926427363633" lon="13.378644560807007"><ele>28.0</ele><time>2026-04-12T16:50:00Z</time></trkpt><trkpt lat="45.90910963597558" lon="13.378659560782324"><ele>28.333333333333336</ele><time>2026-04-12T16:50:01Z</time></trkpt><trkpt lat="45.90896114260046" lon="13.378677418659894"><ele>28.666666666666664</ele><time>2026-04-12T16:50:02Z</time></trkpt><trkpt lat="45.908809691629116" lon="13.378698678378338"><ele>29.0</ele><time>2026-04-12T16:50:03Z</time></trkpt><trkpt lat="45.90865905263276" lon="13.378724032184724"><ele>29.0</ele><time>2026-04-12T16:50:04Z</time></trkpt><trkpt lat="45.90850875525332" lon="13.378752948356675"><ele>29.0</ele><time>2026-04-12T16:50:05Z</time></trkpt><trkpt lat="45.908344718907315" lon="13.378797245056356"><ele>29.0</ele><time>2026-04-12T16:50:06Z</time></trkpt><trkpt lat="45.908120258601116" lon="13.378831554858497"><ele>29.0</ele><time>2026-04-12T16:50:07Z</time></trkpt><trkpt lat="45.907849953334434" lon="13.378913480164078"><ele>29.0</ele><time>2026-04-12T16:50:08Z</time></trkpt><trkpt lat="45.90754515815846" lon="13.37905933199725"><ele>29.0</ele><time>2026-04-12T16:50:09Z</time></trkpt><trkpt lat="45.90720647861723" lon="13.37918434407947"><ele>29.0</ele><time>2026-04-12T16:50:10Z</time></trkpt><trkpt lat="45.90688093492894" lon="13.379288430699626"><ele>29.0</ele><time>2026-04-12T16:50:11Z</time></trkpt><trkpt lat="45.90656657312948" lon="13.379358897540145"><ele>29.0</ele><time>2026-04-12T16:50:12Z</time></trkpt><trkpt lat="45.906240432648644" lon="13.379397200235541"><ele>28.5</ele><time>2026-04-12T16:50:13Z</time></trkpt><trkpt lat="45.905909332839066" lon="13.379432878543257"><ele>28.0</ele><time>2026-04-12T16:50:14Z</time></trkpt><trkpt lat="45.905573724786386" lon="13.379476421215012"><ele>28.0</ele><time>2026-04-12T16:50:15Z</time></trkpt><trkpt lat="45.90524042997888" lon="13.379518705818212"><ele>28.0</ele><time>2026-04-12T16:50:16Z</time></trkpt><trkpt lat="45.90491270652675" lon="13.379565362404172"><ele>27.0</ele><time>2026-04-12T16:50:17Z</time></trkpt><trkpt lat="45.90458616802146" lon="13.379619285896728"><ele>26.0</ele><time>2026-04-12T16:50:18Z</time></trkpt><trkpt lat="45.9042646356821" lon="13.379677204352502"><ele>26.5</ele><time>2026-04-12T16:50:19Z</time></trkpt><trkpt lat="45.90394884051972" lon="13.379739964374615"><ele>27.0</ele><time>2026-04-12T16:50:20Z</time></trkpt><trkpt lat="45.90363923800924" lon="13.379807277336639"><ele>27.0</ele><time>2026-04-12T16:50:21Z</time></trkpt><trkpt lat="45.90333690721235" lon="13.379877581112929"><ele>27.0</ele><time>2026-04-12T16:50:22Z</time></trkpt><trkpt lat="45.90303737188499" lon="13.379944956737551"><ele>27.0</ele><time>2026-04-12T16:50:23Z</time></trkpt><trkpt lat="45.90274094289434" lon="13.38001016527607"><ele>27.0</ele><time>2026-04-12T16:50:24Z</time></trkpt><trkpt lat="45.902449189288205" lon="13.380073168747838"><ele>26.5</ele><time>2026-04-12T16:50:25Z</time></trkpt><trkpt lat="45.90216432123472" lon="13.380135384718933"><ele>26.0</ele><time>2026-04-12T16:50:26Z</time></trkpt><trkpt lat="45.901890797137625" lon="13.380191316442085"><ele>25.5</ele><time>2026-04-12T16:50:27Z</time></trkpt><trkpt lat="45.901636866292826" lon="13.380238441586604"><ele>25.0</ele><time>2026-04-12T16:50:28Z</time></trkpt><trkpt lat="45.90139942225457" lon="13.380274794596735"><ele>25.0</ele><time>2026-04-12T16:50:29Z</time></trkpt><trkpt lat="45.90117579303552" lon="13.3803056668282"><ele>25.0</ele><time>2026-04-12T16:50:30Z</time></trkpt><trkpt lat="45.900961261350425" lon="13.380334830911412"><ele>25.0</ele><time>2026-04-12T16:50:31Z</time></trkpt><trkpt lat="45.90074728447242" lon="13.380342091272071"><ele>25.333333333333336</ele><time>2026-04-12T16:50:32Z</time></trkpt><trkpt lat="45.90054310099788" lon="13.380369038356474"><ele>25.666666666666664</ele><time>2026-04-12T16:50:33Z</time></trkpt><trkpt lat="45.90035326408208" lon="13.380395798131165"><ele>26.0</ele><time>2026-04-12T16:50:34Z</time></trkpt><trkpt lat="45.900162742537965" lon="13.380443501950358"><ele>26.0</ele><time>2026-04-12T16:50:35Z</time></trkpt><trkpt lat="45.899972249526115" lon="13.380471209386622"><ele>26.0</ele><time>2026-04-12T16:50:36Z</time></trkpt><trkpt lat="45.8997838241908" lon="13.380503206848774"><ele>26.0</ele><time>2026-04-12T16:50:37Z</time></trkpt><trkpt lat="45.89959398214748" lon="13.38054245339578"><ele>26.0</ele><time>2026-04-12T16:50:38Z</time></trkpt><trkpt lat="45.89939762412066" lon="13.380566840378547"><ele>26.0</ele><time>2026-04-12T16:50:39Z</time></trkpt><trkpt lat="45.89920147025862" lon="13.380617731289156"><ele>26.0</ele><time>2026-04-12T16:50:40Z</time></trkpt><trkpt lat="45.89901189451894" lon="13.380700354972978"><ele>25.333333333333332</ele><time>2026-04-12T16:50:41Z</time></trkpt><trkpt lat="45.89882419109295" lon="13.380767652297223"><ele>24.666666666666664</ele><time>2026-04-12T16:50:42Z</time></trkpt><trkpt lat="45.89863928282651" lon="13.380839849118113"><ele>24.0</ele><time>2026-04-12T16:50:43Z</time></trkpt><trkpt lat="45.89845544598951" lon="13.380913390300032"><ele>24.666666666666664</ele><time>2026-04-12T16:50:44Z</time></trkpt><trkpt lat="45.898272788946706" lon="13.38098521096542"><ele>25.333333333333332</ele><time>2026-04-12T16:50:45Z</time></trkpt><trkpt lat="45.89808688658761" lon="13.381057398972674"><ele>26.0</ele><time>2026-04-12T16:50:46Z</time></trkpt><trkpt lat="45.89789401615504" lon="13.381135692939745"><ele>26.0</ele><time>2026-04-12T16:50:47Z</time></trkpt><trkpt lat="45.89769907033425" lon="13.381213359700354"><ele>26.0</ele><time>2026-04-12T16:50:48Z</time></trkpt><trkpt lat="45.89750542946238" lon="13.381293359638937"><ele>26.0</ele><time>2026-04-12T16:50:49Z</time></trkpt><trkpt lat="45.897311591983474" lon="13.381375905239848"><ele>26.0</ele><time>2026-04-12T16:50:50Z</time></trkpt><trkpt lat="45.89712077284059" lon="13.381457441237503"><ele>26.0</ele><time>2026-04-12T16:50:51Z</time></trkpt><trkpt lat="45.896931752392184" lon="13.381539587167172"><ele>26.0</ele><time>2026-04-12T16:50:52Z</time></trkpt><trkpt lat="45.89674419969256" lon="13.38162244851847"><ele>26.0</ele><time>2026-04-12T16:50:53Z</time></trkpt><trkpt lat="45.89655944501955" lon="13.381707014691848"><ele>26.0</ele><time>2026-04-12T16:50:54Z</time></trkpt><trkpt lat="45.896384368231665" lon="13.381789115944956"><ele>26.0</ele><time>2026-04-12T16:50:55Z</time></trkpt><trkpt lat="45.89624035618695" lon="13.381855251585371"><ele>26.0</ele><time>2026-04-12T16:50:56Z</time></trkpt><trkpt lat="45.896118477003604" lon="13.381907073225296"><ele>26.0</ele><time>2026-04-12T16:50:57Z</time></trkpt><trkpt lat="45.89601229381329" lon="13.381958999382"><ele>26.0</ele><time>2026-04-12T16:50:58Z</time></trkpt><trkpt lat="45.89592195932746" lon="13.382002334538138"><ele>26.0</ele><time>2026-04-12T16:50:59Z</time></trkpt><trkpt lat="45.89585170707995" lon="13.382029854863605"><ele>26.0</ele><time>2026-04-12T16:51:00Z</time></trkpt><trkpt lat="45.89577456684086" lon="13.382006624874997"><ele>26.166666666666664</ele><time>2026-04-12T16:51:02Z</time></trkpt><trkpt lat="45.89578358318456" lon="13.381913080938727"><ele>26.333333333333332</ele><time>2026-04-12T16:51:04Z</time></trkpt><trkpt lat="45.89580891360564" lon="13.381782467500111"><ele>26.5</ele><time>2026-04-12T16:51:06Z</time></trkpt><trkpt lat="45.89583005894041" lon="13.381614258304326"><ele>26.666666666666664</ele><time>2026-04-12T16:51:08Z</time></trkpt><trkpt lat="45.895848723653934" lon="13.381524018662988"><ele>26.833333333333332</ele><time>2026-04-12T16:51:08.999Z</time></trkpt><trkpt lat="45.89587740979493" lon="13.381385631856938"><ele>27.0</ele><time>2026-04-12T16:51:10.999Z</time></trkpt><trkpt lat="45.89590350295738" lon="13.38128300541005"><ele>25.0</ele><time>2026-04-12T16:51:12.999Z</time></trkpt><trkpt lat="45.89593604392795" lon="13.381201308258202"><ele>26.0</ele><time>2026-04-12T16:51:29.999Z</time></trkpt></trkseg></trk></gpx>